<?xml version="1.0" encoding="UTF-8" standalone="no" ?>
<gpx xmlns="http://www.topografix.com/GPX/1/1" xmlns:xsi="http://www.w3.org/2001/XMLSchema-instance" xsi:schemaLocation="http://www.topografix.com/GPX/1/1 http://www.topografix.com/GPX/1/1/gpx.xsd" version="1.1" creator="VisuGPX - https://www.visugpx.com">
  <metadata>
    <name>Marche du 25 09 2011</name>
    <desc><![CDATA[Randonnée de Spicheren à la Chapelle Ste Croix et au chalet des Amis de la Nature à Stiring ]]></desc>
  </metadata>
  <trk>
    <name><![CDATA[Marche du 25 09 2011_1]]></name>
    <trkseg>
      <trkpt lat="49.19096" lon="6.96482">
        <ele>320</ele>
        <time>2011-09-25T05:59:05Z</time>
      </trkpt>
      <trkpt lat="49.19092" lon="6.96441">
        <ele>320</ele>
        <time>2011-09-25T06:03:29Z</time>
      </trkpt>
      <trkpt lat="49.1909" lon="6.96439">
        <ele>320</ele>
        <time>2011-09-25T06:03:31Z</time>
      </trkpt>
      <trkpt lat="49.19088" lon="6.96438">
        <ele>319</ele>
        <time>2011-09-25T06:03:33Z</time>
      </trkpt>
      <trkpt lat="49.19087" lon="6.96436">
        <ele>319</ele>
        <time>2011-09-25T06:03:34Z</time>
      </trkpt>
      <trkpt lat="49.19085" lon="6.96435">
        <ele>319</ele>
        <time>2011-09-25T06:03:36Z</time>
      </trkpt>
      <trkpt lat="49.19084" lon="6.96432">
        <ele>319</ele>
        <time>2011-09-25T06:03:39Z</time>
      </trkpt>
      <trkpt lat="49.19082" lon="6.9643">
        <ele>319</ele>
        <time>2011-09-25T06:03:41Z</time>
      </trkpt>
      <trkpt lat="49.19081" lon="6.96428">
        <ele>319</ele>
        <time>2011-09-25T06:03:43Z</time>
      </trkpt>
      <trkpt lat="49.1908" lon="6.96426">
        <ele>319</ele>
        <time>2011-09-25T06:03:45Z</time>
      </trkpt>
      <trkpt lat="49.19078" lon="6.96425">
        <ele>319</ele>
        <time>2011-09-25T06:03:47Z</time>
      </trkpt>
      <trkpt lat="49.19076" lon="6.96423">
        <ele>319</ele>
        <time>2011-09-25T06:03:49Z</time>
      </trkpt>
      <trkpt lat="49.19074" lon="6.96423">
        <ele>319</ele>
        <time>2011-09-25T06:03:51Z</time>
      </trkpt>
      <trkpt lat="49.19072" lon="6.96422">
        <ele>319</ele>
        <time>2011-09-25T06:03:52Z</time>
      </trkpt>
      <trkpt lat="49.19071" lon="6.96422">
        <ele>319</ele>
        <time>2011-09-25T06:03:54Z</time>
      </trkpt>
      <trkpt lat="49.19069" lon="6.96421">
        <ele>319</ele>
        <time>2011-09-25T06:03:57Z</time>
      </trkpt>
      <trkpt lat="49.19067" lon="6.9642">
        <ele>319</ele>
        <time>2011-09-25T06:03:58Z</time>
      </trkpt>
      <trkpt lat="49.19066" lon="6.96419">
        <ele>319</ele>
        <time>2011-09-25T06:04:00Z</time>
      </trkpt>
      <trkpt lat="49.19065" lon="6.96418">
        <ele>319</ele>
        <time>2011-09-25T06:04:01Z</time>
      </trkpt>
      <trkpt lat="49.19063" lon="6.96416">
        <ele>319</ele>
        <time>2011-09-25T06:04:02Z</time>
      </trkpt>
      <trkpt lat="49.19062" lon="6.96414">
        <ele>319</ele>
        <time>2011-09-25T06:04:05Z</time>
      </trkpt>
      <trkpt lat="49.1906" lon="6.96411">
        <ele>319</ele>
        <time>2011-09-25T06:04:06Z</time>
      </trkpt>
      <trkpt lat="49.1906" lon="6.96409">
        <ele>319</ele>
        <time>2011-09-25T06:04:08Z</time>
      </trkpt>
      <trkpt lat="49.19059" lon="6.96407">
        <ele>319</ele>
        <time>2011-09-25T06:04:09Z</time>
      </trkpt>
      <trkpt lat="49.19058" lon="6.96404">
        <ele>319</ele>
        <time>2011-09-25T06:04:11Z</time>
      </trkpt>
      <trkpt lat="49.19058" lon="6.96402">
        <ele>319</ele>
        <time>2011-09-25T06:04:12Z</time>
      </trkpt>
      <trkpt lat="49.19057" lon="6.96399">
        <ele>319</ele>
        <time>2011-09-25T06:04:13Z</time>
      </trkpt>
      <trkpt lat="49.19057" lon="6.96397">
        <ele>319</ele>
        <time>2011-09-25T06:04:15Z</time>
      </trkpt>
      <trkpt lat="49.19057" lon="6.96395">
        <ele>319</ele>
        <time>2011-09-25T06:04:16Z</time>
      </trkpt>
      <trkpt lat="49.19056" lon="6.96394">
        <ele>319</ele>
        <time>2011-09-25T06:04:16Z</time>
      </trkpt>
      <trkpt lat="49.19056" lon="6.9639">
        <ele>319</ele>
        <time>2011-09-25T06:04:18Z</time>
      </trkpt>
      <trkpt lat="49.19055" lon="6.96388">
        <ele>319</ele>
        <time>2011-09-25T06:04:20Z</time>
      </trkpt>
      <trkpt lat="49.19054" lon="6.96386">
        <ele>319</ele>
        <time>2011-09-25T06:04:20Z</time>
      </trkpt>
      <trkpt lat="49.19054" lon="6.96384">
        <ele>319</ele>
        <time>2011-09-25T06:04:21Z</time>
      </trkpt>
      <trkpt lat="49.19053" lon="6.96383">
        <ele>319</ele>
        <time>2011-09-25T06:04:23Z</time>
      </trkpt>
      <trkpt lat="49.19053" lon="6.96381">
        <ele>319</ele>
        <time>2011-09-25T06:04:24Z</time>
      </trkpt>
      <trkpt lat="49.19052" lon="6.96379">
        <ele>319</ele>
        <time>2011-09-25T06:04:24Z</time>
      </trkpt>
      <trkpt lat="49.19051" lon="6.96377">
        <ele>319</ele>
        <time>2011-09-25T06:04:26Z</time>
      </trkpt>
      <trkpt lat="49.1905" lon="6.96374">
        <ele>319</ele>
        <time>2011-09-25T06:04:28Z</time>
      </trkpt>
      <trkpt lat="49.19049" lon="6.96371">
        <ele>319</ele>
        <time>2011-09-25T06:04:29Z</time>
      </trkpt>
      <trkpt lat="49.19048" lon="6.96368">
        <ele>319</ele>
        <time>2011-09-25T06:04:32Z</time>
      </trkpt>
      <trkpt lat="49.19048" lon="6.96366">
        <ele>319</ele>
        <time>2011-09-25T06:04:33Z</time>
      </trkpt>
      <trkpt lat="49.19046" lon="6.96363">
        <ele>319</ele>
        <time>2011-09-25T06:04:35Z</time>
      </trkpt>
      <trkpt lat="49.19046" lon="6.9636">
        <ele>319</ele>
        <time>2011-09-25T06:04:37Z</time>
      </trkpt>
      <trkpt lat="49.19046" lon="6.96359">
        <ele>319</ele>
        <time>2011-09-25T06:04:37Z</time>
      </trkpt>
      <trkpt lat="49.19045" lon="6.96357">
        <ele>319</ele>
        <time>2011-09-25T06:04:38Z</time>
      </trkpt>
      <trkpt lat="49.19045" lon="6.96355">
        <ele>319</ele>
        <time>2011-09-25T06:04:40Z</time>
      </trkpt>
      <trkpt lat="49.19045" lon="6.96354">
        <ele>319</ele>
        <time>2011-09-25T06:04:40Z</time>
      </trkpt>
      <trkpt lat="49.19045" lon="6.96352">
        <ele>319</ele>
        <time>2011-09-25T06:04:42Z</time>
      </trkpt>
      <trkpt lat="49.19046" lon="6.96349">
        <ele>319</ele>
        <time>2011-09-25T06:04:44Z</time>
      </trkpt>
      <trkpt lat="49.19047" lon="6.96346">
        <ele>319</ele>
        <time>2011-09-25T06:04:45Z</time>
      </trkpt>
      <trkpt lat="49.19048" lon="6.96344">
        <ele>319</ele>
        <time>2011-09-25T06:04:48Z</time>
      </trkpt>
      <trkpt lat="49.19049" lon="6.96342">
        <ele>319</ele>
        <time>2011-09-25T06:04:49Z</time>
      </trkpt>
      <trkpt lat="49.1905" lon="6.96339">
        <ele>319</ele>
        <time>2011-09-25T06:04:52Z</time>
      </trkpt>
      <trkpt lat="49.19051" lon="6.96335">
        <ele>319</ele>
        <time>2011-09-25T06:04:54Z</time>
      </trkpt>
      <trkpt lat="49.19051" lon="6.96332">
        <ele>319</ele>
        <time>2011-09-25T06:04:55Z</time>
      </trkpt>
      <trkpt lat="49.19052" lon="6.9633">
        <ele>319</ele>
        <time>2011-09-25T06:04:56Z</time>
      </trkpt>
      <trkpt lat="49.19054" lon="6.96327">
        <ele>319</ele>
        <time>2011-09-25T06:04:58Z</time>
      </trkpt>
      <trkpt lat="49.19054" lon="6.96324">
        <ele>319</ele>
        <time>2011-09-25T06:05:00Z</time>
      </trkpt>
      <trkpt lat="49.19055" lon="6.96321">
        <ele>319</ele>
        <time>2011-09-25T06:05:01Z</time>
      </trkpt>
      <trkpt lat="49.19056" lon="6.96318">
        <ele>319</ele>
        <time>2011-09-25T06:05:02Z</time>
      </trkpt>
      <trkpt lat="49.19058" lon="6.96315">
        <ele>319</ele>
        <time>2011-09-25T06:05:05Z</time>
      </trkpt>
      <trkpt lat="49.19059" lon="6.96313">
        <ele>319</ele>
        <time>2011-09-25T06:05:07Z</time>
      </trkpt>
      <trkpt lat="49.1906" lon="6.96311">
        <ele>319</ele>
        <time>2011-09-25T06:05:09Z</time>
      </trkpt>
      <trkpt lat="49.19062" lon="6.96308">
        <ele>319</ele>
        <time>2011-09-25T06:05:11Z</time>
      </trkpt>
      <trkpt lat="49.19064" lon="6.96305">
        <ele>319</ele>
        <time>2011-09-25T06:05:13Z</time>
      </trkpt>
      <trkpt lat="49.19066" lon="6.96302">
        <ele>319</ele>
        <time>2011-09-25T06:05:15Z</time>
      </trkpt>
      <trkpt lat="49.19067" lon="6.963">
        <ele>319</ele>
        <time>2011-09-25T06:05:17Z</time>
      </trkpt>
      <trkpt lat="49.19069" lon="6.96297">
        <ele>319</ele>
        <time>2011-09-25T06:05:18Z</time>
      </trkpt>
      <trkpt lat="49.19071" lon="6.96294">
        <ele>319</ele>
        <time>2011-09-25T06:05:21Z</time>
      </trkpt>
      <trkpt lat="49.19072" lon="6.96291">
        <ele>319</ele>
        <time>2011-09-25T06:05:23Z</time>
      </trkpt>
      <trkpt lat="49.19073" lon="6.9629">
        <ele>319</ele>
        <time>2011-09-25T06:05:24Z</time>
      </trkpt>
      <trkpt lat="49.19073" lon="6.96288">
        <ele>319</ele>
        <time>2011-09-25T06:05:25Z</time>
      </trkpt>
      <trkpt lat="49.19074" lon="6.96286">
        <ele>319</ele>
        <time>2011-09-25T06:05:26Z</time>
      </trkpt>
      <trkpt lat="49.19076" lon="6.96283">
        <ele>319</ele>
        <time>2011-09-25T06:05:28Z</time>
      </trkpt>
      <trkpt lat="49.19077" lon="6.96281">
        <ele>320</ele>
        <time>2011-09-25T06:05:29Z</time>
      </trkpt>
      <trkpt lat="49.19077" lon="6.96279">
        <ele>320</ele>
        <time>2011-09-25T06:05:30Z</time>
      </trkpt>
      <trkpt lat="49.19078" lon="6.96278">
        <ele>320</ele>
        <time>2011-09-25T06:05:31Z</time>
      </trkpt>
      <trkpt lat="49.19079" lon="6.96276">
        <ele>320</ele>
        <time>2011-09-25T06:05:32Z</time>
      </trkpt>
      <trkpt lat="49.1908" lon="6.96275">
        <ele>320</ele>
        <time>2011-09-25T06:05:33Z</time>
      </trkpt>
      <trkpt lat="49.19081" lon="6.96273">
        <ele>321</ele>
        <time>2011-09-25T06:05:34Z</time>
      </trkpt>
      <trkpt lat="49.19081" lon="6.96271">
        <ele>321</ele>
        <time>2011-09-25T06:05:35Z</time>
      </trkpt>
      <trkpt lat="49.19083" lon="6.96268">
        <ele>321</ele>
        <time>2011-09-25T06:05:37Z</time>
      </trkpt>
      <trkpt lat="49.19084" lon="6.96266">
        <ele>322</ele>
        <time>2011-09-25T06:05:39Z</time>
      </trkpt>
      <trkpt lat="49.19086" lon="6.96264">
        <ele>322</ele>
        <time>2011-09-25T06:05:41Z</time>
      </trkpt>
      <trkpt lat="49.19087" lon="6.96261">
        <ele>322</ele>
        <time>2011-09-25T06:05:43Z</time>
      </trkpt>
      <trkpt lat="49.19088" lon="6.96258">
        <ele>322</ele>
        <time>2011-09-25T06:05:45Z</time>
      </trkpt>
      <trkpt lat="49.1909" lon="6.96255">
        <ele>322</ele>
        <time>2011-09-25T06:05:47Z</time>
      </trkpt>
      <trkpt lat="49.1909" lon="6.96254">
        <ele>322</ele>
        <time>2011-09-25T06:05:48Z</time>
      </trkpt>
      <trkpt lat="49.19091" lon="6.96252">
        <ele>322</ele>
        <time>2011-09-25T06:05:49Z</time>
      </trkpt>
      <trkpt lat="49.19093" lon="6.96249">
        <ele>322</ele>
        <time>2011-09-25T06:05:51Z</time>
      </trkpt>
      <trkpt lat="49.19093" lon="6.96247">
        <ele>322</ele>
        <time>2011-09-25T06:05:52Z</time>
      </trkpt>
      <trkpt lat="49.19095" lon="6.96244">
        <ele>322</ele>
        <time>2011-09-25T06:05:54Z</time>
      </trkpt>
      <trkpt lat="49.19097" lon="6.96242">
        <ele>322</ele>
        <time>2011-09-25T06:05:56Z</time>
      </trkpt>
      <trkpt lat="49.19098" lon="6.96238">
        <ele>322</ele>
        <time>2011-09-25T06:05:58Z</time>
      </trkpt>
      <trkpt lat="49.191" lon="6.96236">
        <ele>322</ele>
        <time>2011-09-25T06:06:00Z</time>
      </trkpt>
      <trkpt lat="49.19101" lon="6.96233">
        <ele>322</ele>
        <time>2011-09-25T06:06:02Z</time>
      </trkpt>
      <trkpt lat="49.19103" lon="6.96232">
        <ele>323</ele>
        <time>2011-09-25T06:06:03Z</time>
      </trkpt>
      <trkpt lat="49.19104" lon="6.96229">
        <ele>323</ele>
        <time>2011-09-25T06:06:05Z</time>
      </trkpt>
      <trkpt lat="49.19105" lon="6.96227">
        <ele>323</ele>
        <time>2011-09-25T06:06:06Z</time>
      </trkpt>
      <trkpt lat="49.19106" lon="6.96225">
        <ele>323</ele>
        <time>2011-09-25T06:06:07Z</time>
      </trkpt>
      <trkpt lat="49.19107" lon="6.96223">
        <ele>323</ele>
        <time>2011-09-25T06:06:08Z</time>
      </trkpt>
      <trkpt lat="49.19108" lon="6.96222">
        <ele>323</ele>
        <time>2011-09-25T06:06:09Z</time>
      </trkpt>
      <trkpt lat="49.19109" lon="6.96219">
        <ele>323</ele>
        <time>2011-09-25T06:06:11Z</time>
      </trkpt>
      <trkpt lat="49.1911" lon="6.96218">
        <ele>323</ele>
        <time>2011-09-25T06:06:12Z</time>
      </trkpt>
      <trkpt lat="49.19111" lon="6.96216">
        <ele>323</ele>
        <time>2011-09-25T06:06:13Z</time>
      </trkpt>
      <trkpt lat="49.19113" lon="6.96213">
        <ele>323</ele>
        <time>2011-09-25T06:06:15Z</time>
      </trkpt>
      <trkpt lat="49.19113" lon="6.96211">
        <ele>323</ele>
        <time>2011-09-25T06:06:16Z</time>
      </trkpt>
      <trkpt lat="49.19114" lon="6.96209">
        <ele>323</ele>
        <time>2011-09-25T06:06:17Z</time>
      </trkpt>
      <trkpt lat="49.19114" lon="6.96207">
        <ele>323</ele>
        <time>2011-09-25T06:06:18Z</time>
      </trkpt>
      <trkpt lat="49.19116" lon="6.96205">
        <ele>323</ele>
        <time>2011-09-25T06:06:20Z</time>
      </trkpt>
      <trkpt lat="49.19117" lon="6.96203">
        <ele>323</ele>
        <time>2011-09-25T06:06:21Z</time>
      </trkpt>
      <trkpt lat="49.19117" lon="6.96201">
        <ele>323</ele>
        <time>2011-09-25T06:06:22Z</time>
      </trkpt>
      <trkpt lat="49.19118" lon="6.962">
        <ele>323</ele>
        <time>2011-09-25T06:06:23Z</time>
      </trkpt>
      <trkpt lat="49.19119" lon="6.96198">
        <ele>323</ele>
        <time>2011-09-25T06:06:24Z</time>
      </trkpt>
      <trkpt lat="49.19119" lon="6.96196">
        <ele>323</ele>
        <time>2011-09-25T06:06:25Z</time>
      </trkpt>
      <trkpt lat="49.1912" lon="6.96194">
        <ele>323</ele>
        <time>2011-09-25T06:06:26Z</time>
      </trkpt>
      <trkpt lat="49.19121" lon="6.96191">
        <ele>323</ele>
        <time>2011-09-25T06:06:28Z</time>
      </trkpt>
      <trkpt lat="49.19121" lon="6.96188">
        <ele>323</ele>
        <time>2011-09-25T06:06:30Z</time>
      </trkpt>
      <trkpt lat="49.1912" lon="6.96186">
        <ele>323</ele>
        <time>2011-09-25T06:06:32Z</time>
      </trkpt>
      <trkpt lat="49.19119" lon="6.96183">
        <ele>323</ele>
        <time>2011-09-25T06:06:34Z</time>
      </trkpt>
      <trkpt lat="49.19118" lon="6.96181">
        <ele>323</ele>
        <time>2011-09-25T06:06:36Z</time>
      </trkpt>
      <trkpt lat="49.19117" lon="6.96179">
        <ele>323</ele>
        <time>2011-09-25T06:06:38Z</time>
      </trkpt>
      <trkpt lat="49.19115" lon="6.96177">
        <ele>323</ele>
        <time>2011-09-25T06:06:40Z</time>
      </trkpt>
      <trkpt lat="49.19114" lon="6.96176">
        <ele>323</ele>
        <time>2011-09-25T06:06:42Z</time>
      </trkpt>
      <trkpt lat="49.19112" lon="6.96174">
        <ele>324</ele>
        <time>2011-09-25T06:06:44Z</time>
      </trkpt>
      <trkpt lat="49.1911" lon="6.96172">
        <ele>324</ele>
        <time>2011-09-25T06:06:46Z</time>
      </trkpt>
      <trkpt lat="49.19109" lon="6.9617">
        <ele>324</ele>
        <time>2011-09-25T06:06:48Z</time>
      </trkpt>
      <trkpt lat="49.19107" lon="6.96168">
        <ele>324</ele>
        <time>2011-09-25T06:06:49Z</time>
      </trkpt>
      <trkpt lat="49.19106" lon="6.96166">
        <ele>324</ele>
        <time>2011-09-25T06:06:51Z</time>
      </trkpt>
      <trkpt lat="49.19104" lon="6.96164">
        <ele>324</ele>
        <time>2011-09-25T06:06:54Z</time>
      </trkpt>
      <trkpt lat="49.19102" lon="6.96162">
        <ele>324</ele>
        <time>2011-09-25T06:06:56Z</time>
      </trkpt>
      <trkpt lat="49.19101" lon="6.9616">
        <ele>325</ele>
        <time>2011-09-25T06:06:58Z</time>
      </trkpt>
      <trkpt lat="49.19099" lon="6.96159">
        <ele>325</ele>
        <time>2011-09-25T06:07:00Z</time>
      </trkpt>
      <trkpt lat="49.19097" lon="6.96157">
        <ele>326</ele>
        <time>2011-09-25T06:07:02Z</time>
      </trkpt>
      <trkpt lat="49.19096" lon="6.96156">
        <ele>326</ele>
        <time>2011-09-25T06:07:04Z</time>
      </trkpt>
      <trkpt lat="49.19094" lon="6.96154">
        <ele>327</ele>
        <time>2011-09-25T06:07:06Z</time>
      </trkpt>
      <trkpt lat="49.19093" lon="6.96152">
        <ele>327</ele>
        <time>2011-09-25T06:07:07Z</time>
      </trkpt>
      <trkpt lat="49.19092" lon="6.96151">
        <ele>328</ele>
        <time>2011-09-25T06:07:09Z</time>
      </trkpt>
      <trkpt lat="49.19091" lon="6.9615">
        <ele>328</ele>
        <time>2011-09-25T06:07:10Z</time>
      </trkpt>
      <trkpt lat="49.19089" lon="6.96149">
        <ele>328</ele>
        <time>2011-09-25T06:07:11Z</time>
      </trkpt>
      <trkpt lat="49.19088" lon="6.96147">
        <ele>328</ele>
        <time>2011-09-25T06:07:12Z</time>
      </trkpt>
      <trkpt lat="49.19087" lon="6.96145">
        <ele>328</ele>
        <time>2011-09-25T06:07:13Z</time>
      </trkpt>
      <trkpt lat="49.19086" lon="6.96142">
        <ele>329</ele>
        <time>2011-09-25T06:07:15Z</time>
      </trkpt>
      <trkpt lat="49.19086" lon="6.96141">
        <ele>329</ele>
        <time>2011-09-25T06:07:16Z</time>
      </trkpt>
      <trkpt lat="49.19085" lon="6.96138">
        <ele>330</ele>
        <time>2011-09-25T06:07:18Z</time>
      </trkpt>
      <trkpt lat="49.19085" lon="6.96136">
        <ele>330</ele>
        <time>2011-09-25T06:07:20Z</time>
      </trkpt>
      <trkpt lat="49.19084" lon="6.96133">
        <ele>330</ele>
        <time>2011-09-25T06:07:22Z</time>
      </trkpt>
      <trkpt lat="49.19083" lon="6.9613">
        <ele>330</ele>
        <time>2011-09-25T06:07:24Z</time>
      </trkpt>
      <trkpt lat="49.19082" lon="6.96128">
        <ele>330</ele>
        <time>2011-09-25T06:07:26Z</time>
      </trkpt>
      <trkpt lat="49.19081" lon="6.96126">
        <ele>330</ele>
        <time>2011-09-25T06:07:28Z</time>
      </trkpt>
      <trkpt lat="49.1908" lon="6.96123">
        <ele>330</ele>
        <time>2011-09-25T06:07:30Z</time>
      </trkpt>
      <trkpt lat="49.19078" lon="6.96121">
        <ele>330</ele>
        <time>2011-09-25T06:07:32Z</time>
      </trkpt>
      <trkpt lat="49.19077" lon="6.96118">
        <ele>330</ele>
        <time>2011-09-25T06:07:34Z</time>
      </trkpt>
      <trkpt lat="49.19076" lon="6.96115">
        <ele>331</ele>
        <time>2011-09-25T06:07:36Z</time>
      </trkpt>
      <trkpt lat="49.19075" lon="6.96112">
        <ele>331</ele>
        <time>2011-09-25T06:07:38Z</time>
      </trkpt>
      <trkpt lat="49.19074" lon="6.96111">
        <ele>331</ele>
        <time>2011-09-25T06:07:39Z</time>
      </trkpt>
      <trkpt lat="49.19073" lon="6.96108">
        <ele>332</ele>
        <time>2011-09-25T06:07:41Z</time>
      </trkpt>
      <trkpt lat="49.19072" lon="6.96106">
        <ele>332</ele>
        <time>2011-09-25T06:07:42Z</time>
      </trkpt>
      <trkpt lat="49.19072" lon="6.96104">
        <ele>332</ele>
        <time>2011-09-25T06:07:44Z</time>
      </trkpt>
      <trkpt lat="49.19071" lon="6.96102">
        <ele>332</ele>
        <time>2011-09-25T06:07:45Z</time>
      </trkpt>
      <trkpt lat="49.1907" lon="6.96099">
        <ele>333</ele>
        <time>2011-09-25T06:07:47Z</time>
      </trkpt>
      <trkpt lat="49.19068" lon="6.96096">
        <ele>333</ele>
        <time>2011-09-25T06:07:48Z</time>
      </trkpt>
      <trkpt lat="49.19067" lon="6.96094">
        <ele>333</ele>
        <time>2011-09-25T06:07:51Z</time>
      </trkpt>
      <trkpt lat="49.19065" lon="6.96092">
        <ele>333</ele>
        <time>2011-09-25T06:07:53Z</time>
      </trkpt>
      <trkpt lat="49.19064" lon="6.9609">
        <ele>333</ele>
        <time>2011-09-25T06:07:55Z</time>
      </trkpt>
      <trkpt lat="49.19063" lon="6.96088">
        <ele>333</ele>
        <time>2011-09-25T06:07:56Z</time>
      </trkpt>
      <trkpt lat="49.19061" lon="6.96086">
        <ele>333</ele>
        <time>2011-09-25T06:07:58Z</time>
      </trkpt>
      <trkpt lat="49.19059" lon="6.96083">
        <ele>334</ele>
        <time>2011-09-25T06:08:00Z</time>
      </trkpt>
      <trkpt lat="49.19057" lon="6.96081">
        <ele>334</ele>
        <time>2011-09-25T06:08:02Z</time>
      </trkpt>
      <trkpt lat="49.19055" lon="6.96079">
        <ele>334</ele>
        <time>2011-09-25T06:08:04Z</time>
      </trkpt>
      <trkpt lat="49.19053" lon="6.96077">
        <ele>334</ele>
        <time>2011-09-25T06:08:06Z</time>
      </trkpt>
      <trkpt lat="49.19052" lon="6.96075">
        <ele>334</ele>
        <time>2011-09-25T06:08:07Z</time>
      </trkpt>
      <trkpt lat="49.1905" lon="6.96074">
        <ele>334</ele>
        <time>2011-09-25T06:08:09Z</time>
      </trkpt>
      <trkpt lat="49.19049" lon="6.96072">
        <ele>335</ele>
        <time>2011-09-25T06:08:11Z</time>
      </trkpt>
      <trkpt lat="49.19047" lon="6.9607">
        <ele>335</ele>
        <time>2011-09-25T06:08:13Z</time>
      </trkpt>
      <trkpt lat="49.19046" lon="6.96068">
        <ele>335</ele>
        <time>2011-09-25T06:08:15Z</time>
      </trkpt>
      <trkpt lat="49.19044" lon="6.96066">
        <ele>335</ele>
        <time>2011-09-25T06:08:17Z</time>
      </trkpt>
      <trkpt lat="49.19042" lon="6.96065">
        <ele>335</ele>
        <time>2011-09-25T06:08:19Z</time>
      </trkpt>
      <trkpt lat="49.19041" lon="6.96064">
        <ele>335</ele>
        <time>2011-09-25T06:08:22Z</time>
      </trkpt>
      <trkpt lat="49.1904" lon="6.96062">
        <ele>335</ele>
        <time>2011-09-25T06:08:58Z</time>
      </trkpt>
      <trkpt lat="49.19041" lon="6.9606">
        <ele>335</ele>
        <time>2011-09-25T06:09:01Z</time>
      </trkpt>
      <trkpt lat="49.1904" lon="6.96058">
        <ele>335</ele>
        <time>2011-09-25T06:09:02Z</time>
      </trkpt>
      <trkpt lat="49.19039" lon="6.96056">
        <ele>335</ele>
        <time>2011-09-25T06:09:03Z</time>
      </trkpt>
      <trkpt lat="49.19038" lon="6.96054">
        <ele>336</ele>
        <time>2011-09-25T06:09:05Z</time>
      </trkpt>
      <trkpt lat="49.19036" lon="6.96053">
        <ele>336</ele>
        <time>2011-09-25T06:09:07Z</time>
      </trkpt>
      <trkpt lat="49.19034" lon="6.96051">
        <ele>336</ele>
        <time>2011-09-25T06:09:09Z</time>
      </trkpt>
      <trkpt lat="49.19032" lon="6.96049">
        <ele>336</ele>
        <time>2011-09-25T06:09:11Z</time>
      </trkpt>
      <trkpt lat="49.1903" lon="6.96046">
        <ele>337</ele>
        <time>2011-09-25T06:09:13Z</time>
      </trkpt>
      <trkpt lat="49.19029" lon="6.96044">
        <ele>337</ele>
        <time>2011-09-25T06:09:15Z</time>
      </trkpt>
      <trkpt lat="49.19027" lon="6.96042">
        <ele>337</ele>
        <time>2011-09-25T06:09:17Z</time>
      </trkpt>
      <trkpt lat="49.19025" lon="6.9604">
        <ele>337</ele>
        <time>2011-09-25T06:09:19Z</time>
      </trkpt>
      <trkpt lat="49.19023" lon="6.96038">
        <ele>337</ele>
        <time>2011-09-25T06:09:21Z</time>
      </trkpt>
      <trkpt lat="49.19021" lon="6.96036">
        <ele>337</ele>
        <time>2011-09-25T06:09:23Z</time>
      </trkpt>
      <trkpt lat="49.19019" lon="6.96036">
        <ele>338</ele>
        <time>2011-09-25T06:09:25Z</time>
      </trkpt>
      <trkpt lat="49.19018" lon="6.96036">
        <ele>338</ele>
        <time>2011-09-25T06:09:26Z</time>
      </trkpt>
      <trkpt lat="49.19017" lon="6.96036">
        <ele>338</ele>
        <time>2011-09-25T06:09:27Z</time>
      </trkpt>
      <trkpt lat="49.19015" lon="6.96035">
        <ele>338</ele>
        <time>2011-09-25T06:09:28Z</time>
      </trkpt>
      <trkpt lat="49.19014" lon="6.96034">
        <ele>338</ele>
        <time>2011-09-25T06:09:29Z</time>
      </trkpt>
      <trkpt lat="49.19012" lon="6.96033">
        <ele>338</ele>
        <time>2011-09-25T06:09:30Z</time>
      </trkpt>
      <trkpt lat="49.19011" lon="6.96032">
        <ele>338</ele>
        <time>2011-09-25T06:09:31Z</time>
      </trkpt>
      <trkpt lat="49.19009" lon="6.96029">
        <ele>338</ele>
        <time>2011-09-25T06:09:33Z</time>
      </trkpt>
      <trkpt lat="49.19008" lon="6.96028">
        <ele>339</ele>
        <time>2011-09-25T06:09:34Z</time>
      </trkpt>
      <trkpt lat="49.19007" lon="6.96027">
        <ele>339</ele>
        <time>2011-09-25T06:09:35Z</time>
      </trkpt>
      <trkpt lat="49.19005" lon="6.96025">
        <ele>339</ele>
        <time>2011-09-25T06:09:37Z</time>
      </trkpt>
      <trkpt lat="49.19003" lon="6.96023">
        <ele>339</ele>
        <time>2011-09-25T06:09:39Z</time>
      </trkpt>
      <trkpt lat="49.19001" lon="6.96021">
        <ele>339</ele>
        <time>2011-09-25T06:09:41Z</time>
      </trkpt>
      <trkpt lat="49.19" lon="6.9602">
        <ele>339</ele>
        <time>2011-09-25T06:09:42Z</time>
      </trkpt>
      <trkpt lat="49.18998" lon="6.96018">
        <ele>339</ele>
        <time>2011-09-25T06:09:44Z</time>
      </trkpt>
      <trkpt lat="49.18996" lon="6.96017">
        <ele>339</ele>
        <time>2011-09-25T06:09:45Z</time>
      </trkpt>
      <trkpt lat="49.18995" lon="6.96016">
        <ele>339</ele>
        <time>2011-09-25T06:09:45Z</time>
      </trkpt>
      <trkpt lat="49.18994" lon="6.96015">
        <ele>339</ele>
        <time>2011-09-25T06:09:47Z</time>
      </trkpt>
      <trkpt lat="49.18992" lon="6.96013">
        <ele>339</ele>
        <time>2011-09-25T06:09:49Z</time>
      </trkpt>
      <trkpt lat="49.1899" lon="6.9601">
        <ele>340</ele>
        <time>2011-09-25T06:09:51Z</time>
      </trkpt>
      <trkpt lat="49.18989" lon="6.96009">
        <ele>340</ele>
        <time>2011-09-25T06:09:52Z</time>
      </trkpt>
      <trkpt lat="49.18987" lon="6.96007">
        <ele>340</ele>
        <time>2011-09-25T06:09:54Z</time>
      </trkpt>
      <trkpt lat="49.18985" lon="6.96005">
        <ele>340</ele>
        <time>2011-09-25T06:09:56Z</time>
      </trkpt>
      <trkpt lat="49.18983" lon="6.96004">
        <ele>340</ele>
        <time>2011-09-25T06:09:57Z</time>
      </trkpt>
      <trkpt lat="49.18982" lon="6.96002">
        <ele>340</ele>
        <time>2011-09-25T06:09:58Z</time>
      </trkpt>
      <trkpt lat="49.18981" lon="6.96001">
        <ele>340</ele>
        <time>2011-09-25T06:09:59Z</time>
      </trkpt>
      <trkpt lat="49.18979" lon="6.95999">
        <ele>340</ele>
        <time>2011-09-25T06:10:01Z</time>
      </trkpt>
      <trkpt lat="49.18978" lon="6.95998">
        <ele>340</ele>
        <time>2011-09-25T06:10:02Z</time>
      </trkpt>
      <trkpt lat="49.18975" lon="6.95996">
        <ele>340</ele>
        <time>2011-09-25T06:10:04Z</time>
      </trkpt>
      <trkpt lat="49.18973" lon="6.95994">
        <ele>340</ele>
        <time>2011-09-25T06:10:06Z</time>
      </trkpt>
      <trkpt lat="49.18971" lon="6.95992">
        <ele>340</ele>
        <time>2011-09-25T06:10:08Z</time>
      </trkpt>
      <trkpt lat="49.1897" lon="6.9599">
        <ele>340</ele>
        <time>2011-09-25T06:10:09Z</time>
      </trkpt>
      <trkpt lat="49.18969" lon="6.95989">
        <ele>340</ele>
        <time>2011-09-25T06:10:10Z</time>
      </trkpt>
      <trkpt lat="49.18967" lon="6.95987">
        <ele>340</ele>
        <time>2011-09-25T06:10:12Z</time>
      </trkpt>
      <trkpt lat="49.18966" lon="6.95986">
        <ele>340</ele>
        <time>2011-09-25T06:10:13Z</time>
      </trkpt>
      <trkpt lat="49.18964" lon="6.95985">
        <ele>340</ele>
        <time>2011-09-25T06:10:14Z</time>
      </trkpt>
      <trkpt lat="49.18963" lon="6.95984">
        <ele>340</ele>
        <time>2011-09-25T06:10:15Z</time>
      </trkpt>
      <trkpt lat="49.18961" lon="6.95982">
        <ele>340</ele>
        <time>2011-09-25T06:10:17Z</time>
      </trkpt>
      <trkpt lat="49.1896" lon="6.9598">
        <ele>340</ele>
        <time>2011-09-25T06:10:18Z</time>
      </trkpt>
      <trkpt lat="49.18959" lon="6.95979">
        <ele>340</ele>
        <time>2011-09-25T06:10:19Z</time>
      </trkpt>
      <trkpt lat="49.18956" lon="6.95977">
        <ele>340</ele>
        <time>2011-09-25T06:10:21Z</time>
      </trkpt>
      <trkpt lat="49.18955" lon="6.95976">
        <ele>340</ele>
        <time>2011-09-25T06:10:22Z</time>
      </trkpt>
      <trkpt lat="49.18953" lon="6.95974">
        <ele>340</ele>
        <time>2011-09-25T06:10:24Z</time>
      </trkpt>
      <trkpt lat="49.18952" lon="6.95973">
        <ele>340</ele>
        <time>2011-09-25T06:10:25Z</time>
      </trkpt>
      <trkpt lat="49.1895" lon="6.9597">
        <ele>340</ele>
        <time>2011-09-25T06:10:27Z</time>
      </trkpt>
      <trkpt lat="49.18948" lon="6.95969">
        <ele>340</ele>
        <time>2011-09-25T06:10:28Z</time>
      </trkpt>
      <trkpt lat="49.18947" lon="6.95968">
        <ele>340</ele>
        <time>2011-09-25T06:10:29Z</time>
      </trkpt>
      <trkpt lat="49.18946" lon="6.95967">
        <ele>340</ele>
        <time>2011-09-25T06:10:30Z</time>
      </trkpt>
      <trkpt lat="49.18945" lon="6.95966">
        <ele>340</ele>
        <time>2011-09-25T06:10:31Z</time>
      </trkpt>
      <trkpt lat="49.18943" lon="6.95963">
        <ele>340</ele>
        <time>2011-09-25T06:10:33Z</time>
      </trkpt>
      <trkpt lat="49.18942" lon="6.95962">
        <ele>341</ele>
        <time>2011-09-25T06:10:34Z</time>
      </trkpt>
      <trkpt lat="49.1894" lon="6.95961">
        <ele>341</ele>
        <time>2011-09-25T06:10:35Z</time>
      </trkpt>
      <trkpt lat="49.18938" lon="6.95959">
        <ele>341</ele>
        <time>2011-09-25T06:10:37Z</time>
      </trkpt>
      <trkpt lat="49.18937" lon="6.95958">
        <ele>341</ele>
        <time>2011-09-25T06:10:38Z</time>
      </trkpt>
      <trkpt lat="49.18935" lon="6.95955">
        <ele>341</ele>
        <time>2011-09-25T06:10:40Z</time>
      </trkpt>
      <trkpt lat="49.18934" lon="6.95954">
        <ele>341</ele>
        <time>2011-09-25T06:10:41Z</time>
      </trkpt>
      <trkpt lat="49.18933" lon="6.95953">
        <ele>341</ele>
        <time>2011-09-25T06:10:42Z</time>
      </trkpt>
      <trkpt lat="49.18932" lon="6.95953">
        <ele>341</ele>
        <time>2011-09-25T06:10:43Z</time>
      </trkpt>
      <trkpt lat="49.18929" lon="6.95953">
        <ele>341</ele>
        <time>2011-09-25T06:10:45Z</time>
      </trkpt>
      <trkpt lat="49.18928" lon="6.95953">
        <ele>341</ele>
        <time>2011-09-25T06:10:46Z</time>
      </trkpt>
      <trkpt lat="49.18926" lon="6.95954">
        <ele>342</ele>
        <time>2011-09-25T06:10:48Z</time>
      </trkpt>
      <trkpt lat="49.18925" lon="6.95955">
        <ele>342</ele>
        <time>2011-09-25T06:10:49Z</time>
      </trkpt>
      <trkpt lat="49.18923" lon="6.95956">
        <ele>342</ele>
        <time>2011-09-25T06:10:51Z</time>
      </trkpt>
      <trkpt lat="49.18921" lon="6.95958">
        <ele>342</ele>
        <time>2011-09-25T06:10:53Z</time>
      </trkpt>
      <trkpt lat="49.18919" lon="6.95961">
        <ele>342</ele>
        <time>2011-09-25T06:10:55Z</time>
      </trkpt>
      <trkpt lat="49.18919" lon="6.95962">
        <ele>342</ele>
        <time>2011-09-25T06:10:56Z</time>
      </trkpt>
      <trkpt lat="49.18918" lon="6.95964">
        <ele>342</ele>
        <time>2011-09-25T06:10:57Z</time>
      </trkpt>
      <trkpt lat="49.18917" lon="6.95966">
        <ele>343</ele>
        <time>2011-09-25T06:10:58Z</time>
      </trkpt>
      <trkpt lat="49.18916" lon="6.95969">
        <ele>343</ele>
        <time>2011-09-25T06:11:00Z</time>
      </trkpt>
      <trkpt lat="49.18915" lon="6.95971">
        <ele>343</ele>
        <time>2011-09-25T06:11:01Z</time>
      </trkpt>
      <trkpt lat="49.18914" lon="6.95974">
        <ele>343</ele>
        <time>2011-09-25T06:11:03Z</time>
      </trkpt>
      <trkpt lat="49.18913" lon="6.95976">
        <ele>343</ele>
        <time>2011-09-25T06:11:04Z</time>
      </trkpt>
      <trkpt lat="49.18912" lon="6.95978">
        <ele>343</ele>
        <time>2011-09-25T06:11:06Z</time>
      </trkpt>
      <trkpt lat="49.18911" lon="6.9598">
        <ele>343</ele>
        <time>2011-09-25T06:11:07Z</time>
      </trkpt>
      <trkpt lat="49.18909" lon="6.95983">
        <ele>343</ele>
        <time>2011-09-25T06:11:09Z</time>
      </trkpt>
      <trkpt lat="49.18908" lon="6.95986">
        <ele>343</ele>
        <time>2011-09-25T06:11:11Z</time>
      </trkpt>
      <trkpt lat="49.18907" lon="6.95987">
        <ele>343</ele>
        <time>2011-09-25T06:11:12Z</time>
      </trkpt>
      <trkpt lat="49.18906" lon="6.9599">
        <ele>343</ele>
        <time>2011-09-25T06:11:14Z</time>
      </trkpt>
      <trkpt lat="49.18906" lon="6.95993">
        <ele>343</ele>
        <time>2011-09-25T06:11:16Z</time>
      </trkpt>
      <trkpt lat="49.18905" lon="6.95996">
        <ele>343</ele>
        <time>2011-09-25T06:11:18Z</time>
      </trkpt>
      <trkpt lat="49.18904" lon="6.95998">
        <ele>343</ele>
        <time>2011-09-25T06:11:18Z</time>
      </trkpt>
      <trkpt lat="49.18903" lon="6.95999">
        <ele>343</ele>
        <time>2011-09-25T06:11:20Z</time>
      </trkpt>
      <trkpt lat="49.18903" lon="6.96001">
        <ele>343</ele>
        <time>2011-09-25T06:11:21Z</time>
      </trkpt>
      <trkpt lat="49.18902" lon="6.96003">
        <ele>343</ele>
        <time>2011-09-25T06:11:22Z</time>
      </trkpt>
      <trkpt lat="49.189" lon="6.96003">
        <ele>343</ele>
        <time>2011-09-25T06:11:24Z</time>
      </trkpt>
      <trkpt lat="49.18898" lon="6.96002">
        <ele>343</ele>
        <time>2011-09-25T06:11:25Z</time>
      </trkpt>
      <trkpt lat="49.18897" lon="6.96001">
        <ele>343</ele>
        <time>2011-09-25T06:11:27Z</time>
      </trkpt>
      <trkpt lat="49.18895" lon="6.96">
        <ele>343</ele>
        <time>2011-09-25T06:11:28Z</time>
      </trkpt>
      <trkpt lat="49.18894" lon="6.96">
        <ele>343</ele>
        <time>2011-09-25T06:11:29Z</time>
      </trkpt>
      <trkpt lat="49.18893" lon="6.95999">
        <ele>343</ele>
        <time>2011-09-25T06:11:30Z</time>
      </trkpt>
      <trkpt lat="49.18891" lon="6.95997">
        <ele>343</ele>
        <time>2011-09-25T06:11:32Z</time>
      </trkpt>
      <trkpt lat="49.18889" lon="6.95995">
        <ele>343</ele>
        <time>2011-09-25T06:11:34Z</time>
      </trkpt>
      <trkpt lat="49.18887" lon="6.95994">
        <ele>343</ele>
        <time>2011-09-25T06:11:35Z</time>
      </trkpt>
      <trkpt lat="49.18886" lon="6.95993">
        <ele>343</ele>
        <time>2011-09-25T06:11:36Z</time>
      </trkpt>
      <trkpt lat="49.18885" lon="6.95992">
        <ele>343</ele>
        <time>2011-09-25T06:11:37Z</time>
      </trkpt>
      <trkpt lat="49.18883" lon="6.9599">
        <ele>343</ele>
        <time>2011-09-25T06:11:39Z</time>
      </trkpt>
      <trkpt lat="49.18881" lon="6.95988">
        <ele>343</ele>
        <time>2011-09-25T06:11:41Z</time>
      </trkpt>
      <trkpt lat="49.18879" lon="6.95986">
        <ele>343</ele>
        <time>2011-09-25T06:11:43Z</time>
      </trkpt>
      <trkpt lat="49.18878" lon="6.95985">
        <ele>343</ele>
        <time>2011-09-25T06:11:44Z</time>
      </trkpt>
      <trkpt lat="49.18877" lon="6.95985">
        <ele>343</ele>
        <time>2011-09-25T06:11:45Z</time>
      </trkpt>
      <trkpt lat="49.18875" lon="6.95984">
        <ele>343</ele>
        <time>2011-09-25T06:11:46Z</time>
      </trkpt>
      <trkpt lat="49.18874" lon="6.95983">
        <ele>343</ele>
        <time>2011-09-25T06:11:47Z</time>
      </trkpt>
      <trkpt lat="49.18872" lon="6.95982">
        <ele>343</ele>
        <time>2011-09-25T06:11:49Z</time>
      </trkpt>
      <trkpt lat="49.1887" lon="6.9598">
        <ele>343</ele>
        <time>2011-09-25T06:11:51Z</time>
      </trkpt>
      <trkpt lat="49.18869" lon="6.95979">
        <ele>343</ele>
        <time>2011-09-25T06:11:52Z</time>
      </trkpt>
      <trkpt lat="49.18867" lon="6.95978">
        <ele>343</ele>
        <time>2011-09-25T06:11:52Z</time>
      </trkpt>
      <trkpt lat="49.18866" lon="6.95977">
        <ele>343</ele>
        <time>2011-09-25T06:11:54Z</time>
      </trkpt>
      <trkpt lat="49.18865" lon="6.95976">
        <ele>343</ele>
        <time>2011-09-25T06:11:55Z</time>
      </trkpt>
      <trkpt lat="49.18863" lon="6.95975">
        <ele>343</ele>
        <time>2011-09-25T06:11:56Z</time>
      </trkpt>
      <trkpt lat="49.18861" lon="6.95974">
        <ele>343</ele>
        <time>2011-09-25T06:11:58Z</time>
      </trkpt>
      <trkpt lat="49.1886" lon="6.95973">
        <ele>343</ele>
        <time>2011-09-25T06:11:59Z</time>
      </trkpt>
      <trkpt lat="49.18859" lon="6.95971">
        <ele>343</ele>
        <time>2011-09-25T06:12:00Z</time>
      </trkpt>
      <trkpt lat="49.18858" lon="6.95971">
        <ele>343</ele>
        <time>2011-09-25T06:12:00Z</time>
      </trkpt>
      <trkpt lat="49.18857" lon="6.9597">
        <ele>343</ele>
        <time>2011-09-25T06:12:02Z</time>
      </trkpt>
      <trkpt lat="49.18855" lon="6.9597">
        <ele>343</ele>
        <time>2011-09-25T06:12:03Z</time>
      </trkpt>
      <trkpt lat="49.18854" lon="6.95969">
        <ele>343</ele>
        <time>2011-09-25T06:12:04Z</time>
      </trkpt>
      <trkpt lat="49.18853" lon="6.95968">
        <ele>343</ele>
        <time>2011-09-25T06:12:04Z</time>
      </trkpt>
      <trkpt lat="49.18851" lon="6.95966">
        <ele>343</ele>
        <time>2011-09-25T06:12:07Z</time>
      </trkpt>
      <trkpt lat="49.18849" lon="6.95964">
        <ele>343</ele>
        <time>2011-09-25T06:12:09Z</time>
      </trkpt>
      <trkpt lat="49.18847" lon="6.95962">
        <ele>343</ele>
        <time>2011-09-25T06:12:11Z</time>
      </trkpt>
      <trkpt lat="49.18845" lon="6.95961">
        <ele>343</ele>
        <time>2011-09-25T06:12:13Z</time>
      </trkpt>
      <trkpt lat="49.18843" lon="6.9596">
        <ele>343</ele>
        <time>2011-09-25T06:12:14Z</time>
      </trkpt>
      <trkpt lat="49.18842" lon="6.9596">
        <ele>343</ele>
        <time>2011-09-25T06:12:15Z</time>
      </trkpt>
      <trkpt lat="49.1884" lon="6.9596">
        <ele>343</ele>
        <time>2011-09-25T06:12:16Z</time>
      </trkpt>
      <trkpt lat="49.18839" lon="6.95961">
        <ele>343</ele>
        <time>2011-09-25T06:12:16Z</time>
      </trkpt>
      <trkpt lat="49.18837" lon="6.95962">
        <ele>343</ele>
        <time>2011-09-25T06:12:19Z</time>
      </trkpt>
      <trkpt lat="49.18836" lon="6.95963">
        <ele>343</ele>
        <time>2011-09-25T06:12:20Z</time>
      </trkpt>
      <trkpt lat="49.18834" lon="6.95965">
        <ele>343</ele>
        <time>2011-09-25T06:12:22Z</time>
      </trkpt>
      <trkpt lat="49.18833" lon="6.95966">
        <ele>343</ele>
        <time>2011-09-25T06:12:23Z</time>
      </trkpt>
      <trkpt lat="49.18831" lon="6.95967">
        <ele>343</ele>
        <time>2011-09-25T06:12:25Z</time>
      </trkpt>
      <trkpt lat="49.1883" lon="6.95968">
        <ele>343</ele>
        <time>2011-09-25T06:12:25Z</time>
      </trkpt>
      <trkpt lat="49.18829" lon="6.95968">
        <ele>343</ele>
        <time>2011-09-25T06:12:26Z</time>
      </trkpt>
      <trkpt lat="49.18827" lon="6.95969">
        <ele>343</ele>
        <time>2011-09-25T06:12:28Z</time>
      </trkpt>
      <trkpt lat="49.18826" lon="6.9597">
        <ele>343</ele>
        <time>2011-09-25T06:12:29Z</time>
      </trkpt>
      <trkpt lat="49.18825" lon="6.95971">
        <ele>343</ele>
        <time>2011-09-25T06:12:30Z</time>
      </trkpt>
      <trkpt lat="49.18824" lon="6.95972">
        <ele>343</ele>
        <time>2011-09-25T06:12:31Z</time>
      </trkpt>
      <trkpt lat="49.18822" lon="6.95973">
        <ele>343</ele>
        <time>2011-09-25T06:12:33Z</time>
      </trkpt>
      <trkpt lat="49.18821" lon="6.95974">
        <ele>343</ele>
        <time>2011-09-25T06:12:34Z</time>
      </trkpt>
      <trkpt lat="49.18819" lon="6.95975">
        <ele>343</ele>
        <time>2011-09-25T06:12:35Z</time>
      </trkpt>
      <trkpt lat="49.18817" lon="6.95976">
        <ele>343</ele>
        <time>2011-09-25T06:12:37Z</time>
      </trkpt>
      <trkpt lat="49.18816" lon="6.95976">
        <ele>343</ele>
        <time>2011-09-25T06:12:38Z</time>
      </trkpt>
      <trkpt lat="49.18814" lon="6.95978">
        <ele>343</ele>
        <time>2011-09-25T06:12:40Z</time>
      </trkpt>
      <trkpt lat="49.18813" lon="6.95978">
        <ele>343</ele>
        <time>2011-09-25T06:12:40Z</time>
      </trkpt>
      <trkpt lat="49.18811" lon="6.95979">
        <ele>343</ele>
        <time>2011-09-25T06:12:42Z</time>
      </trkpt>
      <trkpt lat="49.1881" lon="6.9598">
        <ele>343</ele>
        <time>2011-09-25T06:12:43Z</time>
      </trkpt>
      <trkpt lat="49.18809" lon="6.9598">
        <ele>343</ele>
        <time>2011-09-25T06:12:44Z</time>
      </trkpt>
      <trkpt lat="49.18808" lon="6.9598">
        <ele>343</ele>
        <time>2011-09-25T06:12:45Z</time>
      </trkpt>
      <trkpt lat="49.18805" lon="6.95981">
        <ele>343</ele>
        <time>2011-09-25T06:12:47Z</time>
      </trkpt>
      <trkpt lat="49.18804" lon="6.95982">
        <ele>344</ele>
        <time>2011-09-25T06:12:48Z</time>
      </trkpt>
      <trkpt lat="49.18803" lon="6.95983">
        <ele>344</ele>
        <time>2011-09-25T06:12:49Z</time>
      </trkpt>
      <trkpt lat="49.18802" lon="6.95983">
        <ele>344</ele>
        <time>2011-09-25T06:12:50Z</time>
      </trkpt>
      <trkpt lat="49.18801" lon="6.95984">
        <ele>344</ele>
        <time>2011-09-25T06:12:51Z</time>
      </trkpt>
      <trkpt lat="49.188" lon="6.95985">
        <ele>345</ele>
        <time>2011-09-25T06:12:52Z</time>
      </trkpt>
      <trkpt lat="49.18797" lon="6.95986">
        <ele>345</ele>
        <time>2011-09-25T06:12:53Z</time>
      </trkpt>
      <trkpt lat="49.18796" lon="6.95987">
        <ele>345</ele>
        <time>2011-09-25T06:12:55Z</time>
      </trkpt>
      <trkpt lat="49.18795" lon="6.95987">
        <ele>345</ele>
        <time>2011-09-25T06:12:56Z</time>
      </trkpt>
      <trkpt lat="49.18793" lon="6.95988">
        <ele>345</ele>
        <time>2011-09-25T06:12:57Z</time>
      </trkpt>
      <trkpt lat="49.18792" lon="6.95989">
        <ele>345</ele>
        <time>2011-09-25T06:12:57Z</time>
      </trkpt>
      <trkpt lat="49.18791" lon="6.9599">
        <ele>345</ele>
        <time>2011-09-25T06:12:59Z</time>
      </trkpt>
      <trkpt lat="49.1879" lon="6.9599">
        <ele>345</ele>
        <time>2011-09-25T06:13:00Z</time>
      </trkpt>
      <trkpt lat="49.18788" lon="6.95992">
        <ele>345</ele>
        <time>2011-09-25T06:13:02Z</time>
      </trkpt>
      <trkpt lat="49.18787" lon="6.95992">
        <ele>345</ele>
        <time>2011-09-25T06:13:03Z</time>
      </trkpt>
      <trkpt lat="49.18785" lon="6.95993">
        <ele>345</ele>
        <time>2011-09-25T06:13:04Z</time>
      </trkpt>
      <trkpt lat="49.18783" lon="6.95994">
        <ele>346</ele>
        <time>2011-09-25T06:13:07Z</time>
      </trkpt>
      <trkpt lat="49.18782" lon="6.95994">
        <ele>346</ele>
        <time>2011-09-25T06:13:08Z</time>
      </trkpt>
      <trkpt lat="49.1878" lon="6.95993">
        <ele>346</ele>
        <time>2011-09-25T06:13:09Z</time>
      </trkpt>
      <trkpt lat="49.18779" lon="6.95993">
        <ele>346</ele>
        <time>2011-09-25T06:13:11Z</time>
      </trkpt>
      <trkpt lat="49.18777" lon="6.95994">
        <ele>346</ele>
        <time>2011-09-25T06:13:11Z</time>
      </trkpt>
      <trkpt lat="49.18775" lon="6.95996">
        <ele>346</ele>
        <time>2011-09-25T06:13:14Z</time>
      </trkpt>
      <trkpt lat="49.18774" lon="6.95999">
        <ele>346</ele>
        <time>2011-09-25T06:13:15Z</time>
      </trkpt>
      <trkpt lat="49.18773" lon="6.96002">
        <ele>346</ele>
        <time>2011-09-25T06:13:18Z</time>
      </trkpt>
      <trkpt lat="49.18772" lon="6.96005">
        <ele>346</ele>
        <time>2011-09-25T06:13:20Z</time>
      </trkpt>
      <trkpt lat="49.18771" lon="6.96006">
        <ele>346</ele>
        <time>2011-09-25T06:13:21Z</time>
      </trkpt>
      <trkpt lat="49.18771" lon="6.96008">
        <ele>346</ele>
        <time>2011-09-25T06:13:22Z</time>
      </trkpt>
      <trkpt lat="49.18769" lon="6.96011">
        <ele>346</ele>
        <time>2011-09-25T06:13:23Z</time>
      </trkpt>
      <trkpt lat="49.18767" lon="6.96014">
        <ele>346</ele>
        <time>2011-09-25T06:13:26Z</time>
      </trkpt>
      <trkpt lat="49.18766" lon="6.96017">
        <ele>346</ele>
        <time>2011-09-25T06:13:28Z</time>
      </trkpt>
      <trkpt lat="49.18765" lon="6.96019">
        <ele>346</ele>
        <time>2011-09-25T06:13:29Z</time>
      </trkpt>
      <trkpt lat="49.18764" lon="6.9602">
        <ele>346</ele>
        <time>2011-09-25T06:13:30Z</time>
      </trkpt>
      <trkpt lat="49.18763" lon="6.96022">
        <ele>346</ele>
        <time>2011-09-25T06:13:31Z</time>
      </trkpt>
      <trkpt lat="49.18762" lon="6.96025">
        <ele>346</ele>
        <time>2011-09-25T06:13:33Z</time>
      </trkpt>
      <trkpt lat="49.18761" lon="6.96027">
        <ele>346</ele>
        <time>2011-09-25T06:13:34Z</time>
      </trkpt>
      <trkpt lat="49.1876" lon="6.9603">
        <ele>346</ele>
        <time>2011-09-25T06:13:35Z</time>
      </trkpt>
      <trkpt lat="49.18758" lon="6.96033">
        <ele>347</ele>
        <time>2011-09-25T06:13:38Z</time>
      </trkpt>
      <trkpt lat="49.18756" lon="6.96036">
        <ele>347</ele>
        <time>2011-09-25T06:13:39Z</time>
      </trkpt>
      <trkpt lat="49.18754" lon="6.96039">
        <ele>347</ele>
        <time>2011-09-25T06:13:41Z</time>
      </trkpt>
      <trkpt lat="49.18754" lon="6.96041">
        <ele>347</ele>
        <time>2011-09-25T06:13:43Z</time>
      </trkpt>
      <trkpt lat="49.18752" lon="6.96044">
        <ele>347</ele>
        <time>2011-09-25T06:13:45Z</time>
      </trkpt>
      <trkpt lat="49.18751" lon="6.96046">
        <ele>347</ele>
        <time>2011-09-25T06:13:47Z</time>
      </trkpt>
      <trkpt lat="49.18749" lon="6.96049">
        <ele>347</ele>
        <time>2011-09-25T06:13:49Z</time>
      </trkpt>
      <trkpt lat="49.18748" lon="6.96051">
        <ele>347</ele>
        <time>2011-09-25T06:13:50Z</time>
      </trkpt>
      <trkpt lat="49.18748" lon="6.96053">
        <ele>347</ele>
        <time>2011-09-25T06:13:51Z</time>
      </trkpt>
      <trkpt lat="49.18747" lon="6.96056">
        <ele>347</ele>
        <time>2011-09-25T06:13:52Z</time>
      </trkpt>
      <trkpt lat="49.18745" lon="6.96059">
        <ele>347</ele>
        <time>2011-09-25T06:13:55Z</time>
      </trkpt>
      <trkpt lat="49.18744" lon="6.96062">
        <ele>347</ele>
        <time>2011-09-25T06:13:56Z</time>
      </trkpt>
      <trkpt lat="49.18743" lon="6.96063">
        <ele>347</ele>
        <time>2011-09-25T06:13:58Z</time>
      </trkpt>
      <trkpt lat="49.18742" lon="6.96065">
        <ele>347</ele>
        <time>2011-09-25T06:13:59Z</time>
      </trkpt>
      <trkpt lat="49.18741" lon="6.96068">
        <ele>347</ele>
        <time>2011-09-25T06:14:00Z</time>
      </trkpt>
      <trkpt lat="49.18739" lon="6.96071">
        <ele>347</ele>
        <time>2011-09-25T06:14:02Z</time>
      </trkpt>
      <trkpt lat="49.18739" lon="6.96072">
        <ele>347</ele>
        <time>2011-09-25T06:14:04Z</time>
      </trkpt>
      <trkpt lat="49.18737" lon="6.96075">
        <ele>347</ele>
        <time>2011-09-25T06:14:06Z</time>
      </trkpt>
      <trkpt lat="49.18736" lon="6.96077">
        <ele>347</ele>
        <time>2011-09-25T06:14:07Z</time>
      </trkpt>
      <trkpt lat="49.18736" lon="6.96079">
        <ele>347</ele>
        <time>2011-09-25T06:14:08Z</time>
      </trkpt>
      <trkpt lat="49.18734" lon="6.96083">
        <ele>347</ele>
        <time>2011-09-25T06:14:10Z</time>
      </trkpt>
      <trkpt lat="49.18733" lon="6.96084">
        <ele>347</ele>
        <time>2011-09-25T06:14:11Z</time>
      </trkpt>
      <trkpt lat="49.18732" lon="6.96087">
        <ele>347</ele>
        <time>2011-09-25T06:14:12Z</time>
      </trkpt>
      <trkpt lat="49.18731" lon="6.96089">
        <ele>347</ele>
        <time>2011-09-25T06:14:13Z</time>
      </trkpt>
      <trkpt lat="49.18731" lon="6.96091">
        <ele>347</ele>
        <time>2011-09-25T06:14:14Z</time>
      </trkpt>
      <trkpt lat="49.1873" lon="6.96092">
        <ele>347</ele>
        <time>2011-09-25T06:14:14Z</time>
      </trkpt>
      <trkpt lat="49.18729" lon="6.96094">
        <ele>347</ele>
        <time>2011-09-25T06:14:16Z</time>
      </trkpt>
      <trkpt lat="49.18729" lon="6.96097">
        <ele>347</ele>
        <time>2011-09-25T06:14:18Z</time>
      </trkpt>
      <trkpt lat="49.18728" lon="6.96099">
        <ele>347</ele>
        <time>2011-09-25T06:14:18Z</time>
      </trkpt>
      <trkpt lat="49.18727" lon="6.96101">
        <ele>347</ele>
        <time>2011-09-25T06:14:19Z</time>
      </trkpt>
      <trkpt lat="49.18726" lon="6.96103">
        <ele>347</ele>
        <time>2011-09-25T06:14:20Z</time>
      </trkpt>
      <trkpt lat="49.18726" lon="6.96104">
        <ele>347</ele>
        <time>2011-09-25T06:14:22Z</time>
      </trkpt>
      <trkpt lat="49.18725" lon="6.96106">
        <ele>347</ele>
        <time>2011-09-25T06:14:22Z</time>
      </trkpt>
      <trkpt lat="49.18724" lon="6.96108">
        <ele>348</ele>
        <time>2011-09-25T06:14:23Z</time>
      </trkpt>
      <trkpt lat="49.18724" lon="6.9611">
        <ele>348</ele>
        <time>2011-09-25T06:14:24Z</time>
      </trkpt>
      <trkpt lat="49.18723" lon="6.96113">
        <ele>348</ele>
        <time>2011-09-25T06:14:27Z</time>
      </trkpt>
      <trkpt lat="49.18722" lon="6.96115">
        <ele>348</ele>
        <time>2011-09-25T06:14:28Z</time>
      </trkpt>
      <trkpt lat="49.18721" lon="6.96116">
        <ele>348</ele>
        <time>2011-09-25T06:14:28Z</time>
      </trkpt>
      <trkpt lat="49.1872" lon="6.9612">
        <ele>348</ele>
        <time>2011-09-25T06:14:30Z</time>
      </trkpt>
      <trkpt lat="49.18719" lon="6.96121">
        <ele>348</ele>
        <time>2011-09-25T06:14:32Z</time>
      </trkpt>
      <trkpt lat="49.18719" lon="6.96123">
        <ele>349</ele>
        <time>2011-09-25T06:14:33Z</time>
      </trkpt>
      <trkpt lat="49.18718" lon="6.96126">
        <ele>349</ele>
        <time>2011-09-25T06:14:35Z</time>
      </trkpt>
      <trkpt lat="49.18718" lon="6.96128">
        <ele>349</ele>
        <time>2011-09-25T06:14:36Z</time>
      </trkpt>
      <trkpt lat="49.18717" lon="6.9613">
        <ele>349</ele>
        <time>2011-09-25T06:14:37Z</time>
      </trkpt>
      <trkpt lat="49.18717" lon="6.96132">
        <ele>349</ele>
        <time>2011-09-25T06:14:38Z</time>
      </trkpt>
      <trkpt lat="49.18716" lon="6.96134">
        <ele>349</ele>
        <time>2011-09-25T06:14:39Z</time>
      </trkpt>
      <trkpt lat="49.18715" lon="6.96136">
        <ele>349</ele>
        <time>2011-09-25T06:14:40Z</time>
      </trkpt>
      <trkpt lat="49.18715" lon="6.96138">
        <ele>349</ele>
        <time>2011-09-25T06:14:40Z</time>
      </trkpt>
      <trkpt lat="49.18713" lon="6.9614">
        <ele>349</ele>
        <time>2011-09-25T06:14:43Z</time>
      </trkpt>
      <trkpt lat="49.18711" lon="6.96141">
        <ele>349</ele>
        <time>2011-09-25T06:14:44Z</time>
      </trkpt>
      <trkpt lat="49.1871" lon="6.96141">
        <ele>349</ele>
        <time>2011-09-25T06:14:45Z</time>
      </trkpt>
      <trkpt lat="49.18708" lon="6.96141">
        <ele>349</ele>
        <time>2011-09-25T06:14:46Z</time>
      </trkpt>
      <trkpt lat="49.18706" lon="6.96139">
        <ele>349</ele>
        <time>2011-09-25T06:14:49Z</time>
      </trkpt>
      <trkpt lat="49.18705" lon="6.96137">
        <ele>349</ele>
        <time>2011-09-25T06:14:51Z</time>
      </trkpt>
      <trkpt lat="49.18703" lon="6.96135">
        <ele>349</ele>
        <time>2011-09-25T06:14:53Z</time>
      </trkpt>
      <trkpt lat="49.18701" lon="6.96133">
        <ele>349</ele>
        <time>2011-09-25T06:14:55Z</time>
      </trkpt>
      <trkpt lat="49.18699" lon="6.9613">
        <ele>349</ele>
        <time>2011-09-25T06:14:56Z</time>
      </trkpt>
      <trkpt lat="49.18697" lon="6.96128">
        <ele>349</ele>
        <time>2011-09-25T06:14:58Z</time>
      </trkpt>
      <trkpt lat="49.18695" lon="6.96125">
        <ele>349</ele>
        <time>2011-09-25T06:15:01Z</time>
      </trkpt>
      <trkpt lat="49.18693" lon="6.96123">
        <ele>349</ele>
        <time>2011-09-25T06:15:02Z</time>
      </trkpt>
      <trkpt lat="49.18692" lon="6.96122">
        <ele>349</ele>
        <time>2011-09-25T06:15:03Z</time>
      </trkpt>
      <trkpt lat="49.1869" lon="6.96118">
        <ele>349</ele>
        <time>2011-09-25T06:15:06Z</time>
      </trkpt>
      <trkpt lat="49.18688" lon="6.96116">
        <ele>349</ele>
        <time>2011-09-25T06:15:07Z</time>
      </trkpt>
      <trkpt lat="49.18686" lon="6.96114">
        <ele>349</ele>
        <time>2011-09-25T06:15:09Z</time>
      </trkpt>
      <trkpt lat="49.18685" lon="6.96113">
        <ele>349</ele>
        <time>2011-09-25T06:15:11Z</time>
      </trkpt>
      <trkpt lat="49.18684" lon="6.96111">
        <ele>349</ele>
        <time>2011-09-25T06:15:11Z</time>
      </trkpt>
      <trkpt lat="49.18682" lon="6.96108">
        <ele>349</ele>
        <time>2011-09-25T06:15:14Z</time>
      </trkpt>
      <trkpt lat="49.18681" lon="6.96107">
        <ele>349</ele>
        <time>2011-09-25T06:15:14Z</time>
      </trkpt>
      <trkpt lat="49.18678" lon="6.96104">
        <ele>349</ele>
        <time>2011-09-25T06:15:17Z</time>
      </trkpt>
      <trkpt lat="49.18676" lon="6.96102">
        <ele>349</ele>
        <time>2011-09-25T06:15:18Z</time>
      </trkpt>
      <trkpt lat="49.18674" lon="6.961">
        <ele>349</ele>
        <time>2011-09-25T06:15:20Z</time>
      </trkpt>
      <trkpt lat="49.18673" lon="6.96097">
        <ele>349</ele>
        <time>2011-09-25T06:15:23Z</time>
      </trkpt>
      <trkpt lat="49.1867" lon="6.96095">
        <ele>349</ele>
        <time>2011-09-25T06:15:24Z</time>
      </trkpt>
      <trkpt lat="49.18668" lon="6.96093">
        <ele>349</ele>
        <time>2011-09-25T06:15:26Z</time>
      </trkpt>
      <trkpt lat="49.18667" lon="6.96091">
        <ele>349</ele>
        <time>2011-09-25T06:15:28Z</time>
      </trkpt>
      <trkpt lat="49.18666" lon="6.9609">
        <ele>349</ele>
        <time>2011-09-25T06:15:28Z</time>
      </trkpt>
      <trkpt lat="49.18665" lon="6.96089">
        <ele>349</ele>
        <time>2011-09-25T06:15:29Z</time>
      </trkpt>
      <trkpt lat="49.18663" lon="6.96087">
        <ele>349</ele>
        <time>2011-09-25T06:15:31Z</time>
      </trkpt>
      <trkpt lat="49.18661" lon="6.96086">
        <ele>349</ele>
        <time>2011-09-25T06:15:33Z</time>
      </trkpt>
      <trkpt lat="49.1866" lon="6.96086">
        <ele>349</ele>
        <time>2011-09-25T06:15:33Z</time>
      </trkpt>
      <trkpt lat="49.18659" lon="6.96085">
        <ele>349</ele>
        <time>2011-09-25T06:15:34Z</time>
      </trkpt>
      <trkpt lat="49.18657" lon="6.96084">
        <ele>349</ele>
        <time>2011-09-25T06:15:35Z</time>
      </trkpt>
      <trkpt lat="49.18656" lon="6.96083">
        <ele>349</ele>
        <time>2011-09-25T06:15:36Z</time>
      </trkpt>
      <trkpt lat="49.18655" lon="6.96083">
        <ele>349</ele>
        <time>2011-09-25T06:15:38Z</time>
      </trkpt>
      <trkpt lat="49.18653" lon="6.96082">
        <ele>349</ele>
        <time>2011-09-25T06:15:38Z</time>
      </trkpt>
      <trkpt lat="49.18652" lon="6.96081">
        <ele>349</ele>
        <time>2011-09-25T06:15:39Z</time>
      </trkpt>
      <trkpt lat="49.1865" lon="6.96081">
        <ele>349</ele>
        <time>2011-09-25T06:15:40Z</time>
      </trkpt>
      <trkpt lat="49.18649" lon="6.9608">
        <ele>349</ele>
        <time>2011-09-25T06:15:41Z</time>
      </trkpt>
      <trkpt lat="49.18648" lon="6.9608">
        <ele>349</ele>
        <time>2011-09-25T06:15:43Z</time>
      </trkpt>
      <trkpt lat="49.18647" lon="6.96079">
        <ele>349</ele>
        <time>2011-09-25T06:15:43Z</time>
      </trkpt>
      <trkpt lat="49.18645" lon="6.96079">
        <ele>349</ele>
        <time>2011-09-25T06:15:44Z</time>
      </trkpt>
      <trkpt lat="49.18644" lon="6.96078">
        <ele>349</ele>
        <time>2011-09-25T06:15:45Z</time>
      </trkpt>
      <trkpt lat="49.18643" lon="6.96077">
        <ele>349</ele>
        <time>2011-09-25T06:15:46Z</time>
      </trkpt>
      <trkpt lat="49.18642" lon="6.96077">
        <ele>349</ele>
        <time>2011-09-25T06:15:48Z</time>
      </trkpt>
      <trkpt lat="49.18641" lon="6.96075">
        <ele>349</ele>
        <time>2011-09-25T06:15:48Z</time>
      </trkpt>
      <trkpt lat="49.1864" lon="6.96073">
        <ele>349</ele>
        <time>2011-09-25T06:15:50Z</time>
      </trkpt>
      <trkpt lat="49.18639" lon="6.96072">
        <ele>349</ele>
        <time>2011-09-25T06:15:51Z</time>
      </trkpt>
      <trkpt lat="49.18638" lon="6.96071">
        <ele>349</ele>
        <time>2011-09-25T06:15:52Z</time>
      </trkpt>
      <trkpt lat="49.18636" lon="6.9607">
        <ele>349</ele>
        <time>2011-09-25T06:15:53Z</time>
      </trkpt>
      <trkpt lat="49.18635" lon="6.96068">
        <ele>349</ele>
        <time>2011-09-25T06:15:55Z</time>
      </trkpt>
      <trkpt lat="49.18633" lon="6.96066">
        <ele>349</ele>
        <time>2011-09-25T06:15:57Z</time>
      </trkpt>
      <trkpt lat="49.18631" lon="6.96063">
        <ele>349</ele>
        <time>2011-09-25T06:16:00Z</time>
      </trkpt>
      <trkpt lat="49.18629" lon="6.96061">
        <ele>349</ele>
        <time>2011-09-25T06:16:01Z</time>
      </trkpt>
      <trkpt lat="49.18628" lon="6.96058">
        <ele>349</ele>
        <time>2011-09-25T06:16:03Z</time>
      </trkpt>
      <trkpt lat="49.18626" lon="6.96055">
        <ele>349</ele>
        <time>2011-09-25T06:16:06Z</time>
      </trkpt>
      <trkpt lat="49.18624" lon="6.96053">
        <ele>349</ele>
        <time>2011-09-25T06:16:07Z</time>
      </trkpt>
      <trkpt lat="49.18622" lon="6.9605">
        <ele>349</ele>
        <time>2011-09-25T06:16:09Z</time>
      </trkpt>
      <trkpt lat="49.18621" lon="6.96048">
        <ele>349</ele>
        <time>2011-09-25T06:16:11Z</time>
      </trkpt>
      <trkpt lat="49.18619" lon="6.96045">
        <ele>349</ele>
        <time>2011-09-25T06:16:12Z</time>
      </trkpt>
      <trkpt lat="49.18618" lon="6.96043">
        <ele>349</ele>
        <time>2011-09-25T06:16:14Z</time>
      </trkpt>
      <trkpt lat="49.18616" lon="6.9604">
        <ele>349</ele>
        <time>2011-09-25T06:16:17Z</time>
      </trkpt>
      <trkpt lat="49.18615" lon="6.96038">
        <ele>349</ele>
        <time>2011-09-25T06:16:17Z</time>
      </trkpt>
      <trkpt lat="49.18613" lon="6.96035">
        <ele>349</ele>
        <time>2011-09-25T06:16:19Z</time>
      </trkpt>
      <trkpt lat="49.18612" lon="6.96033">
        <ele>349</ele>
        <time>2011-09-25T06:16:22Z</time>
      </trkpt>
      <trkpt lat="49.1861" lon="6.9603">
        <ele>349</ele>
        <time>2011-09-25T06:16:23Z</time>
      </trkpt>
      <trkpt lat="49.18608" lon="6.96027">
        <ele>348</ele>
        <time>2011-09-25T06:16:25Z</time>
      </trkpt>
      <trkpt lat="49.18607" lon="6.96025">
        <ele>348</ele>
        <time>2011-09-25T06:16:27Z</time>
      </trkpt>
      <trkpt lat="49.18605" lon="6.96022">
        <ele>348</ele>
        <time>2011-09-25T06:16:28Z</time>
      </trkpt>
      <trkpt lat="49.18604" lon="6.96019">
        <ele>348</ele>
        <time>2011-09-25T06:16:30Z</time>
      </trkpt>
      <trkpt lat="49.18602" lon="6.96017">
        <ele>348</ele>
        <time>2011-09-25T06:16:33Z</time>
      </trkpt>
      <trkpt lat="49.186" lon="6.96013">
        <ele>348</ele>
        <time>2011-09-25T06:16:34Z</time>
      </trkpt>
      <trkpt lat="49.18598" lon="6.9601">
        <ele>348</ele>
        <time>2011-09-25T06:16:36Z</time>
      </trkpt>
      <trkpt lat="49.18597" lon="6.96009">
        <ele>348</ele>
        <time>2011-09-25T06:16:38Z</time>
      </trkpt>
      <trkpt lat="49.18594" lon="6.96006">
        <ele>348</ele>
        <time>2011-09-25T06:16:39Z</time>
      </trkpt>
      <trkpt lat="49.18592" lon="6.96004">
        <ele>348</ele>
        <time>2011-09-25T06:16:41Z</time>
      </trkpt>
      <trkpt lat="49.18591" lon="6.96003">
        <ele>348</ele>
        <time>2011-09-25T06:16:43Z</time>
      </trkpt>
      <trkpt lat="49.1859" lon="6.96002">
        <ele>348</ele>
        <time>2011-09-25T06:16:44Z</time>
      </trkpt>
      <trkpt lat="49.18589" lon="6.96">
        <ele>348</ele>
        <time>2011-09-25T06:16:44Z</time>
      </trkpt>
      <trkpt lat="49.18587" lon="6.95998">
        <ele>348</ele>
        <time>2011-09-25T06:16:46Z</time>
      </trkpt>
      <trkpt lat="49.18586" lon="6.95997">
        <ele>348</ele>
        <time>2011-09-25T06:16:48Z</time>
      </trkpt>
      <trkpt lat="49.18584" lon="6.95994">
        <ele>348</ele>
        <time>2011-09-25T06:16:49Z</time>
      </trkpt>
      <trkpt lat="49.18582" lon="6.95993">
        <ele>348</ele>
        <time>2011-09-25T06:16:51Z</time>
      </trkpt>
      <trkpt lat="49.18581" lon="6.95992">
        <ele>348</ele>
        <time>2011-09-25T06:16:51Z</time>
      </trkpt>
      <trkpt lat="49.18579" lon="6.95989">
        <ele>348</ele>
        <time>2011-09-25T06:16:54Z</time>
      </trkpt>
      <trkpt lat="49.18577" lon="6.95987">
        <ele>348</ele>
        <time>2011-09-25T06:16:55Z</time>
      </trkpt>
      <trkpt lat="49.18576" lon="6.95986">
        <ele>348</ele>
        <time>2011-09-25T06:16:56Z</time>
      </trkpt>
      <trkpt lat="49.18574" lon="6.95983">
        <ele>348</ele>
        <time>2011-09-25T06:16:58Z</time>
      </trkpt>
      <trkpt lat="49.18572" lon="6.9598">
        <ele>348</ele>
        <time>2011-09-25T06:17:01Z</time>
      </trkpt>
      <trkpt lat="49.18571" lon="6.95979">
        <ele>348</ele>
        <time>2011-09-25T06:17:01Z</time>
      </trkpt>
      <trkpt lat="49.18569" lon="6.95976">
        <ele>348</ele>
        <time>2011-09-25T06:17:03Z</time>
      </trkpt>
      <trkpt lat="49.18567" lon="6.95974">
        <ele>348</ele>
        <time>2011-09-25T06:17:06Z</time>
      </trkpt>
      <trkpt lat="49.18565" lon="6.95971">
        <ele>348</ele>
        <time>2011-09-25T06:17:07Z</time>
      </trkpt>
      <trkpt lat="49.18564" lon="6.95968">
        <ele>348</ele>
        <time>2011-09-25T06:17:09Z</time>
      </trkpt>
      <trkpt lat="49.18562" lon="6.95966">
        <ele>348</ele>
        <time>2011-09-25T06:17:11Z</time>
      </trkpt>
      <trkpt lat="49.18561" lon="6.95963">
        <ele>348</ele>
        <time>2011-09-25T06:17:12Z</time>
      </trkpt>
      <trkpt lat="49.1856" lon="6.95961">
        <ele>347</ele>
        <time>2011-09-25T06:17:14Z</time>
      </trkpt>
      <trkpt lat="49.18558" lon="6.95958">
        <ele>347</ele>
        <time>2011-09-25T06:17:17Z</time>
      </trkpt>
      <trkpt lat="49.18556" lon="6.95955">
        <ele>347</ele>
        <time>2011-09-25T06:17:18Z</time>
      </trkpt>
      <trkpt lat="49.18555" lon="6.95952">
        <ele>347</ele>
        <time>2011-09-25T06:17:20Z</time>
      </trkpt>
      <trkpt lat="49.18553" lon="6.9595">
        <ele>346</ele>
        <time>2011-09-25T06:17:23Z</time>
      </trkpt>
      <trkpt lat="49.18551" lon="6.95947">
        <ele>346</ele>
        <time>2011-09-25T06:17:24Z</time>
      </trkpt>
      <trkpt lat="49.18549" lon="6.95944">
        <ele>346</ele>
        <time>2011-09-25T06:17:26Z</time>
      </trkpt>
      <trkpt lat="49.18547" lon="6.95941">
        <ele>346</ele>
        <time>2011-09-25T06:17:29Z</time>
      </trkpt>
      <trkpt lat="49.18546" lon="6.95938">
        <ele>346</ele>
        <time>2011-09-25T06:17:30Z</time>
      </trkpt>
      <trkpt lat="49.18544" lon="6.95936">
        <ele>346</ele>
        <time>2011-09-25T06:17:32Z</time>
      </trkpt>
      <trkpt lat="49.18543" lon="6.95933">
        <ele>346</ele>
        <time>2011-09-25T06:17:35Z</time>
      </trkpt>
      <trkpt lat="49.18541" lon="6.9593">
        <ele>346</ele>
        <time>2011-09-25T06:17:36Z</time>
      </trkpt>
      <trkpt lat="49.1854" lon="6.95928">
        <ele>346</ele>
        <time>2011-09-25T06:17:37Z</time>
      </trkpt>
      <trkpt lat="49.18538" lon="6.95926">
        <ele>346</ele>
        <time>2011-09-25T06:17:40Z</time>
      </trkpt>
      <trkpt lat="49.18537" lon="6.95923">
        <ele>346</ele>
        <time>2011-09-25T06:17:41Z</time>
      </trkpt>
      <trkpt lat="49.18535" lon="6.95919">
        <ele>346</ele>
        <time>2011-09-25T06:17:43Z</time>
      </trkpt>
      <trkpt lat="49.18534" lon="6.95918">
        <ele>346</ele>
        <time>2011-09-25T06:17:45Z</time>
      </trkpt>
      <trkpt lat="49.18533" lon="6.95916">
        <ele>346</ele>
        <time>2011-09-25T06:17:45Z</time>
      </trkpt>
      <trkpt lat="49.18531" lon="6.95913">
        <ele>346</ele>
        <time>2011-09-25T06:17:47Z</time>
      </trkpt>
      <trkpt lat="49.18531" lon="6.95911">
        <ele>346</ele>
        <time>2011-09-25T06:17:48Z</time>
      </trkpt>
      <trkpt lat="49.1853" lon="6.9591">
        <ele>346</ele>
        <time>2011-09-25T06:17:50Z</time>
      </trkpt>
      <trkpt lat="49.18529" lon="6.95908">
        <ele>346</ele>
        <time>2011-09-25T06:17:50Z</time>
      </trkpt>
      <trkpt lat="49.18528" lon="6.95906">
        <ele>346</ele>
        <time>2011-09-25T06:17:51Z</time>
      </trkpt>
      <trkpt lat="49.18527" lon="6.95904">
        <ele>346</ele>
        <time>2011-09-25T06:17:52Z</time>
      </trkpt>
      <trkpt lat="49.18526" lon="6.95902">
        <ele>346</ele>
        <time>2011-09-25T06:17:53Z</time>
      </trkpt>
      <trkpt lat="49.18526" lon="6.95901">
        <ele>346</ele>
        <time>2011-09-25T06:17:54Z</time>
      </trkpt>
      <trkpt lat="49.18525" lon="6.95899">
        <ele>346</ele>
        <time>2011-09-25T06:17:56Z</time>
      </trkpt>
      <trkpt lat="49.18523" lon="6.95896">
        <ele>346</ele>
        <time>2011-09-25T06:17:57Z</time>
      </trkpt>
      <trkpt lat="49.18523" lon="6.95894">
        <ele>346</ele>
        <time>2011-09-25T06:17:58Z</time>
      </trkpt>
      <trkpt lat="49.18521" lon="6.95891">
        <ele>346</ele>
        <time>2011-09-25T06:18:00Z</time>
      </trkpt>
      <trkpt lat="49.1852" lon="6.95888">
        <ele>346</ele>
        <time>2011-09-25T06:18:02Z</time>
      </trkpt>
      <trkpt lat="49.1852" lon="6.95886">
        <ele>346</ele>
        <time>2011-09-25T06:18:03Z</time>
      </trkpt>
      <trkpt lat="49.18519" lon="6.95885">
        <ele>346</ele>
        <time>2011-09-25T06:18:04Z</time>
      </trkpt>
      <trkpt lat="49.18518" lon="6.95883">
        <ele>345</ele>
        <time>2011-09-25T06:18:05Z</time>
      </trkpt>
      <trkpt lat="49.18518" lon="6.95881">
        <ele>345</ele>
        <time>2011-09-25T06:18:06Z</time>
      </trkpt>
      <trkpt lat="49.18518" lon="6.95879">
        <ele>345</ele>
        <time>2011-09-25T06:18:07Z</time>
      </trkpt>
      <trkpt lat="49.18517" lon="6.95877">
        <ele>345</ele>
        <time>2011-09-25T06:18:08Z</time>
      </trkpt>
      <trkpt lat="49.18516" lon="6.95876">
        <ele>345</ele>
        <time>2011-09-25T06:18:09Z</time>
      </trkpt>
      <trkpt lat="49.18516" lon="6.95874">
        <ele>345</ele>
        <time>2011-09-25T06:18:11Z</time>
      </trkpt>
      <trkpt lat="49.18515" lon="6.95872">
        <ele>345</ele>
        <time>2011-09-25T06:18:11Z</time>
      </trkpt>
      <trkpt lat="49.18515" lon="6.95871">
        <ele>345</ele>
        <time>2011-09-25T06:18:12Z</time>
      </trkpt>
      <trkpt lat="49.18515" lon="6.95869">
        <ele>344</ele>
        <time>2011-09-25T06:18:13Z</time>
      </trkpt>
      <trkpt lat="49.18515" lon="6.95867">
        <ele>344</ele>
        <time>2011-09-25T06:18:14Z</time>
      </trkpt>
      <trkpt lat="49.18514" lon="6.95865">
        <ele>344</ele>
        <time>2011-09-25T06:18:16Z</time>
      </trkpt>
      <trkpt lat="49.18514" lon="6.95863">
        <ele>344</ele>
        <time>2011-09-25T06:18:16Z</time>
      </trkpt>
      <trkpt lat="49.18513" lon="6.95861">
        <ele>344</ele>
        <time>2011-09-25T06:18:17Z</time>
      </trkpt>
      <trkpt lat="49.18513" lon="6.95859">
        <ele>344</ele>
        <time>2011-09-25T06:18:18Z</time>
      </trkpt>
      <trkpt lat="49.18513" lon="6.95857">
        <ele>344</ele>
        <time>2011-09-25T06:18:19Z</time>
      </trkpt>
      <trkpt lat="49.18512" lon="6.95856">
        <ele>344</ele>
        <time>2011-09-25T06:18:20Z</time>
      </trkpt>
      <trkpt lat="49.18512" lon="6.95854">
        <ele>343</ele>
        <time>2011-09-25T06:18:22Z</time>
      </trkpt>
      <trkpt lat="49.18512" lon="6.95852">
        <ele>343</ele>
        <time>2011-09-25T06:18:22Z</time>
      </trkpt>
      <trkpt lat="49.18511" lon="6.9585">
        <ele>343</ele>
        <time>2011-09-25T06:18:23Z</time>
      </trkpt>
      <trkpt lat="49.18511" lon="6.95848">
        <ele>343</ele>
        <time>2011-09-25T06:18:24Z</time>
      </trkpt>
      <trkpt lat="49.1851" lon="6.95846">
        <ele>343</ele>
        <time>2011-09-25T06:18:25Z</time>
      </trkpt>
      <trkpt lat="49.1851" lon="6.95844">
        <ele>343</ele>
        <time>2011-09-25T06:18:27Z</time>
      </trkpt>
      <trkpt lat="49.1851" lon="6.95842">
        <ele>343</ele>
        <time>2011-09-25T06:18:27Z</time>
      </trkpt>
      <trkpt lat="49.18509" lon="6.9584">
        <ele>342</ele>
        <time>2011-09-25T06:18:28Z</time>
      </trkpt>
      <trkpt lat="49.18508" lon="6.95838">
        <ele>342</ele>
        <time>2011-09-25T06:18:29Z</time>
      </trkpt>
      <trkpt lat="49.18508" lon="6.95836">
        <ele>342</ele>
        <time>2011-09-25T06:18:30Z</time>
      </trkpt>
      <trkpt lat="49.18507" lon="6.95834">
        <ele>342</ele>
        <time>2011-09-25T06:18:32Z</time>
      </trkpt>
      <trkpt lat="49.18506" lon="6.95832">
        <ele>342</ele>
        <time>2011-09-25T06:18:32Z</time>
      </trkpt>
      <trkpt lat="49.18505" lon="6.9583">
        <ele>342</ele>
        <time>2011-09-25T06:18:33Z</time>
      </trkpt>
      <trkpt lat="49.18504" lon="6.95829">
        <ele>342</ele>
        <time>2011-09-25T06:18:34Z</time>
      </trkpt>
      <trkpt lat="49.18502" lon="6.95826">
        <ele>342</ele>
        <time>2011-09-25T06:18:36Z</time>
      </trkpt>
      <trkpt lat="49.18501" lon="6.95824">
        <ele>342</ele>
        <time>2011-09-25T06:18:37Z</time>
      </trkpt>
      <trkpt lat="49.18499" lon="6.95823">
        <ele>342</ele>
        <time>2011-09-25T06:18:38Z</time>
      </trkpt>
      <trkpt lat="49.18498" lon="6.95822">
        <ele>342</ele>
        <time>2011-09-25T06:18:39Z</time>
      </trkpt>
      <trkpt lat="49.18496" lon="6.95821">
        <ele>342</ele>
        <time>2011-09-25T06:18:40Z</time>
      </trkpt>
      <trkpt lat="49.18495" lon="6.9582">
        <ele>342</ele>
        <time>2011-09-25T06:18:42Z</time>
      </trkpt>
      <trkpt lat="49.18494" lon="6.9582">
        <ele>342</ele>
        <time>2011-09-25T06:18:42Z</time>
      </trkpt>
      <trkpt lat="49.18491" lon="6.95819">
        <ele>342</ele>
        <time>2011-09-25T06:18:44Z</time>
      </trkpt>
      <trkpt lat="49.1849" lon="6.95819">
        <ele>342</ele>
        <time>2011-09-25T06:18:45Z</time>
      </trkpt>
      <trkpt lat="49.18489" lon="6.95818">
        <ele>342</ele>
        <time>2011-09-25T06:18:46Z</time>
      </trkpt>
      <trkpt lat="49.18488" lon="6.95818">
        <ele>342</ele>
        <time>2011-09-25T06:18:47Z</time>
      </trkpt>
      <trkpt lat="49.18486" lon="6.95818">
        <ele>342</ele>
        <time>2011-09-25T06:18:48Z</time>
      </trkpt>
      <trkpt lat="49.18485" lon="6.95818">
        <ele>342</ele>
        <time>2011-09-25T06:18:49Z</time>
      </trkpt>
      <trkpt lat="49.18483" lon="6.95817">
        <ele>342</ele>
        <time>2011-09-25T06:18:50Z</time>
      </trkpt>
      <trkpt lat="49.18482" lon="6.95817">
        <ele>342</ele>
        <time>2011-09-25T06:18:51Z</time>
      </trkpt>
      <trkpt lat="49.18481" lon="6.95817">
        <ele>342</ele>
        <time>2011-09-25T06:18:52Z</time>
      </trkpt>
      <trkpt lat="49.18479" lon="6.95817">
        <ele>342</ele>
        <time>2011-09-25T06:18:53Z</time>
      </trkpt>
      <trkpt lat="49.18478" lon="6.95816">
        <ele>342</ele>
        <time>2011-09-25T06:18:54Z</time>
      </trkpt>
      <trkpt lat="49.18476" lon="6.95816">
        <ele>342</ele>
        <time>2011-09-25T06:18:55Z</time>
      </trkpt>
      <trkpt lat="49.18475" lon="6.95816">
        <ele>342</ele>
        <time>2011-09-25T06:18:56Z</time>
      </trkpt>
      <trkpt lat="49.18474" lon="6.95816">
        <ele>342</ele>
        <time>2011-09-25T06:18:57Z</time>
      </trkpt>
      <trkpt lat="49.18473" lon="6.95813">
        <ele>342</ele>
        <time>2011-09-25T06:18:59Z</time>
      </trkpt>
      <trkpt lat="49.18471" lon="6.9581">
        <ele>342</ele>
        <time>2011-09-25T06:19:01Z</time>
      </trkpt>
      <trkpt lat="49.1847" lon="6.95807">
        <ele>342</ele>
        <time>2011-09-25T06:19:04Z</time>
      </trkpt>
      <trkpt lat="49.1847" lon="6.95805">
        <ele>342</ele>
        <time>2011-09-25T06:19:04Z</time>
      </trkpt>
      <trkpt lat="49.1847" lon="6.95803">
        <ele>342</ele>
        <time>2011-09-25T06:19:05Z</time>
      </trkpt>
      <trkpt lat="49.1847" lon="6.95801">
        <ele>342</ele>
        <time>2011-09-25T06:19:06Z</time>
      </trkpt>
      <trkpt lat="49.18469" lon="6.95799">
        <ele>342</ele>
        <time>2011-09-25T06:19:07Z</time>
      </trkpt>
      <trkpt lat="49.18469" lon="6.95797">
        <ele>342</ele>
        <time>2011-09-25T06:19:08Z</time>
      </trkpt>
      <trkpt lat="49.18469" lon="6.95796">
        <ele>342</ele>
        <time>2011-09-25T06:19:09Z</time>
      </trkpt>
      <trkpt lat="49.18468" lon="6.95794">
        <ele>342</ele>
        <time>2011-09-25T06:19:10Z</time>
      </trkpt>
      <trkpt lat="49.18468" lon="6.95792">
        <ele>342</ele>
        <time>2011-09-25T06:19:11Z</time>
      </trkpt>
      <trkpt lat="49.18468" lon="6.9579">
        <ele>342</ele>
        <time>2011-09-25T06:19:12Z</time>
      </trkpt>
      <trkpt lat="49.18467" lon="6.95788">
        <ele>342</ele>
        <time>2011-09-25T06:19:13Z</time>
      </trkpt>
      <trkpt lat="49.18467" lon="6.95786">
        <ele>341</ele>
        <time>2011-09-25T06:19:14Z</time>
      </trkpt>
      <trkpt lat="49.18467" lon="6.95784">
        <ele>341</ele>
        <time>2011-09-25T06:19:15Z</time>
      </trkpt>
      <trkpt lat="49.18467" lon="6.95782">
        <ele>341</ele>
        <time>2011-09-25T06:19:16Z</time>
      </trkpt>
      <trkpt lat="49.18466" lon="6.9578">
        <ele>341</ele>
        <time>2011-09-25T06:19:17Z</time>
      </trkpt>
      <trkpt lat="49.18465" lon="6.95778">
        <ele>341</ele>
        <time>2011-09-25T06:19:19Z</time>
      </trkpt>
      <trkpt lat="49.18465" lon="6.95776">
        <ele>341</ele>
        <time>2011-09-25T06:19:19Z</time>
      </trkpt>
      <trkpt lat="49.18465" lon="6.95774">
        <ele>341</ele>
        <time>2011-09-25T06:19:20Z</time>
      </trkpt>
      <trkpt lat="49.18465" lon="6.95773">
        <ele>341</ele>
        <time>2011-09-25T06:19:21Z</time>
      </trkpt>
      <trkpt lat="49.18464" lon="6.95771">
        <ele>341</ele>
        <time>2011-09-25T06:19:22Z</time>
      </trkpt>
      <trkpt lat="49.18464" lon="6.95769">
        <ele>341</ele>
        <time>2011-09-25T06:19:24Z</time>
      </trkpt>
      <trkpt lat="49.18464" lon="6.95767">
        <ele>340</ele>
        <time>2011-09-25T06:19:24Z</time>
      </trkpt>
      <trkpt lat="49.18463" lon="6.95765">
        <ele>340</ele>
        <time>2011-09-25T06:19:25Z</time>
      </trkpt>
      <trkpt lat="49.18463" lon="6.95763">
        <ele>340</ele>
        <time>2011-09-25T06:19:26Z</time>
      </trkpt>
      <trkpt lat="49.18462" lon="6.95761">
        <ele>340</ele>
        <time>2011-09-25T06:19:27Z</time>
      </trkpt>
      <trkpt lat="49.18462" lon="6.95759">
        <ele>340</ele>
        <time>2011-09-25T06:19:28Z</time>
      </trkpt>
      <trkpt lat="49.18462" lon="6.95757">
        <ele>340</ele>
        <time>2011-09-25T06:19:29Z</time>
      </trkpt>
      <trkpt lat="49.18461" lon="6.95755">
        <ele>340</ele>
        <time>2011-09-25T06:19:30Z</time>
      </trkpt>
      <trkpt lat="49.18461" lon="6.95753">
        <ele>340</ele>
        <time>2011-09-25T06:19:31Z</time>
      </trkpt>
      <trkpt lat="49.1846" lon="6.95751">
        <ele>340</ele>
        <time>2011-09-25T06:19:32Z</time>
      </trkpt>
      <trkpt lat="49.1846" lon="6.95749">
        <ele>340</ele>
        <time>2011-09-25T06:19:34Z</time>
      </trkpt>
      <trkpt lat="49.1846" lon="6.95747">
        <ele>340</ele>
        <time>2011-09-25T06:19:34Z</time>
      </trkpt>
      <trkpt lat="49.1846" lon="6.95745">
        <ele>339</ele>
        <time>2011-09-25T06:19:35Z</time>
      </trkpt>
      <trkpt lat="49.18459" lon="6.95743">
        <ele>339</ele>
        <time>2011-09-25T06:19:36Z</time>
      </trkpt>
      <trkpt lat="49.18459" lon="6.95741">
        <ele>339</ele>
        <time>2011-09-25T06:19:37Z</time>
      </trkpt>
      <trkpt lat="49.18459" lon="6.95739">
        <ele>339</ele>
        <time>2011-09-25T06:19:39Z</time>
      </trkpt>
      <trkpt lat="49.18459" lon="6.95737">
        <ele>339</ele>
        <time>2011-09-25T06:19:39Z</time>
      </trkpt>
      <trkpt lat="49.18458" lon="6.95735">
        <ele>339</ele>
        <time>2011-09-25T06:19:40Z</time>
      </trkpt>
      <trkpt lat="49.18458" lon="6.95733">
        <ele>339</ele>
        <time>2011-09-25T06:19:41Z</time>
      </trkpt>
      <trkpt lat="49.18458" lon="6.95731">
        <ele>339</ele>
        <time>2011-09-25T06:19:42Z</time>
      </trkpt>
      <trkpt lat="49.18457" lon="6.95729">
        <ele>339</ele>
        <time>2011-09-25T06:19:44Z</time>
      </trkpt>
      <trkpt lat="49.18457" lon="6.95727">
        <ele>339</ele>
        <time>2011-09-25T06:19:44Z</time>
      </trkpt>
      <trkpt lat="49.18457" lon="6.95725">
        <ele>338</ele>
        <time>2011-09-25T06:19:45Z</time>
      </trkpt>
      <trkpt lat="49.18457" lon="6.95723">
        <ele>338</ele>
        <time>2011-09-25T06:19:46Z</time>
      </trkpt>
      <trkpt lat="49.18457" lon="6.95721">
        <ele>338</ele>
        <time>2011-09-25T06:19:50Z</time>
      </trkpt>
      <trkpt lat="49.18457" lon="6.9572">
        <ele>338</ele>
        <time>2011-09-25T06:20:03Z</time>
      </trkpt>
      <trkpt lat="49.18457" lon="6.95717">
        <ele>338</ele>
        <time>2011-09-25T06:20:06Z</time>
      </trkpt>
      <trkpt lat="49.18456" lon="6.95715">
        <ele>338</ele>
        <time>2011-09-25T06:20:08Z</time>
      </trkpt>
      <trkpt lat="49.18456" lon="6.95712">
        <ele>338</ele>
        <time>2011-09-25T06:20:10Z</time>
      </trkpt>
      <trkpt lat="49.18456" lon="6.95709">
        <ele>338</ele>
        <time>2011-09-25T06:20:12Z</time>
      </trkpt>
      <trkpt lat="49.18455" lon="6.95707">
        <ele>338</ele>
        <time>2011-09-25T06:20:14Z</time>
      </trkpt>
      <trkpt lat="49.18455" lon="6.95705">
        <ele>338</ele>
        <time>2011-09-25T06:20:14Z</time>
      </trkpt>
      <trkpt lat="49.18455" lon="6.95703">
        <ele>338</ele>
        <time>2011-09-25T06:20:15Z</time>
      </trkpt>
      <trkpt lat="49.18455" lon="6.95701">
        <ele>338</ele>
        <time>2011-09-25T06:20:16Z</time>
      </trkpt>
      <trkpt lat="49.18455" lon="6.95699">
        <ele>338</ele>
        <time>2011-09-25T06:20:17Z</time>
      </trkpt>
      <trkpt lat="49.18455" lon="6.95697">
        <ele>337</ele>
        <time>2011-09-25T06:20:19Z</time>
      </trkpt>
      <trkpt lat="49.18455" lon="6.95694">
        <ele>337</ele>
        <time>2011-09-25T06:20:20Z</time>
      </trkpt>
      <trkpt lat="49.18455" lon="6.95692">
        <ele>337</ele>
        <time>2011-09-25T06:20:21Z</time>
      </trkpt>
      <trkpt lat="49.18456" lon="6.95689">
        <ele>337</ele>
        <time>2011-09-25T06:20:23Z</time>
      </trkpt>
      <trkpt lat="49.18456" lon="6.95687">
        <ele>336</ele>
        <time>2011-09-25T06:20:24Z</time>
      </trkpt>
      <trkpt lat="49.18456" lon="6.95685">
        <ele>336</ele>
        <time>2011-09-25T06:20:25Z</time>
      </trkpt>
      <trkpt lat="49.18456" lon="6.95684">
        <ele>336</ele>
        <time>2011-09-25T06:20:26Z</time>
      </trkpt>
      <trkpt lat="49.18456" lon="6.95682">
        <ele>336</ele>
        <time>2011-09-25T06:20:27Z</time>
      </trkpt>
      <trkpt lat="49.18456" lon="6.95681">
        <ele>336</ele>
        <time>2011-09-25T06:20:28Z</time>
      </trkpt>
      <trkpt lat="49.18456" lon="6.95679">
        <ele>336</ele>
        <time>2011-09-25T06:20:29Z</time>
      </trkpt>
      <trkpt lat="49.18456" lon="6.95677">
        <ele>336</ele>
        <time>2011-09-25T06:20:30Z</time>
      </trkpt>
      <trkpt lat="49.18456" lon="6.95675">
        <ele>336</ele>
        <time>2011-09-25T06:20:31Z</time>
      </trkpt>
      <trkpt lat="49.18456" lon="6.95673">
        <ele>335</ele>
        <time>2011-09-25T06:20:32Z</time>
      </trkpt>
      <trkpt lat="49.18456" lon="6.95672">
        <ele>335</ele>
        <time>2011-09-25T06:20:33Z</time>
      </trkpt>
      <trkpt lat="49.18456" lon="6.9567">
        <ele>335</ele>
        <time>2011-09-25T06:20:34Z</time>
      </trkpt>
      <trkpt lat="49.18456" lon="6.95668">
        <ele>335</ele>
        <time>2011-09-25T06:20:35Z</time>
      </trkpt>
      <trkpt lat="49.18456" lon="6.95666">
        <ele>335</ele>
        <time>2011-09-25T06:20:36Z</time>
      </trkpt>
      <trkpt lat="49.18456" lon="6.95664">
        <ele>335</ele>
        <time>2011-09-25T06:20:37Z</time>
      </trkpt>
      <trkpt lat="49.18456" lon="6.95662">
        <ele>334</ele>
        <time>2011-09-25T06:20:39Z</time>
      </trkpt>
      <trkpt lat="49.18456" lon="6.9566">
        <ele>334</ele>
        <time>2011-09-25T06:20:39Z</time>
      </trkpt>
      <trkpt lat="49.18456" lon="6.95657">
        <ele>334</ele>
        <time>2011-09-25T06:20:40Z</time>
      </trkpt>
      <trkpt lat="49.18455" lon="6.95654">
        <ele>334</ele>
        <time>2011-09-25T06:20:41Z</time>
      </trkpt>
      <trkpt lat="49.18455" lon="6.95652">
        <ele>334</ele>
        <time>2011-09-25T06:20:42Z</time>
      </trkpt>
      <trkpt lat="49.18455" lon="6.95649">
        <ele>334</ele>
        <time>2011-09-25T06:20:43Z</time>
      </trkpt>
      <trkpt lat="49.18454" lon="6.95647">
        <ele>334</ele>
        <time>2011-09-25T06:20:44Z</time>
      </trkpt>
      <trkpt lat="49.18454" lon="6.95646">
        <ele>334</ele>
        <time>2011-09-25T06:20:45Z</time>
      </trkpt>
      <trkpt lat="49.18454" lon="6.95644">
        <ele>334</ele>
        <time>2011-09-25T06:20:46Z</time>
      </trkpt>
      <trkpt lat="49.18454" lon="6.95642">
        <ele>334</ele>
        <time>2011-09-25T06:20:47Z</time>
      </trkpt>
      <trkpt lat="49.18453" lon="6.95639">
        <ele>334</ele>
        <time>2011-09-25T06:20:50Z</time>
      </trkpt>
      <trkpt lat="49.18452" lon="6.95637">
        <ele>334</ele>
        <time>2011-09-25T06:20:50Z</time>
      </trkpt>
      <trkpt lat="49.18452" lon="6.95635">
        <ele>334</ele>
        <time>2011-09-25T06:20:51Z</time>
      </trkpt>
      <trkpt lat="49.18451" lon="6.95632">
        <ele>334</ele>
        <time>2011-09-25T06:20:53Z</time>
      </trkpt>
      <trkpt lat="49.18451" lon="6.9563">
        <ele>334</ele>
        <time>2011-09-25T06:20:54Z</time>
      </trkpt>
      <trkpt lat="49.1845" lon="6.95628">
        <ele>334</ele>
        <time>2011-09-25T06:20:55Z</time>
      </trkpt>
      <trkpt lat="49.18449" lon="6.95626">
        <ele>333</ele>
        <time>2011-09-25T06:20:56Z</time>
      </trkpt>
      <trkpt lat="49.18449" lon="6.95623">
        <ele>333</ele>
        <time>2011-09-25T06:20:58Z</time>
      </trkpt>
      <trkpt lat="49.18448" lon="6.95621">
        <ele>333</ele>
        <time>2011-09-25T06:20:59Z</time>
      </trkpt>
      <trkpt lat="49.18447" lon="6.9562">
        <ele>332</ele>
        <time>2011-09-25T06:21:00Z</time>
      </trkpt>
      <trkpt lat="49.18447" lon="6.95618">
        <ele>332</ele>
        <time>2011-09-25T06:21:01Z</time>
      </trkpt>
      <trkpt lat="49.18446" lon="6.95616">
        <ele>332</ele>
        <time>2011-09-25T06:21:02Z</time>
      </trkpt>
      <trkpt lat="49.18445" lon="6.95614">
        <ele>332</ele>
        <time>2011-09-25T06:21:03Z</time>
      </trkpt>
      <trkpt lat="49.18445" lon="6.95613">
        <ele>332</ele>
        <time>2011-09-25T06:21:04Z</time>
      </trkpt>
      <trkpt lat="49.18443" lon="6.9561">
        <ele>332</ele>
        <time>2011-09-25T06:21:06Z</time>
      </trkpt>
      <trkpt lat="49.18442" lon="6.95608">
        <ele>332</ele>
        <time>2011-09-25T06:21:07Z</time>
      </trkpt>
      <trkpt lat="49.18441" lon="6.95606">
        <ele>331</ele>
        <time>2011-09-25T06:21:08Z</time>
      </trkpt>
      <trkpt lat="49.18441" lon="6.95605">
        <ele>331</ele>
        <time>2011-09-25T06:21:09Z</time>
      </trkpt>
      <trkpt lat="49.18439" lon="6.95603">
        <ele>331</ele>
        <time>2011-09-25T06:21:10Z</time>
      </trkpt>
      <trkpt lat="49.18439" lon="6.95601">
        <ele>331</ele>
        <time>2011-09-25T06:21:11Z</time>
      </trkpt>
      <trkpt lat="49.18437" lon="6.95598">
        <ele>331</ele>
        <time>2011-09-25T06:21:14Z</time>
      </trkpt>
      <trkpt lat="49.18436" lon="6.95595">
        <ele>331</ele>
        <time>2011-09-25T06:21:15Z</time>
      </trkpt>
      <trkpt lat="49.18435" lon="6.95593">
        <ele>331</ele>
        <time>2011-09-25T06:21:16Z</time>
      </trkpt>
      <trkpt lat="49.18434" lon="6.95591">
        <ele>331</ele>
        <time>2011-09-25T06:21:17Z</time>
      </trkpt>
      <trkpt lat="49.18433" lon="6.9559">
        <ele>331</ele>
        <time>2011-09-25T06:21:18Z</time>
      </trkpt>
      <trkpt lat="49.18433" lon="6.95588">
        <ele>330</ele>
        <time>2011-09-25T06:21:19Z</time>
      </trkpt>
      <trkpt lat="49.18432" lon="6.95586">
        <ele>330</ele>
        <time>2011-09-25T06:21:20Z</time>
      </trkpt>
      <trkpt lat="49.18431" lon="6.95584">
        <ele>330</ele>
        <time>2011-09-25T06:21:21Z</time>
      </trkpt>
      <trkpt lat="49.1843" lon="6.95581">
        <ele>330</ele>
        <time>2011-09-25T06:21:23Z</time>
      </trkpt>
      <trkpt lat="49.18428" lon="6.95578">
        <ele>330</ele>
        <time>2011-09-25T06:21:25Z</time>
      </trkpt>
      <trkpt lat="49.18427" lon="6.95575">
        <ele>330</ele>
        <time>2011-09-25T06:21:27Z</time>
      </trkpt>
      <trkpt lat="49.18426" lon="6.95574">
        <ele>330</ele>
        <time>2011-09-25T06:21:28Z</time>
      </trkpt>
      <trkpt lat="49.18426" lon="6.95572">
        <ele>330</ele>
        <time>2011-09-25T06:21:29Z</time>
      </trkpt>
      <trkpt lat="49.18426" lon="6.9557">
        <ele>330</ele>
        <time>2011-09-25T06:21:30Z</time>
      </trkpt>
      <trkpt lat="49.18425" lon="6.95568">
        <ele>330</ele>
        <time>2011-09-25T06:21:31Z</time>
      </trkpt>
      <trkpt lat="49.18425" lon="6.95566">
        <ele>330</ele>
        <time>2011-09-25T06:21:32Z</time>
      </trkpt>
      <trkpt lat="49.18425" lon="6.95565">
        <ele>330</ele>
        <time>2011-09-25T06:21:33Z</time>
      </trkpt>
      <trkpt lat="49.18424" lon="6.95563">
        <ele>330</ele>
        <time>2011-09-25T06:21:34Z</time>
      </trkpt>
      <trkpt lat="49.18424" lon="6.95561">
        <ele>329</ele>
        <time>2011-09-25T06:21:35Z</time>
      </trkpt>
      <trkpt lat="49.18423" lon="6.95559">
        <ele>329</ele>
        <time>2011-09-25T06:21:36Z</time>
      </trkpt>
      <trkpt lat="49.18423" lon="6.95556">
        <ele>329</ele>
        <time>2011-09-25T06:21:37Z</time>
      </trkpt>
      <trkpt lat="49.18423" lon="6.95554">
        <ele>329</ele>
        <time>2011-09-25T06:21:38Z</time>
      </trkpt>
      <trkpt lat="49.18423" lon="6.95552">
        <ele>329</ele>
        <time>2011-09-25T06:21:39Z</time>
      </trkpt>
      <trkpt lat="49.18422" lon="6.9555">
        <ele>329</ele>
        <time>2011-09-25T06:21:40Z</time>
      </trkpt>
      <trkpt lat="49.18422" lon="6.95548">
        <ele>329</ele>
        <time>2011-09-25T06:21:41Z</time>
      </trkpt>
      <trkpt lat="49.18422" lon="6.95546">
        <ele>329</ele>
        <time>2011-09-25T06:21:42Z</time>
      </trkpt>
      <trkpt lat="49.18422" lon="6.95544">
        <ele>329</ele>
        <time>2011-09-25T06:21:43Z</time>
      </trkpt>
      <trkpt lat="49.18422" lon="6.95542">
        <ele>328</ele>
        <time>2011-09-25T06:21:44Z</time>
      </trkpt>
      <trkpt lat="49.18421" lon="6.9554">
        <ele>328</ele>
        <time>2011-09-25T06:21:45Z</time>
      </trkpt>
      <trkpt lat="49.18421" lon="6.95538">
        <ele>328</ele>
        <time>2011-09-25T06:21:46Z</time>
      </trkpt>
      <trkpt lat="49.18421" lon="6.95536">
        <ele>328</ele>
        <time>2011-09-25T06:21:47Z</time>
      </trkpt>
      <trkpt lat="49.18421" lon="6.95535">
        <ele>328</ele>
        <time>2011-09-25T06:21:48Z</time>
      </trkpt>
      <trkpt lat="49.18421" lon="6.95533">
        <ele>328</ele>
        <time>2011-09-25T06:21:49Z</time>
      </trkpt>
      <trkpt lat="49.1842" lon="6.95531">
        <ele>328</ele>
        <time>2011-09-25T06:21:50Z</time>
      </trkpt>
      <trkpt lat="49.1842" lon="6.95529">
        <ele>328</ele>
        <time>2011-09-25T06:21:51Z</time>
      </trkpt>
      <trkpt lat="49.1842" lon="6.95526">
        <ele>327</ele>
        <time>2011-09-25T06:21:52Z</time>
      </trkpt>
      <trkpt lat="49.1842" lon="6.95525">
        <ele>327</ele>
        <time>2011-09-25T06:21:53Z</time>
      </trkpt>
      <trkpt lat="49.1842" lon="6.95523">
        <ele>327</ele>
        <time>2011-09-25T06:21:54Z</time>
      </trkpt>
      <trkpt lat="49.1842" lon="6.95521">
        <ele>327</ele>
        <time>2011-09-25T06:21:55Z</time>
      </trkpt>
      <trkpt lat="49.1842" lon="6.95519">
        <ele>327</ele>
        <time>2011-09-25T06:21:56Z</time>
      </trkpt>
      <trkpt lat="49.1842" lon="6.95517">
        <ele>326</ele>
        <time>2011-09-25T06:21:57Z</time>
      </trkpt>
      <trkpt lat="49.1842" lon="6.95515">
        <ele>326</ele>
        <time>2011-09-25T06:21:58Z</time>
      </trkpt>
      <trkpt lat="49.1842" lon="6.95513">
        <ele>326</ele>
        <time>2011-09-25T06:21:59Z</time>
      </trkpt>
      <trkpt lat="49.1842" lon="6.95511">
        <ele>326</ele>
        <time>2011-09-25T06:22:00Z</time>
      </trkpt>
      <trkpt lat="49.1842" lon="6.95509">
        <ele>325</ele>
        <time>2011-09-25T06:22:01Z</time>
      </trkpt>
      <trkpt lat="49.1842" lon="6.95507">
        <ele>325</ele>
        <time>2011-09-25T06:22:02Z</time>
      </trkpt>
      <trkpt lat="49.1842" lon="6.95505">
        <ele>325</ele>
        <time>2011-09-25T06:22:03Z</time>
      </trkpt>
      <trkpt lat="49.1842" lon="6.95503">
        <ele>325</ele>
        <time>2011-09-25T06:22:04Z</time>
      </trkpt>
      <trkpt lat="49.1842" lon="6.95501">
        <ele>324</ele>
        <time>2011-09-25T06:22:05Z</time>
      </trkpt>
      <trkpt lat="49.1842" lon="6.95499">
        <ele>324</ele>
        <time>2011-09-25T06:22:06Z</time>
      </trkpt>
      <trkpt lat="49.1842" lon="6.95497">
        <ele>324</ele>
        <time>2011-09-25T06:22:07Z</time>
      </trkpt>
      <trkpt lat="49.1842" lon="6.95495">
        <ele>324</ele>
        <time>2011-09-25T06:22:08Z</time>
      </trkpt>
      <trkpt lat="49.1842" lon="6.95492">
        <ele>324</ele>
        <time>2011-09-25T06:22:09Z</time>
      </trkpt>
      <trkpt lat="49.1842" lon="6.9549">
        <ele>323</ele>
        <time>2011-09-25T06:22:10Z</time>
      </trkpt>
      <trkpt lat="49.1842" lon="6.95488">
        <ele>323</ele>
        <time>2011-09-25T06:22:11Z</time>
      </trkpt>
      <trkpt lat="49.1842" lon="6.95486">
        <ele>323</ele>
        <time>2011-09-25T06:22:12Z</time>
      </trkpt>
      <trkpt lat="49.1842" lon="6.95484">
        <ele>323</ele>
        <time>2011-09-25T06:22:13Z</time>
      </trkpt>
      <trkpt lat="49.18419" lon="6.95482">
        <ele>323</ele>
        <time>2011-09-25T06:22:14Z</time>
      </trkpt>
      <trkpt lat="49.18419" lon="6.9548">
        <ele>322</ele>
        <time>2011-09-25T06:22:15Z</time>
      </trkpt>
      <trkpt lat="49.18419" lon="6.95478">
        <ele>322</ele>
        <time>2011-09-25T06:22:16Z</time>
      </trkpt>
      <trkpt lat="49.18419" lon="6.95477">
        <ele>322</ele>
        <time>2011-09-25T06:22:17Z</time>
      </trkpt>
      <trkpt lat="49.18419" lon="6.95474">
        <ele>322</ele>
        <time>2011-09-25T06:22:18Z</time>
      </trkpt>
      <trkpt lat="49.18419" lon="6.95472">
        <ele>322</ele>
        <time>2011-09-25T06:22:19Z</time>
      </trkpt>
      <trkpt lat="49.18419" lon="6.9547">
        <ele>321</ele>
        <time>2011-09-25T06:22:20Z</time>
      </trkpt>
      <trkpt lat="49.18419" lon="6.95469">
        <ele>321</ele>
        <time>2011-09-25T06:22:21Z</time>
      </trkpt>
      <trkpt lat="49.18419" lon="6.95467">
        <ele>321</ele>
        <time>2011-09-25T06:22:22Z</time>
      </trkpt>
      <trkpt lat="49.18419" lon="6.95464">
        <ele>321</ele>
        <time>2011-09-25T06:22:23Z</time>
      </trkpt>
      <trkpt lat="49.18419" lon="6.95462">
        <ele>321</ele>
        <time>2011-09-25T06:22:24Z</time>
      </trkpt>
      <trkpt lat="49.18419" lon="6.9546">
        <ele>320</ele>
        <time>2011-09-25T06:22:25Z</time>
      </trkpt>
      <trkpt lat="49.18419" lon="6.95458">
        <ele>320</ele>
        <time>2011-09-25T06:22:26Z</time>
      </trkpt>
      <trkpt lat="49.18419" lon="6.95456">
        <ele>320</ele>
        <time>2011-09-25T06:22:27Z</time>
      </trkpt>
      <trkpt lat="49.18419" lon="6.95454">
        <ele>320</ele>
        <time>2011-09-25T06:22:28Z</time>
      </trkpt>
      <trkpt lat="49.18419" lon="6.95452">
        <ele>319</ele>
        <time>2011-09-25T06:22:29Z</time>
      </trkpt>
      <trkpt lat="49.1842" lon="6.9545">
        <ele>319</ele>
        <time>2011-09-25T06:22:30Z</time>
      </trkpt>
      <trkpt lat="49.1842" lon="6.95447">
        <ele>318</ele>
        <time>2011-09-25T06:22:32Z</time>
      </trkpt>
      <trkpt lat="49.1842" lon="6.95445">
        <ele>318</ele>
        <time>2011-09-25T06:22:33Z</time>
      </trkpt>
      <trkpt lat="49.1842" lon="6.95443">
        <ele>318</ele>
        <time>2011-09-25T06:22:34Z</time>
      </trkpt>
      <trkpt lat="49.1842" lon="6.95441">
        <ele>317</ele>
        <time>2011-09-25T06:22:35Z</time>
      </trkpt>
      <trkpt lat="49.1842" lon="6.95439">
        <ele>317</ele>
        <time>2011-09-25T06:22:36Z</time>
      </trkpt>
      <trkpt lat="49.1842" lon="6.95438">
        <ele>317</ele>
        <time>2011-09-25T06:22:37Z</time>
      </trkpt>
      <trkpt lat="49.1842" lon="6.95436">
        <ele>317</ele>
        <time>2011-09-25T06:22:38Z</time>
      </trkpt>
      <trkpt lat="49.1842" lon="6.95434">
        <ele>316</ele>
        <time>2011-09-25T06:22:39Z</time>
      </trkpt>
      <trkpt lat="49.1842" lon="6.95432">
        <ele>316</ele>
        <time>2011-09-25T06:22:40Z</time>
      </trkpt>
      <trkpt lat="49.1842" lon="6.95429">
        <ele>316</ele>
        <time>2011-09-25T06:22:41Z</time>
      </trkpt>
      <trkpt lat="49.18419" lon="6.95427">
        <ele>315</ele>
        <time>2011-09-25T06:22:42Z</time>
      </trkpt>
      <trkpt lat="49.18418" lon="6.95424">
        <ele>315</ele>
        <time>2011-09-25T06:22:43Z</time>
      </trkpt>
      <trkpt lat="49.18418" lon="6.95422">
        <ele>315</ele>
        <time>2011-09-25T06:22:44Z</time>
      </trkpt>
      <trkpt lat="49.18418" lon="6.95421">
        <ele>314</ele>
        <time>2011-09-25T06:22:45Z</time>
      </trkpt>
      <trkpt lat="49.18418" lon="6.95417">
        <ele>313</ele>
        <time>2011-09-25T06:22:47Z</time>
      </trkpt>
      <trkpt lat="49.18418" lon="6.95415">
        <ele>313</ele>
        <time>2011-09-25T06:22:48Z</time>
      </trkpt>
      <trkpt lat="49.18418" lon="6.95412">
        <ele>313</ele>
        <time>2011-09-25T06:22:50Z</time>
      </trkpt>
      <trkpt lat="49.18418" lon="6.9541">
        <ele>313</ele>
        <time>2011-09-25T06:22:51Z</time>
      </trkpt>
      <trkpt lat="49.18419" lon="6.95408">
        <ele>313</ele>
        <time>2011-09-25T06:22:52Z</time>
      </trkpt>
      <trkpt lat="49.18418" lon="6.95406">
        <ele>312</ele>
        <time>2011-09-25T06:22:53Z</time>
      </trkpt>
      <trkpt lat="49.18419" lon="6.95403">
        <ele>312</ele>
        <time>2011-09-25T06:22:54Z</time>
      </trkpt>
      <trkpt lat="49.18419" lon="6.95401">
        <ele>312</ele>
        <time>2011-09-25T06:22:55Z</time>
      </trkpt>
      <trkpt lat="49.18419" lon="6.95399">
        <ele>312</ele>
        <time>2011-09-25T06:22:56Z</time>
      </trkpt>
      <trkpt lat="49.18419" lon="6.95397">
        <ele>312</ele>
        <time>2011-09-25T06:22:57Z</time>
      </trkpt>
      <trkpt lat="49.18419" lon="6.95396">
        <ele>312</ele>
        <time>2011-09-25T06:22:58Z</time>
      </trkpt>
      <trkpt lat="49.18419" lon="6.95393">
        <ele>312</ele>
        <time>2011-09-25T06:22:59Z</time>
      </trkpt>
      <trkpt lat="49.18419" lon="6.95391">
        <ele>311</ele>
        <time>2011-09-25T06:23:00Z</time>
      </trkpt>
      <trkpt lat="49.18419" lon="6.9539">
        <ele>311</ele>
        <time>2011-09-25T06:23:01Z</time>
      </trkpt>
      <trkpt lat="49.18419" lon="6.95386">
        <ele>311</ele>
        <time>2011-09-25T06:23:03Z</time>
      </trkpt>
      <trkpt lat="49.18419" lon="6.95385">
        <ele>310</ele>
        <time>2011-09-25T06:23:04Z</time>
      </trkpt>
      <trkpt lat="49.18419" lon="6.95382">
        <ele>310</ele>
        <time>2011-09-25T06:23:05Z</time>
      </trkpt>
      <trkpt lat="49.18419" lon="6.95381">
        <ele>310</ele>
        <time>2011-09-25T06:23:06Z</time>
      </trkpt>
      <trkpt lat="49.18419" lon="6.95378">
        <ele>310</ele>
        <time>2011-09-25T06:23:08Z</time>
      </trkpt>
      <trkpt lat="49.18419" lon="6.95376">
        <ele>310</ele>
        <time>2011-09-25T06:23:09Z</time>
      </trkpt>
      <trkpt lat="49.18419" lon="6.95372">
        <ele>310</ele>
        <time>2011-09-25T06:23:11Z</time>
      </trkpt>
      <trkpt lat="49.18419" lon="6.95371">
        <ele>310</ele>
        <time>2011-09-25T06:23:12Z</time>
      </trkpt>
      <trkpt lat="49.18418" lon="6.95369">
        <ele>310</ele>
        <time>2011-09-25T06:23:13Z</time>
      </trkpt>
      <trkpt lat="49.18418" lon="6.95366">
        <ele>310</ele>
        <time>2011-09-25T06:23:14Z</time>
      </trkpt>
      <trkpt lat="49.18418" lon="6.95364">
        <ele>310</ele>
        <time>2011-09-25T06:23:15Z</time>
      </trkpt>
      <trkpt lat="49.18418" lon="6.95362">
        <ele>310</ele>
        <time>2011-09-25T06:23:16Z</time>
      </trkpt>
      <trkpt lat="49.18418" lon="6.9536">
        <ele>309</ele>
        <time>2011-09-25T06:23:17Z</time>
      </trkpt>
      <trkpt lat="49.18418" lon="6.95359">
        <ele>309</ele>
        <time>2011-09-25T06:23:18Z</time>
      </trkpt>
      <trkpt lat="49.18418" lon="6.95357">
        <ele>309</ele>
        <time>2011-09-25T06:23:19Z</time>
      </trkpt>
      <trkpt lat="49.18417" lon="6.95355">
        <ele>309</ele>
        <time>2011-09-25T06:23:20Z</time>
      </trkpt>
      <trkpt lat="49.18417" lon="6.95353">
        <ele>309</ele>
        <time>2011-09-25T06:23:21Z</time>
      </trkpt>
      <trkpt lat="49.18417" lon="6.95352">
        <ele>308</ele>
        <time>2011-09-25T06:23:22Z</time>
      </trkpt>
      <trkpt lat="49.18417" lon="6.95349">
        <ele>308</ele>
        <time>2011-09-25T06:23:23Z</time>
      </trkpt>
      <trkpt lat="49.18417" lon="6.95347">
        <ele>308</ele>
        <time>2011-09-25T06:23:24Z</time>
      </trkpt>
      <trkpt lat="49.18417" lon="6.95345">
        <ele>308</ele>
        <time>2011-09-25T06:23:25Z</time>
      </trkpt>
      <trkpt lat="49.18417" lon="6.95344">
        <ele>308</ele>
        <time>2011-09-25T06:23:26Z</time>
      </trkpt>
      <trkpt lat="49.18417" lon="6.95342">
        <ele>308</ele>
        <time>2011-09-25T06:23:27Z</time>
      </trkpt>
      <trkpt lat="49.18417" lon="6.9534">
        <ele>308</ele>
        <time>2011-09-25T06:23:28Z</time>
      </trkpt>
      <trkpt lat="49.18417" lon="6.95338">
        <ele>308</ele>
        <time>2011-09-25T06:23:29Z</time>
      </trkpt>
      <trkpt lat="49.18417" lon="6.95336">
        <ele>308</ele>
        <time>2011-09-25T06:23:30Z</time>
      </trkpt>
      <trkpt lat="49.18417" lon="6.95334">
        <ele>308</ele>
        <time>2011-09-25T06:23:31Z</time>
      </trkpt>
      <trkpt lat="49.18417" lon="6.95331">
        <ele>308</ele>
        <time>2011-09-25T06:23:33Z</time>
      </trkpt>
      <trkpt lat="49.18417" lon="6.9533">
        <ele>308</ele>
        <time>2011-09-25T06:23:34Z</time>
      </trkpt>
      <trkpt lat="49.18418" lon="6.95328">
        <ele>308</ele>
        <time>2011-09-25T06:23:35Z</time>
      </trkpt>
      <trkpt lat="49.18418" lon="6.95326">
        <ele>308</ele>
        <time>2011-09-25T06:23:36Z</time>
      </trkpt>
      <trkpt lat="49.18418" lon="6.95324">
        <ele>308</ele>
        <time>2011-09-25T06:23:37Z</time>
      </trkpt>
      <trkpt lat="49.18419" lon="6.95321">
        <ele>308</ele>
        <time>2011-09-25T06:23:39Z</time>
      </trkpt>
      <trkpt lat="49.18419" lon="6.95319">
        <ele>308</ele>
        <time>2011-09-25T06:23:40Z</time>
      </trkpt>
      <trkpt lat="49.18419" lon="6.95318">
        <ele>308</ele>
        <time>2011-09-25T06:23:41Z</time>
      </trkpt>
      <trkpt lat="49.18419" lon="6.95315">
        <ele>308</ele>
        <time>2011-09-25T06:23:43Z</time>
      </trkpt>
      <trkpt lat="49.18419" lon="6.95313">
        <ele>308</ele>
        <time>2011-09-25T06:23:45Z</time>
      </trkpt>
      <trkpt lat="49.18419" lon="6.9531">
        <ele>308</ele>
        <time>2011-09-25T06:23:47Z</time>
      </trkpt>
      <trkpt lat="49.18419" lon="6.95307">
        <ele>308</ele>
        <time>2011-09-25T06:23:49Z</time>
      </trkpt>
      <trkpt lat="49.18419" lon="6.95305">
        <ele>308</ele>
        <time>2011-09-25T06:23:51Z</time>
      </trkpt>
      <trkpt lat="49.18418" lon="6.95302">
        <ele>308</ele>
        <time>2011-09-25T06:23:53Z</time>
      </trkpt>
      <trkpt lat="49.18419" lon="6.953">
        <ele>308</ele>
        <time>2011-09-25T06:23:55Z</time>
      </trkpt>
      <trkpt lat="49.18419" lon="6.95298">
        <ele>308</ele>
        <time>2011-09-25T06:24:01Z</time>
      </trkpt>
      <trkpt lat="49.18419" lon="6.95296">
        <ele>308</ele>
        <time>2011-09-25T06:24:03Z</time>
      </trkpt>
      <trkpt lat="49.18417" lon="6.95294">
        <ele>308</ele>
        <time>2011-09-25T06:24:05Z</time>
      </trkpt>
      <trkpt lat="49.18419" lon="6.95292">
        <ele>308</ele>
        <time>2011-09-25T06:24:09Z</time>
      </trkpt>
      <trkpt lat="49.18417" lon="6.95289">
        <ele>308</ele>
        <time>2011-09-25T06:24:17Z</time>
      </trkpt>
      <trkpt lat="49.18418" lon="6.95292">
        <ele>308</ele>
        <time>2011-09-25T06:24:19Z</time>
      </trkpt>
      <trkpt lat="49.18417" lon="6.95293">
        <ele>308</ele>
        <time>2011-09-25T06:24:21Z</time>
      </trkpt>
      <trkpt lat="49.18415" lon="6.95292">
        <ele>308</ele>
        <time>2011-09-25T06:24:23Z</time>
      </trkpt>
      <trkpt lat="49.18414" lon="6.95289">
        <ele>309</ele>
        <time>2011-09-25T06:24:26Z</time>
      </trkpt>
      <trkpt lat="49.18415" lon="6.95288">
        <ele>309</ele>
        <time>2011-09-25T06:24:28Z</time>
      </trkpt>
      <trkpt lat="49.18416" lon="6.95285">
        <ele>310</ele>
        <time>2011-09-25T06:24:30Z</time>
      </trkpt>
      <trkpt lat="49.18416" lon="6.95282">
        <ele>310</ele>
        <time>2011-09-25T06:24:32Z</time>
      </trkpt>
      <trkpt lat="49.18417" lon="6.95279">
        <ele>310</ele>
        <time>2011-09-25T06:24:34Z</time>
      </trkpt>
      <trkpt lat="49.18417" lon="6.95276">
        <ele>310</ele>
        <time>2011-09-25T06:24:36Z</time>
      </trkpt>
      <trkpt lat="49.18417" lon="6.95274">
        <ele>310</ele>
        <time>2011-09-25T06:24:37Z</time>
      </trkpt>
      <trkpt lat="49.18419" lon="6.95272">
        <ele>310</ele>
        <time>2011-09-25T06:24:39Z</time>
      </trkpt>
      <trkpt lat="49.18419" lon="6.9527">
        <ele>310</ele>
        <time>2011-09-25T06:24:40Z</time>
      </trkpt>
      <trkpt lat="49.18419" lon="6.95268">
        <ele>310</ele>
        <time>2011-09-25T06:24:41Z</time>
      </trkpt>
      <trkpt lat="49.1842" lon="6.95265">
        <ele>310</ele>
        <time>2011-09-25T06:24:43Z</time>
      </trkpt>
      <trkpt lat="49.18421" lon="6.95262">
        <ele>310</ele>
        <time>2011-09-25T06:24:45Z</time>
      </trkpt>
      <trkpt lat="49.18422" lon="6.95259">
        <ele>310</ele>
        <time>2011-09-25T06:24:47Z</time>
      </trkpt>
      <trkpt lat="49.18423" lon="6.95258">
        <ele>310</ele>
        <time>2011-09-25T06:24:48Z</time>
      </trkpt>
      <trkpt lat="49.18423" lon="6.95255">
        <ele>310</ele>
        <time>2011-09-25T06:24:50Z</time>
      </trkpt>
      <trkpt lat="49.18424" lon="6.95252">
        <ele>310</ele>
        <time>2011-09-25T06:24:52Z</time>
      </trkpt>
      <trkpt lat="49.18424" lon="6.95249">
        <ele>310</ele>
        <time>2011-09-25T06:24:54Z</time>
      </trkpt>
      <trkpt lat="49.18425" lon="6.95247">
        <ele>310</ele>
        <time>2011-09-25T06:24:55Z</time>
      </trkpt>
      <trkpt lat="49.18425" lon="6.95244">
        <ele>310</ele>
        <time>2011-09-25T06:24:57Z</time>
      </trkpt>
      <trkpt lat="49.18425" lon="6.95242">
        <ele>310</ele>
        <time>2011-09-25T06:24:58Z</time>
      </trkpt>
      <trkpt lat="49.18426" lon="6.9524">
        <ele>310</ele>
        <time>2011-09-25T06:24:59Z</time>
      </trkpt>
      <trkpt lat="49.18426" lon="6.95238">
        <ele>310</ele>
        <time>2011-09-25T06:25:00Z</time>
      </trkpt>
      <trkpt lat="49.18426" lon="6.95235">
        <ele>310</ele>
        <time>2011-09-25T06:25:02Z</time>
      </trkpt>
      <trkpt lat="49.18426" lon="6.95233">
        <ele>310</ele>
        <time>2011-09-25T06:25:03Z</time>
      </trkpt>
      <trkpt lat="49.18426" lon="6.95231">
        <ele>310</ele>
        <time>2011-09-25T06:25:04Z</time>
      </trkpt>
      <trkpt lat="49.18427" lon="6.95228">
        <ele>310</ele>
        <time>2011-09-25T06:25:06Z</time>
      </trkpt>
      <trkpt lat="49.18426" lon="6.95227">
        <ele>310</ele>
        <time>2011-09-25T06:25:07Z</time>
      </trkpt>
      <trkpt lat="49.18426" lon="6.95225">
        <ele>310</ele>
        <time>2011-09-25T06:25:08Z</time>
      </trkpt>
      <trkpt lat="49.18426" lon="6.95222">
        <ele>310</ele>
        <time>2011-09-25T06:25:10Z</time>
      </trkpt>
      <trkpt lat="49.18425" lon="6.95219">
        <ele>310</ele>
        <time>2011-09-25T06:25:12Z</time>
      </trkpt>
      <trkpt lat="49.18425" lon="6.95217">
        <ele>310</ele>
        <time>2011-09-25T06:25:13Z</time>
      </trkpt>
      <trkpt lat="49.18425" lon="6.95214">
        <ele>310</ele>
        <time>2011-09-25T06:25:15Z</time>
      </trkpt>
      <trkpt lat="49.18425" lon="6.95211">
        <ele>310</ele>
        <time>2011-09-25T06:25:17Z</time>
      </trkpt>
      <trkpt lat="49.18424" lon="6.95209">
        <ele>310</ele>
        <time>2011-09-25T06:25:18Z</time>
      </trkpt>
      <trkpt lat="49.18424" lon="6.95208">
        <ele>310</ele>
        <time>2011-09-25T06:25:19Z</time>
      </trkpt>
      <trkpt lat="49.18424" lon="6.95206">
        <ele>310</ele>
        <time>2011-09-25T06:25:20Z</time>
      </trkpt>
      <trkpt lat="49.18423" lon="6.95204">
        <ele>310</ele>
        <time>2011-09-25T06:25:21Z</time>
      </trkpt>
      <trkpt lat="49.18423" lon="6.95202">
        <ele>310</ele>
        <time>2011-09-25T06:25:22Z</time>
      </trkpt>
      <trkpt lat="49.18423" lon="6.952">
        <ele>310</ele>
        <time>2011-09-25T06:25:23Z</time>
      </trkpt>
      <trkpt lat="49.18423" lon="6.95199">
        <ele>310</ele>
        <time>2011-09-25T06:25:24Z</time>
      </trkpt>
      <trkpt lat="49.18422" lon="6.95196">
        <ele>310</ele>
        <time>2011-09-25T06:25:26Z</time>
      </trkpt>
      <trkpt lat="49.18422" lon="6.95194">
        <ele>310</ele>
        <time>2011-09-25T06:25:27Z</time>
      </trkpt>
      <trkpt lat="49.18422" lon="6.95191">
        <ele>310</ele>
        <time>2011-09-25T06:25:28Z</time>
      </trkpt>
      <trkpt lat="49.18421" lon="6.9519">
        <ele>310</ele>
        <time>2011-09-25T06:25:29Z</time>
      </trkpt>
      <trkpt lat="49.1842" lon="6.95187">
        <ele>310</ele>
        <time>2011-09-25T06:25:30Z</time>
      </trkpt>
      <trkpt lat="49.1842" lon="6.95184">
        <ele>310</ele>
        <time>2011-09-25T06:25:32Z</time>
      </trkpt>
      <trkpt lat="49.1842" lon="6.95182">
        <ele>310</ele>
        <time>2011-09-25T06:25:33Z</time>
      </trkpt>
      <trkpt lat="49.1842" lon="6.95181">
        <ele>310</ele>
        <time>2011-09-25T06:25:34Z</time>
      </trkpt>
      <trkpt lat="49.18419" lon="6.95179">
        <ele>310</ele>
        <time>2011-09-25T06:25:35Z</time>
      </trkpt>
      <trkpt lat="49.18419" lon="6.95177">
        <ele>310</ele>
        <time>2011-09-25T06:25:36Z</time>
      </trkpt>
      <trkpt lat="49.18418" lon="6.95174">
        <ele>310</ele>
        <time>2011-09-25T06:25:38Z</time>
      </trkpt>
      <trkpt lat="49.18417" lon="6.95171">
        <ele>311</ele>
        <time>2011-09-25T06:25:40Z</time>
      </trkpt>
      <trkpt lat="49.18416" lon="6.95168">
        <ele>311</ele>
        <time>2011-09-25T06:25:41Z</time>
      </trkpt>
      <trkpt lat="49.18416" lon="6.95167">
        <ele>311</ele>
        <time>2011-09-25T06:25:42Z</time>
      </trkpt>
      <trkpt lat="49.18415" lon="6.95165">
        <ele>312</ele>
        <time>2011-09-25T06:25:43Z</time>
      </trkpt>
      <trkpt lat="49.18415" lon="6.95163">
        <ele>312</ele>
        <time>2011-09-25T06:25:44Z</time>
      </trkpt>
      <trkpt lat="49.18415" lon="6.9516">
        <ele>313</ele>
        <time>2011-09-25T06:25:46Z</time>
      </trkpt>
      <trkpt lat="49.18415" lon="6.95157">
        <ele>313</ele>
        <time>2011-09-25T06:25:48Z</time>
      </trkpt>
      <trkpt lat="49.18415" lon="6.95155">
        <ele>313</ele>
        <time>2011-09-25T06:25:49Z</time>
      </trkpt>
      <trkpt lat="49.18415" lon="6.95154">
        <ele>313</ele>
        <time>2011-09-25T06:25:50Z</time>
      </trkpt>
      <trkpt lat="49.18415" lon="6.95152">
        <ele>313</ele>
        <time>2011-09-25T06:25:51Z</time>
      </trkpt>
      <trkpt lat="49.18415" lon="6.9515">
        <ele>313</ele>
        <time>2011-09-25T06:25:52Z</time>
      </trkpt>
      <trkpt lat="49.18415" lon="6.95149">
        <ele>313</ele>
        <time>2011-09-25T06:25:53Z</time>
      </trkpt>
      <trkpt lat="49.18415" lon="6.95146">
        <ele>313</ele>
        <time>2011-09-25T06:25:55Z</time>
      </trkpt>
      <trkpt lat="49.18415" lon="6.95143">
        <ele>313</ele>
        <time>2011-09-25T06:25:57Z</time>
      </trkpt>
      <trkpt lat="49.18415" lon="6.95139">
        <ele>313</ele>
        <time>2011-09-25T06:25:59Z</time>
      </trkpt>
      <trkpt lat="49.18414" lon="6.95138">
        <ele>313</ele>
        <time>2011-09-25T06:26:00Z</time>
      </trkpt>
      <trkpt lat="49.18414" lon="6.95136">
        <ele>313</ele>
        <time>2011-09-25T06:26:01Z</time>
      </trkpt>
      <trkpt lat="49.18414" lon="6.95134">
        <ele>313</ele>
        <time>2011-09-25T06:26:02Z</time>
      </trkpt>
      <trkpt lat="49.18414" lon="6.95132">
        <ele>313</ele>
        <time>2011-09-25T06:26:03Z</time>
      </trkpt>
      <trkpt lat="49.18414" lon="6.95129">
        <ele>313</ele>
        <time>2011-09-25T06:26:05Z</time>
      </trkpt>
      <trkpt lat="49.18413" lon="6.95127">
        <ele>313</ele>
        <time>2011-09-25T06:26:06Z</time>
      </trkpt>
      <trkpt lat="49.18413" lon="6.95125">
        <ele>313</ele>
        <time>2011-09-25T06:26:07Z</time>
      </trkpt>
      <trkpt lat="49.18413" lon="6.95124">
        <ele>313</ele>
        <time>2011-09-25T06:26:08Z</time>
      </trkpt>
      <trkpt lat="49.18412" lon="6.95122">
        <ele>313</ele>
        <time>2011-09-25T06:26:09Z</time>
      </trkpt>
      <trkpt lat="49.18412" lon="6.9512">
        <ele>313</ele>
        <time>2011-09-25T06:26:10Z</time>
      </trkpt>
      <trkpt lat="49.18412" lon="6.95118">
        <ele>313</ele>
        <time>2011-09-25T06:26:11Z</time>
      </trkpt>
      <trkpt lat="49.18412" lon="6.95117">
        <ele>313</ele>
        <time>2011-09-25T06:26:12Z</time>
      </trkpt>
      <trkpt lat="49.18412" lon="6.95115">
        <ele>313</ele>
        <time>2011-09-25T06:26:13Z</time>
      </trkpt>
      <trkpt lat="49.18411" lon="6.95113">
        <ele>313</ele>
        <time>2011-09-25T06:26:14Z</time>
      </trkpt>
      <trkpt lat="49.18411" lon="6.95111">
        <ele>313</ele>
        <time>2011-09-25T06:26:15Z</time>
      </trkpt>
      <trkpt lat="49.18411" lon="6.95108">
        <ele>313</ele>
        <time>2011-09-25T06:26:16Z</time>
      </trkpt>
      <trkpt lat="49.1841" lon="6.95106">
        <ele>313</ele>
        <time>2011-09-25T06:26:17Z</time>
      </trkpt>
      <trkpt lat="49.1841" lon="6.95105">
        <ele>313</ele>
        <time>2011-09-25T06:26:18Z</time>
      </trkpt>
      <trkpt lat="49.18411" lon="6.95101">
        <ele>313</ele>
        <time>2011-09-25T06:26:20Z</time>
      </trkpt>
      <trkpt lat="49.18411" lon="6.951">
        <ele>313</ele>
        <time>2011-09-25T06:26:21Z</time>
      </trkpt>
      <trkpt lat="49.18412" lon="6.95098">
        <ele>313</ele>
        <time>2011-09-25T06:26:22Z</time>
      </trkpt>
      <trkpt lat="49.18413" lon="6.95095">
        <ele>313</ele>
        <time>2011-09-25T06:26:24Z</time>
      </trkpt>
      <trkpt lat="49.18414" lon="6.95094">
        <ele>313</ele>
        <time>2011-09-25T06:26:25Z</time>
      </trkpt>
      <trkpt lat="49.18415" lon="6.95091">
        <ele>314</ele>
        <time>2011-09-25T06:26:27Z</time>
      </trkpt>
      <trkpt lat="49.18417" lon="6.95089">
        <ele>314</ele>
        <time>2011-09-25T06:26:29Z</time>
      </trkpt>
      <trkpt lat="49.18419" lon="6.95088">
        <ele>314</ele>
        <time>2011-09-25T06:26:30Z</time>
      </trkpt>
      <trkpt lat="49.1842" lon="6.95087">
        <ele>314</ele>
        <time>2011-09-25T06:26:31Z</time>
      </trkpt>
      <trkpt lat="49.18421" lon="6.95086">
        <ele>314</ele>
        <time>2011-09-25T06:26:32Z</time>
      </trkpt>
      <trkpt lat="49.18422" lon="6.95086">
        <ele>314</ele>
        <time>2011-09-25T06:26:33Z</time>
      </trkpt>
      <trkpt lat="49.18425" lon="6.95085">
        <ele>314</ele>
        <time>2011-09-25T06:26:35Z</time>
      </trkpt>
      <trkpt lat="49.18426" lon="6.95084">
        <ele>314</ele>
        <time>2011-09-25T06:26:37Z</time>
      </trkpt>
      <trkpt lat="49.18428" lon="6.95081">
        <ele>314</ele>
        <time>2011-09-25T06:26:39Z</time>
      </trkpt>
      <trkpt lat="49.18429" lon="6.95078">
        <ele>314</ele>
        <time>2011-09-25T06:26:41Z</time>
      </trkpt>
      <trkpt lat="49.1843" lon="6.95075">
        <ele>314</ele>
        <time>2011-09-25T06:26:43Z</time>
      </trkpt>
      <trkpt lat="49.1843" lon="6.95073">
        <ele>314</ele>
        <time>2011-09-25T06:26:44Z</time>
      </trkpt>
      <trkpt lat="49.18431" lon="6.9507">
        <ele>314</ele>
        <time>2011-09-25T06:26:46Z</time>
      </trkpt>
      <trkpt lat="49.18432" lon="6.95067">
        <ele>314</ele>
        <time>2011-09-25T06:26:48Z</time>
      </trkpt>
      <trkpt lat="49.18433" lon="6.95064">
        <ele>314</ele>
        <time>2011-09-25T06:26:50Z</time>
      </trkpt>
      <trkpt lat="49.18433" lon="6.95061">
        <ele>315</ele>
        <time>2011-09-25T06:26:52Z</time>
      </trkpt>
      <trkpt lat="49.18433" lon="6.95058">
        <ele>315</ele>
        <time>2011-09-25T06:26:54Z</time>
      </trkpt>
      <trkpt lat="49.18433" lon="6.95056">
        <ele>315</ele>
        <time>2011-09-25T06:26:55Z</time>
      </trkpt>
      <trkpt lat="49.18434" lon="6.95055">
        <ele>315</ele>
        <time>2011-09-25T06:26:56Z</time>
      </trkpt>
      <trkpt lat="49.18434" lon="6.95053">
        <ele>315</ele>
        <time>2011-09-25T06:26:57Z</time>
      </trkpt>
      <trkpt lat="49.18434" lon="6.95051">
        <ele>315</ele>
        <time>2011-09-25T06:26:58Z</time>
      </trkpt>
      <trkpt lat="49.18434" lon="6.9505">
        <ele>315</ele>
        <time>2011-09-25T06:26:59Z</time>
      </trkpt>
      <trkpt lat="49.18434" lon="6.95048">
        <ele>315</ele>
        <time>2011-09-25T06:27:00Z</time>
      </trkpt>
      <trkpt lat="49.18434" lon="6.95046">
        <ele>315</ele>
        <time>2011-09-25T06:27:01Z</time>
      </trkpt>
      <trkpt lat="49.18434" lon="6.95045">
        <ele>315</ele>
        <time>2011-09-25T06:27:02Z</time>
      </trkpt>
      <trkpt lat="49.18433" lon="6.95042">
        <ele>315</ele>
        <time>2011-09-25T06:27:04Z</time>
      </trkpt>
      <trkpt lat="49.18433" lon="6.9504">
        <ele>316</ele>
        <time>2011-09-25T06:27:05Z</time>
      </trkpt>
      <trkpt lat="49.18433" lon="6.95037">
        <ele>316</ele>
        <time>2011-09-25T06:27:07Z</time>
      </trkpt>
      <trkpt lat="49.18433" lon="6.95034">
        <ele>316</ele>
        <time>2011-09-25T06:27:09Z</time>
      </trkpt>
      <trkpt lat="49.18433" lon="6.95032">
        <ele>316</ele>
        <time>2011-09-25T06:27:10Z</time>
      </trkpt>
      <trkpt lat="49.18432" lon="6.9503">
        <ele>317</ele>
        <time>2011-09-25T06:27:11Z</time>
      </trkpt>
      <trkpt lat="49.18432" lon="6.95028">
        <ele>317</ele>
        <time>2011-09-25T06:27:12Z</time>
      </trkpt>
      <trkpt lat="49.18432" lon="6.95025">
        <ele>318</ele>
        <time>2011-09-25T06:27:14Z</time>
      </trkpt>
      <trkpt lat="49.18431" lon="6.95022">
        <ele>318</ele>
        <time>2011-09-25T06:27:16Z</time>
      </trkpt>
      <trkpt lat="49.18431" lon="6.95019">
        <ele>319</ele>
        <time>2011-09-25T06:27:18Z</time>
      </trkpt>
      <trkpt lat="49.1843" lon="6.95016">
        <ele>319</ele>
        <time>2011-09-25T06:27:20Z</time>
      </trkpt>
      <trkpt lat="49.1843" lon="6.95014">
        <ele>319</ele>
        <time>2011-09-25T06:27:21Z</time>
      </trkpt>
      <trkpt lat="49.1843" lon="6.95012">
        <ele>319</ele>
        <time>2011-09-25T06:27:22Z</time>
      </trkpt>
      <trkpt lat="49.18429" lon="6.95011">
        <ele>319</ele>
        <time>2011-09-25T06:27:23Z</time>
      </trkpt>
      <trkpt lat="49.18429" lon="6.95008">
        <ele>320</ele>
        <time>2011-09-25T06:27:25Z</time>
      </trkpt>
      <trkpt lat="49.18429" lon="6.95006">
        <ele>320</ele>
        <time>2011-09-25T06:27:26Z</time>
      </trkpt>
      <trkpt lat="49.18429" lon="6.95003">
        <ele>321</ele>
        <time>2011-09-25T06:27:28Z</time>
      </trkpt>
      <trkpt lat="49.18428" lon="6.95">
        <ele>321</ele>
        <time>2011-09-25T06:27:30Z</time>
      </trkpt>
      <trkpt lat="49.18428" lon="6.94998">
        <ele>321</ele>
        <time>2011-09-25T06:27:32Z</time>
      </trkpt>
      <trkpt lat="49.18428" lon="6.94994">
        <ele>322</ele>
        <time>2011-09-25T06:27:34Z</time>
      </trkpt>
      <trkpt lat="49.18428" lon="6.94993">
        <ele>322</ele>
        <time>2011-09-25T06:27:35Z</time>
      </trkpt>
      <trkpt lat="49.18428" lon="6.94989">
        <ele>322</ele>
        <time>2011-09-25T06:27:37Z</time>
      </trkpt>
      <trkpt lat="49.18428" lon="6.94987">
        <ele>322</ele>
        <time>2011-09-25T06:27:38Z</time>
      </trkpt>
      <trkpt lat="49.18428" lon="6.94985">
        <ele>322</ele>
        <time>2011-09-25T06:27:40Z</time>
      </trkpt>
      <trkpt lat="49.18428" lon="6.94983">
        <ele>323</ele>
        <time>2011-09-25T06:27:41Z</time>
      </trkpt>
      <trkpt lat="49.18429" lon="6.94981">
        <ele>323</ele>
        <time>2011-09-25T06:27:43Z</time>
      </trkpt>
      <trkpt lat="49.1843" lon="6.94979">
        <ele>323</ele>
        <time>2011-09-25T06:27:45Z</time>
      </trkpt>
      <trkpt lat="49.18431" lon="6.94977">
        <ele>323</ele>
        <time>2011-09-25T06:27:47Z</time>
      </trkpt>
      <trkpt lat="49.18432" lon="6.94974">
        <ele>324</ele>
        <time>2011-09-25T06:27:49Z</time>
      </trkpt>
      <trkpt lat="49.18432" lon="6.94971">
        <ele>324</ele>
        <time>2011-09-25T06:27:51Z</time>
      </trkpt>
      <trkpt lat="49.18431" lon="6.94968">
        <ele>324</ele>
        <time>2011-09-25T06:27:53Z</time>
      </trkpt>
      <trkpt lat="49.18431" lon="6.94965">
        <ele>325</ele>
        <time>2011-09-25T06:27:55Z</time>
      </trkpt>
      <trkpt lat="49.1843" lon="6.94962">
        <ele>325</ele>
        <time>2011-09-25T06:27:57Z</time>
      </trkpt>
      <trkpt lat="49.1843" lon="6.9496">
        <ele>325</ele>
        <time>2011-09-25T06:27:59Z</time>
      </trkpt>
      <trkpt lat="49.18429" lon="6.94957">
        <ele>325</ele>
        <time>2011-09-25T06:28:01Z</time>
      </trkpt>
      <trkpt lat="49.18428" lon="6.94954">
        <ele>326</ele>
        <time>2011-09-25T06:28:03Z</time>
      </trkpt>
      <trkpt lat="49.18427" lon="6.94951">
        <ele>326</ele>
        <time>2011-09-25T06:28:05Z</time>
      </trkpt>
      <trkpt lat="49.18426" lon="6.94948">
        <ele>326</ele>
        <time>2011-09-25T06:28:07Z</time>
      </trkpt>
      <trkpt lat="49.18425" lon="6.94945">
        <ele>327</ele>
        <time>2011-09-25T06:28:09Z</time>
      </trkpt>
      <trkpt lat="49.18425" lon="6.94944">
        <ele>327</ele>
        <time>2011-09-25T06:28:10Z</time>
      </trkpt>
      <trkpt lat="49.18425" lon="6.94941">
        <ele>327</ele>
        <time>2011-09-25T06:28:12Z</time>
      </trkpt>
      <trkpt lat="49.18424" lon="6.94938">
        <ele>328</ele>
        <time>2011-09-25T06:28:14Z</time>
      </trkpt>
      <trkpt lat="49.18423" lon="6.94935">
        <ele>328</ele>
        <time>2011-09-25T06:28:16Z</time>
      </trkpt>
      <trkpt lat="49.18423" lon="6.94933">
        <ele>328</ele>
        <time>2011-09-25T06:28:18Z</time>
      </trkpt>
      <trkpt lat="49.18422" lon="6.9493">
        <ele>328</ele>
        <time>2011-09-25T06:28:20Z</time>
      </trkpt>
      <trkpt lat="49.18422" lon="6.94927">
        <ele>328</ele>
        <time>2011-09-25T06:28:22Z</time>
      </trkpt>
      <trkpt lat="49.18421" lon="6.94925">
        <ele>328</ele>
        <time>2011-09-25T06:28:24Z</time>
      </trkpt>
      <trkpt lat="49.1842" lon="6.94921">
        <ele>329</ele>
        <time>2011-09-25T06:28:26Z</time>
      </trkpt>
      <trkpt lat="49.1842" lon="6.94919">
        <ele>329</ele>
        <time>2011-09-25T06:28:28Z</time>
      </trkpt>
      <trkpt lat="49.18419" lon="6.94917">
        <ele>329</ele>
        <time>2011-09-25T06:28:29Z</time>
      </trkpt>
      <trkpt lat="49.18419" lon="6.94915">
        <ele>329</ele>
        <time>2011-09-25T06:28:31Z</time>
      </trkpt>
      <trkpt lat="49.18418" lon="6.94912">
        <ele>329</ele>
        <time>2011-09-25T06:28:33Z</time>
      </trkpt>
      <trkpt lat="49.18417" lon="6.94909">
        <ele>330</ele>
        <time>2011-09-25T06:28:35Z</time>
      </trkpt>
      <trkpt lat="49.18417" lon="6.94908">
        <ele>330</ele>
        <time>2011-09-25T06:28:36Z</time>
      </trkpt>
      <trkpt lat="49.18416" lon="6.94905">
        <ele>330</ele>
        <time>2011-09-25T06:28:38Z</time>
      </trkpt>
      <trkpt lat="49.18415" lon="6.94904">
        <ele>331</ele>
        <time>2011-09-25T06:28:39Z</time>
      </trkpt>
      <trkpt lat="49.18415" lon="6.94901">
        <ele>331</ele>
        <time>2011-09-25T06:28:41Z</time>
      </trkpt>
      <trkpt lat="49.18414" lon="6.94898">
        <ele>332</ele>
        <time>2011-09-25T06:28:43Z</time>
      </trkpt>
      <trkpt lat="49.18413" lon="6.94895">
        <ele>332</ele>
        <time>2011-09-25T06:28:45Z</time>
      </trkpt>
      <trkpt lat="49.18412" lon="6.94892">
        <ele>332</ele>
        <time>2011-09-25T06:28:47Z</time>
      </trkpt>
      <trkpt lat="49.18412" lon="6.9489">
        <ele>332</ele>
        <time>2011-09-25T06:28:49Z</time>
      </trkpt>
      <trkpt lat="49.18411" lon="6.94888">
        <ele>332</ele>
        <time>2011-09-25T06:28:50Z</time>
      </trkpt>
      <trkpt lat="49.1841" lon="6.94885">
        <ele>333</ele>
        <time>2011-09-25T06:28:52Z</time>
      </trkpt>
      <trkpt lat="49.1841" lon="6.94883">
        <ele>333</ele>
        <time>2011-09-25T06:28:53Z</time>
      </trkpt>
      <trkpt lat="49.18409" lon="6.9488">
        <ele>334</ele>
        <time>2011-09-25T06:28:55Z</time>
      </trkpt>
      <trkpt lat="49.18408" lon="6.94877">
        <ele>335</ele>
        <time>2011-09-25T06:28:57Z</time>
      </trkpt>
      <trkpt lat="49.18407" lon="6.94875">
        <ele>335</ele>
        <time>2011-09-25T06:28:59Z</time>
      </trkpt>
      <trkpt lat="49.18407" lon="6.94872">
        <ele>335</ele>
        <time>2011-09-25T06:29:01Z</time>
      </trkpt>
      <trkpt lat="49.18407" lon="6.94869">
        <ele>335</ele>
        <time>2011-09-25T06:29:03Z</time>
      </trkpt>
      <trkpt lat="49.18406" lon="6.94867">
        <ele>336</ele>
        <time>2011-09-25T06:29:05Z</time>
      </trkpt>
      <trkpt lat="49.18406" lon="6.94865">
        <ele>336</ele>
        <time>2011-09-25T06:29:06Z</time>
      </trkpt>
      <trkpt lat="49.18405" lon="6.94863">
        <ele>336</ele>
        <time>2011-09-25T06:29:07Z</time>
      </trkpt>
      <trkpt lat="49.18405" lon="6.94861">
        <ele>336</ele>
        <time>2011-09-25T06:29:09Z</time>
      </trkpt>
      <trkpt lat="49.18405" lon="6.94858">
        <ele>336</ele>
        <time>2011-09-25T06:29:11Z</time>
      </trkpt>
      <trkpt lat="49.18405" lon="6.94854">
        <ele>336</ele>
        <time>2011-09-25T06:29:13Z</time>
      </trkpt>
      <trkpt lat="49.18404" lon="6.94852">
        <ele>337</ele>
        <time>2011-09-25T06:29:15Z</time>
      </trkpt>
      <trkpt lat="49.18404" lon="6.9485">
        <ele>337</ele>
        <time>2011-09-25T06:29:16Z</time>
      </trkpt>
      <trkpt lat="49.18404" lon="6.94847">
        <ele>337</ele>
        <time>2011-09-25T06:29:18Z</time>
      </trkpt>
      <trkpt lat="49.18404" lon="6.94844">
        <ele>337</ele>
        <time>2011-09-25T06:29:20Z</time>
      </trkpt>
      <trkpt lat="49.18404" lon="6.94842">
        <ele>337</ele>
        <time>2011-09-25T06:29:22Z</time>
      </trkpt>
      <trkpt lat="49.18404" lon="6.94839">
        <ele>338</ele>
        <time>2011-09-25T06:29:24Z</time>
      </trkpt>
      <trkpt lat="49.18403" lon="6.94837">
        <ele>338</ele>
        <time>2011-09-25T06:29:25Z</time>
      </trkpt>
      <trkpt lat="49.18403" lon="6.94835">
        <ele>338</ele>
        <time>2011-09-25T06:29:27Z</time>
      </trkpt>
      <trkpt lat="49.18401" lon="6.94833">
        <ele>339</ele>
        <time>2011-09-25T06:29:29Z</time>
      </trkpt>
      <trkpt lat="49.18399" lon="6.9483">
        <ele>339</ele>
        <time>2011-09-25T06:29:32Z</time>
      </trkpt>
      <trkpt lat="49.18398" lon="6.94828">
        <ele>339</ele>
        <time>2011-09-25T06:29:34Z</time>
      </trkpt>
      <trkpt lat="49.18397" lon="6.94827">
        <ele>340</ele>
        <time>2011-09-25T06:29:36Z</time>
      </trkpt>
      <trkpt lat="49.18396" lon="6.94826">
        <ele>341</ele>
        <time>2011-09-25T06:29:39Z</time>
      </trkpt>
      <trkpt lat="49.18394" lon="6.94825">
        <ele>342</ele>
        <time>2011-09-25T06:29:41Z</time>
      </trkpt>
      <trkpt lat="49.18392" lon="6.94825">
        <ele>342</ele>
        <time>2011-09-25T06:29:42Z</time>
      </trkpt>
      <trkpt lat="49.18391" lon="6.94823">
        <ele>342</ele>
        <time>2011-09-25T06:29:43Z</time>
      </trkpt>
      <trkpt lat="49.1839" lon="6.94822">
        <ele>343</ele>
        <time>2011-09-25T06:29:44Z</time>
      </trkpt>
      <trkpt lat="49.18389" lon="6.94819">
        <ele>343</ele>
        <time>2011-09-25T06:29:46Z</time>
      </trkpt>
      <trkpt lat="49.18388" lon="6.94818">
        <ele>343</ele>
        <time>2011-09-25T06:29:47Z</time>
      </trkpt>
      <trkpt lat="49.18388" lon="6.94815">
        <ele>343</ele>
        <time>2011-09-25T06:29:49Z</time>
      </trkpt>
      <trkpt lat="49.18386" lon="6.94814">
        <ele>343</ele>
        <time>2011-09-25T06:29:50Z</time>
      </trkpt>
      <trkpt lat="49.18385" lon="6.94812">
        <ele>344</ele>
        <time>2011-09-25T06:29:52Z</time>
      </trkpt>
      <trkpt lat="49.18384" lon="6.94809">
        <ele>344</ele>
        <time>2011-09-25T06:29:54Z</time>
      </trkpt>
      <trkpt lat="49.18384" lon="6.94808">
        <ele>344</ele>
        <time>2011-09-25T06:29:55Z</time>
      </trkpt>
      <trkpt lat="49.18383" lon="6.94805">
        <ele>344</ele>
        <time>2011-09-25T06:29:57Z</time>
      </trkpt>
      <trkpt lat="49.18382" lon="6.94803">
        <ele>344</ele>
        <time>2011-09-25T06:29:58Z</time>
      </trkpt>
      <trkpt lat="49.1838" lon="6.94801">
        <ele>344</ele>
        <time>2011-09-25T06:30:00Z</time>
      </trkpt>
      <trkpt lat="49.18379" lon="6.94803">
        <ele>344</ele>
        <time>2011-09-25T06:30:02Z</time>
      </trkpt>
      <trkpt lat="49.18377" lon="6.94805">
        <ele>345</ele>
        <time>2011-09-25T06:30:04Z</time>
      </trkpt>
      <trkpt lat="49.18378" lon="6.94803">
        <ele>345</ele>
        <time>2011-09-25T06:30:11Z</time>
      </trkpt>
      <trkpt lat="49.18378" lon="6.94801">
        <ele>345</ele>
        <time>2011-09-25T06:30:14Z</time>
      </trkpt>
      <trkpt lat="49.18379" lon="6.94799">
        <ele>345</ele>
        <time>2011-09-25T06:30:18Z</time>
      </trkpt>
      <trkpt lat="49.1838" lon="6.94798">
        <ele>345</ele>
        <time>2011-09-25T06:30:26Z</time>
      </trkpt>
      <trkpt lat="49.18379" lon="6.948">
        <ele>345</ele>
        <time>2011-09-25T06:30:28Z</time>
      </trkpt>
      <trkpt lat="49.18378" lon="6.94801">
        <ele>345</ele>
        <time>2011-09-25T06:30:30Z</time>
      </trkpt>
      <trkpt lat="49.18376" lon="6.94801">
        <ele>345</ele>
        <time>2011-09-25T06:30:31Z</time>
      </trkpt>
      <trkpt lat="49.18375" lon="6.94802">
        <ele>345</ele>
        <time>2011-09-25T06:30:35Z</time>
      </trkpt>
      <trkpt lat="49.18373" lon="6.94804">
        <ele>345</ele>
        <time>2011-09-25T06:30:37Z</time>
      </trkpt>
      <trkpt lat="49.18375" lon="6.94804">
        <ele>347</ele>
        <time>2011-09-25T06:30:40Z</time>
      </trkpt>
      <trkpt lat="49.18375" lon="6.94802">
        <ele>348</ele>
        <time>2011-09-25T06:30:42Z</time>
      </trkpt>
      <trkpt lat="49.18377" lon="6.948">
        <ele>348</ele>
        <time>2011-09-25T06:30:44Z</time>
      </trkpt>
      <trkpt lat="49.18377" lon="6.94798">
        <ele>348</ele>
        <time>2011-09-25T06:30:47Z</time>
      </trkpt>
      <trkpt lat="49.18375" lon="6.94797">
        <ele>348</ele>
        <time>2011-09-25T06:30:49Z</time>
      </trkpt>
      <trkpt lat="49.18374" lon="6.94798">
        <ele>348</ele>
        <time>2011-09-25T06:30:51Z</time>
      </trkpt>
      <trkpt lat="49.18371" lon="6.94797">
        <ele>348</ele>
        <time>2011-09-25T06:30:54Z</time>
      </trkpt>
      <trkpt lat="49.18368" lon="6.94797">
        <ele>348</ele>
        <time>2011-09-25T06:30:55Z</time>
      </trkpt>
      <trkpt lat="49.18366" lon="6.94796">
        <ele>348</ele>
        <time>2011-09-25T06:30:57Z</time>
      </trkpt>
      <trkpt lat="49.18365" lon="6.94794">
        <ele>348</ele>
        <time>2011-09-25T06:30:57Z</time>
      </trkpt>
      <trkpt lat="49.18364" lon="6.94792">
        <ele>348</ele>
        <time>2011-09-25T06:30:58Z</time>
      </trkpt>
      <trkpt lat="49.18362" lon="6.94789">
        <ele>348</ele>
        <time>2011-09-25T06:30:59Z</time>
      </trkpt>
      <trkpt lat="49.18361" lon="6.94787">
        <ele>348</ele>
        <time>2011-09-25T06:31:00Z</time>
      </trkpt>
      <trkpt lat="49.1836" lon="6.94786">
        <ele>349</ele>
        <time>2011-09-25T06:31:01Z</time>
      </trkpt>
      <trkpt lat="49.18359" lon="6.94786">
        <ele>351</ele>
        <time>2011-09-25T06:31:03Z</time>
      </trkpt>
      <trkpt lat="49.18357" lon="6.94785">
        <ele>352</ele>
        <time>2011-09-25T06:31:04Z</time>
      </trkpt>
      <trkpt lat="49.18354" lon="6.94782">
        <ele>352</ele>
        <time>2011-09-25T06:31:06Z</time>
      </trkpt>
      <trkpt lat="49.18353" lon="6.94781">
        <ele>352</ele>
        <time>2011-09-25T06:31:07Z</time>
      </trkpt>
      <trkpt lat="49.18352" lon="6.94779">
        <ele>352</ele>
        <time>2011-09-25T06:31:08Z</time>
      </trkpt>
      <trkpt lat="49.18351" lon="6.94778">
        <ele>352</ele>
        <time>2011-09-25T06:31:09Z</time>
      </trkpt>
      <trkpt lat="49.1835" lon="6.94777">
        <ele>352</ele>
        <time>2011-09-25T06:31:10Z</time>
      </trkpt>
      <trkpt lat="49.18348" lon="6.94775">
        <ele>352</ele>
        <time>2011-09-25T06:31:12Z</time>
      </trkpt>
      <trkpt lat="49.18347" lon="6.94774">
        <ele>352</ele>
        <time>2011-09-25T06:31:13Z</time>
      </trkpt>
      <trkpt lat="49.18345" lon="6.94772">
        <ele>352</ele>
        <time>2011-09-25T06:31:16Z</time>
      </trkpt>
      <trkpt lat="49.18343" lon="6.9477">
        <ele>352</ele>
        <time>2011-09-25T06:31:18Z</time>
      </trkpt>
      <trkpt lat="49.18341" lon="6.94768">
        <ele>352</ele>
        <time>2011-09-25T06:31:20Z</time>
      </trkpt>
      <trkpt lat="49.18339" lon="6.94766">
        <ele>352</ele>
        <time>2011-09-25T06:31:22Z</time>
      </trkpt>
      <trkpt lat="49.18338" lon="6.94763">
        <ele>352</ele>
        <time>2011-09-25T06:31:24Z</time>
      </trkpt>
      <trkpt lat="49.18337" lon="6.9476">
        <ele>352</ele>
        <time>2011-09-25T06:31:26Z</time>
      </trkpt>
      <trkpt lat="49.18337" lon="6.94758">
        <ele>352</ele>
        <time>2011-09-25T06:31:28Z</time>
      </trkpt>
      <trkpt lat="49.18336" lon="6.94756">
        <ele>352</ele>
        <time>2011-09-25T06:31:30Z</time>
      </trkpt>
      <trkpt lat="49.18333" lon="6.94754">
        <ele>352</ele>
        <time>2011-09-25T06:31:32Z</time>
      </trkpt>
      <trkpt lat="49.18332" lon="6.94752">
        <ele>353</ele>
        <time>2011-09-25T06:31:34Z</time>
      </trkpt>
      <trkpt lat="49.18329" lon="6.94747">
        <ele>354</ele>
        <time>2011-09-25T06:31:36Z</time>
      </trkpt>
      <trkpt lat="49.18328" lon="6.94745">
        <ele>354</ele>
        <time>2011-09-25T06:31:37Z</time>
      </trkpt>
      <trkpt lat="49.18327" lon="6.94744">
        <ele>354</ele>
        <time>2011-09-25T06:31:38Z</time>
      </trkpt>
      <trkpt lat="49.18326" lon="6.94742">
        <ele>354</ele>
        <time>2011-09-25T06:31:40Z</time>
      </trkpt>
      <trkpt lat="49.18325" lon="6.94741">
        <ele>354</ele>
        <time>2011-09-25T06:31:41Z</time>
      </trkpt>
      <trkpt lat="49.18322" lon="6.94739">
        <ele>354</ele>
        <time>2011-09-25T06:31:43Z</time>
      </trkpt>
      <trkpt lat="49.18321" lon="6.94737">
        <ele>354</ele>
        <time>2011-09-25T06:31:44Z</time>
      </trkpt>
      <trkpt lat="49.18319" lon="6.94736">
        <ele>354</ele>
        <time>2011-09-25T06:31:45Z</time>
      </trkpt>
      <trkpt lat="49.18318" lon="6.94736">
        <ele>354</ele>
        <time>2011-09-25T06:31:46Z</time>
      </trkpt>
      <trkpt lat="49.18317" lon="6.94734">
        <ele>354</ele>
        <time>2011-09-25T06:31:48Z</time>
      </trkpt>
      <trkpt lat="49.18315" lon="6.94732">
        <ele>354</ele>
        <time>2011-09-25T06:31:50Z</time>
      </trkpt>
      <trkpt lat="49.18313" lon="6.94732">
        <ele>354</ele>
        <time>2011-09-25T06:31:51Z</time>
      </trkpt>
      <trkpt lat="49.18312" lon="6.94731">
        <ele>354</ele>
        <time>2011-09-25T06:31:52Z</time>
      </trkpt>
      <trkpt lat="49.18311" lon="6.94729">
        <ele>354</ele>
        <time>2011-09-25T06:31:53Z</time>
      </trkpt>
      <trkpt lat="49.18309" lon="6.94727">
        <ele>354</ele>
        <time>2011-09-25T06:31:55Z</time>
      </trkpt>
      <trkpt lat="49.18308" lon="6.94727">
        <ele>354</ele>
        <time>2011-09-25T06:31:56Z</time>
      </trkpt>
      <trkpt lat="49.18306" lon="6.94725">
        <ele>354</ele>
        <time>2011-09-25T06:31:58Z</time>
      </trkpt>
      <trkpt lat="49.18304" lon="6.94724">
        <ele>354</ele>
        <time>2011-09-25T06:31:59Z</time>
      </trkpt>
      <trkpt lat="49.18302" lon="6.94722">
        <ele>354</ele>
        <time>2011-09-25T06:32:01Z</time>
      </trkpt>
      <trkpt lat="49.183" lon="6.9472">
        <ele>354</ele>
        <time>2011-09-25T06:32:03Z</time>
      </trkpt>
      <trkpt lat="49.18298" lon="6.94719">
        <ele>353</ele>
        <time>2011-09-25T06:32:05Z</time>
      </trkpt>
      <trkpt lat="49.18297" lon="6.94719">
        <ele>353</ele>
        <time>2011-09-25T06:32:06Z</time>
      </trkpt>
      <trkpt lat="49.18295" lon="6.94719">
        <ele>353</ele>
        <time>2011-09-25T06:32:07Z</time>
      </trkpt>
      <trkpt lat="49.18293" lon="6.94719">
        <ele>353</ele>
        <time>2011-09-25T06:32:08Z</time>
      </trkpt>
      <trkpt lat="49.18292" lon="6.94718">
        <ele>353</ele>
        <time>2011-09-25T06:32:09Z</time>
      </trkpt>
      <trkpt lat="49.18291" lon="6.94718">
        <ele>353</ele>
        <time>2011-09-25T06:32:10Z</time>
      </trkpt>
      <trkpt lat="49.18288" lon="6.94715">
        <ele>352</ele>
        <time>2011-09-25T06:32:12Z</time>
      </trkpt>
      <trkpt lat="49.18286" lon="6.94713">
        <ele>351</ele>
        <time>2011-09-25T06:32:13Z</time>
      </trkpt>
      <trkpt lat="49.18285" lon="6.94712">
        <ele>351</ele>
        <time>2011-09-25T06:32:14Z</time>
      </trkpt>
      <trkpt lat="49.18283" lon="6.94711">
        <ele>351</ele>
        <time>2011-09-25T06:32:15Z</time>
      </trkpt>
      <trkpt lat="49.18282" lon="6.94711">
        <ele>351</ele>
        <time>2011-09-25T06:32:16Z</time>
      </trkpt>
      <trkpt lat="49.18279" lon="6.94711">
        <ele>351</ele>
        <time>2011-09-25T06:32:17Z</time>
      </trkpt>
      <trkpt lat="49.18277" lon="6.94711">
        <ele>351</ele>
        <time>2011-09-25T06:32:18Z</time>
      </trkpt>
      <trkpt lat="49.18276" lon="6.94709">
        <ele>351</ele>
        <time>2011-09-25T06:32:19Z</time>
      </trkpt>
      <trkpt lat="49.18275" lon="6.94708">
        <ele>351</ele>
        <time>2011-09-25T06:32:20Z</time>
      </trkpt>
      <trkpt lat="49.18273" lon="6.94707">
        <ele>351</ele>
        <time>2011-09-25T06:32:21Z</time>
      </trkpt>
      <trkpt lat="49.18272" lon="6.94706">
        <ele>351</ele>
        <time>2011-09-25T06:32:22Z</time>
      </trkpt>
      <trkpt lat="49.18271" lon="6.94705">
        <ele>351</ele>
        <time>2011-09-25T06:32:23Z</time>
      </trkpt>
      <trkpt lat="49.1827" lon="6.94703">
        <ele>351</ele>
        <time>2011-09-25T06:32:25Z</time>
      </trkpt>
      <trkpt lat="49.18269" lon="6.94702">
        <ele>351</ele>
        <time>2011-09-25T06:32:26Z</time>
      </trkpt>
      <trkpt lat="49.18268" lon="6.94702">
        <ele>351</ele>
        <time>2011-09-25T06:32:27Z</time>
      </trkpt>
      <trkpt lat="49.18267" lon="6.94701">
        <ele>350</ele>
        <time>2011-09-25T06:32:28Z</time>
      </trkpt>
      <trkpt lat="49.18265" lon="6.94699">
        <ele>349</ele>
        <time>2011-09-25T06:32:29Z</time>
      </trkpt>
      <trkpt lat="49.18263" lon="6.94698">
        <ele>349</ele>
        <time>2011-09-25T06:32:30Z</time>
      </trkpt>
      <trkpt lat="49.18262" lon="6.94696">
        <ele>349</ele>
        <time>2011-09-25T06:32:31Z</time>
      </trkpt>
      <trkpt lat="49.18261" lon="6.94695">
        <ele>349</ele>
        <time>2011-09-25T06:32:32Z</time>
      </trkpt>
      <trkpt lat="49.1826" lon="6.94693">
        <ele>349</ele>
        <time>2011-09-25T06:32:34Z</time>
      </trkpt>
      <trkpt lat="49.18258" lon="6.94691">
        <ele>348</ele>
        <time>2011-09-25T06:32:36Z</time>
      </trkpt>
      <trkpt lat="49.18256" lon="6.9469">
        <ele>347</ele>
        <time>2011-09-25T06:32:38Z</time>
      </trkpt>
      <trkpt lat="49.18255" lon="6.9469">
        <ele>346</ele>
        <time>2011-09-25T06:32:39Z</time>
      </trkpt>
      <trkpt lat="49.18254" lon="6.94689">
        <ele>346</ele>
        <time>2011-09-25T06:32:40Z</time>
      </trkpt>
      <trkpt lat="49.18252" lon="6.94687">
        <ele>346</ele>
        <time>2011-09-25T06:32:41Z</time>
      </trkpt>
      <trkpt lat="49.18251" lon="6.94687">
        <ele>346</ele>
        <time>2011-09-25T06:32:42Z</time>
      </trkpt>
      <trkpt lat="49.18249" lon="6.94686">
        <ele>346</ele>
        <time>2011-09-25T06:32:43Z</time>
      </trkpt>
      <trkpt lat="49.18248" lon="6.94685">
        <ele>346</ele>
        <time>2011-09-25T06:32:44Z</time>
      </trkpt>
      <trkpt lat="49.18246" lon="6.94684">
        <ele>346</ele>
        <time>2011-09-25T06:32:45Z</time>
      </trkpt>
      <trkpt lat="49.18245" lon="6.94682">
        <ele>346</ele>
        <time>2011-09-25T06:32:47Z</time>
      </trkpt>
      <trkpt lat="49.18242" lon="6.9468">
        <ele>346</ele>
        <time>2011-09-25T06:32:49Z</time>
      </trkpt>
      <trkpt lat="49.1824" lon="6.94677">
        <ele>346</ele>
        <time>2011-09-25T06:32:51Z</time>
      </trkpt>
      <trkpt lat="49.18238" lon="6.94674">
        <ele>346</ele>
        <time>2011-09-25T06:32:53Z</time>
      </trkpt>
      <trkpt lat="49.18237" lon="6.94672">
        <ele>346</ele>
        <time>2011-09-25T06:32:54Z</time>
      </trkpt>
      <trkpt lat="49.18235" lon="6.9467">
        <ele>346</ele>
        <time>2011-09-25T06:32:55Z</time>
      </trkpt>
      <trkpt lat="49.18234" lon="6.94668">
        <ele>346</ele>
        <time>2011-09-25T06:32:56Z</time>
      </trkpt>
      <trkpt lat="49.18233" lon="6.94667">
        <ele>347</ele>
        <time>2011-09-25T06:32:57Z</time>
      </trkpt>
      <trkpt lat="49.18232" lon="6.94665">
        <ele>347</ele>
        <time>2011-09-25T06:32:59Z</time>
      </trkpt>
      <trkpt lat="49.1823" lon="6.94662">
        <ele>347</ele>
        <time>2011-09-25T06:33:02Z</time>
      </trkpt>
      <trkpt lat="49.18228" lon="6.94659">
        <ele>347</ele>
        <time>2011-09-25T06:33:04Z</time>
      </trkpt>
      <trkpt lat="49.18227" lon="6.94657">
        <ele>347</ele>
        <time>2011-09-25T06:33:06Z</time>
      </trkpt>
      <trkpt lat="49.18225" lon="6.94655">
        <ele>347</ele>
        <time>2011-09-25T06:33:08Z</time>
      </trkpt>
      <trkpt lat="49.18224" lon="6.94654">
        <ele>347</ele>
        <time>2011-09-25T06:33:09Z</time>
      </trkpt>
      <trkpt lat="49.18222" lon="6.94652">
        <ele>347</ele>
        <time>2011-09-25T06:33:10Z</time>
      </trkpt>
      <trkpt lat="49.18221" lon="6.9465">
        <ele>347</ele>
        <time>2011-09-25T06:33:11Z</time>
      </trkpt>
      <trkpt lat="49.1822" lon="6.94649">
        <ele>347</ele>
        <time>2011-09-25T06:33:12Z</time>
      </trkpt>
      <trkpt lat="49.18219" lon="6.94647">
        <ele>347</ele>
        <time>2011-09-25T06:33:13Z</time>
      </trkpt>
      <trkpt lat="49.18218" lon="6.94644">
        <ele>347</ele>
        <time>2011-09-25T06:33:15Z</time>
      </trkpt>
      <trkpt lat="49.18216" lon="6.94641">
        <ele>347</ele>
        <time>2011-09-25T06:33:17Z</time>
      </trkpt>
      <trkpt lat="49.18215" lon="6.94639">
        <ele>347</ele>
        <time>2011-09-25T06:33:19Z</time>
      </trkpt>
      <trkpt lat="49.18213" lon="6.94638">
        <ele>347</ele>
        <time>2011-09-25T06:33:20Z</time>
      </trkpt>
      <trkpt lat="49.18211" lon="6.94636">
        <ele>346</ele>
        <time>2011-09-25T06:33:22Z</time>
      </trkpt>
      <trkpt lat="49.1821" lon="6.94633">
        <ele>346</ele>
        <time>2011-09-25T06:33:24Z</time>
      </trkpt>
      <trkpt lat="49.18208" lon="6.94631">
        <ele>346</ele>
        <time>2011-09-25T06:33:26Z</time>
      </trkpt>
      <trkpt lat="49.18206" lon="6.94629">
        <ele>346</ele>
        <time>2011-09-25T06:33:27Z</time>
      </trkpt>
      <trkpt lat="49.18204" lon="6.94628">
        <ele>346</ele>
        <time>2011-09-25T06:33:28Z</time>
      </trkpt>
      <trkpt lat="49.18203" lon="6.94626">
        <ele>345</ele>
        <time>2011-09-25T06:33:30Z</time>
      </trkpt>
      <trkpt lat="49.18202" lon="6.94624">
        <ele>345</ele>
        <time>2011-09-25T06:33:31Z</time>
      </trkpt>
      <trkpt lat="49.182" lon="6.94622">
        <ele>345</ele>
        <time>2011-09-25T06:33:33Z</time>
      </trkpt>
      <trkpt lat="49.18198" lon="6.94619">
        <ele>344</ele>
        <time>2011-09-25T06:33:35Z</time>
      </trkpt>
      <trkpt lat="49.18197" lon="6.94617">
        <ele>344</ele>
        <time>2011-09-25T06:33:37Z</time>
      </trkpt>
      <trkpt lat="49.18195" lon="6.94614">
        <ele>344</ele>
        <time>2011-09-25T06:33:39Z</time>
      </trkpt>
      <trkpt lat="49.18194" lon="6.94613">
        <ele>344</ele>
        <time>2011-09-25T06:33:40Z</time>
      </trkpt>
      <trkpt lat="49.18193" lon="6.9461">
        <ele>344</ele>
        <time>2011-09-25T06:33:42Z</time>
      </trkpt>
      <trkpt lat="49.18191" lon="6.94608">
        <ele>343</ele>
        <time>2011-09-25T06:33:44Z</time>
      </trkpt>
      <trkpt lat="49.18189" lon="6.94605">
        <ele>343</ele>
        <time>2011-09-25T06:33:46Z</time>
      </trkpt>
      <trkpt lat="49.18188" lon="6.94603">
        <ele>343</ele>
        <time>2011-09-25T06:33:47Z</time>
      </trkpt>
      <trkpt lat="49.18187" lon="6.94601">
        <ele>343</ele>
        <time>2011-09-25T06:33:48Z</time>
      </trkpt>
      <trkpt lat="49.18185" lon="6.94598">
        <ele>343</ele>
        <time>2011-09-25T06:33:50Z</time>
      </trkpt>
      <trkpt lat="49.18184" lon="6.94596">
        <ele>343</ele>
        <time>2011-09-25T06:33:52Z</time>
      </trkpt>
      <trkpt lat="49.18182" lon="6.94593">
        <ele>343</ele>
        <time>2011-09-25T06:33:54Z</time>
      </trkpt>
      <trkpt lat="49.18181" lon="6.94591">
        <ele>343</ele>
        <time>2011-09-25T06:33:55Z</time>
      </trkpt>
      <trkpt lat="49.18181" lon="6.94589">
        <ele>342</ele>
        <time>2011-09-25T06:33:56Z</time>
      </trkpt>
      <trkpt lat="49.18181" lon="6.94587">
        <ele>342</ele>
        <time>2011-09-25T06:33:57Z</time>
      </trkpt>
      <trkpt lat="49.1818" lon="6.94584">
        <ele>342</ele>
        <time>2011-09-25T06:33:59Z</time>
      </trkpt>
      <trkpt lat="49.18181" lon="6.94582">
        <ele>341</ele>
        <time>2011-09-25T06:34:01Z</time>
      </trkpt>
      <trkpt lat="49.18182" lon="6.94579">
        <ele>341</ele>
        <time>2011-09-25T06:34:03Z</time>
      </trkpt>
      <trkpt lat="49.18183" lon="6.94578">
        <ele>341</ele>
        <time>2011-09-25T06:34:05Z</time>
      </trkpt>
      <trkpt lat="49.18185" lon="6.94576">
        <ele>340</ele>
        <time>2011-09-25T06:34:07Z</time>
      </trkpt>
      <trkpt lat="49.18186" lon="6.94574">
        <ele>340</ele>
        <time>2011-09-25T06:34:09Z</time>
      </trkpt>
      <trkpt lat="49.18187" lon="6.94572">
        <ele>340</ele>
        <time>2011-09-25T06:34:10Z</time>
      </trkpt>
      <trkpt lat="49.18188" lon="6.94569">
        <ele>340</ele>
        <time>2011-09-25T06:34:12Z</time>
      </trkpt>
      <trkpt lat="49.1819" lon="6.94567">
        <ele>340</ele>
        <time>2011-09-25T06:34:14Z</time>
      </trkpt>
      <trkpt lat="49.18192" lon="6.94565">
        <ele>340</ele>
        <time>2011-09-25T06:34:16Z</time>
      </trkpt>
      <trkpt lat="49.18193" lon="6.94563">
        <ele>340</ele>
        <time>2011-09-25T06:34:17Z</time>
      </trkpt>
      <trkpt lat="49.18195" lon="6.9456">
        <ele>340</ele>
        <time>2011-09-25T06:34:19Z</time>
      </trkpt>
      <trkpt lat="49.18197" lon="6.94558">
        <ele>340</ele>
        <time>2011-09-25T06:34:21Z</time>
      </trkpt>
      <trkpt lat="49.18199" lon="6.94555">
        <ele>340</ele>
        <time>2011-09-25T06:34:23Z</time>
      </trkpt>
      <trkpt lat="49.182" lon="6.94553">
        <ele>340</ele>
        <time>2011-09-25T06:34:24Z</time>
      </trkpt>
      <trkpt lat="49.18201" lon="6.94552">
        <ele>340</ele>
        <time>2011-09-25T06:34:25Z</time>
      </trkpt>
      <trkpt lat="49.18202" lon="6.94551">
        <ele>340</ele>
        <time>2011-09-25T06:34:26Z</time>
      </trkpt>
      <trkpt lat="49.18204" lon="6.94549">
        <ele>340</ele>
        <time>2011-09-25T06:34:27Z</time>
      </trkpt>
      <trkpt lat="49.18204" lon="6.94548">
        <ele>340</ele>
        <time>2011-09-25T06:34:28Z</time>
      </trkpt>
      <trkpt lat="49.18205" lon="6.94545">
        <ele>340</ele>
        <time>2011-09-25T06:34:30Z</time>
      </trkpt>
      <trkpt lat="49.18208" lon="6.94543">
        <ele>340</ele>
        <time>2011-09-25T06:34:32Z</time>
      </trkpt>
      <trkpt lat="49.18208" lon="6.94541">
        <ele>340</ele>
        <time>2011-09-25T06:34:33Z</time>
      </trkpt>
      <trkpt lat="49.18211" lon="6.94538">
        <ele>340</ele>
        <time>2011-09-25T06:34:35Z</time>
      </trkpt>
      <trkpt lat="49.18213" lon="6.94536">
        <ele>340</ele>
        <time>2011-09-25T06:34:37Z</time>
      </trkpt>
      <trkpt lat="49.18214" lon="6.94534">
        <ele>340</ele>
        <time>2011-09-25T06:34:39Z</time>
      </trkpt>
      <trkpt lat="49.18216" lon="6.94533">
        <ele>340</ele>
        <time>2011-09-25T06:34:40Z</time>
      </trkpt>
      <trkpt lat="49.18217" lon="6.9453">
        <ele>340</ele>
        <time>2011-09-25T06:34:42Z</time>
      </trkpt>
      <trkpt lat="49.18219" lon="6.94527">
        <ele>340</ele>
        <time>2011-09-25T06:34:44Z</time>
      </trkpt>
      <trkpt lat="49.1822" lon="6.94526">
        <ele>340</ele>
        <time>2011-09-25T06:34:45Z</time>
      </trkpt>
      <trkpt lat="49.18221" lon="6.94525">
        <ele>340</ele>
        <time>2011-09-25T06:34:46Z</time>
      </trkpt>
      <trkpt lat="49.18222" lon="6.94524">
        <ele>341</ele>
        <time>2011-09-25T06:34:47Z</time>
      </trkpt>
      <trkpt lat="49.18224" lon="6.94521">
        <ele>341</ele>
        <time>2011-09-25T06:34:49Z</time>
      </trkpt>
      <trkpt lat="49.18225" lon="6.94519">
        <ele>342</ele>
        <time>2011-09-25T06:34:50Z</time>
      </trkpt>
      <trkpt lat="49.18226" lon="6.94517">
        <ele>342</ele>
        <time>2011-09-25T06:34:52Z</time>
      </trkpt>
      <trkpt lat="49.18227" lon="6.94516">
        <ele>342</ele>
        <time>2011-09-25T06:34:53Z</time>
      </trkpt>
      <trkpt lat="49.18229" lon="6.94513">
        <ele>342</ele>
        <time>2011-09-25T06:34:55Z</time>
      </trkpt>
      <trkpt lat="49.1823" lon="6.94511">
        <ele>342</ele>
        <time>2011-09-25T06:34:57Z</time>
      </trkpt>
      <trkpt lat="49.18232" lon="6.94509">
        <ele>342</ele>
        <time>2011-09-25T06:34:59Z</time>
      </trkpt>
      <trkpt lat="49.18234" lon="6.94507">
        <ele>342</ele>
        <time>2011-09-25T06:35:01Z</time>
      </trkpt>
      <trkpt lat="49.18236" lon="6.94504">
        <ele>342</ele>
        <time>2011-09-25T06:35:03Z</time>
      </trkpt>
      <trkpt lat="49.18238" lon="6.94502">
        <ele>342</ele>
        <time>2011-09-25T06:35:05Z</time>
      </trkpt>
      <trkpt lat="49.1824" lon="6.945">
        <ele>342</ele>
        <time>2011-09-25T06:35:07Z</time>
      </trkpt>
      <trkpt lat="49.18242" lon="6.94498">
        <ele>342</ele>
        <time>2011-09-25T06:35:09Z</time>
      </trkpt>
      <trkpt lat="49.18243" lon="6.94495">
        <ele>342</ele>
        <time>2011-09-25T06:35:11Z</time>
      </trkpt>
      <trkpt lat="49.18245" lon="6.94493">
        <ele>342</ele>
        <time>2011-09-25T06:35:13Z</time>
      </trkpt>
      <trkpt lat="49.18246" lon="6.94491">
        <ele>342</ele>
        <time>2011-09-25T06:35:15Z</time>
      </trkpt>
      <trkpt lat="49.18248" lon="6.94489">
        <ele>342</ele>
        <time>2011-09-25T06:35:17Z</time>
      </trkpt>
      <trkpt lat="49.1825" lon="6.94487">
        <ele>342</ele>
        <time>2011-09-25T06:35:19Z</time>
      </trkpt>
      <trkpt lat="49.18252" lon="6.94485">
        <ele>342</ele>
        <time>2011-09-25T06:35:21Z</time>
      </trkpt>
      <trkpt lat="49.18253" lon="6.94484">
        <ele>342</ele>
        <time>2011-09-25T06:35:22Z</time>
      </trkpt>
      <trkpt lat="49.18255" lon="6.94481">
        <ele>342</ele>
        <time>2011-09-25T06:35:24Z</time>
      </trkpt>
      <trkpt lat="49.18256" lon="6.94479">
        <ele>342</ele>
        <time>2011-09-25T06:35:26Z</time>
      </trkpt>
      <trkpt lat="49.18257" lon="6.94478">
        <ele>342</ele>
        <time>2011-09-25T06:35:27Z</time>
      </trkpt>
      <trkpt lat="49.18259" lon="6.94475">
        <ele>342</ele>
        <time>2011-09-25T06:35:29Z</time>
      </trkpt>
      <trkpt lat="49.18261" lon="6.94473">
        <ele>342</ele>
        <time>2011-09-25T06:35:31Z</time>
      </trkpt>
      <trkpt lat="49.18262" lon="6.94471">
        <ele>342</ele>
        <time>2011-09-25T06:35:33Z</time>
      </trkpt>
      <trkpt lat="49.18264" lon="6.94468">
        <ele>342</ele>
        <time>2011-09-25T06:35:35Z</time>
      </trkpt>
      <trkpt lat="49.18266" lon="6.94466">
        <ele>342</ele>
        <time>2011-09-25T06:35:37Z</time>
      </trkpt>
      <trkpt lat="49.18267" lon="6.94463">
        <ele>342</ele>
        <time>2011-09-25T06:35:39Z</time>
      </trkpt>
      <trkpt lat="49.18269" lon="6.94462">
        <ele>342</ele>
        <time>2011-09-25T06:35:40Z</time>
      </trkpt>
      <trkpt lat="49.1827" lon="6.94461">
        <ele>342</ele>
        <time>2011-09-25T06:35:41Z</time>
      </trkpt>
      <trkpt lat="49.18271" lon="6.9446">
        <ele>342</ele>
        <time>2011-09-25T06:35:42Z</time>
      </trkpt>
      <trkpt lat="49.18272" lon="6.94458">
        <ele>342</ele>
        <time>2011-09-25T06:35:43Z</time>
      </trkpt>
      <trkpt lat="49.18273" lon="6.94457">
        <ele>342</ele>
        <time>2011-09-25T06:35:44Z</time>
      </trkpt>
      <trkpt lat="49.18275" lon="6.94455">
        <ele>342</ele>
        <time>2011-09-25T06:35:46Z</time>
      </trkpt>
      <trkpt lat="49.18277" lon="6.94454">
        <ele>342</ele>
        <time>2011-09-25T06:35:47Z</time>
      </trkpt>
      <trkpt lat="49.18279" lon="6.94452">
        <ele>342</ele>
        <time>2011-09-25T06:35:49Z</time>
      </trkpt>
      <trkpt lat="49.1828" lon="6.94451">
        <ele>342</ele>
        <time>2011-09-25T06:35:50Z</time>
      </trkpt>
      <trkpt lat="49.18281" lon="6.9445">
        <ele>342</ele>
        <time>2011-09-25T06:35:51Z</time>
      </trkpt>
      <trkpt lat="49.18282" lon="6.94448">
        <ele>342</ele>
        <time>2011-09-25T06:35:52Z</time>
      </trkpt>
      <trkpt lat="49.18284" lon="6.94446">
        <ele>342</ele>
        <time>2011-09-25T06:35:54Z</time>
      </trkpt>
      <trkpt lat="49.18286" lon="6.94444">
        <ele>342</ele>
        <time>2011-09-25T06:35:56Z</time>
      </trkpt>
      <trkpt lat="49.18287" lon="6.94443">
        <ele>342</ele>
        <time>2011-09-25T06:35:57Z</time>
      </trkpt>
      <trkpt lat="49.1829" lon="6.94441">
        <ele>342</ele>
        <time>2011-09-25T06:35:59Z</time>
      </trkpt>
      <trkpt lat="49.18291" lon="6.94439">
        <ele>342</ele>
        <time>2011-09-25T06:36:00Z</time>
      </trkpt>
      <trkpt lat="49.18292" lon="6.94438">
        <ele>342</ele>
        <time>2011-09-25T06:36:01Z</time>
      </trkpt>
      <trkpt lat="49.18294" lon="6.94435">
        <ele>342</ele>
        <time>2011-09-25T06:36:03Z</time>
      </trkpt>
      <trkpt lat="49.18296" lon="6.94432">
        <ele>342</ele>
        <time>2011-09-25T06:36:05Z</time>
      </trkpt>
      <trkpt lat="49.18298" lon="6.94429">
        <ele>342</ele>
        <time>2011-09-25T06:36:07Z</time>
      </trkpt>
      <trkpt lat="49.18299" lon="6.94427">
        <ele>342</ele>
        <time>2011-09-25T06:36:09Z</time>
      </trkpt>
      <trkpt lat="49.183" lon="6.94424">
        <ele>342</ele>
        <time>2011-09-25T06:36:10Z</time>
      </trkpt>
      <trkpt lat="49.18302" lon="6.94422">
        <ele>342</ele>
        <time>2011-09-25T06:36:12Z</time>
      </trkpt>
      <trkpt lat="49.18304" lon="6.94419">
        <ele>342</ele>
        <time>2011-09-25T06:36:14Z</time>
      </trkpt>
      <trkpt lat="49.18304" lon="6.94417">
        <ele>342</ele>
        <time>2011-09-25T06:36:16Z</time>
      </trkpt>
      <trkpt lat="49.18304" lon="6.94416">
        <ele>342</ele>
        <time>2011-09-25T06:36:19Z</time>
      </trkpt>
      <trkpt lat="49.18306" lon="6.94414">
        <ele>342</ele>
        <time>2011-09-25T06:36:21Z</time>
      </trkpt>
      <trkpt lat="49.18308" lon="6.94412">
        <ele>342</ele>
        <time>2011-09-25T06:36:23Z</time>
      </trkpt>
      <trkpt lat="49.18309" lon="6.9441">
        <ele>342</ele>
        <time>2011-09-25T06:36:24Z</time>
      </trkpt>
      <trkpt lat="49.1831" lon="6.9441">
        <ele>342</ele>
        <time>2011-09-25T06:36:25Z</time>
      </trkpt>
      <trkpt lat="49.18311" lon="6.94409">
        <ele>342</ele>
        <time>2011-09-25T06:36:26Z</time>
      </trkpt>
      <trkpt lat="49.18312" lon="6.94408">
        <ele>342</ele>
        <time>2011-09-25T06:36:27Z</time>
      </trkpt>
      <trkpt lat="49.18314" lon="6.94406">
        <ele>342</ele>
        <time>2011-09-25T06:36:29Z</time>
      </trkpt>
      <trkpt lat="49.18317" lon="6.94404">
        <ele>342</ele>
        <time>2011-09-25T06:36:31Z</time>
      </trkpt>
      <trkpt lat="49.18318" lon="6.94402">
        <ele>342</ele>
        <time>2011-09-25T06:36:33Z</time>
      </trkpt>
      <trkpt lat="49.18319" lon="6.94401">
        <ele>342</ele>
        <time>2011-09-25T06:36:34Z</time>
      </trkpt>
      <trkpt lat="49.18321" lon="6.94399">
        <ele>342</ele>
        <time>2011-09-25T06:36:35Z</time>
      </trkpt>
      <trkpt lat="49.18322" lon="6.94397">
        <ele>342</ele>
        <time>2011-09-25T06:36:36Z</time>
      </trkpt>
      <trkpt lat="49.18323" lon="6.94396">
        <ele>342</ele>
        <time>2011-09-25T06:36:37Z</time>
      </trkpt>
      <trkpt lat="49.18325" lon="6.94394">
        <ele>342</ele>
        <time>2011-09-25T06:36:39Z</time>
      </trkpt>
      <trkpt lat="49.18327" lon="6.94392">
        <ele>342</ele>
        <time>2011-09-25T06:36:41Z</time>
      </trkpt>
      <trkpt lat="49.18329" lon="6.94389">
        <ele>342</ele>
        <time>2011-09-25T06:36:43Z</time>
      </trkpt>
      <trkpt lat="49.1833" lon="6.94387">
        <ele>342</ele>
        <time>2011-09-25T06:36:44Z</time>
      </trkpt>
      <trkpt lat="49.18331" lon="6.94386">
        <ele>342</ele>
        <time>2011-09-25T06:36:45Z</time>
      </trkpt>
      <trkpt lat="49.18333" lon="6.94383">
        <ele>342</ele>
        <time>2011-09-25T06:36:47Z</time>
      </trkpt>
      <trkpt lat="49.18334" lon="6.94381">
        <ele>342</ele>
        <time>2011-09-25T06:36:48Z</time>
      </trkpt>
      <trkpt lat="49.18336" lon="6.94378">
        <ele>342</ele>
        <time>2011-09-25T06:36:50Z</time>
      </trkpt>
      <trkpt lat="49.18336" lon="6.94376">
        <ele>342</ele>
        <time>2011-09-25T06:36:51Z</time>
      </trkpt>
      <trkpt lat="49.18338" lon="6.94375">
        <ele>342</ele>
        <time>2011-09-25T06:36:52Z</time>
      </trkpt>
      <trkpt lat="49.18339" lon="6.94373">
        <ele>342</ele>
        <time>2011-09-25T06:36:54Z</time>
      </trkpt>
      <trkpt lat="49.18341" lon="6.9437">
        <ele>342</ele>
        <time>2011-09-25T06:36:56Z</time>
      </trkpt>
      <trkpt lat="49.18342" lon="6.94368">
        <ele>342</ele>
        <time>2011-09-25T06:36:57Z</time>
      </trkpt>
      <trkpt lat="49.18343" lon="6.94367">
        <ele>342</ele>
        <time>2011-09-25T06:36:58Z</time>
      </trkpt>
      <trkpt lat="49.18346" lon="6.94365">
        <ele>342</ele>
        <time>2011-09-25T06:37:00Z</time>
      </trkpt>
      <trkpt lat="49.18347" lon="6.94363">
        <ele>342</ele>
        <time>2011-09-25T06:37:01Z</time>
      </trkpt>
      <trkpt lat="49.18348" lon="6.94361">
        <ele>342</ele>
        <time>2011-09-25T06:37:02Z</time>
      </trkpt>
      <trkpt lat="49.18349" lon="6.9436">
        <ele>342</ele>
        <time>2011-09-25T06:37:03Z</time>
      </trkpt>
      <trkpt lat="49.18351" lon="6.94358">
        <ele>342</ele>
        <time>2011-09-25T06:37:04Z</time>
      </trkpt>
      <trkpt lat="49.18352" lon="6.94357">
        <ele>342</ele>
        <time>2011-09-25T06:37:05Z</time>
      </trkpt>
      <trkpt lat="49.18354" lon="6.94354">
        <ele>342</ele>
        <time>2011-09-25T06:37:07Z</time>
      </trkpt>
      <trkpt lat="49.18355" lon="6.94353">
        <ele>342</ele>
        <time>2011-09-25T06:37:08Z</time>
      </trkpt>
      <trkpt lat="49.18357" lon="6.94351">
        <ele>342</ele>
        <time>2011-09-25T06:37:10Z</time>
      </trkpt>
      <trkpt lat="49.18359" lon="6.94349">
        <ele>342</ele>
        <time>2011-09-25T06:37:11Z</time>
      </trkpt>
      <trkpt lat="49.1836" lon="6.94346">
        <ele>342</ele>
        <time>2011-09-25T06:37:12Z</time>
      </trkpt>
      <trkpt lat="49.18361" lon="6.94344">
        <ele>342</ele>
        <time>2011-09-25T06:37:13Z</time>
      </trkpt>
      <trkpt lat="49.18361" lon="6.94342">
        <ele>342</ele>
        <time>2011-09-25T06:37:14Z</time>
      </trkpt>
      <trkpt lat="49.18362" lon="6.94341">
        <ele>342</ele>
        <time>2011-09-25T06:37:15Z</time>
      </trkpt>
      <trkpt lat="49.18363" lon="6.94338">
        <ele>343</ele>
        <time>2011-09-25T06:37:17Z</time>
      </trkpt>
      <trkpt lat="49.18364" lon="6.94336">
        <ele>343</ele>
        <time>2011-09-25T06:37:18Z</time>
      </trkpt>
      <trkpt lat="49.18364" lon="6.94334">
        <ele>343</ele>
        <time>2011-09-25T06:37:19Z</time>
      </trkpt>
      <trkpt lat="49.18367" lon="6.94331">
        <ele>344</ele>
        <time>2011-09-25T06:37:21Z</time>
      </trkpt>
      <trkpt lat="49.18368" lon="6.94329">
        <ele>344</ele>
        <time>2011-09-25T06:37:22Z</time>
      </trkpt>
      <trkpt lat="49.18369" lon="6.94327">
        <ele>344</ele>
        <time>2011-09-25T06:37:23Z</time>
      </trkpt>
      <trkpt lat="49.1837" lon="6.94326">
        <ele>344</ele>
        <time>2011-09-25T06:37:24Z</time>
      </trkpt>
      <trkpt lat="49.18372" lon="6.94324">
        <ele>344</ele>
        <time>2011-09-25T06:37:26Z</time>
      </trkpt>
      <trkpt lat="49.18373" lon="6.94323">
        <ele>344</ele>
        <time>2011-09-25T06:37:27Z</time>
      </trkpt>
      <trkpt lat="49.18374" lon="6.94322">
        <ele>344</ele>
        <time>2011-09-25T06:37:28Z</time>
      </trkpt>
      <trkpt lat="49.18375" lon="6.9432">
        <ele>344</ele>
        <time>2011-09-25T06:37:29Z</time>
      </trkpt>
      <trkpt lat="49.18376" lon="6.94318">
        <ele>344</ele>
        <time>2011-09-25T06:37:30Z</time>
      </trkpt>
      <trkpt lat="49.18377" lon="6.94316">
        <ele>345</ele>
        <time>2011-09-25T06:37:31Z</time>
      </trkpt>
      <trkpt lat="49.18377" lon="6.94315">
        <ele>345</ele>
        <time>2011-09-25T06:37:32Z</time>
      </trkpt>
      <trkpt lat="49.18378" lon="6.94313">
        <ele>345</ele>
        <time>2011-09-25T06:37:33Z</time>
      </trkpt>
      <trkpt lat="49.1838" lon="6.9431">
        <ele>346</ele>
        <time>2011-09-25T06:37:35Z</time>
      </trkpt>
      <trkpt lat="49.18381" lon="6.94308">
        <ele>347</ele>
        <time>2011-09-25T06:37:36Z</time>
      </trkpt>
      <trkpt lat="49.18382" lon="6.94306">
        <ele>347</ele>
        <time>2011-09-25T06:37:37Z</time>
      </trkpt>
      <trkpt lat="49.18383" lon="6.94305">
        <ele>348</ele>
        <time>2011-09-25T06:37:38Z</time>
      </trkpt>
      <trkpt lat="49.18385" lon="6.94302">
        <ele>348</ele>
        <time>2011-09-25T06:37:40Z</time>
      </trkpt>
      <trkpt lat="49.18387" lon="6.94299">
        <ele>348</ele>
        <time>2011-09-25T06:37:42Z</time>
      </trkpt>
      <trkpt lat="49.18389" lon="6.94297">
        <ele>349</ele>
        <time>2011-09-25T06:37:44Z</time>
      </trkpt>
      <trkpt lat="49.1839" lon="6.94295">
        <ele>349</ele>
        <time>2011-09-25T06:37:45Z</time>
      </trkpt>
      <trkpt lat="49.18392" lon="6.94293">
        <ele>349</ele>
        <time>2011-09-25T06:37:47Z</time>
      </trkpt>
      <trkpt lat="49.18394" lon="6.9429">
        <ele>349</ele>
        <time>2011-09-25T06:37:49Z</time>
      </trkpt>
      <trkpt lat="49.18396" lon="6.94288">
        <ele>349</ele>
        <time>2011-09-25T06:37:51Z</time>
      </trkpt>
      <trkpt lat="49.18398" lon="6.94285">
        <ele>349</ele>
        <time>2011-09-25T06:37:53Z</time>
      </trkpt>
      <trkpt lat="49.18401" lon="6.94283">
        <ele>349</ele>
        <time>2011-09-25T06:37:55Z</time>
      </trkpt>
      <trkpt lat="49.18402" lon="6.9428">
        <ele>349</ele>
        <time>2011-09-25T06:37:57Z</time>
      </trkpt>
      <trkpt lat="49.18404" lon="6.94278">
        <ele>349</ele>
        <time>2011-09-25T06:37:59Z</time>
      </trkpt>
      <trkpt lat="49.18406" lon="6.94275">
        <ele>349</ele>
        <time>2011-09-25T06:38:01Z</time>
      </trkpt>
      <trkpt lat="49.18407" lon="6.94274">
        <ele>349</ele>
        <time>2011-09-25T06:38:02Z</time>
      </trkpt>
      <trkpt lat="49.18409" lon="6.94271">
        <ele>349</ele>
        <time>2011-09-25T06:38:04Z</time>
      </trkpt>
      <trkpt lat="49.18411" lon="6.94269">
        <ele>349</ele>
        <time>2011-09-25T06:38:06Z</time>
      </trkpt>
      <trkpt lat="49.18413" lon="6.94267">
        <ele>349</ele>
        <time>2011-09-25T06:38:08Z</time>
      </trkpt>
      <trkpt lat="49.18415" lon="6.94266">
        <ele>349</ele>
        <time>2011-09-25T06:38:09Z</time>
      </trkpt>
      <trkpt lat="49.18416" lon="6.94263">
        <ele>349</ele>
        <time>2011-09-25T06:38:11Z</time>
      </trkpt>
      <trkpt lat="49.18418" lon="6.9426">
        <ele>349</ele>
        <time>2011-09-25T06:38:13Z</time>
      </trkpt>
      <trkpt lat="49.1842" lon="6.94257">
        <ele>349</ele>
        <time>2011-09-25T06:38:15Z</time>
      </trkpt>
      <trkpt lat="49.18421" lon="6.94256">
        <ele>349</ele>
        <time>2011-09-25T06:38:16Z</time>
      </trkpt>
      <trkpt lat="49.18423" lon="6.94254">
        <ele>349</ele>
        <time>2011-09-25T06:38:18Z</time>
      </trkpt>
      <trkpt lat="49.18425" lon="6.94251">
        <ele>349</ele>
        <time>2011-09-25T06:38:20Z</time>
      </trkpt>
      <trkpt lat="49.18427" lon="6.94248">
        <ele>349</ele>
        <time>2011-09-25T06:38:22Z</time>
      </trkpt>
      <trkpt lat="49.18429" lon="6.94245">
        <ele>349</ele>
        <time>2011-09-25T06:38:24Z</time>
      </trkpt>
      <trkpt lat="49.18431" lon="6.94243">
        <ele>349</ele>
        <time>2011-09-25T06:38:26Z</time>
      </trkpt>
      <trkpt lat="49.18433" lon="6.9424">
        <ele>349</ele>
        <time>2011-09-25T06:38:28Z</time>
      </trkpt>
      <trkpt lat="49.18435" lon="6.94238">
        <ele>350</ele>
        <time>2011-09-25T06:38:30Z</time>
      </trkpt>
      <trkpt lat="49.18437" lon="6.94236">
        <ele>350</ele>
        <time>2011-09-25T06:38:32Z</time>
      </trkpt>
      <trkpt lat="49.18438" lon="6.94234">
        <ele>350</ele>
        <time>2011-09-25T06:38:34Z</time>
      </trkpt>
      <trkpt lat="49.18441" lon="6.94231">
        <ele>350</ele>
        <time>2011-09-25T06:38:36Z</time>
      </trkpt>
      <trkpt lat="49.18443" lon="6.94229">
        <ele>350</ele>
        <time>2011-09-25T06:38:38Z</time>
      </trkpt>
      <trkpt lat="49.18444" lon="6.94228">
        <ele>350</ele>
        <time>2011-09-25T06:38:39Z</time>
      </trkpt>
      <trkpt lat="49.18446" lon="6.94227">
        <ele>350</ele>
        <time>2011-09-25T06:38:41Z</time>
      </trkpt>
      <trkpt lat="49.18448" lon="6.94225">
        <ele>350</ele>
        <time>2011-09-25T06:38:43Z</time>
      </trkpt>
      <trkpt lat="49.18449" lon="6.94224">
        <ele>350</ele>
        <time>2011-09-25T06:38:44Z</time>
      </trkpt>
      <trkpt lat="49.1845" lon="6.94223">
        <ele>350</ele>
        <time>2011-09-25T06:38:45Z</time>
      </trkpt>
      <trkpt lat="49.18451" lon="6.94222">
        <ele>350</ele>
        <time>2011-09-25T06:38:46Z</time>
      </trkpt>
      <trkpt lat="49.18452" lon="6.94221">
        <ele>350</ele>
        <time>2011-09-25T06:38:47Z</time>
      </trkpt>
      <trkpt lat="49.18454" lon="6.94219">
        <ele>350</ele>
        <time>2011-09-25T06:38:49Z</time>
      </trkpt>
      <trkpt lat="49.18456" lon="6.94217">
        <ele>350</ele>
        <time>2011-09-25T06:38:51Z</time>
      </trkpt>
      <trkpt lat="49.18457" lon="6.94215">
        <ele>350</ele>
        <time>2011-09-25T06:38:52Z</time>
      </trkpt>
      <trkpt lat="49.18458" lon="6.94213">
        <ele>350</ele>
        <time>2011-09-25T06:38:53Z</time>
      </trkpt>
      <trkpt lat="49.18459" lon="6.94211">
        <ele>350</ele>
        <time>2011-09-25T06:38:55Z</time>
      </trkpt>
      <trkpt lat="49.18461" lon="6.94209">
        <ele>350</ele>
        <time>2011-09-25T06:38:57Z</time>
      </trkpt>
      <trkpt lat="49.18461" lon="6.94208">
        <ele>351</ele>
        <time>2011-09-25T06:39:00Z</time>
      </trkpt>
      <trkpt lat="49.18462" lon="6.94206">
        <ele>352</ele>
        <time>2011-09-25T06:39:04Z</time>
      </trkpt>
      <trkpt lat="49.18464" lon="6.94206">
        <ele>353</ele>
        <time>2011-09-25T06:39:09Z</time>
      </trkpt>
      <trkpt lat="49.18464" lon="6.94203">
        <ele>353</ele>
        <time>2011-09-25T06:39:11Z</time>
      </trkpt>
      <trkpt lat="49.18465" lon="6.94202">
        <ele>354</ele>
        <time>2011-09-25T06:39:13Z</time>
      </trkpt>
      <trkpt lat="49.18466" lon="6.942">
        <ele>355</ele>
        <time>2011-09-25T06:39:15Z</time>
      </trkpt>
      <trkpt lat="49.18468" lon="6.94199">
        <ele>355</ele>
        <time>2011-09-25T06:39:17Z</time>
      </trkpt>
      <trkpt lat="49.18468" lon="6.94197">
        <ele>355</ele>
        <time>2011-09-25T06:39:19Z</time>
      </trkpt>
      <trkpt lat="49.18469" lon="6.94194">
        <ele>355</ele>
        <time>2011-09-25T06:39:21Z</time>
      </trkpt>
      <trkpt lat="49.1847" lon="6.94192">
        <ele>355</ele>
        <time>2011-09-25T06:39:23Z</time>
      </trkpt>
      <trkpt lat="49.18472" lon="6.94189">
        <ele>355</ele>
        <time>2011-09-25T06:39:25Z</time>
      </trkpt>
      <trkpt lat="49.18474" lon="6.94186">
        <ele>355</ele>
        <time>2011-09-25T06:39:27Z</time>
      </trkpt>
      <trkpt lat="49.18475" lon="6.94184">
        <ele>355</ele>
        <time>2011-09-25T06:39:28Z</time>
      </trkpt>
      <trkpt lat="49.18476" lon="6.94182">
        <ele>355</ele>
        <time>2011-09-25T06:39:30Z</time>
      </trkpt>
      <trkpt lat="49.18478" lon="6.94179">
        <ele>355</ele>
        <time>2011-09-25T06:39:32Z</time>
      </trkpt>
      <trkpt lat="49.18479" lon="6.94177">
        <ele>355</ele>
        <time>2011-09-25T06:39:33Z</time>
      </trkpt>
      <trkpt lat="49.1848" lon="6.94176">
        <ele>355</ele>
        <time>2011-09-25T06:39:34Z</time>
      </trkpt>
      <trkpt lat="49.18482" lon="6.94174">
        <ele>355</ele>
        <time>2011-09-25T06:39:36Z</time>
      </trkpt>
      <trkpt lat="49.18484" lon="6.94171">
        <ele>355</ele>
        <time>2011-09-25T06:39:38Z</time>
      </trkpt>
      <trkpt lat="49.18486" lon="6.94169">
        <ele>355</ele>
        <time>2011-09-25T06:39:40Z</time>
      </trkpt>
      <trkpt lat="49.18488" lon="6.94167">
        <ele>355</ele>
        <time>2011-09-25T06:39:42Z</time>
      </trkpt>
      <trkpt lat="49.18489" lon="6.94164">
        <ele>355</ele>
        <time>2011-09-25T06:39:44Z</time>
      </trkpt>
      <trkpt lat="49.1849" lon="6.94162">
        <ele>355</ele>
        <time>2011-09-25T06:39:45Z</time>
      </trkpt>
      <trkpt lat="49.18492" lon="6.9416">
        <ele>355</ele>
        <time>2011-09-25T06:39:47Z</time>
      </trkpt>
      <trkpt lat="49.18494" lon="6.94158">
        <ele>355</ele>
        <time>2011-09-25T06:39:49Z</time>
      </trkpt>
      <trkpt lat="49.18496" lon="6.94155">
        <ele>355</ele>
        <time>2011-09-25T06:39:51Z</time>
      </trkpt>
      <trkpt lat="49.18497" lon="6.94153">
        <ele>355</ele>
        <time>2011-09-25T06:39:53Z</time>
      </trkpt>
      <trkpt lat="49.18499" lon="6.94151">
        <ele>355</ele>
        <time>2011-09-25T06:39:55Z</time>
      </trkpt>
      <trkpt lat="49.18501" lon="6.94149">
        <ele>355</ele>
        <time>2011-09-25T06:39:57Z</time>
      </trkpt>
      <trkpt lat="49.18503" lon="6.94147">
        <ele>355</ele>
        <time>2011-09-25T06:39:59Z</time>
      </trkpt>
      <trkpt lat="49.18504" lon="6.94145">
        <ele>355</ele>
        <time>2011-09-25T06:40:01Z</time>
      </trkpt>
      <trkpt lat="49.18506" lon="6.94142">
        <ele>355</ele>
        <time>2011-09-25T06:40:03Z</time>
      </trkpt>
      <trkpt lat="49.18508" lon="6.9414">
        <ele>355</ele>
        <time>2011-09-25T06:40:05Z</time>
      </trkpt>
      <trkpt lat="49.1851" lon="6.94137">
        <ele>355</ele>
        <time>2011-09-25T06:40:07Z</time>
      </trkpt>
      <trkpt lat="49.18512" lon="6.94135">
        <ele>355</ele>
        <time>2011-09-25T06:40:09Z</time>
      </trkpt>
      <trkpt lat="49.18513" lon="6.94133">
        <ele>355</ele>
        <time>2011-09-25T06:40:11Z</time>
      </trkpt>
      <trkpt lat="49.18515" lon="6.94131">
        <ele>355</ele>
        <time>2011-09-25T06:40:13Z</time>
      </trkpt>
      <trkpt lat="49.18517" lon="6.94129">
        <ele>355</ele>
        <time>2011-09-25T06:40:14Z</time>
      </trkpt>
      <trkpt lat="49.18518" lon="6.94128">
        <ele>355</ele>
        <time>2011-09-25T06:40:15Z</time>
      </trkpt>
      <trkpt lat="49.1852" lon="6.94126">
        <ele>355</ele>
        <time>2011-09-25T06:40:17Z</time>
      </trkpt>
      <trkpt lat="49.18521" lon="6.94124">
        <ele>355</ele>
        <time>2011-09-25T06:40:19Z</time>
      </trkpt>
      <trkpt lat="49.18523" lon="6.94123">
        <ele>355</ele>
        <time>2011-09-25T06:40:20Z</time>
      </trkpt>
      <trkpt lat="49.18525" lon="6.94121">
        <ele>355</ele>
        <time>2011-09-25T06:40:22Z</time>
      </trkpt>
      <trkpt lat="49.18527" lon="6.94118">
        <ele>355</ele>
        <time>2011-09-25T06:40:24Z</time>
      </trkpt>
      <trkpt lat="49.18528" lon="6.94116">
        <ele>355</ele>
        <time>2011-09-25T06:40:26Z</time>
      </trkpt>
      <trkpt lat="49.18531" lon="6.94114">
        <ele>355</ele>
        <time>2011-09-25T06:40:28Z</time>
      </trkpt>
      <trkpt lat="49.18533" lon="6.94111">
        <ele>355</ele>
        <time>2011-09-25T06:40:30Z</time>
      </trkpt>
      <trkpt lat="49.18534" lon="6.94109">
        <ele>355</ele>
        <time>2011-09-25T06:40:32Z</time>
      </trkpt>
      <trkpt lat="49.18536" lon="6.94106">
        <ele>355</ele>
        <time>2011-09-25T06:40:34Z</time>
      </trkpt>
      <trkpt lat="49.18538" lon="6.94104">
        <ele>355</ele>
        <time>2011-09-25T06:40:36Z</time>
      </trkpt>
      <trkpt lat="49.18539" lon="6.94103">
        <ele>355</ele>
        <time>2011-09-25T06:40:37Z</time>
      </trkpt>
      <trkpt lat="49.18541" lon="6.941">
        <ele>355</ele>
        <time>2011-09-25T06:40:39Z</time>
      </trkpt>
      <trkpt lat="49.18543" lon="6.94098">
        <ele>355</ele>
        <time>2011-09-25T06:40:41Z</time>
      </trkpt>
      <trkpt lat="49.18545" lon="6.94095">
        <ele>355</ele>
        <time>2011-09-25T06:40:43Z</time>
      </trkpt>
      <trkpt lat="49.18546" lon="6.94093">
        <ele>355</ele>
        <time>2011-09-25T06:40:44Z</time>
      </trkpt>
      <trkpt lat="49.18546" lon="6.94092">
        <ele>355</ele>
        <time>2011-09-25T06:40:45Z</time>
      </trkpt>
      <trkpt lat="49.18548" lon="6.94089">
        <ele>355</ele>
        <time>2011-09-25T06:40:47Z</time>
      </trkpt>
      <trkpt lat="49.1855" lon="6.94086">
        <ele>355</ele>
        <time>2011-09-25T06:40:49Z</time>
      </trkpt>
      <trkpt lat="49.18552" lon="6.94083">
        <ele>355</ele>
        <time>2011-09-25T06:40:51Z</time>
      </trkpt>
      <trkpt lat="49.18554" lon="6.9408">
        <ele>355</ele>
        <time>2011-09-25T06:40:53Z</time>
      </trkpt>
      <trkpt lat="49.18556" lon="6.94078">
        <ele>355</ele>
        <time>2011-09-25T06:40:55Z</time>
      </trkpt>
      <trkpt lat="49.18558" lon="6.94075">
        <ele>355</ele>
        <time>2011-09-25T06:40:57Z</time>
      </trkpt>
      <trkpt lat="49.18559" lon="6.94074">
        <ele>355</ele>
        <time>2011-09-25T06:40:58Z</time>
      </trkpt>
      <trkpt lat="49.18561" lon="6.94071">
        <ele>355</ele>
        <time>2011-09-25T06:41:00Z</time>
      </trkpt>
      <trkpt lat="49.18563" lon="6.94068">
        <ele>355</ele>
        <time>2011-09-25T06:41:02Z</time>
      </trkpt>
      <trkpt lat="49.18565" lon="6.94066">
        <ele>355</ele>
        <time>2011-09-25T06:41:04Z</time>
      </trkpt>
      <trkpt lat="49.18567" lon="6.94063">
        <ele>355</ele>
        <time>2011-09-25T06:41:06Z</time>
      </trkpt>
      <trkpt lat="49.18569" lon="6.9406">
        <ele>356</ele>
        <time>2011-09-25T06:41:08Z</time>
      </trkpt>
      <trkpt lat="49.1857" lon="6.94058">
        <ele>356</ele>
        <time>2011-09-25T06:41:10Z</time>
      </trkpt>
      <trkpt lat="49.18573" lon="6.94055">
        <ele>356</ele>
        <time>2011-09-25T06:41:12Z</time>
      </trkpt>
      <trkpt lat="49.18575" lon="6.94052">
        <ele>356</ele>
        <time>2011-09-25T06:41:14Z</time>
      </trkpt>
      <trkpt lat="49.18577" lon="6.94049">
        <ele>356</ele>
        <time>2011-09-25T06:41:16Z</time>
      </trkpt>
      <trkpt lat="49.18579" lon="6.94047">
        <ele>356</ele>
        <time>2011-09-25T06:41:18Z</time>
      </trkpt>
      <trkpt lat="49.1858" lon="6.94044">
        <ele>356</ele>
        <time>2011-09-25T06:41:20Z</time>
      </trkpt>
      <trkpt lat="49.18582" lon="6.94041">
        <ele>356</ele>
        <time>2011-09-25T06:41:22Z</time>
      </trkpt>
      <trkpt lat="49.18584" lon="6.94038">
        <ele>356</ele>
        <time>2011-09-25T06:41:24Z</time>
      </trkpt>
      <trkpt lat="49.18586" lon="6.94037">
        <ele>356</ele>
        <time>2011-09-25T06:41:25Z</time>
      </trkpt>
      <trkpt lat="49.18587" lon="6.94035">
        <ele>356</ele>
        <time>2011-09-25T06:41:27Z</time>
      </trkpt>
      <trkpt lat="49.18588" lon="6.94034">
        <ele>356</ele>
        <time>2011-09-25T06:41:28Z</time>
      </trkpt>
      <trkpt lat="49.1859" lon="6.94031">
        <ele>356</ele>
        <time>2011-09-25T06:41:30Z</time>
      </trkpt>
      <trkpt lat="49.18592" lon="6.9403">
        <ele>356</ele>
        <time>2011-09-25T06:41:31Z</time>
      </trkpt>
      <trkpt lat="49.18593" lon="6.94027">
        <ele>356</ele>
        <time>2011-09-25T06:41:33Z</time>
      </trkpt>
      <trkpt lat="49.18595" lon="6.94025">
        <ele>356</ele>
        <time>2011-09-25T06:41:35Z</time>
      </trkpt>
      <trkpt lat="49.18597" lon="6.94022">
        <ele>356</ele>
        <time>2011-09-25T06:41:37Z</time>
      </trkpt>
      <trkpt lat="49.18599" lon="6.9402">
        <ele>356</ele>
        <time>2011-09-25T06:41:39Z</time>
      </trkpt>
      <trkpt lat="49.186" lon="6.94017">
        <ele>356</ele>
        <time>2011-09-25T06:41:41Z</time>
      </trkpt>
      <trkpt lat="49.18602" lon="6.94015">
        <ele>356</ele>
        <time>2011-09-25T06:41:43Z</time>
      </trkpt>
      <trkpt lat="49.18605" lon="6.94012">
        <ele>356</ele>
        <time>2011-09-25T06:41:45Z</time>
      </trkpt>
      <trkpt lat="49.18607" lon="6.94009">
        <ele>356</ele>
        <time>2011-09-25T06:41:47Z</time>
      </trkpt>
      <trkpt lat="49.18608" lon="6.94006">
        <ele>356</ele>
        <time>2011-09-25T06:41:49Z</time>
      </trkpt>
      <trkpt lat="49.1861" lon="6.94004">
        <ele>356</ele>
        <time>2011-09-25T06:41:51Z</time>
      </trkpt>
      <trkpt lat="49.18612" lon="6.94001">
        <ele>356</ele>
        <time>2011-09-25T06:41:53Z</time>
      </trkpt>
      <trkpt lat="49.18614" lon="6.93998">
        <ele>356</ele>
        <time>2011-09-25T06:41:55Z</time>
      </trkpt>
      <trkpt lat="49.18616" lon="6.93996">
        <ele>356</ele>
        <time>2011-09-25T06:41:57Z</time>
      </trkpt>
      <trkpt lat="49.18618" lon="6.93994">
        <ele>356</ele>
        <time>2011-09-25T06:41:59Z</time>
      </trkpt>
      <trkpt lat="49.1862" lon="6.93992">
        <ele>356</ele>
        <time>2011-09-25T06:42:01Z</time>
      </trkpt>
      <trkpt lat="49.18621" lon="6.9399">
        <ele>356</ele>
        <time>2011-09-25T06:42:02Z</time>
      </trkpt>
      <trkpt lat="49.18623" lon="6.93988">
        <ele>356</ele>
        <time>2011-09-25T06:42:04Z</time>
      </trkpt>
      <trkpt lat="49.18624" lon="6.93986">
        <ele>356</ele>
        <time>2011-09-25T06:42:06Z</time>
      </trkpt>
      <trkpt lat="49.18626" lon="6.93984">
        <ele>356</ele>
        <time>2011-09-25T06:42:08Z</time>
      </trkpt>
      <trkpt lat="49.18628" lon="6.93982">
        <ele>356</ele>
        <time>2011-09-25T06:42:10Z</time>
      </trkpt>
      <trkpt lat="49.18629" lon="6.93981">
        <ele>356</ele>
        <time>2011-09-25T06:42:11Z</time>
      </trkpt>
      <trkpt lat="49.18631" lon="6.93978">
        <ele>356</ele>
        <time>2011-09-25T06:42:13Z</time>
      </trkpt>
      <trkpt lat="49.18632" lon="6.93975">
        <ele>356</ele>
        <time>2011-09-25T06:42:15Z</time>
      </trkpt>
      <trkpt lat="49.18634" lon="6.93972">
        <ele>356</ele>
        <time>2011-09-25T06:42:17Z</time>
      </trkpt>
      <trkpt lat="49.18636" lon="6.93969">
        <ele>356</ele>
        <time>2011-09-25T06:42:19Z</time>
      </trkpt>
      <trkpt lat="49.18638" lon="6.93966">
        <ele>356</ele>
        <time>2011-09-25T06:42:21Z</time>
      </trkpt>
      <trkpt lat="49.18639" lon="6.93964">
        <ele>356</ele>
        <time>2011-09-25T06:42:23Z</time>
      </trkpt>
      <trkpt lat="49.18641" lon="6.93962">
        <ele>356</ele>
        <time>2011-09-25T06:42:25Z</time>
      </trkpt>
      <trkpt lat="49.18642" lon="6.93959">
        <ele>356</ele>
        <time>2011-09-25T06:42:27Z</time>
      </trkpt>
      <trkpt lat="49.18643" lon="6.93956">
        <ele>356</ele>
        <time>2011-09-25T06:42:28Z</time>
      </trkpt>
      <trkpt lat="49.18643" lon="6.93954">
        <ele>356</ele>
        <time>2011-09-25T06:42:29Z</time>
      </trkpt>
      <trkpt lat="49.18643" lon="6.93952">
        <ele>356</ele>
        <time>2011-09-25T06:42:30Z</time>
      </trkpt>
      <trkpt lat="49.18643" lon="6.9395">
        <ele>356</ele>
        <time>2011-09-25T06:42:31Z</time>
      </trkpt>
      <trkpt lat="49.18643" lon="6.93948">
        <ele>356</ele>
        <time>2011-09-25T06:42:33Z</time>
      </trkpt>
      <trkpt lat="49.18643" lon="6.93945">
        <ele>356</ele>
        <time>2011-09-25T06:42:34Z</time>
      </trkpt>
      <trkpt lat="49.18644" lon="6.93943">
        <ele>356</ele>
        <time>2011-09-25T06:42:35Z</time>
      </trkpt>
      <trkpt lat="49.18644" lon="6.9394">
        <ele>356</ele>
        <time>2011-09-25T06:42:36Z</time>
      </trkpt>
      <trkpt lat="49.18645" lon="6.93938">
        <ele>356</ele>
        <time>2011-09-25T06:42:37Z</time>
      </trkpt>
      <trkpt lat="49.18645" lon="6.93937">
        <ele>356</ele>
        <time>2011-09-25T06:42:38Z</time>
      </trkpt>
      <trkpt lat="49.18645" lon="6.93935">
        <ele>356</ele>
        <time>2011-09-25T06:42:39Z</time>
      </trkpt>
      <trkpt lat="49.18644" lon="6.93933">
        <ele>356</ele>
        <time>2011-09-25T06:42:40Z</time>
      </trkpt>
      <trkpt lat="49.18644" lon="6.9393">
        <ele>356</ele>
        <time>2011-09-25T06:42:41Z</time>
      </trkpt>
      <trkpt lat="49.18644" lon="6.93928">
        <ele>356</ele>
        <time>2011-09-25T06:42:42Z</time>
      </trkpt>
      <trkpt lat="49.18644" lon="6.93926">
        <ele>356</ele>
        <time>2011-09-25T06:42:43Z</time>
      </trkpt>
      <trkpt lat="49.18644" lon="6.93925">
        <ele>356</ele>
        <time>2011-09-25T06:42:44Z</time>
      </trkpt>
      <trkpt lat="49.18643" lon="6.93923">
        <ele>356</ele>
        <time>2011-09-25T06:42:45Z</time>
      </trkpt>
      <trkpt lat="49.18643" lon="6.9392">
        <ele>356</ele>
        <time>2011-09-25T06:42:47Z</time>
      </trkpt>
      <trkpt lat="49.18642" lon="6.93918">
        <ele>356</ele>
        <time>2011-09-25T06:42:48Z</time>
      </trkpt>
      <trkpt lat="49.18641" lon="6.93915">
        <ele>356</ele>
        <time>2011-09-25T06:42:49Z</time>
      </trkpt>
      <trkpt lat="49.18641" lon="6.93913">
        <ele>356</ele>
        <time>2011-09-25T06:42:50Z</time>
      </trkpt>
      <trkpt lat="49.18639" lon="6.9391">
        <ele>356</ele>
        <time>2011-09-25T06:42:51Z</time>
      </trkpt>
      <trkpt lat="49.18639" lon="6.93907">
        <ele>356</ele>
        <time>2011-09-25T06:42:52Z</time>
      </trkpt>
      <trkpt lat="49.18639" lon="6.93905">
        <ele>356</ele>
        <time>2011-09-25T06:42:53Z</time>
      </trkpt>
      <trkpt lat="49.18639" lon="6.93903">
        <ele>356</ele>
        <time>2011-09-25T06:42:54Z</time>
      </trkpt>
      <trkpt lat="49.1864" lon="6.93902">
        <ele>356</ele>
        <time>2011-09-25T06:42:55Z</time>
      </trkpt>
      <trkpt lat="49.18641" lon="6.93899">
        <ele>356</ele>
        <time>2011-09-25T06:42:57Z</time>
      </trkpt>
      <trkpt lat="49.18643" lon="6.93896">
        <ele>356</ele>
        <time>2011-09-25T06:42:59Z</time>
      </trkpt>
      <trkpt lat="49.18644" lon="6.93894">
        <ele>356</ele>
        <time>2011-09-25T06:43:00Z</time>
      </trkpt>
      <trkpt lat="49.18643" lon="6.93891">
        <ele>356</ele>
        <time>2011-09-25T06:43:02Z</time>
      </trkpt>
      <trkpt lat="49.18643" lon="6.93889">
        <ele>356</ele>
        <time>2011-09-25T06:43:03Z</time>
      </trkpt>
      <trkpt lat="49.18641" lon="6.93886">
        <ele>356</ele>
        <time>2011-09-25T06:43:04Z</time>
      </trkpt>
      <trkpt lat="49.18639" lon="6.93883">
        <ele>356</ele>
        <time>2011-09-25T06:43:05Z</time>
      </trkpt>
      <trkpt lat="49.18639" lon="6.9388">
        <ele>356</ele>
        <time>2011-09-25T06:43:06Z</time>
      </trkpt>
      <trkpt lat="49.18638" lon="6.93877">
        <ele>356</ele>
        <time>2011-09-25T06:43:07Z</time>
      </trkpt>
      <trkpt lat="49.18638" lon="6.93875">
        <ele>356</ele>
        <time>2011-09-25T06:43:08Z</time>
      </trkpt>
      <trkpt lat="49.18638" lon="6.93872">
        <ele>356</ele>
        <time>2011-09-25T06:43:09Z</time>
      </trkpt>
      <trkpt lat="49.18637" lon="6.9387">
        <ele>356</ele>
        <time>2011-09-25T06:43:10Z</time>
      </trkpt>
      <trkpt lat="49.18636" lon="6.93868">
        <ele>356</ele>
        <time>2011-09-25T06:43:11Z</time>
      </trkpt>
      <trkpt lat="49.18636" lon="6.93866">
        <ele>356</ele>
        <time>2011-09-25T06:43:12Z</time>
      </trkpt>
      <trkpt lat="49.18637" lon="6.93864">
        <ele>357</ele>
        <time>2011-09-25T06:43:13Z</time>
      </trkpt>
      <trkpt lat="49.18637" lon="6.93862">
        <ele>357</ele>
        <time>2011-09-25T06:43:14Z</time>
      </trkpt>
      <trkpt lat="49.18636" lon="6.9386">
        <ele>357</ele>
        <time>2011-09-25T06:43:16Z</time>
      </trkpt>
      <trkpt lat="49.18636" lon="6.93858">
        <ele>357</ele>
        <time>2011-09-25T06:43:17Z</time>
      </trkpt>
      <trkpt lat="49.18636" lon="6.93856">
        <ele>357</ele>
        <time>2011-09-25T06:43:18Z</time>
      </trkpt>
      <trkpt lat="49.18636" lon="6.93854">
        <ele>357</ele>
        <time>2011-09-25T06:43:19Z</time>
      </trkpt>
      <trkpt lat="49.18636" lon="6.93851">
        <ele>357</ele>
        <time>2011-09-25T06:43:22Z</time>
      </trkpt>
      <trkpt lat="49.18636" lon="6.93849">
        <ele>361</ele>
        <time>2011-09-25T06:43:28Z</time>
      </trkpt>
      <trkpt lat="49.18636" lon="6.93848">
        <ele>362</ele>
        <time>2011-09-25T06:43:30Z</time>
      </trkpt>
      <trkpt lat="49.18636" lon="6.93846">
        <ele>364</ele>
        <time>2011-09-25T06:43:32Z</time>
      </trkpt>
      <trkpt lat="49.18635" lon="6.93844">
        <ele>367</ele>
        <time>2011-09-25T06:43:44Z</time>
      </trkpt>
      <trkpt lat="49.18637" lon="6.93841">
        <ele>369</ele>
        <time>2011-09-25T06:43:47Z</time>
      </trkpt>
      <trkpt lat="49.18637" lon="6.93843">
        <ele>371</ele>
        <time>2011-09-25T06:43:51Z</time>
      </trkpt>
      <trkpt lat="49.18638" lon="6.93846">
        <ele>373</ele>
        <time>2011-09-25T06:43:53Z</time>
      </trkpt>
      <trkpt lat="49.18639" lon="6.93844">
        <ele>375</ele>
        <time>2011-09-25T06:43:55Z</time>
      </trkpt>
      <trkpt lat="49.1864" lon="6.93842">
        <ele>376</ele>
        <time>2011-09-25T06:43:57Z</time>
      </trkpt>
      <trkpt lat="49.18641" lon="6.93841">
        <ele>376</ele>
        <time>2011-09-25T06:43:58Z</time>
      </trkpt>
      <trkpt lat="49.18642" lon="6.93844">
        <ele>376</ele>
        <time>2011-09-25T06:44:00Z</time>
      </trkpt>
      <trkpt lat="49.18641" lon="6.93847">
        <ele>376</ele>
        <time>2011-09-25T06:44:01Z</time>
      </trkpt>
      <trkpt lat="49.1864" lon="6.93847">
        <ele>376</ele>
        <time>2011-09-25T06:44:04Z</time>
      </trkpt>
      <trkpt lat="49.18639" lon="6.93844">
        <ele>376</ele>
        <time>2011-09-25T06:44:07Z</time>
      </trkpt>
      <trkpt lat="49.18637" lon="6.93842">
        <ele>376</ele>
        <time>2011-09-25T06:44:09Z</time>
      </trkpt>
      <trkpt lat="49.18635" lon="6.93839">
        <ele>376</ele>
        <time>2011-09-25T06:44:11Z</time>
      </trkpt>
      <trkpt lat="49.18636" lon="6.93835">
        <ele>376</ele>
        <time>2011-09-25T06:44:13Z</time>
      </trkpt>
      <trkpt lat="49.18636" lon="6.93833">
        <ele>376</ele>
        <time>2011-09-25T06:44:14Z</time>
      </trkpt>
      <trkpt lat="49.18636" lon="6.93831">
        <ele>376</ele>
        <time>2011-09-25T06:44:15Z</time>
      </trkpt>
      <trkpt lat="49.18636" lon="6.93829">
        <ele>376</ele>
        <time>2011-09-25T06:44:17Z</time>
      </trkpt>
      <trkpt lat="49.18636" lon="6.93827">
        <ele>376</ele>
        <time>2011-09-25T06:44:19Z</time>
      </trkpt>
      <trkpt lat="49.18636" lon="6.93824">
        <ele>374</ele>
        <time>2011-09-25T06:44:21Z</time>
      </trkpt>
      <trkpt lat="49.18636" lon="6.93821">
        <ele>372</ele>
        <time>2011-09-25T06:44:23Z</time>
      </trkpt>
      <trkpt lat="49.18636" lon="6.93819">
        <ele>371</ele>
        <time>2011-09-25T06:44:24Z</time>
      </trkpt>
      <trkpt lat="49.18636" lon="6.93817">
        <ele>370</ele>
        <time>2011-09-25T06:44:26Z</time>
      </trkpt>
      <trkpt lat="49.18636" lon="6.93815">
        <ele>369</ele>
        <time>2011-09-25T06:44:27Z</time>
      </trkpt>
      <trkpt lat="49.18635" lon="6.93813">
        <ele>368</ele>
        <time>2011-09-25T06:44:28Z</time>
      </trkpt>
      <trkpt lat="49.18635" lon="6.9381">
        <ele>367</ele>
        <time>2011-09-25T06:44:30Z</time>
      </trkpt>
      <trkpt lat="49.18635" lon="6.93808">
        <ele>366</ele>
        <time>2011-09-25T06:44:31Z</time>
      </trkpt>
      <trkpt lat="49.18635" lon="6.93806">
        <ele>365</ele>
        <time>2011-09-25T06:44:32Z</time>
      </trkpt>
      <trkpt lat="49.18635" lon="6.93804">
        <ele>365</ele>
        <time>2011-09-25T06:44:33Z</time>
      </trkpt>
      <trkpt lat="49.18635" lon="6.93802">
        <ele>364</ele>
        <time>2011-09-25T06:44:34Z</time>
      </trkpt>
      <trkpt lat="49.18635" lon="6.938">
        <ele>364</ele>
        <time>2011-09-25T06:44:35Z</time>
      </trkpt>
      <trkpt lat="49.18634" lon="6.93798">
        <ele>364</ele>
        <time>2011-09-25T06:44:36Z</time>
      </trkpt>
      <trkpt lat="49.18634" lon="6.93797">
        <ele>363</ele>
        <time>2011-09-25T06:44:37Z</time>
      </trkpt>
      <trkpt lat="49.18634" lon="6.93793">
        <ele>363</ele>
        <time>2011-09-25T06:44:39Z</time>
      </trkpt>
      <trkpt lat="49.18634" lon="6.93791">
        <ele>363</ele>
        <time>2011-09-25T06:44:40Z</time>
      </trkpt>
      <trkpt lat="49.18634" lon="6.93789">
        <ele>363</ele>
        <time>2011-09-25T06:44:41Z</time>
      </trkpt>
      <trkpt lat="49.18633" lon="6.93787">
        <ele>363</ele>
        <time>2011-09-25T06:44:42Z</time>
      </trkpt>
      <trkpt lat="49.18633" lon="6.93785">
        <ele>363</ele>
        <time>2011-09-25T06:44:43Z</time>
      </trkpt>
      <trkpt lat="49.18632" lon="6.93783">
        <ele>363</ele>
        <time>2011-09-25T06:44:44Z</time>
      </trkpt>
      <trkpt lat="49.18632" lon="6.93781">
        <ele>363</ele>
        <time>2011-09-25T06:44:45Z</time>
      </trkpt>
      <trkpt lat="49.18632" lon="6.93778">
        <ele>363</ele>
        <time>2011-09-25T06:44:46Z</time>
      </trkpt>
      <trkpt lat="49.18632" lon="6.93776">
        <ele>363</ele>
        <time>2011-09-25T06:44:47Z</time>
      </trkpt>
      <trkpt lat="49.18633" lon="6.93773">
        <ele>363</ele>
        <time>2011-09-25T06:44:49Z</time>
      </trkpt>
      <trkpt lat="49.18633" lon="6.93771">
        <ele>363</ele>
        <time>2011-09-25T06:44:50Z</time>
      </trkpt>
      <trkpt lat="49.18633" lon="6.93768">
        <ele>363</ele>
        <time>2011-09-25T06:44:51Z</time>
      </trkpt>
      <trkpt lat="49.18633" lon="6.93766">
        <ele>363</ele>
        <time>2011-09-25T06:44:52Z</time>
      </trkpt>
      <trkpt lat="49.18632" lon="6.93764">
        <ele>363</ele>
        <time>2011-09-25T06:44:53Z</time>
      </trkpt>
      <trkpt lat="49.18632" lon="6.93762">
        <ele>363</ele>
        <time>2011-09-25T06:44:54Z</time>
      </trkpt>
      <trkpt lat="49.18632" lon="6.9376">
        <ele>363</ele>
        <time>2011-09-25T06:44:55Z</time>
      </trkpt>
      <trkpt lat="49.18632" lon="6.93758">
        <ele>363</ele>
        <time>2011-09-25T06:44:56Z</time>
      </trkpt>
      <trkpt lat="49.18632" lon="6.93756">
        <ele>363</ele>
        <time>2011-09-25T06:44:57Z</time>
      </trkpt>
      <trkpt lat="49.18632" lon="6.93754">
        <ele>363</ele>
        <time>2011-09-25T06:44:58Z</time>
      </trkpt>
      <trkpt lat="49.18631" lon="6.93751">
        <ele>363</ele>
        <time>2011-09-25T06:44:59Z</time>
      </trkpt>
      <trkpt lat="49.18631" lon="6.9375">
        <ele>363</ele>
        <time>2011-09-25T06:45:00Z</time>
      </trkpt>
      <trkpt lat="49.18632" lon="6.93748">
        <ele>363</ele>
        <time>2011-09-25T06:45:01Z</time>
      </trkpt>
      <trkpt lat="49.18631" lon="6.93746">
        <ele>363</ele>
        <time>2011-09-25T06:45:02Z</time>
      </trkpt>
      <trkpt lat="49.1863" lon="6.93743">
        <ele>363</ele>
        <time>2011-09-25T06:45:04Z</time>
      </trkpt>
      <trkpt lat="49.18629" lon="6.93741">
        <ele>363</ele>
        <time>2011-09-25T06:45:05Z</time>
      </trkpt>
      <trkpt lat="49.18629" lon="6.93739">
        <ele>363</ele>
        <time>2011-09-25T06:45:06Z</time>
      </trkpt>
      <trkpt lat="49.18629" lon="6.93737">
        <ele>363</ele>
        <time>2011-09-25T06:45:07Z</time>
      </trkpt>
      <trkpt lat="49.18629" lon="6.93735">
        <ele>363</ele>
        <time>2011-09-25T06:45:08Z</time>
      </trkpt>
      <trkpt lat="49.18628" lon="6.93733">
        <ele>363</ele>
        <time>2011-09-25T06:45:09Z</time>
      </trkpt>
      <trkpt lat="49.18628" lon="6.93731">
        <ele>363</ele>
        <time>2011-09-25T06:45:10Z</time>
      </trkpt>
      <trkpt lat="49.18628" lon="6.93729">
        <ele>363</ele>
        <time>2011-09-25T06:45:11Z</time>
      </trkpt>
      <trkpt lat="49.18628" lon="6.93727">
        <ele>363</ele>
        <time>2011-09-25T06:45:12Z</time>
      </trkpt>
      <trkpt lat="49.18627" lon="6.93725">
        <ele>363</ele>
        <time>2011-09-25T06:45:13Z</time>
      </trkpt>
      <trkpt lat="49.18627" lon="6.93723">
        <ele>363</ele>
        <time>2011-09-25T06:45:14Z</time>
      </trkpt>
      <trkpt lat="49.18627" lon="6.93721">
        <ele>363</ele>
        <time>2011-09-25T06:45:15Z</time>
      </trkpt>
      <trkpt lat="49.18626" lon="6.93718">
        <ele>363</ele>
        <time>2011-09-25T06:45:17Z</time>
      </trkpt>
      <trkpt lat="49.18626" lon="6.93716">
        <ele>363</ele>
        <time>2011-09-25T06:45:18Z</time>
      </trkpt>
      <trkpt lat="49.18626" lon="6.93714">
        <ele>363</ele>
        <time>2011-09-25T06:45:19Z</time>
      </trkpt>
      <trkpt lat="49.18626" lon="6.93712">
        <ele>363</ele>
        <time>2011-09-25T06:45:20Z</time>
      </trkpt>
      <trkpt lat="49.18626" lon="6.9371">
        <ele>363</ele>
        <time>2011-09-25T06:45:21Z</time>
      </trkpt>
      <trkpt lat="49.18625" lon="6.93708">
        <ele>363</ele>
        <time>2011-09-25T06:45:22Z</time>
      </trkpt>
      <trkpt lat="49.18625" lon="6.93706">
        <ele>363</ele>
        <time>2011-09-25T06:45:23Z</time>
      </trkpt>
      <trkpt lat="49.18625" lon="6.93704">
        <ele>363</ele>
        <time>2011-09-25T06:45:24Z</time>
      </trkpt>
      <trkpt lat="49.18625" lon="6.93702">
        <ele>363</ele>
        <time>2011-09-25T06:45:25Z</time>
      </trkpt>
      <trkpt lat="49.18625" lon="6.937">
        <ele>363</ele>
        <time>2011-09-25T06:45:26Z</time>
      </trkpt>
      <trkpt lat="49.18624" lon="6.93698">
        <ele>363</ele>
        <time>2011-09-25T06:45:27Z</time>
      </trkpt>
      <trkpt lat="49.18624" lon="6.93696">
        <ele>363</ele>
        <time>2011-09-25T06:45:28Z</time>
      </trkpt>
      <trkpt lat="49.18624" lon="6.93694">
        <ele>363</ele>
        <time>2011-09-25T06:45:29Z</time>
      </trkpt>
      <trkpt lat="49.18624" lon="6.93692">
        <ele>363</ele>
        <time>2011-09-25T06:45:30Z</time>
      </trkpt>
      <trkpt lat="49.18623" lon="6.93691">
        <ele>363</ele>
        <time>2011-09-25T06:45:31Z</time>
      </trkpt>
      <trkpt lat="49.18623" lon="6.93689">
        <ele>363</ele>
        <time>2011-09-25T06:45:32Z</time>
      </trkpt>
      <trkpt lat="49.18623" lon="6.93686">
        <ele>363</ele>
        <time>2011-09-25T06:45:33Z</time>
      </trkpt>
      <trkpt lat="49.18623" lon="6.93685">
        <ele>363</ele>
        <time>2011-09-25T06:45:34Z</time>
      </trkpt>
      <trkpt lat="49.18622" lon="6.93683">
        <ele>363</ele>
        <time>2011-09-25T06:45:35Z</time>
      </trkpt>
      <trkpt lat="49.18622" lon="6.93681">
        <ele>363</ele>
        <time>2011-09-25T06:45:36Z</time>
      </trkpt>
      <trkpt lat="49.18622" lon="6.9368">
        <ele>363</ele>
        <time>2011-09-25T06:45:37Z</time>
      </trkpt>
      <trkpt lat="49.18622" lon="6.93678">
        <ele>363</ele>
        <time>2011-09-25T06:45:38Z</time>
      </trkpt>
      <trkpt lat="49.18622" lon="6.93676">
        <ele>363</ele>
        <time>2011-09-25T06:45:39Z</time>
      </trkpt>
      <trkpt lat="49.18622" lon="6.93673">
        <ele>363</ele>
        <time>2011-09-25T06:45:40Z</time>
      </trkpt>
      <trkpt lat="49.18622" lon="6.93672">
        <ele>363</ele>
        <time>2011-09-25T06:45:41Z</time>
      </trkpt>
      <trkpt lat="49.18622" lon="6.9367">
        <ele>363</ele>
        <time>2011-09-25T06:45:42Z</time>
      </trkpt>
      <trkpt lat="49.18621" lon="6.93668">
        <ele>363</ele>
        <time>2011-09-25T06:45:43Z</time>
      </trkpt>
      <trkpt lat="49.18621" lon="6.93666">
        <ele>363</ele>
        <time>2011-09-25T06:45:44Z</time>
      </trkpt>
      <trkpt lat="49.18622" lon="6.93664">
        <ele>363</ele>
        <time>2011-09-25T06:45:45Z</time>
      </trkpt>
      <trkpt lat="49.18622" lon="6.93663">
        <ele>363</ele>
        <time>2011-09-25T06:45:46Z</time>
      </trkpt>
      <trkpt lat="49.18622" lon="6.93661">
        <ele>363</ele>
        <time>2011-09-25T06:45:47Z</time>
      </trkpt>
      <trkpt lat="49.18621" lon="6.93659">
        <ele>363</ele>
        <time>2011-09-25T06:45:48Z</time>
      </trkpt>
      <trkpt lat="49.18621" lon="6.93656">
        <ele>363</ele>
        <time>2011-09-25T06:45:50Z</time>
      </trkpt>
      <trkpt lat="49.18621" lon="6.93654">
        <ele>363</ele>
        <time>2011-09-25T06:45:51Z</time>
      </trkpt>
      <trkpt lat="49.18621" lon="6.93652">
        <ele>363</ele>
        <time>2011-09-25T06:45:52Z</time>
      </trkpt>
      <trkpt lat="49.18621" lon="6.9365">
        <ele>363</ele>
        <time>2011-09-25T06:45:53Z</time>
      </trkpt>
      <trkpt lat="49.18621" lon="6.93648">
        <ele>363</ele>
        <time>2011-09-25T06:45:54Z</time>
      </trkpt>
      <trkpt lat="49.18621" lon="6.93646">
        <ele>363</ele>
        <time>2011-09-25T06:45:55Z</time>
      </trkpt>
      <trkpt lat="49.18621" lon="6.93645">
        <ele>363</ele>
        <time>2011-09-25T06:45:56Z</time>
      </trkpt>
      <trkpt lat="49.18621" lon="6.93643">
        <ele>363</ele>
        <time>2011-09-25T06:45:57Z</time>
      </trkpt>
      <trkpt lat="49.1862" lon="6.93641">
        <ele>363</ele>
        <time>2011-09-25T06:45:58Z</time>
      </trkpt>
      <trkpt lat="49.1862" lon="6.93639">
        <ele>363</ele>
        <time>2011-09-25T06:45:59Z</time>
      </trkpt>
      <trkpt lat="49.1862" lon="6.93637">
        <ele>363</ele>
        <time>2011-09-25T06:46:00Z</time>
      </trkpt>
      <trkpt lat="49.1862" lon="6.93635">
        <ele>363</ele>
        <time>2011-09-25T06:46:01Z</time>
      </trkpt>
      <trkpt lat="49.1862" lon="6.93633">
        <ele>363</ele>
        <time>2011-09-25T06:46:02Z</time>
      </trkpt>
      <trkpt lat="49.1862" lon="6.93631">
        <ele>363</ele>
        <time>2011-09-25T06:46:03Z</time>
      </trkpt>
      <trkpt lat="49.1862" lon="6.93629">
        <ele>363</ele>
        <time>2011-09-25T06:46:04Z</time>
      </trkpt>
      <trkpt lat="49.1862" lon="6.93627">
        <ele>363</ele>
        <time>2011-09-25T06:46:05Z</time>
      </trkpt>
      <trkpt lat="49.1862" lon="6.93625">
        <ele>363</ele>
        <time>2011-09-25T06:46:06Z</time>
      </trkpt>
      <trkpt lat="49.1862" lon="6.93624">
        <ele>363</ele>
        <time>2011-09-25T06:46:07Z</time>
      </trkpt>
      <trkpt lat="49.18619" lon="6.93622">
        <ele>363</ele>
        <time>2011-09-25T06:46:08Z</time>
      </trkpt>
      <trkpt lat="49.18619" lon="6.9362">
        <ele>363</ele>
        <time>2011-09-25T06:46:09Z</time>
      </trkpt>
      <trkpt lat="49.18619" lon="6.93618">
        <ele>363</ele>
        <time>2011-09-25T06:46:10Z</time>
      </trkpt>
      <trkpt lat="49.18619" lon="6.93616">
        <ele>363</ele>
        <time>2011-09-25T06:46:11Z</time>
      </trkpt>
      <trkpt lat="49.18619" lon="6.93614">
        <ele>363</ele>
        <time>2011-09-25T06:46:12Z</time>
      </trkpt>
      <trkpt lat="49.18619" lon="6.93613">
        <ele>363</ele>
        <time>2011-09-25T06:46:13Z</time>
      </trkpt>
      <trkpt lat="49.18618" lon="6.93611">
        <ele>363</ele>
        <time>2011-09-25T06:46:14Z</time>
      </trkpt>
      <trkpt lat="49.18618" lon="6.93609">
        <ele>363</ele>
        <time>2011-09-25T06:46:15Z</time>
      </trkpt>
      <trkpt lat="49.18618" lon="6.93607">
        <ele>363</ele>
        <time>2011-09-25T06:46:16Z</time>
      </trkpt>
      <trkpt lat="49.18618" lon="6.93606">
        <ele>363</ele>
        <time>2011-09-25T06:46:17Z</time>
      </trkpt>
      <trkpt lat="49.18618" lon="6.93604">
        <ele>363</ele>
        <time>2011-09-25T06:46:18Z</time>
      </trkpt>
      <trkpt lat="49.18617" lon="6.93602">
        <ele>363</ele>
        <time>2011-09-25T06:46:19Z</time>
      </trkpt>
      <trkpt lat="49.18617" lon="6.936">
        <ele>363</ele>
        <time>2011-09-25T06:46:20Z</time>
      </trkpt>
      <trkpt lat="49.18617" lon="6.93597">
        <ele>363</ele>
        <time>2011-09-25T06:46:21Z</time>
      </trkpt>
      <trkpt lat="49.18617" lon="6.93595">
        <ele>363</ele>
        <time>2011-09-25T06:46:22Z</time>
      </trkpt>
      <trkpt lat="49.18616" lon="6.93594">
        <ele>363</ele>
        <time>2011-09-25T06:46:23Z</time>
      </trkpt>
      <trkpt lat="49.18616" lon="6.93592">
        <ele>363</ele>
        <time>2011-09-25T06:46:24Z</time>
      </trkpt>
      <trkpt lat="49.18616" lon="6.9359">
        <ele>363</ele>
        <time>2011-09-25T06:46:25Z</time>
      </trkpt>
      <trkpt lat="49.18616" lon="6.93588">
        <ele>363</ele>
        <time>2011-09-25T06:46:26Z</time>
      </trkpt>
      <trkpt lat="49.18616" lon="6.93586">
        <ele>363</ele>
        <time>2011-09-25T06:46:27Z</time>
      </trkpt>
      <trkpt lat="49.18616" lon="6.93584">
        <ele>363</ele>
        <time>2011-09-25T06:46:28Z</time>
      </trkpt>
      <trkpt lat="49.18615" lon="6.93582">
        <ele>363</ele>
        <time>2011-09-25T06:46:29Z</time>
      </trkpt>
      <trkpt lat="49.18615" lon="6.9358">
        <ele>363</ele>
        <time>2011-09-25T06:46:30Z</time>
      </trkpt>
      <trkpt lat="49.18615" lon="6.93578">
        <ele>363</ele>
        <time>2011-09-25T06:46:31Z</time>
      </trkpt>
      <trkpt lat="49.18615" lon="6.93576">
        <ele>363</ele>
        <time>2011-09-25T06:46:32Z</time>
      </trkpt>
      <trkpt lat="49.18615" lon="6.93574">
        <ele>363</ele>
        <time>2011-09-25T06:46:33Z</time>
      </trkpt>
      <trkpt lat="49.18614" lon="6.93572">
        <ele>363</ele>
        <time>2011-09-25T06:46:34Z</time>
      </trkpt>
      <trkpt lat="49.18614" lon="6.93571">
        <ele>363</ele>
        <time>2011-09-25T06:46:35Z</time>
      </trkpt>
      <trkpt lat="49.18614" lon="6.93568">
        <ele>363</ele>
        <time>2011-09-25T06:46:36Z</time>
      </trkpt>
      <trkpt lat="49.18614" lon="6.93566">
        <ele>363</ele>
        <time>2011-09-25T06:46:37Z</time>
      </trkpt>
      <trkpt lat="49.18614" lon="6.93564">
        <ele>363</ele>
        <time>2011-09-25T06:46:38Z</time>
      </trkpt>
      <trkpt lat="49.18614" lon="6.93563">
        <ele>363</ele>
        <time>2011-09-25T06:46:39Z</time>
      </trkpt>
      <trkpt lat="49.18614" lon="6.93561">
        <ele>363</ele>
        <time>2011-09-25T06:46:40Z</time>
      </trkpt>
      <trkpt lat="49.18614" lon="6.93559">
        <ele>363</ele>
        <time>2011-09-25T06:46:41Z</time>
      </trkpt>
      <trkpt lat="49.18614" lon="6.93557">
        <ele>363</ele>
        <time>2011-09-25T06:46:42Z</time>
      </trkpt>
      <trkpt lat="49.18614" lon="6.93555">
        <ele>363</ele>
        <time>2011-09-25T06:46:43Z</time>
      </trkpt>
      <trkpt lat="49.18613" lon="6.93553">
        <ele>363</ele>
        <time>2011-09-25T06:46:44Z</time>
      </trkpt>
      <trkpt lat="49.18613" lon="6.93551">
        <ele>363</ele>
        <time>2011-09-25T06:46:45Z</time>
      </trkpt>
      <trkpt lat="49.18613" lon="6.93549">
        <ele>363</ele>
        <time>2011-09-25T06:46:46Z</time>
      </trkpt>
      <trkpt lat="49.18613" lon="6.93547">
        <ele>363</ele>
        <time>2011-09-25T06:46:47Z</time>
      </trkpt>
      <trkpt lat="49.18613" lon="6.93545">
        <ele>363</ele>
        <time>2011-09-25T06:46:48Z</time>
      </trkpt>
      <trkpt lat="49.18613" lon="6.93543">
        <ele>363</ele>
        <time>2011-09-25T06:46:49Z</time>
      </trkpt>
      <trkpt lat="49.18613" lon="6.93541">
        <ele>363</ele>
        <time>2011-09-25T06:46:50Z</time>
      </trkpt>
      <trkpt lat="49.18612" lon="6.9354">
        <ele>363</ele>
        <time>2011-09-25T06:46:51Z</time>
      </trkpt>
      <trkpt lat="49.18612" lon="6.93537">
        <ele>363</ele>
        <time>2011-09-25T06:46:52Z</time>
      </trkpt>
      <trkpt lat="49.18611" lon="6.93534">
        <ele>363</ele>
        <time>2011-09-25T06:46:53Z</time>
      </trkpt>
      <trkpt lat="49.18611" lon="6.93532">
        <ele>363</ele>
        <time>2011-09-25T06:46:54Z</time>
      </trkpt>
      <trkpt lat="49.18611" lon="6.9353">
        <ele>363</ele>
        <time>2011-09-25T06:46:55Z</time>
      </trkpt>
      <trkpt lat="49.18611" lon="6.93528">
        <ele>363</ele>
        <time>2011-09-25T06:46:56Z</time>
      </trkpt>
      <trkpt lat="49.1861" lon="6.93526">
        <ele>363</ele>
        <time>2011-09-25T06:46:57Z</time>
      </trkpt>
      <trkpt lat="49.1861" lon="6.93525">
        <ele>363</ele>
        <time>2011-09-25T06:46:58Z</time>
      </trkpt>
      <trkpt lat="49.1861" lon="6.93523">
        <ele>363</ele>
        <time>2011-09-25T06:46:59Z</time>
      </trkpt>
      <trkpt lat="49.1861" lon="6.93521">
        <ele>363</ele>
        <time>2011-09-25T06:47:00Z</time>
      </trkpt>
      <trkpt lat="49.1861" lon="6.93519">
        <ele>363</ele>
        <time>2011-09-25T06:47:01Z</time>
      </trkpt>
      <trkpt lat="49.1861" lon="6.93517">
        <ele>363</ele>
        <time>2011-09-25T06:47:02Z</time>
      </trkpt>
      <trkpt lat="49.1861" lon="6.93515">
        <ele>363</ele>
        <time>2011-09-25T06:47:03Z</time>
      </trkpt>
      <trkpt lat="49.1861" lon="6.93513">
        <ele>363</ele>
        <time>2011-09-25T06:47:04Z</time>
      </trkpt>
      <trkpt lat="49.1861" lon="6.93511">
        <ele>363</ele>
        <time>2011-09-25T06:47:05Z</time>
      </trkpt>
      <trkpt lat="49.18609" lon="6.93509">
        <ele>363</ele>
        <time>2011-09-25T06:47:06Z</time>
      </trkpt>
      <trkpt lat="49.18609" lon="6.93507">
        <ele>362</ele>
        <time>2011-09-25T06:47:07Z</time>
      </trkpt>
      <trkpt lat="49.1861" lon="6.93506">
        <ele>362</ele>
        <time>2011-09-25T06:47:08Z</time>
      </trkpt>
      <trkpt lat="49.1861" lon="6.93503">
        <ele>362</ele>
        <time>2011-09-25T06:47:10Z</time>
      </trkpt>
      <trkpt lat="49.18609" lon="6.935">
        <ele>362</ele>
        <time>2011-09-25T06:47:11Z</time>
      </trkpt>
      <trkpt lat="49.18609" lon="6.93498">
        <ele>362</ele>
        <time>2011-09-25T06:47:12Z</time>
      </trkpt>
      <trkpt lat="49.18609" lon="6.93496">
        <ele>362</ele>
        <time>2011-09-25T06:47:13Z</time>
      </trkpt>
      <trkpt lat="49.18609" lon="6.93495">
        <ele>362</ele>
        <time>2011-09-25T06:47:14Z</time>
      </trkpt>
      <trkpt lat="49.18608" lon="6.93493">
        <ele>362</ele>
        <time>2011-09-25T06:47:15Z</time>
      </trkpt>
      <trkpt lat="49.18609" lon="6.93491">
        <ele>362</ele>
        <time>2011-09-25T06:47:16Z</time>
      </trkpt>
      <trkpt lat="49.18609" lon="6.93489">
        <ele>362</ele>
        <time>2011-09-25T06:47:17Z</time>
      </trkpt>
      <trkpt lat="49.18609" lon="6.93487">
        <ele>362</ele>
        <time>2011-09-25T06:47:18Z</time>
      </trkpt>
      <trkpt lat="49.18609" lon="6.93485">
        <ele>362</ele>
        <time>2011-09-25T06:47:19Z</time>
      </trkpt>
      <trkpt lat="49.18609" lon="6.93484">
        <ele>362</ele>
        <time>2011-09-25T06:47:20Z</time>
      </trkpt>
      <trkpt lat="49.18608" lon="6.93482">
        <ele>362</ele>
        <time>2011-09-25T06:47:21Z</time>
      </trkpt>
      <trkpt lat="49.18608" lon="6.9348">
        <ele>362</ele>
        <time>2011-09-25T06:47:22Z</time>
      </trkpt>
      <trkpt lat="49.18608" lon="6.93478">
        <ele>362</ele>
        <time>2011-09-25T06:47:23Z</time>
      </trkpt>
      <trkpt lat="49.18608" lon="6.93476">
        <ele>362</ele>
        <time>2011-09-25T06:47:24Z</time>
      </trkpt>
      <trkpt lat="49.18607" lon="6.93474">
        <ele>362</ele>
        <time>2011-09-25T06:47:25Z</time>
      </trkpt>
      <trkpt lat="49.18607" lon="6.93472">
        <ele>362</ele>
        <time>2011-09-25T06:47:26Z</time>
      </trkpt>
      <trkpt lat="49.18607" lon="6.9347">
        <ele>362</ele>
        <time>2011-09-25T06:47:27Z</time>
      </trkpt>
      <trkpt lat="49.18607" lon="6.93469">
        <ele>362</ele>
        <time>2011-09-25T06:47:28Z</time>
      </trkpt>
      <trkpt lat="49.18607" lon="6.93467">
        <ele>362</ele>
        <time>2011-09-25T06:47:29Z</time>
      </trkpt>
      <trkpt lat="49.18606" lon="6.93465">
        <ele>362</ele>
        <time>2011-09-25T06:47:30Z</time>
      </trkpt>
      <trkpt lat="49.18606" lon="6.93463">
        <ele>362</ele>
        <time>2011-09-25T06:47:31Z</time>
      </trkpt>
      <trkpt lat="49.18606" lon="6.93461">
        <ele>362</ele>
        <time>2011-09-25T06:47:32Z</time>
      </trkpt>
      <trkpt lat="49.18606" lon="6.93459">
        <ele>362</ele>
        <time>2011-09-25T06:47:33Z</time>
      </trkpt>
      <trkpt lat="49.18605" lon="6.93457">
        <ele>362</ele>
        <time>2011-09-25T06:47:34Z</time>
      </trkpt>
      <trkpt lat="49.18605" lon="6.93454">
        <ele>362</ele>
        <time>2011-09-25T06:47:35Z</time>
      </trkpt>
      <trkpt lat="49.18605" lon="6.93452">
        <ele>362</ele>
        <time>2011-09-25T06:47:36Z</time>
      </trkpt>
      <trkpt lat="49.18604" lon="6.9345">
        <ele>362</ele>
        <time>2011-09-25T06:47:37Z</time>
      </trkpt>
      <trkpt lat="49.18604" lon="6.93448">
        <ele>362</ele>
        <time>2011-09-25T06:47:38Z</time>
      </trkpt>
      <trkpt lat="49.18604" lon="6.93446">
        <ele>362</ele>
        <time>2011-09-25T06:47:39Z</time>
      </trkpt>
      <trkpt lat="49.18604" lon="6.93444">
        <ele>362</ele>
        <time>2011-09-25T06:47:40Z</time>
      </trkpt>
      <trkpt lat="49.18604" lon="6.93442">
        <ele>362</ele>
        <time>2011-09-25T06:47:41Z</time>
      </trkpt>
      <trkpt lat="49.18603" lon="6.9344">
        <ele>362</ele>
        <time>2011-09-25T06:47:42Z</time>
      </trkpt>
      <trkpt lat="49.18603" lon="6.93437">
        <ele>362</ele>
        <time>2011-09-25T06:47:43Z</time>
      </trkpt>
      <trkpt lat="49.18602" lon="6.93435">
        <ele>362</ele>
        <time>2011-09-25T06:47:44Z</time>
      </trkpt>
      <trkpt lat="49.18602" lon="6.93433">
        <ele>362</ele>
        <time>2011-09-25T06:47:45Z</time>
      </trkpt>
      <trkpt lat="49.18602" lon="6.93431">
        <ele>362</ele>
        <time>2011-09-25T06:47:46Z</time>
      </trkpt>
      <trkpt lat="49.18602" lon="6.9343">
        <ele>362</ele>
        <time>2011-09-25T06:47:47Z</time>
      </trkpt>
      <trkpt lat="49.18602" lon="6.93428">
        <ele>362</ele>
        <time>2011-09-25T06:47:48Z</time>
      </trkpt>
      <trkpt lat="49.18602" lon="6.93426">
        <ele>362</ele>
        <time>2011-09-25T06:47:49Z</time>
      </trkpt>
      <trkpt lat="49.18602" lon="6.93424">
        <ele>362</ele>
        <time>2011-09-25T06:47:50Z</time>
      </trkpt>
      <trkpt lat="49.18602" lon="6.93421">
        <ele>362</ele>
        <time>2011-09-25T06:47:51Z</time>
      </trkpt>
      <trkpt lat="49.18602" lon="6.93419">
        <ele>362</ele>
        <time>2011-09-25T06:47:52Z</time>
      </trkpt>
      <trkpt lat="49.18602" lon="6.93417">
        <ele>362</ele>
        <time>2011-09-25T06:47:53Z</time>
      </trkpt>
      <trkpt lat="49.18602" lon="6.93415">
        <ele>362</ele>
        <time>2011-09-25T06:47:54Z</time>
      </trkpt>
      <trkpt lat="49.18601" lon="6.93413">
        <ele>362</ele>
        <time>2011-09-25T06:47:55Z</time>
      </trkpt>
      <trkpt lat="49.18601" lon="6.9341">
        <ele>362</ele>
        <time>2011-09-25T06:47:57Z</time>
      </trkpt>
      <trkpt lat="49.186" lon="6.93408">
        <ele>362</ele>
        <time>2011-09-25T06:47:58Z</time>
      </trkpt>
      <trkpt lat="49.186" lon="6.93405">
        <ele>362</ele>
        <time>2011-09-25T06:47:59Z</time>
      </trkpt>
      <trkpt lat="49.186" lon="6.93403">
        <ele>362</ele>
        <time>2011-09-25T06:48:00Z</time>
      </trkpt>
      <trkpt lat="49.186" lon="6.93401">
        <ele>362</ele>
        <time>2011-09-25T06:48:01Z</time>
      </trkpt>
      <trkpt lat="49.18599" lon="6.93399">
        <ele>362</ele>
        <time>2011-09-25T06:48:02Z</time>
      </trkpt>
      <trkpt lat="49.18599" lon="6.93398">
        <ele>362</ele>
        <time>2011-09-25T06:48:03Z</time>
      </trkpt>
      <trkpt lat="49.18599" lon="6.93394">
        <ele>362</ele>
        <time>2011-09-25T06:48:05Z</time>
      </trkpt>
      <trkpt lat="49.18599" lon="6.93392">
        <ele>362</ele>
        <time>2011-09-25T06:48:06Z</time>
      </trkpt>
      <trkpt lat="49.18599" lon="6.93391">
        <ele>362</ele>
        <time>2011-09-25T06:48:07Z</time>
      </trkpt>
      <trkpt lat="49.18599" lon="6.93389">
        <ele>362</ele>
        <time>2011-09-25T06:48:08Z</time>
      </trkpt>
      <trkpt lat="49.18599" lon="6.93387">
        <ele>362</ele>
        <time>2011-09-25T06:48:09Z</time>
      </trkpt>
      <trkpt lat="49.18599" lon="6.93385">
        <ele>362</ele>
        <time>2011-09-25T06:48:10Z</time>
      </trkpt>
      <trkpt lat="49.18598" lon="6.93383">
        <ele>362</ele>
        <time>2011-09-25T06:48:11Z</time>
      </trkpt>
      <trkpt lat="49.18598" lon="6.93381">
        <ele>362</ele>
        <time>2011-09-25T06:48:12Z</time>
      </trkpt>
      <trkpt lat="49.18597" lon="6.93379">
        <ele>362</ele>
        <time>2011-09-25T06:48:13Z</time>
      </trkpt>
      <trkpt lat="49.18597" lon="6.93377">
        <ele>362</ele>
        <time>2011-09-25T06:48:14Z</time>
      </trkpt>
      <trkpt lat="49.18597" lon="6.93375">
        <ele>362</ele>
        <time>2011-09-25T06:48:15Z</time>
      </trkpt>
      <trkpt lat="49.18597" lon="6.93373">
        <ele>362</ele>
        <time>2011-09-25T06:48:16Z</time>
      </trkpt>
      <trkpt lat="49.18597" lon="6.9337">
        <ele>362</ele>
        <time>2011-09-25T06:48:18Z</time>
      </trkpt>
      <trkpt lat="49.18596" lon="6.93368">
        <ele>362</ele>
        <time>2011-09-25T06:48:19Z</time>
      </trkpt>
      <trkpt lat="49.18596" lon="6.93366">
        <ele>362</ele>
        <time>2011-09-25T06:48:20Z</time>
      </trkpt>
      <trkpt lat="49.18596" lon="6.93364">
        <ele>362</ele>
        <time>2011-09-25T06:48:21Z</time>
      </trkpt>
      <trkpt lat="49.18596" lon="6.93363">
        <ele>362</ele>
        <time>2011-09-25T06:48:22Z</time>
      </trkpt>
      <trkpt lat="49.18596" lon="6.93361">
        <ele>362</ele>
        <time>2011-09-25T06:48:23Z</time>
      </trkpt>
      <trkpt lat="49.18596" lon="6.93359">
        <ele>362</ele>
        <time>2011-09-25T06:48:24Z</time>
      </trkpt>
      <trkpt lat="49.18596" lon="6.93357">
        <ele>362</ele>
        <time>2011-09-25T06:48:25Z</time>
      </trkpt>
      <trkpt lat="49.18596" lon="6.93355">
        <ele>362</ele>
        <time>2011-09-25T06:48:26Z</time>
      </trkpt>
      <trkpt lat="49.18596" lon="6.93353">
        <ele>362</ele>
        <time>2011-09-25T06:48:27Z</time>
      </trkpt>
      <trkpt lat="49.18596" lon="6.93351">
        <ele>362</ele>
        <time>2011-09-25T06:48:28Z</time>
      </trkpt>
      <trkpt lat="49.18596" lon="6.93349">
        <ele>362</ele>
        <time>2011-09-25T06:48:29Z</time>
      </trkpt>
      <trkpt lat="49.18596" lon="6.93347">
        <ele>362</ele>
        <time>2011-09-25T06:48:30Z</time>
      </trkpt>
      <trkpt lat="49.18596" lon="6.93345">
        <ele>362</ele>
        <time>2011-09-25T06:48:31Z</time>
      </trkpt>
      <trkpt lat="49.18596" lon="6.93343">
        <ele>362</ele>
        <time>2011-09-25T06:48:32Z</time>
      </trkpt>
      <trkpt lat="49.18596" lon="6.93341">
        <ele>362</ele>
        <time>2011-09-25T06:48:33Z</time>
      </trkpt>
      <trkpt lat="49.18595" lon="6.93339">
        <ele>362</ele>
        <time>2011-09-25T06:48:34Z</time>
      </trkpt>
      <trkpt lat="49.18595" lon="6.93337">
        <ele>362</ele>
        <time>2011-09-25T06:48:35Z</time>
      </trkpt>
      <trkpt lat="49.18595" lon="6.93335">
        <ele>362</ele>
        <time>2011-09-25T06:48:36Z</time>
      </trkpt>
      <trkpt lat="49.18595" lon="6.93333">
        <ele>362</ele>
        <time>2011-09-25T06:48:37Z</time>
      </trkpt>
      <trkpt lat="49.18594" lon="6.93331">
        <ele>362</ele>
        <time>2011-09-25T06:48:38Z</time>
      </trkpt>
      <trkpt lat="49.18594" lon="6.93329">
        <ele>362</ele>
        <time>2011-09-25T06:48:39Z</time>
      </trkpt>
      <trkpt lat="49.18594" lon="6.93327">
        <ele>362</ele>
        <time>2011-09-25T06:48:40Z</time>
      </trkpt>
      <trkpt lat="49.18594" lon="6.93325">
        <ele>362</ele>
        <time>2011-09-25T06:48:41Z</time>
      </trkpt>
      <trkpt lat="49.18594" lon="6.93323">
        <ele>362</ele>
        <time>2011-09-25T06:48:42Z</time>
      </trkpt>
      <trkpt lat="49.18594" lon="6.93321">
        <ele>362</ele>
        <time>2011-09-25T06:48:43Z</time>
      </trkpt>
      <trkpt lat="49.18594" lon="6.93319">
        <ele>362</ele>
        <time>2011-09-25T06:48:44Z</time>
      </trkpt>
      <trkpt lat="49.18593" lon="6.93317">
        <ele>362</ele>
        <time>2011-09-25T06:48:45Z</time>
      </trkpt>
      <trkpt lat="49.18593" lon="6.93315">
        <ele>362</ele>
        <time>2011-09-25T06:48:46Z</time>
      </trkpt>
      <trkpt lat="49.18593" lon="6.93314">
        <ele>362</ele>
        <time>2011-09-25T06:48:47Z</time>
      </trkpt>
      <trkpt lat="49.18593" lon="6.93312">
        <ele>362</ele>
        <time>2011-09-25T06:48:48Z</time>
      </trkpt>
      <trkpt lat="49.18592" lon="6.9331">
        <ele>362</ele>
        <time>2011-09-25T06:48:49Z</time>
      </trkpt>
      <trkpt lat="49.18592" lon="6.93307">
        <ele>362</ele>
        <time>2011-09-25T06:48:50Z</time>
      </trkpt>
      <trkpt lat="49.18592" lon="6.93305">
        <ele>362</ele>
        <time>2011-09-25T06:48:51Z</time>
      </trkpt>
      <trkpt lat="49.18592" lon="6.93303">
        <ele>362</ele>
        <time>2011-09-25T06:48:52Z</time>
      </trkpt>
      <trkpt lat="49.18592" lon="6.93301">
        <ele>362</ele>
        <time>2011-09-25T06:48:53Z</time>
      </trkpt>
      <trkpt lat="49.18591" lon="6.93299">
        <ele>362</ele>
        <time>2011-09-25T06:48:54Z</time>
      </trkpt>
      <trkpt lat="49.18591" lon="6.93297">
        <ele>362</ele>
        <time>2011-09-25T06:48:55Z</time>
      </trkpt>
      <trkpt lat="49.18591" lon="6.93295">
        <ele>362</ele>
        <time>2011-09-25T06:48:56Z</time>
      </trkpt>
      <trkpt lat="49.18591" lon="6.93293">
        <ele>362</ele>
        <time>2011-09-25T06:48:57Z</time>
      </trkpt>
      <trkpt lat="49.18591" lon="6.93291">
        <ele>362</ele>
        <time>2011-09-25T06:48:58Z</time>
      </trkpt>
      <trkpt lat="49.1859" lon="6.93289">
        <ele>362</ele>
        <time>2011-09-25T06:48:59Z</time>
      </trkpt>
      <trkpt lat="49.1859" lon="6.93287">
        <ele>362</ele>
        <time>2011-09-25T06:49:00Z</time>
      </trkpt>
      <trkpt lat="49.1859" lon="6.93285">
        <ele>362</ele>
        <time>2011-09-25T06:49:01Z</time>
      </trkpt>
      <trkpt lat="49.1859" lon="6.93283">
        <ele>362</ele>
        <time>2011-09-25T06:49:02Z</time>
      </trkpt>
      <trkpt lat="49.1859" lon="6.93281">
        <ele>362</ele>
        <time>2011-09-25T06:49:03Z</time>
      </trkpt>
      <trkpt lat="49.18589" lon="6.93279">
        <ele>362</ele>
        <time>2011-09-25T06:49:04Z</time>
      </trkpt>
      <trkpt lat="49.18589" lon="6.93277">
        <ele>362</ele>
        <time>2011-09-25T06:49:05Z</time>
      </trkpt>
      <trkpt lat="49.18589" lon="6.93275">
        <ele>362</ele>
        <time>2011-09-25T06:49:06Z</time>
      </trkpt>
      <trkpt lat="49.18589" lon="6.93273">
        <ele>362</ele>
        <time>2011-09-25T06:49:07Z</time>
      </trkpt>
      <trkpt lat="49.18589" lon="6.93271">
        <ele>362</ele>
        <time>2011-09-25T06:49:08Z</time>
      </trkpt>
      <trkpt lat="49.18588" lon="6.9327">
        <ele>362</ele>
        <time>2011-09-25T06:49:09Z</time>
      </trkpt>
      <trkpt lat="49.18588" lon="6.93268">
        <ele>362</ele>
        <time>2011-09-25T06:49:10Z</time>
      </trkpt>
      <trkpt lat="49.18588" lon="6.93266">
        <ele>363</ele>
        <time>2011-09-25T06:49:11Z</time>
      </trkpt>
      <trkpt lat="49.18588" lon="6.93264">
        <ele>363</ele>
        <time>2011-09-25T06:49:12Z</time>
      </trkpt>
      <trkpt lat="49.18587" lon="6.93262">
        <ele>363</ele>
        <time>2011-09-25T06:49:13Z</time>
      </trkpt>
      <trkpt lat="49.18587" lon="6.9326">
        <ele>363</ele>
        <time>2011-09-25T06:49:14Z</time>
      </trkpt>
      <trkpt lat="49.18587" lon="6.93258">
        <ele>363</ele>
        <time>2011-09-25T06:49:15Z</time>
      </trkpt>
      <trkpt lat="49.18587" lon="6.93257">
        <ele>363</ele>
        <time>2011-09-25T06:49:16Z</time>
      </trkpt>
      <trkpt lat="49.18586" lon="6.93255">
        <ele>363</ele>
        <time>2011-09-25T06:49:17Z</time>
      </trkpt>
      <trkpt lat="49.18586" lon="6.93253">
        <ele>364</ele>
        <time>2011-09-25T06:49:18Z</time>
      </trkpt>
      <trkpt lat="49.18586" lon="6.93252">
        <ele>364</ele>
        <time>2011-09-25T06:49:19Z</time>
      </trkpt>
      <trkpt lat="49.18586" lon="6.9325">
        <ele>364</ele>
        <time>2011-09-25T06:49:20Z</time>
      </trkpt>
      <trkpt lat="49.18586" lon="6.93247">
        <ele>364</ele>
        <time>2011-09-25T06:49:22Z</time>
      </trkpt>
      <trkpt lat="49.18586" lon="6.93245">
        <ele>364</ele>
        <time>2011-09-25T06:49:23Z</time>
      </trkpt>
      <trkpt lat="49.18586" lon="6.93243">
        <ele>364</ele>
        <time>2011-09-25T06:49:24Z</time>
      </trkpt>
      <trkpt lat="49.18585" lon="6.93241">
        <ele>364</ele>
        <time>2011-09-25T06:49:25Z</time>
      </trkpt>
      <trkpt lat="49.18585" lon="6.9324">
        <ele>365</ele>
        <time>2011-09-25T06:49:26Z</time>
      </trkpt>
      <trkpt lat="49.18585" lon="6.93238">
        <ele>365</ele>
        <time>2011-09-25T06:49:27Z</time>
      </trkpt>
      <trkpt lat="49.18585" lon="6.93236">
        <ele>365</ele>
        <time>2011-09-25T06:49:28Z</time>
      </trkpt>
      <trkpt lat="49.18584" lon="6.93234">
        <ele>365</ele>
        <time>2011-09-25T06:49:29Z</time>
      </trkpt>
      <trkpt lat="49.18584" lon="6.93232">
        <ele>365</ele>
        <time>2011-09-25T06:49:30Z</time>
      </trkpt>
      <trkpt lat="49.18584" lon="6.93231">
        <ele>365</ele>
        <time>2011-09-25T06:49:31Z</time>
      </trkpt>
      <trkpt lat="49.18584" lon="6.93229">
        <ele>365</ele>
        <time>2011-09-25T06:49:32Z</time>
      </trkpt>
      <trkpt lat="49.18584" lon="6.93227">
        <ele>365</ele>
        <time>2011-09-25T06:49:33Z</time>
      </trkpt>
      <trkpt lat="49.18584" lon="6.93225">
        <ele>365</ele>
        <time>2011-09-25T06:49:34Z</time>
      </trkpt>
      <trkpt lat="49.18584" lon="6.93223">
        <ele>365</ele>
        <time>2011-09-25T06:49:35Z</time>
      </trkpt>
      <trkpt lat="49.18584" lon="6.93221">
        <ele>365</ele>
        <time>2011-09-25T06:49:36Z</time>
      </trkpt>
      <trkpt lat="49.18584" lon="6.93219">
        <ele>365</ele>
        <time>2011-09-25T06:49:38Z</time>
      </trkpt>
      <trkpt lat="49.18584" lon="6.93217">
        <ele>365</ele>
        <time>2011-09-25T06:49:39Z</time>
      </trkpt>
      <trkpt lat="49.18583" lon="6.93215">
        <ele>365</ele>
        <time>2011-09-25T06:49:40Z</time>
      </trkpt>
      <trkpt lat="49.18583" lon="6.93213">
        <ele>365</ele>
        <time>2011-09-25T06:49:41Z</time>
      </trkpt>
      <trkpt lat="49.18583" lon="6.9321">
        <ele>365</ele>
        <time>2011-09-25T06:49:43Z</time>
      </trkpt>
      <trkpt lat="49.18582" lon="6.93209">
        <ele>365</ele>
        <time>2011-09-25T06:49:44Z</time>
      </trkpt>
      <trkpt lat="49.18582" lon="6.93207">
        <ele>365</ele>
        <time>2011-09-25T06:49:45Z</time>
      </trkpt>
      <trkpt lat="49.18582" lon="6.93204">
        <ele>365</ele>
        <time>2011-09-25T06:49:46Z</time>
      </trkpt>
      <trkpt lat="49.18582" lon="6.93202">
        <ele>366</ele>
        <time>2011-09-25T06:49:47Z</time>
      </trkpt>
      <trkpt lat="49.18582" lon="6.93201">
        <ele>366</ele>
        <time>2011-09-25T06:49:48Z</time>
      </trkpt>
      <trkpt lat="49.18582" lon="6.93199">
        <ele>366</ele>
        <time>2011-09-25T06:49:49Z</time>
      </trkpt>
      <trkpt lat="49.18582" lon="6.93197">
        <ele>366</ele>
        <time>2011-09-25T06:49:50Z</time>
      </trkpt>
      <trkpt lat="49.18582" lon="6.93195">
        <ele>366</ele>
        <time>2011-09-25T06:49:51Z</time>
      </trkpt>
      <trkpt lat="49.18582" lon="6.93193">
        <ele>366</ele>
        <time>2011-09-25T06:49:52Z</time>
      </trkpt>
      <trkpt lat="49.18582" lon="6.93192">
        <ele>366</ele>
        <time>2011-09-25T06:49:53Z</time>
      </trkpt>
      <trkpt lat="49.18582" lon="6.9319">
        <ele>366</ele>
        <time>2011-09-25T06:49:54Z</time>
      </trkpt>
      <trkpt lat="49.18581" lon="6.93188">
        <ele>366</ele>
        <time>2011-09-25T06:49:55Z</time>
      </trkpt>
      <trkpt lat="49.18581" lon="6.93186">
        <ele>366</ele>
        <time>2011-09-25T06:49:56Z</time>
      </trkpt>
      <trkpt lat="49.18581" lon="6.93185">
        <ele>367</ele>
        <time>2011-09-25T06:49:57Z</time>
      </trkpt>
      <trkpt lat="49.18581" lon="6.93182">
        <ele>367</ele>
        <time>2011-09-25T06:49:58Z</time>
      </trkpt>
      <trkpt lat="49.18581" lon="6.93181">
        <ele>367</ele>
        <time>2011-09-25T06:49:59Z</time>
      </trkpt>
      <trkpt lat="49.18581" lon="6.93179">
        <ele>367</ele>
        <time>2011-09-25T06:50:00Z</time>
      </trkpt>
      <trkpt lat="49.18581" lon="6.93177">
        <ele>367</ele>
        <time>2011-09-25T06:50:01Z</time>
      </trkpt>
      <trkpt lat="49.18581" lon="6.93175">
        <ele>367</ele>
        <time>2011-09-25T06:50:02Z</time>
      </trkpt>
      <trkpt lat="49.18581" lon="6.93173">
        <ele>367</ele>
        <time>2011-09-25T06:50:03Z</time>
      </trkpt>
      <trkpt lat="49.18581" lon="6.93171">
        <ele>367</ele>
        <time>2011-09-25T06:50:04Z</time>
      </trkpt>
      <trkpt lat="49.18581" lon="6.93169">
        <ele>367</ele>
        <time>2011-09-25T06:50:05Z</time>
      </trkpt>
      <trkpt lat="49.18581" lon="6.93167">
        <ele>368</ele>
        <time>2011-09-25T06:50:06Z</time>
      </trkpt>
      <trkpt lat="49.18581" lon="6.93165">
        <ele>368</ele>
        <time>2011-09-25T06:50:07Z</time>
      </trkpt>
      <trkpt lat="49.1858" lon="6.93163">
        <ele>368</ele>
        <time>2011-09-25T06:50:08Z</time>
      </trkpt>
      <trkpt lat="49.1858" lon="6.9316">
        <ele>368</ele>
        <time>2011-09-25T06:50:10Z</time>
      </trkpt>
      <trkpt lat="49.1858" lon="6.93158">
        <ele>368</ele>
        <time>2011-09-25T06:50:11Z</time>
      </trkpt>
      <trkpt lat="49.1858" lon="6.93157">
        <ele>368</ele>
        <time>2011-09-25T06:50:12Z</time>
      </trkpt>
      <trkpt lat="49.1858" lon="6.93155">
        <ele>368</ele>
        <time>2011-09-25T06:50:13Z</time>
      </trkpt>
      <trkpt lat="49.18579" lon="6.93153">
        <ele>368</ele>
        <time>2011-09-25T06:50:14Z</time>
      </trkpt>
      <trkpt lat="49.18579" lon="6.93152">
        <ele>368</ele>
        <time>2011-09-25T06:50:15Z</time>
      </trkpt>
      <trkpt lat="49.18579" lon="6.9315">
        <ele>368</ele>
        <time>2011-09-25T06:50:16Z</time>
      </trkpt>
      <trkpt lat="49.18579" lon="6.93148">
        <ele>368</ele>
        <time>2011-09-25T06:50:17Z</time>
      </trkpt>
      <trkpt lat="49.18578" lon="6.93146">
        <ele>368</ele>
        <time>2011-09-25T06:50:18Z</time>
      </trkpt>
      <trkpt lat="49.18578" lon="6.93144">
        <ele>368</ele>
        <time>2011-09-25T06:50:19Z</time>
      </trkpt>
      <trkpt lat="49.18578" lon="6.93142">
        <ele>368</ele>
        <time>2011-09-25T06:50:20Z</time>
      </trkpt>
      <trkpt lat="49.18578" lon="6.9314">
        <ele>368</ele>
        <time>2011-09-25T06:50:21Z</time>
      </trkpt>
      <trkpt lat="49.18578" lon="6.93138">
        <ele>368</ele>
        <time>2011-09-25T06:50:22Z</time>
      </trkpt>
      <trkpt lat="49.18577" lon="6.93136">
        <ele>368</ele>
        <time>2011-09-25T06:50:23Z</time>
      </trkpt>
      <trkpt lat="49.18577" lon="6.93133">
        <ele>369</ele>
        <time>2011-09-25T06:50:24Z</time>
      </trkpt>
      <trkpt lat="49.18576" lon="6.93132">
        <ele>369</ele>
        <time>2011-09-25T06:50:25Z</time>
      </trkpt>
      <trkpt lat="49.18575" lon="6.9313">
        <ele>369</ele>
        <time>2011-09-25T06:50:26Z</time>
      </trkpt>
      <trkpt lat="49.18574" lon="6.93128">
        <ele>370</ele>
        <time>2011-09-25T06:50:27Z</time>
      </trkpt>
      <trkpt lat="49.18574" lon="6.93126">
        <ele>370</ele>
        <time>2011-09-25T06:50:28Z</time>
      </trkpt>
      <trkpt lat="49.18574" lon="6.93124">
        <ele>370</ele>
        <time>2011-09-25T06:50:29Z</time>
      </trkpt>
      <trkpt lat="49.18574" lon="6.93122">
        <ele>371</ele>
        <time>2011-09-25T06:50:30Z</time>
      </trkpt>
      <trkpt lat="49.18574" lon="6.9312">
        <ele>371</ele>
        <time>2011-09-25T06:50:31Z</time>
      </trkpt>
      <trkpt lat="49.18574" lon="6.93118">
        <ele>371</ele>
        <time>2011-09-25T06:50:32Z</time>
      </trkpt>
      <trkpt lat="49.18574" lon="6.93116">
        <ele>371</ele>
        <time>2011-09-25T06:50:33Z</time>
      </trkpt>
      <trkpt lat="49.18574" lon="6.93114">
        <ele>371</ele>
        <time>2011-09-25T06:50:34Z</time>
      </trkpt>
      <trkpt lat="49.18573" lon="6.93112">
        <ele>371</ele>
        <time>2011-09-25T06:50:35Z</time>
      </trkpt>
      <trkpt lat="49.18573" lon="6.93111">
        <ele>371</ele>
        <time>2011-09-25T06:50:36Z</time>
      </trkpt>
      <trkpt lat="49.18573" lon="6.93109">
        <ele>371</ele>
        <time>2011-09-25T06:50:37Z</time>
      </trkpt>
      <trkpt lat="49.18573" lon="6.93107">
        <ele>371</ele>
        <time>2011-09-25T06:50:38Z</time>
      </trkpt>
      <trkpt lat="49.18573" lon="6.93105">
        <ele>371</ele>
        <time>2011-09-25T06:50:39Z</time>
      </trkpt>
      <trkpt lat="49.18573" lon="6.93103">
        <ele>371</ele>
        <time>2011-09-25T06:50:40Z</time>
      </trkpt>
      <trkpt lat="49.18573" lon="6.93101">
        <ele>371</ele>
        <time>2011-09-25T06:50:41Z</time>
      </trkpt>
      <trkpt lat="49.18573" lon="6.93099">
        <ele>371</ele>
        <time>2011-09-25T06:50:42Z</time>
      </trkpt>
      <trkpt lat="49.18573" lon="6.93097">
        <ele>371</ele>
        <time>2011-09-25T06:50:43Z</time>
      </trkpt>
      <trkpt lat="49.18573" lon="6.93095">
        <ele>371</ele>
        <time>2011-09-25T06:50:44Z</time>
      </trkpt>
      <trkpt lat="49.18572" lon="6.93094">
        <ele>371</ele>
        <time>2011-09-25T06:50:45Z</time>
      </trkpt>
      <trkpt lat="49.18572" lon="6.93092">
        <ele>371</ele>
        <time>2011-09-25T06:50:46Z</time>
      </trkpt>
      <trkpt lat="49.18572" lon="6.93089">
        <ele>371</ele>
        <time>2011-09-25T06:50:47Z</time>
      </trkpt>
      <trkpt lat="49.18572" lon="6.93088">
        <ele>371</ele>
        <time>2011-09-25T06:50:48Z</time>
      </trkpt>
      <trkpt lat="49.18572" lon="6.93086">
        <ele>371</ele>
        <time>2011-09-25T06:50:49Z</time>
      </trkpt>
      <trkpt lat="49.18572" lon="6.93084">
        <ele>371</ele>
        <time>2011-09-25T06:50:50Z</time>
      </trkpt>
      <trkpt lat="49.18572" lon="6.93083">
        <ele>371</ele>
        <time>2011-09-25T06:50:51Z</time>
      </trkpt>
      <trkpt lat="49.18572" lon="6.93081">
        <ele>371</ele>
        <time>2011-09-25T06:50:52Z</time>
      </trkpt>
      <trkpt lat="49.18572" lon="6.93079">
        <ele>371</ele>
        <time>2011-09-25T06:50:53Z</time>
      </trkpt>
      <trkpt lat="49.18573" lon="6.93077">
        <ele>371</ele>
        <time>2011-09-25T06:50:54Z</time>
      </trkpt>
      <trkpt lat="49.18573" lon="6.93075">
        <ele>371</ele>
        <time>2011-09-25T06:50:55Z</time>
      </trkpt>
      <trkpt lat="49.18573" lon="6.93073">
        <ele>371</ele>
        <time>2011-09-25T06:50:56Z</time>
      </trkpt>
      <trkpt lat="49.18573" lon="6.93071">
        <ele>371</ele>
        <time>2011-09-25T06:50:57Z</time>
      </trkpt>
      <trkpt lat="49.18573" lon="6.93069">
        <ele>371</ele>
        <time>2011-09-25T06:50:58Z</time>
      </trkpt>
      <trkpt lat="49.18574" lon="6.93068">
        <ele>371</ele>
        <time>2011-09-25T06:50:59Z</time>
      </trkpt>
      <trkpt lat="49.18574" lon="6.93066">
        <ele>371</ele>
        <time>2011-09-25T06:51:00Z</time>
      </trkpt>
      <trkpt lat="49.18575" lon="6.93064">
        <ele>371</ele>
        <time>2011-09-25T06:51:02Z</time>
      </trkpt>
      <trkpt lat="49.18577" lon="6.93063">
        <ele>371</ele>
        <time>2011-09-25T06:51:05Z</time>
      </trkpt>
      <trkpt lat="49.18579" lon="6.93063">
        <ele>371</ele>
        <time>2011-09-25T06:51:07Z</time>
      </trkpt>
      <trkpt lat="49.18581" lon="6.93063">
        <ele>371</ele>
        <time>2011-09-25T06:51:09Z</time>
      </trkpt>
      <trkpt lat="49.18582" lon="6.93063">
        <ele>371</ele>
        <time>2011-09-25T06:51:10Z</time>
      </trkpt>
      <trkpt lat="49.18584" lon="6.93063">
        <ele>371</ele>
        <time>2011-09-25T06:51:11Z</time>
      </trkpt>
      <trkpt lat="49.18585" lon="6.93064">
        <ele>371</ele>
        <time>2011-09-25T06:51:13Z</time>
      </trkpt>
      <trkpt lat="49.18587" lon="6.93064">
        <ele>371</ele>
        <time>2011-09-25T06:51:15Z</time>
      </trkpt>
      <trkpt lat="49.18589" lon="6.93064">
        <ele>372</ele>
        <time>2011-09-25T06:51:17Z</time>
      </trkpt>
      <trkpt lat="49.1859" lon="6.93064">
        <ele>372</ele>
        <time>2011-09-25T06:51:18Z</time>
      </trkpt>
      <trkpt lat="49.18592" lon="6.93065">
        <ele>372</ele>
        <time>2011-09-25T06:51:19Z</time>
      </trkpt>
      <trkpt lat="49.18594" lon="6.93065">
        <ele>372</ele>
        <time>2011-09-25T06:51:21Z</time>
      </trkpt>
      <trkpt lat="49.18596" lon="6.93065">
        <ele>372</ele>
        <time>2011-09-25T06:51:23Z</time>
      </trkpt>
      <trkpt lat="49.18597" lon="6.93065">
        <ele>372</ele>
        <time>2011-09-25T06:51:24Z</time>
      </trkpt>
      <trkpt lat="49.18598" lon="6.93065">
        <ele>372</ele>
        <time>2011-09-25T06:51:25Z</time>
      </trkpt>
      <trkpt lat="49.186" lon="6.93066">
        <ele>372</ele>
        <time>2011-09-25T06:51:27Z</time>
      </trkpt>
      <trkpt lat="49.18603" lon="6.93066">
        <ele>372</ele>
        <time>2011-09-25T06:51:29Z</time>
      </trkpt>
      <trkpt lat="49.18605" lon="6.93067">
        <ele>372</ele>
        <time>2011-09-25T06:51:31Z</time>
      </trkpt>
      <trkpt lat="49.18607" lon="6.93067">
        <ele>372</ele>
        <time>2011-09-25T06:51:32Z</time>
      </trkpt>
      <trkpt lat="49.18608" lon="6.93067">
        <ele>372</ele>
        <time>2011-09-25T06:51:33Z</time>
      </trkpt>
      <trkpt lat="49.1861" lon="6.93067">
        <ele>372</ele>
        <time>2011-09-25T06:51:35Z</time>
      </trkpt>
      <trkpt lat="49.18612" lon="6.93067">
        <ele>373</ele>
        <time>2011-09-25T06:51:36Z</time>
      </trkpt>
      <trkpt lat="49.18613" lon="6.93067">
        <ele>373</ele>
        <time>2011-09-25T06:51:37Z</time>
      </trkpt>
      <trkpt lat="49.18614" lon="6.93068">
        <ele>373</ele>
        <time>2011-09-25T06:51:38Z</time>
      </trkpt>
      <trkpt lat="49.18616" lon="6.93068">
        <ele>373</ele>
        <time>2011-09-25T06:51:40Z</time>
      </trkpt>
      <trkpt lat="49.18618" lon="6.93069">
        <ele>373</ele>
        <time>2011-09-25T06:51:42Z</time>
      </trkpt>
      <trkpt lat="49.18619" lon="6.9307">
        <ele>373</ele>
        <time>2011-09-25T06:51:43Z</time>
      </trkpt>
      <trkpt lat="49.18621" lon="6.9307">
        <ele>374</ele>
        <time>2011-09-25T06:51:45Z</time>
      </trkpt>
      <trkpt lat="49.18623" lon="6.93071">
        <ele>374</ele>
        <time>2011-09-25T06:51:47Z</time>
      </trkpt>
      <trkpt lat="49.18625" lon="6.93071">
        <ele>374</ele>
        <time>2011-09-25T06:51:49Z</time>
      </trkpt>
      <trkpt lat="49.18627" lon="6.93072">
        <ele>374</ele>
        <time>2011-09-25T06:51:51Z</time>
      </trkpt>
      <trkpt lat="49.18628" lon="6.93072">
        <ele>374</ele>
        <time>2011-09-25T06:51:52Z</time>
      </trkpt>
      <trkpt lat="49.18631" lon="6.93073">
        <ele>374</ele>
        <time>2011-09-25T06:51:54Z</time>
      </trkpt>
      <trkpt lat="49.18632" lon="6.93074">
        <ele>374</ele>
        <time>2011-09-25T06:51:55Z</time>
      </trkpt>
      <trkpt lat="49.18634" lon="6.93074">
        <ele>374</ele>
        <time>2011-09-25T06:51:56Z</time>
      </trkpt>
      <trkpt lat="49.18635" lon="6.93074">
        <ele>375</ele>
        <time>2011-09-25T06:51:57Z</time>
      </trkpt>
      <trkpt lat="49.18636" lon="6.93074">
        <ele>375</ele>
        <time>2011-09-25T06:51:58Z</time>
      </trkpt>
      <trkpt lat="49.18639" lon="6.93075">
        <ele>375</ele>
        <time>2011-09-25T06:52:00Z</time>
      </trkpt>
      <trkpt lat="49.18641" lon="6.93076">
        <ele>375</ele>
        <time>2011-09-25T06:52:02Z</time>
      </trkpt>
      <trkpt lat="49.18642" lon="6.93076">
        <ele>375</ele>
        <time>2011-09-25T06:52:03Z</time>
      </trkpt>
      <trkpt lat="49.18643" lon="6.93076">
        <ele>375</ele>
        <time>2011-09-25T06:52:04Z</time>
      </trkpt>
      <trkpt lat="49.18644" lon="6.93076">
        <ele>375</ele>
        <time>2011-09-25T06:52:05Z</time>
      </trkpt>
      <trkpt lat="49.18647" lon="6.93077">
        <ele>375</ele>
        <time>2011-09-25T06:52:07Z</time>
      </trkpt>
      <trkpt lat="49.18649" lon="6.93079">
        <ele>375</ele>
        <time>2011-09-25T06:52:08Z</time>
      </trkpt>
      <trkpt lat="49.1865" lon="6.9308">
        <ele>376</ele>
        <time>2011-09-25T06:52:09Z</time>
      </trkpt>
      <trkpt lat="49.18651" lon="6.9308">
        <ele>376</ele>
        <time>2011-09-25T06:52:10Z</time>
      </trkpt>
      <trkpt lat="49.18652" lon="6.9308">
        <ele>377</ele>
        <time>2011-09-25T06:52:11Z</time>
      </trkpt>
      <trkpt lat="49.18654" lon="6.9308">
        <ele>377</ele>
        <time>2011-09-25T06:52:13Z</time>
      </trkpt>
      <trkpt lat="49.18655" lon="6.93081">
        <ele>377</ele>
        <time>2011-09-25T06:52:14Z</time>
      </trkpt>
      <trkpt lat="49.18657" lon="6.93082">
        <ele>377</ele>
        <time>2011-09-25T06:52:15Z</time>
      </trkpt>
      <trkpt lat="49.18659" lon="6.93083">
        <ele>377</ele>
        <time>2011-09-25T06:52:17Z</time>
      </trkpt>
      <trkpt lat="49.1866" lon="6.93083">
        <ele>377</ele>
        <time>2011-09-25T06:52:18Z</time>
      </trkpt>
      <trkpt lat="49.18662" lon="6.93085">
        <ele>377</ele>
        <time>2011-09-25T06:52:20Z</time>
      </trkpt>
      <trkpt lat="49.18664" lon="6.93086">
        <ele>378</ele>
        <time>2011-09-25T06:52:22Z</time>
      </trkpt>
      <trkpt lat="49.18665" lon="6.93086">
        <ele>378</ele>
        <time>2011-09-25T06:52:23Z</time>
      </trkpt>
      <trkpt lat="49.18667" lon="6.93087">
        <ele>378</ele>
        <time>2011-09-25T06:52:25Z</time>
      </trkpt>
      <trkpt lat="49.18668" lon="6.93089">
        <ele>378</ele>
        <time>2011-09-25T06:52:26Z</time>
      </trkpt>
      <trkpt lat="49.1867" lon="6.93089">
        <ele>378</ele>
        <time>2011-09-25T06:52:28Z</time>
      </trkpt>
      <trkpt lat="49.18672" lon="6.9309">
        <ele>378</ele>
        <time>2011-09-25T06:52:30Z</time>
      </trkpt>
      <trkpt lat="49.18674" lon="6.93092">
        <ele>378</ele>
        <time>2011-09-25T06:52:32Z</time>
      </trkpt>
      <trkpt lat="49.18676" lon="6.93093">
        <ele>379</ele>
        <time>2011-09-25T06:52:34Z</time>
      </trkpt>
      <trkpt lat="49.18677" lon="6.93093">
        <ele>379</ele>
        <time>2011-09-25T06:52:35Z</time>
      </trkpt>
      <trkpt lat="49.18679" lon="6.93094">
        <ele>380</ele>
        <time>2011-09-25T06:52:36Z</time>
      </trkpt>
      <trkpt lat="49.1868" lon="6.93094">
        <ele>380</ele>
        <time>2011-09-25T06:52:37Z</time>
      </trkpt>
      <trkpt lat="49.18682" lon="6.93094">
        <ele>381</ele>
        <time>2011-09-25T06:52:39Z</time>
      </trkpt>
      <trkpt lat="49.18683" lon="6.93093">
        <ele>382</ele>
        <time>2011-09-25T06:52:41Z</time>
      </trkpt>
      <trkpt lat="49.18685" lon="6.93092">
        <ele>382</ele>
        <time>2011-09-25T06:52:43Z</time>
      </trkpt>
      <trkpt lat="49.18686" lon="6.93091">
        <ele>382</ele>
        <time>2011-09-25T06:52:44Z</time>
      </trkpt>
      <trkpt lat="49.18688" lon="6.9309">
        <ele>383</ele>
        <time>2011-09-25T06:52:46Z</time>
      </trkpt>
      <trkpt lat="49.18689" lon="6.93089">
        <ele>383</ele>
        <time>2011-09-25T06:52:48Z</time>
      </trkpt>
      <trkpt lat="49.18691" lon="6.93088">
        <ele>383</ele>
        <time>2011-09-25T06:52:50Z</time>
      </trkpt>
      <trkpt lat="49.18692" lon="6.93085">
        <ele>383</ele>
        <time>2011-09-25T06:52:52Z</time>
      </trkpt>
      <trkpt lat="49.18694" lon="6.93084">
        <ele>383</ele>
        <time>2011-09-25T06:52:55Z</time>
      </trkpt>
      <trkpt lat="49.18695" lon="6.93082">
        <ele>383</ele>
        <time>2011-09-25T06:52:58Z</time>
      </trkpt>
      <trkpt lat="49.18696" lon="6.9308">
        <ele>384</ele>
        <time>2011-09-25T06:53:01Z</time>
      </trkpt>
      <trkpt lat="49.18695" lon="6.93078">
        <ele>384</ele>
        <time>2011-09-25T06:53:02Z</time>
      </trkpt>
      <trkpt lat="49.18696" lon="6.93076">
        <ele>384</ele>
        <time>2011-09-25T06:53:04Z</time>
      </trkpt>
      <trkpt lat="49.18697" lon="6.93073">
        <ele>385</ele>
        <time>2011-09-25T06:53:06Z</time>
      </trkpt>
      <trkpt lat="49.18699" lon="6.93071">
        <ele>385</ele>
        <time>2011-09-25T06:53:08Z</time>
      </trkpt>
      <trkpt lat="49.187" lon="6.9307">
        <ele>385</ele>
        <time>2011-09-25T06:53:09Z</time>
      </trkpt>
      <trkpt lat="49.18703" lon="6.93067">
        <ele>385</ele>
        <time>2011-09-25T06:53:11Z</time>
      </trkpt>
      <trkpt lat="49.18704" lon="6.93066">
        <ele>385</ele>
        <time>2011-09-25T06:53:12Z</time>
      </trkpt>
      <trkpt lat="49.18705" lon="6.93065">
        <ele>385</ele>
        <time>2011-09-25T06:53:13Z</time>
      </trkpt>
      <trkpt lat="49.18707" lon="6.93062">
        <ele>385</ele>
        <time>2011-09-25T06:53:15Z</time>
      </trkpt>
      <trkpt lat="49.18708" lon="6.93059">
        <ele>385</ele>
        <time>2011-09-25T06:53:16Z</time>
      </trkpt>
      <trkpt lat="49.18708" lon="6.93057">
        <ele>385</ele>
        <time>2011-09-25T06:53:17Z</time>
      </trkpt>
      <trkpt lat="49.1871" lon="6.93054">
        <ele>386</ele>
        <time>2011-09-25T06:53:19Z</time>
      </trkpt>
      <trkpt lat="49.18711" lon="6.93052">
        <ele>386</ele>
        <time>2011-09-25T06:53:20Z</time>
      </trkpt>
      <trkpt lat="49.18712" lon="6.93051">
        <ele>387</ele>
        <time>2011-09-25T06:53:21Z</time>
      </trkpt>
      <trkpt lat="49.18714" lon="6.93049">
        <ele>387</ele>
        <time>2011-09-25T06:53:23Z</time>
      </trkpt>
      <trkpt lat="49.18716" lon="6.93049">
        <ele>387</ele>
        <time>2011-09-25T06:53:24Z</time>
      </trkpt>
      <trkpt lat="49.18718" lon="6.93049">
        <ele>387</ele>
        <time>2011-09-25T06:53:25Z</time>
      </trkpt>
      <trkpt lat="49.18719" lon="6.93047">
        <ele>387</ele>
        <time>2011-09-25T06:53:27Z</time>
      </trkpt>
      <trkpt lat="49.18721" lon="6.93045">
        <ele>387</ele>
        <time>2011-09-25T06:53:29Z</time>
      </trkpt>
      <trkpt lat="49.18723" lon="6.93043">
        <ele>387</ele>
        <time>2011-09-25T06:53:30Z</time>
      </trkpt>
      <trkpt lat="49.18724" lon="6.93042">
        <ele>387</ele>
        <time>2011-09-25T06:53:31Z</time>
      </trkpt>
      <trkpt lat="49.18725" lon="6.93041">
        <ele>387</ele>
        <time>2011-09-25T06:53:32Z</time>
      </trkpt>
      <trkpt lat="49.18726" lon="6.9304">
        <ele>387</ele>
        <time>2011-09-25T06:53:33Z</time>
      </trkpt>
      <trkpt lat="49.18728" lon="6.93037">
        <ele>387</ele>
        <time>2011-09-25T06:53:35Z</time>
      </trkpt>
      <trkpt lat="49.1873" lon="6.93036">
        <ele>387</ele>
        <time>2011-09-25T06:53:36Z</time>
      </trkpt>
      <trkpt lat="49.18731" lon="6.93035">
        <ele>387</ele>
        <time>2011-09-25T06:53:37Z</time>
      </trkpt>
      <trkpt lat="49.18732" lon="6.93032">
        <ele>387</ele>
        <time>2011-09-25T06:53:39Z</time>
      </trkpt>
      <trkpt lat="49.18733" lon="6.93031">
        <ele>387</ele>
        <time>2011-09-25T06:53:40Z</time>
      </trkpt>
      <trkpt lat="49.18734" lon="6.93028">
        <ele>387</ele>
        <time>2011-09-25T06:53:42Z</time>
      </trkpt>
      <trkpt lat="49.18735" lon="6.93026">
        <ele>387</ele>
        <time>2011-09-25T06:53:43Z</time>
      </trkpt>
      <trkpt lat="49.18736" lon="6.93024">
        <ele>387</ele>
        <time>2011-09-25T06:53:45Z</time>
      </trkpt>
      <trkpt lat="49.18737" lon="6.93022">
        <ele>388</ele>
        <time>2011-09-25T06:53:46Z</time>
      </trkpt>
      <trkpt lat="49.18737" lon="6.93019">
        <ele>389</ele>
        <time>2011-09-25T06:53:48Z</time>
      </trkpt>
      <trkpt lat="49.18738" lon="6.93018">
        <ele>389</ele>
        <time>2011-09-25T06:53:49Z</time>
      </trkpt>
      <trkpt lat="49.18739" lon="6.93016">
        <ele>389</ele>
        <time>2011-09-25T06:53:50Z</time>
      </trkpt>
      <trkpt lat="49.18741" lon="6.93014">
        <ele>389</ele>
        <time>2011-09-25T06:53:52Z</time>
      </trkpt>
      <trkpt lat="49.18742" lon="6.93013">
        <ele>389</ele>
        <time>2011-09-25T06:53:53Z</time>
      </trkpt>
      <trkpt lat="49.18744" lon="6.93011">
        <ele>390</ele>
        <time>2011-09-25T06:53:55Z</time>
      </trkpt>
      <trkpt lat="49.18746" lon="6.93009">
        <ele>390</ele>
        <time>2011-09-25T06:53:57Z</time>
      </trkpt>
      <trkpt lat="49.18747" lon="6.93008">
        <ele>390</ele>
        <time>2011-09-25T06:53:58Z</time>
      </trkpt>
      <trkpt lat="49.18748" lon="6.93007">
        <ele>390</ele>
        <time>2011-09-25T06:53:59Z</time>
      </trkpt>
      <trkpt lat="49.1875" lon="6.93006">
        <ele>390</ele>
        <time>2011-09-25T06:54:00Z</time>
      </trkpt>
      <trkpt lat="49.18752" lon="6.93003">
        <ele>391</ele>
        <time>2011-09-25T06:54:02Z</time>
      </trkpt>
      <trkpt lat="49.18753" lon="6.93002">
        <ele>391</ele>
        <time>2011-09-25T06:54:03Z</time>
      </trkpt>
      <trkpt lat="49.18753" lon="6.93">
        <ele>392</ele>
        <time>2011-09-25T06:54:04Z</time>
      </trkpt>
      <trkpt lat="49.18753" lon="6.92998">
        <ele>392</ele>
        <time>2011-09-25T06:54:05Z</time>
      </trkpt>
      <trkpt lat="49.18754" lon="6.92996">
        <ele>392</ele>
        <time>2011-09-25T06:54:06Z</time>
      </trkpt>
      <trkpt lat="49.18755" lon="6.92993">
        <ele>393</ele>
        <time>2011-09-25T06:54:07Z</time>
      </trkpt>
      <trkpt lat="49.18755" lon="6.92992">
        <ele>393</ele>
        <time>2011-09-25T06:54:08Z</time>
      </trkpt>
      <trkpt lat="49.18757" lon="6.92989">
        <ele>394</ele>
        <time>2011-09-25T06:54:10Z</time>
      </trkpt>
      <trkpt lat="49.18758" lon="6.92988">
        <ele>394</ele>
        <time>2011-09-25T06:54:11Z</time>
      </trkpt>
      <trkpt lat="49.18759" lon="6.92987">
        <ele>394</ele>
        <time>2011-09-25T06:54:12Z</time>
      </trkpt>
      <trkpt lat="49.18761" lon="6.92984">
        <ele>395</ele>
        <time>2011-09-25T06:54:14Z</time>
      </trkpt>
      <trkpt lat="49.18763" lon="6.92982">
        <ele>395</ele>
        <time>2011-09-25T06:54:15Z</time>
      </trkpt>
      <trkpt lat="49.18764" lon="6.92979">
        <ele>395</ele>
        <time>2011-09-25T06:54:17Z</time>
      </trkpt>
      <trkpt lat="49.18766" lon="6.92977">
        <ele>395</ele>
        <time>2011-09-25T06:54:19Z</time>
      </trkpt>
      <trkpt lat="49.18766" lon="6.92975">
        <ele>395</ele>
        <time>2011-09-25T06:54:20Z</time>
      </trkpt>
      <trkpt lat="49.18767" lon="6.92973">
        <ele>395</ele>
        <time>2011-09-25T06:54:21Z</time>
      </trkpt>
      <trkpt lat="49.18768" lon="6.92971">
        <ele>395</ele>
        <time>2011-09-25T06:54:22Z</time>
      </trkpt>
      <trkpt lat="49.18768" lon="6.92969">
        <ele>395</ele>
        <time>2011-09-25T06:54:23Z</time>
      </trkpt>
      <trkpt lat="49.1877" lon="6.92967">
        <ele>395</ele>
        <time>2011-09-25T06:54:25Z</time>
      </trkpt>
      <trkpt lat="49.18771" lon="6.92966">
        <ele>395</ele>
        <time>2011-09-25T06:54:26Z</time>
      </trkpt>
      <trkpt lat="49.18773" lon="6.92965">
        <ele>396</ele>
        <time>2011-09-25T06:54:27Z</time>
      </trkpt>
      <trkpt lat="49.18774" lon="6.92964">
        <ele>396</ele>
        <time>2011-09-25T06:54:28Z</time>
      </trkpt>
      <trkpt lat="49.18775" lon="6.92961">
        <ele>396</ele>
        <time>2011-09-25T06:54:30Z</time>
      </trkpt>
      <trkpt lat="49.18776" lon="6.92959">
        <ele>396</ele>
        <time>2011-09-25T06:54:31Z</time>
      </trkpt>
      <trkpt lat="49.18776" lon="6.92957">
        <ele>396</ele>
        <time>2011-09-25T06:54:32Z</time>
      </trkpt>
      <trkpt lat="49.18777" lon="6.92955">
        <ele>396</ele>
        <time>2011-09-25T06:54:34Z</time>
      </trkpt>
      <trkpt lat="49.18779" lon="6.92954">
        <ele>396</ele>
        <time>2011-09-25T06:54:36Z</time>
      </trkpt>
      <trkpt lat="49.18782" lon="6.92951">
        <ele>396</ele>
        <time>2011-09-25T06:54:38Z</time>
      </trkpt>
      <trkpt lat="49.18784" lon="6.92949">
        <ele>396</ele>
        <time>2011-09-25T06:54:40Z</time>
      </trkpt>
      <trkpt lat="49.18786" lon="6.92948">
        <ele>396</ele>
        <time>2011-09-25T06:54:41Z</time>
      </trkpt>
      <trkpt lat="49.18787" lon="6.92946">
        <ele>396</ele>
        <time>2011-09-25T06:54:42Z</time>
      </trkpt>
      <trkpt lat="49.18788" lon="6.92944">
        <ele>396</ele>
        <time>2011-09-25T06:54:44Z</time>
      </trkpt>
      <trkpt lat="49.18789" lon="6.92942">
        <ele>396</ele>
        <time>2011-09-25T06:54:46Z</time>
      </trkpt>
      <trkpt lat="49.1879" lon="6.92941">
        <ele>396</ele>
        <time>2011-09-25T06:54:48Z</time>
      </trkpt>
      <trkpt lat="49.18791" lon="6.92939">
        <ele>396</ele>
        <time>2011-09-25T06:54:50Z</time>
      </trkpt>
      <trkpt lat="49.18792" lon="6.92938">
        <ele>396</ele>
        <time>2011-09-25T06:54:51Z</time>
      </trkpt>
      <trkpt lat="49.18794" lon="6.92935">
        <ele>396</ele>
        <time>2011-09-25T06:54:53Z</time>
      </trkpt>
      <trkpt lat="49.18795" lon="6.92933">
        <ele>395</ele>
        <time>2011-09-25T06:54:55Z</time>
      </trkpt>
      <trkpt lat="49.18797" lon="6.92932">
        <ele>394</ele>
        <time>2011-09-25T06:54:57Z</time>
      </trkpt>
      <trkpt lat="49.18799" lon="6.92929">
        <ele>393</ele>
        <time>2011-09-25T06:54:59Z</time>
      </trkpt>
      <trkpt lat="49.188" lon="6.92927">
        <ele>392</ele>
        <time>2011-09-25T06:55:01Z</time>
      </trkpt>
      <trkpt lat="49.18801" lon="6.92925">
        <ele>392</ele>
        <time>2011-09-25T06:55:03Z</time>
      </trkpt>
      <trkpt lat="49.18803" lon="6.92924">
        <ele>391</ele>
        <time>2011-09-25T06:55:04Z</time>
      </trkpt>
      <trkpt lat="49.18804" lon="6.92922">
        <ele>391</ele>
        <time>2011-09-25T06:55:05Z</time>
      </trkpt>
      <trkpt lat="49.18805" lon="6.9292">
        <ele>391</ele>
        <time>2011-09-25T06:55:06Z</time>
      </trkpt>
      <trkpt lat="49.18806" lon="6.92917">
        <ele>390</ele>
        <time>2011-09-25T06:55:08Z</time>
      </trkpt>
      <trkpt lat="49.18808" lon="6.92915">
        <ele>390</ele>
        <time>2011-09-25T06:55:10Z</time>
      </trkpt>
      <trkpt lat="49.18809" lon="6.92913">
        <ele>389</ele>
        <time>2011-09-25T06:55:11Z</time>
      </trkpt>
      <trkpt lat="49.18809" lon="6.92912">
        <ele>389</ele>
        <time>2011-09-25T06:55:12Z</time>
      </trkpt>
      <trkpt lat="49.18811" lon="6.92909">
        <ele>389</ele>
        <time>2011-09-25T06:55:14Z</time>
      </trkpt>
      <trkpt lat="49.18812" lon="6.92908">
        <ele>389</ele>
        <time>2011-09-25T06:55:15Z</time>
      </trkpt>
      <trkpt lat="49.18813" lon="6.92906">
        <ele>389</ele>
        <time>2011-09-25T06:55:16Z</time>
      </trkpt>
      <trkpt lat="49.18814" lon="6.92904">
        <ele>389</ele>
        <time>2011-09-25T06:55:18Z</time>
      </trkpt>
      <trkpt lat="49.18816" lon="6.92903">
        <ele>389</ele>
        <time>2011-09-25T06:55:20Z</time>
      </trkpt>
      <trkpt lat="49.18817" lon="6.92902">
        <ele>389</ele>
        <time>2011-09-25T06:55:22Z</time>
      </trkpt>
      <trkpt lat="49.18819" lon="6.92901">
        <ele>389</ele>
        <time>2011-09-25T06:55:24Z</time>
      </trkpt>
      <trkpt lat="49.1882" lon="6.92901">
        <ele>389</ele>
        <time>2011-09-25T06:55:27Z</time>
      </trkpt>
      <trkpt lat="49.18821" lon="6.92899">
        <ele>389</ele>
        <time>2011-09-25T06:55:30Z</time>
      </trkpt>
      <trkpt lat="49.18819" lon="6.92899">
        <ele>387</ele>
        <time>2011-09-25T06:55:37Z</time>
      </trkpt>
      <trkpt lat="49.18818" lon="6.929">
        <ele>386</ele>
        <time>2011-09-25T06:55:40Z</time>
      </trkpt>
      <trkpt lat="49.18816" lon="6.92901">
        <ele>386</ele>
        <time>2011-09-25T06:55:42Z</time>
      </trkpt>
      <trkpt lat="49.18818" lon="6.92901">
        <ele>386</ele>
        <time>2011-09-25T06:55:54Z</time>
      </trkpt>
      <trkpt lat="49.1882" lon="6.92902">
        <ele>386</ele>
        <time>2011-09-25T06:55:55Z</time>
      </trkpt>
      <trkpt lat="49.18821" lon="6.92904">
        <ele>386</ele>
        <time>2011-09-25T06:55:57Z</time>
      </trkpt>
      <trkpt lat="49.18822" lon="6.92904">
        <ele>386</ele>
        <time>2011-09-25T06:56:00Z</time>
      </trkpt>
      <trkpt lat="49.18823" lon="6.92905">
        <ele>386</ele>
        <time>2011-09-25T06:56:04Z</time>
      </trkpt>
      <trkpt lat="49.18824" lon="6.92907">
        <ele>388</ele>
        <time>2011-09-25T06:56:12Z</time>
      </trkpt>
      <trkpt lat="49.18824" lon="6.9291">
        <ele>388</ele>
        <time>2011-09-25T06:56:14Z</time>
      </trkpt>
      <trkpt lat="49.18825" lon="6.92912">
        <ele>388</ele>
        <time>2011-09-25T06:56:16Z</time>
      </trkpt>
      <trkpt lat="49.18826" lon="6.92914">
        <ele>388</ele>
        <time>2011-09-25T06:56:18Z</time>
      </trkpt>
      <trkpt lat="49.18826" lon="6.92917">
        <ele>388</ele>
        <time>2011-09-25T06:56:20Z</time>
      </trkpt>
      <trkpt lat="49.18826" lon="6.92919">
        <ele>388</ele>
        <time>2011-09-25T06:56:21Z</time>
      </trkpt>
      <trkpt lat="49.18826" lon="6.92922">
        <ele>388</ele>
        <time>2011-09-25T06:56:23Z</time>
      </trkpt>
      <trkpt lat="49.18827" lon="6.92923">
        <ele>388</ele>
        <time>2011-09-25T06:56:24Z</time>
      </trkpt>
      <trkpt lat="49.18827" lon="6.92925">
        <ele>388</ele>
        <time>2011-09-25T06:56:25Z</time>
      </trkpt>
      <trkpt lat="49.18827" lon="6.92927">
        <ele>388</ele>
        <time>2011-09-25T06:56:26Z</time>
      </trkpt>
      <trkpt lat="49.18827" lon="6.92929">
        <ele>388</ele>
        <time>2011-09-25T06:56:27Z</time>
      </trkpt>
      <trkpt lat="49.18827" lon="6.92931">
        <ele>388</ele>
        <time>2011-09-25T06:56:28Z</time>
      </trkpt>
      <trkpt lat="49.18827" lon="6.92934">
        <ele>388</ele>
        <time>2011-09-25T06:56:29Z</time>
      </trkpt>
      <trkpt lat="49.18827" lon="6.92935">
        <ele>388</ele>
        <time>2011-09-25T06:56:30Z</time>
      </trkpt>
      <trkpt lat="49.18827" lon="6.92937">
        <ele>388</ele>
        <time>2011-09-25T06:56:31Z</time>
      </trkpt>
      <trkpt lat="49.18827" lon="6.92939">
        <ele>388</ele>
        <time>2011-09-25T06:56:32Z</time>
      </trkpt>
      <trkpt lat="49.18828" lon="6.9294">
        <ele>388</ele>
        <time>2011-09-25T06:56:33Z</time>
      </trkpt>
      <trkpt lat="49.1883" lon="6.92943">
        <ele>388</ele>
        <time>2011-09-25T06:56:35Z</time>
      </trkpt>
      <trkpt lat="49.1883" lon="6.92945">
        <ele>388</ele>
        <time>2011-09-25T06:56:36Z</time>
      </trkpt>
      <trkpt lat="49.1883" lon="6.92947">
        <ele>388</ele>
        <time>2011-09-25T06:56:37Z</time>
      </trkpt>
      <trkpt lat="49.1883" lon="6.92949">
        <ele>388</ele>
        <time>2011-09-25T06:56:38Z</time>
      </trkpt>
      <trkpt lat="49.18831" lon="6.92951">
        <ele>388</ele>
        <time>2011-09-25T06:56:39Z</time>
      </trkpt>
      <trkpt lat="49.18831" lon="6.92954">
        <ele>388</ele>
        <time>2011-09-25T06:56:41Z</time>
      </trkpt>
      <trkpt lat="49.18831" lon="6.92956">
        <ele>388</ele>
        <time>2011-09-25T06:56:42Z</time>
      </trkpt>
      <trkpt lat="49.18832" lon="6.9296">
        <ele>388</ele>
        <time>2011-09-25T06:56:44Z</time>
      </trkpt>
      <trkpt lat="49.18832" lon="6.92962">
        <ele>388</ele>
        <time>2011-09-25T06:56:46Z</time>
      </trkpt>
      <trkpt lat="49.18832" lon="6.92964">
        <ele>388</ele>
        <time>2011-09-25T06:56:46Z</time>
      </trkpt>
      <trkpt lat="49.18832" lon="6.92965">
        <ele>388</ele>
        <time>2011-09-25T06:56:47Z</time>
      </trkpt>
      <trkpt lat="49.18832" lon="6.92967">
        <ele>388</ele>
        <time>2011-09-25T06:56:48Z</time>
      </trkpt>
      <trkpt lat="49.18832" lon="6.9297">
        <ele>388</ele>
        <time>2011-09-25T06:56:49Z</time>
      </trkpt>
      <trkpt lat="49.18832" lon="6.92972">
        <ele>388</ele>
        <time>2011-09-25T06:56:50Z</time>
      </trkpt>
      <trkpt lat="49.18832" lon="6.92974">
        <ele>388</ele>
        <time>2011-09-25T06:56:51Z</time>
      </trkpt>
      <trkpt lat="49.18832" lon="6.92977">
        <ele>388</ele>
        <time>2011-09-25T06:56:52Z</time>
      </trkpt>
      <trkpt lat="49.18831" lon="6.92978">
        <ele>388</ele>
        <time>2011-09-25T06:56:53Z</time>
      </trkpt>
      <trkpt lat="49.18832" lon="6.92981">
        <ele>387</ele>
        <time>2011-09-25T06:56:55Z</time>
      </trkpt>
      <trkpt lat="49.18834" lon="6.92983">
        <ele>387</ele>
        <time>2011-09-25T06:56:56Z</time>
      </trkpt>
      <trkpt lat="49.18835" lon="6.92985">
        <ele>387</ele>
        <time>2011-09-25T06:56:57Z</time>
      </trkpt>
      <trkpt lat="49.18836" lon="6.92986">
        <ele>387</ele>
        <time>2011-09-25T06:56:58Z</time>
      </trkpt>
      <trkpt lat="49.18838" lon="6.92988">
        <ele>387</ele>
        <time>2011-09-25T06:57:00Z</time>
      </trkpt>
      <trkpt lat="49.18839" lon="6.9299">
        <ele>387</ele>
        <time>2011-09-25T06:57:02Z</time>
      </trkpt>
      <trkpt lat="49.1884" lon="6.92991">
        <ele>387</ele>
        <time>2011-09-25T06:57:03Z</time>
      </trkpt>
      <trkpt lat="49.18841" lon="6.92992">
        <ele>387</ele>
        <time>2011-09-25T06:57:04Z</time>
      </trkpt>
      <trkpt lat="49.18842" lon="6.92994">
        <ele>387</ele>
        <time>2011-09-25T06:57:06Z</time>
      </trkpt>
      <trkpt lat="49.18844" lon="6.92994">
        <ele>387</ele>
        <time>2011-09-25T06:57:08Z</time>
      </trkpt>
      <trkpt lat="49.18845" lon="6.92994">
        <ele>387</ele>
        <time>2011-09-25T06:57:09Z</time>
      </trkpt>
      <trkpt lat="49.18847" lon="6.92994">
        <ele>387</ele>
        <time>2011-09-25T06:57:10Z</time>
      </trkpt>
      <trkpt lat="49.18848" lon="6.92993">
        <ele>387</ele>
        <time>2011-09-25T06:57:11Z</time>
      </trkpt>
      <trkpt lat="49.18849" lon="6.92992">
        <ele>386</ele>
        <time>2011-09-25T06:57:13Z</time>
      </trkpt>
      <trkpt lat="49.1885" lon="6.92991">
        <ele>386</ele>
        <time>2011-09-25T06:57:14Z</time>
      </trkpt>
      <trkpt lat="49.18851" lon="6.92989">
        <ele>386</ele>
        <time>2011-09-25T06:57:16Z</time>
      </trkpt>
      <trkpt lat="49.18852" lon="6.92986">
        <ele>386</ele>
        <time>2011-09-25T06:57:18Z</time>
      </trkpt>
      <trkpt lat="49.18853" lon="6.92983">
        <ele>386</ele>
        <time>2011-09-25T06:57:20Z</time>
      </trkpt>
      <trkpt lat="49.18853" lon="6.9298">
        <ele>386</ele>
        <time>2011-09-25T06:57:22Z</time>
      </trkpt>
      <trkpt lat="49.18853" lon="6.92978">
        <ele>386</ele>
        <time>2011-09-25T06:57:23Z</time>
      </trkpt>
      <trkpt lat="49.18854" lon="6.92976">
        <ele>386</ele>
        <time>2011-09-25T06:57:25Z</time>
      </trkpt>
      <trkpt lat="49.18854" lon="6.92974">
        <ele>386</ele>
        <time>2011-09-25T06:57:26Z</time>
      </trkpt>
      <trkpt lat="49.18855" lon="6.92971">
        <ele>385</ele>
        <time>2011-09-25T06:57:28Z</time>
      </trkpt>
      <trkpt lat="49.18855" lon="6.92969">
        <ele>385</ele>
        <time>2011-09-25T06:57:29Z</time>
      </trkpt>
      <trkpt lat="49.18855" lon="6.92967">
        <ele>385</ele>
        <time>2011-09-25T06:57:30Z</time>
      </trkpt>
      <trkpt lat="49.18855" lon="6.92964">
        <ele>385</ele>
        <time>2011-09-25T06:57:31Z</time>
      </trkpt>
      <trkpt lat="49.18855" lon="6.92962">
        <ele>385</ele>
        <time>2011-09-25T06:57:32Z</time>
      </trkpt>
      <trkpt lat="49.18855" lon="6.9296">
        <ele>385</ele>
        <time>2011-09-25T06:57:33Z</time>
      </trkpt>
      <trkpt lat="49.18855" lon="6.92958">
        <ele>385</ele>
        <time>2011-09-25T06:57:34Z</time>
      </trkpt>
      <trkpt lat="49.18854" lon="6.92956">
        <ele>385</ele>
        <time>2011-09-25T06:57:35Z</time>
      </trkpt>
      <trkpt lat="49.18855" lon="6.92953">
        <ele>385</ele>
        <time>2011-09-25T06:57:37Z</time>
      </trkpt>
      <trkpt lat="49.18856" lon="6.9295">
        <ele>385</ele>
        <time>2011-09-25T06:57:39Z</time>
      </trkpt>
      <trkpt lat="49.18856" lon="6.92947">
        <ele>385</ele>
        <time>2011-09-25T06:57:41Z</time>
      </trkpt>
      <trkpt lat="49.18856" lon="6.92944">
        <ele>385</ele>
        <time>2011-09-25T06:57:43Z</time>
      </trkpt>
      <trkpt lat="49.18855" lon="6.92943">
        <ele>385</ele>
        <time>2011-09-25T06:57:44Z</time>
      </trkpt>
      <trkpt lat="49.18854" lon="6.9294">
        <ele>385</ele>
        <time>2011-09-25T06:57:46Z</time>
      </trkpt>
      <trkpt lat="49.18854" lon="6.92938">
        <ele>385</ele>
        <time>2011-09-25T06:57:47Z</time>
      </trkpt>
      <trkpt lat="49.18853" lon="6.92936">
        <ele>385</ele>
        <time>2011-09-25T06:57:48Z</time>
      </trkpt>
      <trkpt lat="49.18853" lon="6.92933">
        <ele>384</ele>
        <time>2011-09-25T06:57:50Z</time>
      </trkpt>
      <trkpt lat="49.18855" lon="6.92931">
        <ele>383</ele>
        <time>2011-09-25T06:57:52Z</time>
      </trkpt>
      <trkpt lat="49.18856" lon="6.92929">
        <ele>383</ele>
        <time>2011-09-25T06:57:54Z</time>
      </trkpt>
      <trkpt lat="49.18857" lon="6.92927">
        <ele>383</ele>
        <time>2011-09-25T06:57:55Z</time>
      </trkpt>
      <trkpt lat="49.18858" lon="6.92925">
        <ele>383</ele>
        <time>2011-09-25T06:57:56Z</time>
      </trkpt>
      <trkpt lat="49.18859" lon="6.92923">
        <ele>383</ele>
        <time>2011-09-25T06:57:57Z</time>
      </trkpt>
      <trkpt lat="49.1886" lon="6.92921">
        <ele>382</ele>
        <time>2011-09-25T06:57:58Z</time>
      </trkpt>
      <trkpt lat="49.1886" lon="6.92919">
        <ele>382</ele>
        <time>2011-09-25T06:57:59Z</time>
      </trkpt>
      <trkpt lat="49.1886" lon="6.92917">
        <ele>382</ele>
        <time>2011-09-25T06:58:00Z</time>
      </trkpt>
      <trkpt lat="49.18861" lon="6.92915">
        <ele>382</ele>
        <time>2011-09-25T06:58:01Z</time>
      </trkpt>
      <trkpt lat="49.18861" lon="6.92914">
        <ele>382</ele>
        <time>2011-09-25T06:58:02Z</time>
      </trkpt>
      <trkpt lat="49.18861" lon="6.92912">
        <ele>381</ele>
        <time>2011-09-25T06:58:03Z</time>
      </trkpt>
      <trkpt lat="49.18862" lon="6.9291">
        <ele>381</ele>
        <time>2011-09-25T06:58:04Z</time>
      </trkpt>
      <trkpt lat="49.18862" lon="6.92909">
        <ele>380</ele>
        <time>2011-09-25T06:58:05Z</time>
      </trkpt>
      <trkpt lat="49.18862" lon="6.92907">
        <ele>380</ele>
        <time>2011-09-25T06:58:06Z</time>
      </trkpt>
      <trkpt lat="49.18862" lon="6.92905">
        <ele>379</ele>
        <time>2011-09-25T06:58:07Z</time>
      </trkpt>
      <trkpt lat="49.18862" lon="6.92903">
        <ele>379</ele>
        <time>2011-09-25T06:58:08Z</time>
      </trkpt>
      <trkpt lat="49.18862" lon="6.92902">
        <ele>379</ele>
        <time>2011-09-25T06:58:09Z</time>
      </trkpt>
      <trkpt lat="49.18863" lon="6.92899">
        <ele>379</ele>
        <time>2011-09-25T06:58:11Z</time>
      </trkpt>
      <trkpt lat="49.18863" lon="6.92896">
        <ele>378</ele>
        <time>2011-09-25T06:58:12Z</time>
      </trkpt>
      <trkpt lat="49.18864" lon="6.92894">
        <ele>378</ele>
        <time>2011-09-25T06:58:13Z</time>
      </trkpt>
      <trkpt lat="49.18864" lon="6.92892">
        <ele>378</ele>
        <time>2011-09-25T06:58:14Z</time>
      </trkpt>
      <trkpt lat="49.18865" lon="6.92891">
        <ele>378</ele>
        <time>2011-09-25T06:58:15Z</time>
      </trkpt>
      <trkpt lat="49.18865" lon="6.92889">
        <ele>378</ele>
        <time>2011-09-25T06:58:16Z</time>
      </trkpt>
      <trkpt lat="49.18866" lon="6.92887">
        <ele>378</ele>
        <time>2011-09-25T06:58:17Z</time>
      </trkpt>
      <trkpt lat="49.18866" lon="6.92885">
        <ele>378</ele>
        <time>2011-09-25T06:58:18Z</time>
      </trkpt>
      <trkpt lat="49.18866" lon="6.92883">
        <ele>378</ele>
        <time>2011-09-25T06:58:19Z</time>
      </trkpt>
      <trkpt lat="49.18867" lon="6.92881">
        <ele>378</ele>
        <time>2011-09-25T06:58:20Z</time>
      </trkpt>
      <trkpt lat="49.18867" lon="6.92879">
        <ele>378</ele>
        <time>2011-09-25T06:58:21Z</time>
      </trkpt>
      <trkpt lat="49.18867" lon="6.92877">
        <ele>378</ele>
        <time>2011-09-25T06:58:22Z</time>
      </trkpt>
      <trkpt lat="49.18867" lon="6.92874">
        <ele>378</ele>
        <time>2011-09-25T06:58:23Z</time>
      </trkpt>
      <trkpt lat="49.18866" lon="6.92872">
        <ele>378</ele>
        <time>2011-09-25T06:58:24Z</time>
      </trkpt>
      <trkpt lat="49.18865" lon="6.92871">
        <ele>378</ele>
        <time>2011-09-25T06:58:25Z</time>
      </trkpt>
      <trkpt lat="49.18865" lon="6.92869">
        <ele>378</ele>
        <time>2011-09-25T06:58:26Z</time>
      </trkpt>
      <trkpt lat="49.18864" lon="6.92867">
        <ele>378</ele>
        <time>2011-09-25T06:58:27Z</time>
      </trkpt>
      <trkpt lat="49.18864" lon="6.92865">
        <ele>378</ele>
        <time>2011-09-25T06:58:28Z</time>
      </trkpt>
      <trkpt lat="49.18862" lon="6.92864">
        <ele>377</ele>
        <time>2011-09-25T06:58:30Z</time>
      </trkpt>
      <trkpt lat="49.18861" lon="6.92861">
        <ele>377</ele>
        <time>2011-09-25T06:58:32Z</time>
      </trkpt>
      <trkpt lat="49.18861" lon="6.92859">
        <ele>377</ele>
        <time>2011-09-25T06:58:33Z</time>
      </trkpt>
      <trkpt lat="49.1886" lon="6.92857">
        <ele>377</ele>
        <time>2011-09-25T06:58:34Z</time>
      </trkpt>
      <trkpt lat="49.18859" lon="6.92856">
        <ele>377</ele>
        <time>2011-09-25T06:58:35Z</time>
      </trkpt>
      <trkpt lat="49.18859" lon="6.92853">
        <ele>377</ele>
        <time>2011-09-25T06:58:37Z</time>
      </trkpt>
      <trkpt lat="49.18859" lon="6.92851">
        <ele>377</ele>
        <time>2011-09-25T06:58:38Z</time>
      </trkpt>
      <trkpt lat="49.18858" lon="6.92848">
        <ele>377</ele>
        <time>2011-09-25T06:58:40Z</time>
      </trkpt>
      <trkpt lat="49.18858" lon="6.92846">
        <ele>377</ele>
        <time>2011-09-25T06:58:41Z</time>
      </trkpt>
      <trkpt lat="49.18857" lon="6.92844">
        <ele>377</ele>
        <time>2011-09-25T06:58:42Z</time>
      </trkpt>
      <trkpt lat="49.18856" lon="6.92842">
        <ele>377</ele>
        <time>2011-09-25T06:58:43Z</time>
      </trkpt>
      <trkpt lat="49.18855" lon="6.92839">
        <ele>377</ele>
        <time>2011-09-25T06:58:45Z</time>
      </trkpt>
      <trkpt lat="49.18853" lon="6.92837">
        <ele>377</ele>
        <time>2011-09-25T06:58:46Z</time>
      </trkpt>
      <trkpt lat="49.18852" lon="6.92835">
        <ele>377</ele>
        <time>2011-09-25T06:58:47Z</time>
      </trkpt>
      <trkpt lat="49.18851" lon="6.92832">
        <ele>377</ele>
        <time>2011-09-25T06:58:48Z</time>
      </trkpt>
      <trkpt lat="49.18851" lon="6.92829">
        <ele>377</ele>
        <time>2011-09-25T06:58:49Z</time>
      </trkpt>
      <trkpt lat="49.1885" lon="6.92827">
        <ele>377</ele>
        <time>2011-09-25T06:58:50Z</time>
      </trkpt>
      <trkpt lat="49.18848" lon="6.92825">
        <ele>377</ele>
        <time>2011-09-25T06:58:51Z</time>
      </trkpt>
      <trkpt lat="49.18848" lon="6.92824">
        <ele>377</ele>
        <time>2011-09-25T06:58:52Z</time>
      </trkpt>
      <trkpt lat="49.18846" lon="6.92822">
        <ele>377</ele>
        <time>2011-09-25T06:58:53Z</time>
      </trkpt>
      <trkpt lat="49.18844" lon="6.9282">
        <ele>377</ele>
        <time>2011-09-25T06:58:54Z</time>
      </trkpt>
      <trkpt lat="49.18843" lon="6.92818">
        <ele>377</ele>
        <time>2011-09-25T06:58:55Z</time>
      </trkpt>
      <trkpt lat="49.18842" lon="6.92816">
        <ele>377</ele>
        <time>2011-09-25T06:58:56Z</time>
      </trkpt>
      <trkpt lat="49.18841" lon="6.92813">
        <ele>377</ele>
        <time>2011-09-25T06:58:58Z</time>
      </trkpt>
      <trkpt lat="49.18841" lon="6.9281">
        <ele>377</ele>
        <time>2011-09-25T06:59:00Z</time>
      </trkpt>
      <trkpt lat="49.18841" lon="6.92808">
        <ele>377</ele>
        <time>2011-09-25T06:59:01Z</time>
      </trkpt>
      <trkpt lat="49.18841" lon="6.92806">
        <ele>377</ele>
        <time>2011-09-25T06:59:03Z</time>
      </trkpt>
      <trkpt lat="49.18841" lon="6.92804">
        <ele>377</ele>
        <time>2011-09-25T06:59:04Z</time>
      </trkpt>
      <trkpt lat="49.1884" lon="6.92801">
        <ele>377</ele>
        <time>2011-09-25T06:59:06Z</time>
      </trkpt>
      <trkpt lat="49.18839" lon="6.92798">
        <ele>377</ele>
        <time>2011-09-25T06:59:08Z</time>
      </trkpt>
      <trkpt lat="49.18837" lon="6.92796">
        <ele>377</ele>
        <time>2011-09-25T06:59:10Z</time>
      </trkpt>
      <trkpt lat="49.18835" lon="6.92793">
        <ele>377</ele>
        <time>2011-09-25T06:59:12Z</time>
      </trkpt>
      <trkpt lat="49.18835" lon="6.92791">
        <ele>377</ele>
        <time>2011-09-25T06:59:13Z</time>
      </trkpt>
      <trkpt lat="49.18834" lon="6.92789">
        <ele>377</ele>
        <time>2011-09-25T06:59:15Z</time>
      </trkpt>
      <trkpt lat="49.18833" lon="6.92786">
        <ele>377</ele>
        <time>2011-09-25T06:59:17Z</time>
      </trkpt>
      <trkpt lat="49.18832" lon="6.92785">
        <ele>377</ele>
        <time>2011-09-25T06:59:18Z</time>
      </trkpt>
      <trkpt lat="49.18831" lon="6.92783">
        <ele>377</ele>
        <time>2011-09-25T06:59:19Z</time>
      </trkpt>
      <trkpt lat="49.1883" lon="6.92781">
        <ele>377</ele>
        <time>2011-09-25T06:59:20Z</time>
      </trkpt>
      <trkpt lat="49.18828" lon="6.9278">
        <ele>376</ele>
        <time>2011-09-25T06:59:21Z</time>
      </trkpt>
      <trkpt lat="49.18827" lon="6.92779">
        <ele>376</ele>
        <time>2011-09-25T06:59:22Z</time>
      </trkpt>
      <trkpt lat="49.18826" lon="6.92777">
        <ele>376</ele>
        <time>2011-09-25T06:59:23Z</time>
      </trkpt>
      <trkpt lat="49.18825" lon="6.92775">
        <ele>376</ele>
        <time>2011-09-25T06:59:24Z</time>
      </trkpt>
      <trkpt lat="49.18824" lon="6.92774">
        <ele>376</ele>
        <time>2011-09-25T06:59:25Z</time>
      </trkpt>
      <trkpt lat="49.18823" lon="6.92772">
        <ele>376</ele>
        <time>2011-09-25T06:59:26Z</time>
      </trkpt>
      <trkpt lat="49.18822" lon="6.92771">
        <ele>376</ele>
        <time>2011-09-25T06:59:27Z</time>
      </trkpt>
      <trkpt lat="49.18821" lon="6.92769">
        <ele>376</ele>
        <time>2011-09-25T06:59:28Z</time>
      </trkpt>
      <trkpt lat="49.1882" lon="6.92767">
        <ele>376</ele>
        <time>2011-09-25T06:59:29Z</time>
      </trkpt>
      <trkpt lat="49.18818" lon="6.92765">
        <ele>376</ele>
        <time>2011-09-25T06:59:30Z</time>
      </trkpt>
      <trkpt lat="49.18817" lon="6.92763">
        <ele>376</ele>
        <time>2011-09-25T06:59:31Z</time>
      </trkpt>
      <trkpt lat="49.18817" lon="6.92761">
        <ele>376</ele>
        <time>2011-09-25T06:59:32Z</time>
      </trkpt>
      <trkpt lat="49.18817" lon="6.92758">
        <ele>376</ele>
        <time>2011-09-25T06:59:33Z</time>
      </trkpt>
      <trkpt lat="49.18816" lon="6.92756">
        <ele>376</ele>
        <time>2011-09-25T06:59:34Z</time>
      </trkpt>
      <trkpt lat="49.18816" lon="6.92754">
        <ele>376</ele>
        <time>2011-09-25T06:59:35Z</time>
      </trkpt>
      <trkpt lat="49.18815" lon="6.92751">
        <ele>376</ele>
        <time>2011-09-25T06:59:36Z</time>
      </trkpt>
      <trkpt lat="49.18814" lon="6.92748">
        <ele>376</ele>
        <time>2011-09-25T06:59:37Z</time>
      </trkpt>
      <trkpt lat="49.18813" lon="6.92745">
        <ele>376</ele>
        <time>2011-09-25T06:59:38Z</time>
      </trkpt>
      <trkpt lat="49.18811" lon="6.92743">
        <ele>376</ele>
        <time>2011-09-25T06:59:39Z</time>
      </trkpt>
      <trkpt lat="49.1881" lon="6.9274">
        <ele>376</ele>
        <time>2011-09-25T06:59:40Z</time>
      </trkpt>
      <trkpt lat="49.18809" lon="6.92737">
        <ele>376</ele>
        <time>2011-09-25T06:59:42Z</time>
      </trkpt>
      <trkpt lat="49.18808" lon="6.92736">
        <ele>376</ele>
        <time>2011-09-25T06:59:43Z</time>
      </trkpt>
      <trkpt lat="49.18807" lon="6.92734">
        <ele>376</ele>
        <time>2011-09-25T06:59:44Z</time>
      </trkpt>
      <trkpt lat="49.18806" lon="6.92732">
        <ele>376</ele>
        <time>2011-09-25T06:59:45Z</time>
      </trkpt>
      <trkpt lat="49.18805" lon="6.9273">
        <ele>376</ele>
        <time>2011-09-25T06:59:46Z</time>
      </trkpt>
      <trkpt lat="49.18804" lon="6.92728">
        <ele>376</ele>
        <time>2011-09-25T06:59:47Z</time>
      </trkpt>
      <trkpt lat="49.18803" lon="6.92726">
        <ele>376</ele>
        <time>2011-09-25T06:59:48Z</time>
      </trkpt>
      <trkpt lat="49.18801" lon="6.92724">
        <ele>376</ele>
        <time>2011-09-25T06:59:50Z</time>
      </trkpt>
      <trkpt lat="49.18801" lon="6.92722">
        <ele>376</ele>
        <time>2011-09-25T06:59:52Z</time>
      </trkpt>
      <trkpt lat="49.188" lon="6.92718">
        <ele>376</ele>
        <time>2011-09-25T06:59:54Z</time>
      </trkpt>
      <trkpt lat="49.188" lon="6.92716">
        <ele>376</ele>
        <time>2011-09-25T06:59:55Z</time>
      </trkpt>
      <trkpt lat="49.18799" lon="6.92713">
        <ele>376</ele>
        <time>2011-09-25T06:59:56Z</time>
      </trkpt>
      <trkpt lat="49.18799" lon="6.92711">
        <ele>376</ele>
        <time>2011-09-25T06:59:57Z</time>
      </trkpt>
      <trkpt lat="49.18797" lon="6.92708">
        <ele>376</ele>
        <time>2011-09-25T06:59:59Z</time>
      </trkpt>
      <trkpt lat="49.18797" lon="6.92706">
        <ele>376</ele>
        <time>2011-09-25T07:00:00Z</time>
      </trkpt>
      <trkpt lat="49.18796" lon="6.92703">
        <ele>376</ele>
        <time>2011-09-25T07:00:02Z</time>
      </trkpt>
      <trkpt lat="49.18796" lon="6.92701">
        <ele>376</ele>
        <time>2011-09-25T07:00:03Z</time>
      </trkpt>
      <trkpt lat="49.18797" lon="6.92699">
        <ele>376</ele>
        <time>2011-09-25T07:00:04Z</time>
      </trkpt>
      <trkpt lat="49.18796" lon="6.92697">
        <ele>375</ele>
        <time>2011-09-25T07:00:06Z</time>
      </trkpt>
      <trkpt lat="49.18795" lon="6.92695">
        <ele>375</ele>
        <time>2011-09-25T07:00:08Z</time>
      </trkpt>
      <trkpt lat="49.18792" lon="6.92693">
        <ele>375</ele>
        <time>2011-09-25T07:00:10Z</time>
      </trkpt>
      <trkpt lat="49.18791" lon="6.9269">
        <ele>375</ele>
        <time>2011-09-25T07:00:11Z</time>
      </trkpt>
      <trkpt lat="49.18791" lon="6.92688">
        <ele>375</ele>
        <time>2011-09-25T07:00:12Z</time>
      </trkpt>
      <trkpt lat="49.18792" lon="6.92685">
        <ele>375</ele>
        <time>2011-09-25T07:00:13Z</time>
      </trkpt>
      <trkpt lat="49.18791" lon="6.92683">
        <ele>375</ele>
        <time>2011-09-25T07:00:14Z</time>
      </trkpt>
      <trkpt lat="49.18791" lon="6.92681">
        <ele>375</ele>
        <time>2011-09-25T07:00:15Z</time>
      </trkpt>
      <trkpt lat="49.18791" lon="6.9268">
        <ele>375</ele>
        <time>2011-09-25T07:00:16Z</time>
      </trkpt>
      <trkpt lat="49.1879" lon="6.92676">
        <ele>375</ele>
        <time>2011-09-25T07:00:18Z</time>
      </trkpt>
      <trkpt lat="49.18789" lon="6.92675">
        <ele>375</ele>
        <time>2011-09-25T07:00:19Z</time>
      </trkpt>
      <trkpt lat="49.18789" lon="6.92673">
        <ele>375</ele>
        <time>2011-09-25T07:00:20Z</time>
      </trkpt>
      <trkpt lat="49.1879" lon="6.92671">
        <ele>375</ele>
        <time>2011-09-25T07:00:22Z</time>
      </trkpt>
      <trkpt lat="49.1879" lon="6.92669">
        <ele>375</ele>
        <time>2011-09-25T07:00:25Z</time>
      </trkpt>
      <trkpt lat="49.18789" lon="6.92669">
        <ele>375</ele>
        <time>2011-09-25T07:00:27Z</time>
      </trkpt>
      <trkpt lat="49.1879" lon="6.92667">
        <ele>375</ele>
        <time>2011-09-25T07:00:30Z</time>
      </trkpt>
      <trkpt lat="49.18791" lon="6.92669">
        <ele>375</ele>
        <time>2011-09-25T07:00:33Z</time>
      </trkpt>
      <trkpt lat="49.1879" lon="6.9267">
        <ele>375</ele>
        <time>2011-09-25T07:00:36Z</time>
      </trkpt>
      <trkpt lat="49.18789" lon="6.92672">
        <ele>375</ele>
        <time>2011-09-25T07:00:40Z</time>
      </trkpt>
      <trkpt lat="49.1879" lon="6.92674">
        <ele>375</ele>
        <time>2011-09-25T07:00:42Z</time>
      </trkpt>
      <trkpt lat="49.18789" lon="6.92674">
        <ele>375</ele>
        <time>2011-09-25T07:00:44Z</time>
      </trkpt>
      <trkpt lat="49.18787" lon="6.92675">
        <ele>375</ele>
        <time>2011-09-25T07:00:45Z</time>
      </trkpt>
      <trkpt lat="49.18785" lon="6.92677">
        <ele>375</ele>
        <time>2011-09-25T07:00:46Z</time>
      </trkpt>
      <trkpt lat="49.18784" lon="6.92678">
        <ele>375</ele>
        <time>2011-09-25T07:00:47Z</time>
      </trkpt>
      <trkpt lat="49.18786" lon="6.92677">
        <ele>375</ele>
        <time>2011-09-25T07:00:56Z</time>
      </trkpt>
      <trkpt lat="49.18786" lon="6.92674">
        <ele>374</ele>
        <time>2011-09-25T07:00:58Z</time>
      </trkpt>
      <trkpt lat="49.18784" lon="6.92672">
        <ele>372</ele>
        <time>2011-09-25T07:01:00Z</time>
      </trkpt>
      <trkpt lat="49.18785" lon="6.9267">
        <ele>371</ele>
        <time>2011-09-25T07:01:01Z</time>
      </trkpt>
      <trkpt lat="49.18785" lon="6.92666">
        <ele>369</ele>
        <time>2011-09-25T07:01:03Z</time>
      </trkpt>
      <trkpt lat="49.18786" lon="6.92664">
        <ele>369</ele>
        <time>2011-09-25T07:01:05Z</time>
      </trkpt>
      <trkpt lat="49.18785" lon="6.92662">
        <ele>369</ele>
        <time>2011-09-25T07:01:07Z</time>
      </trkpt>
      <trkpt lat="49.18785" lon="6.92659">
        <ele>369</ele>
        <time>2011-09-25T07:01:09Z</time>
      </trkpt>
      <trkpt lat="49.18785" lon="6.92657">
        <ele>368</ele>
        <time>2011-09-25T07:01:10Z</time>
      </trkpt>
      <trkpt lat="49.18784" lon="6.92655">
        <ele>368</ele>
        <time>2011-09-25T07:01:11Z</time>
      </trkpt>
      <trkpt lat="49.18784" lon="6.92652">
        <ele>368</ele>
        <time>2011-09-25T07:01:13Z</time>
      </trkpt>
      <trkpt lat="49.18784" lon="6.9265">
        <ele>368</ele>
        <time>2011-09-25T07:01:14Z</time>
      </trkpt>
      <trkpt lat="49.18784" lon="6.92648">
        <ele>368</ele>
        <time>2011-09-25T07:01:15Z</time>
      </trkpt>
      <trkpt lat="49.18784" lon="6.92645">
        <ele>368</ele>
        <time>2011-09-25T07:01:17Z</time>
      </trkpt>
      <trkpt lat="49.18785" lon="6.92643">
        <ele>368</ele>
        <time>2011-09-25T07:01:18Z</time>
      </trkpt>
      <trkpt lat="49.18785" lon="6.92641">
        <ele>368</ele>
        <time>2011-09-25T07:01:19Z</time>
      </trkpt>
      <trkpt lat="49.18784" lon="6.92638">
        <ele>368</ele>
        <time>2011-09-25T07:01:21Z</time>
      </trkpt>
      <trkpt lat="49.18784" lon="6.92636">
        <ele>368</ele>
        <time>2011-09-25T07:01:23Z</time>
      </trkpt>
      <trkpt lat="49.18783" lon="6.92633">
        <ele>368</ele>
        <time>2011-09-25T07:01:25Z</time>
      </trkpt>
      <trkpt lat="49.18782" lon="6.92631">
        <ele>368</ele>
        <time>2011-09-25T07:01:26Z</time>
      </trkpt>
      <trkpt lat="49.18781" lon="6.92629">
        <ele>368</ele>
        <time>2011-09-25T07:01:28Z</time>
      </trkpt>
      <trkpt lat="49.18779" lon="6.92626">
        <ele>368</ele>
        <time>2011-09-25T07:01:30Z</time>
      </trkpt>
      <trkpt lat="49.18777" lon="6.92624">
        <ele>368</ele>
        <time>2011-09-25T07:01:31Z</time>
      </trkpt>
      <trkpt lat="49.18776" lon="6.92623">
        <ele>368</ele>
        <time>2011-09-25T07:01:32Z</time>
      </trkpt>
      <trkpt lat="49.18774" lon="6.92621">
        <ele>368</ele>
        <time>2011-09-25T07:01:34Z</time>
      </trkpt>
      <trkpt lat="49.18772" lon="6.92619">
        <ele>368</ele>
        <time>2011-09-25T07:01:36Z</time>
      </trkpt>
      <trkpt lat="49.1877" lon="6.92617">
        <ele>368</ele>
        <time>2011-09-25T07:01:38Z</time>
      </trkpt>
      <trkpt lat="49.18769" lon="6.92615">
        <ele>368</ele>
        <time>2011-09-25T07:01:39Z</time>
      </trkpt>
      <trkpt lat="49.18767" lon="6.92613">
        <ele>368</ele>
        <time>2011-09-25T07:01:40Z</time>
      </trkpt>
      <trkpt lat="49.18766" lon="6.92611">
        <ele>368</ele>
        <time>2011-09-25T07:01:41Z</time>
      </trkpt>
      <trkpt lat="49.18765" lon="6.92609">
        <ele>368</ele>
        <time>2011-09-25T07:01:43Z</time>
      </trkpt>
      <trkpt lat="49.18765" lon="6.92607">
        <ele>368</ele>
        <time>2011-09-25T07:01:44Z</time>
      </trkpt>
      <trkpt lat="49.18763" lon="6.92605">
        <ele>368</ele>
        <time>2011-09-25T07:01:46Z</time>
      </trkpt>
      <trkpt lat="49.18761" lon="6.92604">
        <ele>368</ele>
        <time>2011-09-25T07:01:48Z</time>
      </trkpt>
      <trkpt lat="49.18758" lon="6.92605">
        <ele>368</ele>
        <time>2011-09-25T07:01:51Z</time>
      </trkpt>
      <trkpt lat="49.18756" lon="6.92606">
        <ele>368</ele>
        <time>2011-09-25T07:01:52Z</time>
      </trkpt>
      <trkpt lat="49.18755" lon="6.92606">
        <ele>368</ele>
        <time>2011-09-25T07:01:53Z</time>
      </trkpt>
      <trkpt lat="49.18752" lon="6.92606">
        <ele>368</ele>
        <time>2011-09-25T07:01:55Z</time>
      </trkpt>
      <trkpt lat="49.18751" lon="6.92606">
        <ele>368</ele>
        <time>2011-09-25T07:01:57Z</time>
      </trkpt>
      <trkpt lat="49.18749" lon="6.92606">
        <ele>368</ele>
        <time>2011-09-25T07:01:59Z</time>
      </trkpt>
      <trkpt lat="49.18747" lon="6.92606">
        <ele>368</ele>
        <time>2011-09-25T07:02:00Z</time>
      </trkpt>
      <trkpt lat="49.18746" lon="6.92606">
        <ele>368</ele>
        <time>2011-09-25T07:02:01Z</time>
      </trkpt>
      <trkpt lat="49.18744" lon="6.92606">
        <ele>368</ele>
        <time>2011-09-25T07:02:02Z</time>
      </trkpt>
      <trkpt lat="49.18742" lon="6.92605">
        <ele>368</ele>
        <time>2011-09-25T07:02:04Z</time>
      </trkpt>
      <trkpt lat="49.18741" lon="6.92605">
        <ele>368</ele>
        <time>2011-09-25T07:02:05Z</time>
      </trkpt>
      <trkpt lat="49.18739" lon="6.92603">
        <ele>368</ele>
        <time>2011-09-25T07:02:07Z</time>
      </trkpt>
      <trkpt lat="49.18737" lon="6.92601">
        <ele>369</ele>
        <time>2011-09-25T07:02:09Z</time>
      </trkpt>
      <trkpt lat="49.18736" lon="6.926">
        <ele>369</ele>
        <time>2011-09-25T07:02:10Z</time>
      </trkpt>
      <trkpt lat="49.18734" lon="6.92597">
        <ele>369</ele>
        <time>2011-09-25T07:02:12Z</time>
      </trkpt>
      <trkpt lat="49.18733" lon="6.92596">
        <ele>369</ele>
        <time>2011-09-25T07:02:13Z</time>
      </trkpt>
      <trkpt lat="49.18731" lon="6.92593">
        <ele>369</ele>
        <time>2011-09-25T07:02:15Z</time>
      </trkpt>
      <trkpt lat="49.18729" lon="6.92592">
        <ele>369</ele>
        <time>2011-09-25T07:02:16Z</time>
      </trkpt>
      <trkpt lat="49.18728" lon="6.9259">
        <ele>369</ele>
        <time>2011-09-25T07:02:17Z</time>
      </trkpt>
      <trkpt lat="49.18727" lon="6.92589">
        <ele>369</ele>
        <time>2011-09-25T07:02:18Z</time>
      </trkpt>
      <trkpt lat="49.18725" lon="6.92588">
        <ele>370</ele>
        <time>2011-09-25T07:02:19Z</time>
      </trkpt>
      <trkpt lat="49.18724" lon="6.92586">
        <ele>370</ele>
        <time>2011-09-25T07:02:21Z</time>
      </trkpt>
      <trkpt lat="49.18723" lon="6.92585">
        <ele>370</ele>
        <time>2011-09-25T07:02:22Z</time>
      </trkpt>
      <trkpt lat="49.18721" lon="6.92584">
        <ele>370</ele>
        <time>2011-09-25T07:02:23Z</time>
      </trkpt>
      <trkpt lat="49.18719" lon="6.92582">
        <ele>370</ele>
        <time>2011-09-25T07:02:25Z</time>
      </trkpt>
      <trkpt lat="49.18718" lon="6.92581">
        <ele>370</ele>
        <time>2011-09-25T07:02:27Z</time>
      </trkpt>
      <trkpt lat="49.18716" lon="6.9258">
        <ele>370</ele>
        <time>2011-09-25T07:02:28Z</time>
      </trkpt>
      <trkpt lat="49.18715" lon="6.92577">
        <ele>370</ele>
        <time>2011-09-25T07:02:30Z</time>
      </trkpt>
      <trkpt lat="49.18713" lon="6.92575">
        <ele>370</ele>
        <time>2011-09-25T07:02:32Z</time>
      </trkpt>
      <trkpt lat="49.18712" lon="6.92572">
        <ele>370</ele>
        <time>2011-09-25T07:02:34Z</time>
      </trkpt>
      <trkpt lat="49.18711" lon="6.9257">
        <ele>370</ele>
        <time>2011-09-25T07:02:36Z</time>
      </trkpt>
      <trkpt lat="49.1871" lon="6.92568">
        <ele>370</ele>
        <time>2011-09-25T07:02:37Z</time>
      </trkpt>
      <trkpt lat="49.1871" lon="6.92566">
        <ele>370</ele>
        <time>2011-09-25T07:02:38Z</time>
      </trkpt>
      <trkpt lat="49.18708" lon="6.92565">
        <ele>370</ele>
        <time>2011-09-25T07:02:39Z</time>
      </trkpt>
      <trkpt lat="49.18707" lon="6.92564">
        <ele>370</ele>
        <time>2011-09-25T07:02:40Z</time>
      </trkpt>
      <trkpt lat="49.18706" lon="6.92563">
        <ele>370</ele>
        <time>2011-09-25T07:02:41Z</time>
      </trkpt>
      <trkpt lat="49.18705" lon="6.92562">
        <ele>370</ele>
        <time>2011-09-25T07:02:42Z</time>
      </trkpt>
      <trkpt lat="49.18703" lon="6.92561">
        <ele>370</ele>
        <time>2011-09-25T07:02:43Z</time>
      </trkpt>
      <trkpt lat="49.18703" lon="6.92559">
        <ele>370</ele>
        <time>2011-09-25T07:02:44Z</time>
      </trkpt>
      <trkpt lat="49.18702" lon="6.92557">
        <ele>370</ele>
        <time>2011-09-25T07:02:45Z</time>
      </trkpt>
      <trkpt lat="49.18702" lon="6.92556">
        <ele>370</ele>
        <time>2011-09-25T07:02:46Z</time>
      </trkpt>
      <trkpt lat="49.18701" lon="6.92553">
        <ele>370</ele>
        <time>2011-09-25T07:02:47Z</time>
      </trkpt>
      <trkpt lat="49.187" lon="6.92552">
        <ele>371</ele>
        <time>2011-09-25T07:02:48Z</time>
      </trkpt>
      <trkpt lat="49.18697" lon="6.92549">
        <ele>371</ele>
        <time>2011-09-25T07:02:50Z</time>
      </trkpt>
      <trkpt lat="49.18696" lon="6.92547">
        <ele>372</ele>
        <time>2011-09-25T07:02:51Z</time>
      </trkpt>
      <trkpt lat="49.18695" lon="6.92545">
        <ele>372</ele>
        <time>2011-09-25T07:02:52Z</time>
      </trkpt>
      <trkpt lat="49.18695" lon="6.92543">
        <ele>372</ele>
        <time>2011-09-25T07:02:53Z</time>
      </trkpt>
      <trkpt lat="49.18693" lon="6.92541">
        <ele>372</ele>
        <time>2011-09-25T07:02:55Z</time>
      </trkpt>
      <trkpt lat="49.18692" lon="6.92538">
        <ele>372</ele>
        <time>2011-09-25T07:02:57Z</time>
      </trkpt>
      <trkpt lat="49.18692" lon="6.92536">
        <ele>372</ele>
        <time>2011-09-25T07:02:58Z</time>
      </trkpt>
      <trkpt lat="49.18691" lon="6.92534">
        <ele>372</ele>
        <time>2011-09-25T07:02:59Z</time>
      </trkpt>
      <trkpt lat="49.1869" lon="6.92532">
        <ele>372</ele>
        <time>2011-09-25T07:03:00Z</time>
      </trkpt>
      <trkpt lat="49.18689" lon="6.9253">
        <ele>372</ele>
        <time>2011-09-25T07:03:01Z</time>
      </trkpt>
      <trkpt lat="49.18688" lon="6.92528">
        <ele>372</ele>
        <time>2011-09-25T07:03:02Z</time>
      </trkpt>
      <trkpt lat="49.18687" lon="6.92526">
        <ele>372</ele>
        <time>2011-09-25T07:03:03Z</time>
      </trkpt>
      <trkpt lat="49.18686" lon="6.92524">
        <ele>372</ele>
        <time>2011-09-25T07:03:04Z</time>
      </trkpt>
      <trkpt lat="49.18686" lon="6.92522">
        <ele>372</ele>
        <time>2011-09-25T07:03:05Z</time>
      </trkpt>
      <trkpt lat="49.18685" lon="6.9252">
        <ele>372</ele>
        <time>2011-09-25T07:03:06Z</time>
      </trkpt>
      <trkpt lat="49.18684" lon="6.92518">
        <ele>372</ele>
        <time>2011-09-25T07:03:07Z</time>
      </trkpt>
      <trkpt lat="49.18683" lon="6.92516">
        <ele>372</ele>
        <time>2011-09-25T07:03:08Z</time>
      </trkpt>
      <trkpt lat="49.18682" lon="6.92513">
        <ele>372</ele>
        <time>2011-09-25T07:03:10Z</time>
      </trkpt>
      <trkpt lat="49.18682" lon="6.92511">
        <ele>372</ele>
        <time>2011-09-25T07:03:11Z</time>
      </trkpt>
      <trkpt lat="49.18681" lon="6.92509">
        <ele>372</ele>
        <time>2011-09-25T07:03:12Z</time>
      </trkpt>
      <trkpt lat="49.18679" lon="6.92507">
        <ele>372</ele>
        <time>2011-09-25T07:03:13Z</time>
      </trkpt>
      <trkpt lat="49.18679" lon="6.92505">
        <ele>372</ele>
        <time>2011-09-25T07:03:14Z</time>
      </trkpt>
      <trkpt lat="49.18678" lon="6.92502">
        <ele>372</ele>
        <time>2011-09-25T07:03:16Z</time>
      </trkpt>
      <trkpt lat="49.18677" lon="6.925">
        <ele>372</ele>
        <time>2011-09-25T07:03:17Z</time>
      </trkpt>
      <trkpt lat="49.18677" lon="6.92499">
        <ele>372</ele>
        <time>2011-09-25T07:03:18Z</time>
      </trkpt>
      <trkpt lat="49.18677" lon="6.92497">
        <ele>372</ele>
        <time>2011-09-25T07:03:19Z</time>
      </trkpt>
      <trkpt lat="49.18677" lon="6.92495">
        <ele>372</ele>
        <time>2011-09-25T07:03:20Z</time>
      </trkpt>
      <trkpt lat="49.18676" lon="6.92493">
        <ele>373</ele>
        <time>2011-09-25T07:03:21Z</time>
      </trkpt>
      <trkpt lat="49.18674" lon="6.9249">
        <ele>374</ele>
        <time>2011-09-25T07:03:23Z</time>
      </trkpt>
      <trkpt lat="49.18674" lon="6.92488">
        <ele>374</ele>
        <time>2011-09-25T07:03:24Z</time>
      </trkpt>
      <trkpt lat="49.18673" lon="6.92487">
        <ele>374</ele>
        <time>2011-09-25T07:03:25Z</time>
      </trkpt>
      <trkpt lat="49.18672" lon="6.92485">
        <ele>375</ele>
        <time>2011-09-25T07:03:26Z</time>
      </trkpt>
      <trkpt lat="49.1867" lon="6.92483">
        <ele>375</ele>
        <time>2011-09-25T07:03:28Z</time>
      </trkpt>
      <trkpt lat="49.18669" lon="6.92481">
        <ele>376</ele>
        <time>2011-09-25T07:03:30Z</time>
      </trkpt>
      <trkpt lat="49.18668" lon="6.92478">
        <ele>376</ele>
        <time>2011-09-25T07:03:32Z</time>
      </trkpt>
      <trkpt lat="49.18666" lon="6.92477">
        <ele>376</ele>
        <time>2011-09-25T07:03:33Z</time>
      </trkpt>
      <trkpt lat="49.18665" lon="6.92476">
        <ele>376</ele>
        <time>2011-09-25T07:03:34Z</time>
      </trkpt>
      <trkpt lat="49.18663" lon="6.92474">
        <ele>376</ele>
        <time>2011-09-25T07:03:36Z</time>
      </trkpt>
      <trkpt lat="49.18661" lon="6.92471">
        <ele>376</ele>
        <time>2011-09-25T07:03:38Z</time>
      </trkpt>
      <trkpt lat="49.1866" lon="6.92469">
        <ele>376</ele>
        <time>2011-09-25T07:03:40Z</time>
      </trkpt>
      <trkpt lat="49.18659" lon="6.92468">
        <ele>376</ele>
        <time>2011-09-25T07:03:41Z</time>
      </trkpt>
      <trkpt lat="49.18657" lon="6.92466">
        <ele>376</ele>
        <time>2011-09-25T07:03:43Z</time>
      </trkpt>
      <trkpt lat="49.18656" lon="6.92465">
        <ele>376</ele>
        <time>2011-09-25T07:03:45Z</time>
      </trkpt>
      <trkpt lat="49.18655" lon="6.92463">
        <ele>376</ele>
        <time>2011-09-25T07:03:47Z</time>
      </trkpt>
      <trkpt lat="49.18655" lon="6.9246">
        <ele>376</ele>
        <time>2011-09-25T07:03:49Z</time>
      </trkpt>
      <trkpt lat="49.18654" lon="6.9246">
        <ele>376</ele>
        <time>2011-09-25T07:03:50Z</time>
      </trkpt>
      <trkpt lat="49.18652" lon="6.92459">
        <ele>376</ele>
        <time>2011-09-25T07:03:51Z</time>
      </trkpt>
      <trkpt lat="49.18652" lon="6.92457">
        <ele>376</ele>
        <time>2011-09-25T07:03:53Z</time>
      </trkpt>
      <trkpt lat="49.18651" lon="6.92454">
        <ele>376</ele>
        <time>2011-09-25T07:03:55Z</time>
      </trkpt>
      <trkpt lat="49.1865" lon="6.92452">
        <ele>376</ele>
        <time>2011-09-25T07:03:57Z</time>
      </trkpt>
      <trkpt lat="49.18648" lon="6.9245">
        <ele>376</ele>
        <time>2011-09-25T07:03:59Z</time>
      </trkpt>
      <trkpt lat="49.18647" lon="6.92448">
        <ele>376</ele>
        <time>2011-09-25T07:04:01Z</time>
      </trkpt>
      <trkpt lat="49.18646" lon="6.92445">
        <ele>376</ele>
        <time>2011-09-25T07:04:03Z</time>
      </trkpt>
      <trkpt lat="49.18644" lon="6.92443">
        <ele>376</ele>
        <time>2011-09-25T07:04:05Z</time>
      </trkpt>
      <trkpt lat="49.18642" lon="6.92442">
        <ele>376</ele>
        <time>2011-09-25T07:04:07Z</time>
      </trkpt>
      <trkpt lat="49.18641" lon="6.9244">
        <ele>376</ele>
        <time>2011-09-25T07:04:08Z</time>
      </trkpt>
      <trkpt lat="49.18642" lon="6.92438">
        <ele>376</ele>
        <time>2011-09-25T07:04:09Z</time>
      </trkpt>
      <trkpt lat="49.18642" lon="6.92435">
        <ele>376</ele>
        <time>2011-09-25T07:04:10Z</time>
      </trkpt>
      <trkpt lat="49.18642" lon="6.92433">
        <ele>376</ele>
        <time>2011-09-25T07:04:11Z</time>
      </trkpt>
      <trkpt lat="49.18641" lon="6.92431">
        <ele>376</ele>
        <time>2011-09-25T07:04:12Z</time>
      </trkpt>
      <trkpt lat="49.1864" lon="6.92429">
        <ele>376</ele>
        <time>2011-09-25T07:04:13Z</time>
      </trkpt>
      <trkpt lat="49.18638" lon="6.92427">
        <ele>376</ele>
        <time>2011-09-25T07:04:15Z</time>
      </trkpt>
      <trkpt lat="49.18636" lon="6.92424">
        <ele>375</ele>
        <time>2011-09-25T07:04:17Z</time>
      </trkpt>
      <trkpt lat="49.18634" lon="6.92421">
        <ele>374</ele>
        <time>2011-09-25T07:04:19Z</time>
      </trkpt>
      <trkpt lat="49.18632" lon="6.92419">
        <ele>374</ele>
        <time>2011-09-25T07:04:21Z</time>
      </trkpt>
      <trkpt lat="49.18631" lon="6.92418">
        <ele>374</ele>
        <time>2011-09-25T07:04:22Z</time>
      </trkpt>
      <trkpt lat="49.18629" lon="6.92415">
        <ele>373</ele>
        <time>2011-09-25T07:04:24Z</time>
      </trkpt>
      <trkpt lat="49.18628" lon="6.92414">
        <ele>373</ele>
        <time>2011-09-25T07:04:25Z</time>
      </trkpt>
      <trkpt lat="49.18626" lon="6.92413">
        <ele>373</ele>
        <time>2011-09-25T07:04:26Z</time>
      </trkpt>
      <trkpt lat="49.18625" lon="6.92412">
        <ele>373</ele>
        <time>2011-09-25T07:04:27Z</time>
      </trkpt>
      <trkpt lat="49.18623" lon="6.92408">
        <ele>373</ele>
        <time>2011-09-25T07:04:29Z</time>
      </trkpt>
      <trkpt lat="49.18622" lon="6.92407">
        <ele>373</ele>
        <time>2011-09-25T07:04:30Z</time>
      </trkpt>
      <trkpt lat="49.18621" lon="6.92405">
        <ele>373</ele>
        <time>2011-09-25T07:04:32Z</time>
      </trkpt>
      <trkpt lat="49.18621" lon="6.92403">
        <ele>373</ele>
        <time>2011-09-25T07:04:34Z</time>
      </trkpt>
      <trkpt lat="49.18619" lon="6.924">
        <ele>373</ele>
        <time>2011-09-25T07:04:37Z</time>
      </trkpt>
      <trkpt lat="49.18617" lon="6.92397">
        <ele>373</ele>
        <time>2011-09-25T07:04:39Z</time>
      </trkpt>
      <trkpt lat="49.18616" lon="6.92396">
        <ele>373</ele>
        <time>2011-09-25T07:04:40Z</time>
      </trkpt>
      <trkpt lat="49.18614" lon="6.92395">
        <ele>373</ele>
        <time>2011-09-25T07:04:41Z</time>
      </trkpt>
      <trkpt lat="49.18612" lon="6.92394">
        <ele>373</ele>
        <time>2011-09-25T07:04:42Z</time>
      </trkpt>
      <trkpt lat="49.1861" lon="6.92392">
        <ele>373</ele>
        <time>2011-09-25T07:04:43Z</time>
      </trkpt>
      <trkpt lat="49.18609" lon="6.92391">
        <ele>373</ele>
        <time>2011-09-25T07:04:44Z</time>
      </trkpt>
      <trkpt lat="49.18607" lon="6.9239">
        <ele>373</ele>
        <time>2011-09-25T07:04:45Z</time>
      </trkpt>
      <trkpt lat="49.18606" lon="6.92389">
        <ele>373</ele>
        <time>2011-09-25T07:04:46Z</time>
      </trkpt>
      <trkpt lat="49.18605" lon="6.92387">
        <ele>373</ele>
        <time>2011-09-25T07:04:48Z</time>
      </trkpt>
      <trkpt lat="49.18603" lon="6.92385">
        <ele>373</ele>
        <time>2011-09-25T07:04:49Z</time>
      </trkpt>
      <trkpt lat="49.18602" lon="6.92382">
        <ele>373</ele>
        <time>2011-09-25T07:04:51Z</time>
      </trkpt>
      <trkpt lat="49.18599" lon="6.9238">
        <ele>373</ele>
        <time>2011-09-25T07:04:53Z</time>
      </trkpt>
      <trkpt lat="49.18597" lon="6.92378">
        <ele>373</ele>
        <time>2011-09-25T07:04:54Z</time>
      </trkpt>
      <trkpt lat="49.18595" lon="6.92376">
        <ele>373</ele>
        <time>2011-09-25T07:04:56Z</time>
      </trkpt>
      <trkpt lat="49.18593" lon="6.92376">
        <ele>373</ele>
        <time>2011-09-25T07:04:57Z</time>
      </trkpt>
      <trkpt lat="49.18592" lon="6.92375">
        <ele>373</ele>
        <time>2011-09-25T07:04:58Z</time>
      </trkpt>
      <trkpt lat="49.1859" lon="6.92374">
        <ele>374</ele>
        <time>2011-09-25T07:04:59Z</time>
      </trkpt>
      <trkpt lat="49.18589" lon="6.92373">
        <ele>374</ele>
        <time>2011-09-25T07:05:00Z</time>
      </trkpt>
      <trkpt lat="49.18588" lon="6.92372">
        <ele>375</ele>
        <time>2011-09-25T07:05:01Z</time>
      </trkpt>
      <trkpt lat="49.18586" lon="6.9237">
        <ele>375</ele>
        <time>2011-09-25T07:05:02Z</time>
      </trkpt>
      <trkpt lat="49.18585" lon="6.92369">
        <ele>375</ele>
        <time>2011-09-25T07:05:03Z</time>
      </trkpt>
      <trkpt lat="49.18584" lon="6.92368">
        <ele>375</ele>
        <time>2011-09-25T07:05:04Z</time>
      </trkpt>
      <trkpt lat="49.18582" lon="6.92365">
        <ele>375</ele>
        <time>2011-09-25T07:05:06Z</time>
      </trkpt>
      <trkpt lat="49.18581" lon="6.92364">
        <ele>375</ele>
        <time>2011-09-25T07:05:07Z</time>
      </trkpt>
      <trkpt lat="49.18579" lon="6.92362">
        <ele>376</ele>
        <time>2011-09-25T07:05:08Z</time>
      </trkpt>
      <trkpt lat="49.18578" lon="6.92361">
        <ele>376</ele>
        <time>2011-09-25T07:05:09Z</time>
      </trkpt>
      <trkpt lat="49.18577" lon="6.92358">
        <ele>376</ele>
        <time>2011-09-25T07:05:11Z</time>
      </trkpt>
      <trkpt lat="49.18576" lon="6.92357">
        <ele>376</ele>
        <time>2011-09-25T07:05:13Z</time>
      </trkpt>
      <trkpt lat="49.18575" lon="6.92354">
        <ele>377</ele>
        <time>2011-09-25T07:05:15Z</time>
      </trkpt>
      <trkpt lat="49.18576" lon="6.92352">
        <ele>377</ele>
        <time>2011-09-25T07:05:17Z</time>
      </trkpt>
      <trkpt lat="49.18578" lon="6.92351">
        <ele>377</ele>
        <time>2011-09-25T07:05:19Z</time>
      </trkpt>
      <trkpt lat="49.18579" lon="6.9235">
        <ele>377</ele>
        <time>2011-09-25T07:05:21Z</time>
      </trkpt>
      <trkpt lat="49.18578" lon="6.92351">
        <ele>374</ele>
        <time>2011-09-25T07:05:25Z</time>
      </trkpt>
      <trkpt lat="49.18577" lon="6.92349">
        <ele>374</ele>
        <time>2011-09-25T07:05:27Z</time>
      </trkpt>
      <trkpt lat="49.18576" lon="6.9235">
        <ele>374</ele>
        <time>2011-09-25T07:05:29Z</time>
      </trkpt>
      <trkpt lat="49.18576" lon="6.92348">
        <ele>374</ele>
        <time>2011-09-25T07:05:33Z</time>
      </trkpt>
      <trkpt lat="49.18578" lon="6.92348">
        <ele>374</ele>
        <time>2011-09-25T07:05:36Z</time>
      </trkpt>
      <trkpt lat="49.18579" lon="6.92348">
        <ele>374</ele>
        <time>2011-09-25T07:05:38Z</time>
      </trkpt>
      <trkpt lat="49.18581" lon="6.92347">
        <ele>374</ele>
        <time>2011-09-25T07:05:40Z</time>
      </trkpt>
      <trkpt lat="49.18579" lon="6.92346">
        <ele>371</ele>
        <time>2011-09-25T07:05:49Z</time>
      </trkpt>
      <trkpt lat="49.18579" lon="6.92344">
        <ele>371</ele>
        <time>2011-09-25T07:05:51Z</time>
      </trkpt>
      <trkpt lat="49.18579" lon="6.92342">
        <ele>370</ele>
        <time>2011-09-25T07:05:53Z</time>
      </trkpt>
      <trkpt lat="49.18578" lon="6.92341">
        <ele>370</ele>
        <time>2011-09-25T07:05:57Z</time>
      </trkpt>
      <trkpt lat="49.18577" lon="6.92339">
        <ele>370</ele>
        <time>2011-09-25T07:06:00Z</time>
      </trkpt>
      <trkpt lat="49.18576" lon="6.92339">
        <ele>370</ele>
        <time>2011-09-25T07:06:01Z</time>
      </trkpt>
      <trkpt lat="49.18574" lon="6.92339">
        <ele>370</ele>
        <time>2011-09-25T07:06:02Z</time>
      </trkpt>
      <trkpt lat="49.18573" lon="6.92337">
        <ele>370</ele>
        <time>2011-09-25T07:06:04Z</time>
      </trkpt>
      <trkpt lat="49.18571" lon="6.92335">
        <ele>370</ele>
        <time>2011-09-25T07:06:06Z</time>
      </trkpt>
      <trkpt lat="49.18569" lon="6.92332">
        <ele>370</ele>
        <time>2011-09-25T07:06:08Z</time>
      </trkpt>
      <trkpt lat="49.18567" lon="6.92331">
        <ele>370</ele>
        <time>2011-09-25T07:06:10Z</time>
      </trkpt>
      <trkpt lat="49.18565" lon="6.9233">
        <ele>370</ele>
        <time>2011-09-25T07:06:11Z</time>
      </trkpt>
      <trkpt lat="49.18564" lon="6.92329">
        <ele>370</ele>
        <time>2011-09-25T07:06:12Z</time>
      </trkpt>
      <trkpt lat="49.18562" lon="6.92327">
        <ele>370</ele>
        <time>2011-09-25T07:06:13Z</time>
      </trkpt>
      <trkpt lat="49.18561" lon="6.92325">
        <ele>370</ele>
        <time>2011-09-25T07:06:15Z</time>
      </trkpt>
      <trkpt lat="49.1856" lon="6.92323">
        <ele>370</ele>
        <time>2011-09-25T07:06:16Z</time>
      </trkpt>
      <trkpt lat="49.1856" lon="6.92321">
        <ele>370</ele>
        <time>2011-09-25T07:06:17Z</time>
      </trkpt>
      <trkpt lat="49.18558" lon="6.92319">
        <ele>370</ele>
        <time>2011-09-25T07:06:18Z</time>
      </trkpt>
      <trkpt lat="49.18557" lon="6.92316">
        <ele>370</ele>
        <time>2011-09-25T07:06:20Z</time>
      </trkpt>
      <trkpt lat="49.18556" lon="6.92315">
        <ele>370</ele>
        <time>2011-09-25T07:06:21Z</time>
      </trkpt>
      <trkpt lat="49.18555" lon="6.92312">
        <ele>370</ele>
        <time>2011-09-25T07:06:25Z</time>
      </trkpt>
      <trkpt lat="49.18555" lon="6.9231">
        <ele>369</ele>
        <time>2011-09-25T07:06:27Z</time>
      </trkpt>
      <trkpt lat="49.18554" lon="6.92308">
        <ele>368</ele>
        <time>2011-09-25T07:06:29Z</time>
      </trkpt>
      <trkpt lat="49.18554" lon="6.92306">
        <ele>367</ele>
        <time>2011-09-25T07:06:30Z</time>
      </trkpt>
      <trkpt lat="49.18554" lon="6.92304">
        <ele>366</ele>
        <time>2011-09-25T07:06:32Z</time>
      </trkpt>
      <trkpt lat="49.18553" lon="6.92302">
        <ele>365</ele>
        <time>2011-09-25T07:06:33Z</time>
      </trkpt>
      <trkpt lat="49.18552" lon="6.92299">
        <ele>364</ele>
        <time>2011-09-25T07:06:35Z</time>
      </trkpt>
      <trkpt lat="49.18551" lon="6.92297">
        <ele>364</ele>
        <time>2011-09-25T07:06:36Z</time>
      </trkpt>
      <trkpt lat="49.18551" lon="6.92294">
        <ele>363</ele>
        <time>2011-09-25T07:06:38Z</time>
      </trkpt>
      <trkpt lat="49.1855" lon="6.92292">
        <ele>363</ele>
        <time>2011-09-25T07:06:39Z</time>
      </trkpt>
      <trkpt lat="49.18549" lon="6.9229">
        <ele>362</ele>
        <time>2011-09-25T07:06:40Z</time>
      </trkpt>
      <trkpt lat="49.18549" lon="6.92289">
        <ele>362</ele>
        <time>2011-09-25T07:06:41Z</time>
      </trkpt>
      <trkpt lat="49.18548" lon="6.92285">
        <ele>361</ele>
        <time>2011-09-25T07:06:43Z</time>
      </trkpt>
      <trkpt lat="49.18547" lon="6.92283">
        <ele>361</ele>
        <time>2011-09-25T07:06:44Z</time>
      </trkpt>
      <trkpt lat="49.18547" lon="6.92281">
        <ele>361</ele>
        <time>2011-09-25T07:06:45Z</time>
      </trkpt>
      <trkpt lat="49.18547" lon="6.92279">
        <ele>361</ele>
        <time>2011-09-25T07:06:46Z</time>
      </trkpt>
      <trkpt lat="49.18546" lon="6.92275">
        <ele>360</ele>
        <time>2011-09-25T07:06:48Z</time>
      </trkpt>
      <trkpt lat="49.18545" lon="6.92274">
        <ele>359</ele>
        <time>2011-09-25T07:06:49Z</time>
      </trkpt>
      <trkpt lat="49.18543" lon="6.92271">
        <ele>359</ele>
        <time>2011-09-25T07:06:50Z</time>
      </trkpt>
      <trkpt lat="49.18542" lon="6.92268">
        <ele>359</ele>
        <time>2011-09-25T07:06:51Z</time>
      </trkpt>
      <trkpt lat="49.18542" lon="6.92266">
        <ele>359</ele>
        <time>2011-09-25T07:06:52Z</time>
      </trkpt>
      <trkpt lat="49.18541" lon="6.92263">
        <ele>359</ele>
        <time>2011-09-25T07:06:53Z</time>
      </trkpt>
      <trkpt lat="49.1854" lon="6.92262">
        <ele>359</ele>
        <time>2011-09-25T07:06:54Z</time>
      </trkpt>
      <trkpt lat="49.18539" lon="6.92261">
        <ele>359</ele>
        <time>2011-09-25T07:06:55Z</time>
      </trkpt>
      <trkpt lat="49.18537" lon="6.92258">
        <ele>359</ele>
        <time>2011-09-25T07:06:57Z</time>
      </trkpt>
      <trkpt lat="49.18536" lon="6.92255">
        <ele>359</ele>
        <time>2011-09-25T07:06:58Z</time>
      </trkpt>
      <trkpt lat="49.18535" lon="6.92253">
        <ele>359</ele>
        <time>2011-09-25T07:06:59Z</time>
      </trkpt>
      <trkpt lat="49.18533" lon="6.92252">
        <ele>359</ele>
        <time>2011-09-25T07:07:00Z</time>
      </trkpt>
      <trkpt lat="49.18531" lon="6.92249">
        <ele>359</ele>
        <time>2011-09-25T07:07:02Z</time>
      </trkpt>
      <trkpt lat="49.1853" lon="6.92247">
        <ele>359</ele>
        <time>2011-09-25T07:07:04Z</time>
      </trkpt>
      <trkpt lat="49.18528" lon="6.92243">
        <ele>359</ele>
        <time>2011-09-25T07:07:06Z</time>
      </trkpt>
      <trkpt lat="49.18527" lon="6.92241">
        <ele>359</ele>
        <time>2011-09-25T07:07:07Z</time>
      </trkpt>
      <trkpt lat="49.18527" lon="6.92239">
        <ele>359</ele>
        <time>2011-09-25T07:07:08Z</time>
      </trkpt>
      <trkpt lat="49.18526" lon="6.92238">
        <ele>359</ele>
        <time>2011-09-25T07:07:09Z</time>
      </trkpt>
      <trkpt lat="49.18525" lon="6.92236">
        <ele>359</ele>
        <time>2011-09-25T07:07:10Z</time>
      </trkpt>
      <trkpt lat="49.18525" lon="6.92234">
        <ele>359</ele>
        <time>2011-09-25T07:07:11Z</time>
      </trkpt>
      <trkpt lat="49.18524" lon="6.92233">
        <ele>359</ele>
        <time>2011-09-25T07:07:12Z</time>
      </trkpt>
      <trkpt lat="49.18524" lon="6.92231">
        <ele>359</ele>
        <time>2011-09-25T07:07:13Z</time>
      </trkpt>
      <trkpt lat="49.18524" lon="6.92228">
        <ele>359</ele>
        <time>2011-09-25T07:07:14Z</time>
      </trkpt>
      <trkpt lat="49.18523" lon="6.92225">
        <ele>359</ele>
        <time>2011-09-25T07:07:16Z</time>
      </trkpt>
      <trkpt lat="49.18521" lon="6.92222">
        <ele>359</ele>
        <time>2011-09-25T07:07:18Z</time>
      </trkpt>
      <trkpt lat="49.18521" lon="6.9222">
        <ele>359</ele>
        <time>2011-09-25T07:07:19Z</time>
      </trkpt>
      <trkpt lat="49.18519" lon="6.92218">
        <ele>359</ele>
        <time>2011-09-25T07:07:21Z</time>
      </trkpt>
      <trkpt lat="49.18518" lon="6.92215">
        <ele>359</ele>
        <time>2011-09-25T07:07:23Z</time>
      </trkpt>
      <trkpt lat="49.18518" lon="6.92213">
        <ele>359</ele>
        <time>2011-09-25T07:07:24Z</time>
      </trkpt>
      <trkpt lat="49.18517" lon="6.92211">
        <ele>358</ele>
        <time>2011-09-25T07:07:26Z</time>
      </trkpt>
      <trkpt lat="49.18517" lon="6.92208">
        <ele>357</ele>
        <time>2011-09-25T07:07:28Z</time>
      </trkpt>
      <trkpt lat="49.18518" lon="6.92206">
        <ele>357</ele>
        <time>2011-09-25T07:07:29Z</time>
      </trkpt>
      <trkpt lat="49.18519" lon="6.92204">
        <ele>356</ele>
        <time>2011-09-25T07:07:30Z</time>
      </trkpt>
      <trkpt lat="49.1852" lon="6.92203">
        <ele>356</ele>
        <time>2011-09-25T07:07:31Z</time>
      </trkpt>
      <trkpt lat="49.18521" lon="6.92203">
        <ele>356</ele>
        <time>2011-09-25T07:07:32Z</time>
      </trkpt>
      <trkpt lat="49.18523" lon="6.92203">
        <ele>354</ele>
        <time>2011-09-25T07:07:34Z</time>
      </trkpt>
      <trkpt lat="49.18524" lon="6.92204">
        <ele>354</ele>
        <time>2011-09-25T07:07:35Z</time>
      </trkpt>
      <trkpt lat="49.18526" lon="6.92205">
        <ele>353</ele>
        <time>2011-09-25T07:07:36Z</time>
      </trkpt>
      <trkpt lat="49.18528" lon="6.92205">
        <ele>353</ele>
        <time>2011-09-25T07:07:37Z</time>
      </trkpt>
      <trkpt lat="49.1853" lon="6.92206">
        <ele>353</ele>
        <time>2011-09-25T07:07:38Z</time>
      </trkpt>
      <trkpt lat="49.18531" lon="6.92207">
        <ele>352</ele>
        <time>2011-09-25T07:07:39Z</time>
      </trkpt>
      <trkpt lat="49.18533" lon="6.92208">
        <ele>352</ele>
        <time>2011-09-25T07:07:41Z</time>
      </trkpt>
      <trkpt lat="49.18533" lon="6.9221">
        <ele>352</ele>
        <time>2011-09-25T07:07:42Z</time>
      </trkpt>
      <trkpt lat="49.18533" lon="6.92213">
        <ele>351</ele>
        <time>2011-09-25T07:07:44Z</time>
      </trkpt>
      <trkpt lat="49.18533" lon="6.92215">
        <ele>351</ele>
        <time>2011-09-25T07:07:46Z</time>
      </trkpt>
      <trkpt lat="49.18534" lon="6.92217">
        <ele>351</ele>
        <time>2011-09-25T07:07:47Z</time>
      </trkpt>
      <trkpt lat="49.18535" lon="6.92218">
        <ele>351</ele>
        <time>2011-09-25T07:07:49Z</time>
      </trkpt>
      <trkpt lat="49.18536" lon="6.92218">
        <ele>351</ele>
        <time>2011-09-25T07:07:50Z</time>
      </trkpt>
      <trkpt lat="49.18538" lon="6.92217">
        <ele>351</ele>
        <time>2011-09-25T07:07:52Z</time>
      </trkpt>
      <trkpt lat="49.18539" lon="6.92217">
        <ele>351</ele>
        <time>2011-09-25T07:07:53Z</time>
      </trkpt>
      <trkpt lat="49.18541" lon="6.92217">
        <ele>351</ele>
        <time>2011-09-25T07:07:54Z</time>
      </trkpt>
      <trkpt lat="49.18542" lon="6.92216">
        <ele>352</ele>
        <time>2011-09-25T07:07:56Z</time>
      </trkpt>
      <trkpt lat="49.1854" lon="6.92215">
        <ele>354</ele>
        <time>2011-09-25T07:07:58Z</time>
      </trkpt>
      <trkpt lat="49.18538" lon="6.92212">
        <ele>355</ele>
        <time>2011-09-25T07:08:01Z</time>
      </trkpt>
      <trkpt lat="49.18537" lon="6.92212">
        <ele>355</ele>
        <time>2011-09-25T07:08:02Z</time>
      </trkpt>
      <trkpt lat="49.18536" lon="6.92212">
        <ele>355</ele>
        <time>2011-09-25T07:08:03Z</time>
      </trkpt>
      <trkpt lat="49.18536" lon="6.92211">
        <ele>355</ele>
        <time>2011-09-25T07:08:06Z</time>
      </trkpt>
      <trkpt lat="49.18536" lon="6.92208">
        <ele>355</ele>
        <time>2011-09-25T07:08:08Z</time>
      </trkpt>
      <trkpt lat="49.18536" lon="6.92205">
        <ele>355</ele>
        <time>2011-09-25T07:08:10Z</time>
      </trkpt>
      <trkpt lat="49.18536" lon="6.92202">
        <ele>355</ele>
        <time>2011-09-25T07:08:12Z</time>
      </trkpt>
      <trkpt lat="49.18535" lon="6.922">
        <ele>355</ele>
        <time>2011-09-25T07:08:13Z</time>
      </trkpt>
      <trkpt lat="49.18535" lon="6.92198">
        <ele>355</ele>
        <time>2011-09-25T07:08:14Z</time>
      </trkpt>
      <trkpt lat="49.18534" lon="6.92195">
        <ele>353</ele>
        <time>2011-09-25T07:08:16Z</time>
      </trkpt>
      <trkpt lat="49.18532" lon="6.92192">
        <ele>352</ele>
        <time>2011-09-25T07:08:18Z</time>
      </trkpt>
      <trkpt lat="49.18531" lon="6.9219">
        <ele>351</ele>
        <time>2011-09-25T07:08:20Z</time>
      </trkpt>
      <trkpt lat="49.1853" lon="6.92187">
        <ele>351</ele>
        <time>2011-09-25T07:08:22Z</time>
      </trkpt>
      <trkpt lat="49.18529" lon="6.92185">
        <ele>351</ele>
        <time>2011-09-25T07:08:24Z</time>
      </trkpt>
      <trkpt lat="49.18529" lon="6.92182">
        <ele>351</ele>
        <time>2011-09-25T07:08:26Z</time>
      </trkpt>
      <trkpt lat="49.18529" lon="6.92181">
        <ele>351</ele>
        <time>2011-09-25T07:08:28Z</time>
      </trkpt>
      <trkpt lat="49.18529" lon="6.92178">
        <ele>351</ele>
        <time>2011-09-25T07:08:30Z</time>
      </trkpt>
      <trkpt lat="49.18528" lon="6.92176">
        <ele>350</ele>
        <time>2011-09-25T07:08:32Z</time>
      </trkpt>
      <trkpt lat="49.18528" lon="6.92173">
        <ele>349</ele>
        <time>2011-09-25T07:08:34Z</time>
      </trkpt>
      <trkpt lat="49.18528" lon="6.9217">
        <ele>349</ele>
        <time>2011-09-25T07:08:35Z</time>
      </trkpt>
      <trkpt lat="49.18527" lon="6.92168">
        <ele>348</ele>
        <time>2011-09-25T07:08:37Z</time>
      </trkpt>
      <trkpt lat="49.18526" lon="6.92165">
        <ele>348</ele>
        <time>2011-09-25T07:08:39Z</time>
      </trkpt>
      <trkpt lat="49.18525" lon="6.92163">
        <ele>348</ele>
        <time>2011-09-25T07:08:40Z</time>
      </trkpt>
      <trkpt lat="49.18523" lon="6.92161">
        <ele>348</ele>
        <time>2011-09-25T07:08:42Z</time>
      </trkpt>
      <trkpt lat="49.18523" lon="6.92159">
        <ele>348</ele>
        <time>2011-09-25T07:08:44Z</time>
      </trkpt>
      <trkpt lat="49.18522" lon="6.92157">
        <ele>348</ele>
        <time>2011-09-25T07:08:46Z</time>
      </trkpt>
      <trkpt lat="49.18521" lon="6.92156">
        <ele>347</ele>
        <time>2011-09-25T07:08:48Z</time>
      </trkpt>
      <trkpt lat="49.1852" lon="6.92154">
        <ele>346</ele>
        <time>2011-09-25T07:08:50Z</time>
      </trkpt>
      <trkpt lat="49.18518" lon="6.92153">
        <ele>346</ele>
        <time>2011-09-25T07:08:52Z</time>
      </trkpt>
      <trkpt lat="49.18517" lon="6.92152">
        <ele>346</ele>
        <time>2011-09-25T07:08:56Z</time>
      </trkpt>
      <trkpt lat="49.18515" lon="6.92152">
        <ele>346</ele>
        <time>2011-09-25T07:08:58Z</time>
      </trkpt>
      <trkpt lat="49.18515" lon="6.92149">
        <ele>344</ele>
        <time>2011-09-25T07:09:01Z</time>
      </trkpt>
      <trkpt lat="49.18515" lon="6.92147">
        <ele>342</ele>
        <time>2011-09-25T07:09:03Z</time>
      </trkpt>
      <trkpt lat="49.18513" lon="6.92146">
        <ele>341</ele>
        <time>2011-09-25T07:09:05Z</time>
      </trkpt>
      <trkpt lat="49.18512" lon="6.92143">
        <ele>339</ele>
        <time>2011-09-25T07:09:08Z</time>
      </trkpt>
      <trkpt lat="49.18512" lon="6.9214">
        <ele>339</ele>
        <time>2011-09-25T07:09:10Z</time>
      </trkpt>
      <trkpt lat="49.18511" lon="6.92137">
        <ele>339</ele>
        <time>2011-09-25T07:09:12Z</time>
      </trkpt>
      <trkpt lat="49.1851" lon="6.92135">
        <ele>339</ele>
        <time>2011-09-25T07:09:14Z</time>
      </trkpt>
      <trkpt lat="49.18511" lon="6.92133">
        <ele>339</ele>
        <time>2011-09-25T07:09:16Z</time>
      </trkpt>
      <trkpt lat="49.1851" lon="6.92131">
        <ele>339</ele>
        <time>2011-09-25T07:09:18Z</time>
      </trkpt>
      <trkpt lat="49.1851" lon="6.92129">
        <ele>339</ele>
        <time>2011-09-25T07:09:20Z</time>
      </trkpt>
      <trkpt lat="49.1851" lon="6.92127">
        <ele>339</ele>
        <time>2011-09-25T07:09:23Z</time>
      </trkpt>
      <trkpt lat="49.1851" lon="6.92125">
        <ele>339</ele>
        <time>2011-09-25T07:09:25Z</time>
      </trkpt>
      <trkpt lat="49.18508" lon="6.92124">
        <ele>339</ele>
        <time>2011-09-25T07:09:27Z</time>
      </trkpt>
      <trkpt lat="49.18507" lon="6.92123">
        <ele>339</ele>
        <time>2011-09-25T07:09:31Z</time>
      </trkpt>
      <trkpt lat="49.18505" lon="6.92123">
        <ele>337</ele>
        <time>2011-09-25T07:09:38Z</time>
      </trkpt>
      <trkpt lat="49.18503" lon="6.92122">
        <ele>337</ele>
        <time>2011-09-25T07:09:40Z</time>
      </trkpt>
      <trkpt lat="49.18502" lon="6.9212">
        <ele>336</ele>
        <time>2011-09-25T07:09:42Z</time>
      </trkpt>
      <trkpt lat="49.18503" lon="6.92117">
        <ele>334</ele>
        <time>2011-09-25T07:09:44Z</time>
      </trkpt>
      <trkpt lat="49.18504" lon="6.92115">
        <ele>333</ele>
        <time>2011-09-25T07:09:46Z</time>
      </trkpt>
      <trkpt lat="49.18505" lon="6.92113">
        <ele>332</ele>
        <time>2011-09-25T07:09:48Z</time>
      </trkpt>
      <trkpt lat="49.18505" lon="6.92111">
        <ele>331</ele>
        <time>2011-09-25T07:09:51Z</time>
      </trkpt>
      <trkpt lat="49.18505" lon="6.92109">
        <ele>331</ele>
        <time>2011-09-25T07:09:52Z</time>
      </trkpt>
      <trkpt lat="49.18504" lon="6.92107">
        <ele>331</ele>
        <time>2011-09-25T07:09:54Z</time>
      </trkpt>
      <trkpt lat="49.18503" lon="6.92105">
        <ele>331</ele>
        <time>2011-09-25T07:09:56Z</time>
      </trkpt>
      <trkpt lat="49.18502" lon="6.92103">
        <ele>331</ele>
        <time>2011-09-25T07:09:57Z</time>
      </trkpt>
      <trkpt lat="49.18501" lon="6.92101">
        <ele>331</ele>
        <time>2011-09-25T07:09:59Z</time>
      </trkpt>
      <trkpt lat="49.18501" lon="6.92098">
        <ele>331</ele>
        <time>2011-09-25T07:10:02Z</time>
      </trkpt>
      <trkpt lat="49.18501" lon="6.92094">
        <ele>331</ele>
        <time>2011-09-25T07:10:04Z</time>
      </trkpt>
      <trkpt lat="49.18499" lon="6.92095">
        <ele>331</ele>
        <time>2011-09-25T07:10:07Z</time>
      </trkpt>
      <trkpt lat="49.185" lon="6.92098">
        <ele>331</ele>
        <time>2011-09-25T07:10:09Z</time>
      </trkpt>
      <trkpt lat="49.185" lon="6.921">
        <ele>331</ele>
        <time>2011-09-25T07:10:10Z</time>
      </trkpt>
      <trkpt lat="49.18502" lon="6.92102">
        <ele>331</ele>
        <time>2011-09-25T07:10:11Z</time>
      </trkpt>
      <trkpt lat="49.18501" lon="6.92104">
        <ele>331</ele>
        <time>2011-09-25T07:10:15Z</time>
      </trkpt>
      <trkpt lat="49.185" lon="6.92102">
        <ele>331</ele>
        <time>2011-09-25T07:10:17Z</time>
      </trkpt>
      <trkpt lat="49.18499" lon="6.921">
        <ele>333</ele>
        <time>2011-09-25T07:10:19Z</time>
      </trkpt>
      <trkpt lat="49.18499" lon="6.92097">
        <ele>334</ele>
        <time>2011-09-25T07:10:21Z</time>
      </trkpt>
      <trkpt lat="49.185" lon="6.92094">
        <ele>335</ele>
        <time>2011-09-25T07:10:23Z</time>
      </trkpt>
      <trkpt lat="49.185" lon="6.92092">
        <ele>335</ele>
        <time>2011-09-25T07:10:24Z</time>
      </trkpt>
      <trkpt lat="49.18499" lon="6.92089">
        <ele>335</ele>
        <time>2011-09-25T07:10:27Z</time>
      </trkpt>
      <trkpt lat="49.18498" lon="6.92089">
        <ele>335</ele>
        <time>2011-09-25T07:10:29Z</time>
      </trkpt>
      <trkpt lat="49.18497" lon="6.92089">
        <ele>335</ele>
        <time>2011-09-25T07:10:30Z</time>
      </trkpt>
      <trkpt lat="49.18497" lon="6.92086">
        <ele>335</ele>
        <time>2011-09-25T07:10:34Z</time>
      </trkpt>
      <trkpt lat="49.18497" lon="6.92088">
        <ele>335</ele>
        <time>2011-09-25T07:10:38Z</time>
      </trkpt>
      <trkpt lat="49.18497" lon="6.9209">
        <ele>334</ele>
        <time>2011-09-25T07:10:39Z</time>
      </trkpt>
      <trkpt lat="49.18497" lon="6.92092">
        <ele>333</ele>
        <time>2011-09-25T07:10:40Z</time>
      </trkpt>
      <trkpt lat="49.18497" lon="6.92093">
        <ele>332</ele>
        <time>2011-09-25T07:10:42Z</time>
      </trkpt>
      <trkpt lat="49.18496" lon="6.92095">
        <ele>332</ele>
        <time>2011-09-25T07:10:45Z</time>
      </trkpt>
      <trkpt lat="49.18495" lon="6.92097">
        <ele>332</ele>
        <time>2011-09-25T07:10:47Z</time>
      </trkpt>
      <trkpt lat="49.18494" lon="6.92098">
        <ele>332</ele>
        <time>2011-09-25T07:10:49Z</time>
      </trkpt>
      <trkpt lat="49.18495" lon="6.92097">
        <ele>332</ele>
        <time>2011-09-25T07:10:59Z</time>
      </trkpt>
      <trkpt lat="49.18497" lon="6.92096">
        <ele>332</ele>
        <time>2011-09-25T07:11:01Z</time>
      </trkpt>
      <trkpt lat="49.18499" lon="6.92095">
        <ele>332</ele>
        <time>2011-09-25T07:11:03Z</time>
      </trkpt>
      <trkpt lat="49.18501" lon="6.92093">
        <ele>332</ele>
        <time>2011-09-25T07:11:05Z</time>
      </trkpt>
      <trkpt lat="49.18502" lon="6.92092">
        <ele>332</ele>
        <time>2011-09-25T07:11:08Z</time>
      </trkpt>
      <trkpt lat="49.18504" lon="6.92093">
        <ele>332</ele>
        <time>2011-09-25T07:11:10Z</time>
      </trkpt>
      <trkpt lat="49.18505" lon="6.92093">
        <ele>331</ele>
        <time>2011-09-25T07:11:12Z</time>
      </trkpt>
      <trkpt lat="49.18506" lon="6.92093">
        <ele>330</ele>
        <time>2011-09-25T07:11:14Z</time>
      </trkpt>
      <trkpt lat="49.18508" lon="6.92094">
        <ele>328</ele>
        <time>2011-09-25T07:11:16Z</time>
      </trkpt>
      <trkpt lat="49.18509" lon="6.92095">
        <ele>327</ele>
        <time>2011-09-25T07:11:19Z</time>
      </trkpt>
      <trkpt lat="49.1851" lon="6.92097">
        <ele>327</ele>
        <time>2011-09-25T07:11:21Z</time>
      </trkpt>
      <trkpt lat="49.18512" lon="6.92099">
        <ele>327</ele>
        <time>2011-09-25T07:11:24Z</time>
      </trkpt>
      <trkpt lat="49.18513" lon="6.92101">
        <ele>327</ele>
        <time>2011-09-25T07:11:26Z</time>
      </trkpt>
      <trkpt lat="49.18514" lon="6.92103">
        <ele>327</ele>
        <time>2011-09-25T07:11:28Z</time>
      </trkpt>
      <trkpt lat="49.18515" lon="6.92105">
        <ele>327</ele>
        <time>2011-09-25T07:11:30Z</time>
      </trkpt>
      <trkpt lat="49.18516" lon="6.92107">
        <ele>327</ele>
        <time>2011-09-25T07:11:34Z</time>
      </trkpt>
      <trkpt lat="49.18516" lon="6.92104">
        <ele>327</ele>
        <time>2011-09-25T07:11:36Z</time>
      </trkpt>
      <trkpt lat="49.18517" lon="6.92102">
        <ele>327</ele>
        <time>2011-09-25T07:11:38Z</time>
      </trkpt>
      <trkpt lat="49.18518" lon="6.92101">
        <ele>327</ele>
        <time>2011-09-25T07:11:39Z</time>
      </trkpt>
      <trkpt lat="49.1852" lon="6.92102">
        <ele>327</ele>
        <time>2011-09-25T07:11:42Z</time>
      </trkpt>
      <trkpt lat="49.18521" lon="6.92104">
        <ele>327</ele>
        <time>2011-09-25T07:11:44Z</time>
      </trkpt>
      <trkpt lat="49.18523" lon="6.92103">
        <ele>327</ele>
        <time>2011-09-25T07:11:46Z</time>
      </trkpt>
      <trkpt lat="49.18522" lon="6.92103">
        <ele>327</ele>
        <time>2011-09-25T07:11:48Z</time>
      </trkpt>
      <trkpt lat="49.1852" lon="6.92101">
        <ele>327</ele>
        <time>2011-09-25T07:11:51Z</time>
      </trkpt>
      <trkpt lat="49.18521" lon="6.92103">
        <ele>327</ele>
        <time>2011-09-25T07:11:55Z</time>
      </trkpt>
      <trkpt lat="49.18521" lon="6.92105">
        <ele>327</ele>
        <time>2011-09-25T07:11:56Z</time>
      </trkpt>
      <trkpt lat="49.18521" lon="6.92108">
        <ele>327</ele>
        <time>2011-09-25T07:11:57Z</time>
      </trkpt>
      <trkpt lat="49.18521" lon="6.92109">
        <ele>327</ele>
        <time>2011-09-25T07:11:59Z</time>
      </trkpt>
      <trkpt lat="49.1852" lon="6.92112">
        <ele>327</ele>
        <time>2011-09-25T07:12:03Z</time>
      </trkpt>
      <trkpt lat="49.18519" lon="6.92113">
        <ele>327</ele>
        <time>2011-09-25T07:12:04Z</time>
      </trkpt>
      <trkpt lat="49.18518" lon="6.92113">
        <ele>327</ele>
        <time>2011-09-25T07:12:06Z</time>
      </trkpt>
      <trkpt lat="49.18515" lon="6.92114">
        <ele>327</ele>
        <time>2011-09-25T07:12:07Z</time>
      </trkpt>
      <trkpt lat="49.18513" lon="6.92113">
        <ele>327</ele>
        <time>2011-09-25T07:12:08Z</time>
      </trkpt>
      <trkpt lat="49.18512" lon="6.92112">
        <ele>327</ele>
        <time>2011-09-25T07:12:09Z</time>
      </trkpt>
      <trkpt lat="49.1851" lon="6.92109">
        <ele>327</ele>
        <time>2011-09-25T07:12:11Z</time>
      </trkpt>
      <trkpt lat="49.1851" lon="6.92107">
        <ele>327</ele>
        <time>2011-09-25T07:12:12Z</time>
      </trkpt>
      <trkpt lat="49.18508" lon="6.92105">
        <ele>327</ele>
        <time>2011-09-25T07:12:13Z</time>
      </trkpt>
      <trkpt lat="49.18507" lon="6.92103">
        <ele>327</ele>
        <time>2011-09-25T07:12:14Z</time>
      </trkpt>
      <trkpt lat="49.18506" lon="6.92101">
        <ele>327</ele>
        <time>2011-09-25T07:12:15Z</time>
      </trkpt>
      <trkpt lat="49.18505" lon="6.92099">
        <ele>327</ele>
        <time>2011-09-25T07:12:16Z</time>
      </trkpt>
      <trkpt lat="49.18505" lon="6.92097">
        <ele>327</ele>
        <time>2011-09-25T07:12:17Z</time>
      </trkpt>
      <trkpt lat="49.18504" lon="6.92095">
        <ele>326</ele>
        <time>2011-09-25T07:12:18Z</time>
      </trkpt>
      <trkpt lat="49.18504" lon="6.92093">
        <ele>326</ele>
        <time>2011-09-25T07:12:19Z</time>
      </trkpt>
      <trkpt lat="49.18503" lon="6.92091">
        <ele>325</ele>
        <time>2011-09-25T07:12:20Z</time>
      </trkpt>
      <trkpt lat="49.18501" lon="6.9209">
        <ele>325</ele>
        <time>2011-09-25T07:12:21Z</time>
      </trkpt>
      <trkpt lat="49.185" lon="6.92088">
        <ele>325</ele>
        <time>2011-09-25T07:12:22Z</time>
      </trkpt>
      <trkpt lat="49.18498" lon="6.92086">
        <ele>325</ele>
        <time>2011-09-25T07:12:23Z</time>
      </trkpt>
      <trkpt lat="49.18496" lon="6.92083">
        <ele>325</ele>
        <time>2011-09-25T07:12:25Z</time>
      </trkpt>
      <trkpt lat="49.18496" lon="6.92081">
        <ele>324</ele>
        <time>2011-09-25T07:12:26Z</time>
      </trkpt>
      <trkpt lat="49.18494" lon="6.92077">
        <ele>324</ele>
        <time>2011-09-25T07:12:28Z</time>
      </trkpt>
      <trkpt lat="49.18494" lon="6.92076">
        <ele>323</ele>
        <time>2011-09-25T07:12:29Z</time>
      </trkpt>
      <trkpt lat="49.18493" lon="6.92076">
        <ele>323</ele>
        <time>2011-09-25T07:12:30Z</time>
      </trkpt>
      <trkpt lat="49.18491" lon="6.92076">
        <ele>322</ele>
        <time>2011-09-25T07:12:32Z</time>
      </trkpt>
      <trkpt lat="49.18489" lon="6.92076">
        <ele>322</ele>
        <time>2011-09-25T07:12:33Z</time>
      </trkpt>
      <trkpt lat="49.18488" lon="6.92075">
        <ele>322</ele>
        <time>2011-09-25T07:12:34Z</time>
      </trkpt>
      <trkpt lat="49.18488" lon="6.92073">
        <ele>322</ele>
        <time>2011-09-25T07:12:36Z</time>
      </trkpt>
      <trkpt lat="49.18488" lon="6.92071">
        <ele>321</ele>
        <time>2011-09-25T07:12:37Z</time>
      </trkpt>
      <trkpt lat="49.18489" lon="6.92069">
        <ele>321</ele>
        <time>2011-09-25T07:12:38Z</time>
      </trkpt>
      <trkpt lat="49.18489" lon="6.92067">
        <ele>320</ele>
        <time>2011-09-25T07:12:39Z</time>
      </trkpt>
      <trkpt lat="49.18488" lon="6.92064">
        <ele>319</ele>
        <time>2011-09-25T07:12:41Z</time>
      </trkpt>
      <trkpt lat="49.18487" lon="6.92061">
        <ele>318</ele>
        <time>2011-09-25T07:12:43Z</time>
      </trkpt>
      <trkpt lat="49.18485" lon="6.92059">
        <ele>318</ele>
        <time>2011-09-25T07:12:45Z</time>
      </trkpt>
      <trkpt lat="49.18485" lon="6.92057">
        <ele>317</ele>
        <time>2011-09-25T07:12:47Z</time>
      </trkpt>
      <trkpt lat="49.18484" lon="6.92055">
        <ele>316</ele>
        <time>2011-09-25T07:12:48Z</time>
      </trkpt>
      <trkpt lat="49.18483" lon="6.92053">
        <ele>315</ele>
        <time>2011-09-25T07:12:50Z</time>
      </trkpt>
      <trkpt lat="49.18482" lon="6.92051">
        <ele>315</ele>
        <time>2011-09-25T07:12:51Z</time>
      </trkpt>
      <trkpt lat="49.1848" lon="6.92049">
        <ele>315</ele>
        <time>2011-09-25T07:12:52Z</time>
      </trkpt>
      <trkpt lat="49.18478" lon="6.92046">
        <ele>315</ele>
        <time>2011-09-25T07:12:53Z</time>
      </trkpt>
      <trkpt lat="49.18477" lon="6.92044">
        <ele>315</ele>
        <time>2011-09-25T07:12:54Z</time>
      </trkpt>
      <trkpt lat="49.18477" lon="6.92042">
        <ele>315</ele>
        <time>2011-09-25T07:12:56Z</time>
      </trkpt>
      <trkpt lat="49.18475" lon="6.92039">
        <ele>315</ele>
        <time>2011-09-25T07:12:58Z</time>
      </trkpt>
      <trkpt lat="49.18474" lon="6.92037">
        <ele>315</ele>
        <time>2011-09-25T07:13:00Z</time>
      </trkpt>
      <trkpt lat="49.18473" lon="6.92035">
        <ele>315</ele>
        <time>2011-09-25T07:13:01Z</time>
      </trkpt>
      <trkpt lat="49.18472" lon="6.92033">
        <ele>315</ele>
        <time>2011-09-25T07:13:02Z</time>
      </trkpt>
      <trkpt lat="49.1847" lon="6.92031">
        <ele>315</ele>
        <time>2011-09-25T07:13:04Z</time>
      </trkpt>
      <trkpt lat="49.18469" lon="6.92029">
        <ele>315</ele>
        <time>2011-09-25T07:13:13Z</time>
      </trkpt>
      <trkpt lat="49.18468" lon="6.9203">
        <ele>313</ele>
        <time>2011-09-25T07:13:19Z</time>
      </trkpt>
      <trkpt lat="49.18468" lon="6.92028">
        <ele>313</ele>
        <time>2011-09-25T07:13:22Z</time>
      </trkpt>
      <trkpt lat="49.18468" lon="6.92024">
        <ele>313</ele>
        <time>2011-09-25T07:13:24Z</time>
      </trkpt>
      <trkpt lat="49.18468" lon="6.92022">
        <ele>313</ele>
        <time>2011-09-25T07:13:29Z</time>
      </trkpt>
      <trkpt lat="49.18466" lon="6.92019">
        <ele>313</ele>
        <time>2011-09-25T07:13:32Z</time>
      </trkpt>
      <trkpt lat="49.18464" lon="6.92018">
        <ele>313</ele>
        <time>2011-09-25T07:13:34Z</time>
      </trkpt>
      <trkpt lat="49.18463" lon="6.92018">
        <ele>313</ele>
        <time>2011-09-25T07:13:36Z</time>
      </trkpt>
      <trkpt lat="49.18463" lon="6.92019">
        <ele>314</ele>
        <time>2011-09-25T07:13:40Z</time>
      </trkpt>
      <trkpt lat="49.18463" lon="6.92021">
        <ele>321</ele>
        <time>2011-09-25T07:14:01Z</time>
      </trkpt>
      <trkpt lat="49.18465" lon="6.9202">
        <ele>321</ele>
        <time>2011-09-25T07:14:03Z</time>
      </trkpt>
      <trkpt lat="49.18465" lon="6.92018">
        <ele>321</ele>
        <time>2011-09-25T07:14:08Z</time>
      </trkpt>
      <trkpt lat="49.18465" lon="6.92016">
        <ele>321</ele>
        <time>2011-09-25T07:14:16Z</time>
      </trkpt>
      <trkpt lat="49.18466" lon="6.92015">
        <ele>321</ele>
        <time>2011-09-25T07:14:21Z</time>
      </trkpt>
      <trkpt lat="49.18466" lon="6.92012">
        <ele>321</ele>
        <time>2011-09-25T07:14:26Z</time>
      </trkpt>
      <trkpt lat="49.18467" lon="6.92014">
        <ele>321</ele>
        <time>2011-09-25T07:14:30Z</time>
      </trkpt>
      <trkpt lat="49.18467" lon="6.92016">
        <ele>321</ele>
        <time>2011-09-25T07:14:32Z</time>
      </trkpt>
      <trkpt lat="49.18468" lon="6.92018">
        <ele>321</ele>
        <time>2011-09-25T07:14:35Z</time>
      </trkpt>
      <trkpt lat="49.18466" lon="6.92015">
        <ele>323</ele>
        <time>2011-09-25T07:14:50Z</time>
      </trkpt>
      <trkpt lat="49.18465" lon="6.92013">
        <ele>324</ele>
        <time>2011-09-25T07:14:52Z</time>
      </trkpt>
      <trkpt lat="49.18467" lon="6.92013">
        <ele>327</ele>
        <time>2011-09-25T07:14:58Z</time>
      </trkpt>
      <trkpt lat="49.18468" lon="6.92011">
        <ele>327</ele>
        <time>2011-09-25T07:15:01Z</time>
      </trkpt>
      <trkpt lat="49.18469" lon="6.9201">
        <ele>327</ele>
        <time>2011-09-25T07:15:06Z</time>
      </trkpt>
      <trkpt lat="49.18469" lon="6.92012">
        <ele>327</ele>
        <time>2011-09-25T07:15:07Z</time>
      </trkpt>
      <trkpt lat="49.1847" lon="6.92014">
        <ele>327</ele>
        <time>2011-09-25T07:15:11Z</time>
      </trkpt>
      <trkpt lat="49.18471" lon="6.92017">
        <ele>327</ele>
        <time>2011-09-25T07:15:13Z</time>
      </trkpt>
      <trkpt lat="49.18473" lon="6.92016">
        <ele>327</ele>
        <time>2011-09-25T07:15:19Z</time>
      </trkpt>
      <trkpt lat="49.18475" lon="6.92015">
        <ele>327</ele>
        <time>2011-09-25T07:15:21Z</time>
      </trkpt>
      <trkpt lat="49.18476" lon="6.92015">
        <ele>327</ele>
        <time>2011-09-25T07:15:23Z</time>
      </trkpt>
      <trkpt lat="49.18478" lon="6.92015">
        <ele>327</ele>
        <time>2011-09-25T07:15:25Z</time>
      </trkpt>
      <trkpt lat="49.18479" lon="6.92014">
        <ele>327</ele>
        <time>2011-09-25T07:15:26Z</time>
      </trkpt>
      <trkpt lat="49.1848" lon="6.92014">
        <ele>327</ele>
        <time>2011-09-25T07:15:28Z</time>
      </trkpt>
      <trkpt lat="49.18482" lon="6.92013">
        <ele>327</ele>
        <time>2011-09-25T07:15:30Z</time>
      </trkpt>
      <trkpt lat="49.18483" lon="6.92012">
        <ele>327</ele>
        <time>2011-09-25T07:15:31Z</time>
      </trkpt>
      <trkpt lat="49.18484" lon="6.92014">
        <ele>328</ele>
        <time>2011-09-25T07:15:35Z</time>
      </trkpt>
      <trkpt lat="49.18487" lon="6.92015">
        <ele>328</ele>
        <time>2011-09-25T07:15:37Z</time>
      </trkpt>
      <trkpt lat="49.18489" lon="6.92015">
        <ele>328</ele>
        <time>2011-09-25T07:15:38Z</time>
      </trkpt>
      <trkpt lat="49.1849" lon="6.92017">
        <ele>328</ele>
        <time>2011-09-25T07:15:39Z</time>
      </trkpt>
      <trkpt lat="49.18491" lon="6.92019">
        <ele>328</ele>
        <time>2011-09-25T07:15:41Z</time>
      </trkpt>
      <trkpt lat="49.18491" lon="6.92021">
        <ele>328</ele>
        <time>2011-09-25T07:15:42Z</time>
      </trkpt>
      <trkpt lat="49.18492" lon="6.92023">
        <ele>328</ele>
        <time>2011-09-25T07:15:44Z</time>
      </trkpt>
      <trkpt lat="49.18491" lon="6.92026">
        <ele>328</ele>
        <time>2011-09-25T07:15:46Z</time>
      </trkpt>
      <trkpt lat="49.18489" lon="6.92029">
        <ele>328</ele>
        <time>2011-09-25T07:15:48Z</time>
      </trkpt>
      <trkpt lat="49.18487" lon="6.92032">
        <ele>327</ele>
        <time>2011-09-25T07:15:49Z</time>
      </trkpt>
      <trkpt lat="49.18486" lon="6.92033">
        <ele>327</ele>
        <time>2011-09-25T07:15:51Z</time>
      </trkpt>
      <trkpt lat="49.18485" lon="6.92034">
        <ele>325</ele>
        <time>2011-09-25T07:15:55Z</time>
      </trkpt>
      <trkpt lat="49.18483" lon="6.92034">
        <ele>325</ele>
        <time>2011-09-25T07:15:57Z</time>
      </trkpt>
      <trkpt lat="49.18482" lon="6.92033">
        <ele>325</ele>
        <time>2011-09-25T07:15:59Z</time>
      </trkpt>
      <trkpt lat="49.1848" lon="6.92033">
        <ele>325</ele>
        <time>2011-09-25T07:16:01Z</time>
      </trkpt>
      <trkpt lat="49.18478" lon="6.92034">
        <ele>325</ele>
        <time>2011-09-25T07:16:06Z</time>
      </trkpt>
      <trkpt lat="49.18477" lon="6.92034">
        <ele>325</ele>
        <time>2011-09-25T07:16:09Z</time>
      </trkpt>
      <trkpt lat="49.18478" lon="6.92036">
        <ele>325</ele>
        <time>2011-09-25T07:16:23Z</time>
      </trkpt>
      <trkpt lat="49.1848" lon="6.92036">
        <ele>325</ele>
        <time>2011-09-25T07:16:25Z</time>
      </trkpt>
      <trkpt lat="49.18481" lon="6.92036">
        <ele>325</ele>
        <time>2011-09-25T07:16:27Z</time>
      </trkpt>
      <trkpt lat="49.18482" lon="6.92036">
        <ele>323</ele>
        <time>2011-09-25T07:16:30Z</time>
      </trkpt>
      <trkpt lat="49.18482" lon="6.92035">
        <ele>322</ele>
        <time>2011-09-25T07:16:36Z</time>
      </trkpt>
      <trkpt lat="49.18481" lon="6.92033">
        <ele>322</ele>
        <time>2011-09-25T07:16:42Z</time>
      </trkpt>
      <trkpt lat="49.1848" lon="6.92033">
        <ele>322</ele>
        <time>2011-09-25T07:16:43Z</time>
      </trkpt>
      <trkpt lat="49.1848" lon="6.92031">
        <ele>322</ele>
        <time>2011-09-25T07:16:46Z</time>
      </trkpt>
      <trkpt lat="49.18482" lon="6.92031">
        <ele>322</ele>
        <time>2011-09-25T07:16:50Z</time>
      </trkpt>
      <trkpt lat="49.18483" lon="6.92031">
        <ele>322</ele>
        <time>2011-09-25T07:16:51Z</time>
      </trkpt>
      <trkpt lat="49.18486" lon="6.9203">
        <ele>322</ele>
        <time>2011-09-25T07:16:52Z</time>
      </trkpt>
      <trkpt lat="49.18488" lon="6.92031">
        <ele>322</ele>
        <time>2011-09-25T07:16:53Z</time>
      </trkpt>
      <trkpt lat="49.18485" lon="6.92031">
        <ele>323</ele>
        <time>2011-09-25T07:16:54Z</time>
      </trkpt>
      <trkpt lat="49.18483" lon="6.92031">
        <ele>323</ele>
        <time>2011-09-25T07:16:55Z</time>
      </trkpt>
      <trkpt lat="49.18482" lon="6.92031">
        <ele>325</ele>
        <time>2011-09-25T07:16:57Z</time>
      </trkpt>
      <trkpt lat="49.1848" lon="6.92031">
        <ele>329</ele>
        <time>2011-09-25T07:17:01Z</time>
      </trkpt>
      <trkpt lat="49.18479" lon="6.9203">
        <ele>331</ele>
        <time>2011-09-25T07:17:03Z</time>
      </trkpt>
      <trkpt lat="49.18477" lon="6.9203">
        <ele>331</ele>
        <time>2011-09-25T07:17:07Z</time>
      </trkpt>
      <trkpt lat="49.18475" lon="6.9203">
        <ele>331</ele>
        <time>2011-09-25T07:17:08Z</time>
      </trkpt>
      <trkpt lat="49.18473" lon="6.92028">
        <ele>332</ele>
        <time>2011-09-25T07:17:09Z</time>
      </trkpt>
      <trkpt lat="49.18471" lon="6.92028">
        <ele>332</ele>
        <time>2011-09-25T07:17:10Z</time>
      </trkpt>
      <trkpt lat="49.1847" lon="6.92028">
        <ele>333</ele>
        <time>2011-09-25T07:17:12Z</time>
      </trkpt>
      <trkpt lat="49.18473" lon="6.92029">
        <ele>334</ele>
        <time>2011-09-25T07:17:18Z</time>
      </trkpt>
      <trkpt lat="49.18475" lon="6.9203">
        <ele>334</ele>
        <time>2011-09-25T07:17:19Z</time>
      </trkpt>
      <trkpt lat="49.18476" lon="6.9203">
        <ele>334</ele>
        <time>2011-09-25T07:17:21Z</time>
      </trkpt>
      <trkpt lat="49.18478" lon="6.92031">
        <ele>333</ele>
        <time>2011-09-25T07:17:23Z</time>
      </trkpt>
      <trkpt lat="49.18479" lon="6.92031">
        <ele>331</ele>
        <time>2011-09-25T07:17:26Z</time>
      </trkpt>
      <trkpt lat="49.18477" lon="6.92031">
        <ele>331</ele>
        <time>2011-09-25T07:17:30Z</time>
      </trkpt>
      <trkpt lat="49.18476" lon="6.92032">
        <ele>331</ele>
        <time>2011-09-25T07:17:32Z</time>
      </trkpt>
      <trkpt lat="49.18475" lon="6.92032">
        <ele>331</ele>
        <time>2011-09-25T07:17:34Z</time>
      </trkpt>
      <trkpt lat="49.18473" lon="6.92032">
        <ele>331</ele>
        <time>2011-09-25T07:17:40Z</time>
      </trkpt>
      <trkpt lat="49.18472" lon="6.92032">
        <ele>331</ele>
        <time>2011-09-25T07:17:47Z</time>
      </trkpt>
      <trkpt lat="49.18471" lon="6.92031">
        <ele>331</ele>
        <time>2011-09-25T07:17:48Z</time>
      </trkpt>
      <trkpt lat="49.18469" lon="6.92029">
        <ele>331</ele>
        <time>2011-09-25T07:17:52Z</time>
      </trkpt>
      <trkpt lat="49.1847" lon="6.92027">
        <ele>331</ele>
        <time>2011-09-25T07:17:55Z</time>
      </trkpt>
      <trkpt lat="49.18468" lon="6.92027">
        <ele>331</ele>
        <time>2011-09-25T07:18:06Z</time>
      </trkpt>
      <trkpt lat="49.18467" lon="6.92027">
        <ele>331</ele>
        <time>2011-09-25T07:18:09Z</time>
      </trkpt>
      <trkpt lat="49.18468" lon="6.92026">
        <ele>331</ele>
        <time>2011-09-25T07:18:11Z</time>
      </trkpt>
      <trkpt lat="49.18469" lon="6.92026">
        <ele>331</ele>
        <time>2011-09-25T07:18:14Z</time>
      </trkpt>
      <trkpt lat="49.18468" lon="6.92026">
        <ele>331</ele>
        <time>2011-09-25T07:18:18Z</time>
      </trkpt>
      <trkpt lat="49.1847" lon="6.92027">
        <ele>332</ele>
        <time>2011-09-25T07:18:24Z</time>
      </trkpt>
      <trkpt lat="49.18471" lon="6.92027">
        <ele>332</ele>
        <time>2011-09-25T07:18:26Z</time>
      </trkpt>
      <trkpt lat="49.18473" lon="6.92028">
        <ele>332</ele>
        <time>2011-09-25T07:18:30Z</time>
      </trkpt>
      <trkpt lat="49.18474" lon="6.92029">
        <ele>332</ele>
        <time>2011-09-25T07:18:33Z</time>
      </trkpt>
      <trkpt lat="49.18475" lon="6.92029">
        <ele>332</ele>
        <time>2011-09-25T07:18:35Z</time>
      </trkpt>
      <trkpt lat="49.18479" lon="6.92031">
        <ele>331</ele>
        <time>2011-09-25T07:18:39Z</time>
      </trkpt>
      <trkpt lat="49.1848" lon="6.92033">
        <ele>328</ele>
        <time>2011-09-25T07:18:42Z</time>
      </trkpt>
      <trkpt lat="49.18481" lon="6.92034">
        <ele>327</ele>
        <time>2011-09-25T07:18:43Z</time>
      </trkpt>
      <trkpt lat="49.18479" lon="6.92032">
        <ele>323</ele>
        <time>2011-09-25T07:18:47Z</time>
      </trkpt>
      <trkpt lat="49.18481" lon="6.92032">
        <ele>322</ele>
        <time>2011-09-25T07:18:49Z</time>
      </trkpt>
      <trkpt lat="49.18481" lon="6.9203">
        <ele>321</ele>
        <time>2011-09-25T07:18:53Z</time>
      </trkpt>
      <trkpt lat="49.18481" lon="6.92029">
        <ele>320</ele>
        <time>2011-09-25T07:18:57Z</time>
      </trkpt>
      <trkpt lat="49.1848" lon="6.92028">
        <ele>319</ele>
        <time>2011-09-25T07:18:59Z</time>
      </trkpt>
      <trkpt lat="49.18478" lon="6.92027">
        <ele>319</ele>
        <time>2011-09-25T07:19:01Z</time>
      </trkpt>
      <trkpt lat="49.18476" lon="6.92027">
        <ele>318</ele>
        <time>2011-09-25T07:19:03Z</time>
      </trkpt>
      <trkpt lat="49.18473" lon="6.92026">
        <ele>318</ele>
        <time>2011-09-25T07:19:05Z</time>
      </trkpt>
      <trkpt lat="49.18472" lon="6.92025">
        <ele>318</ele>
        <time>2011-09-25T07:19:07Z</time>
      </trkpt>
      <trkpt lat="49.18471" lon="6.92025">
        <ele>318</ele>
        <time>2011-09-25T07:19:09Z</time>
      </trkpt>
      <trkpt lat="49.1847" lon="6.92025">
        <ele>318</ele>
        <time>2011-09-25T07:19:10Z</time>
      </trkpt>
      <trkpt lat="49.18468" lon="6.92023">
        <ele>318</ele>
        <time>2011-09-25T07:19:12Z</time>
      </trkpt>
      <trkpt lat="49.18467" lon="6.92021">
        <ele>318</ele>
        <time>2011-09-25T07:19:14Z</time>
      </trkpt>
      <trkpt lat="49.18466" lon="6.92021">
        <ele>318</ele>
        <time>2011-09-25T07:19:15Z</time>
      </trkpt>
      <trkpt lat="49.18465" lon="6.92021">
        <ele>318</ele>
        <time>2011-09-25T07:19:17Z</time>
      </trkpt>
      <trkpt lat="49.18462" lon="6.9202">
        <ele>318</ele>
        <time>2011-09-25T07:19:19Z</time>
      </trkpt>
      <trkpt lat="49.18462" lon="6.92022">
        <ele>318</ele>
        <time>2011-09-25T07:19:20Z</time>
      </trkpt>
      <trkpt lat="49.1846" lon="6.92024">
        <ele>318</ele>
        <time>2011-09-25T07:19:22Z</time>
      </trkpt>
      <trkpt lat="49.18459" lon="6.92023">
        <ele>318</ele>
        <time>2011-09-25T07:19:24Z</time>
      </trkpt>
      <trkpt lat="49.18458" lon="6.92021">
        <ele>318</ele>
        <time>2011-09-25T07:19:27Z</time>
      </trkpt>
      <trkpt lat="49.18456" lon="6.92019">
        <ele>318</ele>
        <time>2011-09-25T07:19:29Z</time>
      </trkpt>
      <trkpt lat="49.18454" lon="6.92018">
        <ele>317</ele>
        <time>2011-09-25T07:19:31Z</time>
      </trkpt>
      <trkpt lat="49.18455" lon="6.92016">
        <ele>315</ele>
        <time>2011-09-25T07:19:35Z</time>
      </trkpt>
      <trkpt lat="49.18455" lon="6.92015">
        <ele>313</ele>
        <time>2011-09-25T07:19:37Z</time>
      </trkpt>
      <trkpt lat="49.18453" lon="6.92012">
        <ele>312</ele>
        <time>2011-09-25T07:19:39Z</time>
      </trkpt>
      <trkpt lat="49.1845" lon="6.9201">
        <ele>311</ele>
        <time>2011-09-25T07:19:41Z</time>
      </trkpt>
      <trkpt lat="49.18449" lon="6.92008">
        <ele>311</ele>
        <time>2011-09-25T07:19:42Z</time>
      </trkpt>
      <trkpt lat="49.18449" lon="6.92006">
        <ele>311</ele>
        <time>2011-09-25T07:19:45Z</time>
      </trkpt>
      <trkpt lat="49.18447" lon="6.92005">
        <ele>311</ele>
        <time>2011-09-25T07:19:46Z</time>
      </trkpt>
      <trkpt lat="49.18446" lon="6.92003">
        <ele>311</ele>
        <time>2011-09-25T07:19:48Z</time>
      </trkpt>
      <trkpt lat="49.18445" lon="6.92001">
        <ele>311</ele>
        <time>2011-09-25T07:19:50Z</time>
      </trkpt>
      <trkpt lat="49.18445" lon="6.91999">
        <ele>310</ele>
        <time>2011-09-25T07:19:52Z</time>
      </trkpt>
      <trkpt lat="49.18445" lon="6.91997">
        <ele>309</ele>
        <time>2011-09-25T07:19:54Z</time>
      </trkpt>
      <trkpt lat="49.18447" lon="6.91996">
        <ele>308</ele>
        <time>2011-09-25T07:19:58Z</time>
      </trkpt>
      <trkpt lat="49.18449" lon="6.91995">
        <ele>305</ele>
        <time>2011-09-25T07:20:06Z</time>
      </trkpt>
      <trkpt lat="49.1845" lon="6.91994">
        <ele>305</ele>
        <time>2011-09-25T07:20:08Z</time>
      </trkpt>
      <trkpt lat="49.18452" lon="6.91996">
        <ele>305</ele>
        <time>2011-09-25T07:20:10Z</time>
      </trkpt>
      <trkpt lat="49.18454" lon="6.91996">
        <ele>305</ele>
        <time>2011-09-25T07:20:12Z</time>
      </trkpt>
      <trkpt lat="49.18455" lon="6.91995">
        <ele>305</ele>
        <time>2011-09-25T07:20:14Z</time>
      </trkpt>
      <trkpt lat="49.18457" lon="6.91993">
        <ele>305</ele>
        <time>2011-09-25T07:20:16Z</time>
      </trkpt>
      <trkpt lat="49.18457" lon="6.91989">
        <ele>305</ele>
        <time>2011-09-25T07:20:18Z</time>
      </trkpt>
      <trkpt lat="49.18457" lon="6.91987">
        <ele>305</ele>
        <time>2011-09-25T07:20:19Z</time>
      </trkpt>
      <trkpt lat="49.18457" lon="6.91984">
        <ele>305</ele>
        <time>2011-09-25T07:20:20Z</time>
      </trkpt>
      <trkpt lat="49.18459" lon="6.91984">
        <ele>306</ele>
        <time>2011-09-25T07:20:22Z</time>
      </trkpt>
      <trkpt lat="49.18461" lon="6.91984">
        <ele>307</ele>
        <time>2011-09-25T07:20:23Z</time>
      </trkpt>
      <trkpt lat="49.18462" lon="6.91985">
        <ele>307</ele>
        <time>2011-09-25T07:20:25Z</time>
      </trkpt>
      <trkpt lat="49.18463" lon="6.91985">
        <ele>307</ele>
        <time>2011-09-25T07:20:27Z</time>
      </trkpt>
      <trkpt lat="49.18465" lon="6.91985">
        <ele>307</ele>
        <time>2011-09-25T07:20:29Z</time>
      </trkpt>
      <trkpt lat="49.18466" lon="6.91985">
        <ele>307</ele>
        <time>2011-09-25T07:20:30Z</time>
      </trkpt>
      <trkpt lat="49.18467" lon="6.91984">
        <ele>307</ele>
        <time>2011-09-25T07:20:32Z</time>
      </trkpt>
      <trkpt lat="49.18467" lon="6.91981">
        <ele>307</ele>
        <time>2011-09-25T07:20:34Z</time>
      </trkpt>
      <trkpt lat="49.18468" lon="6.9198">
        <ele>307</ele>
        <time>2011-09-25T07:20:36Z</time>
      </trkpt>
      <trkpt lat="49.1847" lon="6.91979">
        <ele>307</ele>
        <time>2011-09-25T07:20:38Z</time>
      </trkpt>
      <trkpt lat="49.18471" lon="6.91978">
        <ele>307</ele>
        <time>2011-09-25T07:20:39Z</time>
      </trkpt>
      <trkpt lat="49.18471" lon="6.9198">
        <ele>307</ele>
        <time>2011-09-25T07:20:41Z</time>
      </trkpt>
      <trkpt lat="49.18473" lon="6.9198">
        <ele>307</ele>
        <time>2011-09-25T07:20:43Z</time>
      </trkpt>
      <trkpt lat="49.18475" lon="6.91979">
        <ele>307</ele>
        <time>2011-09-25T07:20:45Z</time>
      </trkpt>
      <trkpt lat="49.18476" lon="6.91978">
        <ele>307</ele>
        <time>2011-09-25T07:20:46Z</time>
      </trkpt>
      <trkpt lat="49.18478" lon="6.91979">
        <ele>308</ele>
        <time>2011-09-25T07:20:48Z</time>
      </trkpt>
      <trkpt lat="49.1848" lon="6.9198">
        <ele>308</ele>
        <time>2011-09-25T07:20:49Z</time>
      </trkpt>
      <trkpt lat="49.18481" lon="6.91979">
        <ele>308</ele>
        <time>2011-09-25T07:20:51Z</time>
      </trkpt>
      <trkpt lat="49.18482" lon="6.91981">
        <ele>309</ele>
        <time>2011-09-25T07:20:54Z</time>
      </trkpt>
      <trkpt lat="49.18481" lon="6.91982">
        <ele>310</ele>
        <time>2011-09-25T07:20:57Z</time>
      </trkpt>
      <trkpt lat="49.1848" lon="6.91984">
        <ele>310</ele>
        <time>2011-09-25T07:20:59Z</time>
      </trkpt>
      <trkpt lat="49.18482" lon="6.91985">
        <ele>311</ele>
        <time>2011-09-25T07:21:02Z</time>
      </trkpt>
      <trkpt lat="49.18482" lon="6.91983">
        <ele>312</ele>
        <time>2011-09-25T07:21:07Z</time>
      </trkpt>
      <trkpt lat="49.18483" lon="6.91985">
        <ele>312</ele>
        <time>2011-09-25T07:21:10Z</time>
      </trkpt>
      <trkpt lat="49.18485" lon="6.91985">
        <ele>312</ele>
        <time>2011-09-25T07:21:13Z</time>
      </trkpt>
      <trkpt lat="49.18486" lon="6.91985">
        <ele>312</ele>
        <time>2011-09-25T07:21:15Z</time>
      </trkpt>
      <trkpt lat="49.18486" lon="6.91987">
        <ele>312</ele>
        <time>2011-09-25T07:21:17Z</time>
      </trkpt>
      <trkpt lat="49.18487" lon="6.91987">
        <ele>312</ele>
        <time>2011-09-25T07:21:19Z</time>
      </trkpt>
      <trkpt lat="49.18488" lon="6.91986">
        <ele>312</ele>
        <time>2011-09-25T07:21:20Z</time>
      </trkpt>
      <trkpt lat="49.18491" lon="6.91985">
        <ele>312</ele>
        <time>2011-09-25T07:21:22Z</time>
      </trkpt>
      <trkpt lat="49.18492" lon="6.91984">
        <ele>311</ele>
        <time>2011-09-25T07:21:24Z</time>
      </trkpt>
      <trkpt lat="49.18493" lon="6.91983">
        <ele>310</ele>
        <time>2011-09-25T07:21:26Z</time>
      </trkpt>
      <trkpt lat="49.18494" lon="6.91983">
        <ele>309</ele>
        <time>2011-09-25T07:21:27Z</time>
      </trkpt>
      <trkpt lat="49.18496" lon="6.91984">
        <ele>308</ele>
        <time>2011-09-25T07:21:28Z</time>
      </trkpt>
      <trkpt lat="49.18497" lon="6.91984">
        <ele>308</ele>
        <time>2011-09-25T07:21:29Z</time>
      </trkpt>
      <trkpt lat="49.18498" lon="6.91984">
        <ele>307</ele>
        <time>2011-09-25T07:21:30Z</time>
      </trkpt>
      <trkpt lat="49.185" lon="6.91986">
        <ele>306</ele>
        <time>2011-09-25T07:21:32Z</time>
      </trkpt>
      <trkpt lat="49.18502" lon="6.91986">
        <ele>305</ele>
        <time>2011-09-25T07:21:34Z</time>
      </trkpt>
      <trkpt lat="49.18503" lon="6.91986">
        <ele>305</ele>
        <time>2011-09-25T07:21:35Z</time>
      </trkpt>
      <trkpt lat="49.18504" lon="6.91985">
        <ele>305</ele>
        <time>2011-09-25T07:21:36Z</time>
      </trkpt>
      <trkpt lat="49.18506" lon="6.91985">
        <ele>305</ele>
        <time>2011-09-25T07:21:38Z</time>
      </trkpt>
      <trkpt lat="49.18508" lon="6.91984">
        <ele>305</ele>
        <time>2011-09-25T07:21:40Z</time>
      </trkpt>
      <trkpt lat="49.1851" lon="6.91984">
        <ele>305</ele>
        <time>2011-09-25T07:21:42Z</time>
      </trkpt>
      <trkpt lat="49.18512" lon="6.91984">
        <ele>304</ele>
        <time>2011-09-25T07:21:43Z</time>
      </trkpt>
      <trkpt lat="49.18513" lon="6.91984">
        <ele>304</ele>
        <time>2011-09-25T07:21:44Z</time>
      </trkpt>
      <trkpt lat="49.18515" lon="6.91986">
        <ele>303</ele>
        <time>2011-09-25T07:21:46Z</time>
      </trkpt>
      <trkpt lat="49.18517" lon="6.91986">
        <ele>303</ele>
        <time>2011-09-25T07:21:47Z</time>
      </trkpt>
      <trkpt lat="49.18518" lon="6.91987">
        <ele>303</ele>
        <time>2011-09-25T07:21:48Z</time>
      </trkpt>
      <trkpt lat="49.1852" lon="6.91987">
        <ele>302</ele>
        <time>2011-09-25T07:21:49Z</time>
      </trkpt>
      <trkpt lat="49.18521" lon="6.91986">
        <ele>301</ele>
        <time>2011-09-25T07:21:50Z</time>
      </trkpt>
      <trkpt lat="49.18523" lon="6.91986">
        <ele>301</ele>
        <time>2011-09-25T07:21:51Z</time>
      </trkpt>
      <trkpt lat="49.18525" lon="6.91986">
        <ele>301</ele>
        <time>2011-09-25T07:21:52Z</time>
      </trkpt>
      <trkpt lat="49.18526" lon="6.91986">
        <ele>301</ele>
        <time>2011-09-25T07:21:53Z</time>
      </trkpt>
      <trkpt lat="49.18529" lon="6.91987">
        <ele>300</ele>
        <time>2011-09-25T07:21:55Z</time>
      </trkpt>
      <trkpt lat="49.1853" lon="6.91988">
        <ele>300</ele>
        <time>2011-09-25T07:21:56Z</time>
      </trkpt>
      <trkpt lat="49.18532" lon="6.9199">
        <ele>299</ele>
        <time>2011-09-25T07:21:58Z</time>
      </trkpt>
      <trkpt lat="49.18533" lon="6.91991">
        <ele>298</ele>
        <time>2011-09-25T07:21:59Z</time>
      </trkpt>
      <trkpt lat="49.18536" lon="6.91992">
        <ele>297</ele>
        <time>2011-09-25T07:22:01Z</time>
      </trkpt>
      <trkpt lat="49.18537" lon="6.91993">
        <ele>296</ele>
        <time>2011-09-25T07:22:02Z</time>
      </trkpt>
      <trkpt lat="49.18538" lon="6.91996">
        <ele>295</ele>
        <time>2011-09-25T07:22:04Z</time>
      </trkpt>
      <trkpt lat="49.18539" lon="6.91997">
        <ele>295</ele>
        <time>2011-09-25T07:22:06Z</time>
      </trkpt>
      <trkpt lat="49.18541" lon="6.91998">
        <ele>295</ele>
        <time>2011-09-25T07:22:08Z</time>
      </trkpt>
      <trkpt lat="49.18541" lon="6.92">
        <ele>295</ele>
        <time>2011-09-25T07:22:11Z</time>
      </trkpt>
      <trkpt lat="49.18543" lon="6.92001">
        <ele>295</ele>
        <time>2011-09-25T07:22:14Z</time>
      </trkpt>
      <trkpt lat="49.18545" lon="6.92002">
        <ele>295</ele>
        <time>2011-09-25T07:22:16Z</time>
      </trkpt>
      <trkpt lat="49.18547" lon="6.92003">
        <ele>295</ele>
        <time>2011-09-25T07:22:18Z</time>
      </trkpt>
      <trkpt lat="49.18548" lon="6.92004">
        <ele>295</ele>
        <time>2011-09-25T07:22:20Z</time>
      </trkpt>
      <trkpt lat="49.18549" lon="6.92005">
        <ele>295</ele>
        <time>2011-09-25T07:22:22Z</time>
      </trkpt>
      <trkpt lat="49.1855" lon="6.92005">
        <ele>295</ele>
        <time>2011-09-25T07:22:23Z</time>
      </trkpt>
      <trkpt lat="49.18552" lon="6.92006">
        <ele>295</ele>
        <time>2011-09-25T07:22:24Z</time>
      </trkpt>
      <trkpt lat="49.18553" lon="6.92007">
        <ele>295</ele>
        <time>2011-09-25T07:22:28Z</time>
      </trkpt>
      <trkpt lat="49.18554" lon="6.92009">
        <ele>295</ele>
        <time>2011-09-25T07:22:30Z</time>
      </trkpt>
      <trkpt lat="49.18556" lon="6.92011">
        <ele>295</ele>
        <time>2011-09-25T07:22:32Z</time>
      </trkpt>
      <trkpt lat="49.18558" lon="6.9201">
        <ele>295</ele>
        <time>2011-09-25T07:22:33Z</time>
      </trkpt>
      <trkpt lat="49.1856" lon="6.9201">
        <ele>295</ele>
        <time>2011-09-25T07:22:34Z</time>
      </trkpt>
      <trkpt lat="49.18561" lon="6.92011">
        <ele>295</ele>
        <time>2011-09-25T07:22:35Z</time>
      </trkpt>
      <trkpt lat="49.18562" lon="6.92014">
        <ele>294</ele>
        <time>2011-09-25T07:22:37Z</time>
      </trkpt>
      <trkpt lat="49.18563" lon="6.92016">
        <ele>294</ele>
        <time>2011-09-25T07:22:39Z</time>
      </trkpt>
      <trkpt lat="49.18565" lon="6.92018">
        <ele>293</ele>
        <time>2011-09-25T07:22:41Z</time>
      </trkpt>
      <trkpt lat="49.18566" lon="6.92018">
        <ele>292</ele>
        <time>2011-09-25T07:22:43Z</time>
      </trkpt>
      <trkpt lat="49.18567" lon="6.92019">
        <ele>292</ele>
        <time>2011-09-25T07:22:47Z</time>
      </trkpt>
      <trkpt lat="49.18568" lon="6.92019">
        <ele>292</ele>
        <time>2011-09-25T07:22:49Z</time>
      </trkpt>
      <trkpt lat="49.1857" lon="6.92018">
        <ele>292</ele>
        <time>2011-09-25T07:22:51Z</time>
      </trkpt>
      <trkpt lat="49.18573" lon="6.92017">
        <ele>292</ele>
        <time>2011-09-25T07:22:53Z</time>
      </trkpt>
      <trkpt lat="49.18575" lon="6.92015">
        <ele>292</ele>
        <time>2011-09-25T07:22:55Z</time>
      </trkpt>
      <trkpt lat="49.18577" lon="6.92014">
        <ele>292</ele>
        <time>2011-09-25T07:22:57Z</time>
      </trkpt>
      <trkpt lat="49.18577" lon="6.92016">
        <ele>292</ele>
        <time>2011-09-25T07:23:03Z</time>
      </trkpt>
      <trkpt lat="49.18577" lon="6.92018">
        <ele>292</ele>
        <time>2011-09-25T07:23:07Z</time>
      </trkpt>
      <trkpt lat="49.18577" lon="6.9202">
        <ele>292</ele>
        <time>2011-09-25T07:23:09Z</time>
      </trkpt>
      <trkpt lat="49.18578" lon="6.92023">
        <ele>292</ele>
        <time>2011-09-25T07:23:11Z</time>
      </trkpt>
      <trkpt lat="49.18578" lon="6.92025">
        <ele>292</ele>
        <time>2011-09-25T07:23:14Z</time>
      </trkpt>
      <trkpt lat="49.18578" lon="6.92027">
        <ele>292</ele>
        <time>2011-09-25T07:23:16Z</time>
      </trkpt>
      <trkpt lat="49.18578" lon="6.92028">
        <ele>292</ele>
        <time>2011-09-25T07:23:19Z</time>
      </trkpt>
      <trkpt lat="49.18581" lon="6.92029">
        <ele>292</ele>
        <time>2011-09-25T07:23:22Z</time>
      </trkpt>
      <trkpt lat="49.18583" lon="6.9203">
        <ele>292</ele>
        <time>2011-09-25T07:23:24Z</time>
      </trkpt>
      <trkpt lat="49.18584" lon="6.9203">
        <ele>292</ele>
        <time>2011-09-25T07:23:25Z</time>
      </trkpt>
      <trkpt lat="49.18586" lon="6.9203">
        <ele>292</ele>
        <time>2011-09-25T07:23:27Z</time>
      </trkpt>
      <trkpt lat="49.18587" lon="6.9203">
        <ele>292</ele>
        <time>2011-09-25T07:23:28Z</time>
      </trkpt>
      <trkpt lat="49.18588" lon="6.92032">
        <ele>291</ele>
        <time>2011-09-25T07:23:30Z</time>
      </trkpt>
      <trkpt lat="49.18589" lon="6.92033">
        <ele>291</ele>
        <time>2011-09-25T07:23:31Z</time>
      </trkpt>
      <trkpt lat="49.18591" lon="6.92035">
        <ele>289</ele>
        <time>2011-09-25T07:23:33Z</time>
      </trkpt>
      <trkpt lat="49.18593" lon="6.92036">
        <ele>287</ele>
        <time>2011-09-25T07:23:36Z</time>
      </trkpt>
      <trkpt lat="49.18594" lon="6.92038">
        <ele>285</ele>
        <time>2011-09-25T07:23:39Z</time>
      </trkpt>
      <trkpt lat="49.18596" lon="6.9204">
        <ele>285</ele>
        <time>2011-09-25T07:23:41Z</time>
      </trkpt>
      <trkpt lat="49.18597" lon="6.9204">
        <ele>285</ele>
        <time>2011-09-25T07:23:42Z</time>
      </trkpt>
      <trkpt lat="49.18599" lon="6.92041">
        <ele>284</ele>
        <time>2011-09-25T07:23:44Z</time>
      </trkpt>
      <trkpt lat="49.186" lon="6.92044">
        <ele>283</ele>
        <time>2011-09-25T07:23:46Z</time>
      </trkpt>
      <trkpt lat="49.186" lon="6.92048">
        <ele>281</ele>
        <time>2011-09-25T07:23:48Z</time>
      </trkpt>
      <trkpt lat="49.18599" lon="6.9205">
        <ele>281</ele>
        <time>2011-09-25T07:23:49Z</time>
      </trkpt>
      <trkpt lat="49.18599" lon="6.92052">
        <ele>280</ele>
        <time>2011-09-25T07:23:50Z</time>
      </trkpt>
      <trkpt lat="49.18598" lon="6.92054">
        <ele>279</ele>
        <time>2011-09-25T07:23:51Z</time>
      </trkpt>
      <trkpt lat="49.18598" lon="6.92056">
        <ele>279</ele>
        <time>2011-09-25T07:23:52Z</time>
      </trkpt>
      <trkpt lat="49.18599" lon="6.92058">
        <ele>277</ele>
        <time>2011-09-25T07:23:54Z</time>
      </trkpt>
      <trkpt lat="49.18599" lon="6.92061">
        <ele>277</ele>
        <time>2011-09-25T07:23:56Z</time>
      </trkpt>
      <trkpt lat="49.186" lon="6.92063">
        <ele>277</ele>
        <time>2011-09-25T07:23:58Z</time>
      </trkpt>
      <trkpt lat="49.186" lon="6.92065">
        <ele>276</ele>
        <time>2011-09-25T07:24:00Z</time>
      </trkpt>
      <trkpt lat="49.18601" lon="6.92067">
        <ele>276</ele>
        <time>2011-09-25T07:24:01Z</time>
      </trkpt>
      <trkpt lat="49.18602" lon="6.92069">
        <ele>276</ele>
        <time>2011-09-25T07:24:02Z</time>
      </trkpt>
      <trkpt lat="49.18602" lon="6.92071">
        <ele>276</ele>
        <time>2011-09-25T07:24:03Z</time>
      </trkpt>
      <trkpt lat="49.18602" lon="6.92073">
        <ele>276</ele>
        <time>2011-09-25T07:24:04Z</time>
      </trkpt>
      <trkpt lat="49.18601" lon="6.92075">
        <ele>276</ele>
        <time>2011-09-25T07:24:06Z</time>
      </trkpt>
      <trkpt lat="49.18602" lon="6.92077">
        <ele>276</ele>
        <time>2011-09-25T07:24:08Z</time>
      </trkpt>
      <trkpt lat="49.18602" lon="6.9208">
        <ele>276</ele>
        <time>2011-09-25T07:24:10Z</time>
      </trkpt>
      <trkpt lat="49.18603" lon="6.92082">
        <ele>276</ele>
        <time>2011-09-25T07:24:12Z</time>
      </trkpt>
      <trkpt lat="49.18605" lon="6.92083">
        <ele>276</ele>
        <time>2011-09-25T07:24:13Z</time>
      </trkpt>
      <trkpt lat="49.18606" lon="6.92085">
        <ele>276</ele>
        <time>2011-09-25T07:24:15Z</time>
      </trkpt>
      <trkpt lat="49.18608" lon="6.92087">
        <ele>276</ele>
        <time>2011-09-25T07:24:18Z</time>
      </trkpt>
      <trkpt lat="49.18609" lon="6.92089">
        <ele>276</ele>
        <time>2011-09-25T07:24:20Z</time>
      </trkpt>
      <trkpt lat="49.18609" lon="6.92091">
        <ele>276</ele>
        <time>2011-09-25T07:24:21Z</time>
      </trkpt>
      <trkpt lat="49.1861" lon="6.92094">
        <ele>276</ele>
        <time>2011-09-25T07:24:24Z</time>
      </trkpt>
      <trkpt lat="49.18611" lon="6.92095">
        <ele>276</ele>
        <time>2011-09-25T07:24:25Z</time>
      </trkpt>
      <trkpt lat="49.18612" lon="6.92095">
        <ele>276</ele>
        <time>2011-09-25T07:24:26Z</time>
      </trkpt>
      <trkpt lat="49.18613" lon="6.92097">
        <ele>276</ele>
        <time>2011-09-25T07:24:28Z</time>
      </trkpt>
      <trkpt lat="49.18615" lon="6.92099">
        <ele>276</ele>
        <time>2011-09-25T07:24:30Z</time>
      </trkpt>
      <trkpt lat="49.18618" lon="6.92101">
        <ele>276</ele>
        <time>2011-09-25T07:24:32Z</time>
      </trkpt>
      <trkpt lat="49.18619" lon="6.92102">
        <ele>277</ele>
        <time>2011-09-25T07:24:33Z</time>
      </trkpt>
      <trkpt lat="49.1862" lon="6.92104">
        <ele>278</ele>
        <time>2011-09-25T07:24:34Z</time>
      </trkpt>
      <trkpt lat="49.18619" lon="6.92106">
        <ele>280</ele>
        <time>2011-09-25T07:24:36Z</time>
      </trkpt>
      <trkpt lat="49.1862" lon="6.92108">
        <ele>281</ele>
        <time>2011-09-25T07:24:38Z</time>
      </trkpt>
      <trkpt lat="49.18621" lon="6.92111">
        <ele>282</ele>
        <time>2011-09-25T07:24:40Z</time>
      </trkpt>
      <trkpt lat="49.18621" lon="6.92113">
        <ele>283</ele>
        <time>2011-09-25T07:24:42Z</time>
      </trkpt>
      <trkpt lat="49.1862" lon="6.92115">
        <ele>283</ele>
        <time>2011-09-25T07:24:44Z</time>
      </trkpt>
      <trkpt lat="49.18621" lon="6.92118">
        <ele>283</ele>
        <time>2011-09-25T07:24:46Z</time>
      </trkpt>
      <trkpt lat="49.18621" lon="6.9212">
        <ele>283</ele>
        <time>2011-09-25T07:24:48Z</time>
      </trkpt>
      <trkpt lat="49.18622" lon="6.92123">
        <ele>284</ele>
        <time>2011-09-25T07:24:50Z</time>
      </trkpt>
      <trkpt lat="49.18623" lon="6.92125">
        <ele>285</ele>
        <time>2011-09-25T07:24:53Z</time>
      </trkpt>
      <trkpt lat="49.18623" lon="6.92127">
        <ele>286</ele>
        <time>2011-09-25T07:24:55Z</time>
      </trkpt>
      <trkpt lat="49.18624" lon="6.9213">
        <ele>287</ele>
        <time>2011-09-25T07:24:57Z</time>
      </trkpt>
      <trkpt lat="49.18624" lon="6.92132">
        <ele>287</ele>
        <time>2011-09-25T07:24:58Z</time>
      </trkpt>
      <trkpt lat="49.18623" lon="6.92134">
        <ele>287</ele>
        <time>2011-09-25T07:24:59Z</time>
      </trkpt>
      <trkpt lat="49.18624" lon="6.92136">
        <ele>287</ele>
        <time>2011-09-25T07:25:00Z</time>
      </trkpt>
      <trkpt lat="49.18624" lon="6.92137">
        <ele>287</ele>
        <time>2011-09-25T07:25:01Z</time>
      </trkpt>
      <trkpt lat="49.18624" lon="6.92139">
        <ele>287</ele>
        <time>2011-09-25T07:25:02Z</time>
      </trkpt>
      <trkpt lat="49.18624" lon="6.92141">
        <ele>287</ele>
        <time>2011-09-25T07:25:03Z</time>
      </trkpt>
      <trkpt lat="49.18625" lon="6.92144">
        <ele>288</ele>
        <time>2011-09-25T07:25:05Z</time>
      </trkpt>
      <trkpt lat="49.18625" lon="6.92146">
        <ele>288</ele>
        <time>2011-09-25T07:25:06Z</time>
      </trkpt>
      <trkpt lat="49.18624" lon="6.92148">
        <ele>288</ele>
        <time>2011-09-25T07:25:07Z</time>
      </trkpt>
      <trkpt lat="49.18625" lon="6.9215">
        <ele>288</ele>
        <time>2011-09-25T07:25:08Z</time>
      </trkpt>
      <trkpt lat="49.18627" lon="6.9215">
        <ele>288</ele>
        <time>2011-09-25T07:25:09Z</time>
      </trkpt>
      <trkpt lat="49.18629" lon="6.92152">
        <ele>288</ele>
        <time>2011-09-25T07:25:11Z</time>
      </trkpt>
      <trkpt lat="49.18631" lon="6.92154">
        <ele>288</ele>
        <time>2011-09-25T07:25:13Z</time>
      </trkpt>
      <trkpt lat="49.18633" lon="6.92156">
        <ele>288</ele>
        <time>2011-09-25T07:25:15Z</time>
      </trkpt>
      <trkpt lat="49.18634" lon="6.92159">
        <ele>288</ele>
        <time>2011-09-25T07:25:17Z</time>
      </trkpt>
      <trkpt lat="49.18636" lon="6.9216">
        <ele>288</ele>
        <time>2011-09-25T07:25:18Z</time>
      </trkpt>
      <trkpt lat="49.18638" lon="6.92161">
        <ele>288</ele>
        <time>2011-09-25T07:25:19Z</time>
      </trkpt>
      <trkpt lat="49.18639" lon="6.92161">
        <ele>288</ele>
        <time>2011-09-25T07:25:20Z</time>
      </trkpt>
      <trkpt lat="49.18641" lon="6.92163">
        <ele>288</ele>
        <time>2011-09-25T07:25:22Z</time>
      </trkpt>
      <trkpt lat="49.18644" lon="6.92163">
        <ele>288</ele>
        <time>2011-09-25T07:25:24Z</time>
      </trkpt>
      <trkpt lat="49.18645" lon="6.92165">
        <ele>288</ele>
        <time>2011-09-25T07:25:26Z</time>
      </trkpt>
      <trkpt lat="49.18647" lon="6.92166">
        <ele>288</ele>
        <time>2011-09-25T07:25:28Z</time>
      </trkpt>
      <trkpt lat="49.18649" lon="6.92168">
        <ele>288</ele>
        <time>2011-09-25T07:25:30Z</time>
      </trkpt>
      <trkpt lat="49.1865" lon="6.92169">
        <ele>288</ele>
        <time>2011-09-25T07:25:31Z</time>
      </trkpt>
      <trkpt lat="49.18651" lon="6.92171">
        <ele>288</ele>
        <time>2011-09-25T07:25:33Z</time>
      </trkpt>
      <trkpt lat="49.18653" lon="6.92171">
        <ele>288</ele>
        <time>2011-09-25T07:25:34Z</time>
      </trkpt>
      <trkpt lat="49.18655" lon="6.92171">
        <ele>288</ele>
        <time>2011-09-25T07:25:35Z</time>
      </trkpt>
      <trkpt lat="49.18656" lon="6.92172">
        <ele>288</ele>
        <time>2011-09-25T07:25:37Z</time>
      </trkpt>
      <trkpt lat="49.18658" lon="6.92174">
        <ele>288</ele>
        <time>2011-09-25T07:25:39Z</time>
      </trkpt>
      <trkpt lat="49.1866" lon="6.92175">
        <ele>288</ele>
        <time>2011-09-25T07:25:41Z</time>
      </trkpt>
      <trkpt lat="49.18661" lon="6.92177">
        <ele>288</ele>
        <time>2011-09-25T07:25:44Z</time>
      </trkpt>
      <trkpt lat="49.18663" lon="6.92178">
        <ele>288</ele>
        <time>2011-09-25T07:25:46Z</time>
      </trkpt>
      <trkpt lat="49.18665" lon="6.9218">
        <ele>288</ele>
        <time>2011-09-25T07:25:48Z</time>
      </trkpt>
      <trkpt lat="49.18666" lon="6.92182">
        <ele>288</ele>
        <time>2011-09-25T07:25:50Z</time>
      </trkpt>
      <trkpt lat="49.18668" lon="6.92183">
        <ele>288</ele>
        <time>2011-09-25T07:25:51Z</time>
      </trkpt>
      <trkpt lat="49.18669" lon="6.92185">
        <ele>288</ele>
        <time>2011-09-25T07:25:52Z</time>
      </trkpt>
      <trkpt lat="49.1867" lon="6.92188">
        <ele>288</ele>
        <time>2011-09-25T07:25:54Z</time>
      </trkpt>
      <trkpt lat="49.18672" lon="6.9219">
        <ele>288</ele>
        <time>2011-09-25T07:25:56Z</time>
      </trkpt>
      <trkpt lat="49.18673" lon="6.92192">
        <ele>288</ele>
        <time>2011-09-25T07:25:57Z</time>
      </trkpt>
      <trkpt lat="49.18674" lon="6.92195">
        <ele>288</ele>
        <time>2011-09-25T07:25:59Z</time>
      </trkpt>
      <trkpt lat="49.18675" lon="6.92196">
        <ele>288</ele>
        <time>2011-09-25T07:26:00Z</time>
      </trkpt>
      <trkpt lat="49.18676" lon="6.92198">
        <ele>288</ele>
        <time>2011-09-25T07:26:01Z</time>
      </trkpt>
      <trkpt lat="49.18676" lon="6.92199">
        <ele>288</ele>
        <time>2011-09-25T07:26:02Z</time>
      </trkpt>
      <trkpt lat="49.18678" lon="6.92201">
        <ele>288</ele>
        <time>2011-09-25T07:26:03Z</time>
      </trkpt>
      <trkpt lat="49.18679" lon="6.92203">
        <ele>288</ele>
        <time>2011-09-25T07:26:04Z</time>
      </trkpt>
      <trkpt lat="49.1868" lon="6.92206">
        <ele>288</ele>
        <time>2011-09-25T07:26:06Z</time>
      </trkpt>
      <trkpt lat="49.18682" lon="6.92206">
        <ele>288</ele>
        <time>2011-09-25T07:26:07Z</time>
      </trkpt>
      <trkpt lat="49.18684" lon="6.92207">
        <ele>288</ele>
        <time>2011-09-25T07:26:08Z</time>
      </trkpt>
      <trkpt lat="49.18685" lon="6.92208">
        <ele>288</ele>
        <time>2011-09-25T07:26:09Z</time>
      </trkpt>
      <trkpt lat="49.18687" lon="6.92209">
        <ele>288</ele>
        <time>2011-09-25T07:26:10Z</time>
      </trkpt>
      <trkpt lat="49.18688" lon="6.9221">
        <ele>288</ele>
        <time>2011-09-25T07:26:11Z</time>
      </trkpt>
      <trkpt lat="49.1869" lon="6.92211">
        <ele>288</ele>
        <time>2011-09-25T07:26:13Z</time>
      </trkpt>
      <trkpt lat="49.18691" lon="6.92212">
        <ele>288</ele>
        <time>2011-09-25T07:26:15Z</time>
      </trkpt>
      <trkpt lat="49.18692" lon="6.92213">
        <ele>288</ele>
        <time>2011-09-25T07:26:16Z</time>
      </trkpt>
      <trkpt lat="49.18694" lon="6.92214">
        <ele>288</ele>
        <time>2011-09-25T07:26:17Z</time>
      </trkpt>
      <trkpt lat="49.18695" lon="6.92216">
        <ele>288</ele>
        <time>2011-09-25T07:26:19Z</time>
      </trkpt>
      <trkpt lat="49.18695" lon="6.92219">
        <ele>288</ele>
        <time>2011-09-25T07:26:21Z</time>
      </trkpt>
      <trkpt lat="49.18695" lon="6.92221">
        <ele>288</ele>
        <time>2011-09-25T07:26:22Z</time>
      </trkpt>
      <trkpt lat="49.18697" lon="6.92224">
        <ele>288</ele>
        <time>2011-09-25T07:26:24Z</time>
      </trkpt>
      <trkpt lat="49.18699" lon="6.92227">
        <ele>288</ele>
        <time>2011-09-25T07:26:26Z</time>
      </trkpt>
      <trkpt lat="49.18699" lon="6.92229">
        <ele>288</ele>
        <time>2011-09-25T07:26:27Z</time>
      </trkpt>
      <trkpt lat="49.187" lon="6.92232">
        <ele>288</ele>
        <time>2011-09-25T07:26:29Z</time>
      </trkpt>
      <trkpt lat="49.18698" lon="6.92234">
        <ele>288</ele>
        <time>2011-09-25T07:26:31Z</time>
      </trkpt>
      <trkpt lat="49.18698" lon="6.92236">
        <ele>288</ele>
        <time>2011-09-25T07:26:32Z</time>
      </trkpt>
      <trkpt lat="49.18699" lon="6.92239">
        <ele>288</ele>
        <time>2011-09-25T07:26:34Z</time>
      </trkpt>
      <trkpt lat="49.18699" lon="6.92241">
        <ele>288</ele>
        <time>2011-09-25T07:26:35Z</time>
      </trkpt>
      <trkpt lat="49.18699" lon="6.92244">
        <ele>288</ele>
        <time>2011-09-25T07:26:37Z</time>
      </trkpt>
      <trkpt lat="49.187" lon="6.92245">
        <ele>288</ele>
        <time>2011-09-25T07:26:38Z</time>
      </trkpt>
      <trkpt lat="49.18702" lon="6.92248">
        <ele>288</ele>
        <time>2011-09-25T07:26:40Z</time>
      </trkpt>
      <trkpt lat="49.18702" lon="6.9225">
        <ele>288</ele>
        <time>2011-09-25T07:26:41Z</time>
      </trkpt>
      <trkpt lat="49.18703" lon="6.92252">
        <ele>288</ele>
        <time>2011-09-25T07:26:42Z</time>
      </trkpt>
      <trkpt lat="49.18705" lon="6.92254">
        <ele>288</ele>
        <time>2011-09-25T07:26:44Z</time>
      </trkpt>
      <trkpt lat="49.18705" lon="6.92256">
        <ele>288</ele>
        <time>2011-09-25T07:26:46Z</time>
      </trkpt>
      <trkpt lat="49.18704" lon="6.92257">
        <ele>288</ele>
        <time>2011-09-25T07:26:48Z</time>
      </trkpt>
      <trkpt lat="49.18703" lon="6.92259">
        <ele>289</ele>
        <time>2011-09-25T07:26:51Z</time>
      </trkpt>
      <trkpt lat="49.18703" lon="6.92261">
        <ele>291</ele>
        <time>2011-09-25T07:26:53Z</time>
      </trkpt>
      <trkpt lat="49.18703" lon="6.92262">
        <ele>292</ele>
        <time>2011-09-25T07:26:54Z</time>
      </trkpt>
      <trkpt lat="49.18705" lon="6.92265">
        <ele>294</ele>
        <time>2011-09-25T07:26:56Z</time>
      </trkpt>
      <trkpt lat="49.18707" lon="6.92268">
        <ele>294</ele>
        <time>2011-09-25T07:26:58Z</time>
      </trkpt>
      <trkpt lat="49.18709" lon="6.9227">
        <ele>294</ele>
        <time>2011-09-25T07:26:59Z</time>
      </trkpt>
      <trkpt lat="49.18711" lon="6.92271">
        <ele>294</ele>
        <time>2011-09-25T07:27:00Z</time>
      </trkpt>
      <trkpt lat="49.18712" lon="6.92273">
        <ele>294</ele>
        <time>2011-09-25T07:27:01Z</time>
      </trkpt>
      <trkpt lat="49.18714" lon="6.92275">
        <ele>294</ele>
        <time>2011-09-25T07:27:02Z</time>
      </trkpt>
      <trkpt lat="49.18715" lon="6.92276">
        <ele>294</ele>
        <time>2011-09-25T07:27:03Z</time>
      </trkpt>
      <trkpt lat="49.18716" lon="6.92277">
        <ele>294</ele>
        <time>2011-09-25T07:27:04Z</time>
      </trkpt>
      <trkpt lat="49.18719" lon="6.92279">
        <ele>294</ele>
        <time>2011-09-25T07:27:05Z</time>
      </trkpt>
      <trkpt lat="49.18721" lon="6.9228">
        <ele>294</ele>
        <time>2011-09-25T07:27:06Z</time>
      </trkpt>
      <trkpt lat="49.18723" lon="6.92281">
        <ele>294</ele>
        <time>2011-09-25T07:27:07Z</time>
      </trkpt>
      <trkpt lat="49.18725" lon="6.92283">
        <ele>294</ele>
        <time>2011-09-25T07:27:08Z</time>
      </trkpt>
      <trkpt lat="49.18726" lon="6.92284">
        <ele>294</ele>
        <time>2011-09-25T07:27:09Z</time>
      </trkpt>
      <trkpt lat="49.18727" lon="6.92285">
        <ele>293</ele>
        <time>2011-09-25T07:27:10Z</time>
      </trkpt>
      <trkpt lat="49.18729" lon="6.92286">
        <ele>292</ele>
        <time>2011-09-25T07:27:11Z</time>
      </trkpt>
      <trkpt lat="49.18731" lon="6.92287">
        <ele>291</ele>
        <time>2011-09-25T07:27:12Z</time>
      </trkpt>
      <trkpt lat="49.18733" lon="6.92288">
        <ele>291</ele>
        <time>2011-09-25T07:27:13Z</time>
      </trkpt>
      <trkpt lat="49.18735" lon="6.92289">
        <ele>290</ele>
        <time>2011-09-25T07:27:14Z</time>
      </trkpt>
      <trkpt lat="49.18736" lon="6.9229">
        <ele>289</ele>
        <time>2011-09-25T07:27:15Z</time>
      </trkpt>
      <trkpt lat="49.18739" lon="6.92291">
        <ele>288</ele>
        <time>2011-09-25T07:27:17Z</time>
      </trkpt>
      <trkpt lat="49.1874" lon="6.92292">
        <ele>288</ele>
        <time>2011-09-25T07:27:18Z</time>
      </trkpt>
      <trkpt lat="49.18741" lon="6.92294">
        <ele>287</ele>
        <time>2011-09-25T07:27:19Z</time>
      </trkpt>
      <trkpt lat="49.18742" lon="6.92294">
        <ele>287</ele>
        <time>2011-09-25T07:27:20Z</time>
      </trkpt>
      <trkpt lat="49.18744" lon="6.92295">
        <ele>287</ele>
        <time>2011-09-25T07:27:21Z</time>
      </trkpt>
      <trkpt lat="49.18745" lon="6.92295">
        <ele>286</ele>
        <time>2011-09-25T07:27:22Z</time>
      </trkpt>
      <trkpt lat="49.18747" lon="6.92296">
        <ele>285</ele>
        <time>2011-09-25T07:27:23Z</time>
      </trkpt>
      <trkpt lat="49.18748" lon="6.92297">
        <ele>284</ele>
        <time>2011-09-25T07:27:24Z</time>
      </trkpt>
      <trkpt lat="49.1875" lon="6.92297">
        <ele>283</ele>
        <time>2011-09-25T07:27:26Z</time>
      </trkpt>
      <trkpt lat="49.18752" lon="6.92298">
        <ele>283</ele>
        <time>2011-09-25T07:27:27Z</time>
      </trkpt>
      <trkpt lat="49.18753" lon="6.92298">
        <ele>282</ele>
        <time>2011-09-25T07:27:28Z</time>
      </trkpt>
      <trkpt lat="49.18755" lon="6.92299">
        <ele>282</ele>
        <time>2011-09-25T07:27:29Z</time>
      </trkpt>
      <trkpt lat="49.18757" lon="6.92299">
        <ele>281</ele>
        <time>2011-09-25T07:27:30Z</time>
      </trkpt>
      <trkpt lat="49.18759" lon="6.92299">
        <ele>280</ele>
        <time>2011-09-25T07:27:31Z</time>
      </trkpt>
      <trkpt lat="49.18761" lon="6.92299">
        <ele>280</ele>
        <time>2011-09-25T07:27:32Z</time>
      </trkpt>
      <trkpt lat="49.18763" lon="6.92298">
        <ele>279</ele>
        <time>2011-09-25T07:27:33Z</time>
      </trkpt>
      <trkpt lat="49.18765" lon="6.92299">
        <ele>279</ele>
        <time>2011-09-25T07:27:34Z</time>
      </trkpt>
      <trkpt lat="49.18767" lon="6.92299">
        <ele>278</ele>
        <time>2011-09-25T07:27:35Z</time>
      </trkpt>
      <trkpt lat="49.18768" lon="6.923">
        <ele>278</ele>
        <time>2011-09-25T07:27:36Z</time>
      </trkpt>
      <trkpt lat="49.18769" lon="6.923">
        <ele>278</ele>
        <time>2011-09-25T07:27:37Z</time>
      </trkpt>
      <trkpt lat="49.18772" lon="6.923">
        <ele>278</ele>
        <time>2011-09-25T07:27:39Z</time>
      </trkpt>
      <trkpt lat="49.18773" lon="6.92299">
        <ele>278</ele>
        <time>2011-09-25T07:27:40Z</time>
      </trkpt>
      <trkpt lat="49.18774" lon="6.923">
        <ele>277</ele>
        <time>2011-09-25T07:27:42Z</time>
      </trkpt>
      <trkpt lat="49.18776" lon="6.92299">
        <ele>277</ele>
        <time>2011-09-25T07:27:44Z</time>
      </trkpt>
      <trkpt lat="49.18777" lon="6.92298">
        <ele>276</ele>
        <time>2011-09-25T07:27:46Z</time>
      </trkpt>
      <trkpt lat="49.18779" lon="6.92298">
        <ele>276</ele>
        <time>2011-09-25T07:27:47Z</time>
      </trkpt>
      <trkpt lat="49.1878" lon="6.92298">
        <ele>276</ele>
        <time>2011-09-25T07:27:48Z</time>
      </trkpt>
      <trkpt lat="49.18782" lon="6.92298">
        <ele>276</ele>
        <time>2011-09-25T07:27:49Z</time>
      </trkpt>
      <trkpt lat="49.18783" lon="6.92298">
        <ele>276</ele>
        <time>2011-09-25T07:27:51Z</time>
      </trkpt>
      <trkpt lat="49.18784" lon="6.923">
        <ele>275</ele>
        <time>2011-09-25T07:27:53Z</time>
      </trkpt>
      <trkpt lat="49.18785" lon="6.923">
        <ele>275</ele>
        <time>2011-09-25T07:27:54Z</time>
      </trkpt>
      <trkpt lat="49.18787" lon="6.92299">
        <ele>275</ele>
        <time>2011-09-25T07:27:55Z</time>
      </trkpt>
      <trkpt lat="49.18789" lon="6.92298">
        <ele>275</ele>
        <time>2011-09-25T07:27:57Z</time>
      </trkpt>
      <trkpt lat="49.1879" lon="6.92298">
        <ele>275</ele>
        <time>2011-09-25T07:27:59Z</time>
      </trkpt>
      <trkpt lat="49.18792" lon="6.92298">
        <ele>275</ele>
        <time>2011-09-25T07:28:00Z</time>
      </trkpt>
      <trkpt lat="49.18793" lon="6.92298">
        <ele>275</ele>
        <time>2011-09-25T07:28:01Z</time>
      </trkpt>
      <trkpt lat="49.18795" lon="6.92298">
        <ele>275</ele>
        <time>2011-09-25T07:28:03Z</time>
      </trkpt>
      <trkpt lat="49.18797" lon="6.92299">
        <ele>275</ele>
        <time>2011-09-25T07:28:04Z</time>
      </trkpt>
      <trkpt lat="49.18799" lon="6.92301">
        <ele>275</ele>
        <time>2011-09-25T07:28:06Z</time>
      </trkpt>
      <trkpt lat="49.18801" lon="6.92301">
        <ele>275</ele>
        <time>2011-09-25T07:28:08Z</time>
      </trkpt>
      <trkpt lat="49.18802" lon="6.92303">
        <ele>275</ele>
        <time>2011-09-25T07:28:10Z</time>
      </trkpt>
      <trkpt lat="49.18803" lon="6.92305">
        <ele>275</ele>
        <time>2011-09-25T07:28:12Z</time>
      </trkpt>
      <trkpt lat="49.18805" lon="6.92306">
        <ele>275</ele>
        <time>2011-09-25T07:28:14Z</time>
      </trkpt>
      <trkpt lat="49.18806" lon="6.92307">
        <ele>275</ele>
        <time>2011-09-25T07:28:16Z</time>
      </trkpt>
      <trkpt lat="49.18807" lon="6.92309">
        <ele>275</ele>
        <time>2011-09-25T07:28:18Z</time>
      </trkpt>
      <trkpt lat="49.18808" lon="6.92312">
        <ele>275</ele>
        <time>2011-09-25T07:28:20Z</time>
      </trkpt>
      <trkpt lat="49.18811" lon="6.92312">
        <ele>275</ele>
        <time>2011-09-25T07:28:21Z</time>
      </trkpt>
      <trkpt lat="49.18812" lon="6.92312">
        <ele>275</ele>
        <time>2011-09-25T07:28:22Z</time>
      </trkpt>
      <trkpt lat="49.18814" lon="6.92313">
        <ele>275</ele>
        <time>2011-09-25T07:28:23Z</time>
      </trkpt>
      <trkpt lat="49.18815" lon="6.92314">
        <ele>275</ele>
        <time>2011-09-25T07:28:24Z</time>
      </trkpt>
      <trkpt lat="49.18816" lon="6.92316">
        <ele>275</ele>
        <time>2011-09-25T07:28:25Z</time>
      </trkpt>
      <trkpt lat="49.18817" lon="6.92317">
        <ele>275</ele>
        <time>2011-09-25T07:28:26Z</time>
      </trkpt>
      <trkpt lat="49.18818" lon="6.9232">
        <ele>275</ele>
        <time>2011-09-25T07:28:27Z</time>
      </trkpt>
      <trkpt lat="49.18819" lon="6.92322">
        <ele>275</ele>
        <time>2011-09-25T07:28:28Z</time>
      </trkpt>
      <trkpt lat="49.1882" lon="6.92323">
        <ele>275</ele>
        <time>2011-09-25T07:28:29Z</time>
      </trkpt>
      <trkpt lat="49.18821" lon="6.92325">
        <ele>275</ele>
        <time>2011-09-25T07:28:31Z</time>
      </trkpt>
      <trkpt lat="49.18824" lon="6.92328">
        <ele>275</ele>
        <time>2011-09-25T07:28:33Z</time>
      </trkpt>
      <trkpt lat="49.18824" lon="6.92329">
        <ele>275</ele>
        <time>2011-09-25T07:28:34Z</time>
      </trkpt>
      <trkpt lat="49.18824" lon="6.92331">
        <ele>275</ele>
        <time>2011-09-25T07:28:35Z</time>
      </trkpt>
      <trkpt lat="49.18825" lon="6.92333">
        <ele>275</ele>
        <time>2011-09-25T07:28:36Z</time>
      </trkpt>
      <trkpt lat="49.18827" lon="6.92336">
        <ele>275</ele>
        <time>2011-09-25T07:28:38Z</time>
      </trkpt>
      <trkpt lat="49.18827" lon="6.92338">
        <ele>275</ele>
        <time>2011-09-25T07:28:40Z</time>
      </trkpt>
      <trkpt lat="49.18828" lon="6.9234">
        <ele>275</ele>
        <time>2011-09-25T07:28:41Z</time>
      </trkpt>
      <trkpt lat="49.18827" lon="6.92342">
        <ele>275</ele>
        <time>2011-09-25T07:28:42Z</time>
      </trkpt>
      <trkpt lat="49.18828" lon="6.92345">
        <ele>275</ele>
        <time>2011-09-25T07:28:44Z</time>
      </trkpt>
      <trkpt lat="49.18827" lon="6.92346">
        <ele>275</ele>
        <time>2011-09-25T07:28:45Z</time>
      </trkpt>
      <trkpt lat="49.18828" lon="6.92349">
        <ele>275</ele>
        <time>2011-09-25T07:28:47Z</time>
      </trkpt>
      <trkpt lat="49.18828" lon="6.92351">
        <ele>275</ele>
        <time>2011-09-25T07:28:48Z</time>
      </trkpt>
      <trkpt lat="49.18829" lon="6.92353">
        <ele>275</ele>
        <time>2011-09-25T07:28:49Z</time>
      </trkpt>
      <trkpt lat="49.1883" lon="6.92355">
        <ele>275</ele>
        <time>2011-09-25T07:28:51Z</time>
      </trkpt>
      <trkpt lat="49.18831" lon="6.92357">
        <ele>275</ele>
        <time>2011-09-25T07:28:53Z</time>
      </trkpt>
      <trkpt lat="49.18833" lon="6.9236">
        <ele>275</ele>
        <time>2011-09-25T07:28:55Z</time>
      </trkpt>
      <trkpt lat="49.18834" lon="6.92361">
        <ele>275</ele>
        <time>2011-09-25T07:28:57Z</time>
      </trkpt>
      <trkpt lat="49.18835" lon="6.92364">
        <ele>275</ele>
        <time>2011-09-25T07:28:59Z</time>
      </trkpt>
      <trkpt lat="49.18835" lon="6.92366">
        <ele>275</ele>
        <time>2011-09-25T07:29:00Z</time>
      </trkpt>
      <trkpt lat="49.18834" lon="6.92369">
        <ele>275</ele>
        <time>2011-09-25T07:29:01Z</time>
      </trkpt>
      <trkpt lat="49.18834" lon="6.92371">
        <ele>275</ele>
        <time>2011-09-25T07:29:02Z</time>
      </trkpt>
      <trkpt lat="49.18835" lon="6.92374">
        <ele>275</ele>
        <time>2011-09-25T07:29:04Z</time>
      </trkpt>
      <trkpt lat="49.18836" lon="6.92376">
        <ele>275</ele>
        <time>2011-09-25T07:29:05Z</time>
      </trkpt>
      <trkpt lat="49.18836" lon="6.92378">
        <ele>275</ele>
        <time>2011-09-25T07:29:06Z</time>
      </trkpt>
      <trkpt lat="49.18836" lon="6.92379">
        <ele>275</ele>
        <time>2011-09-25T07:29:07Z</time>
      </trkpt>
      <trkpt lat="49.18837" lon="6.92381">
        <ele>275</ele>
        <time>2011-09-25T07:29:08Z</time>
      </trkpt>
      <trkpt lat="49.18837" lon="6.92383">
        <ele>275</ele>
        <time>2011-09-25T07:29:09Z</time>
      </trkpt>
      <trkpt lat="49.1884" lon="6.92385">
        <ele>275</ele>
        <time>2011-09-25T07:29:11Z</time>
      </trkpt>
      <trkpt lat="49.1884" lon="6.92387">
        <ele>275</ele>
        <time>2011-09-25T07:29:12Z</time>
      </trkpt>
      <trkpt lat="49.18842" lon="6.92389">
        <ele>275</ele>
        <time>2011-09-25T07:29:13Z</time>
      </trkpt>
      <trkpt lat="49.18845" lon="6.92389">
        <ele>275</ele>
        <time>2011-09-25T07:29:14Z</time>
      </trkpt>
      <trkpt lat="49.18846" lon="6.92391">
        <ele>275</ele>
        <time>2011-09-25T07:29:15Z</time>
      </trkpt>
      <trkpt lat="49.18847" lon="6.92394">
        <ele>275</ele>
        <time>2011-09-25T07:29:17Z</time>
      </trkpt>
      <trkpt lat="49.18849" lon="6.92398">
        <ele>275</ele>
        <time>2011-09-25T07:29:19Z</time>
      </trkpt>
      <trkpt lat="49.1885" lon="6.92398">
        <ele>275</ele>
        <time>2011-09-25T07:29:20Z</time>
      </trkpt>
      <trkpt lat="49.18852" lon="6.924">
        <ele>275</ele>
        <time>2011-09-25T07:29:21Z</time>
      </trkpt>
      <trkpt lat="49.18853" lon="6.92402">
        <ele>275</ele>
        <time>2011-09-25T07:29:22Z</time>
      </trkpt>
      <trkpt lat="49.18854" lon="6.92405">
        <ele>275</ele>
        <time>2011-09-25T07:29:24Z</time>
      </trkpt>
      <trkpt lat="49.18855" lon="6.92406">
        <ele>275</ele>
        <time>2011-09-25T07:29:25Z</time>
      </trkpt>
      <trkpt lat="49.18856" lon="6.92408">
        <ele>275</ele>
        <time>2011-09-25T07:29:26Z</time>
      </trkpt>
      <trkpt lat="49.18857" lon="6.92409">
        <ele>275</ele>
        <time>2011-09-25T07:29:27Z</time>
      </trkpt>
      <trkpt lat="49.18858" lon="6.92409">
        <ele>275</ele>
        <time>2011-09-25T07:29:28Z</time>
      </trkpt>
      <trkpt lat="49.18858" lon="6.92412">
        <ele>275</ele>
        <time>2011-09-25T07:29:30Z</time>
      </trkpt>
      <trkpt lat="49.18856" lon="6.92415">
        <ele>275</ele>
        <time>2011-09-25T07:29:31Z</time>
      </trkpt>
      <trkpt lat="49.18856" lon="6.92418">
        <ele>275</ele>
        <time>2011-09-25T07:29:33Z</time>
      </trkpt>
      <trkpt lat="49.18858" lon="6.9242">
        <ele>275</ele>
        <time>2011-09-25T07:29:35Z</time>
      </trkpt>
      <trkpt lat="49.18859" lon="6.92421">
        <ele>275</ele>
        <time>2011-09-25T07:29:36Z</time>
      </trkpt>
      <trkpt lat="49.1886" lon="6.92422">
        <ele>275</ele>
        <time>2011-09-25T07:29:37Z</time>
      </trkpt>
      <trkpt lat="49.18861" lon="6.92424">
        <ele>275</ele>
        <time>2011-09-25T07:29:38Z</time>
      </trkpt>
      <trkpt lat="49.18864" lon="6.92427">
        <ele>276</ele>
        <time>2011-09-25T07:29:40Z</time>
      </trkpt>
      <trkpt lat="49.18865" lon="6.92428">
        <ele>277</ele>
        <time>2011-09-25T07:29:41Z</time>
      </trkpt>
      <trkpt lat="49.18866" lon="6.92429">
        <ele>277</ele>
        <time>2011-09-25T07:29:42Z</time>
      </trkpt>
      <trkpt lat="49.18867" lon="6.92429">
        <ele>277</ele>
        <time>2011-09-25T07:29:43Z</time>
      </trkpt>
      <trkpt lat="49.18869" lon="6.92429">
        <ele>278</ele>
        <time>2011-09-25T07:29:44Z</time>
      </trkpt>
      <trkpt lat="49.18871" lon="6.92432">
        <ele>278</ele>
        <time>2011-09-25T07:29:46Z</time>
      </trkpt>
      <trkpt lat="49.18872" lon="6.92435">
        <ele>278</ele>
        <time>2011-09-25T07:29:48Z</time>
      </trkpt>
      <trkpt lat="49.18874" lon="6.92439">
        <ele>279</ele>
        <time>2011-09-25T07:29:50Z</time>
      </trkpt>
      <trkpt lat="49.18874" lon="6.9244">
        <ele>279</ele>
        <time>2011-09-25T07:29:51Z</time>
      </trkpt>
      <trkpt lat="49.18875" lon="6.92443">
        <ele>279</ele>
        <time>2011-09-25T07:29:52Z</time>
      </trkpt>
      <trkpt lat="49.18876" lon="6.92445">
        <ele>280</ele>
        <time>2011-09-25T07:29:53Z</time>
      </trkpt>
      <trkpt lat="49.18877" lon="6.92447">
        <ele>280</ele>
        <time>2011-09-25T07:29:54Z</time>
      </trkpt>
      <trkpt lat="49.18878" lon="6.92449">
        <ele>280</ele>
        <time>2011-09-25T07:29:55Z</time>
      </trkpt>
      <trkpt lat="49.18878" lon="6.92451">
        <ele>281</ele>
        <time>2011-09-25T07:29:56Z</time>
      </trkpt>
      <trkpt lat="49.18879" lon="6.92453">
        <ele>281</ele>
        <time>2011-09-25T07:29:57Z</time>
      </trkpt>
      <trkpt lat="49.18881" lon="6.92455">
        <ele>282</ele>
        <time>2011-09-25T07:29:59Z</time>
      </trkpt>
      <trkpt lat="49.18882" lon="6.92457">
        <ele>283</ele>
        <time>2011-09-25T07:30:00Z</time>
      </trkpt>
      <trkpt lat="49.18882" lon="6.9246">
        <ele>283</ele>
        <time>2011-09-25T07:30:02Z</time>
      </trkpt>
      <trkpt lat="49.18884" lon="6.92461">
        <ele>283</ele>
        <time>2011-09-25T07:30:03Z</time>
      </trkpt>
      <trkpt lat="49.18885" lon="6.92464">
        <ele>283</ele>
        <time>2011-09-25T07:30:05Z</time>
      </trkpt>
      <trkpt lat="49.18886" lon="6.92466">
        <ele>284</ele>
        <time>2011-09-25T07:30:06Z</time>
      </trkpt>
      <trkpt lat="49.18886" lon="6.92468">
        <ele>284</ele>
        <time>2011-09-25T07:30:07Z</time>
      </trkpt>
      <trkpt lat="49.18887" lon="6.92471">
        <ele>284</ele>
        <time>2011-09-25T07:30:09Z</time>
      </trkpt>
      <trkpt lat="49.18888" lon="6.92472">
        <ele>284</ele>
        <time>2011-09-25T07:30:10Z</time>
      </trkpt>
      <trkpt lat="49.1889" lon="6.92473">
        <ele>284</ele>
        <time>2011-09-25T07:30:11Z</time>
      </trkpt>
      <trkpt lat="49.18891" lon="6.92475">
        <ele>284</ele>
        <time>2011-09-25T07:30:12Z</time>
      </trkpt>
      <trkpt lat="49.1889" lon="6.92477">
        <ele>284</ele>
        <time>2011-09-25T07:30:13Z</time>
      </trkpt>
      <trkpt lat="49.18892" lon="6.92479">
        <ele>284</ele>
        <time>2011-09-25T07:30:15Z</time>
      </trkpt>
      <trkpt lat="49.18894" lon="6.9248">
        <ele>284</ele>
        <time>2011-09-25T07:30:16Z</time>
      </trkpt>
      <trkpt lat="49.18893" lon="6.92482">
        <ele>285</ele>
        <time>2011-09-25T07:30:17Z</time>
      </trkpt>
      <trkpt lat="49.18893" lon="6.92484">
        <ele>285</ele>
        <time>2011-09-25T07:30:18Z</time>
      </trkpt>
      <trkpt lat="49.18892" lon="6.92486">
        <ele>285</ele>
        <time>2011-09-25T07:30:19Z</time>
      </trkpt>
      <trkpt lat="49.18892" lon="6.92488">
        <ele>285</ele>
        <time>2011-09-25T07:30:20Z</time>
      </trkpt>
      <trkpt lat="49.18893" lon="6.9249">
        <ele>285</ele>
        <time>2011-09-25T07:30:21Z</time>
      </trkpt>
      <trkpt lat="49.18894" lon="6.92492">
        <ele>285</ele>
        <time>2011-09-25T07:30:23Z</time>
      </trkpt>
      <trkpt lat="49.18894" lon="6.92495">
        <ele>285</ele>
        <time>2011-09-25T07:30:25Z</time>
      </trkpt>
      <trkpt lat="49.18893" lon="6.92498">
        <ele>286</ele>
        <time>2011-09-25T07:30:27Z</time>
      </trkpt>
      <trkpt lat="49.18894" lon="6.92501">
        <ele>286</ele>
        <time>2011-09-25T07:30:29Z</time>
      </trkpt>
      <trkpt lat="49.18895" lon="6.92502">
        <ele>287</ele>
        <time>2011-09-25T07:30:30Z</time>
      </trkpt>
      <trkpt lat="49.18895" lon="6.92505">
        <ele>288</ele>
        <time>2011-09-25T07:30:32Z</time>
      </trkpt>
      <trkpt lat="49.18896" lon="6.92509">
        <ele>288</ele>
        <time>2011-09-25T07:30:34Z</time>
      </trkpt>
      <trkpt lat="49.18898" lon="6.92512">
        <ele>288</ele>
        <time>2011-09-25T07:30:36Z</time>
      </trkpt>
      <trkpt lat="49.189" lon="6.92513">
        <ele>288</ele>
        <time>2011-09-25T07:30:37Z</time>
      </trkpt>
      <trkpt lat="49.18901" lon="6.92515">
        <ele>288</ele>
        <time>2011-09-25T07:30:38Z</time>
      </trkpt>
      <trkpt lat="49.18902" lon="6.92516">
        <ele>288</ele>
        <time>2011-09-25T07:30:39Z</time>
      </trkpt>
      <trkpt lat="49.18902" lon="6.92519">
        <ele>288</ele>
        <time>2011-09-25T07:30:40Z</time>
      </trkpt>
      <trkpt lat="49.18903" lon="6.9252">
        <ele>288</ele>
        <time>2011-09-25T07:30:41Z</time>
      </trkpt>
      <trkpt lat="49.18903" lon="6.92522">
        <ele>288</ele>
        <time>2011-09-25T07:30:42Z</time>
      </trkpt>
      <trkpt lat="49.18904" lon="6.92526">
        <ele>288</ele>
        <time>2011-09-25T07:30:44Z</time>
      </trkpt>
      <trkpt lat="49.18905" lon="6.92528">
        <ele>288</ele>
        <time>2011-09-25T07:30:45Z</time>
      </trkpt>
      <trkpt lat="49.18905" lon="6.9253">
        <ele>288</ele>
        <time>2011-09-25T07:30:46Z</time>
      </trkpt>
      <trkpt lat="49.18906" lon="6.92531">
        <ele>288</ele>
        <time>2011-09-25T07:30:47Z</time>
      </trkpt>
      <trkpt lat="49.18906" lon="6.92535">
        <ele>288</ele>
        <time>2011-09-25T07:30:49Z</time>
      </trkpt>
      <trkpt lat="49.18907" lon="6.92537">
        <ele>288</ele>
        <time>2011-09-25T07:30:50Z</time>
      </trkpt>
      <trkpt lat="49.18907" lon="6.92539">
        <ele>288</ele>
        <time>2011-09-25T07:30:51Z</time>
      </trkpt>
      <trkpt lat="49.18907" lon="6.92541">
        <ele>288</ele>
        <time>2011-09-25T07:30:52Z</time>
      </trkpt>
      <trkpt lat="49.18908" lon="6.92543">
        <ele>288</ele>
        <time>2011-09-25T07:30:53Z</time>
      </trkpt>
      <trkpt lat="49.18908" lon="6.92545">
        <ele>288</ele>
        <time>2011-09-25T07:30:54Z</time>
      </trkpt>
      <trkpt lat="49.18909" lon="6.92547">
        <ele>288</ele>
        <time>2011-09-25T07:30:55Z</time>
      </trkpt>
      <trkpt lat="49.18911" lon="6.92549">
        <ele>288</ele>
        <time>2011-09-25T07:30:57Z</time>
      </trkpt>
      <trkpt lat="49.18911" lon="6.92552">
        <ele>288</ele>
        <time>2011-09-25T07:30:59Z</time>
      </trkpt>
      <trkpt lat="49.18913" lon="6.92555">
        <ele>288</ele>
        <time>2011-09-25T07:31:01Z</time>
      </trkpt>
      <trkpt lat="49.18914" lon="6.92556">
        <ele>288</ele>
        <time>2011-09-25T07:31:03Z</time>
      </trkpt>
      <trkpt lat="49.18917" lon="6.92556">
        <ele>288</ele>
        <time>2011-09-25T07:31:06Z</time>
      </trkpt>
      <trkpt lat="49.18918" lon="6.92555">
        <ele>288</ele>
        <time>2011-09-25T07:31:08Z</time>
      </trkpt>
      <trkpt lat="49.1892" lon="6.92555">
        <ele>288</ele>
        <time>2011-09-25T07:31:14Z</time>
      </trkpt>
      <trkpt lat="49.18922" lon="6.92555">
        <ele>288</ele>
        <time>2011-09-25T07:31:15Z</time>
      </trkpt>
      <trkpt lat="49.18925" lon="6.92556">
        <ele>288</ele>
        <time>2011-09-25T07:31:16Z</time>
      </trkpt>
      <trkpt lat="49.18926" lon="6.92557">
        <ele>288</ele>
        <time>2011-09-25T07:31:17Z</time>
      </trkpt>
      <trkpt lat="49.18927" lon="6.92559">
        <ele>288</ele>
        <time>2011-09-25T07:31:19Z</time>
      </trkpt>
      <trkpt lat="49.18928" lon="6.92561">
        <ele>288</ele>
        <time>2011-09-25T07:31:20Z</time>
      </trkpt>
      <trkpt lat="49.18928" lon="6.92563">
        <ele>288</ele>
        <time>2011-09-25T07:31:22Z</time>
      </trkpt>
      <trkpt lat="49.1893" lon="6.92564">
        <ele>288</ele>
        <time>2011-09-25T07:31:24Z</time>
      </trkpt>
      <trkpt lat="49.18931" lon="6.92565">
        <ele>288</ele>
        <time>2011-09-25T07:31:26Z</time>
      </trkpt>
      <trkpt lat="49.18933" lon="6.92566">
        <ele>288</ele>
        <time>2011-09-25T07:31:27Z</time>
      </trkpt>
      <trkpt lat="49.18935" lon="6.92566">
        <ele>288</ele>
        <time>2011-09-25T07:31:28Z</time>
      </trkpt>
      <trkpt lat="49.18934" lon="6.92568">
        <ele>288</ele>
        <time>2011-09-25T07:31:29Z</time>
      </trkpt>
      <trkpt lat="49.18933" lon="6.92571">
        <ele>288</ele>
        <time>2011-09-25T07:31:31Z</time>
      </trkpt>
      <trkpt lat="49.18936" lon="6.92573">
        <ele>288</ele>
        <time>2011-09-25T07:31:33Z</time>
      </trkpt>
      <trkpt lat="49.18938" lon="6.92574">
        <ele>288</ele>
        <time>2011-09-25T07:31:34Z</time>
      </trkpt>
      <trkpt lat="49.1894" lon="6.92575">
        <ele>288</ele>
        <time>2011-09-25T07:31:35Z</time>
      </trkpt>
      <trkpt lat="49.1894" lon="6.92577">
        <ele>288</ele>
        <time>2011-09-25T07:31:37Z</time>
      </trkpt>
      <trkpt lat="49.18941" lon="6.92581">
        <ele>288</ele>
        <time>2011-09-25T07:31:39Z</time>
      </trkpt>
      <trkpt lat="49.1894" lon="6.92583">
        <ele>288</ele>
        <time>2011-09-25T07:31:40Z</time>
      </trkpt>
      <trkpt lat="49.1894" lon="6.92584">
        <ele>288</ele>
        <time>2011-09-25T07:31:41Z</time>
      </trkpt>
      <trkpt lat="49.18939" lon="6.92586">
        <ele>288</ele>
        <time>2011-09-25T07:31:42Z</time>
      </trkpt>
      <trkpt lat="49.18938" lon="6.92588">
        <ele>288</ele>
        <time>2011-09-25T07:31:43Z</time>
      </trkpt>
      <trkpt lat="49.18936" lon="6.92589">
        <ele>288</ele>
        <time>2011-09-25T07:31:45Z</time>
      </trkpt>
      <trkpt lat="49.18935" lon="6.9259">
        <ele>289</ele>
        <time>2011-09-25T07:31:47Z</time>
      </trkpt>
      <trkpt lat="49.18933" lon="6.92589">
        <ele>290</ele>
        <time>2011-09-25T07:31:48Z</time>
      </trkpt>
      <trkpt lat="49.18932" lon="6.92588">
        <ele>290</ele>
        <time>2011-09-25T07:31:50Z</time>
      </trkpt>
      <trkpt lat="49.18934" lon="6.92588">
        <ele>292</ele>
        <time>2011-09-25T07:32:05Z</time>
      </trkpt>
      <trkpt lat="49.18933" lon="6.9259">
        <ele>292</ele>
        <time>2011-09-25T07:32:07Z</time>
      </trkpt>
      <trkpt lat="49.18935" lon="6.92591">
        <ele>292</ele>
        <time>2011-09-25T07:32:10Z</time>
      </trkpt>
      <trkpt lat="49.18936" lon="6.92592">
        <ele>292</ele>
        <time>2011-09-25T07:32:15Z</time>
      </trkpt>
      <trkpt lat="49.18937" lon="6.92593">
        <ele>292</ele>
        <time>2011-09-25T07:32:17Z</time>
      </trkpt>
      <trkpt lat="49.18938" lon="6.92595">
        <ele>294</ele>
        <time>2011-09-25T07:32:21Z</time>
      </trkpt>
      <trkpt lat="49.18937" lon="6.92595">
        <ele>294</ele>
        <time>2011-09-25T07:32:23Z</time>
      </trkpt>
      <trkpt lat="49.18935" lon="6.92594">
        <ele>294</ele>
        <time>2011-09-25T07:32:25Z</time>
      </trkpt>
      <trkpt lat="49.18932" lon="6.92592">
        <ele>294</ele>
        <time>2011-09-25T07:32:27Z</time>
      </trkpt>
      <trkpt lat="49.1893" lon="6.92592">
        <ele>294</ele>
        <time>2011-09-25T07:32:28Z</time>
      </trkpt>
      <trkpt lat="49.18929" lon="6.92591">
        <ele>294</ele>
        <time>2011-09-25T07:32:29Z</time>
      </trkpt>
      <trkpt lat="49.18927" lon="6.9259">
        <ele>294</ele>
        <time>2011-09-25T07:32:31Z</time>
      </trkpt>
      <trkpt lat="49.18925" lon="6.92589">
        <ele>294</ele>
        <time>2011-09-25T07:32:33Z</time>
      </trkpt>
      <trkpt lat="49.18924" lon="6.92589">
        <ele>294</ele>
        <time>2011-09-25T07:32:35Z</time>
      </trkpt>
      <trkpt lat="49.18922" lon="6.92589">
        <ele>294</ele>
        <time>2011-09-25T07:32:36Z</time>
      </trkpt>
      <trkpt lat="49.18921" lon="6.92588">
        <ele>294</ele>
        <time>2011-09-25T07:32:37Z</time>
      </trkpt>
      <trkpt lat="49.1892" lon="6.92585">
        <ele>294</ele>
        <time>2011-09-25T07:32:39Z</time>
      </trkpt>
      <trkpt lat="49.18919" lon="6.92585">
        <ele>294</ele>
        <time>2011-09-25T07:32:40Z</time>
      </trkpt>
      <trkpt lat="49.18917" lon="6.92585">
        <ele>294</ele>
        <time>2011-09-25T07:32:43Z</time>
      </trkpt>
      <trkpt lat="49.18914" lon="6.92584">
        <ele>294</ele>
        <time>2011-09-25T07:32:45Z</time>
      </trkpt>
      <trkpt lat="49.18913" lon="6.92585">
        <ele>294</ele>
        <time>2011-09-25T07:32:46Z</time>
      </trkpt>
      <trkpt lat="49.18911" lon="6.92583">
        <ele>294</ele>
        <time>2011-09-25T07:32:48Z</time>
      </trkpt>
      <trkpt lat="49.1891" lon="6.92583">
        <ele>294</ele>
        <time>2011-09-25T07:32:50Z</time>
      </trkpt>
      <trkpt lat="49.18908" lon="6.92583">
        <ele>294</ele>
        <time>2011-09-25T07:32:52Z</time>
      </trkpt>
      <trkpt lat="49.18906" lon="6.92585">
        <ele>294</ele>
        <time>2011-09-25T07:32:54Z</time>
      </trkpt>
      <trkpt lat="49.18905" lon="6.92587">
        <ele>294</ele>
        <time>2011-09-25T07:32:56Z</time>
      </trkpt>
      <trkpt lat="49.18904" lon="6.92589">
        <ele>294</ele>
        <time>2011-09-25T07:32:59Z</time>
      </trkpt>
      <trkpt lat="49.18906" lon="6.9259">
        <ele>294</ele>
        <time>2011-09-25T07:33:01Z</time>
      </trkpt>
      <trkpt lat="49.18905" lon="6.92593">
        <ele>294</ele>
        <time>2011-09-25T07:33:03Z</time>
      </trkpt>
      <trkpt lat="49.18906" lon="6.92593">
        <ele>294</ele>
        <time>2011-09-25T07:33:04Z</time>
      </trkpt>
      <trkpt lat="49.18909" lon="6.92594">
        <ele>294</ele>
        <time>2011-09-25T07:33:05Z</time>
      </trkpt>
      <trkpt lat="49.1891" lon="6.92595">
        <ele>294</ele>
        <time>2011-09-25T07:33:07Z</time>
      </trkpt>
      <trkpt lat="49.18911" lon="6.92595">
        <ele>294</ele>
        <time>2011-09-25T07:33:08Z</time>
      </trkpt>
      <trkpt lat="49.18913" lon="6.92595">
        <ele>294</ele>
        <time>2011-09-25T07:33:09Z</time>
      </trkpt>
      <trkpt lat="49.18914" lon="6.92596">
        <ele>294</ele>
        <time>2011-09-25T07:33:10Z</time>
      </trkpt>
      <trkpt lat="49.18913" lon="6.92598">
        <ele>294</ele>
        <time>2011-09-25T07:33:12Z</time>
      </trkpt>
      <trkpt lat="49.18914" lon="6.92601">
        <ele>294</ele>
        <time>2011-09-25T07:33:15Z</time>
      </trkpt>
      <trkpt lat="49.18915" lon="6.92603">
        <ele>294</ele>
        <time>2011-09-25T07:33:17Z</time>
      </trkpt>
      <trkpt lat="49.18916" lon="6.92607">
        <ele>294</ele>
        <time>2011-09-25T07:33:19Z</time>
      </trkpt>
      <trkpt lat="49.18916" lon="6.92608">
        <ele>294</ele>
        <time>2011-09-25T07:33:20Z</time>
      </trkpt>
      <trkpt lat="49.18918" lon="6.9261">
        <ele>294</ele>
        <time>2011-09-25T07:33:21Z</time>
      </trkpt>
      <trkpt lat="49.1892" lon="6.92611">
        <ele>294</ele>
        <time>2011-09-25T07:33:22Z</time>
      </trkpt>
      <trkpt lat="49.18921" lon="6.92612">
        <ele>294</ele>
        <time>2011-09-25T07:33:23Z</time>
      </trkpt>
      <trkpt lat="49.18922" lon="6.92612">
        <ele>294</ele>
        <time>2011-09-25T07:33:24Z</time>
      </trkpt>
      <trkpt lat="49.18924" lon="6.92612">
        <ele>294</ele>
        <time>2011-09-25T07:33:25Z</time>
      </trkpt>
      <trkpt lat="49.18926" lon="6.92613">
        <ele>294</ele>
        <time>2011-09-25T07:33:26Z</time>
      </trkpt>
      <trkpt lat="49.18928" lon="6.92614">
        <ele>294</ele>
        <time>2011-09-25T07:33:28Z</time>
      </trkpt>
      <trkpt lat="49.18926" lon="6.92615">
        <ele>294</ele>
        <time>2011-09-25T07:33:29Z</time>
      </trkpt>
      <trkpt lat="49.18924" lon="6.92617">
        <ele>294</ele>
        <time>2011-09-25T07:33:30Z</time>
      </trkpt>
      <trkpt lat="49.18923" lon="6.92618">
        <ele>294</ele>
        <time>2011-09-25T07:33:31Z</time>
      </trkpt>
      <trkpt lat="49.18921" lon="6.92618">
        <ele>294</ele>
        <time>2011-09-25T07:33:32Z</time>
      </trkpt>
      <trkpt lat="49.18922" lon="6.9262">
        <ele>294</ele>
        <time>2011-09-25T07:33:35Z</time>
      </trkpt>
      <trkpt lat="49.18921" lon="6.92621">
        <ele>294</ele>
        <time>2011-09-25T07:33:36Z</time>
      </trkpt>
      <trkpt lat="49.1892" lon="6.92621">
        <ele>294</ele>
        <time>2011-09-25T07:33:37Z</time>
      </trkpt>
      <trkpt lat="49.18921" lon="6.92623">
        <ele>295</ele>
        <time>2011-09-25T07:33:40Z</time>
      </trkpt>
      <trkpt lat="49.18922" lon="6.92623">
        <ele>296</ele>
        <time>2011-09-25T07:33:41Z</time>
      </trkpt>
      <trkpt lat="49.18925" lon="6.92624">
        <ele>296</ele>
        <time>2011-09-25T07:33:42Z</time>
      </trkpt>
      <trkpt lat="49.18927" lon="6.92624">
        <ele>296</ele>
        <time>2011-09-25T07:33:43Z</time>
      </trkpt>
      <trkpt lat="49.1893" lon="6.92625">
        <ele>296</ele>
        <time>2011-09-25T07:33:44Z</time>
      </trkpt>
      <trkpt lat="49.1893" lon="6.92627">
        <ele>297</ele>
        <time>2011-09-25T07:33:45Z</time>
      </trkpt>
      <trkpt lat="49.18931" lon="6.92629">
        <ele>297</ele>
        <time>2011-09-25T07:33:46Z</time>
      </trkpt>
      <trkpt lat="49.18931" lon="6.92631">
        <ele>297</ele>
        <time>2011-09-25T07:33:48Z</time>
      </trkpt>
      <trkpt lat="49.18931" lon="6.92633">
        <ele>297</ele>
        <time>2011-09-25T07:33:49Z</time>
      </trkpt>
      <trkpt lat="49.18932" lon="6.92636">
        <ele>297</ele>
        <time>2011-09-25T07:33:51Z</time>
      </trkpt>
      <trkpt lat="49.18934" lon="6.92637">
        <ele>297</ele>
        <time>2011-09-25T07:33:52Z</time>
      </trkpt>
      <trkpt lat="49.18937" lon="6.92638">
        <ele>297</ele>
        <time>2011-09-25T07:33:53Z</time>
      </trkpt>
      <trkpt lat="49.18938" lon="6.9264">
        <ele>297</ele>
        <time>2011-09-25T07:33:54Z</time>
      </trkpt>
      <trkpt lat="49.1894" lon="6.92643">
        <ele>297</ele>
        <time>2011-09-25T07:33:56Z</time>
      </trkpt>
      <trkpt lat="49.18942" lon="6.92645">
        <ele>297</ele>
        <time>2011-09-25T07:33:57Z</time>
      </trkpt>
      <trkpt lat="49.18942" lon="6.92648">
        <ele>297</ele>
        <time>2011-09-25T07:33:59Z</time>
      </trkpt>
      <trkpt lat="49.18943" lon="6.9265">
        <ele>297</ele>
        <time>2011-09-25T07:34:01Z</time>
      </trkpt>
      <trkpt lat="49.18944" lon="6.92652">
        <ele>297</ele>
        <time>2011-09-25T07:34:02Z</time>
      </trkpt>
      <trkpt lat="49.18946" lon="6.92654">
        <ele>298</ele>
        <time>2011-09-25T07:34:04Z</time>
      </trkpt>
      <trkpt lat="49.1895" lon="6.92657">
        <ele>298</ele>
        <time>2011-09-25T07:34:06Z</time>
      </trkpt>
      <trkpt lat="49.18952" lon="6.92658">
        <ele>298</ele>
        <time>2011-09-25T07:34:07Z</time>
      </trkpt>
      <trkpt lat="49.18954" lon="6.92659">
        <ele>298</ele>
        <time>2011-09-25T07:34:08Z</time>
      </trkpt>
      <trkpt lat="49.18956" lon="6.92661">
        <ele>298</ele>
        <time>2011-09-25T07:34:09Z</time>
      </trkpt>
      <trkpt lat="49.18958" lon="6.92663">
        <ele>298</ele>
        <time>2011-09-25T07:34:10Z</time>
      </trkpt>
      <trkpt lat="49.18959" lon="6.92665">
        <ele>298</ele>
        <time>2011-09-25T07:34:11Z</time>
      </trkpt>
      <trkpt lat="49.1896" lon="6.92666">
        <ele>299</ele>
        <time>2011-09-25T07:34:13Z</time>
      </trkpt>
      <trkpt lat="49.18962" lon="6.92668">
        <ele>299</ele>
        <time>2011-09-25T07:34:14Z</time>
      </trkpt>
      <trkpt lat="49.18963" lon="6.92669">
        <ele>299</ele>
        <time>2011-09-25T07:34:15Z</time>
      </trkpt>
      <trkpt lat="49.18965" lon="6.92671">
        <ele>299</ele>
        <time>2011-09-25T07:34:16Z</time>
      </trkpt>
      <trkpt lat="49.18965" lon="6.92674">
        <ele>299</ele>
        <time>2011-09-25T07:34:17Z</time>
      </trkpt>
      <trkpt lat="49.18966" lon="6.92676">
        <ele>299</ele>
        <time>2011-09-25T07:34:18Z</time>
      </trkpt>
      <trkpt lat="49.18967" lon="6.92678">
        <ele>299</ele>
        <time>2011-09-25T07:34:19Z</time>
      </trkpt>
      <trkpt lat="49.18967" lon="6.92681">
        <ele>299</ele>
        <time>2011-09-25T07:34:21Z</time>
      </trkpt>
      <trkpt lat="49.18967" lon="6.92684">
        <ele>299</ele>
        <time>2011-09-25T07:34:22Z</time>
      </trkpt>
      <trkpt lat="49.18968" lon="6.92685">
        <ele>299</ele>
        <time>2011-09-25T07:34:23Z</time>
      </trkpt>
      <trkpt lat="49.18969" lon="6.92689">
        <ele>299</ele>
        <time>2011-09-25T07:34:25Z</time>
      </trkpt>
      <trkpt lat="49.18969" lon="6.92691">
        <ele>299</ele>
        <time>2011-09-25T07:34:26Z</time>
      </trkpt>
      <trkpt lat="49.18969" lon="6.92693">
        <ele>299</ele>
        <time>2011-09-25T07:34:27Z</time>
      </trkpt>
      <trkpt lat="49.1897" lon="6.92695">
        <ele>299</ele>
        <time>2011-09-25T07:34:28Z</time>
      </trkpt>
      <trkpt lat="49.18971" lon="6.92696">
        <ele>299</ele>
        <time>2011-09-25T07:34:29Z</time>
      </trkpt>
      <trkpt lat="49.1897" lon="6.92698">
        <ele>299</ele>
        <time>2011-09-25T07:34:30Z</time>
      </trkpt>
      <trkpt lat="49.1897" lon="6.927">
        <ele>299</ele>
        <time>2011-09-25T07:34:31Z</time>
      </trkpt>
      <trkpt lat="49.18972" lon="6.92702">
        <ele>299</ele>
        <time>2011-09-25T07:34:32Z</time>
      </trkpt>
      <trkpt lat="49.18975" lon="6.92703">
        <ele>299</ele>
        <time>2011-09-25T07:34:33Z</time>
      </trkpt>
      <trkpt lat="49.18976" lon="6.92704">
        <ele>298</ele>
        <time>2011-09-25T07:34:34Z</time>
      </trkpt>
      <trkpt lat="49.18978" lon="6.92706">
        <ele>298</ele>
        <time>2011-09-25T07:34:35Z</time>
      </trkpt>
      <trkpt lat="49.18979" lon="6.92707">
        <ele>298</ele>
        <time>2011-09-25T07:34:36Z</time>
      </trkpt>
      <trkpt lat="49.1898" lon="6.92711">
        <ele>297</ele>
        <time>2011-09-25T07:34:38Z</time>
      </trkpt>
      <trkpt lat="49.1898" lon="6.92713">
        <ele>296</ele>
        <time>2011-09-25T07:34:40Z</time>
      </trkpt>
      <trkpt lat="49.1898" lon="6.92715">
        <ele>296</ele>
        <time>2011-09-25T07:34:41Z</time>
      </trkpt>
      <trkpt lat="49.18981" lon="6.92717">
        <ele>296</ele>
        <time>2011-09-25T07:34:42Z</time>
      </trkpt>
      <trkpt lat="49.18982" lon="6.92718">
        <ele>296</ele>
        <time>2011-09-25T07:34:43Z</time>
      </trkpt>
      <trkpt lat="49.18983" lon="6.9272">
        <ele>296</ele>
        <time>2011-09-25T07:34:44Z</time>
      </trkpt>
      <trkpt lat="49.18984" lon="6.92722">
        <ele>296</ele>
        <time>2011-09-25T07:34:45Z</time>
      </trkpt>
      <trkpt lat="49.18983" lon="6.92724">
        <ele>296</ele>
        <time>2011-09-25T07:34:46Z</time>
      </trkpt>
      <trkpt lat="49.18982" lon="6.92725">
        <ele>296</ele>
        <time>2011-09-25T07:34:47Z</time>
      </trkpt>
      <trkpt lat="49.18983" lon="6.92728">
        <ele>296</ele>
        <time>2011-09-25T07:34:49Z</time>
      </trkpt>
      <trkpt lat="49.18985" lon="6.9273">
        <ele>295</ele>
        <time>2011-09-25T07:34:51Z</time>
      </trkpt>
      <trkpt lat="49.18986" lon="6.92732">
        <ele>294</ele>
        <time>2011-09-25T07:34:53Z</time>
      </trkpt>
      <trkpt lat="49.18987" lon="6.92735">
        <ele>293</ele>
        <time>2011-09-25T07:34:54Z</time>
      </trkpt>
      <trkpt lat="49.18988" lon="6.92736">
        <ele>292</ele>
        <time>2011-09-25T07:34:55Z</time>
      </trkpt>
      <trkpt lat="49.18988" lon="6.92738">
        <ele>292</ele>
        <time>2011-09-25T07:34:56Z</time>
      </trkpt>
      <trkpt lat="49.18989" lon="6.9274">
        <ele>292</ele>
        <time>2011-09-25T07:34:57Z</time>
      </trkpt>
      <trkpt lat="49.18989" lon="6.92742">
        <ele>292</ele>
        <time>2011-09-25T07:34:58Z</time>
      </trkpt>
      <trkpt lat="49.18989" lon="6.92744">
        <ele>292</ele>
        <time>2011-09-25T07:34:59Z</time>
      </trkpt>
      <trkpt lat="49.18989" lon="6.92747">
        <ele>292</ele>
        <time>2011-09-25T07:35:01Z</time>
      </trkpt>
      <trkpt lat="49.18988" lon="6.9275">
        <ele>292</ele>
        <time>2011-09-25T07:35:03Z</time>
      </trkpt>
      <trkpt lat="49.18991" lon="6.92752">
        <ele>292</ele>
        <time>2011-09-25T07:35:04Z</time>
      </trkpt>
      <trkpt lat="49.18993" lon="6.92754">
        <ele>292</ele>
        <time>2011-09-25T07:35:05Z</time>
      </trkpt>
      <trkpt lat="49.18995" lon="6.92756">
        <ele>292</ele>
        <time>2011-09-25T07:35:06Z</time>
      </trkpt>
      <trkpt lat="49.18996" lon="6.92758">
        <ele>292</ele>
        <time>2011-09-25T07:35:07Z</time>
      </trkpt>
      <trkpt lat="49.18997" lon="6.9276">
        <ele>292</ele>
        <time>2011-09-25T07:35:08Z</time>
      </trkpt>
      <trkpt lat="49.18996" lon="6.92762">
        <ele>292</ele>
        <time>2011-09-25T07:35:09Z</time>
      </trkpt>
      <trkpt lat="49.18996" lon="6.92764">
        <ele>292</ele>
        <time>2011-09-25T07:35:10Z</time>
      </trkpt>
      <trkpt lat="49.18995" lon="6.92765">
        <ele>292</ele>
        <time>2011-09-25T07:35:11Z</time>
      </trkpt>
      <trkpt lat="49.18994" lon="6.92768">
        <ele>292</ele>
        <time>2011-09-25T07:35:12Z</time>
      </trkpt>
      <trkpt lat="49.18995" lon="6.92769">
        <ele>291</ele>
        <time>2011-09-25T07:35:13Z</time>
      </trkpt>
      <trkpt lat="49.18996" lon="6.92771">
        <ele>291</ele>
        <time>2011-09-25T07:35:14Z</time>
      </trkpt>
      <trkpt lat="49.18995" lon="6.92774">
        <ele>290</ele>
        <time>2011-09-25T07:35:15Z</time>
      </trkpt>
      <trkpt lat="49.18995" lon="6.92776">
        <ele>290</ele>
        <time>2011-09-25T07:35:16Z</time>
      </trkpt>
      <trkpt lat="49.18995" lon="6.92778">
        <ele>290</ele>
        <time>2011-09-25T07:35:17Z</time>
      </trkpt>
      <trkpt lat="49.18995" lon="6.9278">
        <ele>289</ele>
        <time>2011-09-25T07:35:18Z</time>
      </trkpt>
      <trkpt lat="49.18996" lon="6.92783">
        <ele>289</ele>
        <time>2011-09-25T07:35:19Z</time>
      </trkpt>
      <trkpt lat="49.18996" lon="6.92785">
        <ele>289</ele>
        <time>2011-09-25T07:35:20Z</time>
      </trkpt>
      <trkpt lat="49.18996" lon="6.92787">
        <ele>289</ele>
        <time>2011-09-25T07:35:21Z</time>
      </trkpt>
      <trkpt lat="49.18996" lon="6.92789">
        <ele>289</ele>
        <time>2011-09-25T07:35:22Z</time>
      </trkpt>
      <trkpt lat="49.18996" lon="6.92792">
        <ele>288</ele>
        <time>2011-09-25T07:35:24Z</time>
      </trkpt>
      <trkpt lat="49.18996" lon="6.92794">
        <ele>287</ele>
        <time>2011-09-25T07:35:25Z</time>
      </trkpt>
      <trkpt lat="49.18996" lon="6.92795">
        <ele>286</ele>
        <time>2011-09-25T07:35:26Z</time>
      </trkpt>
      <trkpt lat="49.18997" lon="6.92798">
        <ele>286</ele>
        <time>2011-09-25T07:35:27Z</time>
      </trkpt>
      <trkpt lat="49.18998" lon="6.928">
        <ele>285</ele>
        <time>2011-09-25T07:35:28Z</time>
      </trkpt>
      <trkpt lat="49.18998" lon="6.92802">
        <ele>285</ele>
        <time>2011-09-25T07:35:29Z</time>
      </trkpt>
      <trkpt lat="49.18999" lon="6.92804">
        <ele>285</ele>
        <time>2011-09-25T07:35:30Z</time>
      </trkpt>
      <trkpt lat="49.19" lon="6.92806">
        <ele>285</ele>
        <time>2011-09-25T07:35:31Z</time>
      </trkpt>
      <trkpt lat="49.19001" lon="6.92809">
        <ele>285</ele>
        <time>2011-09-25T07:35:32Z</time>
      </trkpt>
      <trkpt lat="49.19002" lon="6.9281">
        <ele>285</ele>
        <time>2011-09-25T07:35:33Z</time>
      </trkpt>
      <trkpt lat="49.19004" lon="6.92813">
        <ele>285</ele>
        <time>2011-09-25T07:35:35Z</time>
      </trkpt>
      <trkpt lat="49.19005" lon="6.92817">
        <ele>285</ele>
        <time>2011-09-25T07:35:37Z</time>
      </trkpt>
      <trkpt lat="49.19005" lon="6.92819">
        <ele>285</ele>
        <time>2011-09-25T07:35:38Z</time>
      </trkpt>
      <trkpt lat="49.19006" lon="6.92821">
        <ele>285</ele>
        <time>2011-09-25T07:35:39Z</time>
      </trkpt>
      <trkpt lat="49.19006" lon="6.92823">
        <ele>285</ele>
        <time>2011-09-25T07:35:40Z</time>
      </trkpt>
      <trkpt lat="49.19006" lon="6.92825">
        <ele>285</ele>
        <time>2011-09-25T07:35:41Z</time>
      </trkpt>
      <trkpt lat="49.19007" lon="6.92829">
        <ele>285</ele>
        <time>2011-09-25T07:35:43Z</time>
      </trkpt>
      <trkpt lat="49.19007" lon="6.92831">
        <ele>285</ele>
        <time>2011-09-25T07:35:44Z</time>
      </trkpt>
      <trkpt lat="49.19007" lon="6.92833">
        <ele>285</ele>
        <time>2011-09-25T07:35:45Z</time>
      </trkpt>
      <trkpt lat="49.19006" lon="6.92836">
        <ele>285</ele>
        <time>2011-09-25T07:35:46Z</time>
      </trkpt>
      <trkpt lat="49.19007" lon="6.92838">
        <ele>285</ele>
        <time>2011-09-25T07:35:47Z</time>
      </trkpt>
      <trkpt lat="49.19007" lon="6.92839">
        <ele>285</ele>
        <time>2011-09-25T07:35:48Z</time>
      </trkpt>
      <trkpt lat="49.19007" lon="6.92843">
        <ele>285</ele>
        <time>2011-09-25T07:35:50Z</time>
      </trkpt>
      <trkpt lat="49.19008" lon="6.92845">
        <ele>285</ele>
        <time>2011-09-25T07:35:51Z</time>
      </trkpt>
      <trkpt lat="49.19008" lon="6.92848">
        <ele>285</ele>
        <time>2011-09-25T07:35:53Z</time>
      </trkpt>
      <trkpt lat="49.19009" lon="6.9285">
        <ele>285</ele>
        <time>2011-09-25T07:35:54Z</time>
      </trkpt>
      <trkpt lat="49.19008" lon="6.92852">
        <ele>285</ele>
        <time>2011-09-25T07:35:55Z</time>
      </trkpt>
      <trkpt lat="49.19007" lon="6.92854">
        <ele>285</ele>
        <time>2011-09-25T07:35:56Z</time>
      </trkpt>
      <trkpt lat="49.19005" lon="6.92857">
        <ele>285</ele>
        <time>2011-09-25T07:35:57Z</time>
      </trkpt>
      <trkpt lat="49.19004" lon="6.92859">
        <ele>285</ele>
        <time>2011-09-25T07:35:58Z</time>
      </trkpt>
      <trkpt lat="49.19005" lon="6.92865">
        <ele>286</ele>
        <time>2011-09-25T07:36:01Z</time>
      </trkpt>
      <trkpt lat="49.19007" lon="6.92866">
        <ele>286</ele>
        <time>2011-09-25T07:36:02Z</time>
      </trkpt>
      <trkpt lat="49.19006" lon="6.9287">
        <ele>288</ele>
        <time>2011-09-25T07:36:04Z</time>
      </trkpt>
      <trkpt lat="49.19006" lon="6.92873">
        <ele>288</ele>
        <time>2011-09-25T07:36:05Z</time>
      </trkpt>
      <trkpt lat="49.19007" lon="6.92876">
        <ele>288</ele>
        <time>2011-09-25T07:36:06Z</time>
      </trkpt>
      <trkpt lat="49.19009" lon="6.92879">
        <ele>289</ele>
        <time>2011-09-25T07:36:07Z</time>
      </trkpt>
      <trkpt lat="49.19009" lon="6.92881">
        <ele>289</ele>
        <time>2011-09-25T07:36:08Z</time>
      </trkpt>
      <trkpt lat="49.19007" lon="6.92883">
        <ele>290</ele>
        <time>2011-09-25T07:36:09Z</time>
      </trkpt>
      <trkpt lat="49.19005" lon="6.92884">
        <ele>290</ele>
        <time>2011-09-25T07:36:11Z</time>
      </trkpt>
      <trkpt lat="49.19004" lon="6.92886">
        <ele>290</ele>
        <time>2011-09-25T07:36:12Z</time>
      </trkpt>
      <trkpt lat="49.19004" lon="6.92887">
        <ele>290</ele>
        <time>2011-09-25T07:36:13Z</time>
      </trkpt>
      <trkpt lat="49.19004" lon="6.92891">
        <ele>290</ele>
        <time>2011-09-25T07:36:15Z</time>
      </trkpt>
      <trkpt lat="49.19004" lon="6.92893">
        <ele>290</ele>
        <time>2011-09-25T07:36:16Z</time>
      </trkpt>
      <trkpt lat="49.19006" lon="6.92894">
        <ele>290</ele>
        <time>2011-09-25T07:36:17Z</time>
      </trkpt>
      <trkpt lat="49.19008" lon="6.92896">
        <ele>290</ele>
        <time>2011-09-25T07:36:19Z</time>
      </trkpt>
      <trkpt lat="49.1901" lon="6.92897">
        <ele>290</ele>
        <time>2011-09-25T07:36:20Z</time>
      </trkpt>
      <trkpt lat="49.19011" lon="6.92899">
        <ele>290</ele>
        <time>2011-09-25T07:36:21Z</time>
      </trkpt>
      <trkpt lat="49.19012" lon="6.92901">
        <ele>290</ele>
        <time>2011-09-25T07:36:22Z</time>
      </trkpt>
      <trkpt lat="49.19013" lon="6.92902">
        <ele>290</ele>
        <time>2011-09-25T07:36:23Z</time>
      </trkpt>
      <trkpt lat="49.19015" lon="6.92904">
        <ele>290</ele>
        <time>2011-09-25T07:36:25Z</time>
      </trkpt>
      <trkpt lat="49.19016" lon="6.92905">
        <ele>290</ele>
        <time>2011-09-25T07:36:26Z</time>
      </trkpt>
      <trkpt lat="49.19018" lon="6.92906">
        <ele>290</ele>
        <time>2011-09-25T07:36:27Z</time>
      </trkpt>
      <trkpt lat="49.19019" lon="6.92908">
        <ele>290</ele>
        <time>2011-09-25T07:36:29Z</time>
      </trkpt>
      <trkpt lat="49.19019" lon="6.9291">
        <ele>290</ele>
        <time>2011-09-25T07:36:30Z</time>
      </trkpt>
      <trkpt lat="49.1902" lon="6.92912">
        <ele>290</ele>
        <time>2011-09-25T07:36:31Z</time>
      </trkpt>
      <trkpt lat="49.1902" lon="6.92914">
        <ele>290</ele>
        <time>2011-09-25T07:36:32Z</time>
      </trkpt>
      <trkpt lat="49.19021" lon="6.92916">
        <ele>290</ele>
        <time>2011-09-25T07:36:33Z</time>
      </trkpt>
      <trkpt lat="49.19021" lon="6.92918">
        <ele>290</ele>
        <time>2011-09-25T07:36:34Z</time>
      </trkpt>
      <trkpt lat="49.19022" lon="6.92921">
        <ele>290</ele>
        <time>2011-09-25T07:36:36Z</time>
      </trkpt>
      <trkpt lat="49.19021" lon="6.92923">
        <ele>290</ele>
        <time>2011-09-25T07:36:38Z</time>
      </trkpt>
      <trkpt lat="49.19021" lon="6.92925">
        <ele>290</ele>
        <time>2011-09-25T07:36:39Z</time>
      </trkpt>
      <trkpt lat="49.19022" lon="6.92927">
        <ele>290</ele>
        <time>2011-09-25T07:36:40Z</time>
      </trkpt>
      <trkpt lat="49.19023" lon="6.92929">
        <ele>290</ele>
        <time>2011-09-25T07:36:41Z</time>
      </trkpt>
      <trkpt lat="49.19024" lon="6.92931">
        <ele>290</ele>
        <time>2011-09-25T07:36:42Z</time>
      </trkpt>
      <trkpt lat="49.19025" lon="6.92934">
        <ele>290</ele>
        <time>2011-09-25T07:36:44Z</time>
      </trkpt>
      <trkpt lat="49.19026" lon="6.92937">
        <ele>290</ele>
        <time>2011-09-25T07:36:46Z</time>
      </trkpt>
      <trkpt lat="49.19026" lon="6.92939">
        <ele>290</ele>
        <time>2011-09-25T07:36:47Z</time>
      </trkpt>
      <trkpt lat="49.19025" lon="6.92942">
        <ele>290</ele>
        <time>2011-09-25T07:36:49Z</time>
      </trkpt>
      <trkpt lat="49.19025" lon="6.92944">
        <ele>290</ele>
        <time>2011-09-25T07:36:51Z</time>
      </trkpt>
      <trkpt lat="49.19024" lon="6.92945">
        <ele>290</ele>
        <time>2011-09-25T07:36:52Z</time>
      </trkpt>
      <trkpt lat="49.19024" lon="6.92947">
        <ele>290</ele>
        <time>2011-09-25T07:36:53Z</time>
      </trkpt>
      <trkpt lat="49.19024" lon="6.92949">
        <ele>290</ele>
        <time>2011-09-25T07:36:54Z</time>
      </trkpt>
      <trkpt lat="49.19025" lon="6.92951">
        <ele>290</ele>
        <time>2011-09-25T07:36:55Z</time>
      </trkpt>
      <trkpt lat="49.19025" lon="6.92953">
        <ele>290</ele>
        <time>2011-09-25T07:36:56Z</time>
      </trkpt>
      <trkpt lat="49.19025" lon="6.92955">
        <ele>290</ele>
        <time>2011-09-25T07:36:57Z</time>
      </trkpt>
      <trkpt lat="49.19026" lon="6.92958">
        <ele>290</ele>
        <time>2011-09-25T07:36:59Z</time>
      </trkpt>
      <trkpt lat="49.19027" lon="6.92959">
        <ele>290</ele>
        <time>2011-09-25T07:37:00Z</time>
      </trkpt>
      <trkpt lat="49.19027" lon="6.92961">
        <ele>290</ele>
        <time>2011-09-25T07:37:01Z</time>
      </trkpt>
      <trkpt lat="49.19028" lon="6.92964">
        <ele>290</ele>
        <time>2011-09-25T07:37:02Z</time>
      </trkpt>
      <trkpt lat="49.19029" lon="6.92966">
        <ele>290</ele>
        <time>2011-09-25T07:37:03Z</time>
      </trkpt>
      <trkpt lat="49.1903" lon="6.92967">
        <ele>290</ele>
        <time>2011-09-25T07:37:04Z</time>
      </trkpt>
      <trkpt lat="49.19031" lon="6.92971">
        <ele>290</ele>
        <time>2011-09-25T07:37:06Z</time>
      </trkpt>
      <trkpt lat="49.19032" lon="6.92972">
        <ele>290</ele>
        <time>2011-09-25T07:37:07Z</time>
      </trkpt>
      <trkpt lat="49.19032" lon="6.92974">
        <ele>290</ele>
        <time>2011-09-25T07:37:08Z</time>
      </trkpt>
      <trkpt lat="49.19033" lon="6.92976">
        <ele>290</ele>
        <time>2011-09-25T07:37:09Z</time>
      </trkpt>
      <trkpt lat="49.19033" lon="6.92978">
        <ele>290</ele>
        <time>2011-09-25T07:37:10Z</time>
      </trkpt>
      <trkpt lat="49.19032" lon="6.92979">
        <ele>290</ele>
        <time>2011-09-25T07:37:11Z</time>
      </trkpt>
      <trkpt lat="49.19031" lon="6.92982">
        <ele>289</ele>
        <time>2011-09-25T07:37:13Z</time>
      </trkpt>
      <trkpt lat="49.19031" lon="6.92985">
        <ele>288</ele>
        <time>2011-09-25T07:37:15Z</time>
      </trkpt>
      <trkpt lat="49.19031" lon="6.92987">
        <ele>287</ele>
        <time>2011-09-25T07:37:16Z</time>
      </trkpt>
      <trkpt lat="49.19031" lon="6.92989">
        <ele>287</ele>
        <time>2011-09-25T07:37:17Z</time>
      </trkpt>
      <trkpt lat="49.19032" lon="6.92991">
        <ele>287</ele>
        <time>2011-09-25T07:37:18Z</time>
      </trkpt>
      <trkpt lat="49.19033" lon="6.92993">
        <ele>286</ele>
        <time>2011-09-25T07:37:19Z</time>
      </trkpt>
      <trkpt lat="49.19032" lon="6.92995">
        <ele>286</ele>
        <time>2011-09-25T07:37:20Z</time>
      </trkpt>
      <trkpt lat="49.19032" lon="6.92997">
        <ele>286</ele>
        <time>2011-09-25T07:37:21Z</time>
      </trkpt>
      <trkpt lat="49.1903" lon="6.93">
        <ele>285</ele>
        <time>2011-09-25T07:37:23Z</time>
      </trkpt>
      <trkpt lat="49.19029" lon="6.93002">
        <ele>285</ele>
        <time>2011-09-25T07:37:24Z</time>
      </trkpt>
      <trkpt lat="49.19029" lon="6.93004">
        <ele>284</ele>
        <time>2011-09-25T07:37:25Z</time>
      </trkpt>
      <trkpt lat="49.19029" lon="6.93007">
        <ele>284</ele>
        <time>2011-09-25T07:37:26Z</time>
      </trkpt>
      <trkpt lat="49.19028" lon="6.93012">
        <ele>283</ele>
        <time>2011-09-25T07:37:28Z</time>
      </trkpt>
      <trkpt lat="49.19028" lon="6.93015">
        <ele>283</ele>
        <time>2011-09-25T07:37:29Z</time>
      </trkpt>
      <trkpt lat="49.19029" lon="6.93018">
        <ele>283</ele>
        <time>2011-09-25T07:37:30Z</time>
      </trkpt>
      <trkpt lat="49.19029" lon="6.9302">
        <ele>283</ele>
        <time>2011-09-25T07:37:31Z</time>
      </trkpt>
      <trkpt lat="49.19029" lon="6.93022">
        <ele>283</ele>
        <time>2011-09-25T07:37:32Z</time>
      </trkpt>
      <trkpt lat="49.19027" lon="6.93024">
        <ele>283</ele>
        <time>2011-09-25T07:37:34Z</time>
      </trkpt>
      <trkpt lat="49.19026" lon="6.93027">
        <ele>283</ele>
        <time>2011-09-25T07:37:36Z</time>
      </trkpt>
      <trkpt lat="49.19024" lon="6.93028">
        <ele>283</ele>
        <time>2011-09-25T07:37:37Z</time>
      </trkpt>
      <trkpt lat="49.19023" lon="6.93031">
        <ele>283</ele>
        <time>2011-09-25T07:37:39Z</time>
      </trkpt>
      <trkpt lat="49.19022" lon="6.93033">
        <ele>283</ele>
        <time>2011-09-25T07:37:40Z</time>
      </trkpt>
      <trkpt lat="49.19022" lon="6.93034">
        <ele>283</ele>
        <time>2011-09-25T07:37:41Z</time>
      </trkpt>
      <trkpt lat="49.19021" lon="6.93037">
        <ele>283</ele>
        <time>2011-09-25T07:37:43Z</time>
      </trkpt>
      <trkpt lat="49.19021" lon="6.93039">
        <ele>283</ele>
        <time>2011-09-25T07:37:44Z</time>
      </trkpt>
      <trkpt lat="49.19019" lon="6.93042">
        <ele>283</ele>
        <time>2011-09-25T07:37:46Z</time>
      </trkpt>
      <trkpt lat="49.19017" lon="6.93043">
        <ele>283</ele>
        <time>2011-09-25T07:37:47Z</time>
      </trkpt>
      <trkpt lat="49.19016" lon="6.93045">
        <ele>283</ele>
        <time>2011-09-25T07:37:48Z</time>
      </trkpt>
      <trkpt lat="49.19016" lon="6.93047">
        <ele>283</ele>
        <time>2011-09-25T07:37:49Z</time>
      </trkpt>
      <trkpt lat="49.19017" lon="6.93049">
        <ele>284</ele>
        <time>2011-09-25T07:37:50Z</time>
      </trkpt>
      <trkpt lat="49.19017" lon="6.93051">
        <ele>284</ele>
        <time>2011-09-25T07:37:51Z</time>
      </trkpt>
      <trkpt lat="49.19017" lon="6.93053">
        <ele>284</ele>
        <time>2011-09-25T07:37:53Z</time>
      </trkpt>
      <trkpt lat="49.19016" lon="6.93057">
        <ele>284</ele>
        <time>2011-09-25T07:37:55Z</time>
      </trkpt>
      <trkpt lat="49.19015" lon="6.9306">
        <ele>284</ele>
        <time>2011-09-25T07:37:57Z</time>
      </trkpt>
      <trkpt lat="49.19015" lon="6.93062">
        <ele>284</ele>
        <time>2011-09-25T07:37:58Z</time>
      </trkpt>
      <trkpt lat="49.19014" lon="6.93064">
        <ele>284</ele>
        <time>2011-09-25T07:37:59Z</time>
      </trkpt>
      <trkpt lat="49.19014" lon="6.93066">
        <ele>284</ele>
        <time>2011-09-25T07:38:01Z</time>
      </trkpt>
      <trkpt lat="49.19014" lon="6.93068">
        <ele>284</ele>
        <time>2011-09-25T07:38:02Z</time>
      </trkpt>
      <trkpt lat="49.19012" lon="6.93071">
        <ele>285</ele>
        <time>2011-09-25T07:38:04Z</time>
      </trkpt>
      <trkpt lat="49.19014" lon="6.93073">
        <ele>285</ele>
        <time>2011-09-25T07:38:06Z</time>
      </trkpt>
      <trkpt lat="49.19014" lon="6.93075">
        <ele>285</ele>
        <time>2011-09-25T07:38:07Z</time>
      </trkpt>
      <trkpt lat="49.19015" lon="6.93077">
        <ele>285</ele>
        <time>2011-09-25T07:38:08Z</time>
      </trkpt>
      <trkpt lat="49.19016" lon="6.9308">
        <ele>285</ele>
        <time>2011-09-25T07:38:10Z</time>
      </trkpt>
      <trkpt lat="49.19017" lon="6.93082">
        <ele>285</ele>
        <time>2011-09-25T07:38:11Z</time>
      </trkpt>
      <trkpt lat="49.19018" lon="6.93084">
        <ele>285</ele>
        <time>2011-09-25T07:38:12Z</time>
      </trkpt>
      <trkpt lat="49.1902" lon="6.93086">
        <ele>285</ele>
        <time>2011-09-25T07:38:13Z</time>
      </trkpt>
      <trkpt lat="49.19021" lon="6.93089">
        <ele>285</ele>
        <time>2011-09-25T07:38:14Z</time>
      </trkpt>
      <trkpt lat="49.19021" lon="6.93092">
        <ele>285</ele>
        <time>2011-09-25T07:38:15Z</time>
      </trkpt>
      <trkpt lat="49.19021" lon="6.93094">
        <ele>285</ele>
        <time>2011-09-25T07:38:16Z</time>
      </trkpt>
      <trkpt lat="49.1902" lon="6.93096">
        <ele>285</ele>
        <time>2011-09-25T07:38:18Z</time>
      </trkpt>
      <trkpt lat="49.1902" lon="6.93099">
        <ele>285</ele>
        <time>2011-09-25T07:38:20Z</time>
      </trkpt>
      <trkpt lat="49.19019" lon="6.93101">
        <ele>285</ele>
        <time>2011-09-25T07:38:23Z</time>
      </trkpt>
      <trkpt lat="49.1902" lon="6.93103">
        <ele>285</ele>
        <time>2011-09-25T07:38:25Z</time>
      </trkpt>
      <trkpt lat="49.1902" lon="6.93106">
        <ele>286</ele>
        <time>2011-09-25T07:38:26Z</time>
      </trkpt>
      <trkpt lat="49.1902" lon="6.9311">
        <ele>287</ele>
        <time>2011-09-25T07:38:27Z</time>
      </trkpt>
      <trkpt lat="49.19021" lon="6.93113">
        <ele>288</ele>
        <time>2011-09-25T07:38:28Z</time>
      </trkpt>
      <trkpt lat="49.19022" lon="6.93115">
        <ele>289</ele>
        <time>2011-09-25T07:38:29Z</time>
      </trkpt>
      <trkpt lat="49.19024" lon="6.93117">
        <ele>290</ele>
        <time>2011-09-25T07:38:30Z</time>
      </trkpt>
      <trkpt lat="49.19023" lon="6.93119">
        <ele>291</ele>
        <time>2011-09-25T07:38:31Z</time>
      </trkpt>
      <trkpt lat="49.19023" lon="6.93121">
        <ele>292</ele>
        <time>2011-09-25T07:38:32Z</time>
      </trkpt>
      <trkpt lat="49.19023" lon="6.93123">
        <ele>294</ele>
        <time>2011-09-25T07:38:34Z</time>
      </trkpt>
      <trkpt lat="49.19025" lon="6.93124">
        <ele>296</ele>
        <time>2011-09-25T07:38:36Z</time>
      </trkpt>
      <trkpt lat="49.19027" lon="6.93125">
        <ele>297</ele>
        <time>2011-09-25T07:38:37Z</time>
      </trkpt>
      <trkpt lat="49.19028" lon="6.93127">
        <ele>298</ele>
        <time>2011-09-25T07:38:38Z</time>
      </trkpt>
      <trkpt lat="49.1903" lon="6.9313">
        <ele>298</ele>
        <time>2011-09-25T07:38:40Z</time>
      </trkpt>
      <trkpt lat="49.19031" lon="6.93131">
        <ele>298</ele>
        <time>2011-09-25T07:38:41Z</time>
      </trkpt>
      <trkpt lat="49.19032" lon="6.93133">
        <ele>298</ele>
        <time>2011-09-25T07:38:42Z</time>
      </trkpt>
      <trkpt lat="49.19033" lon="6.93134">
        <ele>298</ele>
        <time>2011-09-25T07:38:43Z</time>
      </trkpt>
      <trkpt lat="49.19033" lon="6.93138">
        <ele>298</ele>
        <time>2011-09-25T07:38:45Z</time>
      </trkpt>
      <trkpt lat="49.19035" lon="6.9314">
        <ele>298</ele>
        <time>2011-09-25T07:38:46Z</time>
      </trkpt>
      <trkpt lat="49.19036" lon="6.93142">
        <ele>298</ele>
        <time>2011-09-25T07:38:47Z</time>
      </trkpt>
      <trkpt lat="49.19039" lon="6.93143">
        <ele>298</ele>
        <time>2011-09-25T07:38:48Z</time>
      </trkpt>
      <trkpt lat="49.19041" lon="6.93144">
        <ele>298</ele>
        <time>2011-09-25T07:38:49Z</time>
      </trkpt>
      <trkpt lat="49.19041" lon="6.93146">
        <ele>298</ele>
        <time>2011-09-25T07:38:50Z</time>
      </trkpt>
      <trkpt lat="49.19043" lon="6.93146">
        <ele>298</ele>
        <time>2011-09-25T07:38:51Z</time>
      </trkpt>
      <trkpt lat="49.19044" lon="6.93147">
        <ele>298</ele>
        <time>2011-09-25T07:38:52Z</time>
      </trkpt>
      <trkpt lat="49.19046" lon="6.93147">
        <ele>298</ele>
        <time>2011-09-25T07:38:53Z</time>
      </trkpt>
      <trkpt lat="49.19048" lon="6.93148">
        <ele>298</ele>
        <time>2011-09-25T07:38:54Z</time>
      </trkpt>
      <trkpt lat="49.19049" lon="6.9315">
        <ele>298</ele>
        <time>2011-09-25T07:38:56Z</time>
      </trkpt>
      <trkpt lat="49.1905" lon="6.93152">
        <ele>298</ele>
        <time>2011-09-25T07:38:57Z</time>
      </trkpt>
      <trkpt lat="49.19051" lon="6.93154">
        <ele>298</ele>
        <time>2011-09-25T07:38:58Z</time>
      </trkpt>
      <trkpt lat="49.19051" lon="6.93156">
        <ele>298</ele>
        <time>2011-09-25T07:38:59Z</time>
      </trkpt>
      <trkpt lat="49.19051" lon="6.93159">
        <ele>298</ele>
        <time>2011-09-25T07:39:01Z</time>
      </trkpt>
      <trkpt lat="49.19051" lon="6.93161">
        <ele>298</ele>
        <time>2011-09-25T07:39:02Z</time>
      </trkpt>
      <trkpt lat="49.19054" lon="6.93162">
        <ele>298</ele>
        <time>2011-09-25T07:39:03Z</time>
      </trkpt>
      <trkpt lat="49.19053" lon="6.93163">
        <ele>298</ele>
        <time>2011-09-25T07:39:05Z</time>
      </trkpt>
      <trkpt lat="49.19055" lon="6.93164">
        <ele>298</ele>
        <time>2011-09-25T07:39:06Z</time>
      </trkpt>
      <trkpt lat="49.19056" lon="6.93165">
        <ele>298</ele>
        <time>2011-09-25T07:39:07Z</time>
      </trkpt>
      <trkpt lat="49.19056" lon="6.93167">
        <ele>298</ele>
        <time>2011-09-25T07:39:08Z</time>
      </trkpt>
      <trkpt lat="49.19057" lon="6.93168">
        <ele>298</ele>
        <time>2011-09-25T07:39:09Z</time>
      </trkpt>
      <trkpt lat="49.1906" lon="6.93169">
        <ele>298</ele>
        <time>2011-09-25T07:39:10Z</time>
      </trkpt>
      <trkpt lat="49.19063" lon="6.9317">
        <ele>298</ele>
        <time>2011-09-25T07:39:11Z</time>
      </trkpt>
      <trkpt lat="49.19064" lon="6.93172">
        <ele>298</ele>
        <time>2011-09-25T07:39:12Z</time>
      </trkpt>
      <trkpt lat="49.19067" lon="6.93173">
        <ele>298</ele>
        <time>2011-09-25T07:39:14Z</time>
      </trkpt>
      <trkpt lat="49.19069" lon="6.93175">
        <ele>298</ele>
        <time>2011-09-25T07:39:16Z</time>
      </trkpt>
      <trkpt lat="49.1907" lon="6.93178">
        <ele>298</ele>
        <time>2011-09-25T07:39:18Z</time>
      </trkpt>
      <trkpt lat="49.19071" lon="6.93179">
        <ele>298</ele>
        <time>2011-09-25T07:39:19Z</time>
      </trkpt>
      <trkpt lat="49.19071" lon="6.93182">
        <ele>298</ele>
        <time>2011-09-25T07:39:22Z</time>
      </trkpt>
      <trkpt lat="49.19072" lon="6.93184">
        <ele>298</ele>
        <time>2011-09-25T07:39:24Z</time>
      </trkpt>
      <trkpt lat="49.19075" lon="6.93186">
        <ele>298</ele>
        <time>2011-09-25T07:39:26Z</time>
      </trkpt>
      <trkpt lat="49.19077" lon="6.93186">
        <ele>297</ele>
        <time>2011-09-25T07:39:27Z</time>
      </trkpt>
      <trkpt lat="49.19078" lon="6.93189">
        <ele>296</ele>
        <time>2011-09-25T07:39:29Z</time>
      </trkpt>
      <trkpt lat="49.19078" lon="6.93192">
        <ele>294</ele>
        <time>2011-09-25T07:39:31Z</time>
      </trkpt>
      <trkpt lat="49.19078" lon="6.93194">
        <ele>293</ele>
        <time>2011-09-25T07:39:33Z</time>
      </trkpt>
      <trkpt lat="49.1908" lon="6.93195">
        <ele>292</ele>
        <time>2011-09-25T07:39:35Z</time>
      </trkpt>
      <trkpt lat="49.19082" lon="6.93196">
        <ele>292</ele>
        <time>2011-09-25T07:39:36Z</time>
      </trkpt>
      <trkpt lat="49.19085" lon="6.93198">
        <ele>292</ele>
        <time>2011-09-25T07:39:38Z</time>
      </trkpt>
      <trkpt lat="49.19087" lon="6.93198">
        <ele>292</ele>
        <time>2011-09-25T07:39:42Z</time>
      </trkpt>
      <trkpt lat="49.1909" lon="6.93198">
        <ele>292</ele>
        <time>2011-09-25T07:39:43Z</time>
      </trkpt>
      <trkpt lat="49.19095" lon="6.93197">
        <ele>292</ele>
        <time>2011-09-25T07:39:44Z</time>
      </trkpt>
      <trkpt lat="49.19094" lon="6.93199">
        <ele>292</ele>
        <time>2011-09-25T07:39:46Z</time>
      </trkpt>
      <trkpt lat="49.19099" lon="6.93199">
        <ele>292</ele>
        <time>2011-09-25T07:39:47Z</time>
      </trkpt>
      <trkpt lat="49.19098" lon="6.93201">
        <ele>291</ele>
        <time>2011-09-25T07:39:50Z</time>
      </trkpt>
      <trkpt lat="49.19096" lon="6.93201">
        <ele>290</ele>
        <time>2011-09-25T07:39:51Z</time>
      </trkpt>
      <trkpt lat="49.19094" lon="6.93201">
        <ele>290</ele>
        <time>2011-09-25T07:39:52Z</time>
      </trkpt>
      <trkpt lat="49.19093" lon="6.93204">
        <ele>290</ele>
        <time>2011-09-25T07:39:55Z</time>
      </trkpt>
      <trkpt lat="49.19091" lon="6.93205">
        <ele>290</ele>
        <time>2011-09-25T07:39:59Z</time>
      </trkpt>
      <trkpt lat="49.19089" lon="6.93206">
        <ele>290</ele>
        <time>2011-09-25T07:40:03Z</time>
      </trkpt>
      <trkpt lat="49.19088" lon="6.93209">
        <ele>290</ele>
        <time>2011-09-25T07:40:05Z</time>
      </trkpt>
      <trkpt lat="49.1909" lon="6.93208">
        <ele>290</ele>
        <time>2011-09-25T07:40:08Z</time>
      </trkpt>
      <trkpt lat="49.19091" lon="6.93208">
        <ele>290</ele>
        <time>2011-09-25T07:40:09Z</time>
      </trkpt>
      <trkpt lat="49.19093" lon="6.9321">
        <ele>290</ele>
        <time>2011-09-25T07:40:11Z</time>
      </trkpt>
      <trkpt lat="49.19091" lon="6.93211">
        <ele>290</ele>
        <time>2011-09-25T07:40:12Z</time>
      </trkpt>
      <trkpt lat="49.19088" lon="6.93211">
        <ele>289</ele>
        <time>2011-09-25T07:40:13Z</time>
      </trkpt>
      <trkpt lat="49.19087" lon="6.93212">
        <ele>288</ele>
        <time>2011-09-25T07:40:14Z</time>
      </trkpt>
      <trkpt lat="49.19086" lon="6.93214">
        <ele>283</ele>
        <time>2011-09-25T07:40:19Z</time>
      </trkpt>
      <trkpt lat="49.19088" lon="6.93216">
        <ele>283</ele>
        <time>2011-09-25T07:40:21Z</time>
      </trkpt>
      <trkpt lat="49.19089" lon="6.93218">
        <ele>283</ele>
        <time>2011-09-25T07:40:22Z</time>
      </trkpt>
      <trkpt lat="49.1909" lon="6.93219">
        <ele>283</ele>
        <time>2011-09-25T07:40:23Z</time>
      </trkpt>
      <trkpt lat="49.19091" lon="6.93221">
        <ele>283</ele>
        <time>2011-09-25T07:40:24Z</time>
      </trkpt>
      <trkpt lat="49.19093" lon="6.93224">
        <ele>283</ele>
        <time>2011-09-25T07:40:26Z</time>
      </trkpt>
      <trkpt lat="49.19094" lon="6.93226">
        <ele>283</ele>
        <time>2011-09-25T07:40:28Z</time>
      </trkpt>
      <trkpt lat="49.19095" lon="6.93228">
        <ele>283</ele>
        <time>2011-09-25T07:40:30Z</time>
      </trkpt>
      <trkpt lat="49.19097" lon="6.93231">
        <ele>283</ele>
        <time>2011-09-25T07:40:32Z</time>
      </trkpt>
      <trkpt lat="49.19098" lon="6.93232">
        <ele>283</ele>
        <time>2011-09-25T07:40:33Z</time>
      </trkpt>
      <trkpt lat="49.191" lon="6.93234">
        <ele>284</ele>
        <time>2011-09-25T07:40:35Z</time>
      </trkpt>
      <trkpt lat="49.191" lon="6.93237">
        <ele>285</ele>
        <time>2011-09-25T07:40:37Z</time>
      </trkpt>
      <trkpt lat="49.19101" lon="6.93239">
        <ele>285</ele>
        <time>2011-09-25T07:40:39Z</time>
      </trkpt>
      <trkpt lat="49.191" lon="6.93241">
        <ele>286</ele>
        <time>2011-09-25T07:40:41Z</time>
      </trkpt>
      <trkpt lat="49.191" lon="6.93245">
        <ele>288</ele>
        <time>2011-09-25T07:40:43Z</time>
      </trkpt>
      <trkpt lat="49.191" lon="6.93247">
        <ele>289</ele>
        <time>2011-09-25T07:40:44Z</time>
      </trkpt>
      <trkpt lat="49.191" lon="6.9325">
        <ele>289</ele>
        <time>2011-09-25T07:40:46Z</time>
      </trkpt>
      <trkpt lat="49.191" lon="6.93252">
        <ele>289</ele>
        <time>2011-09-25T07:40:47Z</time>
      </trkpt>
      <trkpt lat="49.191" lon="6.93254">
        <ele>289</ele>
        <time>2011-09-25T07:40:48Z</time>
      </trkpt>
      <trkpt lat="49.191" lon="6.93256">
        <ele>289</ele>
        <time>2011-09-25T07:40:49Z</time>
      </trkpt>
      <trkpt lat="49.19099" lon="6.93258">
        <ele>289</ele>
        <time>2011-09-25T07:40:51Z</time>
      </trkpt>
      <trkpt lat="49.19099" lon="6.9326">
        <ele>289</ele>
        <time>2011-09-25T07:40:52Z</time>
      </trkpt>
      <trkpt lat="49.19097" lon="6.93262">
        <ele>289</ele>
        <time>2011-09-25T07:40:53Z</time>
      </trkpt>
      <trkpt lat="49.19096" lon="6.93264">
        <ele>289</ele>
        <time>2011-09-25T07:40:56Z</time>
      </trkpt>
      <trkpt lat="49.19098" lon="6.93265">
        <ele>290</ele>
        <time>2011-09-25T07:41:01Z</time>
      </trkpt>
      <trkpt lat="49.19098" lon="6.93267">
        <ele>290</ele>
        <time>2011-09-25T07:41:04Z</time>
      </trkpt>
      <trkpt lat="49.19098" lon="6.9327">
        <ele>290</ele>
        <time>2011-09-25T07:41:06Z</time>
      </trkpt>
      <trkpt lat="49.19097" lon="6.93272">
        <ele>290</ele>
        <time>2011-09-25T07:41:07Z</time>
      </trkpt>
      <trkpt lat="49.19096" lon="6.93275">
        <ele>290</ele>
        <time>2011-09-25T07:41:08Z</time>
      </trkpt>
      <trkpt lat="49.19096" lon="6.93277">
        <ele>290</ele>
        <time>2011-09-25T07:41:09Z</time>
      </trkpt>
      <trkpt lat="49.19095" lon="6.93279">
        <ele>290</ele>
        <time>2011-09-25T07:41:10Z</time>
      </trkpt>
      <trkpt lat="49.19094" lon="6.93281">
        <ele>290</ele>
        <time>2011-09-25T07:41:11Z</time>
      </trkpt>
      <trkpt lat="49.19092" lon="6.93284">
        <ele>290</ele>
        <time>2011-09-25T07:41:13Z</time>
      </trkpt>
      <trkpt lat="49.19091" lon="6.93286">
        <ele>290</ele>
        <time>2011-09-25T07:41:14Z</time>
      </trkpt>
      <trkpt lat="49.19091" lon="6.93289">
        <ele>290</ele>
        <time>2011-09-25T07:41:15Z</time>
      </trkpt>
      <trkpt lat="49.1909" lon="6.9329">
        <ele>290</ele>
        <time>2011-09-25T07:41:16Z</time>
      </trkpt>
      <trkpt lat="49.19088" lon="6.93293">
        <ele>290</ele>
        <time>2011-09-25T07:41:17Z</time>
      </trkpt>
      <trkpt lat="49.19088" lon="6.93295">
        <ele>290</ele>
        <time>2011-09-25T07:41:18Z</time>
      </trkpt>
      <trkpt lat="49.19088" lon="6.93297">
        <ele>290</ele>
        <time>2011-09-25T07:41:19Z</time>
      </trkpt>
      <trkpt lat="49.19086" lon="6.933">
        <ele>290</ele>
        <time>2011-09-25T07:41:21Z</time>
      </trkpt>
      <trkpt lat="49.19086" lon="6.93301">
        <ele>290</ele>
        <time>2011-09-25T07:41:22Z</time>
      </trkpt>
      <trkpt lat="49.19084" lon="6.93303">
        <ele>290</ele>
        <time>2011-09-25T07:41:24Z</time>
      </trkpt>
      <trkpt lat="49.19083" lon="6.93305">
        <ele>290</ele>
        <time>2011-09-25T07:41:25Z</time>
      </trkpt>
      <trkpt lat="49.19082" lon="6.93307">
        <ele>290</ele>
        <time>2011-09-25T07:41:26Z</time>
      </trkpt>
      <trkpt lat="49.19081" lon="6.9331">
        <ele>290</ele>
        <time>2011-09-25T07:41:27Z</time>
      </trkpt>
      <trkpt lat="49.1908" lon="6.93313">
        <ele>290</ele>
        <time>2011-09-25T07:41:28Z</time>
      </trkpt>
      <trkpt lat="49.19078" lon="6.93314">
        <ele>290</ele>
        <time>2011-09-25T07:41:29Z</time>
      </trkpt>
      <trkpt lat="49.19077" lon="6.93316">
        <ele>290</ele>
        <time>2011-09-25T07:41:30Z</time>
      </trkpt>
      <trkpt lat="49.19074" lon="6.93318">
        <ele>290</ele>
        <time>2011-09-25T07:41:32Z</time>
      </trkpt>
      <trkpt lat="49.19073" lon="6.93319">
        <ele>291</ele>
        <time>2011-09-25T07:41:33Z</time>
      </trkpt>
      <trkpt lat="49.19073" lon="6.93321">
        <ele>292</ele>
        <time>2011-09-25T07:41:34Z</time>
      </trkpt>
      <trkpt lat="49.19072" lon="6.93324">
        <ele>292</ele>
        <time>2011-09-25T07:41:36Z</time>
      </trkpt>
      <trkpt lat="49.19074" lon="6.93327">
        <ele>292</ele>
        <time>2011-09-25T07:41:37Z</time>
      </trkpt>
      <trkpt lat="49.19075" lon="6.9333">
        <ele>292</ele>
        <time>2011-09-25T07:41:38Z</time>
      </trkpt>
      <trkpt lat="49.19075" lon="6.93332">
        <ele>292</ele>
        <time>2011-09-25T07:41:39Z</time>
      </trkpt>
      <trkpt lat="49.19075" lon="6.93335">
        <ele>292</ele>
        <time>2011-09-25T07:41:40Z</time>
      </trkpt>
      <trkpt lat="49.19075" lon="6.93337">
        <ele>291</ele>
        <time>2011-09-25T07:41:41Z</time>
      </trkpt>
      <trkpt lat="49.19075" lon="6.93339">
        <ele>291</ele>
        <time>2011-09-25T07:41:42Z</time>
      </trkpt>
      <trkpt lat="49.19075" lon="6.93341">
        <ele>290</ele>
        <time>2011-09-25T07:41:43Z</time>
      </trkpt>
      <trkpt lat="49.19075" lon="6.93343">
        <ele>290</ele>
        <time>2011-09-25T07:41:44Z</time>
      </trkpt>
      <trkpt lat="49.19074" lon="6.93345">
        <ele>290</ele>
        <time>2011-09-25T07:41:45Z</time>
      </trkpt>
      <trkpt lat="49.19075" lon="6.93347">
        <ele>290</ele>
        <time>2011-09-25T07:41:46Z</time>
      </trkpt>
      <trkpt lat="49.19075" lon="6.93351">
        <ele>290</ele>
        <time>2011-09-25T07:41:47Z</time>
      </trkpt>
      <trkpt lat="49.19076" lon="6.93353">
        <ele>290</ele>
        <time>2011-09-25T07:41:48Z</time>
      </trkpt>
      <trkpt lat="49.19078" lon="6.93355">
        <ele>290</ele>
        <time>2011-09-25T07:41:49Z</time>
      </trkpt>
      <trkpt lat="49.19079" lon="6.93357">
        <ele>290</ele>
        <time>2011-09-25T07:41:50Z</time>
      </trkpt>
      <trkpt lat="49.19079" lon="6.93359">
        <ele>290</ele>
        <time>2011-09-25T07:41:51Z</time>
      </trkpt>
      <trkpt lat="49.1908" lon="6.93361">
        <ele>290</ele>
        <time>2011-09-25T07:41:52Z</time>
      </trkpt>
      <trkpt lat="49.1908" lon="6.93363">
        <ele>290</ele>
        <time>2011-09-25T07:41:53Z</time>
      </trkpt>
      <trkpt lat="49.19081" lon="6.93366">
        <ele>290</ele>
        <time>2011-09-25T07:41:55Z</time>
      </trkpt>
      <trkpt lat="49.19082" lon="6.93367">
        <ele>290</ele>
        <time>2011-09-25T07:41:56Z</time>
      </trkpt>
      <trkpt lat="49.19082" lon="6.93369">
        <ele>290</ele>
        <time>2011-09-25T07:41:57Z</time>
      </trkpt>
      <trkpt lat="49.19083" lon="6.93371">
        <ele>290</ele>
        <time>2011-09-25T07:41:58Z</time>
      </trkpt>
      <trkpt lat="49.19083" lon="6.93373">
        <ele>290</ele>
        <time>2011-09-25T07:41:59Z</time>
      </trkpt>
      <trkpt lat="49.19083" lon="6.93376">
        <ele>290</ele>
        <time>2011-09-25T07:42:00Z</time>
      </trkpt>
      <trkpt lat="49.19085" lon="6.93378">
        <ele>290</ele>
        <time>2011-09-25T07:42:01Z</time>
      </trkpt>
      <trkpt lat="49.19086" lon="6.9338">
        <ele>290</ele>
        <time>2011-09-25T07:42:02Z</time>
      </trkpt>
      <trkpt lat="49.19088" lon="6.93382">
        <ele>290</ele>
        <time>2011-09-25T07:42:03Z</time>
      </trkpt>
      <trkpt lat="49.1909" lon="6.93384">
        <ele>290</ele>
        <time>2011-09-25T07:42:05Z</time>
      </trkpt>
      <trkpt lat="49.19092" lon="6.93385">
        <ele>290</ele>
        <time>2011-09-25T07:42:06Z</time>
      </trkpt>
      <trkpt lat="49.19094" lon="6.93386">
        <ele>290</ele>
        <time>2011-09-25T07:42:07Z</time>
      </trkpt>
      <trkpt lat="49.19096" lon="6.93387">
        <ele>290</ele>
        <time>2011-09-25T07:42:08Z</time>
      </trkpt>
      <trkpt lat="49.19099" lon="6.93393">
        <ele>290</ele>
        <time>2011-09-25T07:42:12Z</time>
      </trkpt>
      <trkpt lat="49.19096" lon="6.93396">
        <ele>290</ele>
        <time>2011-09-25T07:42:13Z</time>
      </trkpt>
      <trkpt lat="49.19096" lon="6.93398">
        <ele>290</ele>
        <time>2011-09-25T07:42:14Z</time>
      </trkpt>
      <trkpt lat="49.19095" lon="6.934">
        <ele>290</ele>
        <time>2011-09-25T07:42:16Z</time>
      </trkpt>
      <trkpt lat="49.19095" lon="6.93402">
        <ele>290</ele>
        <time>2011-09-25T07:42:17Z</time>
      </trkpt>
      <trkpt lat="49.19096" lon="6.93405">
        <ele>290</ele>
        <time>2011-09-25T07:42:18Z</time>
      </trkpt>
      <trkpt lat="49.19097" lon="6.93408">
        <ele>290</ele>
        <time>2011-09-25T07:42:19Z</time>
      </trkpt>
      <trkpt lat="49.19097" lon="6.93412">
        <ele>290</ele>
        <time>2011-09-25T07:42:20Z</time>
      </trkpt>
      <trkpt lat="49.19097" lon="6.93414">
        <ele>290</ele>
        <time>2011-09-25T07:42:21Z</time>
      </trkpt>
      <trkpt lat="49.19096" lon="6.93416">
        <ele>290</ele>
        <time>2011-09-25T07:42:22Z</time>
      </trkpt>
      <trkpt lat="49.19095" lon="6.9342">
        <ele>290</ele>
        <time>2011-09-25T07:42:24Z</time>
      </trkpt>
      <trkpt lat="49.19094" lon="6.93421">
        <ele>291</ele>
        <time>2011-09-25T07:42:25Z</time>
      </trkpt>
      <trkpt lat="49.19094" lon="6.93422">
        <ele>292</ele>
        <time>2011-09-25T07:42:26Z</time>
      </trkpt>
      <trkpt lat="49.19094" lon="6.93425">
        <ele>293</ele>
        <time>2011-09-25T07:42:27Z</time>
      </trkpt>
      <trkpt lat="49.19096" lon="6.93427">
        <ele>294</ele>
        <time>2011-09-25T07:42:28Z</time>
      </trkpt>
      <trkpt lat="49.19097" lon="6.9343">
        <ele>296</ele>
        <time>2011-09-25T07:42:30Z</time>
      </trkpt>
      <trkpt lat="49.191" lon="6.93431">
        <ele>300</ele>
        <time>2011-09-25T07:42:33Z</time>
      </trkpt>
      <trkpt lat="49.19101" lon="6.93433">
        <ele>303</ele>
        <time>2011-09-25T07:42:35Z</time>
      </trkpt>
      <trkpt lat="49.19103" lon="6.93433">
        <ele>306</ele>
        <time>2011-09-25T07:42:37Z</time>
      </trkpt>
      <trkpt lat="49.19106" lon="6.93433">
        <ele>307</ele>
        <time>2011-09-25T07:42:38Z</time>
      </trkpt>
      <trkpt lat="49.19109" lon="6.93433">
        <ele>308</ele>
        <time>2011-09-25T07:42:39Z</time>
      </trkpt>
      <trkpt lat="49.1911" lon="6.93433">
        <ele>309</ele>
        <time>2011-09-25T07:42:40Z</time>
      </trkpt>
      <trkpt lat="49.19109" lon="6.93436">
        <ele>311</ele>
        <time>2011-09-25T07:42:42Z</time>
      </trkpt>
      <trkpt lat="49.19109" lon="6.93439">
        <ele>313</ele>
        <time>2011-09-25T07:42:44Z</time>
      </trkpt>
      <trkpt lat="49.19109" lon="6.9344">
        <ele>315</ele>
        <time>2011-09-25T07:42:46Z</time>
      </trkpt>
      <trkpt lat="49.19111" lon="6.9344">
        <ele>316</ele>
        <time>2011-09-25T07:42:47Z</time>
      </trkpt>
      <trkpt lat="49.19112" lon="6.93442">
        <ele>317</ele>
        <time>2011-09-25T07:42:48Z</time>
      </trkpt>
      <trkpt lat="49.19114" lon="6.93442">
        <ele>320</ele>
        <time>2011-09-25T07:42:52Z</time>
      </trkpt>
      <trkpt lat="49.19118" lon="6.93443">
        <ele>321</ele>
        <time>2011-09-25T07:42:53Z</time>
      </trkpt>
      <trkpt lat="49.19117" lon="6.93444">
        <ele>322</ele>
        <time>2011-09-25T07:42:54Z</time>
      </trkpt>
      <trkpt lat="49.19117" lon="6.93446">
        <ele>324</ele>
        <time>2011-09-25T07:42:56Z</time>
      </trkpt>
      <trkpt lat="49.19118" lon="6.93448">
        <ele>324</ele>
        <time>2011-09-25T07:42:58Z</time>
      </trkpt>
      <trkpt lat="49.19121" lon="6.93449">
        <ele>324</ele>
        <time>2011-09-25T07:43:00Z</time>
      </trkpt>
      <trkpt lat="49.19123" lon="6.93449">
        <ele>324</ele>
        <time>2011-09-25T07:43:01Z</time>
      </trkpt>
      <trkpt lat="49.19125" lon="6.93451">
        <ele>325</ele>
        <time>2011-09-25T07:43:02Z</time>
      </trkpt>
      <trkpt lat="49.19127" lon="6.93452">
        <ele>325</ele>
        <time>2011-09-25T07:43:03Z</time>
      </trkpt>
      <trkpt lat="49.19128" lon="6.93453">
        <ele>325</ele>
        <time>2011-09-25T07:43:04Z</time>
      </trkpt>
      <trkpt lat="49.1913" lon="6.93455">
        <ele>325</ele>
        <time>2011-09-25T07:43:06Z</time>
      </trkpt>
      <trkpt lat="49.19132" lon="6.93456">
        <ele>325</ele>
        <time>2011-09-25T07:43:07Z</time>
      </trkpt>
      <trkpt lat="49.19135" lon="6.93458">
        <ele>325</ele>
        <time>2011-09-25T07:43:09Z</time>
      </trkpt>
      <trkpt lat="49.19138" lon="6.9346">
        <ele>325</ele>
        <time>2011-09-25T07:43:11Z</time>
      </trkpt>
      <trkpt lat="49.1914" lon="6.9346">
        <ele>325</ele>
        <time>2011-09-25T07:43:12Z</time>
      </trkpt>
      <trkpt lat="49.1914" lon="6.93462">
        <ele>325</ele>
        <time>2011-09-25T07:43:14Z</time>
      </trkpt>
      <trkpt lat="49.1914" lon="6.93464">
        <ele>327</ele>
        <time>2011-09-25T07:43:16Z</time>
      </trkpt>
      <trkpt lat="49.19141" lon="6.93465">
        <ele>330</ele>
        <time>2011-09-25T07:43:20Z</time>
      </trkpt>
      <trkpt lat="49.19143" lon="6.93465">
        <ele>331</ele>
        <time>2011-09-25T07:43:21Z</time>
      </trkpt>
      <trkpt lat="49.19145" lon="6.93465">
        <ele>331</ele>
        <time>2011-09-25T07:43:22Z</time>
      </trkpt>
      <trkpt lat="49.19147" lon="6.93466">
        <ele>332</ele>
        <time>2011-09-25T07:43:23Z</time>
      </trkpt>
      <trkpt lat="49.19148" lon="6.93467">
        <ele>332</ele>
        <time>2011-09-25T07:43:24Z</time>
      </trkpt>
      <trkpt lat="49.1915" lon="6.93467">
        <ele>333</ele>
        <time>2011-09-25T07:43:25Z</time>
      </trkpt>
      <trkpt lat="49.19152" lon="6.93469">
        <ele>334</ele>
        <time>2011-09-25T07:43:26Z</time>
      </trkpt>
      <trkpt lat="49.19153" lon="6.93469">
        <ele>334</ele>
        <time>2011-09-25T07:43:27Z</time>
      </trkpt>
      <trkpt lat="49.19156" lon="6.93469">
        <ele>334</ele>
        <time>2011-09-25T07:43:28Z</time>
      </trkpt>
      <trkpt lat="49.19157" lon="6.9347">
        <ele>334</ele>
        <time>2011-09-25T07:43:29Z</time>
      </trkpt>
      <trkpt lat="49.19158" lon="6.9347">
        <ele>334</ele>
        <time>2011-09-25T07:43:30Z</time>
      </trkpt>
      <trkpt lat="49.1916" lon="6.93471">
        <ele>334</ele>
        <time>2011-09-25T07:43:31Z</time>
      </trkpt>
      <trkpt lat="49.19161" lon="6.93471">
        <ele>334</ele>
        <time>2011-09-25T07:43:32Z</time>
      </trkpt>
      <trkpt lat="49.19163" lon="6.93471">
        <ele>334</ele>
        <time>2011-09-25T07:43:33Z</time>
      </trkpt>
      <trkpt lat="49.19165" lon="6.93471">
        <ele>334</ele>
        <time>2011-09-25T07:43:34Z</time>
      </trkpt>
      <trkpt lat="49.19167" lon="6.93473">
        <ele>334</ele>
        <time>2011-09-25T07:43:35Z</time>
      </trkpt>
      <trkpt lat="49.19169" lon="6.93474">
        <ele>333</ele>
        <time>2011-09-25T07:43:36Z</time>
      </trkpt>
      <trkpt lat="49.19172" lon="6.93474">
        <ele>332</ele>
        <time>2011-09-25T07:43:37Z</time>
      </trkpt>
      <trkpt lat="49.19173" lon="6.93475">
        <ele>331</ele>
        <time>2011-09-25T07:43:38Z</time>
      </trkpt>
      <trkpt lat="49.19175" lon="6.93477">
        <ele>330</ele>
        <time>2011-09-25T07:43:39Z</time>
      </trkpt>
      <trkpt lat="49.19176" lon="6.93478">
        <ele>329</ele>
        <time>2011-09-25T07:43:40Z</time>
      </trkpt>
      <trkpt lat="49.19178" lon="6.93479">
        <ele>328</ele>
        <time>2011-09-25T07:43:41Z</time>
      </trkpt>
      <trkpt lat="49.19181" lon="6.93479">
        <ele>327</ele>
        <time>2011-09-25T07:43:42Z</time>
      </trkpt>
      <trkpt lat="49.19183" lon="6.93481">
        <ele>326</ele>
        <time>2011-09-25T07:43:43Z</time>
      </trkpt>
      <trkpt lat="49.19184" lon="6.93483">
        <ele>325</ele>
        <time>2011-09-25T07:43:44Z</time>
      </trkpt>
      <trkpt lat="49.19186" lon="6.93484">
        <ele>323</ele>
        <time>2011-09-25T07:43:46Z</time>
      </trkpt>
      <trkpt lat="49.19189" lon="6.93486">
        <ele>321</ele>
        <time>2011-09-25T07:43:48Z</time>
      </trkpt>
      <trkpt lat="49.19191" lon="6.93486">
        <ele>321</ele>
        <time>2011-09-25T07:43:49Z</time>
      </trkpt>
      <trkpt lat="49.19193" lon="6.93487">
        <ele>320</ele>
        <time>2011-09-25T07:43:50Z</time>
      </trkpt>
      <trkpt lat="49.19194" lon="6.93488">
        <ele>319</ele>
        <time>2011-09-25T07:43:51Z</time>
      </trkpt>
      <trkpt lat="49.19195" lon="6.9349">
        <ele>318</ele>
        <time>2011-09-25T07:43:53Z</time>
      </trkpt>
      <trkpt lat="49.19197" lon="6.93491">
        <ele>317</ele>
        <time>2011-09-25T07:43:55Z</time>
      </trkpt>
      <trkpt lat="49.19199" lon="6.93492">
        <ele>317</ele>
        <time>2011-09-25T07:43:56Z</time>
      </trkpt>
      <trkpt lat="49.192" lon="6.93493">
        <ele>317</ele>
        <time>2011-09-25T07:43:57Z</time>
      </trkpt>
      <trkpt lat="49.19202" lon="6.93492">
        <ele>317</ele>
        <time>2011-09-25T07:43:58Z</time>
      </trkpt>
      <trkpt lat="49.19204" lon="6.93494">
        <ele>317</ele>
        <time>2011-09-25T07:43:59Z</time>
      </trkpt>
      <trkpt lat="49.19204" lon="6.93496">
        <ele>317</ele>
        <time>2011-09-25T07:44:00Z</time>
      </trkpt>
      <trkpt lat="49.19205" lon="6.93498">
        <ele>317</ele>
        <time>2011-09-25T07:44:01Z</time>
      </trkpt>
      <trkpt lat="49.19206" lon="6.93499">
        <ele>317</ele>
        <time>2011-09-25T07:44:02Z</time>
      </trkpt>
      <trkpt lat="49.19208" lon="6.93501">
        <ele>317</ele>
        <time>2011-09-25T07:44:03Z</time>
      </trkpt>
      <trkpt lat="49.19209" lon="6.93503">
        <ele>317</ele>
        <time>2011-09-25T07:44:04Z</time>
      </trkpt>
      <trkpt lat="49.19212" lon="6.93504">
        <ele>317</ele>
        <time>2011-09-25T07:44:05Z</time>
      </trkpt>
      <trkpt lat="49.19214" lon="6.93505">
        <ele>317</ele>
        <time>2011-09-25T07:44:06Z</time>
      </trkpt>
      <trkpt lat="49.19217" lon="6.93506">
        <ele>317</ele>
        <time>2011-09-25T07:44:07Z</time>
      </trkpt>
      <trkpt lat="49.19218" lon="6.93507">
        <ele>317</ele>
        <time>2011-09-25T07:44:08Z</time>
      </trkpt>
      <trkpt lat="49.1922" lon="6.93508">
        <ele>317</ele>
        <time>2011-09-25T07:44:09Z</time>
      </trkpt>
      <trkpt lat="49.19222" lon="6.93509">
        <ele>317</ele>
        <time>2011-09-25T07:44:10Z</time>
      </trkpt>
      <trkpt lat="49.19223" lon="6.93508">
        <ele>317</ele>
        <time>2011-09-25T07:44:11Z</time>
      </trkpt>
      <trkpt lat="49.19225" lon="6.93508">
        <ele>317</ele>
        <time>2011-09-25T07:44:12Z</time>
      </trkpt>
      <trkpt lat="49.19227" lon="6.93509">
        <ele>317</ele>
        <time>2011-09-25T07:44:13Z</time>
      </trkpt>
      <trkpt lat="49.19228" lon="6.9351">
        <ele>317</ele>
        <time>2011-09-25T07:44:14Z</time>
      </trkpt>
      <trkpt lat="49.1923" lon="6.9351">
        <ele>317</ele>
        <time>2011-09-25T07:44:15Z</time>
      </trkpt>
      <trkpt lat="49.19232" lon="6.93511">
        <ele>316</ele>
        <time>2011-09-25T07:44:16Z</time>
      </trkpt>
      <trkpt lat="49.19234" lon="6.93512">
        <ele>315</ele>
        <time>2011-09-25T07:44:17Z</time>
      </trkpt>
      <trkpt lat="49.19237" lon="6.93512">
        <ele>315</ele>
        <time>2011-09-25T07:44:18Z</time>
      </trkpt>
      <trkpt lat="49.19239" lon="6.93513">
        <ele>314</ele>
        <time>2011-09-25T07:44:19Z</time>
      </trkpt>
      <trkpt lat="49.19241" lon="6.93514">
        <ele>313</ele>
        <time>2011-09-25T07:44:20Z</time>
      </trkpt>
      <trkpt lat="49.19242" lon="6.93516">
        <ele>312</ele>
        <time>2011-09-25T07:44:21Z</time>
      </trkpt>
      <trkpt lat="49.19243" lon="6.93518">
        <ele>311</ele>
        <time>2011-09-25T07:44:22Z</time>
      </trkpt>
      <trkpt lat="49.19245" lon="6.93519">
        <ele>309</ele>
        <time>2011-09-25T07:44:24Z</time>
      </trkpt>
      <trkpt lat="49.19247" lon="6.93517">
        <ele>307</ele>
        <time>2011-09-25T07:44:27Z</time>
      </trkpt>
      <trkpt lat="49.19249" lon="6.93518">
        <ele>307</ele>
        <time>2011-09-25T07:44:29Z</time>
      </trkpt>
      <trkpt lat="49.19251" lon="6.93518">
        <ele>307</ele>
        <time>2011-09-25T07:44:30Z</time>
      </trkpt>
      <trkpt lat="49.19252" lon="6.93517">
        <ele>307</ele>
        <time>2011-09-25T07:44:34Z</time>
      </trkpt>
      <trkpt lat="49.19254" lon="6.93518">
        <ele>307</ele>
        <time>2011-09-25T07:44:35Z</time>
      </trkpt>
      <trkpt lat="49.19256" lon="6.93517">
        <ele>307</ele>
        <time>2011-09-25T07:44:36Z</time>
      </trkpt>
      <trkpt lat="49.19259" lon="6.93518">
        <ele>307</ele>
        <time>2011-09-25T07:44:37Z</time>
      </trkpt>
      <trkpt lat="49.1926" lon="6.93518">
        <ele>307</ele>
        <time>2011-09-25T07:44:38Z</time>
      </trkpt>
      <trkpt lat="49.1926" lon="6.93516">
        <ele>308</ele>
        <time>2011-09-25T07:44:42Z</time>
      </trkpt>
      <trkpt lat="49.19262" lon="6.93516">
        <ele>309</ele>
        <time>2011-09-25T07:44:46Z</time>
      </trkpt>
      <trkpt lat="49.19264" lon="6.93516">
        <ele>309</ele>
        <time>2011-09-25T07:44:47Z</time>
      </trkpt>
      <trkpt lat="49.19265" lon="6.93519">
        <ele>309</ele>
        <time>2011-09-25T07:44:50Z</time>
      </trkpt>
      <trkpt lat="49.19266" lon="6.93519">
        <ele>309</ele>
        <time>2011-09-25T07:44:51Z</time>
      </trkpt>
      <trkpt lat="49.19267" lon="6.93518">
        <ele>309</ele>
        <time>2011-09-25T07:44:52Z</time>
      </trkpt>
      <trkpt lat="49.1927" lon="6.93518">
        <ele>309</ele>
        <time>2011-09-25T07:44:54Z</time>
      </trkpt>
      <trkpt lat="49.19272" lon="6.93518">
        <ele>309</ele>
        <time>2011-09-25T07:44:55Z</time>
      </trkpt>
      <trkpt lat="49.19274" lon="6.93518">
        <ele>309</ele>
        <time>2011-09-25T07:44:56Z</time>
      </trkpt>
      <trkpt lat="49.19275" lon="6.93515">
        <ele>310</ele>
        <time>2011-09-25T07:44:59Z</time>
      </trkpt>
      <trkpt lat="49.19277" lon="6.93517">
        <ele>312</ele>
        <time>2011-09-25T07:45:02Z</time>
      </trkpt>
      <trkpt lat="49.19279" lon="6.93518">
        <ele>312</ele>
        <time>2011-09-25T07:45:03Z</time>
      </trkpt>
      <trkpt lat="49.19281" lon="6.9352">
        <ele>312</ele>
        <time>2011-09-25T07:45:04Z</time>
      </trkpt>
      <trkpt lat="49.19283" lon="6.93522">
        <ele>312</ele>
        <time>2011-09-25T07:45:05Z</time>
      </trkpt>
      <trkpt lat="49.19283" lon="6.9352">
        <ele>312</ele>
        <time>2011-09-25T07:45:06Z</time>
      </trkpt>
      <trkpt lat="49.19285" lon="6.9352">
        <ele>312</ele>
        <time>2011-09-25T07:45:07Z</time>
      </trkpt>
      <trkpt lat="49.19286" lon="6.93519">
        <ele>312</ele>
        <time>2011-09-25T07:45:08Z</time>
      </trkpt>
      <trkpt lat="49.19288" lon="6.93519">
        <ele>312</ele>
        <time>2011-09-25T07:45:09Z</time>
      </trkpt>
      <trkpt lat="49.1929" lon="6.93518">
        <ele>312</ele>
        <time>2011-09-25T07:45:10Z</time>
      </trkpt>
      <trkpt lat="49.19292" lon="6.93517">
        <ele>312</ele>
        <time>2011-09-25T07:45:12Z</time>
      </trkpt>
      <trkpt lat="49.19293" lon="6.93516">
        <ele>312</ele>
        <time>2011-09-25T07:45:13Z</time>
      </trkpt>
      <trkpt lat="49.19295" lon="6.93518">
        <ele>312</ele>
        <time>2011-09-25T07:45:14Z</time>
      </trkpt>
      <trkpt lat="49.19297" lon="6.93518">
        <ele>312</ele>
        <time>2011-09-25T07:45:15Z</time>
      </trkpt>
      <trkpt lat="49.19299" lon="6.93519">
        <ele>311</ele>
        <time>2011-09-25T07:45:16Z</time>
      </trkpt>
      <trkpt lat="49.19303" lon="6.9352">
        <ele>310</ele>
        <time>2011-09-25T07:45:17Z</time>
      </trkpt>
      <trkpt lat="49.19304" lon="6.93521">
        <ele>309</ele>
        <time>2011-09-25T07:45:18Z</time>
      </trkpt>
      <trkpt lat="49.19308" lon="6.93524">
        <ele>307</ele>
        <time>2011-09-25T07:45:20Z</time>
      </trkpt>
      <trkpt lat="49.1931" lon="6.93524">
        <ele>306</ele>
        <time>2011-09-25T07:45:21Z</time>
      </trkpt>
      <trkpt lat="49.19312" lon="6.93524">
        <ele>305</ele>
        <time>2011-09-25T07:45:22Z</time>
      </trkpt>
      <trkpt lat="49.19315" lon="6.93524">
        <ele>304</ele>
        <time>2011-09-25T07:45:23Z</time>
      </trkpt>
      <trkpt lat="49.19317" lon="6.93522">
        <ele>301</ele>
        <time>2011-09-25T07:45:26Z</time>
      </trkpt>
      <trkpt lat="49.19317" lon="6.9352">
        <ele>300</ele>
        <time>2011-09-25T07:45:27Z</time>
      </trkpt>
      <trkpt lat="49.1932" lon="6.9352">
        <ele>298</ele>
        <time>2011-09-25T07:45:29Z</time>
      </trkpt>
      <trkpt lat="49.19321" lon="6.93517">
        <ele>298</ele>
        <time>2011-09-25T07:45:31Z</time>
      </trkpt>
      <trkpt lat="49.19322" lon="6.93514">
        <ele>298</ele>
        <time>2011-09-25T07:45:33Z</time>
      </trkpt>
      <trkpt lat="49.19322" lon="6.93512">
        <ele>298</ele>
        <time>2011-09-25T07:45:34Z</time>
      </trkpt>
      <trkpt lat="49.19324" lon="6.93512">
        <ele>298</ele>
        <time>2011-09-25T07:45:35Z</time>
      </trkpt>
      <trkpt lat="49.19326" lon="6.93511">
        <ele>297</ele>
        <time>2011-09-25T07:45:36Z</time>
      </trkpt>
      <trkpt lat="49.19327" lon="6.9351">
        <ele>296</ele>
        <time>2011-09-25T07:45:37Z</time>
      </trkpt>
      <trkpt lat="49.19327" lon="6.93507">
        <ele>295</ele>
        <time>2011-09-25T07:45:38Z</time>
      </trkpt>
      <trkpt lat="49.19328" lon="6.93505">
        <ele>294</ele>
        <time>2011-09-25T07:45:39Z</time>
      </trkpt>
      <trkpt lat="49.19329" lon="6.93503">
        <ele>293</ele>
        <time>2011-09-25T07:45:40Z</time>
      </trkpt>
      <trkpt lat="49.19329" lon="6.935">
        <ele>293</ele>
        <time>2011-09-25T07:45:42Z</time>
      </trkpt>
      <trkpt lat="49.19331" lon="6.93498">
        <ele>293</ele>
        <time>2011-09-25T07:45:43Z</time>
      </trkpt>
      <trkpt lat="49.19331" lon="6.93496">
        <ele>293</ele>
        <time>2011-09-25T07:45:44Z</time>
      </trkpt>
      <trkpt lat="49.19332" lon="6.93494">
        <ele>293</ele>
        <time>2011-09-25T07:45:45Z</time>
      </trkpt>
      <trkpt lat="49.19332" lon="6.93491">
        <ele>293</ele>
        <time>2011-09-25T07:45:47Z</time>
      </trkpt>
      <trkpt lat="49.19335" lon="6.93489">
        <ele>293</ele>
        <time>2011-09-25T07:45:49Z</time>
      </trkpt>
      <trkpt lat="49.19336" lon="6.93489">
        <ele>293</ele>
        <time>2011-09-25T07:45:50Z</time>
      </trkpt>
      <trkpt lat="49.19339" lon="6.93489">
        <ele>293</ele>
        <time>2011-09-25T07:45:51Z</time>
      </trkpt>
      <trkpt lat="49.1934" lon="6.93488">
        <ele>293</ele>
        <time>2011-09-25T07:45:52Z</time>
      </trkpt>
      <trkpt lat="49.19342" lon="6.93488">
        <ele>292</ele>
        <time>2011-09-25T07:45:53Z</time>
      </trkpt>
      <trkpt lat="49.19342" lon="6.93485">
        <ele>290</ele>
        <time>2011-09-25T07:45:55Z</time>
      </trkpt>
      <trkpt lat="49.19342" lon="6.93483">
        <ele>289</ele>
        <time>2011-09-25T07:45:58Z</time>
      </trkpt>
      <trkpt lat="49.19344" lon="6.9348">
        <ele>289</ele>
        <time>2011-09-25T07:46:00Z</time>
      </trkpt>
      <trkpt lat="49.19345" lon="6.93479">
        <ele>289</ele>
        <time>2011-09-25T07:46:01Z</time>
      </trkpt>
      <trkpt lat="49.19346" lon="6.93477">
        <ele>289</ele>
        <time>2011-09-25T07:46:03Z</time>
      </trkpt>
      <trkpt lat="49.19347" lon="6.93475">
        <ele>289</ele>
        <time>2011-09-25T07:46:05Z</time>
      </trkpt>
      <trkpt lat="49.19349" lon="6.93474">
        <ele>289</ele>
        <time>2011-09-25T07:46:06Z</time>
      </trkpt>
      <trkpt lat="49.1935" lon="6.93474">
        <ele>290</ele>
        <time>2011-09-25T07:46:08Z</time>
      </trkpt>
      <trkpt lat="49.19351" lon="6.93473">
        <ele>291</ele>
        <time>2011-09-25T07:46:09Z</time>
      </trkpt>
      <trkpt lat="49.19351" lon="6.9347">
        <ele>292</ele>
        <time>2011-09-25T07:46:12Z</time>
      </trkpt>
      <trkpt lat="49.1935" lon="6.93469">
        <ele>292</ele>
        <time>2011-09-25T07:46:14Z</time>
      </trkpt>
      <trkpt lat="49.19353" lon="6.93466">
        <ele>293</ele>
        <time>2011-09-25T07:46:16Z</time>
      </trkpt>
      <trkpt lat="49.19355" lon="6.93465">
        <ele>293</ele>
        <time>2011-09-25T07:46:17Z</time>
      </trkpt>
      <trkpt lat="49.19357" lon="6.93466">
        <ele>294</ele>
        <time>2011-09-25T07:46:18Z</time>
      </trkpt>
      <trkpt lat="49.19359" lon="6.93468">
        <ele>294</ele>
        <time>2011-09-25T07:46:19Z</time>
      </trkpt>
      <trkpt lat="49.1936" lon="6.93467">
        <ele>294</ele>
        <time>2011-09-25T07:46:20Z</time>
      </trkpt>
      <trkpt lat="49.19361" lon="6.93467">
        <ele>294</ele>
        <time>2011-09-25T07:46:22Z</time>
      </trkpt>
      <trkpt lat="49.19363" lon="6.93467">
        <ele>294</ele>
        <time>2011-09-25T07:46:24Z</time>
      </trkpt>
      <trkpt lat="49.19364" lon="6.93467">
        <ele>294</ele>
        <time>2011-09-25T07:46:25Z</time>
      </trkpt>
      <trkpt lat="49.19366" lon="6.93467">
        <ele>295</ele>
        <time>2011-09-25T07:46:26Z</time>
      </trkpt>
      <trkpt lat="49.19368" lon="6.93467">
        <ele>298</ele>
        <time>2011-09-25T07:46:30Z</time>
      </trkpt>
      <trkpt lat="49.1937" lon="6.93466">
        <ele>298</ele>
        <time>2011-09-25T07:46:31Z</time>
      </trkpt>
      <trkpt lat="49.19372" lon="6.93468">
        <ele>299</ele>
        <time>2011-09-25T07:46:32Z</time>
      </trkpt>
      <trkpt lat="49.19373" lon="6.93467">
        <ele>299</ele>
        <time>2011-09-25T07:46:34Z</time>
      </trkpt>
      <trkpt lat="49.19375" lon="6.93466">
        <ele>299</ele>
        <time>2011-09-25T07:46:36Z</time>
      </trkpt>
      <trkpt lat="49.19376" lon="6.93468">
        <ele>299</ele>
        <time>2011-09-25T07:46:38Z</time>
      </trkpt>
      <trkpt lat="49.19378" lon="6.93468">
        <ele>299</ele>
        <time>2011-09-25T07:46:41Z</time>
      </trkpt>
      <trkpt lat="49.19379" lon="6.93469">
        <ele>299</ele>
        <time>2011-09-25T07:46:42Z</time>
      </trkpt>
      <trkpt lat="49.19381" lon="6.93469">
        <ele>299</ele>
        <time>2011-09-25T07:46:43Z</time>
      </trkpt>
      <trkpt lat="49.19382" lon="6.9347">
        <ele>299</ele>
        <time>2011-09-25T07:46:44Z</time>
      </trkpt>
      <trkpt lat="49.19385" lon="6.93469">
        <ele>299</ele>
        <time>2011-09-25T07:46:45Z</time>
      </trkpt>
      <trkpt lat="49.19387" lon="6.93469">
        <ele>299</ele>
        <time>2011-09-25T07:46:46Z</time>
      </trkpt>
      <trkpt lat="49.19389" lon="6.93469">
        <ele>299</ele>
        <time>2011-09-25T07:46:47Z</time>
      </trkpt>
      <trkpt lat="49.1939" lon="6.9347">
        <ele>299</ele>
        <time>2011-09-25T07:46:48Z</time>
      </trkpt>
      <trkpt lat="49.19392" lon="6.93472">
        <ele>299</ele>
        <time>2011-09-25T07:46:49Z</time>
      </trkpt>
      <trkpt lat="49.19393" lon="6.93473">
        <ele>299</ele>
        <time>2011-09-25T07:46:50Z</time>
      </trkpt>
      <trkpt lat="49.19394" lon="6.93473">
        <ele>299</ele>
        <time>2011-09-25T07:46:51Z</time>
      </trkpt>
      <trkpt lat="49.19396" lon="6.93472">
        <ele>298</ele>
        <time>2011-09-25T07:46:52Z</time>
      </trkpt>
      <trkpt lat="49.19397" lon="6.93472">
        <ele>297</ele>
        <time>2011-09-25T07:46:54Z</time>
      </trkpt>
      <trkpt lat="49.19396" lon="6.93474">
        <ele>295</ele>
        <time>2011-09-25T07:47:01Z</time>
      </trkpt>
      <trkpt lat="49.19393" lon="6.93475">
        <ele>294</ele>
        <time>2011-09-25T07:47:04Z</time>
      </trkpt>
      <trkpt lat="49.19391" lon="6.93473">
        <ele>294</ele>
        <time>2011-09-25T07:47:05Z</time>
      </trkpt>
      <trkpt lat="49.19389" lon="6.93471">
        <ele>294</ele>
        <time>2011-09-25T07:47:06Z</time>
      </trkpt>
      <trkpt lat="49.19389" lon="6.93469">
        <ele>294</ele>
        <time>2011-09-25T07:47:07Z</time>
      </trkpt>
      <trkpt lat="49.19388" lon="6.93467">
        <ele>294</ele>
        <time>2011-09-25T07:47:08Z</time>
      </trkpt>
      <trkpt lat="49.19389" lon="6.93469">
        <ele>291</ele>
        <time>2011-09-25T07:47:14Z</time>
      </trkpt>
      <trkpt lat="49.1939" lon="6.93471">
        <ele>291</ele>
        <time>2011-09-25T07:47:16Z</time>
      </trkpt>
      <trkpt lat="49.19391" lon="6.93473">
        <ele>291</ele>
        <time>2011-09-25T07:47:18Z</time>
      </trkpt>
      <trkpt lat="49.19392" lon="6.93475">
        <ele>291</ele>
        <time>2011-09-25T07:47:19Z</time>
      </trkpt>
      <trkpt lat="49.19394" lon="6.93476">
        <ele>291</ele>
        <time>2011-09-25T07:47:20Z</time>
      </trkpt>
      <trkpt lat="49.19394" lon="6.93478">
        <ele>291</ele>
        <time>2011-09-25T07:47:23Z</time>
      </trkpt>
      <trkpt lat="49.19396" lon="6.93478">
        <ele>293</ele>
        <time>2011-09-25T07:47:25Z</time>
      </trkpt>
      <trkpt lat="49.19397" lon="6.93478">
        <ele>293</ele>
        <time>2011-09-25T07:47:26Z</time>
      </trkpt>
      <trkpt lat="49.19399" lon="6.93478">
        <ele>294</ele>
        <time>2011-09-25T07:47:28Z</time>
      </trkpt>
      <trkpt lat="49.194" lon="6.93478">
        <ele>295</ele>
        <time>2011-09-25T07:47:29Z</time>
      </trkpt>
      <trkpt lat="49.19402" lon="6.93477">
        <ele>295</ele>
        <time>2011-09-25T07:47:31Z</time>
      </trkpt>
      <trkpt lat="49.19403" lon="6.93476">
        <ele>295</ele>
        <time>2011-09-25T07:47:32Z</time>
      </trkpt>
      <trkpt lat="49.19405" lon="6.93477">
        <ele>295</ele>
        <time>2011-09-25T07:47:33Z</time>
      </trkpt>
      <trkpt lat="49.19406" lon="6.93476">
        <ele>295</ele>
        <time>2011-09-25T07:47:34Z</time>
      </trkpt>
      <trkpt lat="49.19409" lon="6.93475">
        <ele>295</ele>
        <time>2011-09-25T07:47:37Z</time>
      </trkpt>
      <trkpt lat="49.1941" lon="6.93475">
        <ele>295</ele>
        <time>2011-09-25T07:47:38Z</time>
      </trkpt>
      <trkpt lat="49.19411" lon="6.93475">
        <ele>295</ele>
        <time>2011-09-25T07:47:39Z</time>
      </trkpt>
      <trkpt lat="49.19413" lon="6.93476">
        <ele>295</ele>
        <time>2011-09-25T07:47:41Z</time>
      </trkpt>
      <trkpt lat="49.19415" lon="6.93478">
        <ele>295</ele>
        <time>2011-09-25T07:47:43Z</time>
      </trkpt>
      <trkpt lat="49.19417" lon="6.93479">
        <ele>294</ele>
        <time>2011-09-25T07:47:45Z</time>
      </trkpt>
      <trkpt lat="49.19419" lon="6.93479">
        <ele>293</ele>
        <time>2011-09-25T07:47:47Z</time>
      </trkpt>
      <trkpt lat="49.1942" lon="6.9348">
        <ele>292</ele>
        <time>2011-09-25T07:47:48Z</time>
      </trkpt>
      <trkpt lat="49.19421" lon="6.93482">
        <ele>292</ele>
        <time>2011-09-25T07:47:50Z</time>
      </trkpt>
      <trkpt lat="49.19424" lon="6.93482">
        <ele>292</ele>
        <time>2011-09-25T07:47:51Z</time>
      </trkpt>
      <trkpt lat="49.19426" lon="6.93482">
        <ele>292</ele>
        <time>2011-09-25T07:47:52Z</time>
      </trkpt>
      <trkpt lat="49.19429" lon="6.93482">
        <ele>292</ele>
        <time>2011-09-25T07:47:53Z</time>
      </trkpt>
      <trkpt lat="49.19431" lon="6.93482">
        <ele>292</ele>
        <time>2011-09-25T07:47:54Z</time>
      </trkpt>
      <trkpt lat="49.19432" lon="6.93483">
        <ele>292</ele>
        <time>2011-09-25T07:47:55Z</time>
      </trkpt>
      <trkpt lat="49.19433" lon="6.93485">
        <ele>292</ele>
        <time>2011-09-25T07:47:57Z</time>
      </trkpt>
      <trkpt lat="49.19434" lon="6.93487">
        <ele>292</ele>
        <time>2011-09-25T07:47:58Z</time>
      </trkpt>
      <trkpt lat="49.19434" lon="6.93489">
        <ele>292</ele>
        <time>2011-09-25T07:47:59Z</time>
      </trkpt>
      <trkpt lat="49.19435" lon="6.9349">
        <ele>292</ele>
        <time>2011-09-25T07:48:00Z</time>
      </trkpt>
      <trkpt lat="49.19436" lon="6.9349">
        <ele>292</ele>
        <time>2011-09-25T07:48:01Z</time>
      </trkpt>
      <trkpt lat="49.19437" lon="6.93491">
        <ele>292</ele>
        <time>2011-09-25T07:48:02Z</time>
      </trkpt>
      <trkpt lat="49.19439" lon="6.93491">
        <ele>292</ele>
        <time>2011-09-25T07:48:03Z</time>
      </trkpt>
      <trkpt lat="49.19443" lon="6.93495">
        <ele>292</ele>
        <time>2011-09-25T07:48:05Z</time>
      </trkpt>
      <trkpt lat="49.19445" lon="6.93496">
        <ele>292</ele>
        <time>2011-09-25T07:48:06Z</time>
      </trkpt>
      <trkpt lat="49.19445" lon="6.93498">
        <ele>292</ele>
        <time>2011-09-25T07:48:07Z</time>
      </trkpt>
      <trkpt lat="49.19446" lon="6.93501">
        <ele>291</ele>
        <time>2011-09-25T07:48:09Z</time>
      </trkpt>
      <trkpt lat="49.19447" lon="6.93503">
        <ele>291</ele>
        <time>2011-09-25T07:48:10Z</time>
      </trkpt>
      <trkpt lat="49.19447" lon="6.93505">
        <ele>290</ele>
        <time>2011-09-25T07:48:11Z</time>
      </trkpt>
      <trkpt lat="49.19448" lon="6.93507">
        <ele>290</ele>
        <time>2011-09-25T07:48:12Z</time>
      </trkpt>
      <trkpt lat="49.19449" lon="6.93508">
        <ele>290</ele>
        <time>2011-09-25T07:48:13Z</time>
      </trkpt>
      <trkpt lat="49.1945" lon="6.93509">
        <ele>290</ele>
        <time>2011-09-25T07:48:14Z</time>
      </trkpt>
      <trkpt lat="49.19452" lon="6.93511">
        <ele>289</ele>
        <time>2011-09-25T07:48:15Z</time>
      </trkpt>
      <trkpt lat="49.19453" lon="6.93512">
        <ele>289</ele>
        <time>2011-09-25T07:48:16Z</time>
      </trkpt>
      <trkpt lat="49.19454" lon="6.93516">
        <ele>289</ele>
        <time>2011-09-25T07:48:18Z</time>
      </trkpt>
      <trkpt lat="49.19456" lon="6.93517">
        <ele>288</ele>
        <time>2011-09-25T07:48:19Z</time>
      </trkpt>
      <trkpt lat="49.19455" lon="6.9352">
        <ele>288</ele>
        <time>2011-09-25T07:48:21Z</time>
      </trkpt>
      <trkpt lat="49.19454" lon="6.93524">
        <ele>287</ele>
        <time>2011-09-25T07:48:23Z</time>
      </trkpt>
      <trkpt lat="49.19454" lon="6.93526">
        <ele>287</ele>
        <time>2011-09-25T07:48:24Z</time>
      </trkpt>
      <trkpt lat="49.19456" lon="6.93529">
        <ele>286</ele>
        <time>2011-09-25T07:48:26Z</time>
      </trkpt>
      <trkpt lat="49.19457" lon="6.93531">
        <ele>286</ele>
        <time>2011-09-25T07:48:27Z</time>
      </trkpt>
      <trkpt lat="49.19457" lon="6.93532">
        <ele>286</ele>
        <time>2011-09-25T07:48:28Z</time>
      </trkpt>
      <trkpt lat="49.19458" lon="6.93534">
        <ele>286</ele>
        <time>2011-09-25T07:48:29Z</time>
      </trkpt>
      <trkpt lat="49.1946" lon="6.93537">
        <ele>286</ele>
        <time>2011-09-25T07:48:31Z</time>
      </trkpt>
      <trkpt lat="49.19461" lon="6.93539">
        <ele>286</ele>
        <time>2011-09-25T07:48:33Z</time>
      </trkpt>
      <trkpt lat="49.19462" lon="6.9354">
        <ele>286</ele>
        <time>2011-09-25T07:48:35Z</time>
      </trkpt>
      <trkpt lat="49.19464" lon="6.93541">
        <ele>286</ele>
        <time>2011-09-25T07:48:36Z</time>
      </trkpt>
      <trkpt lat="49.19466" lon="6.93542">
        <ele>286</ele>
        <time>2011-09-25T07:48:38Z</time>
      </trkpt>
      <trkpt lat="49.19468" lon="6.93543">
        <ele>286</ele>
        <time>2011-09-25T07:48:39Z</time>
      </trkpt>
      <trkpt lat="49.19469" lon="6.93544">
        <ele>285</ele>
        <time>2011-09-25T07:48:40Z</time>
      </trkpt>
      <trkpt lat="49.19471" lon="6.93544">
        <ele>285</ele>
        <time>2011-09-25T07:48:42Z</time>
      </trkpt>
      <trkpt lat="49.19472" lon="6.93545">
        <ele>285</ele>
        <time>2011-09-25T07:48:44Z</time>
      </trkpt>
      <trkpt lat="49.19473" lon="6.93547">
        <ele>285</ele>
        <time>2011-09-25T07:48:47Z</time>
      </trkpt>
      <trkpt lat="49.19474" lon="6.93549">
        <ele>285</ele>
        <time>2011-09-25T07:48:50Z</time>
      </trkpt>
      <trkpt lat="49.19477" lon="6.93551">
        <ele>285</ele>
        <time>2011-09-25T07:48:52Z</time>
      </trkpt>
      <trkpt lat="49.19478" lon="6.93552">
        <ele>285</ele>
        <time>2011-09-25T07:48:54Z</time>
      </trkpt>
      <trkpt lat="49.19479" lon="6.93554">
        <ele>285</ele>
        <time>2011-09-25T07:48:55Z</time>
      </trkpt>
      <trkpt lat="49.1948" lon="6.93555">
        <ele>285</ele>
        <time>2011-09-25T07:48:56Z</time>
      </trkpt>
      <trkpt lat="49.19481" lon="6.93556">
        <ele>285</ele>
        <time>2011-09-25T07:48:57Z</time>
      </trkpt>
      <trkpt lat="49.19484" lon="6.93559">
        <ele>285</ele>
        <time>2011-09-25T07:48:59Z</time>
      </trkpt>
      <trkpt lat="49.19486" lon="6.9356">
        <ele>285</ele>
        <time>2011-09-25T07:49:00Z</time>
      </trkpt>
      <trkpt lat="49.19489" lon="6.9356">
        <ele>285</ele>
        <time>2011-09-25T07:49:01Z</time>
      </trkpt>
      <trkpt lat="49.19491" lon="6.93562">
        <ele>285</ele>
        <time>2011-09-25T07:49:03Z</time>
      </trkpt>
      <trkpt lat="49.19493" lon="6.93563">
        <ele>285</ele>
        <time>2011-09-25T07:49:04Z</time>
      </trkpt>
      <trkpt lat="49.19494" lon="6.93564">
        <ele>285</ele>
        <time>2011-09-25T07:49:05Z</time>
      </trkpt>
      <trkpt lat="49.19496" lon="6.93566">
        <ele>285</ele>
        <time>2011-09-25T07:49:07Z</time>
      </trkpt>
      <trkpt lat="49.19498" lon="6.93569">
        <ele>285</ele>
        <time>2011-09-25T07:49:09Z</time>
      </trkpt>
      <trkpt lat="49.195" lon="6.9357">
        <ele>285</ele>
        <time>2011-09-25T07:49:11Z</time>
      </trkpt>
      <trkpt lat="49.19502" lon="6.93573">
        <ele>285</ele>
        <time>2011-09-25T07:49:13Z</time>
      </trkpt>
      <trkpt lat="49.19503" lon="6.93574">
        <ele>285</ele>
        <time>2011-09-25T07:49:14Z</time>
      </trkpt>
      <trkpt lat="49.19503" lon="6.93577">
        <ele>285</ele>
        <time>2011-09-25T07:49:16Z</time>
      </trkpt>
      <trkpt lat="49.19505" lon="6.93578">
        <ele>285</ele>
        <time>2011-09-25T07:49:18Z</time>
      </trkpt>
      <trkpt lat="49.19506" lon="6.93579">
        <ele>285</ele>
        <time>2011-09-25T07:49:19Z</time>
      </trkpt>
      <trkpt lat="49.19507" lon="6.93579">
        <ele>285</ele>
        <time>2011-09-25T07:49:20Z</time>
      </trkpt>
      <trkpt lat="49.19509" lon="6.93579">
        <ele>285</ele>
        <time>2011-09-25T07:49:21Z</time>
      </trkpt>
      <trkpt lat="49.1951" lon="6.9358">
        <ele>285</ele>
        <time>2011-09-25T07:49:22Z</time>
      </trkpt>
      <trkpt lat="49.19511" lon="6.93582">
        <ele>285</ele>
        <time>2011-09-25T07:49:24Z</time>
      </trkpt>
      <trkpt lat="49.19512" lon="6.93584">
        <ele>286</ele>
        <time>2011-09-25T07:49:26Z</time>
      </trkpt>
      <trkpt lat="49.19514" lon="6.93585">
        <ele>286</ele>
        <time>2011-09-25T07:49:28Z</time>
      </trkpt>
      <trkpt lat="49.19515" lon="6.93586">
        <ele>286</ele>
        <time>2011-09-25T07:49:30Z</time>
      </trkpt>
      <trkpt lat="49.19517" lon="6.93586">
        <ele>286</ele>
        <time>2011-09-25T07:49:32Z</time>
      </trkpt>
      <trkpt lat="49.19519" lon="6.93586">
        <ele>286</ele>
        <time>2011-09-25T07:49:33Z</time>
      </trkpt>
      <trkpt lat="49.19521" lon="6.93587">
        <ele>286</ele>
        <time>2011-09-25T07:49:35Z</time>
      </trkpt>
      <trkpt lat="49.19523" lon="6.93589">
        <ele>286</ele>
        <time>2011-09-25T07:49:38Z</time>
      </trkpt>
      <trkpt lat="49.19525" lon="6.9359">
        <ele>286</ele>
        <time>2011-09-25T07:49:40Z</time>
      </trkpt>
      <trkpt lat="49.19528" lon="6.9359">
        <ele>286</ele>
        <time>2011-09-25T07:49:41Z</time>
      </trkpt>
      <trkpt lat="49.19529" lon="6.9359">
        <ele>286</ele>
        <time>2011-09-25T07:49:42Z</time>
      </trkpt>
      <trkpt lat="49.19531" lon="6.9359">
        <ele>286</ele>
        <time>2011-09-25T07:49:43Z</time>
      </trkpt>
      <trkpt lat="49.19532" lon="6.93591">
        <ele>286</ele>
        <time>2011-09-25T07:49:44Z</time>
      </trkpt>
      <trkpt lat="49.19534" lon="6.93591">
        <ele>286</ele>
        <time>2011-09-25T07:49:45Z</time>
      </trkpt>
      <trkpt lat="49.19537" lon="6.93592">
        <ele>286</ele>
        <time>2011-09-25T07:49:47Z</time>
      </trkpt>
      <trkpt lat="49.19538" lon="6.93592">
        <ele>286</ele>
        <time>2011-09-25T07:49:48Z</time>
      </trkpt>
      <trkpt lat="49.1954" lon="6.93593">
        <ele>286</ele>
        <time>2011-09-25T07:49:49Z</time>
      </trkpt>
      <trkpt lat="49.19542" lon="6.93593">
        <ele>286</ele>
        <time>2011-09-25T07:49:50Z</time>
      </trkpt>
      <trkpt lat="49.19544" lon="6.93596">
        <ele>286</ele>
        <time>2011-09-25T07:49:52Z</time>
      </trkpt>
      <trkpt lat="49.19545" lon="6.93597">
        <ele>286</ele>
        <time>2011-09-25T07:49:53Z</time>
      </trkpt>
      <trkpt lat="49.19547" lon="6.93598">
        <ele>286</ele>
        <time>2011-09-25T07:49:55Z</time>
      </trkpt>
      <trkpt lat="49.1955" lon="6.936">
        <ele>286</ele>
        <time>2011-09-25T07:49:56Z</time>
      </trkpt>
      <trkpt lat="49.19552" lon="6.936">
        <ele>286</ele>
        <time>2011-09-25T07:49:57Z</time>
      </trkpt>
      <trkpt lat="49.19554" lon="6.936">
        <ele>286</ele>
        <time>2011-09-25T07:49:58Z</time>
      </trkpt>
      <trkpt lat="49.19556" lon="6.93601">
        <ele>286</ele>
        <time>2011-09-25T07:49:59Z</time>
      </trkpt>
      <trkpt lat="49.19557" lon="6.93602">
        <ele>286</ele>
        <time>2011-09-25T07:50:01Z</time>
      </trkpt>
      <trkpt lat="49.19558" lon="6.93602">
        <ele>286</ele>
        <time>2011-09-25T07:50:02Z</time>
      </trkpt>
      <trkpt lat="49.1956" lon="6.93602">
        <ele>286</ele>
        <time>2011-09-25T07:50:03Z</time>
      </trkpt>
      <trkpt lat="49.19561" lon="6.93602">
        <ele>286</ele>
        <time>2011-09-25T07:50:05Z</time>
      </trkpt>
      <trkpt lat="49.19562" lon="6.93602">
        <ele>286</ele>
        <time>2011-09-25T07:50:06Z</time>
      </trkpt>
      <trkpt lat="49.19564" lon="6.93604">
        <ele>286</ele>
        <time>2011-09-25T07:50:08Z</time>
      </trkpt>
      <trkpt lat="49.19566" lon="6.93604">
        <ele>286</ele>
        <time>2011-09-25T07:50:10Z</time>
      </trkpt>
      <trkpt lat="49.19568" lon="6.93605">
        <ele>286</ele>
        <time>2011-09-25T07:50:12Z</time>
      </trkpt>
      <trkpt lat="49.19569" lon="6.93607">
        <ele>286</ele>
        <time>2011-09-25T07:50:14Z</time>
      </trkpt>
      <trkpt lat="49.19571" lon="6.93608">
        <ele>286</ele>
        <time>2011-09-25T07:50:16Z</time>
      </trkpt>
      <trkpt lat="49.19572" lon="6.9361">
        <ele>286</ele>
        <time>2011-09-25T07:50:18Z</time>
      </trkpt>
      <trkpt lat="49.19574" lon="6.9361">
        <ele>286</ele>
        <time>2011-09-25T07:50:20Z</time>
      </trkpt>
      <trkpt lat="49.19576" lon="6.93611">
        <ele>286</ele>
        <time>2011-09-25T07:50:22Z</time>
      </trkpt>
      <trkpt lat="49.19577" lon="6.93613">
        <ele>286</ele>
        <time>2011-09-25T07:50:24Z</time>
      </trkpt>
      <trkpt lat="49.19578" lon="6.93613">
        <ele>286</ele>
        <time>2011-09-25T07:50:25Z</time>
      </trkpt>
      <trkpt lat="49.19579" lon="6.93614">
        <ele>286</ele>
        <time>2011-09-25T07:50:26Z</time>
      </trkpt>
      <trkpt lat="49.1958" lon="6.93615">
        <ele>286</ele>
        <time>2011-09-25T07:50:27Z</time>
      </trkpt>
      <trkpt lat="49.19582" lon="6.93615">
        <ele>286</ele>
        <time>2011-09-25T07:50:28Z</time>
      </trkpt>
      <trkpt lat="49.19584" lon="6.93615">
        <ele>287</ele>
        <time>2011-09-25T07:50:29Z</time>
      </trkpt>
      <trkpt lat="49.19585" lon="6.93616">
        <ele>287</ele>
        <time>2011-09-25T07:50:30Z</time>
      </trkpt>
      <trkpt lat="49.19587" lon="6.93618">
        <ele>287</ele>
        <time>2011-09-25T07:50:32Z</time>
      </trkpt>
      <trkpt lat="49.19588" lon="6.93619">
        <ele>287</ele>
        <time>2011-09-25T07:50:33Z</time>
      </trkpt>
      <trkpt lat="49.1959" lon="6.93621">
        <ele>287</ele>
        <time>2011-09-25T07:50:34Z</time>
      </trkpt>
      <trkpt lat="49.19592" lon="6.93622">
        <ele>287</ele>
        <time>2011-09-25T07:50:35Z</time>
      </trkpt>
      <trkpt lat="49.19594" lon="6.93622">
        <ele>287</ele>
        <time>2011-09-25T07:50:36Z</time>
      </trkpt>
      <trkpt lat="49.19595" lon="6.93622">
        <ele>287</ele>
        <time>2011-09-25T07:50:37Z</time>
      </trkpt>
      <trkpt lat="49.19597" lon="6.93623">
        <ele>287</ele>
        <time>2011-09-25T07:50:38Z</time>
      </trkpt>
      <trkpt lat="49.19599" lon="6.93624">
        <ele>287</ele>
        <time>2011-09-25T07:50:40Z</time>
      </trkpt>
      <trkpt lat="49.19601" lon="6.93625">
        <ele>287</ele>
        <time>2011-09-25T07:50:41Z</time>
      </trkpt>
      <trkpt lat="49.19603" lon="6.93625">
        <ele>287</ele>
        <time>2011-09-25T07:50:42Z</time>
      </trkpt>
      <trkpt lat="49.19604" lon="6.93626">
        <ele>287</ele>
        <time>2011-09-25T07:50:43Z</time>
      </trkpt>
      <trkpt lat="49.19605" lon="6.93626">
        <ele>287</ele>
        <time>2011-09-25T07:50:44Z</time>
      </trkpt>
      <trkpt lat="49.19606" lon="6.93628">
        <ele>287</ele>
        <time>2011-09-25T07:50:45Z</time>
      </trkpt>
      <trkpt lat="49.19608" lon="6.93631">
        <ele>287</ele>
        <time>2011-09-25T07:50:47Z</time>
      </trkpt>
      <trkpt lat="49.1961" lon="6.93633">
        <ele>287</ele>
        <time>2011-09-25T07:50:49Z</time>
      </trkpt>
      <trkpt lat="49.19611" lon="6.93634">
        <ele>287</ele>
        <time>2011-09-25T07:50:50Z</time>
      </trkpt>
      <trkpt lat="49.19611" lon="6.93635">
        <ele>287</ele>
        <time>2011-09-25T07:50:51Z</time>
      </trkpt>
      <trkpt lat="49.19613" lon="6.93637">
        <ele>287</ele>
        <time>2011-09-25T07:50:52Z</time>
      </trkpt>
      <trkpt lat="49.19615" lon="6.93636">
        <ele>286</ele>
        <time>2011-09-25T07:50:53Z</time>
      </trkpt>
      <trkpt lat="49.19617" lon="6.93636">
        <ele>286</ele>
        <time>2011-09-25T07:50:54Z</time>
      </trkpt>
      <trkpt lat="49.1962" lon="6.93638">
        <ele>285</ele>
        <time>2011-09-25T07:50:56Z</time>
      </trkpt>
      <trkpt lat="49.19621" lon="6.9364">
        <ele>285</ele>
        <time>2011-09-25T07:50:58Z</time>
      </trkpt>
      <trkpt lat="49.19622" lon="6.93643">
        <ele>285</ele>
        <time>2011-09-25T07:51:00Z</time>
      </trkpt>
      <trkpt lat="49.19623" lon="6.93645">
        <ele>285</ele>
        <time>2011-09-25T07:51:02Z</time>
      </trkpt>
      <trkpt lat="49.19626" lon="6.93646">
        <ele>285</ele>
        <time>2011-09-25T07:51:04Z</time>
      </trkpt>
      <trkpt lat="49.19627" lon="6.93648">
        <ele>285</ele>
        <time>2011-09-25T07:51:06Z</time>
      </trkpt>
      <trkpt lat="49.19629" lon="6.9365">
        <ele>285</ele>
        <time>2011-09-25T07:51:09Z</time>
      </trkpt>
      <trkpt lat="49.19631" lon="6.93651">
        <ele>285</ele>
        <time>2011-09-25T07:51:11Z</time>
      </trkpt>
      <trkpt lat="49.19632" lon="6.93652">
        <ele>285</ele>
        <time>2011-09-25T07:51:12Z</time>
      </trkpt>
      <trkpt lat="49.19633" lon="6.93654">
        <ele>285</ele>
        <time>2011-09-25T07:51:14Z</time>
      </trkpt>
      <trkpt lat="49.19636" lon="6.93654">
        <ele>285</ele>
        <time>2011-09-25T07:51:16Z</time>
      </trkpt>
      <trkpt lat="49.19638" lon="6.93654">
        <ele>285</ele>
        <time>2011-09-25T07:51:17Z</time>
      </trkpt>
      <trkpt lat="49.1964" lon="6.93655">
        <ele>285</ele>
        <time>2011-09-25T07:51:18Z</time>
      </trkpt>
      <trkpt lat="49.19641" lon="6.93655">
        <ele>285</ele>
        <time>2011-09-25T07:51:19Z</time>
      </trkpt>
      <trkpt lat="49.19642" lon="6.93656">
        <ele>285</ele>
        <time>2011-09-25T07:51:20Z</time>
      </trkpt>
      <trkpt lat="49.19644" lon="6.93657">
        <ele>285</ele>
        <time>2011-09-25T07:51:21Z</time>
      </trkpt>
      <trkpt lat="49.19646" lon="6.93657">
        <ele>285</ele>
        <time>2011-09-25T07:51:22Z</time>
      </trkpt>
      <trkpt lat="49.19647" lon="6.93657">
        <ele>285</ele>
        <time>2011-09-25T07:51:23Z</time>
      </trkpt>
      <trkpt lat="49.19649" lon="6.93658">
        <ele>285</ele>
        <time>2011-09-25T07:51:24Z</time>
      </trkpt>
      <trkpt lat="49.1965" lon="6.93659">
        <ele>285</ele>
        <time>2011-09-25T07:51:25Z</time>
      </trkpt>
      <trkpt lat="49.19651" lon="6.9366">
        <ele>285</ele>
        <time>2011-09-25T07:51:26Z</time>
      </trkpt>
      <trkpt lat="49.19652" lon="6.93662">
        <ele>285</ele>
        <time>2011-09-25T07:51:27Z</time>
      </trkpt>
      <trkpt lat="49.19653" lon="6.93663">
        <ele>285</ele>
        <time>2011-09-25T07:51:28Z</time>
      </trkpt>
      <trkpt lat="49.19655" lon="6.93665">
        <ele>285</ele>
        <time>2011-09-25T07:51:29Z</time>
      </trkpt>
      <trkpt lat="49.19657" lon="6.93666">
        <ele>285</ele>
        <time>2011-09-25T07:51:30Z</time>
      </trkpt>
      <trkpt lat="49.19659" lon="6.93668">
        <ele>285</ele>
        <time>2011-09-25T07:51:32Z</time>
      </trkpt>
      <trkpt lat="49.19661" lon="6.93669">
        <ele>285</ele>
        <time>2011-09-25T07:51:33Z</time>
      </trkpt>
      <trkpt lat="49.19662" lon="6.93671">
        <ele>285</ele>
        <time>2011-09-25T07:51:34Z</time>
      </trkpt>
      <trkpt lat="49.19663" lon="6.93672">
        <ele>285</ele>
        <time>2011-09-25T07:51:35Z</time>
      </trkpt>
      <trkpt lat="49.19663" lon="6.93675">
        <ele>285</ele>
        <time>2011-09-25T07:51:36Z</time>
      </trkpt>
      <trkpt lat="49.19665" lon="6.93677">
        <ele>285</ele>
        <time>2011-09-25T07:51:37Z</time>
      </trkpt>
      <trkpt lat="49.19666" lon="6.9368">
        <ele>285</ele>
        <time>2011-09-25T07:51:38Z</time>
      </trkpt>
      <trkpt lat="49.19668" lon="6.9368">
        <ele>285</ele>
        <time>2011-09-25T07:51:40Z</time>
      </trkpt>
      <trkpt lat="49.1967" lon="6.93681">
        <ele>285</ele>
        <time>2011-09-25T07:51:41Z</time>
      </trkpt>
      <trkpt lat="49.1967" lon="6.93683">
        <ele>285</ele>
        <time>2011-09-25T07:51:42Z</time>
      </trkpt>
      <trkpt lat="49.1967" lon="6.93685">
        <ele>285</ele>
        <time>2011-09-25T07:51:44Z</time>
      </trkpt>
      <trkpt lat="49.19672" lon="6.93687">
        <ele>285</ele>
        <time>2011-09-25T07:51:45Z</time>
      </trkpt>
      <trkpt lat="49.19673" lon="6.93689">
        <ele>285</ele>
        <time>2011-09-25T07:51:47Z</time>
      </trkpt>
      <trkpt lat="49.19675" lon="6.93689">
        <ele>285</ele>
        <time>2011-09-25T07:51:48Z</time>
      </trkpt>
      <trkpt lat="49.19677" lon="6.93692">
        <ele>285</ele>
        <time>2011-09-25T07:51:50Z</time>
      </trkpt>
      <trkpt lat="49.19678" lon="6.93694">
        <ele>285</ele>
        <time>2011-09-25T07:51:51Z</time>
      </trkpt>
      <trkpt lat="49.1968" lon="6.93696">
        <ele>286</ele>
        <time>2011-09-25T07:51:53Z</time>
      </trkpt>
      <trkpt lat="49.19682" lon="6.93699">
        <ele>286</ele>
        <time>2011-09-25T07:51:55Z</time>
      </trkpt>
      <trkpt lat="49.19682" lon="6.93702">
        <ele>287</ele>
        <time>2011-09-25T07:51:57Z</time>
      </trkpt>
      <trkpt lat="49.19683" lon="6.93705">
        <ele>287</ele>
        <time>2011-09-25T07:51:58Z</time>
      </trkpt>
      <trkpt lat="49.19683" lon="6.93707">
        <ele>287</ele>
        <time>2011-09-25T07:51:59Z</time>
      </trkpt>
      <trkpt lat="49.19685" lon="6.93708">
        <ele>287</ele>
        <time>2011-09-25T07:52:00Z</time>
      </trkpt>
      <trkpt lat="49.19685" lon="6.93709">
        <ele>287</ele>
        <time>2011-09-25T07:52:01Z</time>
      </trkpt>
      <trkpt lat="49.19686" lon="6.93711">
        <ele>287</ele>
        <time>2011-09-25T07:52:02Z</time>
      </trkpt>
      <trkpt lat="49.19688" lon="6.93712">
        <ele>287</ele>
        <time>2011-09-25T07:52:03Z</time>
      </trkpt>
      <trkpt lat="49.19689" lon="6.93714">
        <ele>287</ele>
        <time>2011-09-25T07:52:04Z</time>
      </trkpt>
      <trkpt lat="49.1969" lon="6.93715">
        <ele>287</ele>
        <time>2011-09-25T07:52:05Z</time>
      </trkpt>
      <trkpt lat="49.19692" lon="6.93717">
        <ele>287</ele>
        <time>2011-09-25T07:52:07Z</time>
      </trkpt>
      <trkpt lat="49.19693" lon="6.93717">
        <ele>287</ele>
        <time>2011-09-25T07:52:08Z</time>
      </trkpt>
      <trkpt lat="49.19694" lon="6.93719">
        <ele>287</ele>
        <time>2011-09-25T07:52:10Z</time>
      </trkpt>
      <trkpt lat="49.19693" lon="6.93723">
        <ele>287</ele>
        <time>2011-09-25T07:52:12Z</time>
      </trkpt>
      <trkpt lat="49.19694" lon="6.93724">
        <ele>287</ele>
        <time>2011-09-25T07:52:14Z</time>
      </trkpt>
      <trkpt lat="49.19695" lon="6.93727">
        <ele>287</ele>
        <time>2011-09-25T07:52:16Z</time>
      </trkpt>
      <trkpt lat="49.19695" lon="6.93729">
        <ele>287</ele>
        <time>2011-09-25T07:52:17Z</time>
      </trkpt>
      <trkpt lat="49.19696" lon="6.93729">
        <ele>287</ele>
        <time>2011-09-25T07:52:20Z</time>
      </trkpt>
      <trkpt lat="49.19694" lon="6.93729">
        <ele>287</ele>
        <time>2011-09-25T07:52:25Z</time>
      </trkpt>
      <trkpt lat="49.19693" lon="6.93731">
        <ele>287</ele>
        <time>2011-09-25T07:52:29Z</time>
      </trkpt>
      <trkpt lat="49.19692" lon="6.93732">
        <ele>287</ele>
        <time>2011-09-25T07:52:36Z</time>
      </trkpt>
      <trkpt lat="49.19692" lon="6.93734">
        <ele>287</ele>
        <time>2011-09-25T07:52:38Z</time>
      </trkpt>
      <trkpt lat="49.19691" lon="6.93736">
        <ele>287</ele>
        <time>2011-09-25T07:52:40Z</time>
      </trkpt>
      <trkpt lat="49.19691" lon="6.93738">
        <ele>287</ele>
        <time>2011-09-25T07:52:41Z</time>
      </trkpt>
      <trkpt lat="49.19689" lon="6.9374">
        <ele>288</ele>
        <time>2011-09-25T07:52:43Z</time>
      </trkpt>
      <trkpt lat="49.1969" lon="6.93744">
        <ele>291</ele>
        <time>2011-09-25T07:52:46Z</time>
      </trkpt>
      <trkpt lat="49.1969" lon="6.93746">
        <ele>292</ele>
        <time>2011-09-25T07:52:47Z</time>
      </trkpt>
      <trkpt lat="49.19691" lon="6.93749">
        <ele>293</ele>
        <time>2011-09-25T07:52:48Z</time>
      </trkpt>
      <trkpt lat="49.1969" lon="6.93751">
        <ele>294</ele>
        <time>2011-09-25T07:52:50Z</time>
      </trkpt>
      <trkpt lat="49.1969" lon="6.93753">
        <ele>294</ele>
        <time>2011-09-25T07:52:53Z</time>
      </trkpt>
      <trkpt lat="49.19691" lon="6.93757">
        <ele>294</ele>
        <time>2011-09-25T07:52:55Z</time>
      </trkpt>
      <trkpt lat="49.19691" lon="6.93759">
        <ele>294</ele>
        <time>2011-09-25T07:52:56Z</time>
      </trkpt>
      <trkpt lat="49.19692" lon="6.93762">
        <ele>294</ele>
        <time>2011-09-25T07:52:58Z</time>
      </trkpt>
      <trkpt lat="49.19692" lon="6.93764">
        <ele>295</ele>
        <time>2011-09-25T07:52:59Z</time>
      </trkpt>
      <trkpt lat="49.19691" lon="6.93765">
        <ele>296</ele>
        <time>2011-09-25T07:53:02Z</time>
      </trkpt>
      <trkpt lat="49.19689" lon="6.93764">
        <ele>299</ele>
        <time>2011-09-25T07:53:05Z</time>
      </trkpt>
      <trkpt lat="49.19687" lon="6.93764">
        <ele>302</ele>
        <time>2011-09-25T07:53:08Z</time>
      </trkpt>
      <trkpt lat="49.19688" lon="6.93761">
        <ele>303</ele>
        <time>2011-09-25T07:53:09Z</time>
      </trkpt>
      <trkpt lat="49.19689" lon="6.93759">
        <ele>303</ele>
        <time>2011-09-25T07:53:10Z</time>
      </trkpt>
      <trkpt lat="49.1969" lon="6.93756">
        <ele>303</ele>
        <time>2011-09-25T07:53:11Z</time>
      </trkpt>
      <trkpt lat="49.1969" lon="6.93754">
        <ele>303</ele>
        <time>2011-09-25T07:53:12Z</time>
      </trkpt>
      <trkpt lat="49.19691" lon="6.93752">
        <ele>302</ele>
        <time>2011-09-25T07:53:13Z</time>
      </trkpt>
      <trkpt lat="49.19693" lon="6.93749">
        <ele>300</ele>
        <time>2011-09-25T07:53:15Z</time>
      </trkpt>
      <trkpt lat="49.19693" lon="6.93747">
        <ele>296</ele>
        <time>2011-09-25T07:53:17Z</time>
      </trkpt>
      <trkpt lat="49.19694" lon="6.93745">
        <ele>292</ele>
        <time>2011-09-25T07:53:19Z</time>
      </trkpt>
      <trkpt lat="49.19695" lon="6.93743">
        <ele>287</ele>
        <time>2011-09-25T07:53:22Z</time>
      </trkpt>
      <trkpt lat="49.19695" lon="6.93741">
        <ele>285</ele>
        <time>2011-09-25T07:53:24Z</time>
      </trkpt>
      <trkpt lat="49.19696" lon="6.9374">
        <ele>283</ele>
        <time>2011-09-25T07:53:26Z</time>
      </trkpt>
      <trkpt lat="49.19697" lon="6.93738">
        <ele>282</ele>
        <time>2011-09-25T07:53:31Z</time>
      </trkpt>
      <trkpt lat="49.19698" lon="6.93736">
        <ele>282</ele>
        <time>2011-09-25T07:53:33Z</time>
      </trkpt>
      <trkpt lat="49.19699" lon="6.93735">
        <ele>282</ele>
        <time>2011-09-25T07:53:35Z</time>
      </trkpt>
      <trkpt lat="49.19698" lon="6.93737">
        <ele>282</ele>
        <time>2011-09-25T07:53:38Z</time>
      </trkpt>
      <trkpt lat="49.19697" lon="6.93737">
        <ele>282</ele>
        <time>2011-09-25T07:53:41Z</time>
      </trkpt>
      <trkpt lat="49.19696" lon="6.93738">
        <ele>283</ele>
        <time>2011-09-25T07:53:43Z</time>
      </trkpt>
      <trkpt lat="49.19695" lon="6.93739">
        <ele>285</ele>
        <time>2011-09-25T07:53:45Z</time>
      </trkpt>
      <trkpt lat="49.19693" lon="6.9374">
        <ele>288</ele>
        <time>2011-09-25T07:53:48Z</time>
      </trkpt>
      <trkpt lat="49.19693" lon="6.93742">
        <ele>290</ele>
        <time>2011-09-25T07:53:51Z</time>
      </trkpt>
      <trkpt lat="49.19694" lon="6.93742">
        <ele>298</ele>
        <time>2011-09-25T07:53:59Z</time>
      </trkpt>
      <trkpt lat="49.19693" lon="6.93743">
        <ele>299</ele>
        <time>2011-09-25T07:54:02Z</time>
      </trkpt>
      <trkpt lat="49.19692" lon="6.93742">
        <ele>299</ele>
        <time>2011-09-25T07:54:05Z</time>
      </trkpt>
      <trkpt lat="49.1969" lon="6.93741">
        <ele>299</ele>
        <time>2011-09-25T07:54:08Z</time>
      </trkpt>
      <trkpt lat="49.19692" lon="6.93738">
        <ele>297</ele>
        <time>2011-09-25T07:54:10Z</time>
      </trkpt>
      <trkpt lat="49.19693" lon="6.93737">
        <ele>296</ele>
        <time>2011-09-25T07:54:11Z</time>
      </trkpt>
      <trkpt lat="49.19695" lon="6.93736">
        <ele>294</ele>
        <time>2011-09-25T07:54:13Z</time>
      </trkpt>
      <trkpt lat="49.19696" lon="6.93736">
        <ele>292</ele>
        <time>2011-09-25T07:54:15Z</time>
      </trkpt>
      <trkpt lat="49.19697" lon="6.93735">
        <ele>291</ele>
        <time>2011-09-25T07:54:16Z</time>
      </trkpt>
      <trkpt lat="49.19698" lon="6.93733">
        <ele>288</ele>
        <time>2011-09-25T07:54:19Z</time>
      </trkpt>
      <trkpt lat="49.19696" lon="6.93733">
        <ele>286</ele>
        <time>2011-09-25T07:54:21Z</time>
      </trkpt>
      <trkpt lat="49.19695" lon="6.93734">
        <ele>285</ele>
        <time>2011-09-25T07:54:22Z</time>
      </trkpt>
      <trkpt lat="49.19693" lon="6.93734">
        <ele>285</ele>
        <time>2011-09-25T07:54:24Z</time>
      </trkpt>
      <trkpt lat="49.19692" lon="6.93736">
        <ele>285</ele>
        <time>2011-09-25T07:54:33Z</time>
      </trkpt>
      <trkpt lat="49.1969" lon="6.93738">
        <ele>285</ele>
        <time>2011-09-25T07:54:35Z</time>
      </trkpt>
      <trkpt lat="49.1969" lon="6.9374">
        <ele>285</ele>
        <time>2011-09-25T07:54:36Z</time>
      </trkpt>
      <trkpt lat="49.1969" lon="6.93742">
        <ele>285</ele>
        <time>2011-09-25T07:54:38Z</time>
      </trkpt>
      <trkpt lat="49.19689" lon="6.93745">
        <ele>285</ele>
        <time>2011-09-25T07:54:41Z</time>
      </trkpt>
      <trkpt lat="49.19688" lon="6.93748">
        <ele>285</ele>
        <time>2011-09-25T07:54:43Z</time>
      </trkpt>
      <trkpt lat="49.19688" lon="6.9375">
        <ele>286</ele>
        <time>2011-09-25T07:54:44Z</time>
      </trkpt>
      <trkpt lat="49.19688" lon="6.93752">
        <ele>287</ele>
        <time>2011-09-25T07:54:45Z</time>
      </trkpt>
      <trkpt lat="49.1969" lon="6.93754">
        <ele>289</ele>
        <time>2011-09-25T07:54:47Z</time>
      </trkpt>
      <trkpt lat="49.19691" lon="6.93755">
        <ele>290</ele>
        <time>2011-09-25T07:54:48Z</time>
      </trkpt>
      <trkpt lat="49.19693" lon="6.93757">
        <ele>291</ele>
        <time>2011-09-25T07:54:49Z</time>
      </trkpt>
      <trkpt lat="49.19692" lon="6.93758">
        <ele>291</ele>
        <time>2011-09-25T07:54:50Z</time>
      </trkpt>
      <trkpt lat="49.19691" lon="6.9376">
        <ele>291</ele>
        <time>2011-09-25T07:54:54Z</time>
      </trkpt>
      <trkpt lat="49.19693" lon="6.93759">
        <ele>291</ele>
        <time>2011-09-25T07:54:58Z</time>
      </trkpt>
      <trkpt lat="49.19695" lon="6.93762">
        <ele>291</ele>
        <time>2011-09-25T07:55:02Z</time>
      </trkpt>
      <trkpt lat="49.19695" lon="6.93764">
        <ele>291</ele>
        <time>2011-09-25T07:55:03Z</time>
      </trkpt>
      <trkpt lat="49.19694" lon="6.93766">
        <ele>291</ele>
        <time>2011-09-25T07:55:04Z</time>
      </trkpt>
      <trkpt lat="49.19694" lon="6.93768">
        <ele>291</ele>
        <time>2011-09-25T07:55:06Z</time>
      </trkpt>
      <trkpt lat="49.19693" lon="6.9377">
        <ele>291</ele>
        <time>2011-09-25T07:55:09Z</time>
      </trkpt>
      <trkpt lat="49.19692" lon="6.93772">
        <ele>291</ele>
        <time>2011-09-25T07:55:10Z</time>
      </trkpt>
      <trkpt lat="49.19693" lon="6.93774">
        <ele>291</ele>
        <time>2011-09-25T07:55:12Z</time>
      </trkpt>
      <trkpt lat="49.19693" lon="6.93777">
        <ele>291</ele>
        <time>2011-09-25T07:55:14Z</time>
      </trkpt>
      <trkpt lat="49.19693" lon="6.93778">
        <ele>291</ele>
        <time>2011-09-25T07:55:15Z</time>
      </trkpt>
      <trkpt lat="49.19693" lon="6.9378">
        <ele>291</ele>
        <time>2011-09-25T07:55:16Z</time>
      </trkpt>
      <trkpt lat="49.19693" lon="6.93783">
        <ele>291</ele>
        <time>2011-09-25T07:55:18Z</time>
      </trkpt>
      <trkpt lat="49.19693" lon="6.93785">
        <ele>291</ele>
        <time>2011-09-25T07:55:20Z</time>
      </trkpt>
      <trkpt lat="49.19693" lon="6.93787">
        <ele>291</ele>
        <time>2011-09-25T07:55:22Z</time>
      </trkpt>
      <trkpt lat="49.19695" lon="6.9379">
        <ele>292</ele>
        <time>2011-09-25T07:55:24Z</time>
      </trkpt>
      <trkpt lat="49.19696" lon="6.93792">
        <ele>293</ele>
        <time>2011-09-25T07:55:26Z</time>
      </trkpt>
      <trkpt lat="49.19698" lon="6.93795">
        <ele>293</ele>
        <time>2011-09-25T07:55:28Z</time>
      </trkpt>
      <trkpt lat="49.19698" lon="6.93797">
        <ele>293</ele>
        <time>2011-09-25T07:55:29Z</time>
      </trkpt>
      <trkpt lat="49.19699" lon="6.93799">
        <ele>293</ele>
        <time>2011-09-25T07:55:30Z</time>
      </trkpt>
      <trkpt lat="49.19698" lon="6.93801">
        <ele>293</ele>
        <time>2011-09-25T07:55:31Z</time>
      </trkpt>
      <trkpt lat="49.19698" lon="6.93803">
        <ele>293</ele>
        <time>2011-09-25T07:55:32Z</time>
      </trkpt>
      <trkpt lat="49.19696" lon="6.93806">
        <ele>293</ele>
        <time>2011-09-25T07:55:34Z</time>
      </trkpt>
      <trkpt lat="49.19696" lon="6.93809">
        <ele>293</ele>
        <time>2011-09-25T07:55:36Z</time>
      </trkpt>
      <trkpt lat="49.19697" lon="6.93809">
        <ele>293</ele>
        <time>2011-09-25T07:55:37Z</time>
      </trkpt>
      <trkpt lat="49.19698" lon="6.93811">
        <ele>293</ele>
        <time>2011-09-25T07:55:38Z</time>
      </trkpt>
      <trkpt lat="49.19698" lon="6.93813">
        <ele>293</ele>
        <time>2011-09-25T07:55:39Z</time>
      </trkpt>
      <trkpt lat="49.19699" lon="6.93816">
        <ele>293</ele>
        <time>2011-09-25T07:55:41Z</time>
      </trkpt>
      <trkpt lat="49.19699" lon="6.93817">
        <ele>293</ele>
        <time>2011-09-25T07:55:42Z</time>
      </trkpt>
      <trkpt lat="49.19699" lon="6.9382">
        <ele>293</ele>
        <time>2011-09-25T07:55:44Z</time>
      </trkpt>
      <trkpt lat="49.19699" lon="6.93823">
        <ele>293</ele>
        <time>2011-09-25T07:55:46Z</time>
      </trkpt>
      <trkpt lat="49.19701" lon="6.93826">
        <ele>293</ele>
        <time>2011-09-25T07:55:48Z</time>
      </trkpt>
      <trkpt lat="49.19702" lon="6.93828">
        <ele>293</ele>
        <time>2011-09-25T07:55:50Z</time>
      </trkpt>
      <trkpt lat="49.19701" lon="6.93831">
        <ele>293</ele>
        <time>2011-09-25T07:55:52Z</time>
      </trkpt>
      <trkpt lat="49.19703" lon="6.93833">
        <ele>293</ele>
        <time>2011-09-25T07:55:54Z</time>
      </trkpt>
      <trkpt lat="49.19702" lon="6.93837">
        <ele>293</ele>
        <time>2011-09-25T07:55:56Z</time>
      </trkpt>
      <trkpt lat="49.19702" lon="6.93839">
        <ele>293</ele>
        <time>2011-09-25T07:55:58Z</time>
      </trkpt>
      <trkpt lat="49.19701" lon="6.93841">
        <ele>293</ele>
        <time>2011-09-25T07:56:00Z</time>
      </trkpt>
      <trkpt lat="49.197" lon="6.93843">
        <ele>293</ele>
        <time>2011-09-25T07:56:02Z</time>
      </trkpt>
      <trkpt lat="49.19699" lon="6.93845">
        <ele>293</ele>
        <time>2011-09-25T07:56:04Z</time>
      </trkpt>
      <trkpt lat="49.19698" lon="6.93847">
        <ele>293</ele>
        <time>2011-09-25T07:56:06Z</time>
      </trkpt>
      <trkpt lat="49.19697" lon="6.93849">
        <ele>293</ele>
        <time>2011-09-25T07:56:08Z</time>
      </trkpt>
      <trkpt lat="49.19695" lon="6.93851">
        <ele>293</ele>
        <time>2011-09-25T07:56:10Z</time>
      </trkpt>
      <trkpt lat="49.19693" lon="6.93853">
        <ele>294</ele>
        <time>2011-09-25T07:56:12Z</time>
      </trkpt>
      <trkpt lat="49.19692" lon="6.93854">
        <ele>295</ele>
        <time>2011-09-25T07:56:14Z</time>
      </trkpt>
      <trkpt lat="49.1969" lon="6.93853">
        <ele>297</ele>
        <time>2011-09-25T07:56:18Z</time>
      </trkpt>
      <trkpt lat="49.19688" lon="6.93853">
        <ele>298</ele>
        <time>2011-09-25T07:56:20Z</time>
      </trkpt>
      <trkpt lat="49.19686" lon="6.93853">
        <ele>298</ele>
        <time>2011-09-25T07:56:22Z</time>
      </trkpt>
      <trkpt lat="49.19684" lon="6.93853">
        <ele>298</ele>
        <time>2011-09-25T07:56:24Z</time>
      </trkpt>
      <trkpt lat="49.19683" lon="6.93853">
        <ele>298</ele>
        <time>2011-09-25T07:56:26Z</time>
      </trkpt>
      <trkpt lat="49.19681" lon="6.93853">
        <ele>298</ele>
        <time>2011-09-25T07:56:28Z</time>
      </trkpt>
      <trkpt lat="49.1968" lon="6.93852">
        <ele>298</ele>
        <time>2011-09-25T07:56:30Z</time>
      </trkpt>
      <trkpt lat="49.19678" lon="6.93851">
        <ele>298</ele>
        <time>2011-09-25T07:56:32Z</time>
      </trkpt>
      <trkpt lat="49.19677" lon="6.9385">
        <ele>298</ele>
        <time>2011-09-25T07:56:34Z</time>
      </trkpt>
      <trkpt lat="49.19675" lon="6.93849">
        <ele>298</ele>
        <time>2011-09-25T07:56:36Z</time>
      </trkpt>
      <trkpt lat="49.19673" lon="6.93847">
        <ele>298</ele>
        <time>2011-09-25T07:56:38Z</time>
      </trkpt>
      <trkpt lat="49.19672" lon="6.93846">
        <ele>298</ele>
        <time>2011-09-25T07:56:40Z</time>
      </trkpt>
      <trkpt lat="49.19669" lon="6.93846">
        <ele>298</ele>
        <time>2011-09-25T07:56:42Z</time>
      </trkpt>
      <trkpt lat="49.19668" lon="6.93844">
        <ele>298</ele>
        <time>2011-09-25T07:56:44Z</time>
      </trkpt>
      <trkpt lat="49.19667" lon="6.93842">
        <ele>298</ele>
        <time>2011-09-25T07:56:47Z</time>
      </trkpt>
      <trkpt lat="49.19665" lon="6.93842">
        <ele>298</ele>
        <time>2011-09-25T07:56:49Z</time>
      </trkpt>
      <trkpt lat="49.19664" lon="6.93842">
        <ele>298</ele>
        <time>2011-09-25T07:56:52Z</time>
      </trkpt>
      <trkpt lat="49.19662" lon="6.93842">
        <ele>298</ele>
        <time>2011-09-25T07:56:54Z</time>
      </trkpt>
      <trkpt lat="49.19661" lon="6.93841">
        <ele>298</ele>
        <time>2011-09-25T07:56:55Z</time>
      </trkpt>
      <trkpt lat="49.19659" lon="6.93841">
        <ele>299</ele>
        <time>2011-09-25T07:56:56Z</time>
      </trkpt>
      <trkpt lat="49.19658" lon="6.9384">
        <ele>300</ele>
        <time>2011-09-25T07:56:58Z</time>
      </trkpt>
      <trkpt lat="49.19656" lon="6.93839">
        <ele>301</ele>
        <time>2011-09-25T07:57:00Z</time>
      </trkpt>
      <trkpt lat="49.19655" lon="6.93838">
        <ele>302</ele>
        <time>2011-09-25T07:57:03Z</time>
      </trkpt>
      <trkpt lat="49.19653" lon="6.93837">
        <ele>303</ele>
        <time>2011-09-25T07:57:05Z</time>
      </trkpt>
      <trkpt lat="49.19652" lon="6.93837">
        <ele>303</ele>
        <time>2011-09-25T07:57:07Z</time>
      </trkpt>
      <trkpt lat="49.19651" lon="6.93836">
        <ele>303</ele>
        <time>2011-09-25T07:57:08Z</time>
      </trkpt>
      <trkpt lat="49.19649" lon="6.93835">
        <ele>303</ele>
        <time>2011-09-25T07:57:10Z</time>
      </trkpt>
      <trkpt lat="49.19647" lon="6.93834">
        <ele>303</ele>
        <time>2011-09-25T07:57:12Z</time>
      </trkpt>
      <trkpt lat="49.19646" lon="6.93833">
        <ele>303</ele>
        <time>2011-09-25T07:57:13Z</time>
      </trkpt>
      <trkpt lat="49.19644" lon="6.93833">
        <ele>303</ele>
        <time>2011-09-25T07:57:15Z</time>
      </trkpt>
      <trkpt lat="49.19641" lon="6.93832">
        <ele>303</ele>
        <time>2011-09-25T07:57:17Z</time>
      </trkpt>
      <trkpt lat="49.1964" lon="6.93831">
        <ele>303</ele>
        <time>2011-09-25T07:57:18Z</time>
      </trkpt>
      <trkpt lat="49.19639" lon="6.9383">
        <ele>303</ele>
        <time>2011-09-25T07:57:20Z</time>
      </trkpt>
      <trkpt lat="49.19637" lon="6.93829">
        <ele>303</ele>
        <time>2011-09-25T07:57:22Z</time>
      </trkpt>
      <trkpt lat="49.19635" lon="6.93829">
        <ele>303</ele>
        <time>2011-09-25T07:57:23Z</time>
      </trkpt>
      <trkpt lat="49.19634" lon="6.93829">
        <ele>303</ele>
        <time>2011-09-25T07:57:24Z</time>
      </trkpt>
      <trkpt lat="49.19632" lon="6.93828">
        <ele>303</ele>
        <time>2011-09-25T07:57:26Z</time>
      </trkpt>
      <trkpt lat="49.19631" lon="6.93828">
        <ele>303</ele>
        <time>2011-09-25T07:57:28Z</time>
      </trkpt>
      <trkpt lat="49.1963" lon="6.93827">
        <ele>303</ele>
        <time>2011-09-25T07:57:30Z</time>
      </trkpt>
      <trkpt lat="49.19628" lon="6.93827">
        <ele>303</ele>
        <time>2011-09-25T07:57:31Z</time>
      </trkpt>
      <trkpt lat="49.19627" lon="6.93827">
        <ele>303</ele>
        <time>2011-09-25T07:57:32Z</time>
      </trkpt>
      <trkpt lat="49.19626" lon="6.93827">
        <ele>303</ele>
        <time>2011-09-25T07:57:33Z</time>
      </trkpt>
      <trkpt lat="49.19624" lon="6.93827">
        <ele>303</ele>
        <time>2011-09-25T07:57:34Z</time>
      </trkpt>
      <trkpt lat="49.19623" lon="6.93826">
        <ele>303</ele>
        <time>2011-09-25T07:57:36Z</time>
      </trkpt>
      <trkpt lat="49.19621" lon="6.93825">
        <ele>303</ele>
        <time>2011-09-25T07:57:38Z</time>
      </trkpt>
      <trkpt lat="49.1962" lon="6.93825">
        <ele>303</ele>
        <time>2011-09-25T07:57:39Z</time>
      </trkpt>
      <trkpt lat="49.19618" lon="6.93823">
        <ele>303</ele>
        <time>2011-09-25T07:57:41Z</time>
      </trkpt>
      <trkpt lat="49.19616" lon="6.93821">
        <ele>303</ele>
        <time>2011-09-25T07:57:43Z</time>
      </trkpt>
      <trkpt lat="49.19614" lon="6.93821">
        <ele>303</ele>
        <time>2011-09-25T07:57:44Z</time>
      </trkpt>
      <trkpt lat="49.19613" lon="6.9382">
        <ele>303</ele>
        <time>2011-09-25T07:57:45Z</time>
      </trkpt>
      <trkpt lat="49.19611" lon="6.9382">
        <ele>303</ele>
        <time>2011-09-25T07:57:46Z</time>
      </trkpt>
      <trkpt lat="49.1961" lon="6.9382">
        <ele>303</ele>
        <time>2011-09-25T07:57:47Z</time>
      </trkpt>
      <trkpt lat="49.19608" lon="6.93819">
        <ele>303</ele>
        <time>2011-09-25T07:57:49Z</time>
      </trkpt>
      <trkpt lat="49.19605" lon="6.93818">
        <ele>304</ele>
        <time>2011-09-25T07:57:51Z</time>
      </trkpt>
      <trkpt lat="49.19603" lon="6.93817">
        <ele>304</ele>
        <time>2011-09-25T07:57:53Z</time>
      </trkpt>
      <trkpt lat="49.19602" lon="6.93818">
        <ele>305</ele>
        <time>2011-09-25T07:57:54Z</time>
      </trkpt>
      <trkpt lat="49.19601" lon="6.93818">
        <ele>306</ele>
        <time>2011-09-25T07:57:55Z</time>
      </trkpt>
      <trkpt lat="49.19599" lon="6.93817">
        <ele>308</ele>
        <time>2011-09-25T07:57:57Z</time>
      </trkpt>
      <trkpt lat="49.19598" lon="6.93815">
        <ele>309</ele>
        <time>2011-09-25T07:57:59Z</time>
      </trkpt>
      <trkpt lat="49.19596" lon="6.93814">
        <ele>309</ele>
        <time>2011-09-25T07:58:01Z</time>
      </trkpt>
      <trkpt lat="49.19595" lon="6.93812">
        <ele>309</ele>
        <time>2011-09-25T07:58:04Z</time>
      </trkpt>
      <trkpt lat="49.19594" lon="6.93811">
        <ele>309</ele>
        <time>2011-09-25T07:58:06Z</time>
      </trkpt>
      <trkpt lat="49.19592" lon="6.9381">
        <ele>309</ele>
        <time>2011-09-25T07:58:09Z</time>
      </trkpt>
      <trkpt lat="49.19591" lon="6.93809">
        <ele>309</ele>
        <time>2011-09-25T07:58:11Z</time>
      </trkpt>
      <trkpt lat="49.1959" lon="6.93808">
        <ele>309</ele>
        <time>2011-09-25T07:58:17Z</time>
      </trkpt>
      <trkpt lat="49.19588" lon="6.93808">
        <ele>309</ele>
        <time>2011-09-25T07:58:20Z</time>
      </trkpt>
      <trkpt lat="49.19586" lon="6.93807">
        <ele>309</ele>
        <time>2011-09-25T07:58:22Z</time>
      </trkpt>
      <trkpt lat="49.19585" lon="6.93807">
        <ele>309</ele>
        <time>2011-09-25T07:58:23Z</time>
      </trkpt>
      <trkpt lat="49.19584" lon="6.93807">
        <ele>309</ele>
        <time>2011-09-25T07:58:24Z</time>
      </trkpt>
      <trkpt lat="49.19582" lon="6.93807">
        <ele>309</ele>
        <time>2011-09-25T07:58:26Z</time>
      </trkpt>
      <trkpt lat="49.1958" lon="6.93806">
        <ele>309</ele>
        <time>2011-09-25T07:58:28Z</time>
      </trkpt>
      <trkpt lat="49.19579" lon="6.93806">
        <ele>309</ele>
        <time>2011-09-25T07:58:29Z</time>
      </trkpt>
      <trkpt lat="49.19576" lon="6.93806">
        <ele>309</ele>
        <time>2011-09-25T07:58:31Z</time>
      </trkpt>
      <trkpt lat="49.19575" lon="6.93806">
        <ele>309</ele>
        <time>2011-09-25T07:58:32Z</time>
      </trkpt>
      <trkpt lat="49.19573" lon="6.93806">
        <ele>310</ele>
        <time>2011-09-25T07:58:34Z</time>
      </trkpt>
      <trkpt lat="49.19572" lon="6.93806">
        <ele>310</ele>
        <time>2011-09-25T07:58:35Z</time>
      </trkpt>
      <trkpt lat="49.19569" lon="6.93807">
        <ele>311</ele>
        <time>2011-09-25T07:58:37Z</time>
      </trkpt>
      <trkpt lat="49.19568" lon="6.93806">
        <ele>311</ele>
        <time>2011-09-25T07:58:38Z</time>
      </trkpt>
      <trkpt lat="49.19567" lon="6.93806">
        <ele>312</ele>
        <time>2011-09-25T07:58:39Z</time>
      </trkpt>
      <trkpt lat="49.19566" lon="6.93806">
        <ele>312</ele>
        <time>2011-09-25T07:58:40Z</time>
      </trkpt>
      <trkpt lat="49.19564" lon="6.93805">
        <ele>313</ele>
        <time>2011-09-25T07:58:42Z</time>
      </trkpt>
      <trkpt lat="49.19563" lon="6.93805">
        <ele>313</ele>
        <time>2011-09-25T07:58:44Z</time>
      </trkpt>
      <trkpt lat="49.19562" lon="6.93805">
        <ele>314</ele>
        <time>2011-09-25T07:58:46Z</time>
      </trkpt>
      <trkpt lat="49.19561" lon="6.93805">
        <ele>314</ele>
        <time>2011-09-25T07:58:47Z</time>
      </trkpt>
      <trkpt lat="49.19558" lon="6.93805">
        <ele>314</ele>
        <time>2011-09-25T07:58:49Z</time>
      </trkpt>
      <trkpt lat="49.19557" lon="6.93804">
        <ele>314</ele>
        <time>2011-09-25T07:58:50Z</time>
      </trkpt>
      <trkpt lat="49.19555" lon="6.93803">
        <ele>315</ele>
        <time>2011-09-25T07:58:52Z</time>
      </trkpt>
      <trkpt lat="49.19554" lon="6.93802">
        <ele>315</ele>
        <time>2011-09-25T07:58:53Z</time>
      </trkpt>
      <trkpt lat="49.19552" lon="6.93801">
        <ele>315</ele>
        <time>2011-09-25T07:58:55Z</time>
      </trkpt>
      <trkpt lat="49.19551" lon="6.938">
        <ele>315</ele>
        <time>2011-09-25T07:58:57Z</time>
      </trkpt>
      <trkpt lat="49.19549" lon="6.938">
        <ele>315</ele>
        <time>2011-09-25T07:58:59Z</time>
      </trkpt>
      <trkpt lat="49.19547" lon="6.93801">
        <ele>315</ele>
        <time>2011-09-25T07:59:00Z</time>
      </trkpt>
      <trkpt lat="49.19545" lon="6.93802">
        <ele>315</ele>
        <time>2011-09-25T07:59:02Z</time>
      </trkpt>
      <trkpt lat="49.19543" lon="6.93802">
        <ele>315</ele>
        <time>2011-09-25T07:59:04Z</time>
      </trkpt>
      <trkpt lat="49.19542" lon="6.93802">
        <ele>315</ele>
        <time>2011-09-25T07:59:05Z</time>
      </trkpt>
      <trkpt lat="49.1954" lon="6.93802">
        <ele>315</ele>
        <time>2011-09-25T07:59:07Z</time>
      </trkpt>
      <trkpt lat="49.19539" lon="6.93802">
        <ele>315</ele>
        <time>2011-09-25T07:59:08Z</time>
      </trkpt>
      <trkpt lat="49.19538" lon="6.93802">
        <ele>315</ele>
        <time>2011-09-25T07:59:09Z</time>
      </trkpt>
      <trkpt lat="49.19537" lon="6.93802">
        <ele>315</ele>
        <time>2011-09-25T07:59:10Z</time>
      </trkpt>
      <trkpt lat="49.19535" lon="6.93802">
        <ele>315</ele>
        <time>2011-09-25T07:59:11Z</time>
      </trkpt>
      <trkpt lat="49.19533" lon="6.93802">
        <ele>315</ele>
        <time>2011-09-25T07:59:12Z</time>
      </trkpt>
      <trkpt lat="49.19532" lon="6.93802">
        <ele>315</ele>
        <time>2011-09-25T07:59:13Z</time>
      </trkpt>
      <trkpt lat="49.1953" lon="6.93802">
        <ele>315</ele>
        <time>2011-09-25T07:59:15Z</time>
      </trkpt>
      <trkpt lat="49.19528" lon="6.93802">
        <ele>315</ele>
        <time>2011-09-25T07:59:17Z</time>
      </trkpt>
      <trkpt lat="49.19527" lon="6.93802">
        <ele>315</ele>
        <time>2011-09-25T07:59:18Z</time>
      </trkpt>
      <trkpt lat="49.19524" lon="6.93802">
        <ele>315</ele>
        <time>2011-09-25T07:59:20Z</time>
      </trkpt>
      <trkpt lat="49.19523" lon="6.93801">
        <ele>315</ele>
        <time>2011-09-25T07:59:21Z</time>
      </trkpt>
      <trkpt lat="49.19521" lon="6.93801">
        <ele>315</ele>
        <time>2011-09-25T07:59:22Z</time>
      </trkpt>
      <trkpt lat="49.1952" lon="6.93802">
        <ele>316</ele>
        <time>2011-09-25T07:59:23Z</time>
      </trkpt>
      <trkpt lat="49.19519" lon="6.93802">
        <ele>316</ele>
        <time>2011-09-25T07:59:25Z</time>
      </trkpt>
      <trkpt lat="49.19518" lon="6.93802">
        <ele>317</ele>
        <time>2011-09-25T07:59:27Z</time>
      </trkpt>
      <trkpt lat="49.19516" lon="6.93802">
        <ele>317</ele>
        <time>2011-09-25T07:59:29Z</time>
      </trkpt>
      <trkpt lat="49.19515" lon="6.93802">
        <ele>317</ele>
        <time>2011-09-25T07:59:32Z</time>
      </trkpt>
      <trkpt lat="49.19514" lon="6.93801">
        <ele>317</ele>
        <time>2011-09-25T07:59:39Z</time>
      </trkpt>
      <trkpt lat="49.19512" lon="6.93801">
        <ele>317</ele>
        <time>2011-09-25T07:59:41Z</time>
      </trkpt>
      <trkpt lat="49.19511" lon="6.93801">
        <ele>317</ele>
        <time>2011-09-25T07:59:44Z</time>
      </trkpt>
      <trkpt lat="49.1951" lon="6.93803">
        <ele>318</ele>
        <time>2011-09-25T07:59:46Z</time>
      </trkpt>
      <trkpt lat="49.19511" lon="6.93801">
        <ele>318</ele>
        <time>2011-09-25T07:59:52Z</time>
      </trkpt>
      <trkpt lat="49.19509" lon="6.93802">
        <ele>318</ele>
        <time>2011-09-25T07:59:56Z</time>
      </trkpt>
      <trkpt lat="49.19508" lon="6.93803">
        <ele>318</ele>
        <time>2011-09-25T07:59:57Z</time>
      </trkpt>
      <trkpt lat="49.19505" lon="6.93803">
        <ele>318</ele>
        <time>2011-09-25T07:59:59Z</time>
      </trkpt>
      <trkpt lat="49.19504" lon="6.93802">
        <ele>318</ele>
        <time>2011-09-25T08:00:00Z</time>
      </trkpt>
      <trkpt lat="49.19503" lon="6.93803">
        <ele>318</ele>
        <time>2011-09-25T08:00:01Z</time>
      </trkpt>
      <trkpt lat="49.19501" lon="6.93803">
        <ele>319</ele>
        <time>2011-09-25T08:00:03Z</time>
      </trkpt>
      <trkpt lat="49.195" lon="6.93803">
        <ele>319</ele>
        <time>2011-09-25T08:00:04Z</time>
      </trkpt>
      <trkpt lat="49.19498" lon="6.93802">
        <ele>319</ele>
        <time>2011-09-25T08:00:06Z</time>
      </trkpt>
      <trkpt lat="49.19495" lon="6.93801">
        <ele>319</ele>
        <time>2011-09-25T08:00:09Z</time>
      </trkpt>
      <trkpt lat="49.19494" lon="6.938">
        <ele>320</ele>
        <time>2011-09-25T08:00:11Z</time>
      </trkpt>
      <trkpt lat="49.19493" lon="6.938">
        <ele>320</ele>
        <time>2011-09-25T08:00:13Z</time>
      </trkpt>
      <trkpt lat="49.19491" lon="6.93799">
        <ele>320</ele>
        <time>2011-09-25T08:00:14Z</time>
      </trkpt>
      <trkpt lat="49.1949" lon="6.93799">
        <ele>320</ele>
        <time>2011-09-25T08:00:15Z</time>
      </trkpt>
      <trkpt lat="49.19488" lon="6.93799">
        <ele>320</ele>
        <time>2011-09-25T08:00:17Z</time>
      </trkpt>
      <trkpt lat="49.19486" lon="6.93798">
        <ele>320</ele>
        <time>2011-09-25T08:00:19Z</time>
      </trkpt>
      <trkpt lat="49.19484" lon="6.93798">
        <ele>320</ele>
        <time>2011-09-25T08:00:21Z</time>
      </trkpt>
      <trkpt lat="49.19483" lon="6.93798">
        <ele>320</ele>
        <time>2011-09-25T08:00:22Z</time>
      </trkpt>
      <trkpt lat="49.19482" lon="6.93796">
        <ele>320</ele>
        <time>2011-09-25T08:00:24Z</time>
      </trkpt>
      <trkpt lat="49.1948" lon="6.93796">
        <ele>320</ele>
        <time>2011-09-25T08:00:26Z</time>
      </trkpt>
      <trkpt lat="49.19479" lon="6.93795">
        <ele>320</ele>
        <time>2011-09-25T08:00:27Z</time>
      </trkpt>
      <trkpt lat="49.19477" lon="6.93795">
        <ele>320</ele>
        <time>2011-09-25T08:00:28Z</time>
      </trkpt>
      <trkpt lat="49.19475" lon="6.93795">
        <ele>320</ele>
        <time>2011-09-25T08:00:29Z</time>
      </trkpt>
      <trkpt lat="49.19474" lon="6.93794">
        <ele>320</ele>
        <time>2011-09-25T08:00:30Z</time>
      </trkpt>
      <trkpt lat="49.19471" lon="6.93793">
        <ele>320</ele>
        <time>2011-09-25T08:00:32Z</time>
      </trkpt>
      <trkpt lat="49.1947" lon="6.93793">
        <ele>320</ele>
        <time>2011-09-25T08:00:33Z</time>
      </trkpt>
      <trkpt lat="49.19468" lon="6.93792">
        <ele>320</ele>
        <time>2011-09-25T08:00:34Z</time>
      </trkpt>
      <trkpt lat="49.19467" lon="6.93792">
        <ele>320</ele>
        <time>2011-09-25T08:00:35Z</time>
      </trkpt>
      <trkpt lat="49.19466" lon="6.93791">
        <ele>320</ele>
        <time>2011-09-25T08:00:36Z</time>
      </trkpt>
      <trkpt lat="49.19464" lon="6.93791">
        <ele>320</ele>
        <time>2011-09-25T08:00:37Z</time>
      </trkpt>
      <trkpt lat="49.19463" lon="6.93791">
        <ele>320</ele>
        <time>2011-09-25T08:00:38Z</time>
      </trkpt>
      <trkpt lat="49.19462" lon="6.93791">
        <ele>320</ele>
        <time>2011-09-25T08:00:39Z</time>
      </trkpt>
      <trkpt lat="49.19461" lon="6.93791">
        <ele>320</ele>
        <time>2011-09-25T08:00:40Z</time>
      </trkpt>
      <trkpt lat="49.19459" lon="6.93792">
        <ele>320</ele>
        <time>2011-09-25T08:00:42Z</time>
      </trkpt>
      <trkpt lat="49.19458" lon="6.93793">
        <ele>320</ele>
        <time>2011-09-25T08:00:43Z</time>
      </trkpt>
      <trkpt lat="49.19456" lon="6.93793">
        <ele>320</ele>
        <time>2011-09-25T08:00:44Z</time>
      </trkpt>
      <trkpt lat="49.19454" lon="6.93793">
        <ele>320</ele>
        <time>2011-09-25T08:00:46Z</time>
      </trkpt>
      <trkpt lat="49.19453" lon="6.93793">
        <ele>321</ele>
        <time>2011-09-25T08:00:48Z</time>
      </trkpt>
      <trkpt lat="49.1945" lon="6.93794">
        <ele>321</ele>
        <time>2011-09-25T08:00:50Z</time>
      </trkpt>
      <trkpt lat="49.19449" lon="6.93796">
        <ele>321</ele>
        <time>2011-09-25T08:00:52Z</time>
      </trkpt>
      <trkpt lat="49.19448" lon="6.93797">
        <ele>322</ele>
        <time>2011-09-25T08:00:54Z</time>
      </trkpt>
      <trkpt lat="49.19446" lon="6.93798">
        <ele>322</ele>
        <time>2011-09-25T08:00:56Z</time>
      </trkpt>
      <trkpt lat="49.19445" lon="6.938">
        <ele>322</ele>
        <time>2011-09-25T08:00:58Z</time>
      </trkpt>
      <trkpt lat="49.19443" lon="6.93801">
        <ele>322</ele>
        <time>2011-09-25T08:00:59Z</time>
      </trkpt>
      <trkpt lat="49.19441" lon="6.93803">
        <ele>322</ele>
        <time>2011-09-25T08:01:01Z</time>
      </trkpt>
      <trkpt lat="49.1944" lon="6.93803">
        <ele>322</ele>
        <time>2011-09-25T08:01:02Z</time>
      </trkpt>
      <trkpt lat="49.19438" lon="6.93805">
        <ele>323</ele>
        <time>2011-09-25T08:01:03Z</time>
      </trkpt>
      <trkpt lat="49.19436" lon="6.93806">
        <ele>323</ele>
        <time>2011-09-25T08:01:04Z</time>
      </trkpt>
      <trkpt lat="49.19435" lon="6.93807">
        <ele>323</ele>
        <time>2011-09-25T08:01:05Z</time>
      </trkpt>
      <trkpt lat="49.19434" lon="6.93809">
        <ele>324</ele>
        <time>2011-09-25T08:01:06Z</time>
      </trkpt>
      <trkpt lat="49.19431" lon="6.93811">
        <ele>324</ele>
        <time>2011-09-25T08:01:08Z</time>
      </trkpt>
      <trkpt lat="49.19429" lon="6.93814">
        <ele>325</ele>
        <time>2011-09-25T08:01:10Z</time>
      </trkpt>
      <trkpt lat="49.19428" lon="6.93816">
        <ele>325</ele>
        <time>2011-09-25T08:01:11Z</time>
      </trkpt>
      <trkpt lat="49.19427" lon="6.93817">
        <ele>326</ele>
        <time>2011-09-25T08:01:12Z</time>
      </trkpt>
      <trkpt lat="49.19426" lon="6.93819">
        <ele>327</ele>
        <time>2011-09-25T08:01:13Z</time>
      </trkpt>
      <trkpt lat="49.19425" lon="6.93821">
        <ele>328</ele>
        <time>2011-09-25T08:01:14Z</time>
      </trkpt>
      <trkpt lat="49.19424" lon="6.93823">
        <ele>329</ele>
        <time>2011-09-25T08:01:15Z</time>
      </trkpt>
      <trkpt lat="49.19423" lon="6.93825">
        <ele>330</ele>
        <time>2011-09-25T08:01:16Z</time>
      </trkpt>
      <trkpt lat="49.19422" lon="6.93826">
        <ele>331</ele>
        <time>2011-09-25T08:01:17Z</time>
      </trkpt>
      <trkpt lat="49.1942" lon="6.93827">
        <ele>332</ele>
        <time>2011-09-25T08:01:18Z</time>
      </trkpt>
      <trkpt lat="49.19419" lon="6.93827">
        <ele>333</ele>
        <time>2011-09-25T08:01:20Z</time>
      </trkpt>
      <trkpt lat="49.19417" lon="6.93828">
        <ele>334</ele>
        <time>2011-09-25T08:01:22Z</time>
      </trkpt>
      <trkpt lat="49.19415" lon="6.9383">
        <ele>334</ele>
        <time>2011-09-25T08:01:24Z</time>
      </trkpt>
      <trkpt lat="49.19414" lon="6.9383">
        <ele>334</ele>
        <time>2011-09-25T08:01:25Z</time>
      </trkpt>
      <trkpt lat="49.19413" lon="6.93832">
        <ele>334</ele>
        <time>2011-09-25T08:01:28Z</time>
      </trkpt>
      <trkpt lat="49.19415" lon="6.93834">
        <ele>334</ele>
        <time>2011-09-25T08:01:30Z</time>
      </trkpt>
      <trkpt lat="49.19416" lon="6.93833">
        <ele>334</ele>
        <time>2011-09-25T08:01:35Z</time>
      </trkpt>
      <trkpt lat="49.19416" lon="6.93835">
        <ele>333</ele>
        <time>2011-09-25T08:01:38Z</time>
      </trkpt>
      <trkpt lat="49.19416" lon="6.93837">
        <ele>332</ele>
        <time>2011-09-25T08:01:39Z</time>
      </trkpt>
      <trkpt lat="49.19414" lon="6.93839">
        <ele>330</ele>
        <time>2011-09-25T08:01:41Z</time>
      </trkpt>
      <trkpt lat="49.19413" lon="6.93842">
        <ele>328</ele>
        <time>2011-09-25T08:01:43Z</time>
      </trkpt>
      <trkpt lat="49.19411" lon="6.93844">
        <ele>328</ele>
        <time>2011-09-25T08:01:45Z</time>
      </trkpt>
      <trkpt lat="49.1941" lon="6.93846">
        <ele>327</ele>
        <time>2011-09-25T08:01:47Z</time>
      </trkpt>
      <trkpt lat="49.19409" lon="6.93849">
        <ele>326</ele>
        <time>2011-09-25T08:01:49Z</time>
      </trkpt>
      <trkpt lat="49.19408" lon="6.93851">
        <ele>325</ele>
        <time>2011-09-25T08:01:50Z</time>
      </trkpt>
      <trkpt lat="49.19406" lon="6.93853">
        <ele>324</ele>
        <time>2011-09-25T08:01:52Z</time>
      </trkpt>
      <trkpt lat="49.19405" lon="6.93855">
        <ele>324</ele>
        <time>2011-09-25T08:01:53Z</time>
      </trkpt>
      <trkpt lat="49.19404" lon="6.93857">
        <ele>323</ele>
        <time>2011-09-25T08:01:54Z</time>
      </trkpt>
      <trkpt lat="49.19402" lon="6.93858">
        <ele>323</ele>
        <time>2011-09-25T08:01:55Z</time>
      </trkpt>
      <trkpt lat="49.19401" lon="6.9386">
        <ele>322</ele>
        <time>2011-09-25T08:01:57Z</time>
      </trkpt>
      <trkpt lat="49.19399" lon="6.93861">
        <ele>321</ele>
        <time>2011-09-25T08:01:58Z</time>
      </trkpt>
      <trkpt lat="49.19397" lon="6.93864">
        <ele>321</ele>
        <time>2011-09-25T08:02:00Z</time>
      </trkpt>
      <trkpt lat="49.19395" lon="6.93867">
        <ele>320</ele>
        <time>2011-09-25T08:02:02Z</time>
      </trkpt>
      <trkpt lat="49.19394" lon="6.93869">
        <ele>319</ele>
        <time>2011-09-25T08:02:04Z</time>
      </trkpt>
      <trkpt lat="49.19392" lon="6.93872">
        <ele>318</ele>
        <time>2011-09-25T08:02:06Z</time>
      </trkpt>
      <trkpt lat="49.1939" lon="6.93873">
        <ele>318</ele>
        <time>2011-09-25T08:02:08Z</time>
      </trkpt>
      <trkpt lat="49.19389" lon="6.93875">
        <ele>317</ele>
        <time>2011-09-25T08:02:09Z</time>
      </trkpt>
      <trkpt lat="49.19387" lon="6.93875">
        <ele>317</ele>
        <time>2011-09-25T08:02:10Z</time>
      </trkpt>
      <trkpt lat="49.19386" lon="6.93877">
        <ele>316</ele>
        <time>2011-09-25T08:02:12Z</time>
      </trkpt>
      <trkpt lat="49.19384" lon="6.9388">
        <ele>316</ele>
        <time>2011-09-25T08:02:14Z</time>
      </trkpt>
      <trkpt lat="49.19383" lon="6.93882">
        <ele>316</ele>
        <time>2011-09-25T08:02:15Z</time>
      </trkpt>
      <trkpt lat="49.19381" lon="6.93886">
        <ele>316</ele>
        <time>2011-09-25T08:02:17Z</time>
      </trkpt>
      <trkpt lat="49.19379" lon="6.93887">
        <ele>316</ele>
        <time>2011-09-25T08:02:18Z</time>
      </trkpt>
      <trkpt lat="49.19378" lon="6.93888">
        <ele>316</ele>
        <time>2011-09-25T08:02:19Z</time>
      </trkpt>
      <trkpt lat="49.19376" lon="6.93891">
        <ele>316</ele>
        <time>2011-09-25T08:02:21Z</time>
      </trkpt>
      <trkpt lat="49.19374" lon="6.93893">
        <ele>316</ele>
        <time>2011-09-25T08:02:23Z</time>
      </trkpt>
      <trkpt lat="49.19373" lon="6.93895">
        <ele>316</ele>
        <time>2011-09-25T08:02:25Z</time>
      </trkpt>
      <trkpt lat="49.19371" lon="6.93898">
        <ele>316</ele>
        <time>2011-09-25T08:02:26Z</time>
      </trkpt>
      <trkpt lat="49.19371" lon="6.939">
        <ele>316</ele>
        <time>2011-09-25T08:02:27Z</time>
      </trkpt>
      <trkpt lat="49.1937" lon="6.93901">
        <ele>316</ele>
        <time>2011-09-25T08:02:28Z</time>
      </trkpt>
      <trkpt lat="49.19368" lon="6.93904">
        <ele>317</ele>
        <time>2011-09-25T08:02:30Z</time>
      </trkpt>
      <trkpt lat="49.19366" lon="6.93907">
        <ele>318</ele>
        <time>2011-09-25T08:02:32Z</time>
      </trkpt>
      <trkpt lat="49.19366" lon="6.93909">
        <ele>318</ele>
        <time>2011-09-25T08:02:33Z</time>
      </trkpt>
      <trkpt lat="49.19366" lon="6.93911">
        <ele>318</ele>
        <time>2011-09-25T08:02:34Z</time>
      </trkpt>
      <trkpt lat="49.19366" lon="6.93913">
        <ele>319</ele>
        <time>2011-09-25T08:02:35Z</time>
      </trkpt>
      <trkpt lat="49.19365" lon="6.93916">
        <ele>319</ele>
        <time>2011-09-25T08:02:37Z</time>
      </trkpt>
      <trkpt lat="49.19364" lon="6.93918">
        <ele>320</ele>
        <time>2011-09-25T08:02:38Z</time>
      </trkpt>
      <trkpt lat="49.19363" lon="6.9392">
        <ele>320</ele>
        <time>2011-09-25T08:02:39Z</time>
      </trkpt>
      <trkpt lat="49.19362" lon="6.93922">
        <ele>320</ele>
        <time>2011-09-25T08:02:40Z</time>
      </trkpt>
      <trkpt lat="49.19361" lon="6.93924">
        <ele>320</ele>
        <time>2011-09-25T08:02:41Z</time>
      </trkpt>
      <trkpt lat="49.1936" lon="6.93925">
        <ele>320</ele>
        <time>2011-09-25T08:02:42Z</time>
      </trkpt>
      <trkpt lat="49.19358" lon="6.93928">
        <ele>320</ele>
        <time>2011-09-25T08:02:44Z</time>
      </trkpt>
      <trkpt lat="49.19357" lon="6.9393">
        <ele>320</ele>
        <time>2011-09-25T08:02:45Z</time>
      </trkpt>
      <trkpt lat="49.19356" lon="6.93931">
        <ele>320</ele>
        <time>2011-09-25T08:02:46Z</time>
      </trkpt>
      <trkpt lat="49.19355" lon="6.93934">
        <ele>320</ele>
        <time>2011-09-25T08:02:48Z</time>
      </trkpt>
      <trkpt lat="49.19354" lon="6.93937">
        <ele>320</ele>
        <time>2011-09-25T08:02:50Z</time>
      </trkpt>
      <trkpt lat="49.19352" lon="6.93941">
        <ele>320</ele>
        <time>2011-09-25T08:02:52Z</time>
      </trkpt>
      <trkpt lat="49.19351" lon="6.93944">
        <ele>320</ele>
        <time>2011-09-25T08:02:53Z</time>
      </trkpt>
      <trkpt lat="49.1935" lon="6.93945">
        <ele>320</ele>
        <time>2011-09-25T08:02:54Z</time>
      </trkpt>
      <trkpt lat="49.1935" lon="6.93947">
        <ele>320</ele>
        <time>2011-09-25T08:02:55Z</time>
      </trkpt>
      <trkpt lat="49.19349" lon="6.93949">
        <ele>320</ele>
        <time>2011-09-25T08:02:56Z</time>
      </trkpt>
      <trkpt lat="49.19348" lon="6.93951">
        <ele>320</ele>
        <time>2011-09-25T08:02:58Z</time>
      </trkpt>
      <trkpt lat="49.19347" lon="6.93954">
        <ele>321</ele>
        <time>2011-09-25T08:03:00Z</time>
      </trkpt>
      <trkpt lat="49.19346" lon="6.93956">
        <ele>321</ele>
        <time>2011-09-25T08:03:01Z</time>
      </trkpt>
      <trkpt lat="49.19346" lon="6.93959">
        <ele>321</ele>
        <time>2011-09-25T08:03:03Z</time>
      </trkpt>
      <trkpt lat="49.19345" lon="6.93961">
        <ele>322</ele>
        <time>2011-09-25T08:03:05Z</time>
      </trkpt>
      <trkpt lat="49.19343" lon="6.93963">
        <ele>323</ele>
        <time>2011-09-25T08:03:07Z</time>
      </trkpt>
      <trkpt lat="49.19342" lon="6.93965">
        <ele>323</ele>
        <time>2011-09-25T08:03:09Z</time>
      </trkpt>
      <trkpt lat="49.1934" lon="6.93968">
        <ele>323</ele>
        <time>2011-09-25T08:03:11Z</time>
      </trkpt>
      <trkpt lat="49.19338" lon="6.93971">
        <ele>323</ele>
        <time>2011-09-25T08:03:13Z</time>
      </trkpt>
      <trkpt lat="49.19338" lon="6.93974">
        <ele>323</ele>
        <time>2011-09-25T08:03:14Z</time>
      </trkpt>
      <trkpt lat="49.19338" lon="6.93975">
        <ele>323</ele>
        <time>2011-09-25T08:03:15Z</time>
      </trkpt>
      <trkpt lat="49.19337" lon="6.93979">
        <ele>323</ele>
        <time>2011-09-25T08:03:17Z</time>
      </trkpt>
      <trkpt lat="49.19336" lon="6.9398">
        <ele>323</ele>
        <time>2011-09-25T08:03:19Z</time>
      </trkpt>
      <trkpt lat="49.19335" lon="6.93982">
        <ele>323</ele>
        <time>2011-09-25T08:03:20Z</time>
      </trkpt>
      <trkpt lat="49.19334" lon="6.93984">
        <ele>323</ele>
        <time>2011-09-25T08:03:22Z</time>
      </trkpt>
      <trkpt lat="49.19332" lon="6.93989">
        <ele>324</ele>
        <time>2011-09-25T08:03:24Z</time>
      </trkpt>
      <trkpt lat="49.19332" lon="6.93991">
        <ele>325</ele>
        <time>2011-09-25T08:03:25Z</time>
      </trkpt>
      <trkpt lat="49.19331" lon="6.93992">
        <ele>326</ele>
        <time>2011-09-25T08:03:26Z</time>
      </trkpt>
      <trkpt lat="49.19331" lon="6.93994">
        <ele>327</ele>
        <time>2011-09-25T08:03:28Z</time>
      </trkpt>
      <trkpt lat="49.19329" lon="6.93995">
        <ele>328</ele>
        <time>2011-09-25T08:03:30Z</time>
      </trkpt>
      <trkpt lat="49.19329" lon="6.93997">
        <ele>328</ele>
        <time>2011-09-25T08:03:31Z</time>
      </trkpt>
      <trkpt lat="49.19328" lon="6.93999">
        <ele>329</ele>
        <time>2011-09-25T08:03:32Z</time>
      </trkpt>
      <trkpt lat="49.19327" lon="6.94003">
        <ele>329</ele>
        <time>2011-09-25T08:03:34Z</time>
      </trkpt>
      <trkpt lat="49.19326" lon="6.94005">
        <ele>329</ele>
        <time>2011-09-25T08:03:35Z</time>
      </trkpt>
      <trkpt lat="49.19325" lon="6.94008">
        <ele>329</ele>
        <time>2011-09-25T08:03:37Z</time>
      </trkpt>
      <trkpt lat="49.19324" lon="6.94011">
        <ele>329</ele>
        <time>2011-09-25T08:03:39Z</time>
      </trkpt>
      <trkpt lat="49.19323" lon="6.94012">
        <ele>329</ele>
        <time>2011-09-25T08:03:40Z</time>
      </trkpt>
      <trkpt lat="49.19322" lon="6.94016">
        <ele>329</ele>
        <time>2011-09-25T08:03:42Z</time>
      </trkpt>
      <trkpt lat="49.19322" lon="6.94019">
        <ele>329</ele>
        <time>2011-09-25T08:03:44Z</time>
      </trkpt>
      <trkpt lat="49.19321" lon="6.94021">
        <ele>329</ele>
        <time>2011-09-25T08:03:45Z</time>
      </trkpt>
      <trkpt lat="49.19321" lon="6.94023">
        <ele>329</ele>
        <time>2011-09-25T08:03:46Z</time>
      </trkpt>
      <trkpt lat="49.19321" lon="6.94026">
        <ele>329</ele>
        <time>2011-09-25T08:03:47Z</time>
      </trkpt>
      <trkpt lat="49.1932" lon="6.94029">
        <ele>329</ele>
        <time>2011-09-25T08:03:48Z</time>
      </trkpt>
      <trkpt lat="49.19319" lon="6.94032">
        <ele>329</ele>
        <time>2011-09-25T08:03:49Z</time>
      </trkpt>
      <trkpt lat="49.19319" lon="6.94034">
        <ele>330</ele>
        <time>2011-09-25T08:03:50Z</time>
      </trkpt>
      <trkpt lat="49.19318" lon="6.94036">
        <ele>332</ele>
        <time>2011-09-25T08:03:52Z</time>
      </trkpt>
      <trkpt lat="49.1932" lon="6.94039">
        <ele>334</ele>
        <time>2011-09-25T08:03:54Z</time>
      </trkpt>
      <trkpt lat="49.1932" lon="6.94041">
        <ele>334</ele>
        <time>2011-09-25T08:03:55Z</time>
      </trkpt>
      <trkpt lat="49.1932" lon="6.94043">
        <ele>334</ele>
        <time>2011-09-25T08:03:56Z</time>
      </trkpt>
      <trkpt lat="49.19319" lon="6.94045">
        <ele>334</ele>
        <time>2011-09-25T08:03:57Z</time>
      </trkpt>
      <trkpt lat="49.1932" lon="6.94048">
        <ele>334</ele>
        <time>2011-09-25T08:03:59Z</time>
      </trkpt>
      <trkpt lat="49.1932" lon="6.9405">
        <ele>334</ele>
        <time>2011-09-25T08:04:00Z</time>
      </trkpt>
      <trkpt lat="49.1932" lon="6.94052">
        <ele>334</ele>
        <time>2011-09-25T08:04:01Z</time>
      </trkpt>
      <trkpt lat="49.1932" lon="6.94055">
        <ele>335</ele>
        <time>2011-09-25T08:04:03Z</time>
      </trkpt>
      <trkpt lat="49.19319" lon="6.94058">
        <ele>335</ele>
        <time>2011-09-25T08:04:04Z</time>
      </trkpt>
      <trkpt lat="49.19319" lon="6.9406">
        <ele>336</ele>
        <time>2011-09-25T08:04:05Z</time>
      </trkpt>
      <trkpt lat="49.19319" lon="6.94061">
        <ele>336</ele>
        <time>2011-09-25T08:04:06Z</time>
      </trkpt>
      <trkpt lat="49.19318" lon="6.94065">
        <ele>337</ele>
        <time>2011-09-25T08:04:08Z</time>
      </trkpt>
      <trkpt lat="49.19318" lon="6.94068">
        <ele>337</ele>
        <time>2011-09-25T08:04:10Z</time>
      </trkpt>
      <trkpt lat="49.19318" lon="6.9407">
        <ele>338</ele>
        <time>2011-09-25T08:04:11Z</time>
      </trkpt>
      <trkpt lat="49.19317" lon="6.94073">
        <ele>339</ele>
        <time>2011-09-25T08:04:13Z</time>
      </trkpt>
      <trkpt lat="49.19317" lon="6.94075">
        <ele>340</ele>
        <time>2011-09-25T08:04:14Z</time>
      </trkpt>
      <trkpt lat="49.19317" lon="6.94077">
        <ele>340</ele>
        <time>2011-09-25T08:04:15Z</time>
      </trkpt>
      <trkpt lat="49.19316" lon="6.94079">
        <ele>340</ele>
        <time>2011-09-25T08:04:16Z</time>
      </trkpt>
      <trkpt lat="49.19316" lon="6.9408">
        <ele>341</ele>
        <time>2011-09-25T08:04:17Z</time>
      </trkpt>
      <trkpt lat="49.19316" lon="6.94083">
        <ele>341</ele>
        <time>2011-09-25T08:04:19Z</time>
      </trkpt>
      <trkpt lat="49.19316" lon="6.94085">
        <ele>341</ele>
        <time>2011-09-25T08:04:20Z</time>
      </trkpt>
      <trkpt lat="49.19316" lon="6.94089">
        <ele>341</ele>
        <time>2011-09-25T08:04:22Z</time>
      </trkpt>
      <trkpt lat="49.19316" lon="6.94091">
        <ele>341</ele>
        <time>2011-09-25T08:04:23Z</time>
      </trkpt>
      <trkpt lat="49.19315" lon="6.94093">
        <ele>341</ele>
        <time>2011-09-25T08:04:24Z</time>
      </trkpt>
      <trkpt lat="49.19315" lon="6.94095">
        <ele>341</ele>
        <time>2011-09-25T08:04:25Z</time>
      </trkpt>
      <trkpt lat="49.19315" lon="6.94096">
        <ele>341</ele>
        <time>2011-09-25T08:04:26Z</time>
      </trkpt>
      <trkpt lat="49.19315" lon="6.941">
        <ele>341</ele>
        <time>2011-09-25T08:04:28Z</time>
      </trkpt>
      <trkpt lat="49.19315" lon="6.94101">
        <ele>341</ele>
        <time>2011-09-25T08:04:29Z</time>
      </trkpt>
      <trkpt lat="49.19315" lon="6.94103">
        <ele>341</ele>
        <time>2011-09-25T08:04:30Z</time>
      </trkpt>
      <trkpt lat="49.19314" lon="6.94106">
        <ele>341</ele>
        <time>2011-09-25T08:04:32Z</time>
      </trkpt>
      <trkpt lat="49.19316" lon="6.94109">
        <ele>341</ele>
        <time>2011-09-25T08:04:34Z</time>
      </trkpt>
      <trkpt lat="49.19316" lon="6.94111">
        <ele>341</ele>
        <time>2011-09-25T08:04:35Z</time>
      </trkpt>
      <trkpt lat="49.19317" lon="6.94113">
        <ele>341</ele>
        <time>2011-09-25T08:04:36Z</time>
      </trkpt>
      <trkpt lat="49.19316" lon="6.94115">
        <ele>341</ele>
        <time>2011-09-25T08:04:38Z</time>
      </trkpt>
      <trkpt lat="49.19315" lon="6.9412">
        <ele>341</ele>
        <time>2011-09-25T08:04:40Z</time>
      </trkpt>
      <trkpt lat="49.19314" lon="6.94122">
        <ele>341</ele>
        <time>2011-09-25T08:04:41Z</time>
      </trkpt>
      <trkpt lat="49.19314" lon="6.94125">
        <ele>341</ele>
        <time>2011-09-25T08:04:43Z</time>
      </trkpt>
      <trkpt lat="49.19315" lon="6.94127">
        <ele>341</ele>
        <time>2011-09-25T08:04:45Z</time>
      </trkpt>
      <trkpt lat="49.19314" lon="6.94129">
        <ele>341</ele>
        <time>2011-09-25T08:04:47Z</time>
      </trkpt>
      <trkpt lat="49.19313" lon="6.94132">
        <ele>341</ele>
        <time>2011-09-25T08:04:49Z</time>
      </trkpt>
      <trkpt lat="49.19312" lon="6.94135">
        <ele>341</ele>
        <time>2011-09-25T08:04:51Z</time>
      </trkpt>
      <trkpt lat="49.19313" lon="6.94137">
        <ele>341</ele>
        <time>2011-09-25T08:04:52Z</time>
      </trkpt>
      <trkpt lat="49.19313" lon="6.94139">
        <ele>341</ele>
        <time>2011-09-25T08:04:53Z</time>
      </trkpt>
      <trkpt lat="49.19313" lon="6.94141">
        <ele>341</ele>
        <time>2011-09-25T08:04:54Z</time>
      </trkpt>
      <trkpt lat="49.19313" lon="6.94143">
        <ele>341</ele>
        <time>2011-09-25T08:04:55Z</time>
      </trkpt>
      <trkpt lat="49.19312" lon="6.94145">
        <ele>341</ele>
        <time>2011-09-25T08:04:57Z</time>
      </trkpt>
      <trkpt lat="49.19311" lon="6.94149">
        <ele>341</ele>
        <time>2011-09-25T08:04:59Z</time>
      </trkpt>
      <trkpt lat="49.19311" lon="6.94151">
        <ele>341</ele>
        <time>2011-09-25T08:05:00Z</time>
      </trkpt>
      <trkpt lat="49.1931" lon="6.94153">
        <ele>341</ele>
        <time>2011-09-25T08:05:01Z</time>
      </trkpt>
      <trkpt lat="49.1931" lon="6.94156">
        <ele>341</ele>
        <time>2011-09-25T08:05:02Z</time>
      </trkpt>
      <trkpt lat="49.1931" lon="6.94158">
        <ele>341</ele>
        <time>2011-09-25T08:05:04Z</time>
      </trkpt>
      <trkpt lat="49.1931" lon="6.94162">
        <ele>341</ele>
        <time>2011-09-25T08:05:05Z</time>
      </trkpt>
      <trkpt lat="49.19309" lon="6.94165">
        <ele>341</ele>
        <time>2011-09-25T08:05:06Z</time>
      </trkpt>
      <trkpt lat="49.19308" lon="6.94167">
        <ele>341</ele>
        <time>2011-09-25T08:05:07Z</time>
      </trkpt>
      <trkpt lat="49.19307" lon="6.94169">
        <ele>341</ele>
        <time>2011-09-25T08:05:08Z</time>
      </trkpt>
      <trkpt lat="49.19305" lon="6.9417">
        <ele>343</ele>
        <time>2011-09-25T08:05:10Z</time>
      </trkpt>
      <trkpt lat="49.19304" lon="6.94171">
        <ele>344</ele>
        <time>2011-09-25T08:05:11Z</time>
      </trkpt>
      <trkpt lat="49.19302" lon="6.94171">
        <ele>344</ele>
        <time>2011-09-25T08:05:13Z</time>
      </trkpt>
      <trkpt lat="49.193" lon="6.94171">
        <ele>344</ele>
        <time>2011-09-25T08:05:14Z</time>
      </trkpt>
      <trkpt lat="49.19299" lon="6.9417">
        <ele>344</ele>
        <time>2011-09-25T08:05:16Z</time>
      </trkpt>
      <trkpt lat="49.19297" lon="6.94169">
        <ele>344</ele>
        <time>2011-09-25T08:05:17Z</time>
      </trkpt>
      <trkpt lat="49.19296" lon="6.94168">
        <ele>344</ele>
        <time>2011-09-25T08:05:20Z</time>
      </trkpt>
      <trkpt lat="49.19294" lon="6.94169">
        <ele>344</ele>
        <time>2011-09-25T08:05:22Z</time>
      </trkpt>
      <trkpt lat="49.19292" lon="6.94168">
        <ele>344</ele>
        <time>2011-09-25T08:05:25Z</time>
      </trkpt>
      <trkpt lat="49.19291" lon="6.94168">
        <ele>344</ele>
        <time>2011-09-25T08:05:27Z</time>
      </trkpt>
      <trkpt lat="49.1929" lon="6.94167">
        <ele>344</ele>
        <time>2011-09-25T08:05:30Z</time>
      </trkpt>
      <trkpt lat="49.19289" lon="6.94168">
        <ele>344</ele>
        <time>2011-09-25T08:05:32Z</time>
      </trkpt>
      <trkpt lat="49.1929" lon="6.94165">
        <ele>344</ele>
        <time>2011-09-25T08:05:34Z</time>
      </trkpt>
      <trkpt lat="49.19291" lon="6.94163">
        <ele>344</ele>
        <time>2011-09-25T08:05:36Z</time>
      </trkpt>
      <trkpt lat="49.19292" lon="6.94161">
        <ele>344</ele>
        <time>2011-09-25T08:05:38Z</time>
      </trkpt>
      <trkpt lat="49.1929" lon="6.94161">
        <ele>342</ele>
        <time>2011-09-25T08:05:41Z</time>
      </trkpt>
      <trkpt lat="49.19292" lon="6.94161">
        <ele>341</ele>
        <time>2011-09-25T08:05:42Z</time>
      </trkpt>
      <trkpt lat="49.19293" lon="6.94159">
        <ele>341</ele>
        <time>2011-09-25T08:05:44Z</time>
      </trkpt>
      <trkpt lat="49.19292" lon="6.94161">
        <ele>340</ele>
        <time>2011-09-25T08:05:47Z</time>
      </trkpt>
      <trkpt lat="49.19291" lon="6.94163">
        <ele>340</ele>
        <time>2011-09-25T08:05:48Z</time>
      </trkpt>
      <trkpt lat="49.1929" lon="6.94164">
        <ele>340</ele>
        <time>2011-09-25T08:05:49Z</time>
      </trkpt>
      <trkpt lat="49.19289" lon="6.94166">
        <ele>340</ele>
        <time>2011-09-25T08:05:50Z</time>
      </trkpt>
      <trkpt lat="49.19288" lon="6.94167">
        <ele>340</ele>
        <time>2011-09-25T08:05:51Z</time>
      </trkpt>
      <trkpt lat="49.19286" lon="6.94167">
        <ele>340</ele>
        <time>2011-09-25T08:05:52Z</time>
      </trkpt>
      <trkpt lat="49.19285" lon="6.9417">
        <ele>340</ele>
        <time>2011-09-25T08:05:54Z</time>
      </trkpt>
      <trkpt lat="49.19284" lon="6.94172">
        <ele>340</ele>
        <time>2011-09-25T08:05:56Z</time>
      </trkpt>
      <trkpt lat="49.19282" lon="6.94175">
        <ele>340</ele>
        <time>2011-09-25T08:05:58Z</time>
      </trkpt>
      <trkpt lat="49.19281" lon="6.94177">
        <ele>340</ele>
        <time>2011-09-25T08:05:59Z</time>
      </trkpt>
      <trkpt lat="49.1928" lon="6.94178">
        <ele>340</ele>
        <time>2011-09-25T08:06:00Z</time>
      </trkpt>
      <trkpt lat="49.19278" lon="6.9418">
        <ele>340</ele>
        <time>2011-09-25T08:06:02Z</time>
      </trkpt>
      <trkpt lat="49.19277" lon="6.94181">
        <ele>340</ele>
        <time>2011-09-25T08:06:03Z</time>
      </trkpt>
      <trkpt lat="49.19276" lon="6.94183">
        <ele>340</ele>
        <time>2011-09-25T08:06:04Z</time>
      </trkpt>
      <trkpt lat="49.19275" lon="6.94186">
        <ele>340</ele>
        <time>2011-09-25T08:06:05Z</time>
      </trkpt>
      <trkpt lat="49.19273" lon="6.94189">
        <ele>340</ele>
        <time>2011-09-25T08:06:07Z</time>
      </trkpt>
      <trkpt lat="49.19273" lon="6.94192">
        <ele>340</ele>
        <time>2011-09-25T08:06:09Z</time>
      </trkpt>
      <trkpt lat="49.19273" lon="6.94195">
        <ele>340</ele>
        <time>2011-09-25T08:06:11Z</time>
      </trkpt>
      <trkpt lat="49.19273" lon="6.94198">
        <ele>340</ele>
        <time>2011-09-25T08:06:13Z</time>
      </trkpt>
      <trkpt lat="49.19271" lon="6.942">
        <ele>339</ele>
        <time>2011-09-25T08:06:15Z</time>
      </trkpt>
      <trkpt lat="49.1927" lon="6.94203">
        <ele>338</ele>
        <time>2011-09-25T08:06:17Z</time>
      </trkpt>
      <trkpt lat="49.19269" lon="6.94205">
        <ele>338</ele>
        <time>2011-09-25T08:06:18Z</time>
      </trkpt>
      <trkpt lat="49.19268" lon="6.94207">
        <ele>337</ele>
        <time>2011-09-25T08:06:20Z</time>
      </trkpt>
      <trkpt lat="49.19267" lon="6.94207">
        <ele>336</ele>
        <time>2011-09-25T08:06:21Z</time>
      </trkpt>
      <trkpt lat="49.19267" lon="6.94209">
        <ele>336</ele>
        <time>2011-09-25T08:06:22Z</time>
      </trkpt>
      <trkpt lat="49.19265" lon="6.94211">
        <ele>336</ele>
        <time>2011-09-25T08:06:24Z</time>
      </trkpt>
      <trkpt lat="49.19262" lon="6.94213">
        <ele>336</ele>
        <time>2011-09-25T08:06:26Z</time>
      </trkpt>
      <trkpt lat="49.1926" lon="6.94215">
        <ele>336</ele>
        <time>2011-09-25T08:06:28Z</time>
      </trkpt>
      <trkpt lat="49.19258" lon="6.94217">
        <ele>336</ele>
        <time>2011-09-25T08:06:30Z</time>
      </trkpt>
      <trkpt lat="49.19257" lon="6.94218">
        <ele>336</ele>
        <time>2011-09-25T08:06:31Z</time>
      </trkpt>
      <trkpt lat="49.19256" lon="6.9422">
        <ele>336</ele>
        <time>2011-09-25T08:06:32Z</time>
      </trkpt>
      <trkpt lat="49.19255" lon="6.94223">
        <ele>336</ele>
        <time>2011-09-25T08:06:33Z</time>
      </trkpt>
      <trkpt lat="49.19254" lon="6.94225">
        <ele>336</ele>
        <time>2011-09-25T08:06:34Z</time>
      </trkpt>
      <trkpt lat="49.19252" lon="6.94227">
        <ele>336</ele>
        <time>2011-09-25T08:06:36Z</time>
      </trkpt>
      <trkpt lat="49.1925" lon="6.94229">
        <ele>336</ele>
        <time>2011-09-25T08:06:38Z</time>
      </trkpt>
      <trkpt lat="49.19248" lon="6.94232">
        <ele>335</ele>
        <time>2011-09-25T08:06:40Z</time>
      </trkpt>
      <trkpt lat="49.19247" lon="6.94234">
        <ele>335</ele>
        <time>2011-09-25T08:06:41Z</time>
      </trkpt>
      <trkpt lat="49.19246" lon="6.94235">
        <ele>334</ele>
        <time>2011-09-25T08:06:42Z</time>
      </trkpt>
      <trkpt lat="49.19244" lon="6.94238">
        <ele>334</ele>
        <time>2011-09-25T08:06:43Z</time>
      </trkpt>
      <trkpt lat="49.19244" lon="6.9424">
        <ele>334</ele>
        <time>2011-09-25T08:06:44Z</time>
      </trkpt>
      <trkpt lat="49.19243" lon="6.94242">
        <ele>334</ele>
        <time>2011-09-25T08:06:46Z</time>
      </trkpt>
      <trkpt lat="49.19242" lon="6.94243">
        <ele>334</ele>
        <time>2011-09-25T08:06:48Z</time>
      </trkpt>
      <trkpt lat="49.1924" lon="6.94245">
        <ele>334</ele>
        <time>2011-09-25T08:06:49Z</time>
      </trkpt>
      <trkpt lat="49.19239" lon="6.94247">
        <ele>334</ele>
        <time>2011-09-25T08:06:50Z</time>
      </trkpt>
      <trkpt lat="49.19238" lon="6.9425">
        <ele>334</ele>
        <time>2011-09-25T08:06:52Z</time>
      </trkpt>
      <trkpt lat="49.19237" lon="6.94252">
        <ele>334</ele>
        <time>2011-09-25T08:06:53Z</time>
      </trkpt>
      <trkpt lat="49.19235" lon="6.94255">
        <ele>334</ele>
        <time>2011-09-25T08:06:55Z</time>
      </trkpt>
      <trkpt lat="49.19233" lon="6.94257">
        <ele>334</ele>
        <time>2011-09-25T08:06:57Z</time>
      </trkpt>
      <trkpt lat="49.19233" lon="6.94259">
        <ele>334</ele>
        <time>2011-09-25T08:06:58Z</time>
      </trkpt>
      <trkpt lat="49.19231" lon="6.94263">
        <ele>333</ele>
        <time>2011-09-25T08:07:00Z</time>
      </trkpt>
      <trkpt lat="49.19229" lon="6.94264">
        <ele>333</ele>
        <time>2011-09-25T08:07:01Z</time>
      </trkpt>
      <trkpt lat="49.19228" lon="6.94267">
        <ele>333</ele>
        <time>2011-09-25T08:07:02Z</time>
      </trkpt>
      <trkpt lat="49.19227" lon="6.94268">
        <ele>333</ele>
        <time>2011-09-25T08:07:03Z</time>
      </trkpt>
      <trkpt lat="49.19225" lon="6.94271">
        <ele>333</ele>
        <time>2011-09-25T08:07:05Z</time>
      </trkpt>
      <trkpt lat="49.19225" lon="6.94274">
        <ele>333</ele>
        <time>2011-09-25T08:07:06Z</time>
      </trkpt>
      <trkpt lat="49.19222" lon="6.94277">
        <ele>333</ele>
        <time>2011-09-25T08:07:08Z</time>
      </trkpt>
      <trkpt lat="49.1922" lon="6.94277">
        <ele>333</ele>
        <time>2011-09-25T08:07:09Z</time>
      </trkpt>
      <trkpt lat="49.19219" lon="6.9428">
        <ele>333</ele>
        <time>2011-09-25T08:07:11Z</time>
      </trkpt>
      <trkpt lat="49.19218" lon="6.94282">
        <ele>333</ele>
        <time>2011-09-25T08:07:12Z</time>
      </trkpt>
      <trkpt lat="49.19218" lon="6.94284">
        <ele>333</ele>
        <time>2011-09-25T08:07:13Z</time>
      </trkpt>
      <trkpt lat="49.19216" lon="6.94286">
        <ele>334</ele>
        <time>2011-09-25T08:07:14Z</time>
      </trkpt>
      <trkpt lat="49.19216" lon="6.94288">
        <ele>335</ele>
        <time>2011-09-25T08:07:15Z</time>
      </trkpt>
      <trkpt lat="49.19214" lon="6.94289">
        <ele>336</ele>
        <time>2011-09-25T08:07:16Z</time>
      </trkpt>
      <trkpt lat="49.19212" lon="6.9429">
        <ele>337</ele>
        <time>2011-09-25T08:07:17Z</time>
      </trkpt>
      <trkpt lat="49.19211" lon="6.94291">
        <ele>338</ele>
        <time>2011-09-25T08:07:18Z</time>
      </trkpt>
      <trkpt lat="49.19211" lon="6.94293">
        <ele>338</ele>
        <time>2011-09-25T08:07:20Z</time>
      </trkpt>
      <trkpt lat="49.1921" lon="6.94296">
        <ele>338</ele>
        <time>2011-09-25T08:07:21Z</time>
      </trkpt>
      <trkpt lat="49.19209" lon="6.94297">
        <ele>339</ele>
        <time>2011-09-25T08:07:22Z</time>
      </trkpt>
      <trkpt lat="49.19207" lon="6.94299">
        <ele>339</ele>
        <time>2011-09-25T08:07:24Z</time>
      </trkpt>
      <trkpt lat="49.19206" lon="6.94301">
        <ele>339</ele>
        <time>2011-09-25T08:07:26Z</time>
      </trkpt>
      <trkpt lat="49.19206" lon="6.94303">
        <ele>339</ele>
        <time>2011-09-25T08:07:28Z</time>
      </trkpt>
      <trkpt lat="49.19205" lon="6.94305">
        <ele>340</ele>
        <time>2011-09-25T08:07:29Z</time>
      </trkpt>
      <trkpt lat="49.19204" lon="6.94308">
        <ele>340</ele>
        <time>2011-09-25T08:07:30Z</time>
      </trkpt>
      <trkpt lat="49.19203" lon="6.9431">
        <ele>340</ele>
        <time>2011-09-25T08:07:31Z</time>
      </trkpt>
      <trkpt lat="49.19202" lon="6.94313">
        <ele>340</ele>
        <time>2011-09-25T08:07:33Z</time>
      </trkpt>
      <trkpt lat="49.19201" lon="6.94316">
        <ele>340</ele>
        <time>2011-09-25T08:07:34Z</time>
      </trkpt>
      <trkpt lat="49.19201" lon="6.94319">
        <ele>340</ele>
        <time>2011-09-25T08:07:35Z</time>
      </trkpt>
      <trkpt lat="49.192" lon="6.94321">
        <ele>340</ele>
        <time>2011-09-25T08:07:36Z</time>
      </trkpt>
      <trkpt lat="49.19199" lon="6.94323">
        <ele>342</ele>
        <time>2011-09-25T08:07:38Z</time>
      </trkpt>
      <trkpt lat="49.19198" lon="6.94326">
        <ele>342</ele>
        <time>2011-09-25T08:07:40Z</time>
      </trkpt>
      <trkpt lat="49.19197" lon="6.94328">
        <ele>342</ele>
        <time>2011-09-25T08:07:41Z</time>
      </trkpt>
      <trkpt lat="49.19196" lon="6.9433">
        <ele>342</ele>
        <time>2011-09-25T08:07:43Z</time>
      </trkpt>
      <trkpt lat="49.19194" lon="6.94333">
        <ele>340</ele>
        <time>2011-09-25T08:07:45Z</time>
      </trkpt>
      <trkpt lat="49.19194" lon="6.94335">
        <ele>339</ele>
        <time>2011-09-25T08:07:46Z</time>
      </trkpt>
      <trkpt lat="49.19193" lon="6.94338">
        <ele>338</ele>
        <time>2011-09-25T08:07:48Z</time>
      </trkpt>
      <trkpt lat="49.19192" lon="6.94339">
        <ele>338</ele>
        <time>2011-09-25T08:07:49Z</time>
      </trkpt>
      <trkpt lat="49.19192" lon="6.94343">
        <ele>338</ele>
        <time>2011-09-25T08:07:50Z</time>
      </trkpt>
      <trkpt lat="49.19192" lon="6.94346">
        <ele>338</ele>
        <time>2011-09-25T08:07:51Z</time>
      </trkpt>
      <trkpt lat="49.19191" lon="6.94349">
        <ele>338</ele>
        <time>2011-09-25T08:07:52Z</time>
      </trkpt>
      <trkpt lat="49.19189" lon="6.94352">
        <ele>338</ele>
        <time>2011-09-25T08:07:54Z</time>
      </trkpt>
      <trkpt lat="49.19188" lon="6.94354">
        <ele>339</ele>
        <time>2011-09-25T08:07:55Z</time>
      </trkpt>
      <trkpt lat="49.19187" lon="6.94357">
        <ele>340</ele>
        <time>2011-09-25T08:07:57Z</time>
      </trkpt>
      <trkpt lat="49.19186" lon="6.9436">
        <ele>340</ele>
        <time>2011-09-25T08:07:59Z</time>
      </trkpt>
      <trkpt lat="49.19186" lon="6.94362">
        <ele>340</ele>
        <time>2011-09-25T08:08:00Z</time>
      </trkpt>
      <trkpt lat="49.19184" lon="6.94364">
        <ele>340</ele>
        <time>2011-09-25T08:08:02Z</time>
      </trkpt>
      <trkpt lat="49.19183" lon="6.94366">
        <ele>340</ele>
        <time>2011-09-25T08:08:03Z</time>
      </trkpt>
      <trkpt lat="49.19182" lon="6.94368">
        <ele>340</ele>
        <time>2011-09-25T08:08:04Z</time>
      </trkpt>
      <trkpt lat="49.19179" lon="6.94371">
        <ele>340</ele>
        <time>2011-09-25T08:08:06Z</time>
      </trkpt>
      <trkpt lat="49.19177" lon="6.94372">
        <ele>340</ele>
        <time>2011-09-25T08:08:07Z</time>
      </trkpt>
      <trkpt lat="49.19175" lon="6.94373">
        <ele>340</ele>
        <time>2011-09-25T08:08:09Z</time>
      </trkpt>
      <trkpt lat="49.19174" lon="6.94373">
        <ele>340</ele>
        <time>2011-09-25T08:08:10Z</time>
      </trkpt>
      <trkpt lat="49.19172" lon="6.94374">
        <ele>340</ele>
        <time>2011-09-25T08:08:11Z</time>
      </trkpt>
      <trkpt lat="49.19171" lon="6.94376">
        <ele>340</ele>
        <time>2011-09-25T08:08:12Z</time>
      </trkpt>
      <trkpt lat="49.19169" lon="6.94378">
        <ele>340</ele>
        <time>2011-09-25T08:08:14Z</time>
      </trkpt>
      <trkpt lat="49.19169" lon="6.9438">
        <ele>340</ele>
        <time>2011-09-25T08:08:16Z</time>
      </trkpt>
      <trkpt lat="49.19168" lon="6.94382">
        <ele>340</ele>
        <time>2011-09-25T08:08:18Z</time>
      </trkpt>
      <trkpt lat="49.19167" lon="6.94384">
        <ele>340</ele>
        <time>2011-09-25T08:08:19Z</time>
      </trkpt>
      <trkpt lat="49.19167" lon="6.94387">
        <ele>340</ele>
        <time>2011-09-25T08:08:21Z</time>
      </trkpt>
      <trkpt lat="49.19165" lon="6.9439">
        <ele>339</ele>
        <time>2011-09-25T08:08:23Z</time>
      </trkpt>
      <trkpt lat="49.19164" lon="6.94392">
        <ele>337</ele>
        <time>2011-09-25T08:08:25Z</time>
      </trkpt>
      <trkpt lat="49.19163" lon="6.94394">
        <ele>337</ele>
        <time>2011-09-25T08:08:26Z</time>
      </trkpt>
      <trkpt lat="49.19162" lon="6.94395">
        <ele>337</ele>
        <time>2011-09-25T08:08:28Z</time>
      </trkpt>
      <trkpt lat="49.19161" lon="6.94398">
        <ele>336</ele>
        <time>2011-09-25T08:08:30Z</time>
      </trkpt>
      <trkpt lat="49.19159" lon="6.94399">
        <ele>336</ele>
        <time>2011-09-25T08:08:31Z</time>
      </trkpt>
      <trkpt lat="49.19158" lon="6.94399">
        <ele>335</ele>
        <time>2011-09-25T08:08:33Z</time>
      </trkpt>
      <trkpt lat="49.19156" lon="6.94401">
        <ele>335</ele>
        <time>2011-09-25T08:08:34Z</time>
      </trkpt>
      <trkpt lat="49.19154" lon="6.94403">
        <ele>335</ele>
        <time>2011-09-25T08:08:36Z</time>
      </trkpt>
      <trkpt lat="49.19152" lon="6.94403">
        <ele>335</ele>
        <time>2011-09-25T08:08:37Z</time>
      </trkpt>
      <trkpt lat="49.19152" lon="6.94406">
        <ele>335</ele>
        <time>2011-09-25T08:08:39Z</time>
      </trkpt>
      <trkpt lat="49.19151" lon="6.94409">
        <ele>335</ele>
        <time>2011-09-25T08:08:41Z</time>
      </trkpt>
      <trkpt lat="49.19149" lon="6.94411">
        <ele>335</ele>
        <time>2011-09-25T08:08:43Z</time>
      </trkpt>
      <trkpt lat="49.19148" lon="6.94414">
        <ele>335</ele>
        <time>2011-09-25T08:08:45Z</time>
      </trkpt>
      <trkpt lat="49.19146" lon="6.94417">
        <ele>335</ele>
        <time>2011-09-25T08:08:47Z</time>
      </trkpt>
      <trkpt lat="49.19145" lon="6.9442">
        <ele>335</ele>
        <time>2011-09-25T08:08:49Z</time>
      </trkpt>
      <trkpt lat="49.19144" lon="6.94423">
        <ele>334</ele>
        <time>2011-09-25T08:08:51Z</time>
      </trkpt>
      <trkpt lat="49.19144" lon="6.94426">
        <ele>333</ele>
        <time>2011-09-25T08:08:53Z</time>
      </trkpt>
      <trkpt lat="49.19144" lon="6.94428">
        <ele>332</ele>
        <time>2011-09-25T08:08:54Z</time>
      </trkpt>
      <trkpt lat="49.19143" lon="6.9443">
        <ele>332</ele>
        <time>2011-09-25T08:08:55Z</time>
      </trkpt>
      <trkpt lat="49.19144" lon="6.94432">
        <ele>331</ele>
        <time>2011-09-25T08:08:56Z</time>
      </trkpt>
      <trkpt lat="49.19144" lon="6.94434">
        <ele>330</ele>
        <time>2011-09-25T08:08:57Z</time>
      </trkpt>
      <trkpt lat="49.19144" lon="6.94437">
        <ele>329</ele>
        <time>2011-09-25T08:08:59Z</time>
      </trkpt>
      <trkpt lat="49.19145" lon="6.94439">
        <ele>329</ele>
        <time>2011-09-25T08:09:00Z</time>
      </trkpt>
      <trkpt lat="49.19145" lon="6.94441">
        <ele>329</ele>
        <time>2011-09-25T08:09:01Z</time>
      </trkpt>
      <trkpt lat="49.19146" lon="6.94443">
        <ele>329</ele>
        <time>2011-09-25T08:09:02Z</time>
      </trkpt>
      <trkpt lat="49.19147" lon="6.94445">
        <ele>329</ele>
        <time>2011-09-25T08:09:04Z</time>
      </trkpt>
      <trkpt lat="49.19147" lon="6.94447">
        <ele>329</ele>
        <time>2011-09-25T08:09:07Z</time>
      </trkpt>
      <trkpt lat="49.19149" lon="6.94449">
        <ele>329</ele>
        <time>2011-09-25T08:09:12Z</time>
      </trkpt>
      <trkpt lat="49.19149" lon="6.94451">
        <ele>329</ele>
        <time>2011-09-25T08:09:18Z</time>
      </trkpt>
      <trkpt lat="49.19149" lon="6.94453">
        <ele>329</ele>
        <time>2011-09-25T08:09:19Z</time>
      </trkpt>
      <trkpt lat="49.19149" lon="6.94456">
        <ele>329</ele>
        <time>2011-09-25T08:09:21Z</time>
      </trkpt>
      <trkpt lat="49.19149" lon="6.94458">
        <ele>329</ele>
        <time>2011-09-25T08:09:22Z</time>
      </trkpt>
      <trkpt lat="49.1915" lon="6.9446">
        <ele>329</ele>
        <time>2011-09-25T08:09:23Z</time>
      </trkpt>
      <trkpt lat="49.1915" lon="6.94462">
        <ele>329</ele>
        <time>2011-09-25T08:09:24Z</time>
      </trkpt>
      <trkpt lat="49.1915" lon="6.94463">
        <ele>329</ele>
        <time>2011-09-25T08:09:25Z</time>
      </trkpt>
      <trkpt lat="49.1915" lon="6.94466">
        <ele>329</ele>
        <time>2011-09-25T08:09:26Z</time>
      </trkpt>
      <trkpt lat="49.19149" lon="6.94467">
        <ele>329</ele>
        <time>2011-09-25T08:09:30Z</time>
      </trkpt>
      <trkpt lat="49.19148" lon="6.94469">
        <ele>329</ele>
        <time>2011-09-25T08:09:36Z</time>
      </trkpt>
      <trkpt lat="49.19146" lon="6.94472">
        <ele>329</ele>
        <time>2011-09-25T08:09:38Z</time>
      </trkpt>
      <trkpt lat="49.19145" lon="6.94474">
        <ele>329</ele>
        <time>2011-09-25T08:09:40Z</time>
      </trkpt>
      <trkpt lat="49.19144" lon="6.94475">
        <ele>329</ele>
        <time>2011-09-25T08:09:41Z</time>
      </trkpt>
      <trkpt lat="49.19143" lon="6.94478">
        <ele>329</ele>
        <time>2011-09-25T08:09:43Z</time>
      </trkpt>
      <trkpt lat="49.19141" lon="6.9448">
        <ele>329</ele>
        <time>2011-09-25T08:09:45Z</time>
      </trkpt>
      <trkpt lat="49.19139" lon="6.94482">
        <ele>329</ele>
        <time>2011-09-25T08:09:47Z</time>
      </trkpt>
      <trkpt lat="49.19138" lon="6.94483">
        <ele>329</ele>
        <time>2011-09-25T08:09:49Z</time>
      </trkpt>
      <trkpt lat="49.19137" lon="6.94485">
        <ele>329</ele>
        <time>2011-09-25T08:09:51Z</time>
      </trkpt>
      <trkpt lat="49.19135" lon="6.94487">
        <ele>329</ele>
        <time>2011-09-25T08:09:53Z</time>
      </trkpt>
      <trkpt lat="49.19133" lon="6.94489">
        <ele>329</ele>
        <time>2011-09-25T08:09:55Z</time>
      </trkpt>
      <trkpt lat="49.19131" lon="6.94492">
        <ele>329</ele>
        <time>2011-09-25T08:09:57Z</time>
      </trkpt>
      <trkpt lat="49.1913" lon="6.94494">
        <ele>329</ele>
        <time>2011-09-25T08:09:59Z</time>
      </trkpt>
      <trkpt lat="49.19128" lon="6.94497">
        <ele>329</ele>
        <time>2011-09-25T08:10:01Z</time>
      </trkpt>
      <trkpt lat="49.19127" lon="6.945">
        <ele>329</ele>
        <time>2011-09-25T08:10:03Z</time>
      </trkpt>
      <trkpt lat="49.19126" lon="6.94503">
        <ele>329</ele>
        <time>2011-09-25T08:10:05Z</time>
      </trkpt>
      <trkpt lat="49.19126" lon="6.94506">
        <ele>329</ele>
        <time>2011-09-25T08:10:07Z</time>
      </trkpt>
      <trkpt lat="49.19126" lon="6.94508">
        <ele>329</ele>
        <time>2011-09-25T08:10:08Z</time>
      </trkpt>
      <trkpt lat="49.19126" lon="6.9451">
        <ele>329</ele>
        <time>2011-09-25T08:10:09Z</time>
      </trkpt>
      <trkpt lat="49.19126" lon="6.94512">
        <ele>329</ele>
        <time>2011-09-25T08:10:10Z</time>
      </trkpt>
      <trkpt lat="49.19126" lon="6.94514">
        <ele>329</ele>
        <time>2011-09-25T08:10:11Z</time>
      </trkpt>
      <trkpt lat="49.19125" lon="6.94516">
        <ele>329</ele>
        <time>2011-09-25T08:10:12Z</time>
      </trkpt>
      <trkpt lat="49.19125" lon="6.94519">
        <ele>329</ele>
        <time>2011-09-25T08:10:14Z</time>
      </trkpt>
      <trkpt lat="49.19125" lon="6.9452">
        <ele>328</ele>
        <time>2011-09-25T08:10:16Z</time>
      </trkpt>
      <trkpt lat="49.19124" lon="6.94523">
        <ele>328</ele>
        <time>2011-09-25T08:10:18Z</time>
      </trkpt>
      <trkpt lat="49.19124" lon="6.94525">
        <ele>328</ele>
        <time>2011-09-25T08:10:19Z</time>
      </trkpt>
      <trkpt lat="49.19123" lon="6.94527">
        <ele>328</ele>
        <time>2011-09-25T08:10:20Z</time>
      </trkpt>
      <trkpt lat="49.19122" lon="6.94529">
        <ele>328</ele>
        <time>2011-09-25T08:10:21Z</time>
      </trkpt>
      <trkpt lat="49.19121" lon="6.9453">
        <ele>328</ele>
        <time>2011-09-25T08:10:22Z</time>
      </trkpt>
      <trkpt lat="49.1912" lon="6.94534">
        <ele>328</ele>
        <time>2011-09-25T08:10:24Z</time>
      </trkpt>
      <trkpt lat="49.1912" lon="6.94535">
        <ele>328</ele>
        <time>2011-09-25T08:10:25Z</time>
      </trkpt>
      <trkpt lat="49.1912" lon="6.94537">
        <ele>328</ele>
        <time>2011-09-25T08:10:26Z</time>
      </trkpt>
      <trkpt lat="49.1912" lon="6.94539">
        <ele>328</ele>
        <time>2011-09-25T08:10:27Z</time>
      </trkpt>
      <trkpt lat="49.1912" lon="6.94541">
        <ele>328</ele>
        <time>2011-09-25T08:10:28Z</time>
      </trkpt>
      <trkpt lat="49.19121" lon="6.94543">
        <ele>328</ele>
        <time>2011-09-25T08:10:30Z</time>
      </trkpt>
      <trkpt lat="49.19121" lon="6.94546">
        <ele>328</ele>
        <time>2011-09-25T08:10:32Z</time>
      </trkpt>
      <trkpt lat="49.19121" lon="6.94548">
        <ele>328</ele>
        <time>2011-09-25T08:10:33Z</time>
      </trkpt>
      <trkpt lat="49.19122" lon="6.94549">
        <ele>328</ele>
        <time>2011-09-25T08:10:34Z</time>
      </trkpt>
      <trkpt lat="49.19123" lon="6.94551">
        <ele>328</ele>
        <time>2011-09-25T08:10:35Z</time>
      </trkpt>
      <trkpt lat="49.19124" lon="6.94553">
        <ele>328</ele>
        <time>2011-09-25T08:10:37Z</time>
      </trkpt>
      <trkpt lat="49.19126" lon="6.94555">
        <ele>328</ele>
        <time>2011-09-25T08:10:39Z</time>
      </trkpt>
      <trkpt lat="49.19127" lon="6.94557">
        <ele>327</ele>
        <time>2011-09-25T08:10:41Z</time>
      </trkpt>
      <trkpt lat="49.19128" lon="6.94558">
        <ele>327</ele>
        <time>2011-09-25T08:10:42Z</time>
      </trkpt>
      <trkpt lat="49.19129" lon="6.94561">
        <ele>327</ele>
        <time>2011-09-25T08:10:44Z</time>
      </trkpt>
      <trkpt lat="49.1913" lon="6.94562">
        <ele>326</ele>
        <time>2011-09-25T08:10:46Z</time>
      </trkpt>
      <trkpt lat="49.19132" lon="6.94563">
        <ele>326</ele>
        <time>2011-09-25T08:10:47Z</time>
      </trkpt>
      <trkpt lat="49.19134" lon="6.94565">
        <ele>326</ele>
        <time>2011-09-25T08:10:49Z</time>
      </trkpt>
      <trkpt lat="49.19135" lon="6.94566">
        <ele>325</ele>
        <time>2011-09-25T08:10:51Z</time>
      </trkpt>
      <trkpt lat="49.19138" lon="6.94568">
        <ele>325</ele>
        <time>2011-09-25T08:10:53Z</time>
      </trkpt>
      <trkpt lat="49.19141" lon="6.94568">
        <ele>325</ele>
        <time>2011-09-25T08:10:55Z</time>
      </trkpt>
      <trkpt lat="49.19144" lon="6.94569">
        <ele>325</ele>
        <time>2011-09-25T08:10:57Z</time>
      </trkpt>
      <trkpt lat="49.19145" lon="6.9457">
        <ele>325</ele>
        <time>2011-09-25T08:10:58Z</time>
      </trkpt>
      <trkpt lat="49.19147" lon="6.94571">
        <ele>325</ele>
        <time>2011-09-25T08:10:59Z</time>
      </trkpt>
      <trkpt lat="49.19148" lon="6.94573">
        <ele>324</ele>
        <time>2011-09-25T08:11:01Z</time>
      </trkpt>
      <trkpt lat="49.1915" lon="6.94574">
        <ele>322</ele>
        <time>2011-09-25T08:11:03Z</time>
      </trkpt>
      <trkpt lat="49.19151" lon="6.94574">
        <ele>322</ele>
        <time>2011-09-25T08:11:04Z</time>
      </trkpt>
      <trkpt lat="49.19154" lon="6.94575">
        <ele>320</ele>
        <time>2011-09-25T08:11:06Z</time>
      </trkpt>
      <trkpt lat="49.19156" lon="6.94576">
        <ele>320</ele>
        <time>2011-09-25T08:11:07Z</time>
      </trkpt>
      <trkpt lat="49.19158" lon="6.94576">
        <ele>319</ele>
        <time>2011-09-25T08:11:08Z</time>
      </trkpt>
      <trkpt lat="49.19159" lon="6.94578">
        <ele>319</ele>
        <time>2011-09-25T08:11:09Z</time>
      </trkpt>
      <trkpt lat="49.19161" lon="6.94579">
        <ele>319</ele>
        <time>2011-09-25T08:11:10Z</time>
      </trkpt>
      <trkpt lat="49.19162" lon="6.9458">
        <ele>319</ele>
        <time>2011-09-25T08:11:11Z</time>
      </trkpt>
      <trkpt lat="49.19164" lon="6.94581">
        <ele>319</ele>
        <time>2011-09-25T08:11:12Z</time>
      </trkpt>
      <trkpt lat="49.19165" lon="6.94581">
        <ele>319</ele>
        <time>2011-09-25T08:11:13Z</time>
      </trkpt>
      <trkpt lat="49.19167" lon="6.94582">
        <ele>319</ele>
        <time>2011-09-25T08:11:14Z</time>
      </trkpt>
      <trkpt lat="49.19168" lon="6.94585">
        <ele>319</ele>
        <time>2011-09-25T08:11:16Z</time>
      </trkpt>
      <trkpt lat="49.19169" lon="6.94586">
        <ele>319</ele>
        <time>2011-09-25T08:11:17Z</time>
      </trkpt>
      <trkpt lat="49.19171" lon="6.94587">
        <ele>319</ele>
        <time>2011-09-25T08:11:18Z</time>
      </trkpt>
      <trkpt lat="49.19172" lon="6.94588">
        <ele>319</ele>
        <time>2011-09-25T08:11:19Z</time>
      </trkpt>
      <trkpt lat="49.19173" lon="6.94589">
        <ele>319</ele>
        <time>2011-09-25T08:11:21Z</time>
      </trkpt>
      <trkpt lat="49.19175" lon="6.9459">
        <ele>319</ele>
        <time>2011-09-25T08:11:23Z</time>
      </trkpt>
      <trkpt lat="49.19177" lon="6.94591">
        <ele>319</ele>
        <time>2011-09-25T08:11:24Z</time>
      </trkpt>
      <trkpt lat="49.19178" lon="6.94591">
        <ele>319</ele>
        <time>2011-09-25T08:11:25Z</time>
      </trkpt>
      <trkpt lat="49.1918" lon="6.94593">
        <ele>319</ele>
        <time>2011-09-25T08:11:26Z</time>
      </trkpt>
      <trkpt lat="49.19181" lon="6.94594">
        <ele>319</ele>
        <time>2011-09-25T08:11:27Z</time>
      </trkpt>
      <trkpt lat="49.19183" lon="6.94595">
        <ele>319</ele>
        <time>2011-09-25T08:11:28Z</time>
      </trkpt>
      <trkpt lat="49.19184" lon="6.94596">
        <ele>319</ele>
        <time>2011-09-25T08:11:29Z</time>
      </trkpt>
      <trkpt lat="49.19186" lon="6.94597">
        <ele>319</ele>
        <time>2011-09-25T08:11:30Z</time>
      </trkpt>
      <trkpt lat="49.19187" lon="6.94596">
        <ele>319</ele>
        <time>2011-09-25T08:11:31Z</time>
      </trkpt>
      <trkpt lat="49.19189" lon="6.94597">
        <ele>319</ele>
        <time>2011-09-25T08:11:32Z</time>
      </trkpt>
      <trkpt lat="49.1919" lon="6.94598">
        <ele>319</ele>
        <time>2011-09-25T08:11:33Z</time>
      </trkpt>
      <trkpt lat="49.19192" lon="6.946">
        <ele>319</ele>
        <time>2011-09-25T08:11:35Z</time>
      </trkpt>
      <trkpt lat="49.19193" lon="6.946">
        <ele>319</ele>
        <time>2011-09-25T08:11:36Z</time>
      </trkpt>
      <trkpt lat="49.19194" lon="6.94601">
        <ele>319</ele>
        <time>2011-09-25T08:11:37Z</time>
      </trkpt>
      <trkpt lat="49.19196" lon="6.946">
        <ele>319</ele>
        <time>2011-09-25T08:11:38Z</time>
      </trkpt>
      <trkpt lat="49.19197" lon="6.946">
        <ele>319</ele>
        <time>2011-09-25T08:11:39Z</time>
      </trkpt>
      <trkpt lat="49.19199" lon="6.94599">
        <ele>319</ele>
        <time>2011-09-25T08:11:40Z</time>
      </trkpt>
      <trkpt lat="49.19201" lon="6.94597">
        <ele>319</ele>
        <time>2011-09-25T08:11:42Z</time>
      </trkpt>
      <trkpt lat="49.19203" lon="6.94595">
        <ele>319</ele>
        <time>2011-09-25T08:11:45Z</time>
      </trkpt>
      <trkpt lat="49.19205" lon="6.94593">
        <ele>319</ele>
        <time>2011-09-25T08:11:47Z</time>
      </trkpt>
      <trkpt lat="49.19206" lon="6.94592">
        <ele>319</ele>
        <time>2011-09-25T08:11:49Z</time>
      </trkpt>
      <trkpt lat="49.19209" lon="6.94593">
        <ele>319</ele>
        <time>2011-09-25T08:11:52Z</time>
      </trkpt>
      <trkpt lat="49.1921" lon="6.94594">
        <ele>319</ele>
        <time>2011-09-25T08:11:53Z</time>
      </trkpt>
      <trkpt lat="49.19212" lon="6.94595">
        <ele>319</ele>
        <time>2011-09-25T08:11:55Z</time>
      </trkpt>
      <trkpt lat="49.19214" lon="6.94594">
        <ele>319</ele>
        <time>2011-09-25T08:11:57Z</time>
      </trkpt>
      <trkpt lat="49.19217" lon="6.94592">
        <ele>319</ele>
        <time>2011-09-25T08:11:59Z</time>
      </trkpt>
      <trkpt lat="49.19219" lon="6.94592">
        <ele>319</ele>
        <time>2011-09-25T08:12:01Z</time>
      </trkpt>
      <trkpt lat="49.1922" lon="6.94591">
        <ele>319</ele>
        <time>2011-09-25T08:12:02Z</time>
      </trkpt>
      <trkpt lat="49.19222" lon="6.9459">
        <ele>319</ele>
        <time>2011-09-25T08:12:03Z</time>
      </trkpt>
      <trkpt lat="49.19224" lon="6.9459">
        <ele>319</ele>
        <time>2011-09-25T08:12:04Z</time>
      </trkpt>
      <trkpt lat="49.19226" lon="6.94589">
        <ele>319</ele>
        <time>2011-09-25T08:12:05Z</time>
      </trkpt>
      <trkpt lat="49.19227" lon="6.94588">
        <ele>319</ele>
        <time>2011-09-25T08:12:06Z</time>
      </trkpt>
      <trkpt lat="49.19229" lon="6.94587">
        <ele>319</ele>
        <time>2011-09-25T08:12:08Z</time>
      </trkpt>
      <trkpt lat="49.19231" lon="6.94586">
        <ele>318</ele>
        <time>2011-09-25T08:12:10Z</time>
      </trkpt>
      <trkpt lat="49.19233" lon="6.94585">
        <ele>318</ele>
        <time>2011-09-25T08:12:11Z</time>
      </trkpt>
      <trkpt lat="49.19235" lon="6.94585">
        <ele>317</ele>
        <time>2011-09-25T08:12:13Z</time>
      </trkpt>
      <trkpt lat="49.19237" lon="6.94584">
        <ele>317</ele>
        <time>2011-09-25T08:12:14Z</time>
      </trkpt>
      <trkpt lat="49.19238" lon="6.94585">
        <ele>317</ele>
        <time>2011-09-25T08:12:15Z</time>
      </trkpt>
      <trkpt lat="49.1924" lon="6.94586">
        <ele>317</ele>
        <time>2011-09-25T08:12:16Z</time>
      </trkpt>
      <trkpt lat="49.19242" lon="6.94586">
        <ele>317</ele>
        <time>2011-09-25T08:12:17Z</time>
      </trkpt>
      <trkpt lat="49.19244" lon="6.94586">
        <ele>316</ele>
        <time>2011-09-25T08:12:20Z</time>
      </trkpt>
      <trkpt lat="49.19246" lon="6.94586">
        <ele>316</ele>
        <time>2011-09-25T08:12:22Z</time>
      </trkpt>
      <trkpt lat="49.19247" lon="6.94586">
        <ele>316</ele>
        <time>2011-09-25T08:12:23Z</time>
      </trkpt>
      <trkpt lat="49.19249" lon="6.94586">
        <ele>316</ele>
        <time>2011-09-25T08:12:24Z</time>
      </trkpt>
      <trkpt lat="49.1925" lon="6.94588">
        <ele>316</ele>
        <time>2011-09-25T08:12:26Z</time>
      </trkpt>
      <trkpt lat="49.19252" lon="6.94591">
        <ele>316</ele>
        <time>2011-09-25T08:12:28Z</time>
      </trkpt>
      <trkpt lat="49.19254" lon="6.94592">
        <ele>316</ele>
        <time>2011-09-25T08:12:29Z</time>
      </trkpt>
      <trkpt lat="49.19255" lon="6.94593">
        <ele>316</ele>
        <time>2011-09-25T08:12:32Z</time>
      </trkpt>
      <trkpt lat="49.19256" lon="6.94595">
        <ele>316</ele>
        <time>2011-09-25T08:12:34Z</time>
      </trkpt>
      <trkpt lat="49.19256" lon="6.94597">
        <ele>316</ele>
        <time>2011-09-25T08:12:36Z</time>
      </trkpt>
      <trkpt lat="49.19258" lon="6.94598">
        <ele>316</ele>
        <time>2011-09-25T08:12:37Z</time>
      </trkpt>
      <trkpt lat="49.19258" lon="6.946">
        <ele>316</ele>
        <time>2011-09-25T08:12:39Z</time>
      </trkpt>
      <trkpt lat="49.1926" lon="6.94601">
        <ele>316</ele>
        <time>2011-09-25T08:12:40Z</time>
      </trkpt>
      <trkpt lat="49.1926" lon="6.94603">
        <ele>316</ele>
        <time>2011-09-25T08:12:42Z</time>
      </trkpt>
      <trkpt lat="49.19261" lon="6.94604">
        <ele>316</ele>
        <time>2011-09-25T08:12:44Z</time>
      </trkpt>
      <trkpt lat="49.19262" lon="6.94605">
        <ele>316</ele>
        <time>2011-09-25T08:12:45Z</time>
      </trkpt>
      <trkpt lat="49.19265" lon="6.94606">
        <ele>316</ele>
        <time>2011-09-25T08:12:46Z</time>
      </trkpt>
      <trkpt lat="49.19267" lon="6.94608">
        <ele>316</ele>
        <time>2011-09-25T08:12:48Z</time>
      </trkpt>
      <trkpt lat="49.19269" lon="6.9461">
        <ele>316</ele>
        <time>2011-09-25T08:12:50Z</time>
      </trkpt>
      <trkpt lat="49.1927" lon="6.94611">
        <ele>316</ele>
        <time>2011-09-25T08:12:51Z</time>
      </trkpt>
      <trkpt lat="49.19271" lon="6.94613">
        <ele>316</ele>
        <time>2011-09-25T08:12:52Z</time>
      </trkpt>
      <trkpt lat="49.19273" lon="6.94616">
        <ele>316</ele>
        <time>2011-09-25T08:12:54Z</time>
      </trkpt>
      <trkpt lat="49.19274" lon="6.94618">
        <ele>316</ele>
        <time>2011-09-25T08:12:55Z</time>
      </trkpt>
      <trkpt lat="49.19275" lon="6.94619">
        <ele>316</ele>
        <time>2011-09-25T08:12:56Z</time>
      </trkpt>
      <trkpt lat="49.19277" lon="6.9462">
        <ele>316</ele>
        <time>2011-09-25T08:12:57Z</time>
      </trkpt>
      <trkpt lat="49.19279" lon="6.94622">
        <ele>316</ele>
        <time>2011-09-25T08:12:59Z</time>
      </trkpt>
      <trkpt lat="49.19282" lon="6.94625">
        <ele>316</ele>
        <time>2011-09-25T08:13:00Z</time>
      </trkpt>
      <trkpt lat="49.19284" lon="6.94626">
        <ele>316</ele>
        <time>2011-09-25T08:13:01Z</time>
      </trkpt>
      <trkpt lat="49.19286" lon="6.94627">
        <ele>316</ele>
        <time>2011-09-25T08:13:03Z</time>
      </trkpt>
      <trkpt lat="49.19287" lon="6.94628">
        <ele>316</ele>
        <time>2011-09-25T08:13:04Z</time>
      </trkpt>
      <trkpt lat="49.1929" lon="6.9463">
        <ele>316</ele>
        <time>2011-09-25T08:13:06Z</time>
      </trkpt>
      <trkpt lat="49.19291" lon="6.94631">
        <ele>316</ele>
        <time>2011-09-25T08:13:08Z</time>
      </trkpt>
      <trkpt lat="49.19292" lon="6.94632">
        <ele>316</ele>
        <time>2011-09-25T08:13:09Z</time>
      </trkpt>
      <trkpt lat="49.19294" lon="6.94633">
        <ele>316</ele>
        <time>2011-09-25T08:13:10Z</time>
      </trkpt>
      <trkpt lat="49.19295" lon="6.94636">
        <ele>316</ele>
        <time>2011-09-25T08:13:12Z</time>
      </trkpt>
      <trkpt lat="49.19297" lon="6.94636">
        <ele>316</ele>
        <time>2011-09-25T08:13:13Z</time>
      </trkpt>
      <trkpt lat="49.193" lon="6.94639">
        <ele>316</ele>
        <time>2011-09-25T08:13:15Z</time>
      </trkpt>
      <trkpt lat="49.19302" lon="6.9464">
        <ele>316</ele>
        <time>2011-09-25T08:13:16Z</time>
      </trkpt>
      <trkpt lat="49.19304" lon="6.94641">
        <ele>316</ele>
        <time>2011-09-25T08:13:17Z</time>
      </trkpt>
      <trkpt lat="49.19305" lon="6.94642">
        <ele>316</ele>
        <time>2011-09-25T08:13:18Z</time>
      </trkpt>
      <trkpt lat="49.19305" lon="6.94644">
        <ele>316</ele>
        <time>2011-09-25T08:13:19Z</time>
      </trkpt>
      <trkpt lat="49.19307" lon="6.94647">
        <ele>316</ele>
        <time>2011-09-25T08:13:21Z</time>
      </trkpt>
      <trkpt lat="49.19309" lon="6.94648">
        <ele>316</ele>
        <time>2011-09-25T08:13:23Z</time>
      </trkpt>
      <trkpt lat="49.1931" lon="6.94649">
        <ele>316</ele>
        <time>2011-09-25T08:13:24Z</time>
      </trkpt>
      <trkpt lat="49.19312" lon="6.94651">
        <ele>315</ele>
        <time>2011-09-25T08:13:25Z</time>
      </trkpt>
      <trkpt lat="49.19314" lon="6.94652">
        <ele>315</ele>
        <time>2011-09-25T08:13:26Z</time>
      </trkpt>
      <trkpt lat="49.19316" lon="6.94653">
        <ele>315</ele>
        <time>2011-09-25T08:13:27Z</time>
      </trkpt>
      <trkpt lat="49.19319" lon="6.94654">
        <ele>315</ele>
        <time>2011-09-25T08:13:31Z</time>
      </trkpt>
      <trkpt lat="49.19321" lon="6.94652">
        <ele>315</ele>
        <time>2011-09-25T08:13:34Z</time>
      </trkpt>
      <trkpt lat="49.19322" lon="6.94652">
        <ele>315</ele>
        <time>2011-09-25T08:13:35Z</time>
      </trkpt>
      <trkpt lat="49.19323" lon="6.94653">
        <ele>315</ele>
        <time>2011-09-25T08:13:37Z</time>
      </trkpt>
      <trkpt lat="49.19324" lon="6.94655">
        <ele>315</ele>
        <time>2011-09-25T08:13:38Z</time>
      </trkpt>
      <trkpt lat="49.19325" lon="6.94656">
        <ele>315</ele>
        <time>2011-09-25T08:13:40Z</time>
      </trkpt>
      <trkpt lat="49.19326" lon="6.94657">
        <ele>315</ele>
        <time>2011-09-25T08:13:42Z</time>
      </trkpt>
      <trkpt lat="49.19328" lon="6.94661">
        <ele>315</ele>
        <time>2011-09-25T08:13:44Z</time>
      </trkpt>
      <trkpt lat="49.19329" lon="6.94664">
        <ele>315</ele>
        <time>2011-09-25T08:13:46Z</time>
      </trkpt>
      <trkpt lat="49.19329" lon="6.94666">
        <ele>315</ele>
        <time>2011-09-25T08:13:47Z</time>
      </trkpt>
      <trkpt lat="49.19333" lon="6.9467">
        <ele>315</ele>
        <time>2011-09-25T08:13:49Z</time>
      </trkpt>
      <trkpt lat="49.19334" lon="6.94672">
        <ele>315</ele>
        <time>2011-09-25T08:13:50Z</time>
      </trkpt>
      <trkpt lat="49.19335" lon="6.94673">
        <ele>315</ele>
        <time>2011-09-25T08:13:51Z</time>
      </trkpt>
      <trkpt lat="49.19337" lon="6.94674">
        <ele>315</ele>
        <time>2011-09-25T08:13:52Z</time>
      </trkpt>
      <trkpt lat="49.19337" lon="6.94676">
        <ele>315</ele>
        <time>2011-09-25T08:13:53Z</time>
      </trkpt>
      <trkpt lat="49.19338" lon="6.94678">
        <ele>315</ele>
        <time>2011-09-25T08:13:54Z</time>
      </trkpt>
      <trkpt lat="49.19338" lon="6.94681">
        <ele>315</ele>
        <time>2011-09-25T08:13:56Z</time>
      </trkpt>
      <trkpt lat="49.1934" lon="6.94684">
        <ele>315</ele>
        <time>2011-09-25T08:13:58Z</time>
      </trkpt>
      <trkpt lat="49.19342" lon="6.94687">
        <ele>315</ele>
        <time>2011-09-25T08:13:59Z</time>
      </trkpt>
      <trkpt lat="49.19342" lon="6.94689">
        <ele>315</ele>
        <time>2011-09-25T08:14:00Z</time>
      </trkpt>
      <trkpt lat="49.19342" lon="6.94691">
        <ele>315</ele>
        <time>2011-09-25T08:14:01Z</time>
      </trkpt>
      <trkpt lat="49.19342" lon="6.94693">
        <ele>315</ele>
        <time>2011-09-25T08:14:02Z</time>
      </trkpt>
      <trkpt lat="49.19343" lon="6.94695">
        <ele>315</ele>
        <time>2011-09-25T08:14:03Z</time>
      </trkpt>
      <trkpt lat="49.19344" lon="6.94697">
        <ele>315</ele>
        <time>2011-09-25T08:14:04Z</time>
      </trkpt>
      <trkpt lat="49.19346" lon="6.94699">
        <ele>315</ele>
        <time>2011-09-25T08:14:05Z</time>
      </trkpt>
      <trkpt lat="49.19348" lon="6.947">
        <ele>315</ele>
        <time>2011-09-25T08:14:06Z</time>
      </trkpt>
      <trkpt lat="49.1935" lon="6.94702">
        <ele>316</ele>
        <time>2011-09-25T08:14:07Z</time>
      </trkpt>
      <trkpt lat="49.19353" lon="6.94704">
        <ele>317</ele>
        <time>2011-09-25T08:14:09Z</time>
      </trkpt>
      <trkpt lat="49.19354" lon="6.94704">
        <ele>317</ele>
        <time>2011-09-25T08:14:10Z</time>
      </trkpt>
      <trkpt lat="49.19356" lon="6.94705">
        <ele>317</ele>
        <time>2011-09-25T08:14:12Z</time>
      </trkpt>
      <trkpt lat="49.19359" lon="6.94707">
        <ele>317</ele>
        <time>2011-09-25T08:14:15Z</time>
      </trkpt>
      <trkpt lat="49.19359" lon="6.94709">
        <ele>318</ele>
        <time>2011-09-25T08:14:17Z</time>
      </trkpt>
      <trkpt lat="49.1936" lon="6.94709">
        <ele>318</ele>
        <time>2011-09-25T08:14:18Z</time>
      </trkpt>
      <trkpt lat="49.19363" lon="6.9471">
        <ele>318</ele>
        <time>2011-09-25T08:14:20Z</time>
      </trkpt>
      <trkpt lat="49.19364" lon="6.94712">
        <ele>318</ele>
        <time>2011-09-25T08:14:21Z</time>
      </trkpt>
      <trkpt lat="49.19364" lon="6.94713">
        <ele>318</ele>
        <time>2011-09-25T08:14:22Z</time>
      </trkpt>
      <trkpt lat="49.19365" lon="6.94714">
        <ele>318</ele>
        <time>2011-09-25T08:14:23Z</time>
      </trkpt>
      <trkpt lat="49.19367" lon="6.94715">
        <ele>318</ele>
        <time>2011-09-25T08:14:24Z</time>
      </trkpt>
      <trkpt lat="49.19368" lon="6.94716">
        <ele>318</ele>
        <time>2011-09-25T08:14:25Z</time>
      </trkpt>
      <trkpt lat="49.1937" lon="6.94717">
        <ele>318</ele>
        <time>2011-09-25T08:14:26Z</time>
      </trkpt>
      <trkpt lat="49.19371" lon="6.9472">
        <ele>318</ele>
        <time>2011-09-25T08:14:28Z</time>
      </trkpt>
      <trkpt lat="49.19373" lon="6.94722">
        <ele>318</ele>
        <time>2011-09-25T08:14:30Z</time>
      </trkpt>
      <trkpt lat="49.19374" lon="6.94723">
        <ele>318</ele>
        <time>2011-09-25T08:14:31Z</time>
      </trkpt>
      <trkpt lat="49.19376" lon="6.94725">
        <ele>318</ele>
        <time>2011-09-25T08:14:33Z</time>
      </trkpt>
      <trkpt lat="49.19377" lon="6.94726">
        <ele>318</ele>
        <time>2011-09-25T08:14:34Z</time>
      </trkpt>
      <trkpt lat="49.19379" lon="6.94728">
        <ele>318</ele>
        <time>2011-09-25T08:14:36Z</time>
      </trkpt>
      <trkpt lat="49.1938" lon="6.9473">
        <ele>318</ele>
        <time>2011-09-25T08:14:38Z</time>
      </trkpt>
      <trkpt lat="49.19382" lon="6.94732">
        <ele>318</ele>
        <time>2011-09-25T08:14:40Z</time>
      </trkpt>
      <trkpt lat="49.19382" lon="6.94733">
        <ele>318</ele>
        <time>2011-09-25T08:14:41Z</time>
      </trkpt>
      <trkpt lat="49.19384" lon="6.94734">
        <ele>318</ele>
        <time>2011-09-25T08:14:42Z</time>
      </trkpt>
      <trkpt lat="49.19386" lon="6.94735">
        <ele>318</ele>
        <time>2011-09-25T08:14:43Z</time>
      </trkpt>
      <trkpt lat="49.19388" lon="6.94737">
        <ele>318</ele>
        <time>2011-09-25T08:14:45Z</time>
      </trkpt>
      <trkpt lat="49.19388" lon="6.9474">
        <ele>318</ele>
        <time>2011-09-25T08:14:47Z</time>
      </trkpt>
      <trkpt lat="49.19389" lon="6.94741">
        <ele>318</ele>
        <time>2011-09-25T08:14:48Z</time>
      </trkpt>
      <trkpt lat="49.19391" lon="6.94743">
        <ele>318</ele>
        <time>2011-09-25T08:14:50Z</time>
      </trkpt>
      <trkpt lat="49.19392" lon="6.94745">
        <ele>318</ele>
        <time>2011-09-25T08:14:52Z</time>
      </trkpt>
      <trkpt lat="49.19392" lon="6.94747">
        <ele>318</ele>
        <time>2011-09-25T08:14:53Z</time>
      </trkpt>
      <trkpt lat="49.19394" lon="6.94748">
        <ele>319</ele>
        <time>2011-09-25T08:14:54Z</time>
      </trkpt>
      <trkpt lat="49.19395" lon="6.9475">
        <ele>320</ele>
        <time>2011-09-25T08:14:56Z</time>
      </trkpt>
      <trkpt lat="49.19396" lon="6.94753">
        <ele>320</ele>
        <time>2011-09-25T08:14:57Z</time>
      </trkpt>
      <trkpt lat="49.19395" lon="6.94754">
        <ele>320</ele>
        <time>2011-09-25T08:14:58Z</time>
      </trkpt>
      <trkpt lat="49.19397" lon="6.94756">
        <ele>321</ele>
        <time>2011-09-25T08:15:00Z</time>
      </trkpt>
      <trkpt lat="49.19398" lon="6.94758">
        <ele>322</ele>
        <time>2011-09-25T08:15:02Z</time>
      </trkpt>
      <trkpt lat="49.19398" lon="6.94761">
        <ele>322</ele>
        <time>2011-09-25T08:15:04Z</time>
      </trkpt>
      <trkpt lat="49.19399" lon="6.94765">
        <ele>322</ele>
        <time>2011-09-25T08:15:06Z</time>
      </trkpt>
      <trkpt lat="49.19398" lon="6.94767">
        <ele>322</ele>
        <time>2011-09-25T08:15:07Z</time>
      </trkpt>
      <trkpt lat="49.194" lon="6.9477">
        <ele>323</ele>
        <time>2011-09-25T08:15:09Z</time>
      </trkpt>
      <trkpt lat="49.194" lon="6.94773">
        <ele>324</ele>
        <time>2011-09-25T08:15:11Z</time>
      </trkpt>
      <trkpt lat="49.194" lon="6.94774">
        <ele>324</ele>
        <time>2011-09-25T08:15:12Z</time>
      </trkpt>
      <trkpt lat="49.194" lon="6.94776">
        <ele>324</ele>
        <time>2011-09-25T08:15:13Z</time>
      </trkpt>
      <trkpt lat="49.19402" lon="6.94779">
        <ele>324</ele>
        <time>2011-09-25T08:15:14Z</time>
      </trkpt>
      <trkpt lat="49.19403" lon="6.94781">
        <ele>325</ele>
        <time>2011-09-25T08:15:15Z</time>
      </trkpt>
      <trkpt lat="49.19404" lon="6.94783">
        <ele>325</ele>
        <time>2011-09-25T08:15:16Z</time>
      </trkpt>
      <trkpt lat="49.19405" lon="6.94783">
        <ele>325</ele>
        <time>2011-09-25T08:15:17Z</time>
      </trkpt>
      <trkpt lat="49.19408" lon="6.94786">
        <ele>325</ele>
        <time>2011-09-25T08:15:19Z</time>
      </trkpt>
      <trkpt lat="49.19409" lon="6.94788">
        <ele>325</ele>
        <time>2011-09-25T08:15:20Z</time>
      </trkpt>
      <trkpt lat="49.1941" lon="6.94789">
        <ele>325</ele>
        <time>2011-09-25T08:15:21Z</time>
      </trkpt>
      <trkpt lat="49.19411" lon="6.94791">
        <ele>325</ele>
        <time>2011-09-25T08:15:22Z</time>
      </trkpt>
      <trkpt lat="49.19412" lon="6.94793">
        <ele>325</ele>
        <time>2011-09-25T08:15:23Z</time>
      </trkpt>
      <trkpt lat="49.19413" lon="6.94794">
        <ele>326</ele>
        <time>2011-09-25T08:15:24Z</time>
      </trkpt>
      <trkpt lat="49.19413" lon="6.94796">
        <ele>326</ele>
        <time>2011-09-25T08:15:25Z</time>
      </trkpt>
      <trkpt lat="49.19415" lon="6.94797">
        <ele>326</ele>
        <time>2011-09-25T08:15:27Z</time>
      </trkpt>
      <trkpt lat="49.19417" lon="6.94797">
        <ele>326</ele>
        <time>2011-09-25T08:15:28Z</time>
      </trkpt>
      <trkpt lat="49.19419" lon="6.94796">
        <ele>326</ele>
        <time>2011-09-25T08:15:29Z</time>
      </trkpt>
      <trkpt lat="49.19421" lon="6.94795">
        <ele>326</ele>
        <time>2011-09-25T08:15:30Z</time>
      </trkpt>
      <trkpt lat="49.19423" lon="6.94794">
        <ele>326</ele>
        <time>2011-09-25T08:15:31Z</time>
      </trkpt>
      <trkpt lat="49.19424" lon="6.94792">
        <ele>326</ele>
        <time>2011-09-25T08:15:32Z</time>
      </trkpt>
      <trkpt lat="49.19426" lon="6.94791">
        <ele>326</ele>
        <time>2011-09-25T08:15:34Z</time>
      </trkpt>
      <trkpt lat="49.19427" lon="6.94792">
        <ele>325</ele>
        <time>2011-09-25T08:15:35Z</time>
      </trkpt>
      <trkpt lat="49.19429" lon="6.94792">
        <ele>325</ele>
        <time>2011-09-25T08:15:36Z</time>
      </trkpt>
      <trkpt lat="49.1943" lon="6.94792">
        <ele>325</ele>
        <time>2011-09-25T08:15:37Z</time>
      </trkpt>
      <trkpt lat="49.19432" lon="6.94793">
        <ele>325</ele>
        <time>2011-09-25T08:15:39Z</time>
      </trkpt>
      <trkpt lat="49.19434" lon="6.94793">
        <ele>325</ele>
        <time>2011-09-25T08:15:40Z</time>
      </trkpt>
      <trkpt lat="49.19436" lon="6.94793">
        <ele>325</ele>
        <time>2011-09-25T08:15:41Z</time>
      </trkpt>
      <trkpt lat="49.19437" lon="6.94794">
        <ele>325</ele>
        <time>2011-09-25T08:15:43Z</time>
      </trkpt>
      <trkpt lat="49.19439" lon="6.94794">
        <ele>325</ele>
        <time>2011-09-25T08:15:45Z</time>
      </trkpt>
      <trkpt lat="49.1944" lon="6.94795">
        <ele>325</ele>
        <time>2011-09-25T08:15:47Z</time>
      </trkpt>
      <trkpt lat="49.19442" lon="6.94796">
        <ele>325</ele>
        <time>2011-09-25T08:15:49Z</time>
      </trkpt>
      <trkpt lat="49.19443" lon="6.94796">
        <ele>325</ele>
        <time>2011-09-25T08:15:50Z</time>
      </trkpt>
      <trkpt lat="49.19445" lon="6.94798">
        <ele>325</ele>
        <time>2011-09-25T08:15:51Z</time>
      </trkpt>
      <trkpt lat="49.19446" lon="6.94799">
        <ele>325</ele>
        <time>2011-09-25T08:15:52Z</time>
      </trkpt>
      <trkpt lat="49.19448" lon="6.948">
        <ele>325</ele>
        <time>2011-09-25T08:15:53Z</time>
      </trkpt>
      <trkpt lat="49.19449" lon="6.94801">
        <ele>325</ele>
        <time>2011-09-25T08:15:54Z</time>
      </trkpt>
      <trkpt lat="49.19451" lon="6.94802">
        <ele>325</ele>
        <time>2011-09-25T08:15:55Z</time>
      </trkpt>
      <trkpt lat="49.19452" lon="6.94804">
        <ele>325</ele>
        <time>2011-09-25T08:15:57Z</time>
      </trkpt>
      <trkpt lat="49.19453" lon="6.94807">
        <ele>325</ele>
        <time>2011-09-25T08:15:59Z</time>
      </trkpt>
      <trkpt lat="49.19454" lon="6.94809">
        <ele>325</ele>
        <time>2011-09-25T08:16:01Z</time>
      </trkpt>
      <trkpt lat="49.19455" lon="6.94811">
        <ele>325</ele>
        <time>2011-09-25T08:16:03Z</time>
      </trkpt>
      <trkpt lat="49.19456" lon="6.94813">
        <ele>325</ele>
        <time>2011-09-25T08:16:05Z</time>
      </trkpt>
      <trkpt lat="49.19458" lon="6.94816">
        <ele>325</ele>
        <time>2011-09-25T08:16:07Z</time>
      </trkpt>
      <trkpt lat="49.19459" lon="6.94817">
        <ele>325</ele>
        <time>2011-09-25T08:16:09Z</time>
      </trkpt>
      <trkpt lat="49.19463" lon="6.94817">
        <ele>325</ele>
        <time>2011-09-25T08:16:11Z</time>
      </trkpt>
      <trkpt lat="49.19464" lon="6.94818">
        <ele>325</ele>
        <time>2011-09-25T08:16:13Z</time>
      </trkpt>
      <trkpt lat="49.19464" lon="6.94821">
        <ele>325</ele>
        <time>2011-09-25T08:16:15Z</time>
      </trkpt>
      <trkpt lat="49.19466" lon="6.94823">
        <ele>325</ele>
        <time>2011-09-25T08:16:17Z</time>
      </trkpt>
      <trkpt lat="49.19467" lon="6.94824">
        <ele>325</ele>
        <time>2011-09-25T08:16:19Z</time>
      </trkpt>
      <trkpt lat="49.19469" lon="6.94823">
        <ele>325</ele>
        <time>2011-09-25T08:16:22Z</time>
      </trkpt>
      <trkpt lat="49.1947" lon="6.94823">
        <ele>325</ele>
        <time>2011-09-25T08:16:25Z</time>
      </trkpt>
      <trkpt lat="49.19471" lon="6.94825">
        <ele>325</ele>
        <time>2011-09-25T08:16:34Z</time>
      </trkpt>
      <trkpt lat="49.19473" lon="6.94825">
        <ele>325</ele>
        <time>2011-09-25T08:16:35Z</time>
      </trkpt>
      <trkpt lat="49.19475" lon="6.94825">
        <ele>325</ele>
        <time>2011-09-25T08:16:37Z</time>
      </trkpt>
      <trkpt lat="49.19474" lon="6.94828">
        <ele>325</ele>
        <time>2011-09-25T08:16:40Z</time>
      </trkpt>
      <trkpt lat="49.19475" lon="6.9483">
        <ele>325</ele>
        <time>2011-09-25T08:16:42Z</time>
      </trkpt>
      <trkpt lat="49.19476" lon="6.94832">
        <ele>325</ele>
        <time>2011-09-25T08:16:43Z</time>
      </trkpt>
      <trkpt lat="49.19478" lon="6.94834">
        <ele>325</ele>
        <time>2011-09-25T08:16:44Z</time>
      </trkpt>
      <trkpt lat="49.19479" lon="6.94836">
        <ele>325</ele>
        <time>2011-09-25T08:16:45Z</time>
      </trkpt>
      <trkpt lat="49.1948" lon="6.94838">
        <ele>325</ele>
        <time>2011-09-25T08:16:46Z</time>
      </trkpt>
      <trkpt lat="49.1948" lon="6.94841">
        <ele>325</ele>
        <time>2011-09-25T08:16:47Z</time>
      </trkpt>
      <trkpt lat="49.19479" lon="6.94844">
        <ele>325</ele>
        <time>2011-09-25T08:16:48Z</time>
      </trkpt>
      <trkpt lat="49.19479" lon="6.94846">
        <ele>325</ele>
        <time>2011-09-25T08:16:49Z</time>
      </trkpt>
      <trkpt lat="49.1948" lon="6.94848">
        <ele>325</ele>
        <time>2011-09-25T08:16:50Z</time>
      </trkpt>
      <trkpt lat="49.19482" lon="6.9485">
        <ele>325</ele>
        <time>2011-09-25T08:16:52Z</time>
      </trkpt>
      <trkpt lat="49.19482" lon="6.94853">
        <ele>325</ele>
        <time>2011-09-25T08:16:54Z</time>
      </trkpt>
      <trkpt lat="49.19484" lon="6.94855">
        <ele>325</ele>
        <time>2011-09-25T08:16:56Z</time>
      </trkpt>
      <trkpt lat="49.19485" lon="6.94856">
        <ele>325</ele>
        <time>2011-09-25T08:16:57Z</time>
      </trkpt>
      <trkpt lat="49.19487" lon="6.94856">
        <ele>325</ele>
        <time>2011-09-25T08:16:58Z</time>
      </trkpt>
      <trkpt lat="49.19489" lon="6.94859">
        <ele>325</ele>
        <time>2011-09-25T08:17:00Z</time>
      </trkpt>
      <trkpt lat="49.1949" lon="6.94861">
        <ele>325</ele>
        <time>2011-09-25T08:17:01Z</time>
      </trkpt>
      <trkpt lat="49.19492" lon="6.94862">
        <ele>325</ele>
        <time>2011-09-25T08:17:02Z</time>
      </trkpt>
      <trkpt lat="49.19493" lon="6.94864">
        <ele>325</ele>
        <time>2011-09-25T08:17:03Z</time>
      </trkpt>
      <trkpt lat="49.19494" lon="6.94865">
        <ele>325</ele>
        <time>2011-09-25T08:17:04Z</time>
      </trkpt>
      <trkpt lat="49.19495" lon="6.94868">
        <ele>325</ele>
        <time>2011-09-25T08:17:06Z</time>
      </trkpt>
      <trkpt lat="49.19496" lon="6.9487">
        <ele>325</ele>
        <time>2011-09-25T08:17:08Z</time>
      </trkpt>
      <trkpt lat="49.19498" lon="6.94871">
        <ele>325</ele>
        <time>2011-09-25T08:17:09Z</time>
      </trkpt>
      <trkpt lat="49.19499" lon="6.94872">
        <ele>325</ele>
        <time>2011-09-25T08:17:10Z</time>
      </trkpt>
      <trkpt lat="49.19501" lon="6.94873">
        <ele>325</ele>
        <time>2011-09-25T08:17:11Z</time>
      </trkpt>
      <trkpt lat="49.19502" lon="6.94874">
        <ele>325</ele>
        <time>2011-09-25T08:17:12Z</time>
      </trkpt>
      <trkpt lat="49.19503" lon="6.94875">
        <ele>325</ele>
        <time>2011-09-25T08:17:13Z</time>
      </trkpt>
      <trkpt lat="49.19504" lon="6.94877">
        <ele>325</ele>
        <time>2011-09-25T08:17:14Z</time>
      </trkpt>
      <trkpt lat="49.19505" lon="6.9488">
        <ele>325</ele>
        <time>2011-09-25T08:17:16Z</time>
      </trkpt>
      <trkpt lat="49.19505" lon="6.94882">
        <ele>325</ele>
        <time>2011-09-25T08:17:17Z</time>
      </trkpt>
      <trkpt lat="49.19506" lon="6.94883">
        <ele>325</ele>
        <time>2011-09-25T08:17:18Z</time>
      </trkpt>
      <trkpt lat="49.19507" lon="6.94883">
        <ele>325</ele>
        <time>2011-09-25T08:17:19Z</time>
      </trkpt>
      <trkpt lat="49.19508" lon="6.94885">
        <ele>325</ele>
        <time>2011-09-25T08:17:21Z</time>
      </trkpt>
      <trkpt lat="49.1951" lon="6.94888">
        <ele>325</ele>
        <time>2011-09-25T08:17:23Z</time>
      </trkpt>
      <trkpt lat="49.19512" lon="6.94889">
        <ele>325</ele>
        <time>2011-09-25T08:17:24Z</time>
      </trkpt>
      <trkpt lat="49.19513" lon="6.9489">
        <ele>325</ele>
        <time>2011-09-25T08:17:25Z</time>
      </trkpt>
      <trkpt lat="49.19515" lon="6.9489">
        <ele>325</ele>
        <time>2011-09-25T08:17:26Z</time>
      </trkpt>
      <trkpt lat="49.19516" lon="6.94891">
        <ele>325</ele>
        <time>2011-09-25T08:17:27Z</time>
      </trkpt>
      <trkpt lat="49.19518" lon="6.94894">
        <ele>325</ele>
        <time>2011-09-25T08:17:29Z</time>
      </trkpt>
      <trkpt lat="49.1952" lon="6.94896">
        <ele>325</ele>
        <time>2011-09-25T08:17:31Z</time>
      </trkpt>
      <trkpt lat="49.19522" lon="6.94898">
        <ele>325</ele>
        <time>2011-09-25T08:17:33Z</time>
      </trkpt>
      <trkpt lat="49.19524" lon="6.94899">
        <ele>325</ele>
        <time>2011-09-25T08:17:34Z</time>
      </trkpt>
      <trkpt lat="49.19525" lon="6.94902">
        <ele>325</ele>
        <time>2011-09-25T08:17:36Z</time>
      </trkpt>
      <trkpt lat="49.19526" lon="6.94904">
        <ele>325</ele>
        <time>2011-09-25T08:17:38Z</time>
      </trkpt>
      <trkpt lat="49.19527" lon="6.94905">
        <ele>325</ele>
        <time>2011-09-25T08:17:39Z</time>
      </trkpt>
      <trkpt lat="49.19529" lon="6.94906">
        <ele>325</ele>
        <time>2011-09-25T08:17:40Z</time>
      </trkpt>
      <trkpt lat="49.1953" lon="6.94907">
        <ele>325</ele>
        <time>2011-09-25T08:17:41Z</time>
      </trkpt>
      <trkpt lat="49.19532" lon="6.94907">
        <ele>325</ele>
        <time>2011-09-25T08:17:43Z</time>
      </trkpt>
      <trkpt lat="49.19534" lon="6.9491">
        <ele>325</ele>
        <time>2011-09-25T08:17:45Z</time>
      </trkpt>
      <trkpt lat="49.19535" lon="6.94912">
        <ele>325</ele>
        <time>2011-09-25T08:17:46Z</time>
      </trkpt>
      <trkpt lat="49.19537" lon="6.94914">
        <ele>325</ele>
        <time>2011-09-25T08:17:47Z</time>
      </trkpt>
      <trkpt lat="49.19538" lon="6.94915">
        <ele>325</ele>
        <time>2011-09-25T08:17:48Z</time>
      </trkpt>
      <trkpt lat="49.19539" lon="6.94916">
        <ele>326</ele>
        <time>2011-09-25T08:17:49Z</time>
      </trkpt>
      <trkpt lat="49.1954" lon="6.94918">
        <ele>326</ele>
        <time>2011-09-25T08:17:50Z</time>
      </trkpt>
      <trkpt lat="49.19542" lon="6.94919">
        <ele>327</ele>
        <time>2011-09-25T08:17:51Z</time>
      </trkpt>
      <trkpt lat="49.19544" lon="6.9492">
        <ele>327</ele>
        <time>2011-09-25T08:17:52Z</time>
      </trkpt>
      <trkpt lat="49.19545" lon="6.94924">
        <ele>328</ele>
        <time>2011-09-25T08:17:54Z</time>
      </trkpt>
      <trkpt lat="49.19547" lon="6.94925">
        <ele>328</ele>
        <time>2011-09-25T08:17:55Z</time>
      </trkpt>
      <trkpt lat="49.19549" lon="6.94927">
        <ele>328</ele>
        <time>2011-09-25T08:17:56Z</time>
      </trkpt>
      <trkpt lat="49.1955" lon="6.9493">
        <ele>329</ele>
        <time>2011-09-25T08:17:58Z</time>
      </trkpt>
      <trkpt lat="49.19552" lon="6.94933">
        <ele>329</ele>
        <time>2011-09-25T08:18:00Z</time>
      </trkpt>
      <trkpt lat="49.19554" lon="6.94935">
        <ele>329</ele>
        <time>2011-09-25T08:18:02Z</time>
      </trkpt>
      <trkpt lat="49.19556" lon="6.94939">
        <ele>329</ele>
        <time>2011-09-25T08:18:04Z</time>
      </trkpt>
      <trkpt lat="49.19558" lon="6.94942">
        <ele>330</ele>
        <time>2011-09-25T08:18:06Z</time>
      </trkpt>
      <trkpt lat="49.19559" lon="6.94944">
        <ele>330</ele>
        <time>2011-09-25T08:18:08Z</time>
      </trkpt>
      <trkpt lat="49.1956" lon="6.94945">
        <ele>330</ele>
        <time>2011-09-25T08:18:09Z</time>
      </trkpt>
      <trkpt lat="49.19561" lon="6.94947">
        <ele>330</ele>
        <time>2011-09-25T08:18:10Z</time>
      </trkpt>
      <trkpt lat="49.19562" lon="6.9495">
        <ele>330</ele>
        <time>2011-09-25T08:18:12Z</time>
      </trkpt>
      <trkpt lat="49.19563" lon="6.94952">
        <ele>330</ele>
        <time>2011-09-25T08:18:13Z</time>
      </trkpt>
      <trkpt lat="49.19565" lon="6.94954">
        <ele>330</ele>
        <time>2011-09-25T08:18:15Z</time>
      </trkpt>
      <trkpt lat="49.19567" lon="6.94955">
        <ele>330</ele>
        <time>2011-09-25T08:18:16Z</time>
      </trkpt>
      <trkpt lat="49.19568" lon="6.94957">
        <ele>330</ele>
        <time>2011-09-25T08:18:18Z</time>
      </trkpt>
      <trkpt lat="49.19569" lon="6.9496">
        <ele>330</ele>
        <time>2011-09-25T08:18:20Z</time>
      </trkpt>
      <trkpt lat="49.1957" lon="6.94962">
        <ele>330</ele>
        <time>2011-09-25T08:18:22Z</time>
      </trkpt>
      <trkpt lat="49.19571" lon="6.94965">
        <ele>330</ele>
        <time>2011-09-25T08:18:24Z</time>
      </trkpt>
      <trkpt lat="49.19573" lon="6.94966">
        <ele>330</ele>
        <time>2011-09-25T08:18:25Z</time>
      </trkpt>
      <trkpt lat="49.19575" lon="6.94968">
        <ele>330</ele>
        <time>2011-09-25T08:18:26Z</time>
      </trkpt>
      <trkpt lat="49.19577" lon="6.9497">
        <ele>330</ele>
        <time>2011-09-25T08:18:27Z</time>
      </trkpt>
      <trkpt lat="49.19578" lon="6.94971">
        <ele>330</ele>
        <time>2011-09-25T08:18:28Z</time>
      </trkpt>
      <trkpt lat="49.1958" lon="6.94973">
        <ele>330</ele>
        <time>2011-09-25T08:18:29Z</time>
      </trkpt>
      <trkpt lat="49.19582" lon="6.94975">
        <ele>330</ele>
        <time>2011-09-25T08:18:30Z</time>
      </trkpt>
      <trkpt lat="49.19582" lon="6.94976">
        <ele>330</ele>
        <time>2011-09-25T08:18:31Z</time>
      </trkpt>
      <trkpt lat="49.19582" lon="6.9498">
        <ele>330</ele>
        <time>2011-09-25T08:18:33Z</time>
      </trkpt>
      <trkpt lat="49.19583" lon="6.94982">
        <ele>330</ele>
        <time>2011-09-25T08:18:34Z</time>
      </trkpt>
      <trkpt lat="49.19583" lon="6.94984">
        <ele>331</ele>
        <time>2011-09-25T08:18:36Z</time>
      </trkpt>
      <trkpt lat="49.19584" lon="6.94987">
        <ele>333</ele>
        <time>2011-09-25T08:18:38Z</time>
      </trkpt>
      <trkpt lat="49.19585" lon="6.9499">
        <ele>333</ele>
        <time>2011-09-25T08:18:40Z</time>
      </trkpt>
      <trkpt lat="49.19585" lon="6.94993">
        <ele>334</ele>
        <time>2011-09-25T08:18:41Z</time>
      </trkpt>
      <trkpt lat="49.19585" lon="6.94995">
        <ele>334</ele>
        <time>2011-09-25T08:18:42Z</time>
      </trkpt>
      <trkpt lat="49.19586" lon="6.94997">
        <ele>334</ele>
        <time>2011-09-25T08:18:43Z</time>
      </trkpt>
      <trkpt lat="49.19586" lon="6.94999">
        <ele>334</ele>
        <time>2011-09-25T08:18:44Z</time>
      </trkpt>
      <trkpt lat="49.19586" lon="6.95001">
        <ele>335</ele>
        <time>2011-09-25T08:18:45Z</time>
      </trkpt>
      <trkpt lat="49.19587" lon="6.95003">
        <ele>335</ele>
        <time>2011-09-25T08:18:47Z</time>
      </trkpt>
      <trkpt lat="49.19588" lon="6.95006">
        <ele>335</ele>
        <time>2011-09-25T08:18:49Z</time>
      </trkpt>
      <trkpt lat="49.1959" lon="6.95008">
        <ele>336</ele>
        <time>2011-09-25T08:18:50Z</time>
      </trkpt>
      <trkpt lat="49.19591" lon="6.9501">
        <ele>336</ele>
        <time>2011-09-25T08:18:51Z</time>
      </trkpt>
      <trkpt lat="49.19591" lon="6.95012">
        <ele>336</ele>
        <time>2011-09-25T08:18:52Z</time>
      </trkpt>
      <trkpt lat="49.19592" lon="6.95013">
        <ele>336</ele>
        <time>2011-09-25T08:18:53Z</time>
      </trkpt>
      <trkpt lat="49.19593" lon="6.95015">
        <ele>336</ele>
        <time>2011-09-25T08:18:54Z</time>
      </trkpt>
      <trkpt lat="49.19595" lon="6.95017">
        <ele>336</ele>
        <time>2011-09-25T08:18:55Z</time>
      </trkpt>
      <trkpt lat="49.19596" lon="6.95018">
        <ele>336</ele>
        <time>2011-09-25T08:18:56Z</time>
      </trkpt>
      <trkpt lat="49.19598" lon="6.95021">
        <ele>336</ele>
        <time>2011-09-25T08:18:58Z</time>
      </trkpt>
      <trkpt lat="49.19599" lon="6.95024">
        <ele>336</ele>
        <time>2011-09-25T08:19:00Z</time>
      </trkpt>
      <trkpt lat="49.196" lon="6.95027">
        <ele>336</ele>
        <time>2011-09-25T08:19:02Z</time>
      </trkpt>
      <trkpt lat="49.19601" lon="6.9503">
        <ele>336</ele>
        <time>2011-09-25T08:19:04Z</time>
      </trkpt>
      <trkpt lat="49.19603" lon="6.95033">
        <ele>336</ele>
        <time>2011-09-25T08:19:06Z</time>
      </trkpt>
      <trkpt lat="49.19603" lon="6.95034">
        <ele>336</ele>
        <time>2011-09-25T08:19:07Z</time>
      </trkpt>
      <trkpt lat="49.19603" lon="6.95037">
        <ele>336</ele>
        <time>2011-09-25T08:19:08Z</time>
      </trkpt>
      <trkpt lat="49.19603" lon="6.95039">
        <ele>336</ele>
        <time>2011-09-25T08:19:09Z</time>
      </trkpt>
      <trkpt lat="49.19603" lon="6.9504">
        <ele>336</ele>
        <time>2011-09-25T08:19:10Z</time>
      </trkpt>
      <trkpt lat="49.19604" lon="6.95042">
        <ele>336</ele>
        <time>2011-09-25T08:19:11Z</time>
      </trkpt>
      <trkpt lat="49.19604" lon="6.95044">
        <ele>336</ele>
        <time>2011-09-25T08:19:12Z</time>
      </trkpt>
      <trkpt lat="49.19606" lon="6.95048">
        <ele>337</ele>
        <time>2011-09-25T08:19:14Z</time>
      </trkpt>
      <trkpt lat="49.19608" lon="6.9505">
        <ele>337</ele>
        <time>2011-09-25T08:19:15Z</time>
      </trkpt>
      <trkpt lat="49.19609" lon="6.95051">
        <ele>337</ele>
        <time>2011-09-25T08:19:16Z</time>
      </trkpt>
      <trkpt lat="49.19611" lon="6.95054">
        <ele>337</ele>
        <time>2011-09-25T08:19:18Z</time>
      </trkpt>
      <trkpt lat="49.19612" lon="6.95055">
        <ele>337</ele>
        <time>2011-09-25T08:19:19Z</time>
      </trkpt>
      <trkpt lat="49.19614" lon="6.95056">
        <ele>337</ele>
        <time>2011-09-25T08:19:20Z</time>
      </trkpt>
      <trkpt lat="49.19615" lon="6.95058">
        <ele>337</ele>
        <time>2011-09-25T08:19:21Z</time>
      </trkpt>
      <trkpt lat="49.19616" lon="6.9506">
        <ele>337</ele>
        <time>2011-09-25T08:19:22Z</time>
      </trkpt>
      <trkpt lat="49.19617" lon="6.95062">
        <ele>337</ele>
        <time>2011-09-25T08:19:23Z</time>
      </trkpt>
      <trkpt lat="49.19618" lon="6.95064">
        <ele>337</ele>
        <time>2011-09-25T08:19:24Z</time>
      </trkpt>
      <trkpt lat="49.1962" lon="6.95067">
        <ele>337</ele>
        <time>2011-09-25T08:19:26Z</time>
      </trkpt>
      <trkpt lat="49.19621" lon="6.95069">
        <ele>337</ele>
        <time>2011-09-25T08:19:28Z</time>
      </trkpt>
      <trkpt lat="49.19622" lon="6.95071">
        <ele>337</ele>
        <time>2011-09-25T08:19:29Z</time>
      </trkpt>
      <trkpt lat="49.19624" lon="6.95074">
        <ele>337</ele>
        <time>2011-09-25T08:19:31Z</time>
      </trkpt>
      <trkpt lat="49.19625" lon="6.95075">
        <ele>337</ele>
        <time>2011-09-25T08:19:33Z</time>
      </trkpt>
      <trkpt lat="49.19626" lon="6.95076">
        <ele>337</ele>
        <time>2011-09-25T08:19:34Z</time>
      </trkpt>
      <trkpt lat="49.19627" lon="6.95077">
        <ele>337</ele>
        <time>2011-09-25T08:19:35Z</time>
      </trkpt>
      <trkpt lat="49.19629" lon="6.95079">
        <ele>337</ele>
        <time>2011-09-25T08:19:36Z</time>
      </trkpt>
      <trkpt lat="49.1963" lon="6.95082">
        <ele>337</ele>
        <time>2011-09-25T08:19:38Z</time>
      </trkpt>
      <trkpt lat="49.1963" lon="6.95084">
        <ele>337</ele>
        <time>2011-09-25T08:19:39Z</time>
      </trkpt>
      <trkpt lat="49.1963" lon="6.95086">
        <ele>337</ele>
        <time>2011-09-25T08:19:40Z</time>
      </trkpt>
      <trkpt lat="49.19631" lon="6.95088">
        <ele>337</ele>
        <time>2011-09-25T08:19:42Z</time>
      </trkpt>
      <trkpt lat="49.19632" lon="6.95091">
        <ele>337</ele>
        <time>2011-09-25T08:19:44Z</time>
      </trkpt>
      <trkpt lat="49.19633" lon="6.95092">
        <ele>337</ele>
        <time>2011-09-25T08:19:45Z</time>
      </trkpt>
      <trkpt lat="49.19634" lon="6.95094">
        <ele>337</ele>
        <time>2011-09-25T08:19:47Z</time>
      </trkpt>
      <trkpt lat="49.19635" lon="6.95094">
        <ele>337</ele>
        <time>2011-09-25T08:19:48Z</time>
      </trkpt>
      <trkpt lat="49.19637" lon="6.95094">
        <ele>337</ele>
        <time>2011-09-25T08:19:49Z</time>
      </trkpt>
      <trkpt lat="49.19635" lon="6.95094">
        <ele>337</ele>
        <time>2011-09-25T08:19:52Z</time>
      </trkpt>
      <trkpt lat="49.19634" lon="6.95094">
        <ele>338</ele>
        <time>2011-09-25T08:19:53Z</time>
      </trkpt>
      <trkpt lat="49.19635" lon="6.95093">
        <ele>340</ele>
        <time>2011-09-25T08:19:56Z</time>
      </trkpt>
      <trkpt lat="49.19637" lon="6.95095">
        <ele>341</ele>
        <time>2011-09-25T08:20:01Z</time>
      </trkpt>
      <trkpt lat="49.19635" lon="6.95095">
        <ele>343</ele>
        <time>2011-09-25T08:20:07Z</time>
      </trkpt>
      <trkpt lat="49.19634" lon="6.95097">
        <ele>344</ele>
        <time>2011-09-25T08:20:13Z</time>
      </trkpt>
      <trkpt lat="49.19632" lon="6.95098">
        <ele>347</ele>
        <time>2011-09-25T08:20:16Z</time>
      </trkpt>
      <trkpt lat="49.19631" lon="6.95099">
        <ele>349</ele>
        <time>2011-09-25T08:20:18Z</time>
      </trkpt>
      <trkpt lat="49.19631" lon="6.95097">
        <ele>349</ele>
        <time>2011-09-25T08:20:32Z</time>
      </trkpt>
      <trkpt lat="49.19631" lon="6.95095">
        <ele>347</ele>
        <time>2011-09-25T08:20:35Z</time>
      </trkpt>
      <trkpt lat="49.19632" lon="6.95097">
        <ele>346</ele>
        <time>2011-09-25T08:20:39Z</time>
      </trkpt>
      <trkpt lat="49.19634" lon="6.95098">
        <ele>346</ele>
        <time>2011-09-25T08:20:41Z</time>
      </trkpt>
      <trkpt lat="49.19635" lon="6.95097">
        <ele>345</ele>
        <time>2011-09-25T08:20:42Z</time>
      </trkpt>
      <trkpt lat="49.19637" lon="6.95097">
        <ele>344</ele>
        <time>2011-09-25T08:20:44Z</time>
      </trkpt>
      <trkpt lat="49.19637" lon="6.95099">
        <ele>343</ele>
        <time>2011-09-25T08:20:46Z</time>
      </trkpt>
      <trkpt lat="49.19637" lon="6.95102">
        <ele>342</ele>
        <time>2011-09-25T08:20:48Z</time>
      </trkpt>
      <trkpt lat="49.19637" lon="6.95104">
        <ele>342</ele>
        <time>2011-09-25T08:20:49Z</time>
      </trkpt>
      <trkpt lat="49.19637" lon="6.95107">
        <ele>342</ele>
        <time>2011-09-25T08:20:51Z</time>
      </trkpt>
      <trkpt lat="49.19637" lon="6.9511">
        <ele>342</ele>
        <time>2011-09-25T08:20:53Z</time>
      </trkpt>
      <trkpt lat="49.19638" lon="6.95113">
        <ele>341</ele>
        <time>2011-09-25T08:20:55Z</time>
      </trkpt>
      <trkpt lat="49.19638" lon="6.95116">
        <ele>340</ele>
        <time>2011-09-25T08:20:57Z</time>
      </trkpt>
      <trkpt lat="49.19638" lon="6.95118">
        <ele>339</ele>
        <time>2011-09-25T08:20:59Z</time>
      </trkpt>
      <trkpt lat="49.19637" lon="6.95121">
        <ele>338</ele>
        <time>2011-09-25T08:21:01Z</time>
      </trkpt>
      <trkpt lat="49.19636" lon="6.95124">
        <ele>338</ele>
        <time>2011-09-25T08:21:03Z</time>
      </trkpt>
      <trkpt lat="49.19636" lon="6.95127">
        <ele>337</ele>
        <time>2011-09-25T08:21:05Z</time>
      </trkpt>
      <trkpt lat="49.19636" lon="6.9513">
        <ele>337</ele>
        <time>2011-09-25T08:21:07Z</time>
      </trkpt>
      <trkpt lat="49.19637" lon="6.95132">
        <ele>335</ele>
        <time>2011-09-25T08:21:09Z</time>
      </trkpt>
      <trkpt lat="49.19637" lon="6.95134">
        <ele>335</ele>
        <time>2011-09-25T08:21:10Z</time>
      </trkpt>
      <trkpt lat="49.19638" lon="6.95136">
        <ele>334</ele>
        <time>2011-09-25T08:21:11Z</time>
      </trkpt>
      <trkpt lat="49.19638" lon="6.95138">
        <ele>334</ele>
        <time>2011-09-25T08:21:12Z</time>
      </trkpt>
      <trkpt lat="49.19638" lon="6.9514">
        <ele>334</ele>
        <time>2011-09-25T08:21:13Z</time>
      </trkpt>
      <trkpt lat="49.19638" lon="6.95141">
        <ele>334</ele>
        <time>2011-09-25T08:21:14Z</time>
      </trkpt>
      <trkpt lat="49.19639" lon="6.95144">
        <ele>333</ele>
        <time>2011-09-25T08:21:16Z</time>
      </trkpt>
      <trkpt lat="49.1964" lon="6.95147">
        <ele>333</ele>
        <time>2011-09-25T08:21:18Z</time>
      </trkpt>
      <trkpt lat="49.19641" lon="6.95151">
        <ele>333</ele>
        <time>2011-09-25T08:21:20Z</time>
      </trkpt>
      <trkpt lat="49.19642" lon="6.95152">
        <ele>333</ele>
        <time>2011-09-25T08:21:21Z</time>
      </trkpt>
      <trkpt lat="49.19643" lon="6.95154">
        <ele>333</ele>
        <time>2011-09-25T08:21:22Z</time>
      </trkpt>
      <trkpt lat="49.19645" lon="6.95156">
        <ele>333</ele>
        <time>2011-09-25T08:21:24Z</time>
      </trkpt>
      <trkpt lat="49.19646" lon="6.95158">
        <ele>333</ele>
        <time>2011-09-25T08:21:26Z</time>
      </trkpt>
      <trkpt lat="49.19648" lon="6.95161">
        <ele>333</ele>
        <time>2011-09-25T08:21:28Z</time>
      </trkpt>
      <trkpt lat="49.1965" lon="6.95164">
        <ele>333</ele>
        <time>2011-09-25T08:21:30Z</time>
      </trkpt>
      <trkpt lat="49.19651" lon="6.95165">
        <ele>333</ele>
        <time>2011-09-25T08:21:31Z</time>
      </trkpt>
      <trkpt lat="49.19653" lon="6.95168">
        <ele>333</ele>
        <time>2011-09-25T08:21:33Z</time>
      </trkpt>
      <trkpt lat="49.19654" lon="6.9517">
        <ele>333</ele>
        <time>2011-09-25T08:21:34Z</time>
      </trkpt>
      <trkpt lat="49.19655" lon="6.95171">
        <ele>333</ele>
        <time>2011-09-25T08:21:35Z</time>
      </trkpt>
      <trkpt lat="49.19656" lon="6.95173">
        <ele>333</ele>
        <time>2011-09-25T08:21:36Z</time>
      </trkpt>
      <trkpt lat="49.19656" lon="6.95175">
        <ele>333</ele>
        <time>2011-09-25T08:21:37Z</time>
      </trkpt>
      <trkpt lat="49.19658" lon="6.95178">
        <ele>333</ele>
        <time>2011-09-25T08:21:39Z</time>
      </trkpt>
      <trkpt lat="49.19659" lon="6.9518">
        <ele>333</ele>
        <time>2011-09-25T08:21:40Z</time>
      </trkpt>
      <trkpt lat="49.1966" lon="6.95182">
        <ele>333</ele>
        <time>2011-09-25T08:21:41Z</time>
      </trkpt>
      <trkpt lat="49.19661" lon="6.95185">
        <ele>333</ele>
        <time>2011-09-25T08:21:43Z</time>
      </trkpt>
      <trkpt lat="49.19662" lon="6.95187">
        <ele>333</ele>
        <time>2011-09-25T08:21:45Z</time>
      </trkpt>
      <trkpt lat="49.19664" lon="6.9519">
        <ele>333</ele>
        <time>2011-09-25T08:21:47Z</time>
      </trkpt>
      <trkpt lat="49.19665" lon="6.95193">
        <ele>333</ele>
        <time>2011-09-25T08:21:49Z</time>
      </trkpt>
      <trkpt lat="49.19665" lon="6.95195">
        <ele>333</ele>
        <time>2011-09-25T08:21:50Z</time>
      </trkpt>
      <trkpt lat="49.19667" lon="6.95198">
        <ele>333</ele>
        <time>2011-09-25T08:21:52Z</time>
      </trkpt>
      <trkpt lat="49.19668" lon="6.95201">
        <ele>333</ele>
        <time>2011-09-25T08:21:54Z</time>
      </trkpt>
      <trkpt lat="49.19669" lon="6.95203">
        <ele>333</ele>
        <time>2011-09-25T08:21:56Z</time>
      </trkpt>
      <trkpt lat="49.19669" lon="6.95205">
        <ele>333</ele>
        <time>2011-09-25T08:21:57Z</time>
      </trkpt>
      <trkpt lat="49.1967" lon="6.95207">
        <ele>333</ele>
        <time>2011-09-25T08:21:58Z</time>
      </trkpt>
      <trkpt lat="49.19672" lon="6.9521">
        <ele>333</ele>
        <time>2011-09-25T08:22:00Z</time>
      </trkpt>
      <trkpt lat="49.19674" lon="6.95213">
        <ele>333</ele>
        <time>2011-09-25T08:22:02Z</time>
      </trkpt>
      <trkpt lat="49.19675" lon="6.95215">
        <ele>333</ele>
        <time>2011-09-25T08:22:04Z</time>
      </trkpt>
      <trkpt lat="49.19676" lon="6.95217">
        <ele>333</ele>
        <time>2011-09-25T08:22:05Z</time>
      </trkpt>
      <trkpt lat="49.19678" lon="6.9522">
        <ele>333</ele>
        <time>2011-09-25T08:22:07Z</time>
      </trkpt>
      <trkpt lat="49.19679" lon="6.95222">
        <ele>333</ele>
        <time>2011-09-25T08:22:08Z</time>
      </trkpt>
      <trkpt lat="49.1968" lon="6.95224">
        <ele>333</ele>
        <time>2011-09-25T08:22:09Z</time>
      </trkpt>
      <trkpt lat="49.1968" lon="6.95226">
        <ele>333</ele>
        <time>2011-09-25T08:22:10Z</time>
      </trkpt>
      <trkpt lat="49.19681" lon="6.95227">
        <ele>333</ele>
        <time>2011-09-25T08:22:11Z</time>
      </trkpt>
      <trkpt lat="49.19682" lon="6.95229">
        <ele>333</ele>
        <time>2011-09-25T08:22:12Z</time>
      </trkpt>
      <trkpt lat="49.19683" lon="6.95231">
        <ele>333</ele>
        <time>2011-09-25T08:22:13Z</time>
      </trkpt>
      <trkpt lat="49.19683" lon="6.95233">
        <ele>333</ele>
        <time>2011-09-25T08:22:14Z</time>
      </trkpt>
      <trkpt lat="49.19685" lon="6.95234">
        <ele>333</ele>
        <time>2011-09-25T08:22:15Z</time>
      </trkpt>
      <trkpt lat="49.19685" lon="6.95236">
        <ele>333</ele>
        <time>2011-09-25T08:22:16Z</time>
      </trkpt>
      <trkpt lat="49.19686" lon="6.95238">
        <ele>333</ele>
        <time>2011-09-25T08:22:17Z</time>
      </trkpt>
      <trkpt lat="49.19687" lon="6.95239">
        <ele>333</ele>
        <time>2011-09-25T08:22:18Z</time>
      </trkpt>
      <trkpt lat="49.19688" lon="6.95243">
        <ele>333</ele>
        <time>2011-09-25T08:22:20Z</time>
      </trkpt>
      <trkpt lat="49.19689" lon="6.95246">
        <ele>333</ele>
        <time>2011-09-25T08:22:22Z</time>
      </trkpt>
      <trkpt lat="49.1969" lon="6.95247">
        <ele>333</ele>
        <time>2011-09-25T08:22:23Z</time>
      </trkpt>
      <trkpt lat="49.19691" lon="6.95249">
        <ele>333</ele>
        <time>2011-09-25T08:22:24Z</time>
      </trkpt>
      <trkpt lat="49.19691" lon="6.95251">
        <ele>333</ele>
        <time>2011-09-25T08:22:25Z</time>
      </trkpt>
      <trkpt lat="49.19693" lon="6.95254">
        <ele>333</ele>
        <time>2011-09-25T08:22:27Z</time>
      </trkpt>
      <trkpt lat="49.19694" lon="6.95255">
        <ele>333</ele>
        <time>2011-09-25T08:22:28Z</time>
      </trkpt>
      <trkpt lat="49.19696" lon="6.95258">
        <ele>333</ele>
        <time>2011-09-25T08:22:30Z</time>
      </trkpt>
      <trkpt lat="49.19696" lon="6.9526">
        <ele>333</ele>
        <time>2011-09-25T08:22:31Z</time>
      </trkpt>
      <trkpt lat="49.19698" lon="6.95263">
        <ele>333</ele>
        <time>2011-09-25T08:22:33Z</time>
      </trkpt>
      <trkpt lat="49.19698" lon="6.95265">
        <ele>333</ele>
        <time>2011-09-25T08:22:34Z</time>
      </trkpt>
      <trkpt lat="49.197" lon="6.95268">
        <ele>333</ele>
        <time>2011-09-25T08:22:36Z</time>
      </trkpt>
      <trkpt lat="49.19701" lon="6.95269">
        <ele>333</ele>
        <time>2011-09-25T08:22:37Z</time>
      </trkpt>
      <trkpt lat="49.19701" lon="6.95271">
        <ele>333</ele>
        <time>2011-09-25T08:22:38Z</time>
      </trkpt>
      <trkpt lat="49.19702" lon="6.95273">
        <ele>333</ele>
        <time>2011-09-25T08:22:39Z</time>
      </trkpt>
      <trkpt lat="49.19702" lon="6.95275">
        <ele>333</ele>
        <time>2011-09-25T08:22:40Z</time>
      </trkpt>
      <trkpt lat="49.19703" lon="6.95276">
        <ele>333</ele>
        <time>2011-09-25T08:22:41Z</time>
      </trkpt>
      <trkpt lat="49.19704" lon="6.95279">
        <ele>333</ele>
        <time>2011-09-25T08:22:43Z</time>
      </trkpt>
      <trkpt lat="49.19704" lon="6.95281">
        <ele>333</ele>
        <time>2011-09-25T08:22:44Z</time>
      </trkpt>
      <trkpt lat="49.19705" lon="6.95283">
        <ele>333</ele>
        <time>2011-09-25T08:22:45Z</time>
      </trkpt>
      <trkpt lat="49.19706" lon="6.95285">
        <ele>333</ele>
        <time>2011-09-25T08:22:46Z</time>
      </trkpt>
      <trkpt lat="49.19707" lon="6.95287">
        <ele>333</ele>
        <time>2011-09-25T08:22:47Z</time>
      </trkpt>
      <trkpt lat="49.19708" lon="6.9529">
        <ele>333</ele>
        <time>2011-09-25T08:22:49Z</time>
      </trkpt>
      <trkpt lat="49.19709" lon="6.95291">
        <ele>333</ele>
        <time>2011-09-25T08:22:50Z</time>
      </trkpt>
      <trkpt lat="49.19709" lon="6.95293">
        <ele>333</ele>
        <time>2011-09-25T08:22:51Z</time>
      </trkpt>
      <trkpt lat="49.1971" lon="6.95295">
        <ele>333</ele>
        <time>2011-09-25T08:22:52Z</time>
      </trkpt>
      <trkpt lat="49.19711" lon="6.95297">
        <ele>333</ele>
        <time>2011-09-25T08:22:53Z</time>
      </trkpt>
      <trkpt lat="49.19711" lon="6.95299">
        <ele>333</ele>
        <time>2011-09-25T08:22:54Z</time>
      </trkpt>
      <trkpt lat="49.19712" lon="6.953">
        <ele>333</ele>
        <time>2011-09-25T08:22:55Z</time>
      </trkpt>
      <trkpt lat="49.19713" lon="6.95302">
        <ele>333</ele>
        <time>2011-09-25T08:22:56Z</time>
      </trkpt>
      <trkpt lat="49.19714" lon="6.95305">
        <ele>333</ele>
        <time>2011-09-25T08:22:58Z</time>
      </trkpt>
      <trkpt lat="49.19715" lon="6.95307">
        <ele>333</ele>
        <time>2011-09-25T08:22:59Z</time>
      </trkpt>
      <trkpt lat="49.19715" lon="6.95309">
        <ele>333</ele>
        <time>2011-09-25T08:23:00Z</time>
      </trkpt>
      <trkpt lat="49.19716" lon="6.95311">
        <ele>333</ele>
        <time>2011-09-25T08:23:01Z</time>
      </trkpt>
      <trkpt lat="49.19716" lon="6.95313">
        <ele>333</ele>
        <time>2011-09-25T08:23:02Z</time>
      </trkpt>
      <trkpt lat="49.19717" lon="6.95315">
        <ele>333</ele>
        <time>2011-09-25T08:23:03Z</time>
      </trkpt>
      <trkpt lat="49.19717" lon="6.95316">
        <ele>333</ele>
        <time>2011-09-25T08:23:04Z</time>
      </trkpt>
      <trkpt lat="49.19717" lon="6.95318">
        <ele>333</ele>
        <time>2011-09-25T08:23:05Z</time>
      </trkpt>
      <trkpt lat="49.19718" lon="6.95321">
        <ele>333</ele>
        <time>2011-09-25T08:23:07Z</time>
      </trkpt>
      <trkpt lat="49.19719" lon="6.95323">
        <ele>333</ele>
        <time>2011-09-25T08:23:08Z</time>
      </trkpt>
      <trkpt lat="49.1972" lon="6.95325">
        <ele>333</ele>
        <time>2011-09-25T08:23:09Z</time>
      </trkpt>
      <trkpt lat="49.1972" lon="6.95326">
        <ele>333</ele>
        <time>2011-09-25T08:23:10Z</time>
      </trkpt>
      <trkpt lat="49.19721" lon="6.95328">
        <ele>333</ele>
        <time>2011-09-25T08:23:11Z</time>
      </trkpt>
      <trkpt lat="49.19722" lon="6.9533">
        <ele>333</ele>
        <time>2011-09-25T08:23:12Z</time>
      </trkpt>
      <trkpt lat="49.19723" lon="6.95331">
        <ele>333</ele>
        <time>2011-09-25T08:23:13Z</time>
      </trkpt>
      <trkpt lat="49.19723" lon="6.95333">
        <ele>333</ele>
        <time>2011-09-25T08:23:14Z</time>
      </trkpt>
      <trkpt lat="49.19724" lon="6.95335">
        <ele>333</ele>
        <time>2011-09-25T08:23:15Z</time>
      </trkpt>
      <trkpt lat="49.19725" lon="6.95336">
        <ele>333</ele>
        <time>2011-09-25T08:23:16Z</time>
      </trkpt>
      <trkpt lat="49.19726" lon="6.95338">
        <ele>333</ele>
        <time>2011-09-25T08:23:17Z</time>
      </trkpt>
      <trkpt lat="49.19727" lon="6.9534">
        <ele>333</ele>
        <time>2011-09-25T08:23:18Z</time>
      </trkpt>
      <trkpt lat="49.19727" lon="6.95342">
        <ele>333</ele>
        <time>2011-09-25T08:23:19Z</time>
      </trkpt>
      <trkpt lat="49.19728" lon="6.95344">
        <ele>333</ele>
        <time>2011-09-25T08:23:20Z</time>
      </trkpt>
      <trkpt lat="49.19728" lon="6.95345">
        <ele>333</ele>
        <time>2011-09-25T08:23:21Z</time>
      </trkpt>
      <trkpt lat="49.1973" lon="6.95349">
        <ele>333</ele>
        <time>2011-09-25T08:23:23Z</time>
      </trkpt>
      <trkpt lat="49.1973" lon="6.95351">
        <ele>333</ele>
        <time>2011-09-25T08:23:24Z</time>
      </trkpt>
      <trkpt lat="49.19731" lon="6.95353">
        <ele>333</ele>
        <time>2011-09-25T08:23:25Z</time>
      </trkpt>
      <trkpt lat="49.19731" lon="6.95355">
        <ele>333</ele>
        <time>2011-09-25T08:23:26Z</time>
      </trkpt>
      <trkpt lat="49.19732" lon="6.95356">
        <ele>333</ele>
        <time>2011-09-25T08:23:27Z</time>
      </trkpt>
      <trkpt lat="49.19733" lon="6.95358">
        <ele>333</ele>
        <time>2011-09-25T08:23:28Z</time>
      </trkpt>
      <trkpt lat="49.19733" lon="6.9536">
        <ele>333</ele>
        <time>2011-09-25T08:23:29Z</time>
      </trkpt>
      <trkpt lat="49.19734" lon="6.95362">
        <ele>333</ele>
        <time>2011-09-25T08:23:30Z</time>
      </trkpt>
      <trkpt lat="49.19735" lon="6.95364">
        <ele>333</ele>
        <time>2011-09-25T08:23:31Z</time>
      </trkpt>
      <trkpt lat="49.19736" lon="6.95365">
        <ele>333</ele>
        <time>2011-09-25T08:23:32Z</time>
      </trkpt>
      <trkpt lat="49.19736" lon="6.95367">
        <ele>333</ele>
        <time>2011-09-25T08:23:33Z</time>
      </trkpt>
      <trkpt lat="49.19737" lon="6.95369">
        <ele>333</ele>
        <time>2011-09-25T08:23:34Z</time>
      </trkpt>
      <trkpt lat="49.19738" lon="6.9537">
        <ele>333</ele>
        <time>2011-09-25T08:23:35Z</time>
      </trkpt>
      <trkpt lat="49.19738" lon="6.95372">
        <ele>333</ele>
        <time>2011-09-25T08:23:36Z</time>
      </trkpt>
      <trkpt lat="49.19739" lon="6.95374">
        <ele>333</ele>
        <time>2011-09-25T08:23:37Z</time>
      </trkpt>
      <trkpt lat="49.19739" lon="6.95376">
        <ele>333</ele>
        <time>2011-09-25T08:23:38Z</time>
      </trkpt>
      <trkpt lat="49.1974" lon="6.95377">
        <ele>333</ele>
        <time>2011-09-25T08:23:39Z</time>
      </trkpt>
      <trkpt lat="49.19739" lon="6.95379">
        <ele>333</ele>
        <time>2011-09-25T08:23:40Z</time>
      </trkpt>
      <trkpt lat="49.19739" lon="6.95381">
        <ele>333</ele>
        <time>2011-09-25T08:23:41Z</time>
      </trkpt>
      <trkpt lat="49.19739" lon="6.95383">
        <ele>333</ele>
        <time>2011-09-25T08:23:43Z</time>
      </trkpt>
      <trkpt lat="49.19738" lon="6.95385">
        <ele>332</ele>
        <time>2011-09-25T08:23:47Z</time>
      </trkpt>
      <trkpt lat="49.19736" lon="6.95387">
        <ele>332</ele>
        <time>2011-09-25T08:23:49Z</time>
      </trkpt>
      <trkpt lat="49.19735" lon="6.95388">
        <ele>332</ele>
        <time>2011-09-25T08:23:50Z</time>
      </trkpt>
      <trkpt lat="49.19733" lon="6.9539">
        <ele>332</ele>
        <time>2011-09-25T08:23:52Z</time>
      </trkpt>
      <trkpt lat="49.19731" lon="6.95392">
        <ele>332</ele>
        <time>2011-09-25T08:23:54Z</time>
      </trkpt>
      <trkpt lat="49.19729" lon="6.95393">
        <ele>332</ele>
        <time>2011-09-25T08:23:56Z</time>
      </trkpt>
      <trkpt lat="49.19727" lon="6.95395">
        <ele>332</ele>
        <time>2011-09-25T08:23:58Z</time>
      </trkpt>
      <trkpt lat="49.19725" lon="6.95396">
        <ele>332</ele>
        <time>2011-09-25T08:24:00Z</time>
      </trkpt>
      <trkpt lat="49.19723" lon="6.95399">
        <ele>332</ele>
        <time>2011-09-25T08:24:02Z</time>
      </trkpt>
      <trkpt lat="49.19722" lon="6.954">
        <ele>332</ele>
        <time>2011-09-25T08:24:04Z</time>
      </trkpt>
      <trkpt lat="49.1972" lon="6.95401">
        <ele>332</ele>
        <time>2011-09-25T08:24:06Z</time>
      </trkpt>
      <trkpt lat="49.19719" lon="6.95402">
        <ele>332</ele>
        <time>2011-09-25T08:24:07Z</time>
      </trkpt>
      <trkpt lat="49.19717" lon="6.95404">
        <ele>332</ele>
        <time>2011-09-25T08:24:09Z</time>
      </trkpt>
      <trkpt lat="49.19715" lon="6.95406">
        <ele>332</ele>
        <time>2011-09-25T08:24:11Z</time>
      </trkpt>
      <trkpt lat="49.19714" lon="6.95406">
        <ele>332</ele>
        <time>2011-09-25T08:24:12Z</time>
      </trkpt>
      <trkpt lat="49.19712" lon="6.95407">
        <ele>331</ele>
        <time>2011-09-25T08:24:13Z</time>
      </trkpt>
      <trkpt lat="49.19711" lon="6.95409">
        <ele>331</ele>
        <time>2011-09-25T08:24:14Z</time>
      </trkpt>
      <trkpt lat="49.1971" lon="6.95409">
        <ele>331</ele>
        <time>2011-09-25T08:24:15Z</time>
      </trkpt>
      <trkpt lat="49.19708" lon="6.95411">
        <ele>331</ele>
        <time>2011-09-25T08:24:17Z</time>
      </trkpt>
      <trkpt lat="49.19706" lon="6.95412">
        <ele>331</ele>
        <time>2011-09-25T08:24:19Z</time>
      </trkpt>
      <trkpt lat="49.19704" lon="6.95414">
        <ele>331</ele>
        <time>2011-09-25T08:24:21Z</time>
      </trkpt>
      <trkpt lat="49.19703" lon="6.95416">
        <ele>331</ele>
        <time>2011-09-25T08:24:23Z</time>
      </trkpt>
      <trkpt lat="49.197" lon="6.95418">
        <ele>331</ele>
        <time>2011-09-25T08:24:25Z</time>
      </trkpt>
      <trkpt lat="49.19698" lon="6.95419">
        <ele>330</ele>
        <time>2011-09-25T08:24:27Z</time>
      </trkpt>
      <trkpt lat="49.19697" lon="6.9542">
        <ele>330</ele>
        <time>2011-09-25T08:24:28Z</time>
      </trkpt>
      <trkpt lat="49.19696" lon="6.95421">
        <ele>330</ele>
        <time>2011-09-25T08:24:29Z</time>
      </trkpt>
      <trkpt lat="49.19694" lon="6.95423">
        <ele>330</ele>
        <time>2011-09-25T08:24:31Z</time>
      </trkpt>
      <trkpt lat="49.19693" lon="6.95424">
        <ele>330</ele>
        <time>2011-09-25T08:24:32Z</time>
      </trkpt>
      <trkpt lat="49.19691" lon="6.95426">
        <ele>329</ele>
        <time>2011-09-25T08:24:34Z</time>
      </trkpt>
      <trkpt lat="49.1969" lon="6.95427">
        <ele>329</ele>
        <time>2011-09-25T08:24:35Z</time>
      </trkpt>
      <trkpt lat="49.19688" lon="6.95428">
        <ele>329</ele>
        <time>2011-09-25T08:24:36Z</time>
      </trkpt>
      <trkpt lat="49.19687" lon="6.95428">
        <ele>329</ele>
        <time>2011-09-25T08:24:37Z</time>
      </trkpt>
      <trkpt lat="49.19685" lon="6.9543">
        <ele>328</ele>
        <time>2011-09-25T08:24:39Z</time>
      </trkpt>
      <trkpt lat="49.19683" lon="6.95432">
        <ele>328</ele>
        <time>2011-09-25T08:24:41Z</time>
      </trkpt>
      <trkpt lat="49.19681" lon="6.95434">
        <ele>328</ele>
        <time>2011-09-25T08:24:43Z</time>
      </trkpt>
      <trkpt lat="49.19679" lon="6.95435">
        <ele>328</ele>
        <time>2011-09-25T08:24:45Z</time>
      </trkpt>
      <trkpt lat="49.19677" lon="6.95437">
        <ele>328</ele>
        <time>2011-09-25T08:24:47Z</time>
      </trkpt>
      <trkpt lat="49.19675" lon="6.95438">
        <ele>328</ele>
        <time>2011-09-25T08:24:48Z</time>
      </trkpt>
      <trkpt lat="49.19673" lon="6.9544">
        <ele>328</ele>
        <time>2011-09-25T08:24:50Z</time>
      </trkpt>
      <trkpt lat="49.19672" lon="6.95441">
        <ele>328</ele>
        <time>2011-09-25T08:24:51Z</time>
      </trkpt>
      <trkpt lat="49.1967" lon="6.95443">
        <ele>327</ele>
        <time>2011-09-25T08:24:53Z</time>
      </trkpt>
      <trkpt lat="49.19668" lon="6.95445">
        <ele>327</ele>
        <time>2011-09-25T08:24:55Z</time>
      </trkpt>
      <trkpt lat="49.19666" lon="6.95447">
        <ele>327</ele>
        <time>2011-09-25T08:24:57Z</time>
      </trkpt>
      <trkpt lat="49.19665" lon="6.95448">
        <ele>327</ele>
        <time>2011-09-25T08:24:58Z</time>
      </trkpt>
      <trkpt lat="49.19663" lon="6.9545">
        <ele>327</ele>
        <time>2011-09-25T08:24:59Z</time>
      </trkpt>
      <trkpt lat="49.19661" lon="6.95452">
        <ele>327</ele>
        <time>2011-09-25T08:25:01Z</time>
      </trkpt>
      <trkpt lat="49.19659" lon="6.95454">
        <ele>327</ele>
        <time>2011-09-25T08:25:03Z</time>
      </trkpt>
      <trkpt lat="49.19658" lon="6.95457">
        <ele>327</ele>
        <time>2011-09-25T08:25:05Z</time>
      </trkpt>
      <trkpt lat="49.19656" lon="6.95458">
        <ele>327</ele>
        <time>2011-09-25T08:25:06Z</time>
      </trkpt>
      <trkpt lat="49.19655" lon="6.9546">
        <ele>327</ele>
        <time>2011-09-25T08:25:07Z</time>
      </trkpt>
      <trkpt lat="49.19653" lon="6.95462">
        <ele>327</ele>
        <time>2011-09-25T08:25:09Z</time>
      </trkpt>
      <trkpt lat="49.19651" lon="6.95464">
        <ele>327</ele>
        <time>2011-09-25T08:25:11Z</time>
      </trkpt>
      <trkpt lat="49.19649" lon="6.95466">
        <ele>327</ele>
        <time>2011-09-25T08:25:13Z</time>
      </trkpt>
      <trkpt lat="49.19647" lon="6.95468">
        <ele>327</ele>
        <time>2011-09-25T08:25:15Z</time>
      </trkpt>
      <trkpt lat="49.19645" lon="6.95471">
        <ele>327</ele>
        <time>2011-09-25T08:25:17Z</time>
      </trkpt>
      <trkpt lat="49.19643" lon="6.95473">
        <ele>327</ele>
        <time>2011-09-25T08:25:19Z</time>
      </trkpt>
      <trkpt lat="49.19641" lon="6.95475">
        <ele>326</ele>
        <time>2011-09-25T08:25:21Z</time>
      </trkpt>
      <trkpt lat="49.1964" lon="6.95478">
        <ele>326</ele>
        <time>2011-09-25T08:25:23Z</time>
      </trkpt>
      <trkpt lat="49.19638" lon="6.9548">
        <ele>326</ele>
        <time>2011-09-25T08:25:25Z</time>
      </trkpt>
      <trkpt lat="49.19636" lon="6.95482">
        <ele>326</ele>
        <time>2011-09-25T08:25:27Z</time>
      </trkpt>
      <trkpt lat="49.19635" lon="6.95483">
        <ele>326</ele>
        <time>2011-09-25T08:25:28Z</time>
      </trkpt>
      <trkpt lat="49.19633" lon="6.95483">
        <ele>326</ele>
        <time>2011-09-25T08:25:29Z</time>
      </trkpt>
      <trkpt lat="49.19632" lon="6.95485">
        <ele>326</ele>
        <time>2011-09-25T08:25:30Z</time>
      </trkpt>
      <trkpt lat="49.19631" lon="6.95486">
        <ele>326</ele>
        <time>2011-09-25T08:25:31Z</time>
      </trkpt>
      <trkpt lat="49.19629" lon="6.95487">
        <ele>326</ele>
        <time>2011-09-25T08:25:33Z</time>
      </trkpt>
      <trkpt lat="49.19627" lon="6.95488">
        <ele>326</ele>
        <time>2011-09-25T08:25:35Z</time>
      </trkpt>
      <trkpt lat="49.19626" lon="6.95489">
        <ele>326</ele>
        <time>2011-09-25T08:25:36Z</time>
      </trkpt>
      <trkpt lat="49.19624" lon="6.9549">
        <ele>326</ele>
        <time>2011-09-25T08:25:37Z</time>
      </trkpt>
      <trkpt lat="49.19622" lon="6.95491">
        <ele>326</ele>
        <time>2011-09-25T08:25:38Z</time>
      </trkpt>
      <trkpt lat="49.19621" lon="6.95491">
        <ele>326</ele>
        <time>2011-09-25T08:25:39Z</time>
      </trkpt>
      <trkpt lat="49.1962" lon="6.95492">
        <ele>326</ele>
        <time>2011-09-25T08:25:40Z</time>
      </trkpt>
      <trkpt lat="49.19619" lon="6.95492">
        <ele>326</ele>
        <time>2011-09-25T08:25:41Z</time>
      </trkpt>
      <trkpt lat="49.19617" lon="6.95493">
        <ele>326</ele>
        <time>2011-09-25T08:25:42Z</time>
      </trkpt>
      <trkpt lat="49.19616" lon="6.95493">
        <ele>326</ele>
        <time>2011-09-25T08:25:43Z</time>
      </trkpt>
      <trkpt lat="49.19615" lon="6.95494">
        <ele>326</ele>
        <time>2011-09-25T08:25:44Z</time>
      </trkpt>
      <trkpt lat="49.19614" lon="6.95494">
        <ele>326</ele>
        <time>2011-09-25T08:25:45Z</time>
      </trkpt>
      <trkpt lat="49.19612" lon="6.95495">
        <ele>326</ele>
        <time>2011-09-25T08:25:46Z</time>
      </trkpt>
      <trkpt lat="49.19611" lon="6.95495">
        <ele>326</ele>
        <time>2011-09-25T08:25:47Z</time>
      </trkpt>
      <trkpt lat="49.1961" lon="6.95496">
        <ele>326</ele>
        <time>2011-09-25T08:25:48Z</time>
      </trkpt>
      <trkpt lat="49.19608" lon="6.95497">
        <ele>326</ele>
        <time>2011-09-25T08:25:50Z</time>
      </trkpt>
      <trkpt lat="49.19606" lon="6.95498">
        <ele>326</ele>
        <time>2011-09-25T08:25:51Z</time>
      </trkpt>
      <trkpt lat="49.19604" lon="6.95499">
        <ele>326</ele>
        <time>2011-09-25T08:25:53Z</time>
      </trkpt>
      <trkpt lat="49.19603" lon="6.95499">
        <ele>326</ele>
        <time>2011-09-25T08:25:54Z</time>
      </trkpt>
      <trkpt lat="49.19602" lon="6.955">
        <ele>326</ele>
        <time>2011-09-25T08:25:55Z</time>
      </trkpt>
      <trkpt lat="49.19601" lon="6.955">
        <ele>326</ele>
        <time>2011-09-25T08:25:56Z</time>
      </trkpt>
      <trkpt lat="49.19599" lon="6.95502">
        <ele>326</ele>
        <time>2011-09-25T08:25:57Z</time>
      </trkpt>
      <trkpt lat="49.19598" lon="6.95503">
        <ele>326</ele>
        <time>2011-09-25T08:25:58Z</time>
      </trkpt>
      <trkpt lat="49.19597" lon="6.95503">
        <ele>326</ele>
        <time>2011-09-25T08:25:59Z</time>
      </trkpt>
      <trkpt lat="49.19595" lon="6.95505">
        <ele>326</ele>
        <time>2011-09-25T08:26:01Z</time>
      </trkpt>
      <trkpt lat="49.19593" lon="6.95506">
        <ele>326</ele>
        <time>2011-09-25T08:26:03Z</time>
      </trkpt>
      <trkpt lat="49.19591" lon="6.95507">
        <ele>326</ele>
        <time>2011-09-25T08:26:05Z</time>
      </trkpt>
      <trkpt lat="49.19589" lon="6.95508">
        <ele>326</ele>
        <time>2011-09-25T08:26:07Z</time>
      </trkpt>
      <trkpt lat="49.19588" lon="6.95509">
        <ele>326</ele>
        <time>2011-09-25T08:26:08Z</time>
      </trkpt>
      <trkpt lat="49.19587" lon="6.95509">
        <ele>326</ele>
        <time>2011-09-25T08:26:09Z</time>
      </trkpt>
      <trkpt lat="49.19585" lon="6.9551">
        <ele>326</ele>
        <time>2011-09-25T08:26:11Z</time>
      </trkpt>
      <trkpt lat="49.19582" lon="6.95511">
        <ele>326</ele>
        <time>2011-09-25T08:26:13Z</time>
      </trkpt>
      <trkpt lat="49.19581" lon="6.95511">
        <ele>326</ele>
        <time>2011-09-25T08:26:14Z</time>
      </trkpt>
      <trkpt lat="49.1958" lon="6.95511">
        <ele>326</ele>
        <time>2011-09-25T08:26:15Z</time>
      </trkpt>
      <trkpt lat="49.19579" lon="6.95512">
        <ele>326</ele>
        <time>2011-09-25T08:26:16Z</time>
      </trkpt>
      <trkpt lat="49.19577" lon="6.95512">
        <ele>326</ele>
        <time>2011-09-25T08:26:17Z</time>
      </trkpt>
      <trkpt lat="49.19576" lon="6.95513">
        <ele>326</ele>
        <time>2011-09-25T08:26:18Z</time>
      </trkpt>
      <trkpt lat="49.19575" lon="6.95513">
        <ele>326</ele>
        <time>2011-09-25T08:26:19Z</time>
      </trkpt>
      <trkpt lat="49.19573" lon="6.95514">
        <ele>326</ele>
        <time>2011-09-25T08:26:21Z</time>
      </trkpt>
      <trkpt lat="49.19572" lon="6.95515">
        <ele>326</ele>
        <time>2011-09-25T08:26:22Z</time>
      </trkpt>
      <trkpt lat="49.1957" lon="6.95515">
        <ele>326</ele>
        <time>2011-09-25T08:26:24Z</time>
      </trkpt>
      <trkpt lat="49.19568" lon="6.95516">
        <ele>326</ele>
        <time>2011-09-25T08:26:26Z</time>
      </trkpt>
      <trkpt lat="49.19566" lon="6.95517">
        <ele>326</ele>
        <time>2011-09-25T08:26:28Z</time>
      </trkpt>
      <trkpt lat="49.19564" lon="6.95518">
        <ele>326</ele>
        <time>2011-09-25T08:26:30Z</time>
      </trkpt>
      <trkpt lat="49.19563" lon="6.95519">
        <ele>326</ele>
        <time>2011-09-25T08:26:31Z</time>
      </trkpt>
      <trkpt lat="49.19561" lon="6.9552">
        <ele>326</ele>
        <time>2011-09-25T08:26:32Z</time>
      </trkpt>
      <trkpt lat="49.1956" lon="6.95522">
        <ele>326</ele>
        <time>2011-09-25T08:26:34Z</time>
      </trkpt>
      <trkpt lat="49.19559" lon="6.95524">
        <ele>326</ele>
        <time>2011-09-25T08:26:36Z</time>
      </trkpt>
      <trkpt lat="49.19558" lon="6.95528">
        <ele>326</ele>
        <time>2011-09-25T08:26:38Z</time>
      </trkpt>
      <trkpt lat="49.19558" lon="6.95529">
        <ele>326</ele>
        <time>2011-09-25T08:26:39Z</time>
      </trkpt>
      <trkpt lat="49.19557" lon="6.95532">
        <ele>326</ele>
        <time>2011-09-25T08:26:41Z</time>
      </trkpt>
      <trkpt lat="49.19557" lon="6.95534">
        <ele>326</ele>
        <time>2011-09-25T08:26:42Z</time>
      </trkpt>
      <trkpt lat="49.19557" lon="6.95536">
        <ele>326</ele>
        <time>2011-09-25T08:26:43Z</time>
      </trkpt>
      <trkpt lat="49.19557" lon="6.95539">
        <ele>326</ele>
        <time>2011-09-25T08:26:45Z</time>
      </trkpt>
      <trkpt lat="49.19557" lon="6.95541">
        <ele>326</ele>
        <time>2011-09-25T08:26:46Z</time>
      </trkpt>
      <trkpt lat="49.19557" lon="6.95543">
        <ele>326</ele>
        <time>2011-09-25T08:26:47Z</time>
      </trkpt>
      <trkpt lat="49.19556" lon="6.95545">
        <ele>326</ele>
        <time>2011-09-25T08:26:48Z</time>
      </trkpt>
      <trkpt lat="49.19556" lon="6.95546">
        <ele>326</ele>
        <time>2011-09-25T08:26:49Z</time>
      </trkpt>
      <trkpt lat="49.19556" lon="6.95548">
        <ele>326</ele>
        <time>2011-09-25T08:26:50Z</time>
      </trkpt>
      <trkpt lat="49.19556" lon="6.9555">
        <ele>326</ele>
        <time>2011-09-25T08:26:51Z</time>
      </trkpt>
      <trkpt lat="49.19556" lon="6.95552">
        <ele>327</ele>
        <time>2011-09-25T08:26:52Z</time>
      </trkpt>
      <trkpt lat="49.19556" lon="6.95554">
        <ele>327</ele>
        <time>2011-09-25T08:26:53Z</time>
      </trkpt>
      <trkpt lat="49.19556" lon="6.95556">
        <ele>327</ele>
        <time>2011-09-25T08:26:55Z</time>
      </trkpt>
      <trkpt lat="49.19555" lon="6.95558">
        <ele>327</ele>
        <time>2011-09-25T08:26:56Z</time>
      </trkpt>
      <trkpt lat="49.19555" lon="6.9556">
        <ele>327</ele>
        <time>2011-09-25T08:26:57Z</time>
      </trkpt>
      <trkpt lat="49.19554" lon="6.95562">
        <ele>327</ele>
        <time>2011-09-25T08:26:58Z</time>
      </trkpt>
      <trkpt lat="49.19553" lon="6.95565">
        <ele>328</ele>
        <time>2011-09-25T08:27:00Z</time>
      </trkpt>
      <trkpt lat="49.19553" lon="6.95568">
        <ele>328</ele>
        <time>2011-09-25T08:27:02Z</time>
      </trkpt>
      <trkpt lat="49.19552" lon="6.95569">
        <ele>328</ele>
        <time>2011-09-25T08:27:03Z</time>
      </trkpt>
      <trkpt lat="49.19551" lon="6.95572">
        <ele>328</ele>
        <time>2011-09-25T08:27:05Z</time>
      </trkpt>
      <trkpt lat="49.1955" lon="6.95574">
        <ele>328</ele>
        <time>2011-09-25T08:27:07Z</time>
      </trkpt>
      <trkpt lat="49.19549" lon="6.95577">
        <ele>328</ele>
        <time>2011-09-25T08:27:09Z</time>
      </trkpt>
      <trkpt lat="49.19548" lon="6.9558">
        <ele>328</ele>
        <time>2011-09-25T08:27:11Z</time>
      </trkpt>
      <trkpt lat="49.19548" lon="6.95581">
        <ele>328</ele>
        <time>2011-09-25T08:27:12Z</time>
      </trkpt>
      <trkpt lat="49.19547" lon="6.95583">
        <ele>328</ele>
        <time>2011-09-25T08:27:13Z</time>
      </trkpt>
      <trkpt lat="49.19546" lon="6.95586">
        <ele>328</ele>
        <time>2011-09-25T08:27:15Z</time>
      </trkpt>
      <trkpt lat="49.19545" lon="6.95589">
        <ele>328</ele>
        <time>2011-09-25T08:27:17Z</time>
      </trkpt>
      <trkpt lat="49.19544" lon="6.95591">
        <ele>328</ele>
        <time>2011-09-25T08:27:18Z</time>
      </trkpt>
      <trkpt lat="49.19543" lon="6.95592">
        <ele>328</ele>
        <time>2011-09-25T08:27:19Z</time>
      </trkpt>
      <trkpt lat="49.19543" lon="6.95596">
        <ele>329</ele>
        <time>2011-09-25T08:27:21Z</time>
      </trkpt>
      <trkpt lat="49.19543" lon="6.95597">
        <ele>329</ele>
        <time>2011-09-25T08:27:22Z</time>
      </trkpt>
      <trkpt lat="49.19542" lon="6.95599">
        <ele>329</ele>
        <time>2011-09-25T08:27:23Z</time>
      </trkpt>
      <trkpt lat="49.19543" lon="6.95602">
        <ele>329</ele>
        <time>2011-09-25T08:27:25Z</time>
      </trkpt>
      <trkpt lat="49.19542" lon="6.95605">
        <ele>329</ele>
        <time>2011-09-25T08:27:27Z</time>
      </trkpt>
      <trkpt lat="49.19541" lon="6.95607">
        <ele>329</ele>
        <time>2011-09-25T08:27:28Z</time>
      </trkpt>
      <trkpt lat="49.1954" lon="6.95609">
        <ele>329</ele>
        <time>2011-09-25T08:27:29Z</time>
      </trkpt>
      <trkpt lat="49.1954" lon="6.9561">
        <ele>329</ele>
        <time>2011-09-25T08:27:30Z</time>
      </trkpt>
      <trkpt lat="49.19539" lon="6.95613">
        <ele>330</ele>
        <time>2011-09-25T08:27:32Z</time>
      </trkpt>
      <trkpt lat="49.19538" lon="6.95615">
        <ele>330</ele>
        <time>2011-09-25T08:27:33Z</time>
      </trkpt>
      <trkpt lat="49.19538" lon="6.95617">
        <ele>330</ele>
        <time>2011-09-25T08:27:34Z</time>
      </trkpt>
      <trkpt lat="49.19538" lon="6.95618">
        <ele>330</ele>
        <time>2011-09-25T08:27:35Z</time>
      </trkpt>
      <trkpt lat="49.19538" lon="6.95621">
        <ele>330</ele>
        <time>2011-09-25T08:27:37Z</time>
      </trkpt>
      <trkpt lat="49.19538" lon="6.95623">
        <ele>330</ele>
        <time>2011-09-25T08:27:38Z</time>
      </trkpt>
      <trkpt lat="49.19539" lon="6.95625">
        <ele>330</ele>
        <time>2011-09-25T08:27:39Z</time>
      </trkpt>
      <trkpt lat="49.19539" lon="6.95627">
        <ele>330</ele>
        <time>2011-09-25T08:27:40Z</time>
      </trkpt>
      <trkpt lat="49.19539" lon="6.95628">
        <ele>330</ele>
        <time>2011-09-25T08:27:41Z</time>
      </trkpt>
      <trkpt lat="49.19538" lon="6.9563">
        <ele>330</ele>
        <time>2011-09-25T08:27:42Z</time>
      </trkpt>
      <trkpt lat="49.19538" lon="6.95632">
        <ele>330</ele>
        <time>2011-09-25T08:27:43Z</time>
      </trkpt>
      <trkpt lat="49.19538" lon="6.95634">
        <ele>330</ele>
        <time>2011-09-25T08:27:44Z</time>
      </trkpt>
      <trkpt lat="49.19538" lon="6.95636">
        <ele>330</ele>
        <time>2011-09-25T08:27:46Z</time>
      </trkpt>
      <trkpt lat="49.19538" lon="6.95639">
        <ele>330</ele>
        <time>2011-09-25T08:27:48Z</time>
      </trkpt>
      <trkpt lat="49.19538" lon="6.95641">
        <ele>330</ele>
        <time>2011-09-25T08:27:49Z</time>
      </trkpt>
      <trkpt lat="49.19537" lon="6.95643">
        <ele>330</ele>
        <time>2011-09-25T08:27:50Z</time>
      </trkpt>
      <trkpt lat="49.19537" lon="6.95645">
        <ele>330</ele>
        <time>2011-09-25T08:27:51Z</time>
      </trkpt>
      <trkpt lat="49.19536" lon="6.95647">
        <ele>330</ele>
        <time>2011-09-25T08:27:52Z</time>
      </trkpt>
      <trkpt lat="49.19536" lon="6.95648">
        <ele>331</ele>
        <time>2011-09-25T08:27:53Z</time>
      </trkpt>
      <trkpt lat="49.19536" lon="6.9565">
        <ele>331</ele>
        <time>2011-09-25T08:27:54Z</time>
      </trkpt>
      <trkpt lat="49.19536" lon="6.95652">
        <ele>331</ele>
        <time>2011-09-25T08:27:55Z</time>
      </trkpt>
      <trkpt lat="49.19536" lon="6.95655">
        <ele>331</ele>
        <time>2011-09-25T08:27:57Z</time>
      </trkpt>
      <trkpt lat="49.19536" lon="6.95657">
        <ele>331</ele>
        <time>2011-09-25T08:28:03Z</time>
      </trkpt>
      <trkpt lat="49.19536" lon="6.95658">
        <ele>332</ele>
        <time>2011-09-25T08:28:04Z</time>
      </trkpt>
      <trkpt lat="49.19536" lon="6.95662">
        <ele>332</ele>
        <time>2011-09-25T08:28:06Z</time>
      </trkpt>
      <trkpt lat="49.19536" lon="6.95663">
        <ele>332</ele>
        <time>2011-09-25T08:28:07Z</time>
      </trkpt>
      <trkpt lat="49.19536" lon="6.95665">
        <ele>332</ele>
        <time>2011-09-25T08:28:08Z</time>
      </trkpt>
      <trkpt lat="49.19536" lon="6.95667">
        <ele>332</ele>
        <time>2011-09-25T08:28:09Z</time>
      </trkpt>
      <trkpt lat="49.19536" lon="6.95669">
        <ele>332</ele>
        <time>2011-09-25T08:28:10Z</time>
      </trkpt>
      <trkpt lat="49.19535" lon="6.9567">
        <ele>332</ele>
        <time>2011-09-25T08:28:11Z</time>
      </trkpt>
      <trkpt lat="49.19535" lon="6.95672">
        <ele>332</ele>
        <time>2011-09-25T08:28:12Z</time>
      </trkpt>
      <trkpt lat="49.19535" lon="6.95674">
        <ele>332</ele>
        <time>2011-09-25T08:28:13Z</time>
      </trkpt>
      <trkpt lat="49.19535" lon="6.95676">
        <ele>332</ele>
        <time>2011-09-25T08:28:14Z</time>
      </trkpt>
      <trkpt lat="49.19535" lon="6.95678">
        <ele>332</ele>
        <time>2011-09-25T08:28:15Z</time>
      </trkpt>
      <trkpt lat="49.19535" lon="6.9568">
        <ele>332</ele>
        <time>2011-09-25T08:28:16Z</time>
      </trkpt>
      <trkpt lat="49.19535" lon="6.95681">
        <ele>332</ele>
        <time>2011-09-25T08:28:17Z</time>
      </trkpt>
      <trkpt lat="49.19535" lon="6.95683">
        <ele>332</ele>
        <time>2011-09-25T08:28:18Z</time>
      </trkpt>
      <trkpt lat="49.19535" lon="6.95685">
        <ele>332</ele>
        <time>2011-09-25T08:28:19Z</time>
      </trkpt>
      <trkpt lat="49.19535" lon="6.95687">
        <ele>332</ele>
        <time>2011-09-25T08:28:20Z</time>
      </trkpt>
      <trkpt lat="49.19535" lon="6.95689">
        <ele>332</ele>
        <time>2011-09-25T08:28:21Z</time>
      </trkpt>
      <trkpt lat="49.19535" lon="6.95691">
        <ele>332</ele>
        <time>2011-09-25T08:28:22Z</time>
      </trkpt>
      <trkpt lat="49.19535" lon="6.95693">
        <ele>332</ele>
        <time>2011-09-25T08:28:23Z</time>
      </trkpt>
      <trkpt lat="49.19535" lon="6.95695">
        <ele>332</ele>
        <time>2011-09-25T08:28:24Z</time>
      </trkpt>
      <trkpt lat="49.19535" lon="6.95698">
        <ele>332</ele>
        <time>2011-09-25T08:28:26Z</time>
      </trkpt>
      <trkpt lat="49.19534" lon="6.957">
        <ele>332</ele>
        <time>2011-09-25T08:28:27Z</time>
      </trkpt>
      <trkpt lat="49.19534" lon="6.95701">
        <ele>332</ele>
        <time>2011-09-25T08:28:28Z</time>
      </trkpt>
      <trkpt lat="49.19533" lon="6.95704">
        <ele>332</ele>
        <time>2011-09-25T08:28:30Z</time>
      </trkpt>
      <trkpt lat="49.19533" lon="6.95706">
        <ele>332</ele>
        <time>2011-09-25T08:28:32Z</time>
      </trkpt>
      <trkpt lat="49.19533" lon="6.95709">
        <ele>332</ele>
        <time>2011-09-25T08:28:37Z</time>
      </trkpt>
      <trkpt lat="49.19533" lon="6.95712">
        <ele>332</ele>
        <time>2011-09-25T08:28:39Z</time>
      </trkpt>
      <trkpt lat="49.19533" lon="6.95713">
        <ele>332</ele>
        <time>2011-09-25T08:28:40Z</time>
      </trkpt>
      <trkpt lat="49.19533" lon="6.95716">
        <ele>332</ele>
        <time>2011-09-25T08:28:42Z</time>
      </trkpt>
      <trkpt lat="49.19533" lon="6.95718">
        <ele>332</ele>
        <time>2011-09-25T08:28:44Z</time>
      </trkpt>
      <trkpt lat="49.19533" lon="6.95721">
        <ele>332</ele>
        <time>2011-09-25T08:28:46Z</time>
      </trkpt>
      <trkpt lat="49.19533" lon="6.95723">
        <ele>332</ele>
        <time>2011-09-25T08:28:49Z</time>
      </trkpt>
      <trkpt lat="49.19534" lon="6.95724">
        <ele>332</ele>
        <time>2011-09-25T08:28:51Z</time>
      </trkpt>
      <trkpt lat="49.19534" lon="6.95726">
        <ele>332</ele>
        <time>2011-09-25T08:28:53Z</time>
      </trkpt>
      <trkpt lat="49.19533" lon="6.95728">
        <ele>332</ele>
        <time>2011-09-25T08:28:55Z</time>
      </trkpt>
      <trkpt lat="49.19533" lon="6.9573">
        <ele>332</ele>
        <time>2011-09-25T08:28:57Z</time>
      </trkpt>
      <trkpt lat="49.19533" lon="6.95732">
        <ele>332</ele>
        <time>2011-09-25T08:28:59Z</time>
      </trkpt>
      <trkpt lat="49.19532" lon="6.95735">
        <ele>332</ele>
        <time>2011-09-25T08:29:01Z</time>
      </trkpt>
      <trkpt lat="49.19531" lon="6.95737">
        <ele>332</ele>
        <time>2011-09-25T08:29:03Z</time>
      </trkpt>
      <trkpt lat="49.1953" lon="6.9574">
        <ele>332</ele>
        <time>2011-09-25T08:29:05Z</time>
      </trkpt>
      <trkpt lat="49.19529" lon="6.95742">
        <ele>332</ele>
        <time>2011-09-25T08:29:07Z</time>
      </trkpt>
      <trkpt lat="49.19529" lon="6.95744">
        <ele>332</ele>
        <time>2011-09-25T08:29:09Z</time>
      </trkpt>
      <trkpt lat="49.19528" lon="6.95745">
        <ele>332</ele>
        <time>2011-09-25T08:29:11Z</time>
      </trkpt>
      <trkpt lat="49.19527" lon="6.95747">
        <ele>332</ele>
        <time>2011-09-25T08:29:14Z</time>
      </trkpt>
      <trkpt lat="49.19526" lon="6.95749">
        <ele>332</ele>
        <time>2011-09-25T08:29:16Z</time>
      </trkpt>
      <trkpt lat="49.19525" lon="6.95751">
        <ele>332</ele>
        <time>2011-09-25T08:29:18Z</time>
      </trkpt>
      <trkpt lat="49.19524" lon="6.95753">
        <ele>332</ele>
        <time>2011-09-25T08:29:21Z</time>
      </trkpt>
      <trkpt lat="49.19524" lon="6.95755">
        <ele>332</ele>
        <time>2011-09-25T08:29:24Z</time>
      </trkpt>
      <trkpt lat="49.19524" lon="6.95758">
        <ele>332</ele>
        <time>2011-09-25T08:29:26Z</time>
      </trkpt>
      <trkpt lat="49.19524" lon="6.95761">
        <ele>332</ele>
        <time>2011-09-25T08:29:28Z</time>
      </trkpt>
      <trkpt lat="49.19525" lon="6.95763">
        <ele>332</ele>
        <time>2011-09-25T08:29:29Z</time>
      </trkpt>
      <trkpt lat="49.19525" lon="6.95764">
        <ele>332</ele>
        <time>2011-09-25T08:29:30Z</time>
      </trkpt>
      <trkpt lat="49.19526" lon="6.95767">
        <ele>332</ele>
        <time>2011-09-25T08:29:32Z</time>
      </trkpt>
      <trkpt lat="49.19526" lon="6.95769">
        <ele>332</ele>
        <time>2011-09-25T08:29:33Z</time>
      </trkpt>
      <trkpt lat="49.19526" lon="6.95771">
        <ele>332</ele>
        <time>2011-09-25T08:29:34Z</time>
      </trkpt>
      <trkpt lat="49.19526" lon="6.95772">
        <ele>332</ele>
        <time>2011-09-25T08:29:35Z</time>
      </trkpt>
      <trkpt lat="49.19527" lon="6.95774">
        <ele>332</ele>
        <time>2011-09-25T08:29:36Z</time>
      </trkpt>
      <trkpt lat="49.19527" lon="6.95776">
        <ele>332</ele>
        <time>2011-09-25T08:29:37Z</time>
      </trkpt>
      <trkpt lat="49.19527" lon="6.95779">
        <ele>332</ele>
        <time>2011-09-25T08:29:39Z</time>
      </trkpt>
      <trkpt lat="49.19527" lon="6.95781">
        <ele>332</ele>
        <time>2011-09-25T08:29:40Z</time>
      </trkpt>
      <trkpt lat="49.19527" lon="6.95783">
        <ele>332</ele>
        <time>2011-09-25T08:29:41Z</time>
      </trkpt>
      <trkpt lat="49.19527" lon="6.95784">
        <ele>332</ele>
        <time>2011-09-25T08:29:42Z</time>
      </trkpt>
      <trkpt lat="49.19527" lon="6.95786">
        <ele>332</ele>
        <time>2011-09-25T08:29:43Z</time>
      </trkpt>
      <trkpt lat="49.19528" lon="6.95787">
        <ele>332</ele>
        <time>2011-09-25T08:29:44Z</time>
      </trkpt>
      <trkpt lat="49.19528" lon="6.95789">
        <ele>332</ele>
        <time>2011-09-25T08:29:45Z</time>
      </trkpt>
      <trkpt lat="49.19528" lon="6.95792">
        <ele>332</ele>
        <time>2011-09-25T08:29:47Z</time>
      </trkpt>
      <trkpt lat="49.19529" lon="6.95795">
        <ele>332</ele>
        <time>2011-09-25T08:29:49Z</time>
      </trkpt>
      <trkpt lat="49.19529" lon="6.95797">
        <ele>332</ele>
        <time>2011-09-25T08:29:50Z</time>
      </trkpt>
      <trkpt lat="49.19529" lon="6.95799">
        <ele>332</ele>
        <time>2011-09-25T08:29:51Z</time>
      </trkpt>
      <trkpt lat="49.19529" lon="6.958">
        <ele>332</ele>
        <time>2011-09-25T08:29:52Z</time>
      </trkpt>
      <trkpt lat="49.1953" lon="6.95803">
        <ele>332</ele>
        <time>2011-09-25T08:29:54Z</time>
      </trkpt>
      <trkpt lat="49.1953" lon="6.95805">
        <ele>332</ele>
        <time>2011-09-25T08:29:55Z</time>
      </trkpt>
      <trkpt lat="49.19531" lon="6.95807">
        <ele>332</ele>
        <time>2011-09-25T08:29:56Z</time>
      </trkpt>
      <trkpt lat="49.19531" lon="6.95809">
        <ele>332</ele>
        <time>2011-09-25T08:29:57Z</time>
      </trkpt>
      <trkpt lat="49.19531" lon="6.95811">
        <ele>332</ele>
        <time>2011-09-25T08:29:58Z</time>
      </trkpt>
      <trkpt lat="49.19531" lon="6.95812">
        <ele>332</ele>
        <time>2011-09-25T08:29:59Z</time>
      </trkpt>
      <trkpt lat="49.19532" lon="6.95815">
        <ele>332</ele>
        <time>2011-09-25T08:30:01Z</time>
      </trkpt>
      <trkpt lat="49.19533" lon="6.95817">
        <ele>332</ele>
        <time>2011-09-25T08:30:02Z</time>
      </trkpt>
      <trkpt lat="49.19533" lon="6.95819">
        <ele>332</ele>
        <time>2011-09-25T08:30:03Z</time>
      </trkpt>
      <trkpt lat="49.19534" lon="6.95821">
        <ele>332</ele>
        <time>2011-09-25T08:30:04Z</time>
      </trkpt>
      <trkpt lat="49.19534" lon="6.95822">
        <ele>332</ele>
        <time>2011-09-25T08:30:05Z</time>
      </trkpt>
      <trkpt lat="49.19535" lon="6.95825">
        <ele>332</ele>
        <time>2011-09-25T08:30:07Z</time>
      </trkpt>
      <trkpt lat="49.19535" lon="6.95828">
        <ele>332</ele>
        <time>2011-09-25T08:30:09Z</time>
      </trkpt>
      <trkpt lat="49.19535" lon="6.9583">
        <ele>332</ele>
        <time>2011-09-25T08:30:10Z</time>
      </trkpt>
      <trkpt lat="49.19536" lon="6.95832">
        <ele>332</ele>
        <time>2011-09-25T08:30:11Z</time>
      </trkpt>
      <trkpt lat="49.19536" lon="6.95833">
        <ele>332</ele>
        <time>2011-09-25T08:30:12Z</time>
      </trkpt>
      <trkpt lat="49.19537" lon="6.95835">
        <ele>332</ele>
        <time>2011-09-25T08:30:13Z</time>
      </trkpt>
      <trkpt lat="49.19537" lon="6.95837">
        <ele>332</ele>
        <time>2011-09-25T08:30:14Z</time>
      </trkpt>
      <trkpt lat="49.19538" lon="6.95838">
        <ele>332</ele>
        <time>2011-09-25T08:30:15Z</time>
      </trkpt>
      <trkpt lat="49.19539" lon="6.95842">
        <ele>332</ele>
        <time>2011-09-25T08:30:17Z</time>
      </trkpt>
      <trkpt lat="49.19539" lon="6.95845">
        <ele>332</ele>
        <time>2011-09-25T08:30:19Z</time>
      </trkpt>
      <trkpt lat="49.1954" lon="6.95848">
        <ele>332</ele>
        <time>2011-09-25T08:30:21Z</time>
      </trkpt>
      <trkpt lat="49.19541" lon="6.9585">
        <ele>332</ele>
        <time>2011-09-25T08:30:23Z</time>
      </trkpt>
      <trkpt lat="49.19542" lon="6.95853">
        <ele>332</ele>
        <time>2011-09-25T08:30:25Z</time>
      </trkpt>
      <trkpt lat="49.19542" lon="6.95854">
        <ele>332</ele>
        <time>2011-09-25T08:30:26Z</time>
      </trkpt>
      <trkpt lat="49.19543" lon="6.95857">
        <ele>332</ele>
        <time>2011-09-25T08:30:28Z</time>
      </trkpt>
      <trkpt lat="49.19544" lon="6.95861">
        <ele>332</ele>
        <time>2011-09-25T08:30:30Z</time>
      </trkpt>
      <trkpt lat="49.19545" lon="6.95864">
        <ele>332</ele>
        <time>2011-09-25T08:30:32Z</time>
      </trkpt>
      <trkpt lat="49.19545" lon="6.95866">
        <ele>332</ele>
        <time>2011-09-25T08:30:33Z</time>
      </trkpt>
      <trkpt lat="49.19545" lon="6.95867">
        <ele>332</ele>
        <time>2011-09-25T08:30:34Z</time>
      </trkpt>
      <trkpt lat="49.19546" lon="6.95869">
        <ele>332</ele>
        <time>2011-09-25T08:30:35Z</time>
      </trkpt>
      <trkpt lat="49.19547" lon="6.95872">
        <ele>332</ele>
        <time>2011-09-25T08:30:37Z</time>
      </trkpt>
      <trkpt lat="49.19547" lon="6.95874">
        <ele>332</ele>
        <time>2011-09-25T08:30:38Z</time>
      </trkpt>
      <trkpt lat="49.19548" lon="6.95875">
        <ele>332</ele>
        <time>2011-09-25T08:30:39Z</time>
      </trkpt>
      <trkpt lat="49.19549" lon="6.95878">
        <ele>332</ele>
        <time>2011-09-25T08:30:41Z</time>
      </trkpt>
      <trkpt lat="49.1955" lon="6.95881">
        <ele>332</ele>
        <time>2011-09-25T08:30:43Z</time>
      </trkpt>
      <trkpt lat="49.1955" lon="6.95883">
        <ele>332</ele>
        <time>2011-09-25T08:30:44Z</time>
      </trkpt>
      <trkpt lat="49.19552" lon="6.95886">
        <ele>332</ele>
        <time>2011-09-25T08:30:46Z</time>
      </trkpt>
      <trkpt lat="49.19552" lon="6.95888">
        <ele>332</ele>
        <time>2011-09-25T08:30:47Z</time>
      </trkpt>
      <trkpt lat="49.19553" lon="6.9589">
        <ele>332</ele>
        <time>2011-09-25T08:30:48Z</time>
      </trkpt>
      <trkpt lat="49.19553" lon="6.95891">
        <ele>332</ele>
        <time>2011-09-25T08:30:49Z</time>
      </trkpt>
      <trkpt lat="49.19555" lon="6.95894">
        <ele>332</ele>
        <time>2011-09-25T08:30:51Z</time>
      </trkpt>
      <trkpt lat="49.19556" lon="6.95897">
        <ele>332</ele>
        <time>2011-09-25T08:30:53Z</time>
      </trkpt>
      <trkpt lat="49.19556" lon="6.95899">
        <ele>332</ele>
        <time>2011-09-25T08:30:54Z</time>
      </trkpt>
      <trkpt lat="49.19557" lon="6.95902">
        <ele>332</ele>
        <time>2011-09-25T08:30:56Z</time>
      </trkpt>
      <trkpt lat="49.19558" lon="6.95905">
        <ele>332</ele>
        <time>2011-09-25T08:30:58Z</time>
      </trkpt>
      <trkpt lat="49.19559" lon="6.95907">
        <ele>332</ele>
        <time>2011-09-25T08:30:59Z</time>
      </trkpt>
      <trkpt lat="49.19559" lon="6.95909">
        <ele>332</ele>
        <time>2011-09-25T08:31:00Z</time>
      </trkpt>
      <trkpt lat="49.1956" lon="6.95911">
        <ele>332</ele>
        <time>2011-09-25T08:31:01Z</time>
      </trkpt>
      <trkpt lat="49.19561" lon="6.95914">
        <ele>332</ele>
        <time>2011-09-25T08:31:03Z</time>
      </trkpt>
      <trkpt lat="49.19561" lon="6.95915">
        <ele>332</ele>
        <time>2011-09-25T08:31:04Z</time>
      </trkpt>
      <trkpt lat="49.19562" lon="6.95917">
        <ele>332</ele>
        <time>2011-09-25T08:31:05Z</time>
      </trkpt>
      <trkpt lat="49.19563" lon="6.95919">
        <ele>332</ele>
        <time>2011-09-25T08:31:06Z</time>
      </trkpt>
      <trkpt lat="49.19563" lon="6.95921">
        <ele>332</ele>
        <time>2011-09-25T08:31:07Z</time>
      </trkpt>
      <trkpt lat="49.19564" lon="6.95924">
        <ele>332</ele>
        <time>2011-09-25T08:31:09Z</time>
      </trkpt>
      <trkpt lat="49.19564" lon="6.95925">
        <ele>332</ele>
        <time>2011-09-25T08:31:10Z</time>
      </trkpt>
      <trkpt lat="49.19565" lon="6.95927">
        <ele>332</ele>
        <time>2011-09-25T08:31:11Z</time>
      </trkpt>
      <trkpt lat="49.19566" lon="6.95928">
        <ele>332</ele>
        <time>2011-09-25T08:31:12Z</time>
      </trkpt>
      <trkpt lat="49.19566" lon="6.9593">
        <ele>332</ele>
        <time>2011-09-25T08:31:13Z</time>
      </trkpt>
      <trkpt lat="49.19567" lon="6.95932">
        <ele>332</ele>
        <time>2011-09-25T08:31:14Z</time>
      </trkpt>
      <trkpt lat="49.19568" lon="6.95934">
        <ele>332</ele>
        <time>2011-09-25T08:31:15Z</time>
      </trkpt>
      <trkpt lat="49.19568" lon="6.95935">
        <ele>332</ele>
        <time>2011-09-25T08:31:16Z</time>
      </trkpt>
      <trkpt lat="49.19569" lon="6.95937">
        <ele>332</ele>
        <time>2011-09-25T08:31:17Z</time>
      </trkpt>
      <trkpt lat="49.1957" lon="6.95939">
        <ele>332</ele>
        <time>2011-09-25T08:31:18Z</time>
      </trkpt>
      <trkpt lat="49.1957" lon="6.95941">
        <ele>332</ele>
        <time>2011-09-25T08:31:19Z</time>
      </trkpt>
      <trkpt lat="49.19571" lon="6.95943">
        <ele>332</ele>
        <time>2011-09-25T08:31:20Z</time>
      </trkpt>
      <trkpt lat="49.19571" lon="6.95945">
        <ele>332</ele>
        <time>2011-09-25T08:31:21Z</time>
      </trkpt>
      <trkpt lat="49.19572" lon="6.95947">
        <ele>332</ele>
        <time>2011-09-25T08:31:22Z</time>
      </trkpt>
      <trkpt lat="49.19572" lon="6.95948">
        <ele>332</ele>
        <time>2011-09-25T08:31:23Z</time>
      </trkpt>
      <trkpt lat="49.19574" lon="6.95951">
        <ele>332</ele>
        <time>2011-09-25T08:31:25Z</time>
      </trkpt>
      <trkpt lat="49.19574" lon="6.95953">
        <ele>332</ele>
        <time>2011-09-25T08:31:26Z</time>
      </trkpt>
      <trkpt lat="49.19575" lon="6.95955">
        <ele>332</ele>
        <time>2011-09-25T08:31:27Z</time>
      </trkpt>
      <trkpt lat="49.19575" lon="6.95957">
        <ele>332</ele>
        <time>2011-09-25T08:31:28Z</time>
      </trkpt>
      <trkpt lat="49.19576" lon="6.95959">
        <ele>332</ele>
        <time>2011-09-25T08:31:29Z</time>
      </trkpt>
      <trkpt lat="49.19576" lon="6.95961">
        <ele>332</ele>
        <time>2011-09-25T08:31:30Z</time>
      </trkpt>
      <trkpt lat="49.19577" lon="6.95963">
        <ele>332</ele>
        <time>2011-09-25T08:31:31Z</time>
      </trkpt>
      <trkpt lat="49.19578" lon="6.95966">
        <ele>332</ele>
        <time>2011-09-25T08:31:33Z</time>
      </trkpt>
      <trkpt lat="49.19579" lon="6.95968">
        <ele>332</ele>
        <time>2011-09-25T08:31:34Z</time>
      </trkpt>
      <trkpt lat="49.19579" lon="6.9597">
        <ele>332</ele>
        <time>2011-09-25T08:31:35Z</time>
      </trkpt>
      <trkpt lat="49.19579" lon="6.95972">
        <ele>332</ele>
        <time>2011-09-25T08:31:36Z</time>
      </trkpt>
      <trkpt lat="49.1958" lon="6.95974">
        <ele>332</ele>
        <time>2011-09-25T08:31:37Z</time>
      </trkpt>
      <trkpt lat="49.19581" lon="6.95975">
        <ele>332</ele>
        <time>2011-09-25T08:31:38Z</time>
      </trkpt>
      <trkpt lat="49.19581" lon="6.95977">
        <ele>332</ele>
        <time>2011-09-25T08:31:39Z</time>
      </trkpt>
      <trkpt lat="49.19582" lon="6.95979">
        <ele>332</ele>
        <time>2011-09-25T08:31:40Z</time>
      </trkpt>
      <trkpt lat="49.19582" lon="6.95981">
        <ele>332</ele>
        <time>2011-09-25T08:31:41Z</time>
      </trkpt>
      <trkpt lat="49.19583" lon="6.95983">
        <ele>332</ele>
        <time>2011-09-25T08:31:42Z</time>
      </trkpt>
      <trkpt lat="49.19583" lon="6.95985">
        <ele>332</ele>
        <time>2011-09-25T08:31:43Z</time>
      </trkpt>
      <trkpt lat="49.19584" lon="6.95987">
        <ele>332</ele>
        <time>2011-09-25T08:31:44Z</time>
      </trkpt>
      <trkpt lat="49.19584" lon="6.95989">
        <ele>332</ele>
        <time>2011-09-25T08:31:45Z</time>
      </trkpt>
      <trkpt lat="49.19585" lon="6.95991">
        <ele>332</ele>
        <time>2011-09-25T08:31:46Z</time>
      </trkpt>
      <trkpt lat="49.19585" lon="6.95992">
        <ele>332</ele>
        <time>2011-09-25T08:31:47Z</time>
      </trkpt>
      <trkpt lat="49.19586" lon="6.95994">
        <ele>332</ele>
        <time>2011-09-25T08:31:48Z</time>
      </trkpt>
      <trkpt lat="49.19586" lon="6.95996">
        <ele>332</ele>
        <time>2011-09-25T08:31:49Z</time>
      </trkpt>
      <trkpt lat="49.19587" lon="6.95997">
        <ele>332</ele>
        <time>2011-09-25T08:31:50Z</time>
      </trkpt>
      <trkpt lat="49.19587" lon="6.95999">
        <ele>332</ele>
        <time>2011-09-25T08:31:51Z</time>
      </trkpt>
      <trkpt lat="49.19588" lon="6.96001">
        <ele>332</ele>
        <time>2011-09-25T08:31:52Z</time>
      </trkpt>
      <trkpt lat="49.19588" lon="6.96004">
        <ele>332</ele>
        <time>2011-09-25T08:31:53Z</time>
      </trkpt>
      <trkpt lat="49.19589" lon="6.96006">
        <ele>332</ele>
        <time>2011-09-25T08:31:54Z</time>
      </trkpt>
      <trkpt lat="49.1959" lon="6.96007">
        <ele>332</ele>
        <time>2011-09-25T08:31:55Z</time>
      </trkpt>
      <trkpt lat="49.1959" lon="6.96009">
        <ele>332</ele>
        <time>2011-09-25T08:31:56Z</time>
      </trkpt>
      <trkpt lat="49.1959" lon="6.96011">
        <ele>332</ele>
        <time>2011-09-25T08:31:57Z</time>
      </trkpt>
      <trkpt lat="49.1959" lon="6.96013">
        <ele>332</ele>
        <time>2011-09-25T08:31:58Z</time>
      </trkpt>
      <trkpt lat="49.19591" lon="6.96015">
        <ele>332</ele>
        <time>2011-09-25T08:31:59Z</time>
      </trkpt>
      <trkpt lat="49.19591" lon="6.96017">
        <ele>332</ele>
        <time>2011-09-25T08:32:00Z</time>
      </trkpt>
      <trkpt lat="49.19592" lon="6.96019">
        <ele>332</ele>
        <time>2011-09-25T08:32:01Z</time>
      </trkpt>
      <trkpt lat="49.19593" lon="6.9602">
        <ele>332</ele>
        <time>2011-09-25T08:32:02Z</time>
      </trkpt>
      <trkpt lat="49.19593" lon="6.96022">
        <ele>332</ele>
        <time>2011-09-25T08:32:03Z</time>
      </trkpt>
      <trkpt lat="49.19594" lon="6.96024">
        <ele>332</ele>
        <time>2011-09-25T08:32:04Z</time>
      </trkpt>
      <trkpt lat="49.19594" lon="6.96026">
        <ele>332</ele>
        <time>2011-09-25T08:32:05Z</time>
      </trkpt>
      <trkpt lat="49.19595" lon="6.96028">
        <ele>332</ele>
        <time>2011-09-25T08:32:06Z</time>
      </trkpt>
      <trkpt lat="49.19595" lon="6.9603">
        <ele>332</ele>
        <time>2011-09-25T08:32:07Z</time>
      </trkpt>
      <trkpt lat="49.19596" lon="6.96031">
        <ele>332</ele>
        <time>2011-09-25T08:32:08Z</time>
      </trkpt>
      <trkpt lat="49.19596" lon="6.96033">
        <ele>332</ele>
        <time>2011-09-25T08:32:09Z</time>
      </trkpt>
      <trkpt lat="49.19596" lon="6.96035">
        <ele>332</ele>
        <time>2011-09-25T08:32:10Z</time>
      </trkpt>
      <trkpt lat="49.19597" lon="6.96037">
        <ele>332</ele>
        <time>2011-09-25T08:32:11Z</time>
      </trkpt>
      <trkpt lat="49.19598" lon="6.96039">
        <ele>332</ele>
        <time>2011-09-25T08:32:12Z</time>
      </trkpt>
      <trkpt lat="49.19598" lon="6.96041">
        <ele>332</ele>
        <time>2011-09-25T08:32:13Z</time>
      </trkpt>
      <trkpt lat="49.19598" lon="6.96042">
        <ele>332</ele>
        <time>2011-09-25T08:32:14Z</time>
      </trkpt>
      <trkpt lat="49.19599" lon="6.96044">
        <ele>332</ele>
        <time>2011-09-25T08:32:15Z</time>
      </trkpt>
      <trkpt lat="49.196" lon="6.96046">
        <ele>332</ele>
        <time>2011-09-25T08:32:16Z</time>
      </trkpt>
      <trkpt lat="49.196" lon="6.96048">
        <ele>332</ele>
        <time>2011-09-25T08:32:17Z</time>
      </trkpt>
      <trkpt lat="49.196" lon="6.9605">
        <ele>332</ele>
        <time>2011-09-25T08:32:18Z</time>
      </trkpt>
      <trkpt lat="49.19601" lon="6.96052">
        <ele>332</ele>
        <time>2011-09-25T08:32:19Z</time>
      </trkpt>
      <trkpt lat="49.19601" lon="6.96054">
        <ele>332</ele>
        <time>2011-09-25T08:32:20Z</time>
      </trkpt>
      <trkpt lat="49.19602" lon="6.96056">
        <ele>332</ele>
        <time>2011-09-25T08:32:21Z</time>
      </trkpt>
      <trkpt lat="49.19602" lon="6.96057">
        <ele>332</ele>
        <time>2011-09-25T08:32:22Z</time>
      </trkpt>
      <trkpt lat="49.19603" lon="6.96059">
        <ele>332</ele>
        <time>2011-09-25T08:32:23Z</time>
      </trkpt>
      <trkpt lat="49.19603" lon="6.96061">
        <ele>332</ele>
        <time>2011-09-25T08:32:24Z</time>
      </trkpt>
      <trkpt lat="49.19604" lon="6.96063">
        <ele>332</ele>
        <time>2011-09-25T08:32:25Z</time>
      </trkpt>
      <trkpt lat="49.19604" lon="6.96065">
        <ele>332</ele>
        <time>2011-09-25T08:32:26Z</time>
      </trkpt>
      <trkpt lat="49.19604" lon="6.96067">
        <ele>332</ele>
        <time>2011-09-25T08:32:27Z</time>
      </trkpt>
      <trkpt lat="49.19605" lon="6.96069">
        <ele>332</ele>
        <time>2011-09-25T08:32:28Z</time>
      </trkpt>
      <trkpt lat="49.19605" lon="6.96071">
        <ele>332</ele>
        <time>2011-09-25T08:32:29Z</time>
      </trkpt>
      <trkpt lat="49.19606" lon="6.96073">
        <ele>332</ele>
        <time>2011-09-25T08:32:30Z</time>
      </trkpt>
      <trkpt lat="49.19606" lon="6.96075">
        <ele>332</ele>
        <time>2011-09-25T08:32:31Z</time>
      </trkpt>
      <trkpt lat="49.19607" lon="6.96076">
        <ele>332</ele>
        <time>2011-09-25T08:32:32Z</time>
      </trkpt>
      <trkpt lat="49.19607" lon="6.96078">
        <ele>332</ele>
        <time>2011-09-25T08:32:33Z</time>
      </trkpt>
      <trkpt lat="49.19607" lon="6.9608">
        <ele>332</ele>
        <time>2011-09-25T08:32:34Z</time>
      </trkpt>
      <trkpt lat="49.19608" lon="6.96082">
        <ele>332</ele>
        <time>2011-09-25T08:32:35Z</time>
      </trkpt>
      <trkpt lat="49.19608" lon="6.96084">
        <ele>332</ele>
        <time>2011-09-25T08:32:36Z</time>
      </trkpt>
      <trkpt lat="49.19609" lon="6.96086">
        <ele>332</ele>
        <time>2011-09-25T08:32:37Z</time>
      </trkpt>
      <trkpt lat="49.19609" lon="6.96088">
        <ele>332</ele>
        <time>2011-09-25T08:32:38Z</time>
      </trkpt>
      <trkpt lat="49.1961" lon="6.96089">
        <ele>332</ele>
        <time>2011-09-25T08:32:39Z</time>
      </trkpt>
      <trkpt lat="49.1961" lon="6.96091">
        <ele>332</ele>
        <time>2011-09-25T08:32:40Z</time>
      </trkpt>
      <trkpt lat="49.19611" lon="6.96093">
        <ele>332</ele>
        <time>2011-09-25T08:32:41Z</time>
      </trkpt>
      <trkpt lat="49.19611" lon="6.96095">
        <ele>332</ele>
        <time>2011-09-25T08:32:42Z</time>
      </trkpt>
      <trkpt lat="49.19611" lon="6.96097">
        <ele>332</ele>
        <time>2011-09-25T08:32:43Z</time>
      </trkpt>
      <trkpt lat="49.19612" lon="6.96099">
        <ele>332</ele>
        <time>2011-09-25T08:32:44Z</time>
      </trkpt>
      <trkpt lat="49.19612" lon="6.96101">
        <ele>332</ele>
        <time>2011-09-25T08:32:45Z</time>
      </trkpt>
      <trkpt lat="49.19612" lon="6.96103">
        <ele>332</ele>
        <time>2011-09-25T08:32:46Z</time>
      </trkpt>
      <trkpt lat="49.19613" lon="6.96105">
        <ele>332</ele>
        <time>2011-09-25T08:32:47Z</time>
      </trkpt>
      <trkpt lat="49.19613" lon="6.96107">
        <ele>332</ele>
        <time>2011-09-25T08:32:48Z</time>
      </trkpt>
      <trkpt lat="49.19613" lon="6.96108">
        <ele>332</ele>
        <time>2011-09-25T08:32:49Z</time>
      </trkpt>
      <trkpt lat="49.19614" lon="6.9611">
        <ele>332</ele>
        <time>2011-09-25T08:32:50Z</time>
      </trkpt>
      <trkpt lat="49.19614" lon="6.96112">
        <ele>332</ele>
        <time>2011-09-25T08:32:51Z</time>
      </trkpt>
      <trkpt lat="49.19614" lon="6.96114">
        <ele>332</ele>
        <time>2011-09-25T08:32:52Z</time>
      </trkpt>
      <trkpt lat="49.19614" lon="6.96116">
        <ele>332</ele>
        <time>2011-09-25T08:32:53Z</time>
      </trkpt>
      <trkpt lat="49.19615" lon="6.96118">
        <ele>332</ele>
        <time>2011-09-25T08:32:54Z</time>
      </trkpt>
      <trkpt lat="49.19615" lon="6.9612">
        <ele>332</ele>
        <time>2011-09-25T08:32:55Z</time>
      </trkpt>
      <trkpt lat="49.19615" lon="6.96122">
        <ele>332</ele>
        <time>2011-09-25T08:32:56Z</time>
      </trkpt>
      <trkpt lat="49.19615" lon="6.96124">
        <ele>332</ele>
        <time>2011-09-25T08:32:57Z</time>
      </trkpt>
      <trkpt lat="49.19615" lon="6.96125">
        <ele>332</ele>
        <time>2011-09-25T08:32:58Z</time>
      </trkpt>
      <trkpt lat="49.19616" lon="6.96127">
        <ele>332</ele>
        <time>2011-09-25T08:32:59Z</time>
      </trkpt>
      <trkpt lat="49.19616" lon="6.9613">
        <ele>332</ele>
        <time>2011-09-25T08:33:00Z</time>
      </trkpt>
      <trkpt lat="49.19616" lon="6.96132">
        <ele>332</ele>
        <time>2011-09-25T08:33:01Z</time>
      </trkpt>
      <trkpt lat="49.19616" lon="6.96134">
        <ele>332</ele>
        <time>2011-09-25T08:33:02Z</time>
      </trkpt>
      <trkpt lat="49.19617" lon="6.96136">
        <ele>332</ele>
        <time>2011-09-25T08:33:03Z</time>
      </trkpt>
      <trkpt lat="49.19617" lon="6.96137">
        <ele>332</ele>
        <time>2011-09-25T08:33:04Z</time>
      </trkpt>
      <trkpt lat="49.19617" lon="6.96139">
        <ele>332</ele>
        <time>2011-09-25T08:33:05Z</time>
      </trkpt>
      <trkpt lat="49.19618" lon="6.96141">
        <ele>332</ele>
        <time>2011-09-25T08:33:06Z</time>
      </trkpt>
      <trkpt lat="49.19618" lon="6.96143">
        <ele>332</ele>
        <time>2011-09-25T08:33:07Z</time>
      </trkpt>
      <trkpt lat="49.19618" lon="6.96145">
        <ele>332</ele>
        <time>2011-09-25T08:33:08Z</time>
      </trkpt>
      <trkpt lat="49.19619" lon="6.96147">
        <ele>332</ele>
        <time>2011-09-25T08:33:09Z</time>
      </trkpt>
      <trkpt lat="49.19619" lon="6.96149">
        <ele>332</ele>
        <time>2011-09-25T08:33:10Z</time>
      </trkpt>
      <trkpt lat="49.19619" lon="6.96151">
        <ele>332</ele>
        <time>2011-09-25T08:33:11Z</time>
      </trkpt>
      <trkpt lat="49.19619" lon="6.96152">
        <ele>332</ele>
        <time>2011-09-25T08:33:12Z</time>
      </trkpt>
      <trkpt lat="49.19619" lon="6.96154">
        <ele>332</ele>
        <time>2011-09-25T08:33:13Z</time>
      </trkpt>
      <trkpt lat="49.1962" lon="6.96156">
        <ele>332</ele>
        <time>2011-09-25T08:33:14Z</time>
      </trkpt>
      <trkpt lat="49.1962" lon="6.96158">
        <ele>332</ele>
        <time>2011-09-25T08:33:15Z</time>
      </trkpt>
      <trkpt lat="49.1962" lon="6.9616">
        <ele>332</ele>
        <time>2011-09-25T08:33:16Z</time>
      </trkpt>
      <trkpt lat="49.1962" lon="6.96162">
        <ele>332</ele>
        <time>2011-09-25T08:33:17Z</time>
      </trkpt>
      <trkpt lat="49.19621" lon="6.96163">
        <ele>332</ele>
        <time>2011-09-25T08:33:18Z</time>
      </trkpt>
      <trkpt lat="49.19621" lon="6.96165">
        <ele>332</ele>
        <time>2011-09-25T08:33:19Z</time>
      </trkpt>
      <trkpt lat="49.19621" lon="6.96167">
        <ele>332</ele>
        <time>2011-09-25T08:33:20Z</time>
      </trkpt>
      <trkpt lat="49.19621" lon="6.96169">
        <ele>332</ele>
        <time>2011-09-25T08:33:21Z</time>
      </trkpt>
      <trkpt lat="49.19621" lon="6.96171">
        <ele>332</ele>
        <time>2011-09-25T08:33:22Z</time>
      </trkpt>
      <trkpt lat="49.19622" lon="6.96172">
        <ele>332</ele>
        <time>2011-09-25T08:33:23Z</time>
      </trkpt>
      <trkpt lat="49.19622" lon="6.96174">
        <ele>332</ele>
        <time>2011-09-25T08:33:24Z</time>
      </trkpt>
      <trkpt lat="49.19622" lon="6.96176">
        <ele>332</ele>
        <time>2011-09-25T08:33:25Z</time>
      </trkpt>
      <trkpt lat="49.19622" lon="6.96178">
        <ele>332</ele>
        <time>2011-09-25T08:33:26Z</time>
      </trkpt>
      <trkpt lat="49.19622" lon="6.96179">
        <ele>332</ele>
        <time>2011-09-25T08:33:27Z</time>
      </trkpt>
      <trkpt lat="49.19623" lon="6.96181">
        <ele>332</ele>
        <time>2011-09-25T08:33:28Z</time>
      </trkpt>
      <trkpt lat="49.19623" lon="6.96183">
        <ele>332</ele>
        <time>2011-09-25T08:33:29Z</time>
      </trkpt>
      <trkpt lat="49.19624" lon="6.96185">
        <ele>332</ele>
        <time>2011-09-25T08:33:30Z</time>
      </trkpt>
      <trkpt lat="49.19624" lon="6.96187">
        <ele>332</ele>
        <time>2011-09-25T08:33:31Z</time>
      </trkpt>
      <trkpt lat="49.19624" lon="6.96189">
        <ele>332</ele>
        <time>2011-09-25T08:33:32Z</time>
      </trkpt>
      <trkpt lat="49.19624" lon="6.96191">
        <ele>332</ele>
        <time>2011-09-25T08:33:33Z</time>
      </trkpt>
      <trkpt lat="49.19624" lon="6.96192">
        <ele>331</ele>
        <time>2011-09-25T08:33:34Z</time>
      </trkpt>
      <trkpt lat="49.19625" lon="6.96194">
        <ele>331</ele>
        <time>2011-09-25T08:33:35Z</time>
      </trkpt>
      <trkpt lat="49.19625" lon="6.96196">
        <ele>331</ele>
        <time>2011-09-25T08:33:36Z</time>
      </trkpt>
      <trkpt lat="49.19625" lon="6.96198">
        <ele>331</ele>
        <time>2011-09-25T08:33:37Z</time>
      </trkpt>
      <trkpt lat="49.19625" lon="6.962">
        <ele>331</ele>
        <time>2011-09-25T08:33:38Z</time>
      </trkpt>
      <trkpt lat="49.19625" lon="6.96202">
        <ele>331</ele>
        <time>2011-09-25T08:33:39Z</time>
      </trkpt>
      <trkpt lat="49.19626" lon="6.96204">
        <ele>331</ele>
        <time>2011-09-25T08:33:40Z</time>
      </trkpt>
      <trkpt lat="49.19626" lon="6.96206">
        <ele>331</ele>
        <time>2011-09-25T08:33:41Z</time>
      </trkpt>
      <trkpt lat="49.19627" lon="6.96208">
        <ele>331</ele>
        <time>2011-09-25T08:33:42Z</time>
      </trkpt>
      <trkpt lat="49.19627" lon="6.96209">
        <ele>331</ele>
        <time>2011-09-25T08:33:43Z</time>
      </trkpt>
      <trkpt lat="49.19627" lon="6.96211">
        <ele>331</ele>
        <time>2011-09-25T08:33:44Z</time>
      </trkpt>
      <trkpt lat="49.19627" lon="6.96213">
        <ele>331</ele>
        <time>2011-09-25T08:33:45Z</time>
      </trkpt>
      <trkpt lat="49.19628" lon="6.96215">
        <ele>331</ele>
        <time>2011-09-25T08:33:46Z</time>
      </trkpt>
      <trkpt lat="49.19628" lon="6.96217">
        <ele>331</ele>
        <time>2011-09-25T08:33:47Z</time>
      </trkpt>
      <trkpt lat="49.19628" lon="6.96219">
        <ele>331</ele>
        <time>2011-09-25T08:33:48Z</time>
      </trkpt>
      <trkpt lat="49.19628" lon="6.96221">
        <ele>331</ele>
        <time>2011-09-25T08:33:49Z</time>
      </trkpt>
      <trkpt lat="49.19628" lon="6.96223">
        <ele>331</ele>
        <time>2011-09-25T08:33:50Z</time>
      </trkpt>
      <trkpt lat="49.19629" lon="6.96225">
        <ele>331</ele>
        <time>2011-09-25T08:33:51Z</time>
      </trkpt>
      <trkpt lat="49.19629" lon="6.96227">
        <ele>331</ele>
        <time>2011-09-25T08:33:52Z</time>
      </trkpt>
      <trkpt lat="49.19629" lon="6.96229">
        <ele>331</ele>
        <time>2011-09-25T08:33:53Z</time>
      </trkpt>
      <trkpt lat="49.1963" lon="6.96231">
        <ele>331</ele>
        <time>2011-09-25T08:33:54Z</time>
      </trkpt>
      <trkpt lat="49.1963" lon="6.96232">
        <ele>331</ele>
        <time>2011-09-25T08:33:55Z</time>
      </trkpt>
      <trkpt lat="49.1963" lon="6.96234">
        <ele>331</ele>
        <time>2011-09-25T08:33:56Z</time>
      </trkpt>
      <trkpt lat="49.1963" lon="6.96236">
        <ele>331</ele>
        <time>2011-09-25T08:33:57Z</time>
      </trkpt>
      <trkpt lat="49.1963" lon="6.96237">
        <ele>331</ele>
        <time>2011-09-25T08:33:58Z</time>
      </trkpt>
      <trkpt lat="49.1963" lon="6.96239">
        <ele>331</ele>
        <time>2011-09-25T08:33:59Z</time>
      </trkpt>
      <trkpt lat="49.19631" lon="6.96241">
        <ele>331</ele>
        <time>2011-09-25T08:34:00Z</time>
      </trkpt>
      <trkpt lat="49.19631" lon="6.96243">
        <ele>331</ele>
        <time>2011-09-25T08:34:01Z</time>
      </trkpt>
      <trkpt lat="49.19631" lon="6.96245">
        <ele>331</ele>
        <time>2011-09-25T08:34:02Z</time>
      </trkpt>
      <trkpt lat="49.19632" lon="6.96247">
        <ele>331</ele>
        <time>2011-09-25T08:34:03Z</time>
      </trkpt>
      <trkpt lat="49.19632" lon="6.96248">
        <ele>331</ele>
        <time>2011-09-25T08:34:04Z</time>
      </trkpt>
      <trkpt lat="49.19632" lon="6.96251">
        <ele>331</ele>
        <time>2011-09-25T08:34:06Z</time>
      </trkpt>
      <trkpt lat="49.19632" lon="6.96253">
        <ele>331</ele>
        <time>2011-09-25T08:34:07Z</time>
      </trkpt>
      <trkpt lat="49.19633" lon="6.96255">
        <ele>331</ele>
        <time>2011-09-25T08:34:08Z</time>
      </trkpt>
      <trkpt lat="49.19633" lon="6.96257">
        <ele>331</ele>
        <time>2011-09-25T08:34:09Z</time>
      </trkpt>
      <trkpt lat="49.19633" lon="6.96259">
        <ele>331</ele>
        <time>2011-09-25T08:34:10Z</time>
      </trkpt>
      <trkpt lat="49.19633" lon="6.96261">
        <ele>331</ele>
        <time>2011-09-25T08:34:11Z</time>
      </trkpt>
      <trkpt lat="49.19634" lon="6.96264">
        <ele>331</ele>
        <time>2011-09-25T08:34:13Z</time>
      </trkpt>
      <trkpt lat="49.19634" lon="6.96266">
        <ele>331</ele>
        <time>2011-09-25T08:34:14Z</time>
      </trkpt>
      <trkpt lat="49.19634" lon="6.96268">
        <ele>331</ele>
        <time>2011-09-25T08:34:15Z</time>
      </trkpt>
      <trkpt lat="49.19635" lon="6.9627">
        <ele>331</ele>
        <time>2011-09-25T08:34:16Z</time>
      </trkpt>
      <trkpt lat="49.19635" lon="6.96271">
        <ele>331</ele>
        <time>2011-09-25T08:34:17Z</time>
      </trkpt>
      <trkpt lat="49.19635" lon="6.96273">
        <ele>331</ele>
        <time>2011-09-25T08:34:18Z</time>
      </trkpt>
      <trkpt lat="49.19635" lon="6.96275">
        <ele>331</ele>
        <time>2011-09-25T08:34:19Z</time>
      </trkpt>
      <trkpt lat="49.19635" lon="6.96276">
        <ele>331</ele>
        <time>2011-09-25T08:34:20Z</time>
      </trkpt>
      <trkpt lat="49.19635" lon="6.96278">
        <ele>331</ele>
        <time>2011-09-25T08:34:21Z</time>
      </trkpt>
      <trkpt lat="49.19636" lon="6.9628">
        <ele>331</ele>
        <time>2011-09-25T08:34:22Z</time>
      </trkpt>
      <trkpt lat="49.19636" lon="6.96282">
        <ele>331</ele>
        <time>2011-09-25T08:34:23Z</time>
      </trkpt>
      <trkpt lat="49.19636" lon="6.96285">
        <ele>331</ele>
        <time>2011-09-25T08:34:25Z</time>
      </trkpt>
      <trkpt lat="49.19637" lon="6.96286">
        <ele>331</ele>
        <time>2011-09-25T08:34:47Z</time>
      </trkpt>
      <trkpt lat="49.19637" lon="6.96289">
        <ele>331</ele>
        <time>2011-09-25T08:34:50Z</time>
      </trkpt>
      <trkpt lat="49.19636" lon="6.96291">
        <ele>331</ele>
        <time>2011-09-25T08:34:52Z</time>
      </trkpt>
      <trkpt lat="49.19637" lon="6.96294">
        <ele>331</ele>
        <time>2011-09-25T08:34:54Z</time>
      </trkpt>
      <trkpt lat="49.19637" lon="6.96297">
        <ele>331</ele>
        <time>2011-09-25T08:34:56Z</time>
      </trkpt>
      <trkpt lat="49.19637" lon="6.963">
        <ele>331</ele>
        <time>2011-09-25T08:34:58Z</time>
      </trkpt>
      <trkpt lat="49.19637" lon="6.96302">
        <ele>331</ele>
        <time>2011-09-25T08:35:00Z</time>
      </trkpt>
      <trkpt lat="49.19636" lon="6.96303">
        <ele>331</ele>
        <time>2011-09-25T08:35:05Z</time>
      </trkpt>
      <trkpt lat="49.19636" lon="6.96306">
        <ele>331</ele>
        <time>2011-09-25T08:35:11Z</time>
      </trkpt>
      <trkpt lat="49.19637" lon="6.96309">
        <ele>331</ele>
        <time>2011-09-25T08:35:13Z</time>
      </trkpt>
      <trkpt lat="49.19637" lon="6.96311">
        <ele>331</ele>
        <time>2011-09-25T08:35:15Z</time>
      </trkpt>
      <trkpt lat="49.19638" lon="6.96314">
        <ele>331</ele>
        <time>2011-09-25T08:35:17Z</time>
      </trkpt>
      <trkpt lat="49.19638" lon="6.96317">
        <ele>331</ele>
        <time>2011-09-25T08:35:19Z</time>
      </trkpt>
      <trkpt lat="49.19639" lon="6.9632">
        <ele>331</ele>
        <time>2011-09-25T08:35:21Z</time>
      </trkpt>
      <trkpt lat="49.19639" lon="6.96322">
        <ele>331</ele>
        <time>2011-09-25T08:35:22Z</time>
      </trkpt>
      <trkpt lat="49.19639" lon="6.96324">
        <ele>331</ele>
        <time>2011-09-25T08:35:23Z</time>
      </trkpt>
      <trkpt lat="49.1964" lon="6.96327">
        <ele>331</ele>
        <time>2011-09-25T08:35:25Z</time>
      </trkpt>
      <trkpt lat="49.1964" lon="6.96329">
        <ele>331</ele>
        <time>2011-09-25T08:35:26Z</time>
      </trkpt>
      <trkpt lat="49.1964" lon="6.9633">
        <ele>331</ele>
        <time>2011-09-25T08:35:27Z</time>
      </trkpt>
      <trkpt lat="49.1964" lon="6.96332">
        <ele>331</ele>
        <time>2011-09-25T08:35:28Z</time>
      </trkpt>
      <trkpt lat="49.1964" lon="6.96334">
        <ele>331</ele>
        <time>2011-09-25T08:35:29Z</time>
      </trkpt>
      <trkpt lat="49.19641" lon="6.96337">
        <ele>331</ele>
        <time>2011-09-25T08:35:31Z</time>
      </trkpt>
      <trkpt lat="49.19641" lon="6.96339">
        <ele>331</ele>
        <time>2011-09-25T08:35:32Z</time>
      </trkpt>
      <trkpt lat="49.19641" lon="6.96341">
        <ele>331</ele>
        <time>2011-09-25T08:35:33Z</time>
      </trkpt>
      <trkpt lat="49.19641" lon="6.96343">
        <ele>331</ele>
        <time>2011-09-25T08:35:34Z</time>
      </trkpt>
      <trkpt lat="49.19641" lon="6.96344">
        <ele>331</ele>
        <time>2011-09-25T08:35:35Z</time>
      </trkpt>
      <trkpt lat="49.19642" lon="6.96347">
        <ele>331</ele>
        <time>2011-09-25T08:35:37Z</time>
      </trkpt>
      <trkpt lat="49.19642" lon="6.96349">
        <ele>331</ele>
        <time>2011-09-25T08:35:38Z</time>
      </trkpt>
      <trkpt lat="49.19642" lon="6.96351">
        <ele>331</ele>
        <time>2011-09-25T08:35:39Z</time>
      </trkpt>
      <trkpt lat="49.19643" lon="6.96353">
        <ele>331</ele>
        <time>2011-09-25T08:35:40Z</time>
      </trkpt>
      <trkpt lat="49.19643" lon="6.96355">
        <ele>331</ele>
        <time>2011-09-25T08:35:41Z</time>
      </trkpt>
      <trkpt lat="49.19643" lon="6.96357">
        <ele>331</ele>
        <time>2011-09-25T08:35:42Z</time>
      </trkpt>
      <trkpt lat="49.19643" lon="6.96358">
        <ele>331</ele>
        <time>2011-09-25T08:35:43Z</time>
      </trkpt>
      <trkpt lat="49.19643" lon="6.96361">
        <ele>331</ele>
        <time>2011-09-25T08:35:45Z</time>
      </trkpt>
      <trkpt lat="49.19643" lon="6.96363">
        <ele>331</ele>
        <time>2011-09-25T08:35:46Z</time>
      </trkpt>
      <trkpt lat="49.19643" lon="6.96365">
        <ele>331</ele>
        <time>2011-09-25T08:35:47Z</time>
      </trkpt>
      <trkpt lat="49.19643" lon="6.96367">
        <ele>331</ele>
        <time>2011-09-25T08:35:48Z</time>
      </trkpt>
      <trkpt lat="49.19644" lon="6.9637">
        <ele>331</ele>
        <time>2011-09-25T08:35:50Z</time>
      </trkpt>
      <trkpt lat="49.19645" lon="6.96373">
        <ele>331</ele>
        <time>2011-09-25T08:35:52Z</time>
      </trkpt>
      <trkpt lat="49.19645" lon="6.96375">
        <ele>331</ele>
        <time>2011-09-25T08:35:54Z</time>
      </trkpt>
      <trkpt lat="49.19645" lon="6.96377">
        <ele>331</ele>
        <time>2011-09-25T08:35:57Z</time>
      </trkpt>
      <trkpt lat="49.19645" lon="6.96379">
        <ele>331</ele>
        <time>2011-09-25T08:35:59Z</time>
      </trkpt>
      <trkpt lat="49.19646" lon="6.96381">
        <ele>331</ele>
        <time>2011-09-25T08:36:09Z</time>
      </trkpt>
      <trkpt lat="49.19647" lon="6.96383">
        <ele>331</ele>
        <time>2011-09-25T08:36:11Z</time>
      </trkpt>
      <trkpt lat="49.19647" lon="6.96386">
        <ele>331</ele>
        <time>2011-09-25T08:36:13Z</time>
      </trkpt>
      <trkpt lat="49.19647" lon="6.96388">
        <ele>331</ele>
        <time>2011-09-25T08:36:15Z</time>
      </trkpt>
      <trkpt lat="49.19646" lon="6.96389">
        <ele>331</ele>
        <time>2011-09-25T08:36:27Z</time>
      </trkpt>
      <trkpt lat="49.19646" lon="6.96391">
        <ele>331</ele>
        <time>2011-09-25T08:36:34Z</time>
      </trkpt>
      <trkpt lat="49.19645" lon="6.96393">
        <ele>331</ele>
        <time>2011-09-25T08:36:40Z</time>
      </trkpt>
      <trkpt lat="49.19645" lon="6.96396">
        <ele>331</ele>
        <time>2011-09-25T08:36:42Z</time>
      </trkpt>
      <trkpt lat="49.19645" lon="6.96398">
        <ele>331</ele>
        <time>2011-09-25T08:36:44Z</time>
      </trkpt>
      <trkpt lat="49.19646" lon="6.96401">
        <ele>331</ele>
        <time>2011-09-25T08:36:50Z</time>
      </trkpt>
      <trkpt lat="49.19646" lon="6.96403">
        <ele>331</ele>
        <time>2011-09-25T08:36:51Z</time>
      </trkpt>
      <trkpt lat="49.19646" lon="6.96405">
        <ele>331</ele>
        <time>2011-09-25T08:36:52Z</time>
      </trkpt>
      <trkpt lat="49.19646" lon="6.96407">
        <ele>331</ele>
        <time>2011-09-25T08:36:53Z</time>
      </trkpt>
      <trkpt lat="49.19647" lon="6.96408">
        <ele>331</ele>
        <time>2011-09-25T08:36:54Z</time>
      </trkpt>
      <trkpt lat="49.19647" lon="6.9641">
        <ele>331</ele>
        <time>2011-09-25T08:36:55Z</time>
      </trkpt>
      <trkpt lat="49.19647" lon="6.96412">
        <ele>331</ele>
        <time>2011-09-25T08:36:56Z</time>
      </trkpt>
      <trkpt lat="49.19648" lon="6.96414">
        <ele>331</ele>
        <time>2011-09-25T08:36:57Z</time>
      </trkpt>
      <trkpt lat="49.19648" lon="6.96416">
        <ele>331</ele>
        <time>2011-09-25T08:36:58Z</time>
      </trkpt>
      <trkpt lat="49.19648" lon="6.96417">
        <ele>331</ele>
        <time>2011-09-25T08:36:59Z</time>
      </trkpt>
      <trkpt lat="49.19649" lon="6.96419">
        <ele>331</ele>
        <time>2011-09-25T08:37:00Z</time>
      </trkpt>
      <trkpt lat="49.19649" lon="6.9642">
        <ele>331</ele>
        <time>2011-09-25T08:37:01Z</time>
      </trkpt>
      <trkpt lat="49.1965" lon="6.96422">
        <ele>330</ele>
        <time>2011-09-25T08:37:02Z</time>
      </trkpt>
      <trkpt lat="49.1965" lon="6.96424">
        <ele>330</ele>
        <time>2011-09-25T08:37:03Z</time>
      </trkpt>
      <trkpt lat="49.1965" lon="6.96426">
        <ele>330</ele>
        <time>2011-09-25T08:37:04Z</time>
      </trkpt>
      <trkpt lat="49.1965" lon="6.96427">
        <ele>330</ele>
        <time>2011-09-25T08:37:05Z</time>
      </trkpt>
      <trkpt lat="49.1965" lon="6.96429">
        <ele>330</ele>
        <time>2011-09-25T08:37:06Z</time>
      </trkpt>
      <trkpt lat="49.1965" lon="6.96432">
        <ele>330</ele>
        <time>2011-09-25T08:37:08Z</time>
      </trkpt>
      <trkpt lat="49.1965" lon="6.96434">
        <ele>330</ele>
        <time>2011-09-25T08:37:09Z</time>
      </trkpt>
      <trkpt lat="49.1965" lon="6.96436">
        <ele>330</ele>
        <time>2011-09-25T08:37:10Z</time>
      </trkpt>
      <trkpt lat="49.1965" lon="6.96439">
        <ele>330</ele>
        <time>2011-09-25T08:37:12Z</time>
      </trkpt>
      <trkpt lat="49.1965" lon="6.96442">
        <ele>329</ele>
        <time>2011-09-25T08:37:14Z</time>
      </trkpt>
      <trkpt lat="49.1965" lon="6.96445">
        <ele>329</ele>
        <time>2011-09-25T08:37:16Z</time>
      </trkpt>
      <trkpt lat="49.1965" lon="6.96447">
        <ele>329</ele>
        <time>2011-09-25T08:37:17Z</time>
      </trkpt>
      <trkpt lat="49.1965" lon="6.9645">
        <ele>329</ele>
        <time>2011-09-25T08:37:19Z</time>
      </trkpt>
      <trkpt lat="49.1965" lon="6.96451">
        <ele>329</ele>
        <time>2011-09-25T08:37:20Z</time>
      </trkpt>
      <trkpt lat="49.1965" lon="6.96453">
        <ele>329</ele>
        <time>2011-09-25T08:37:21Z</time>
      </trkpt>
      <trkpt lat="49.1965" lon="6.96455">
        <ele>329</ele>
        <time>2011-09-25T08:37:22Z</time>
      </trkpt>
      <trkpt lat="49.1965" lon="6.96456">
        <ele>329</ele>
        <time>2011-09-25T08:37:23Z</time>
      </trkpt>
      <trkpt lat="49.1965" lon="6.96459">
        <ele>329</ele>
        <time>2011-09-25T08:37:25Z</time>
      </trkpt>
      <trkpt lat="49.1965" lon="6.96461">
        <ele>329</ele>
        <time>2011-09-25T08:37:26Z</time>
      </trkpt>
      <trkpt lat="49.1965" lon="6.96464">
        <ele>329</ele>
        <time>2011-09-25T08:37:28Z</time>
      </trkpt>
      <trkpt lat="49.1965" lon="6.96466">
        <ele>329</ele>
        <time>2011-09-25T08:37:29Z</time>
      </trkpt>
      <trkpt lat="49.1965" lon="6.96468">
        <ele>329</ele>
        <time>2011-09-25T08:37:30Z</time>
      </trkpt>
      <trkpt lat="49.1965" lon="6.96471">
        <ele>329</ele>
        <time>2011-09-25T08:37:32Z</time>
      </trkpt>
      <trkpt lat="49.19651" lon="6.96473">
        <ele>329</ele>
        <time>2011-09-25T08:37:33Z</time>
      </trkpt>
      <trkpt lat="49.19651" lon="6.96474">
        <ele>329</ele>
        <time>2011-09-25T08:37:34Z</time>
      </trkpt>
      <trkpt lat="49.19651" lon="6.96476">
        <ele>329</ele>
        <time>2011-09-25T08:37:35Z</time>
      </trkpt>
      <trkpt lat="49.19651" lon="6.96478">
        <ele>329</ele>
        <time>2011-09-25T08:37:36Z</time>
      </trkpt>
      <trkpt lat="49.19651" lon="6.96481">
        <ele>329</ele>
        <time>2011-09-25T08:37:38Z</time>
      </trkpt>
      <trkpt lat="49.19651" lon="6.96484">
        <ele>329</ele>
        <time>2011-09-25T08:37:40Z</time>
      </trkpt>
      <trkpt lat="49.19652" lon="6.96487">
        <ele>329</ele>
        <time>2011-09-25T08:37:42Z</time>
      </trkpt>
      <trkpt lat="49.19652" lon="6.96489">
        <ele>329</ele>
        <time>2011-09-25T08:37:43Z</time>
      </trkpt>
      <trkpt lat="49.19652" lon="6.9649">
        <ele>329</ele>
        <time>2011-09-25T08:37:44Z</time>
      </trkpt>
      <trkpt lat="49.19652" lon="6.96492">
        <ele>329</ele>
        <time>2011-09-25T08:37:45Z</time>
      </trkpt>
      <trkpt lat="49.19652" lon="6.96495">
        <ele>329</ele>
        <time>2011-09-25T08:37:47Z</time>
      </trkpt>
      <trkpt lat="49.19653" lon="6.96497">
        <ele>329</ele>
        <time>2011-09-25T08:37:48Z</time>
      </trkpt>
      <trkpt lat="49.19653" lon="6.96499">
        <ele>329</ele>
        <time>2011-09-25T08:37:49Z</time>
      </trkpt>
      <trkpt lat="49.19653" lon="6.965">
        <ele>329</ele>
        <time>2011-09-25T08:37:50Z</time>
      </trkpt>
      <trkpt lat="49.19653" lon="6.96502">
        <ele>329</ele>
        <time>2011-09-25T08:37:51Z</time>
      </trkpt>
      <trkpt lat="49.19653" lon="6.96505">
        <ele>328</ele>
        <time>2011-09-25T08:37:53Z</time>
      </trkpt>
      <trkpt lat="49.19653" lon="6.96507">
        <ele>328</ele>
        <time>2011-09-25T08:37:54Z</time>
      </trkpt>
      <trkpt lat="49.19653" lon="6.96509">
        <ele>328</ele>
        <time>2011-09-25T08:37:55Z</time>
      </trkpt>
      <trkpt lat="49.19653" lon="6.96511">
        <ele>328</ele>
        <time>2011-09-25T08:37:56Z</time>
      </trkpt>
      <trkpt lat="49.19654" lon="6.96513">
        <ele>328</ele>
        <time>2011-09-25T08:37:57Z</time>
      </trkpt>
      <trkpt lat="49.19654" lon="6.96516">
        <ele>328</ele>
        <time>2011-09-25T08:37:59Z</time>
      </trkpt>
      <trkpt lat="49.19654" lon="6.96518">
        <ele>328</ele>
        <time>2011-09-25T08:38:00Z</time>
      </trkpt>
      <trkpt lat="49.19654" lon="6.96519">
        <ele>328</ele>
        <time>2011-09-25T08:38:01Z</time>
      </trkpt>
      <trkpt lat="49.19654" lon="6.96522">
        <ele>328</ele>
        <time>2011-09-25T08:38:03Z</time>
      </trkpt>
      <trkpt lat="49.19653" lon="6.96524">
        <ele>328</ele>
        <time>2011-09-25T08:38:05Z</time>
      </trkpt>
      <trkpt lat="49.19654" lon="6.96526">
        <ele>328</ele>
        <time>2011-09-25T08:38:07Z</time>
      </trkpt>
      <trkpt lat="49.19654" lon="6.96529">
        <ele>328</ele>
        <time>2011-09-25T08:38:09Z</time>
      </trkpt>
      <trkpt lat="49.19655" lon="6.96531">
        <ele>328</ele>
        <time>2011-09-25T08:38:10Z</time>
      </trkpt>
      <trkpt lat="49.19655" lon="6.96533">
        <ele>328</ele>
        <time>2011-09-25T08:38:11Z</time>
      </trkpt>
      <trkpt lat="49.19655" lon="6.96535">
        <ele>328</ele>
        <time>2011-09-25T08:38:12Z</time>
      </trkpt>
      <trkpt lat="49.19655" lon="6.96537">
        <ele>328</ele>
        <time>2011-09-25T08:38:13Z</time>
      </trkpt>
      <trkpt lat="49.19656" lon="6.96539">
        <ele>328</ele>
        <time>2011-09-25T08:38:14Z</time>
      </trkpt>
      <trkpt lat="49.19656" lon="6.96541">
        <ele>328</ele>
        <time>2011-09-25T08:38:15Z</time>
      </trkpt>
      <trkpt lat="49.19656" lon="6.96543">
        <ele>328</ele>
        <time>2011-09-25T08:38:16Z</time>
      </trkpt>
      <trkpt lat="49.19656" lon="6.96545">
        <ele>327</ele>
        <time>2011-09-25T08:38:17Z</time>
      </trkpt>
      <trkpt lat="49.19656" lon="6.96547">
        <ele>327</ele>
        <time>2011-09-25T08:38:18Z</time>
      </trkpt>
      <trkpt lat="49.19656" lon="6.96549">
        <ele>327</ele>
        <time>2011-09-25T08:38:19Z</time>
      </trkpt>
      <trkpt lat="49.19656" lon="6.96551">
        <ele>327</ele>
        <time>2011-09-25T08:38:20Z</time>
      </trkpt>
      <trkpt lat="49.19656" lon="6.96553">
        <ele>327</ele>
        <time>2011-09-25T08:38:21Z</time>
      </trkpt>
      <trkpt lat="49.19656" lon="6.96555">
        <ele>327</ele>
        <time>2011-09-25T08:38:22Z</time>
      </trkpt>
      <trkpt lat="49.19656" lon="6.96557">
        <ele>327</ele>
        <time>2011-09-25T08:38:23Z</time>
      </trkpt>
      <trkpt lat="49.19656" lon="6.96559">
        <ele>327</ele>
        <time>2011-09-25T08:38:24Z</time>
      </trkpt>
      <trkpt lat="49.19656" lon="6.9656">
        <ele>327</ele>
        <time>2011-09-25T08:38:25Z</time>
      </trkpt>
      <trkpt lat="49.19656" lon="6.96562">
        <ele>327</ele>
        <time>2011-09-25T08:38:26Z</time>
      </trkpt>
      <trkpt lat="49.19657" lon="6.96564">
        <ele>327</ele>
        <time>2011-09-25T08:38:27Z</time>
      </trkpt>
      <trkpt lat="49.19657" lon="6.96566">
        <ele>327</ele>
        <time>2011-09-25T08:38:28Z</time>
      </trkpt>
      <trkpt lat="49.19657" lon="6.96568">
        <ele>326</ele>
        <time>2011-09-25T08:38:29Z</time>
      </trkpt>
      <trkpt lat="49.19657" lon="6.9657">
        <ele>326</ele>
        <time>2011-09-25T08:38:30Z</time>
      </trkpt>
      <trkpt lat="49.19657" lon="6.96572">
        <ele>326</ele>
        <time>2011-09-25T08:38:31Z</time>
      </trkpt>
      <trkpt lat="49.19657" lon="6.96574">
        <ele>326</ele>
        <time>2011-09-25T08:38:32Z</time>
      </trkpt>
      <trkpt lat="49.19658" lon="6.96575">
        <ele>326</ele>
        <time>2011-09-25T08:38:33Z</time>
      </trkpt>
      <trkpt lat="49.19658" lon="6.96577">
        <ele>326</ele>
        <time>2011-09-25T08:38:34Z</time>
      </trkpt>
      <trkpt lat="49.19658" lon="6.96579">
        <ele>326</ele>
        <time>2011-09-25T08:38:35Z</time>
      </trkpt>
      <trkpt lat="49.19658" lon="6.96581">
        <ele>326</ele>
        <time>2011-09-25T08:38:36Z</time>
      </trkpt>
      <trkpt lat="49.19658" lon="6.96583">
        <ele>326</ele>
        <time>2011-09-25T08:38:37Z</time>
      </trkpt>
      <trkpt lat="49.19658" lon="6.96584">
        <ele>326</ele>
        <time>2011-09-25T08:38:38Z</time>
      </trkpt>
      <trkpt lat="49.19658" lon="6.96588">
        <ele>326</ele>
        <time>2011-09-25T08:38:40Z</time>
      </trkpt>
      <trkpt lat="49.19658" lon="6.96589">
        <ele>326</ele>
        <time>2011-09-25T08:38:41Z</time>
      </trkpt>
      <trkpt lat="49.19659" lon="6.96591">
        <ele>326</ele>
        <time>2011-09-25T08:38:42Z</time>
      </trkpt>
      <trkpt lat="49.19659" lon="6.96593">
        <ele>326</ele>
        <time>2011-09-25T08:38:43Z</time>
      </trkpt>
      <trkpt lat="49.19658" lon="6.96596">
        <ele>326</ele>
        <time>2011-09-25T08:38:45Z</time>
      </trkpt>
      <trkpt lat="49.19658" lon="6.96599">
        <ele>326</ele>
        <time>2011-09-25T08:38:47Z</time>
      </trkpt>
      <trkpt lat="49.19658" lon="6.96601">
        <ele>326</ele>
        <time>2011-09-25T08:38:48Z</time>
      </trkpt>
      <trkpt lat="49.19658" lon="6.96603">
        <ele>326</ele>
        <time>2011-09-25T08:38:49Z</time>
      </trkpt>
      <trkpt lat="49.19658" lon="6.96605">
        <ele>326</ele>
        <time>2011-09-25T08:38:50Z</time>
      </trkpt>
      <trkpt lat="49.19658" lon="6.96608">
        <ele>326</ele>
        <time>2011-09-25T08:38:52Z</time>
      </trkpt>
      <trkpt lat="49.19658" lon="6.96609">
        <ele>326</ele>
        <time>2011-09-25T08:38:53Z</time>
      </trkpt>
      <trkpt lat="49.19658" lon="6.96611">
        <ele>326</ele>
        <time>2011-09-25T08:38:54Z</time>
      </trkpt>
      <trkpt lat="49.19657" lon="6.96613">
        <ele>326</ele>
        <time>2011-09-25T08:38:55Z</time>
      </trkpt>
      <trkpt lat="49.19657" lon="6.96615">
        <ele>326</ele>
        <time>2011-09-25T08:38:56Z</time>
      </trkpt>
      <trkpt lat="49.19657" lon="6.96617">
        <ele>325</ele>
        <time>2011-09-25T08:38:57Z</time>
      </trkpt>
      <trkpt lat="49.19657" lon="6.96619">
        <ele>325</ele>
        <time>2011-09-25T08:38:58Z</time>
      </trkpt>
      <trkpt lat="49.19656" lon="6.9662">
        <ele>325</ele>
        <time>2011-09-25T08:38:59Z</time>
      </trkpt>
      <trkpt lat="49.19656" lon="6.96622">
        <ele>325</ele>
        <time>2011-09-25T08:39:00Z</time>
      </trkpt>
      <trkpt lat="49.19656" lon="6.96624">
        <ele>325</ele>
        <time>2011-09-25T08:39:01Z</time>
      </trkpt>
      <trkpt lat="49.19656" lon="6.96626">
        <ele>325</ele>
        <time>2011-09-25T08:39:02Z</time>
      </trkpt>
      <trkpt lat="49.19655" lon="6.96628">
        <ele>325</ele>
        <time>2011-09-25T08:39:03Z</time>
      </trkpt>
      <trkpt lat="49.19655" lon="6.96629">
        <ele>325</ele>
        <time>2011-09-25T08:39:04Z</time>
      </trkpt>
      <trkpt lat="49.19654" lon="6.96632">
        <ele>325</ele>
        <time>2011-09-25T08:39:06Z</time>
      </trkpt>
      <trkpt lat="49.19654" lon="6.96634">
        <ele>324</ele>
        <time>2011-09-25T08:39:07Z</time>
      </trkpt>
      <trkpt lat="49.19653" lon="6.96637">
        <ele>324</ele>
        <time>2011-09-25T08:39:09Z</time>
      </trkpt>
      <trkpt lat="49.19652" lon="6.96639">
        <ele>324</ele>
        <time>2011-09-25T08:39:10Z</time>
      </trkpt>
      <trkpt lat="49.19652" lon="6.96641">
        <ele>324</ele>
        <time>2011-09-25T08:39:11Z</time>
      </trkpt>
      <trkpt lat="49.19652" lon="6.96642">
        <ele>324</ele>
        <time>2011-09-25T08:39:12Z</time>
      </trkpt>
      <trkpt lat="49.19652" lon="6.96644">
        <ele>324</ele>
        <time>2011-09-25T08:39:13Z</time>
      </trkpt>
      <trkpt lat="49.19651" lon="6.96646">
        <ele>323</ele>
        <time>2011-09-25T08:39:14Z</time>
      </trkpt>
      <trkpt lat="49.19651" lon="6.96648">
        <ele>323</ele>
        <time>2011-09-25T08:39:15Z</time>
      </trkpt>
      <trkpt lat="49.19651" lon="6.96649">
        <ele>323</ele>
        <time>2011-09-25T08:39:16Z</time>
      </trkpt>
      <trkpt lat="49.19651" lon="6.96651">
        <ele>323</ele>
        <time>2011-09-25T08:39:17Z</time>
      </trkpt>
      <trkpt lat="49.1965" lon="6.96653">
        <ele>323</ele>
        <time>2011-09-25T08:39:18Z</time>
      </trkpt>
      <trkpt lat="49.19649" lon="6.96655">
        <ele>323</ele>
        <time>2011-09-25T08:39:19Z</time>
      </trkpt>
      <trkpt lat="49.19648" lon="6.96658">
        <ele>323</ele>
        <time>2011-09-25T08:39:21Z</time>
      </trkpt>
      <trkpt lat="49.19648" lon="6.9666">
        <ele>323</ele>
        <time>2011-09-25T08:39:22Z</time>
      </trkpt>
      <trkpt lat="49.19648" lon="6.96662">
        <ele>323</ele>
        <time>2011-09-25T08:39:23Z</time>
      </trkpt>
      <trkpt lat="49.19647" lon="6.96663">
        <ele>323</ele>
        <time>2011-09-25T08:39:24Z</time>
      </trkpt>
      <trkpt lat="49.19647" lon="6.96665">
        <ele>323</ele>
        <time>2011-09-25T08:39:25Z</time>
      </trkpt>
      <trkpt lat="49.19646" lon="6.96667">
        <ele>323</ele>
        <time>2011-09-25T08:39:26Z</time>
      </trkpt>
      <trkpt lat="49.19646" lon="6.96669">
        <ele>323</ele>
        <time>2011-09-25T08:39:27Z</time>
      </trkpt>
      <trkpt lat="49.19645" lon="6.96671">
        <ele>323</ele>
        <time>2011-09-25T08:39:28Z</time>
      </trkpt>
      <trkpt lat="49.19645" lon="6.96673">
        <ele>323</ele>
        <time>2011-09-25T08:39:29Z</time>
      </trkpt>
      <trkpt lat="49.19644" lon="6.96674">
        <ele>323</ele>
        <time>2011-09-25T08:39:30Z</time>
      </trkpt>
      <trkpt lat="49.19643" lon="6.96678">
        <ele>323</ele>
        <time>2011-09-25T08:39:32Z</time>
      </trkpt>
      <trkpt lat="49.19643" lon="6.96679">
        <ele>323</ele>
        <time>2011-09-25T08:39:33Z</time>
      </trkpt>
      <trkpt lat="49.19643" lon="6.96681">
        <ele>323</ele>
        <time>2011-09-25T08:39:34Z</time>
      </trkpt>
      <trkpt lat="49.19642" lon="6.96683">
        <ele>323</ele>
        <time>2011-09-25T08:39:35Z</time>
      </trkpt>
      <trkpt lat="49.19641" lon="6.96685">
        <ele>323</ele>
        <time>2011-09-25T08:39:36Z</time>
      </trkpt>
      <trkpt lat="49.19641" lon="6.96687">
        <ele>323</ele>
        <time>2011-09-25T08:39:37Z</time>
      </trkpt>
      <trkpt lat="49.19641" lon="6.96688">
        <ele>323</ele>
        <time>2011-09-25T08:39:38Z</time>
      </trkpt>
      <trkpt lat="49.1964" lon="6.9669">
        <ele>322</ele>
        <time>2011-09-25T08:39:39Z</time>
      </trkpt>
      <trkpt lat="49.1964" lon="6.96692">
        <ele>322</ele>
        <time>2011-09-25T08:39:40Z</time>
      </trkpt>
      <trkpt lat="49.19639" lon="6.96694">
        <ele>322</ele>
        <time>2011-09-25T08:39:41Z</time>
      </trkpt>
      <trkpt lat="49.19638" lon="6.96697">
        <ele>322</ele>
        <time>2011-09-25T08:39:43Z</time>
      </trkpt>
      <trkpt lat="49.19638" lon="6.96699">
        <ele>322</ele>
        <time>2011-09-25T08:39:44Z</time>
      </trkpt>
      <trkpt lat="49.19637" lon="6.96701">
        <ele>322</ele>
        <time>2011-09-25T08:39:45Z</time>
      </trkpt>
      <trkpt lat="49.19637" lon="6.96703">
        <ele>322</ele>
        <time>2011-09-25T08:39:46Z</time>
      </trkpt>
      <trkpt lat="49.19636" lon="6.96704">
        <ele>322</ele>
        <time>2011-09-25T08:39:47Z</time>
      </trkpt>
      <trkpt lat="49.19635" lon="6.96706">
        <ele>322</ele>
        <time>2011-09-25T08:39:48Z</time>
      </trkpt>
      <trkpt lat="49.19635" lon="6.96708">
        <ele>322</ele>
        <time>2011-09-25T08:39:49Z</time>
      </trkpt>
      <trkpt lat="49.19634" lon="6.9671">
        <ele>322</ele>
        <time>2011-09-25T08:39:50Z</time>
      </trkpt>
      <trkpt lat="49.19634" lon="6.96711">
        <ele>322</ele>
        <time>2011-09-25T08:39:51Z</time>
      </trkpt>
      <trkpt lat="49.19633" lon="6.96713">
        <ele>322</ele>
        <time>2011-09-25T08:39:52Z</time>
      </trkpt>
      <trkpt lat="49.19632" lon="6.96716">
        <ele>322</ele>
        <time>2011-09-25T08:39:54Z</time>
      </trkpt>
      <trkpt lat="49.19632" lon="6.96718">
        <ele>322</ele>
        <time>2011-09-25T08:39:55Z</time>
      </trkpt>
      <trkpt lat="49.1963" lon="6.96721">
        <ele>322</ele>
        <time>2011-09-25T08:39:57Z</time>
      </trkpt>
      <trkpt lat="49.19629" lon="6.96723">
        <ele>322</ele>
        <time>2011-09-25T08:39:59Z</time>
      </trkpt>
      <trkpt lat="49.19627" lon="6.96726">
        <ele>321</ele>
        <time>2011-09-25T08:40:01Z</time>
      </trkpt>
      <trkpt lat="49.19625" lon="6.96729">
        <ele>321</ele>
        <time>2011-09-25T08:40:03Z</time>
      </trkpt>
      <trkpt lat="49.19624" lon="6.9673">
        <ele>321</ele>
        <time>2011-09-25T08:40:04Z</time>
      </trkpt>
      <trkpt lat="49.19622" lon="6.96733">
        <ele>320</ele>
        <time>2011-09-25T08:40:06Z</time>
      </trkpt>
      <trkpt lat="49.1962" lon="6.96735">
        <ele>320</ele>
        <time>2011-09-25T08:40:08Z</time>
      </trkpt>
      <trkpt lat="49.19617" lon="6.96737">
        <ele>319</ele>
        <time>2011-09-25T08:40:10Z</time>
      </trkpt>
      <trkpt lat="49.19616" lon="6.96739">
        <ele>319</ele>
        <time>2011-09-25T08:40:12Z</time>
      </trkpt>
      <trkpt lat="49.19614" lon="6.96742">
        <ele>319</ele>
        <time>2011-09-25T08:40:14Z</time>
      </trkpt>
      <trkpt lat="49.19611" lon="6.96743">
        <ele>318</ele>
        <time>2011-09-25T08:40:16Z</time>
      </trkpt>
      <trkpt lat="49.1961" lon="6.96743">
        <ele>318</ele>
        <time>2011-09-25T08:40:17Z</time>
      </trkpt>
      <trkpt lat="49.19609" lon="6.96744">
        <ele>318</ele>
        <time>2011-09-25T08:40:18Z</time>
      </trkpt>
      <trkpt lat="49.19608" lon="6.96744">
        <ele>318</ele>
        <time>2011-09-25T08:40:19Z</time>
      </trkpt>
      <trkpt lat="49.19606" lon="6.96746">
        <ele>317</ele>
        <time>2011-09-25T08:40:21Z</time>
      </trkpt>
      <trkpt lat="49.19603" lon="6.96747">
        <ele>317</ele>
        <time>2011-09-25T08:40:23Z</time>
      </trkpt>
      <trkpt lat="49.19602" lon="6.96747">
        <ele>317</ele>
        <time>2011-09-25T08:40:24Z</time>
      </trkpt>
      <trkpt lat="49.19601" lon="6.96747">
        <ele>316</ele>
        <time>2011-09-25T08:40:25Z</time>
      </trkpt>
      <trkpt lat="49.19599" lon="6.96748">
        <ele>316</ele>
        <time>2011-09-25T08:40:27Z</time>
      </trkpt>
      <trkpt lat="49.19598" lon="6.96748">
        <ele>316</ele>
        <time>2011-09-25T08:40:28Z</time>
      </trkpt>
      <trkpt lat="49.19596" lon="6.96749">
        <ele>316</ele>
        <time>2011-09-25T08:40:29Z</time>
      </trkpt>
      <trkpt lat="49.19595" lon="6.96749">
        <ele>316</ele>
        <time>2011-09-25T08:40:30Z</time>
      </trkpt>
      <trkpt lat="49.19594" lon="6.9675">
        <ele>316</ele>
        <time>2011-09-25T08:40:31Z</time>
      </trkpt>
      <trkpt lat="49.19593" lon="6.9675">
        <ele>316</ele>
        <time>2011-09-25T08:40:32Z</time>
      </trkpt>
      <trkpt lat="49.1959" lon="6.9675">
        <ele>316</ele>
        <time>2011-09-25T08:40:34Z</time>
      </trkpt>
      <trkpt lat="49.19588" lon="6.96751">
        <ele>316</ele>
        <time>2011-09-25T08:40:36Z</time>
      </trkpt>
      <trkpt lat="49.19587" lon="6.96751">
        <ele>316</ele>
        <time>2011-09-25T08:40:37Z</time>
      </trkpt>
      <trkpt lat="49.19585" lon="6.96752">
        <ele>315</ele>
        <time>2011-09-25T08:40:39Z</time>
      </trkpt>
      <trkpt lat="49.19583" lon="6.96752">
        <ele>315</ele>
        <time>2011-09-25T08:40:40Z</time>
      </trkpt>
      <trkpt lat="49.19582" lon="6.96752">
        <ele>315</ele>
        <time>2011-09-25T08:40:41Z</time>
      </trkpt>
      <trkpt lat="49.1958" lon="6.96752">
        <ele>315</ele>
        <time>2011-09-25T08:40:42Z</time>
      </trkpt>
      <trkpt lat="49.19579" lon="6.96752">
        <ele>315</ele>
        <time>2011-09-25T08:40:43Z</time>
      </trkpt>
      <trkpt lat="49.19577" lon="6.96752">
        <ele>315</ele>
        <time>2011-09-25T08:40:44Z</time>
      </trkpt>
      <trkpt lat="49.19576" lon="6.96752">
        <ele>315</ele>
        <time>2011-09-25T08:40:45Z</time>
      </trkpt>
      <trkpt lat="49.19575" lon="6.96753">
        <ele>315</ele>
        <time>2011-09-25T08:40:46Z</time>
      </trkpt>
      <trkpt lat="49.19574" lon="6.96753">
        <ele>315</ele>
        <time>2011-09-25T08:40:47Z</time>
      </trkpt>
      <trkpt lat="49.19572" lon="6.96753">
        <ele>315</ele>
        <time>2011-09-25T08:40:48Z</time>
      </trkpt>
      <trkpt lat="49.19571" lon="6.96753">
        <ele>315</ele>
        <time>2011-09-25T08:40:49Z</time>
      </trkpt>
      <trkpt lat="49.1957" lon="6.96754">
        <ele>315</ele>
        <time>2011-09-25T08:40:50Z</time>
      </trkpt>
      <trkpt lat="49.19568" lon="6.96754">
        <ele>315</ele>
        <time>2011-09-25T08:40:51Z</time>
      </trkpt>
      <trkpt lat="49.19567" lon="6.96754">
        <ele>315</ele>
        <time>2011-09-25T08:40:52Z</time>
      </trkpt>
      <trkpt lat="49.19566" lon="6.96754">
        <ele>315</ele>
        <time>2011-09-25T08:40:53Z</time>
      </trkpt>
      <trkpt lat="49.19564" lon="6.96754">
        <ele>315</ele>
        <time>2011-09-25T08:40:54Z</time>
      </trkpt>
      <trkpt lat="49.19563" lon="6.96754">
        <ele>315</ele>
        <time>2011-09-25T08:40:55Z</time>
      </trkpt>
      <trkpt lat="49.19561" lon="6.96754">
        <ele>315</ele>
        <time>2011-09-25T08:40:56Z</time>
      </trkpt>
      <trkpt lat="49.1956" lon="6.96755">
        <ele>315</ele>
        <time>2011-09-25T08:40:57Z</time>
      </trkpt>
      <trkpt lat="49.19558" lon="6.96755">
        <ele>315</ele>
        <time>2011-09-25T08:40:58Z</time>
      </trkpt>
      <trkpt lat="49.19557" lon="6.96755">
        <ele>315</ele>
        <time>2011-09-25T08:40:59Z</time>
      </trkpt>
      <trkpt lat="49.19556" lon="6.96755">
        <ele>315</ele>
        <time>2011-09-25T08:41:00Z</time>
      </trkpt>
      <trkpt lat="49.19555" lon="6.96755">
        <ele>315</ele>
        <time>2011-09-25T08:41:01Z</time>
      </trkpt>
      <trkpt lat="49.19553" lon="6.96756">
        <ele>315</ele>
        <time>2011-09-25T08:41:02Z</time>
      </trkpt>
      <trkpt lat="49.19552" lon="6.96756">
        <ele>315</ele>
        <time>2011-09-25T08:41:03Z</time>
      </trkpt>
      <trkpt lat="49.1955" lon="6.96756">
        <ele>315</ele>
        <time>2011-09-25T08:41:04Z</time>
      </trkpt>
      <trkpt lat="49.19549" lon="6.96756">
        <ele>315</ele>
        <time>2011-09-25T08:41:05Z</time>
      </trkpt>
      <trkpt lat="49.19548" lon="6.96757">
        <ele>315</ele>
        <time>2011-09-25T08:41:06Z</time>
      </trkpt>
      <trkpt lat="49.19546" lon="6.96757">
        <ele>315</ele>
        <time>2011-09-25T08:41:07Z</time>
      </trkpt>
      <trkpt lat="49.19545" lon="6.96757">
        <ele>315</ele>
        <time>2011-09-25T08:41:09Z</time>
      </trkpt>
      <trkpt lat="49.19543" lon="6.96758">
        <ele>315</ele>
        <time>2011-09-25T08:41:25Z</time>
      </trkpt>
      <trkpt lat="49.19542" lon="6.96757">
        <ele>315</ele>
        <time>2011-09-25T08:41:31Z</time>
      </trkpt>
      <trkpt lat="49.19541" lon="6.96758">
        <ele>315</ele>
        <time>2011-09-25T08:41:37Z</time>
      </trkpt>
      <trkpt lat="49.1954" lon="6.96758">
        <ele>315</ele>
        <time>2011-09-25T08:41:39Z</time>
      </trkpt>
      <trkpt lat="49.19538" lon="6.96758">
        <ele>315</ele>
        <time>2011-09-25T08:41:41Z</time>
      </trkpt>
      <trkpt lat="49.19536" lon="6.96758">
        <ele>315</ele>
        <time>2011-09-25T08:41:43Z</time>
      </trkpt>
      <trkpt lat="49.19534" lon="6.96758">
        <ele>315</ele>
        <time>2011-09-25T08:41:45Z</time>
      </trkpt>
      <trkpt lat="49.19533" lon="6.96758">
        <ele>315</ele>
        <time>2011-09-25T08:41:47Z</time>
      </trkpt>
      <trkpt lat="49.19532" lon="6.96756">
        <ele>315</ele>
        <time>2011-09-25T08:41:59Z</time>
      </trkpt>
      <trkpt lat="49.19533" lon="6.96756">
        <ele>315</ele>
        <time>2011-09-25T08:42:20Z</time>
      </trkpt>
      <trkpt lat="49.19532" lon="6.96757">
        <ele>315</ele>
        <time>2011-09-25T08:42:44Z</time>
      </trkpt>
      <trkpt lat="49.19531" lon="6.96756">
        <ele>315</ele>
        <time>2011-09-25T08:42:49Z</time>
      </trkpt>
      <trkpt lat="49.1953" lon="6.96755">
        <ele>315</ele>
        <time>2011-09-25T08:42:52Z</time>
      </trkpt>
      <trkpt lat="49.19528" lon="6.96756">
        <ele>315</ele>
        <time>2011-09-25T08:42:54Z</time>
      </trkpt>
      <trkpt lat="49.19526" lon="6.96756">
        <ele>315</ele>
        <time>2011-09-25T08:42:56Z</time>
      </trkpt>
      <trkpt lat="49.19525" lon="6.96756">
        <ele>316</ele>
        <time>2011-09-25T08:42:57Z</time>
      </trkpt>
      <trkpt lat="49.19523" lon="6.96757">
        <ele>316</ele>
        <time>2011-09-25T08:42:59Z</time>
      </trkpt>
      <trkpt lat="49.19521" lon="6.96756">
        <ele>316</ele>
        <time>2011-09-25T08:43:01Z</time>
      </trkpt>
      <trkpt lat="49.1952" lon="6.96756">
        <ele>316</ele>
        <time>2011-09-25T08:43:03Z</time>
      </trkpt>
      <trkpt lat="49.19518" lon="6.96757">
        <ele>316</ele>
        <time>2011-09-25T08:43:05Z</time>
      </trkpt>
      <trkpt lat="49.19517" lon="6.96758">
        <ele>316</ele>
        <time>2011-09-25T08:43:06Z</time>
      </trkpt>
      <trkpt lat="49.19515" lon="6.96757">
        <ele>316</ele>
        <time>2011-09-25T08:43:08Z</time>
      </trkpt>
      <trkpt lat="49.19513" lon="6.96758">
        <ele>316</ele>
        <time>2011-09-25T08:43:09Z</time>
      </trkpt>
      <trkpt lat="49.19511" lon="6.96758">
        <ele>316</ele>
        <time>2011-09-25T08:43:11Z</time>
      </trkpt>
      <trkpt lat="49.1951" lon="6.96758">
        <ele>316</ele>
        <time>2011-09-25T08:43:12Z</time>
      </trkpt>
      <trkpt lat="49.19509" lon="6.96758">
        <ele>316</ele>
        <time>2011-09-25T08:43:13Z</time>
      </trkpt>
      <trkpt lat="49.19508" lon="6.96757">
        <ele>316</ele>
        <time>2011-09-25T08:43:14Z</time>
      </trkpt>
      <trkpt lat="49.19505" lon="6.96757">
        <ele>316</ele>
        <time>2011-09-25T08:43:16Z</time>
      </trkpt>
      <trkpt lat="49.19504" lon="6.96757">
        <ele>316</ele>
        <time>2011-09-25T08:43:17Z</time>
      </trkpt>
      <trkpt lat="49.19503" lon="6.96757">
        <ele>316</ele>
        <time>2011-09-25T08:43:18Z</time>
      </trkpt>
      <trkpt lat="49.19501" lon="6.96757">
        <ele>316</ele>
        <time>2011-09-25T08:43:19Z</time>
      </trkpt>
      <trkpt lat="49.195" lon="6.96757">
        <ele>316</ele>
        <time>2011-09-25T08:43:20Z</time>
      </trkpt>
      <trkpt lat="49.19499" lon="6.96757">
        <ele>316</ele>
        <time>2011-09-25T08:43:21Z</time>
      </trkpt>
      <trkpt lat="49.19498" lon="6.96756">
        <ele>316</ele>
        <time>2011-09-25T08:43:22Z</time>
      </trkpt>
      <trkpt lat="49.19497" lon="6.96756">
        <ele>316</ele>
        <time>2011-09-25T08:43:23Z</time>
      </trkpt>
      <trkpt lat="49.19495" lon="6.96755">
        <ele>316</ele>
        <time>2011-09-25T08:43:25Z</time>
      </trkpt>
      <trkpt lat="49.19493" lon="6.96755">
        <ele>316</ele>
        <time>2011-09-25T08:43:26Z</time>
      </trkpt>
      <trkpt lat="49.19491" lon="6.96754">
        <ele>316</ele>
        <time>2011-09-25T08:43:28Z</time>
      </trkpt>
      <trkpt lat="49.19489" lon="6.96753">
        <ele>316</ele>
        <time>2011-09-25T08:43:30Z</time>
      </trkpt>
      <trkpt lat="49.19487" lon="6.96752">
        <ele>316</ele>
        <time>2011-09-25T08:43:31Z</time>
      </trkpt>
      <trkpt lat="49.19486" lon="6.96752">
        <ele>316</ele>
        <time>2011-09-25T08:43:32Z</time>
      </trkpt>
      <trkpt lat="49.19485" lon="6.96752">
        <ele>316</ele>
        <time>2011-09-25T08:43:33Z</time>
      </trkpt>
      <trkpt lat="49.19483" lon="6.96751">
        <ele>316</ele>
        <time>2011-09-25T08:43:34Z</time>
      </trkpt>
      <trkpt lat="49.19482" lon="6.96751">
        <ele>316</ele>
        <time>2011-09-25T08:43:35Z</time>
      </trkpt>
      <trkpt lat="49.19481" lon="6.96751">
        <ele>316</ele>
        <time>2011-09-25T08:43:36Z</time>
      </trkpt>
      <trkpt lat="49.1948" lon="6.9675">
        <ele>316</ele>
        <time>2011-09-25T08:43:37Z</time>
      </trkpt>
      <trkpt lat="49.19479" lon="6.96749">
        <ele>316</ele>
        <time>2011-09-25T08:43:38Z</time>
      </trkpt>
      <trkpt lat="49.19477" lon="6.96748">
        <ele>316</ele>
        <time>2011-09-25T08:43:39Z</time>
      </trkpt>
      <trkpt lat="49.19476" lon="6.96747">
        <ele>316</ele>
        <time>2011-09-25T08:43:40Z</time>
      </trkpt>
      <trkpt lat="49.19475" lon="6.96747">
        <ele>316</ele>
        <time>2011-09-25T08:43:41Z</time>
      </trkpt>
      <trkpt lat="49.19472" lon="6.96747">
        <ele>316</ele>
        <time>2011-09-25T08:43:43Z</time>
      </trkpt>
      <trkpt lat="49.19471" lon="6.96747">
        <ele>316</ele>
        <time>2011-09-25T08:43:44Z</time>
      </trkpt>
      <trkpt lat="49.19469" lon="6.96747">
        <ele>316</ele>
        <time>2011-09-25T08:43:45Z</time>
      </trkpt>
      <trkpt lat="49.19468" lon="6.96746">
        <ele>316</ele>
        <time>2011-09-25T08:43:46Z</time>
      </trkpt>
      <trkpt lat="49.19467" lon="6.96746">
        <ele>317</ele>
        <time>2011-09-25T08:43:47Z</time>
      </trkpt>
      <trkpt lat="49.19466" lon="6.96745">
        <ele>317</ele>
        <time>2011-09-25T08:43:48Z</time>
      </trkpt>
      <trkpt lat="49.19464" lon="6.96744">
        <ele>318</ele>
        <time>2011-09-25T08:43:49Z</time>
      </trkpt>
      <trkpt lat="49.19463" lon="6.96743">
        <ele>318</ele>
        <time>2011-09-25T08:43:50Z</time>
      </trkpt>
      <trkpt lat="49.19462" lon="6.96742">
        <ele>318</ele>
        <time>2011-09-25T08:43:51Z</time>
      </trkpt>
      <trkpt lat="49.19461" lon="6.96742">
        <ele>318</ele>
        <time>2011-09-25T08:43:52Z</time>
      </trkpt>
      <trkpt lat="49.19459" lon="6.9674">
        <ele>318</ele>
        <time>2011-09-25T08:43:54Z</time>
      </trkpt>
      <trkpt lat="49.19458" lon="6.96739">
        <ele>318</ele>
        <time>2011-09-25T08:43:55Z</time>
      </trkpt>
      <trkpt lat="49.19455" lon="6.96738">
        <ele>318</ele>
        <time>2011-09-25T08:43:57Z</time>
      </trkpt>
      <trkpt lat="49.19454" lon="6.96738">
        <ele>318</ele>
        <time>2011-09-25T08:43:58Z</time>
      </trkpt>
      <trkpt lat="49.19453" lon="6.96737">
        <ele>318</ele>
        <time>2011-09-25T08:43:59Z</time>
      </trkpt>
      <trkpt lat="49.19452" lon="6.96737">
        <ele>318</ele>
        <time>2011-09-25T08:44:00Z</time>
      </trkpt>
      <trkpt lat="49.1945" lon="6.96737">
        <ele>318</ele>
        <time>2011-09-25T08:44:01Z</time>
      </trkpt>
      <trkpt lat="49.19449" lon="6.96736">
        <ele>318</ele>
        <time>2011-09-25T08:44:02Z</time>
      </trkpt>
      <trkpt lat="49.19448" lon="6.96735">
        <ele>318</ele>
        <time>2011-09-25T08:44:03Z</time>
      </trkpt>
      <trkpt lat="49.19446" lon="6.96734">
        <ele>318</ele>
        <time>2011-09-25T08:44:05Z</time>
      </trkpt>
      <trkpt lat="49.19445" lon="6.96734">
        <ele>318</ele>
        <time>2011-09-25T08:44:06Z</time>
      </trkpt>
      <trkpt lat="49.19442" lon="6.96734">
        <ele>318</ele>
        <time>2011-09-25T08:44:08Z</time>
      </trkpt>
      <trkpt lat="49.19441" lon="6.96733">
        <ele>318</ele>
        <time>2011-09-25T08:44:10Z</time>
      </trkpt>
      <trkpt lat="49.19439" lon="6.96731">
        <ele>318</ele>
        <time>2011-09-25T08:44:12Z</time>
      </trkpt>
      <trkpt lat="49.19437" lon="6.9673">
        <ele>318</ele>
        <time>2011-09-25T08:44:13Z</time>
      </trkpt>
      <trkpt lat="49.19436" lon="6.96729">
        <ele>318</ele>
        <time>2011-09-25T08:44:15Z</time>
      </trkpt>
      <trkpt lat="49.19434" lon="6.96727">
        <ele>318</ele>
        <time>2011-09-25T08:44:17Z</time>
      </trkpt>
      <trkpt lat="49.19432" lon="6.96726">
        <ele>318</ele>
        <time>2011-09-25T08:44:19Z</time>
      </trkpt>
      <trkpt lat="49.1943" lon="6.96726">
        <ele>318</ele>
        <time>2011-09-25T08:44:20Z</time>
      </trkpt>
      <trkpt lat="49.19429" lon="6.96726">
        <ele>318</ele>
        <time>2011-09-25T08:44:21Z</time>
      </trkpt>
      <trkpt lat="49.19427" lon="6.96725">
        <ele>318</ele>
        <time>2011-09-25T08:44:22Z</time>
      </trkpt>
      <trkpt lat="49.19425" lon="6.96723">
        <ele>318</ele>
        <time>2011-09-25T08:44:24Z</time>
      </trkpt>
      <trkpt lat="49.19423" lon="6.96722">
        <ele>317</ele>
        <time>2011-09-25T08:44:26Z</time>
      </trkpt>
      <trkpt lat="49.19421" lon="6.96721">
        <ele>316</ele>
        <time>2011-09-25T08:44:28Z</time>
      </trkpt>
      <trkpt lat="49.19419" lon="6.96719">
        <ele>316</ele>
        <time>2011-09-25T08:44:30Z</time>
      </trkpt>
      <trkpt lat="49.19417" lon="6.96718">
        <ele>315</ele>
        <time>2011-09-25T08:44:32Z</time>
      </trkpt>
      <trkpt lat="49.19416" lon="6.96717">
        <ele>314</ele>
        <time>2011-09-25T08:44:34Z</time>
      </trkpt>
      <trkpt lat="49.19414" lon="6.96716">
        <ele>314</ele>
        <time>2011-09-25T08:44:36Z</time>
      </trkpt>
      <trkpt lat="49.19412" lon="6.96715">
        <ele>313</ele>
        <time>2011-09-25T08:44:38Z</time>
      </trkpt>
      <trkpt lat="49.19411" lon="6.96714">
        <ele>313</ele>
        <time>2011-09-25T08:44:39Z</time>
      </trkpt>
      <trkpt lat="49.1941" lon="6.96713">
        <ele>313</ele>
        <time>2011-09-25T08:44:40Z</time>
      </trkpt>
      <trkpt lat="49.19408" lon="6.96712">
        <ele>312</ele>
        <time>2011-09-25T08:44:42Z</time>
      </trkpt>
      <trkpt lat="49.19406" lon="6.9671">
        <ele>312</ele>
        <time>2011-09-25T08:44:44Z</time>
      </trkpt>
      <trkpt lat="49.19403" lon="6.96709">
        <ele>311</ele>
        <time>2011-09-25T08:44:46Z</time>
      </trkpt>
      <trkpt lat="49.19402" lon="6.96708">
        <ele>311</ele>
        <time>2011-09-25T08:44:47Z</time>
      </trkpt>
      <trkpt lat="49.19401" lon="6.96707">
        <ele>311</ele>
        <time>2011-09-25T08:44:48Z</time>
      </trkpt>
      <trkpt lat="49.19399" lon="6.96706">
        <ele>310</ele>
        <time>2011-09-25T08:44:50Z</time>
      </trkpt>
      <trkpt lat="49.19397" lon="6.96705">
        <ele>310</ele>
        <time>2011-09-25T08:44:52Z</time>
      </trkpt>
      <trkpt lat="49.19396" lon="6.96704">
        <ele>310</ele>
        <time>2011-09-25T08:44:53Z</time>
      </trkpt>
      <trkpt lat="49.19395" lon="6.96704">
        <ele>310</ele>
        <time>2011-09-25T08:44:54Z</time>
      </trkpt>
      <trkpt lat="49.19393" lon="6.96703">
        <ele>310</ele>
        <time>2011-09-25T08:44:56Z</time>
      </trkpt>
      <trkpt lat="49.19391" lon="6.96701">
        <ele>310</ele>
        <time>2011-09-25T08:44:58Z</time>
      </trkpt>
      <trkpt lat="49.1939" lon="6.96698">
        <ele>309</ele>
        <time>2011-09-25T08:45:00Z</time>
      </trkpt>
      <trkpt lat="49.19389" lon="6.96695">
        <ele>309</ele>
        <time>2011-09-25T08:45:02Z</time>
      </trkpt>
      <trkpt lat="49.19388" lon="6.96694">
        <ele>309</ele>
        <time>2011-09-25T08:45:04Z</time>
      </trkpt>
      <trkpt lat="49.19386" lon="6.96693">
        <ele>309</ele>
        <time>2011-09-25T08:45:06Z</time>
      </trkpt>
      <trkpt lat="49.19384" lon="6.96693">
        <ele>309</ele>
        <time>2011-09-25T08:45:08Z</time>
      </trkpt>
      <trkpt lat="49.19382" lon="6.96693">
        <ele>309</ele>
        <time>2011-09-25T08:45:10Z</time>
      </trkpt>
      <trkpt lat="49.1938" lon="6.96692">
        <ele>309</ele>
        <time>2011-09-25T08:45:12Z</time>
      </trkpt>
      <trkpt lat="49.19379" lon="6.96691">
        <ele>309</ele>
        <time>2011-09-25T08:45:14Z</time>
      </trkpt>
      <trkpt lat="49.19377" lon="6.96692">
        <ele>309</ele>
        <time>2011-09-25T08:45:25Z</time>
      </trkpt>
      <trkpt lat="49.19376" lon="6.96692">
        <ele>309</ele>
        <time>2011-09-25T08:45:30Z</time>
      </trkpt>
      <trkpt lat="49.19375" lon="6.96692">
        <ele>309</ele>
        <time>2011-09-25T08:45:32Z</time>
      </trkpt>
      <trkpt lat="49.19373" lon="6.96692">
        <ele>309</ele>
        <time>2011-09-25T08:45:33Z</time>
      </trkpt>
      <trkpt lat="49.19372" lon="6.96692">
        <ele>309</ele>
        <time>2011-09-25T08:45:34Z</time>
      </trkpt>
      <trkpt lat="49.19371" lon="6.96692">
        <ele>309</ele>
        <time>2011-09-25T08:45:35Z</time>
      </trkpt>
      <trkpt lat="49.1937" lon="6.96692">
        <ele>309</ele>
        <time>2011-09-25T08:45:36Z</time>
      </trkpt>
      <trkpt lat="49.19368" lon="6.96692">
        <ele>309</ele>
        <time>2011-09-25T08:45:37Z</time>
      </trkpt>
      <trkpt lat="49.19367" lon="6.96692">
        <ele>309</ele>
        <time>2011-09-25T08:45:38Z</time>
      </trkpt>
      <trkpt lat="49.19366" lon="6.96692">
        <ele>309</ele>
        <time>2011-09-25T08:45:39Z</time>
      </trkpt>
      <trkpt lat="49.19363" lon="6.96691">
        <ele>309</ele>
        <time>2011-09-25T08:45:41Z</time>
      </trkpt>
      <trkpt lat="49.19361" lon="6.96691">
        <ele>309</ele>
        <time>2011-09-25T08:45:43Z</time>
      </trkpt>
      <trkpt lat="49.19359" lon="6.96691">
        <ele>309</ele>
        <time>2011-09-25T08:45:45Z</time>
      </trkpt>
      <trkpt lat="49.19358" lon="6.96691">
        <ele>309</ele>
        <time>2011-09-25T08:45:46Z</time>
      </trkpt>
      <trkpt lat="49.19357" lon="6.96691">
        <ele>309</ele>
        <time>2011-09-25T08:45:47Z</time>
      </trkpt>
      <trkpt lat="49.19355" lon="6.9669">
        <ele>309</ele>
        <time>2011-09-25T08:45:49Z</time>
      </trkpt>
      <trkpt lat="49.19353" lon="6.96691">
        <ele>309</ele>
        <time>2011-09-25T08:45:50Z</time>
      </trkpt>
      <trkpt lat="49.19352" lon="6.96692">
        <ele>309</ele>
        <time>2011-09-25T08:45:51Z</time>
      </trkpt>
      <trkpt lat="49.19351" lon="6.96692">
        <ele>309</ele>
        <time>2011-09-25T08:45:52Z</time>
      </trkpt>
      <trkpt lat="49.19349" lon="6.96692">
        <ele>309</ele>
        <time>2011-09-25T08:45:53Z</time>
      </trkpt>
      <trkpt lat="49.19348" lon="6.96691">
        <ele>309</ele>
        <time>2011-09-25T08:45:54Z</time>
      </trkpt>
      <trkpt lat="49.19347" lon="6.9669">
        <ele>309</ele>
        <time>2011-09-25T08:45:55Z</time>
      </trkpt>
      <trkpt lat="49.19346" lon="6.9669">
        <ele>309</ele>
        <time>2011-09-25T08:45:56Z</time>
      </trkpt>
      <trkpt lat="49.19344" lon="6.96689">
        <ele>309</ele>
        <time>2011-09-25T08:45:58Z</time>
      </trkpt>
      <trkpt lat="49.19341" lon="6.96688">
        <ele>309</ele>
        <time>2011-09-25T08:46:00Z</time>
      </trkpt>
      <trkpt lat="49.1934" lon="6.96687">
        <ele>309</ele>
        <time>2011-09-25T08:46:01Z</time>
      </trkpt>
      <trkpt lat="49.19339" lon="6.96687">
        <ele>309</ele>
        <time>2011-09-25T08:46:02Z</time>
      </trkpt>
      <trkpt lat="49.19338" lon="6.96686">
        <ele>309</ele>
        <time>2011-09-25T08:46:03Z</time>
      </trkpt>
      <trkpt lat="49.19337" lon="6.96685">
        <ele>309</ele>
        <time>2011-09-25T08:46:04Z</time>
      </trkpt>
      <trkpt lat="49.19335" lon="6.96685">
        <ele>309</ele>
        <time>2011-09-25T08:46:05Z</time>
      </trkpt>
      <trkpt lat="49.19334" lon="6.96684">
        <ele>309</ele>
        <time>2011-09-25T08:46:06Z</time>
      </trkpt>
      <trkpt lat="49.19333" lon="6.96684">
        <ele>309</ele>
        <time>2011-09-25T08:46:07Z</time>
      </trkpt>
      <trkpt lat="49.19332" lon="6.96683">
        <ele>309</ele>
        <time>2011-09-25T08:46:08Z</time>
      </trkpt>
      <trkpt lat="49.19331" lon="6.96683">
        <ele>309</ele>
        <time>2011-09-25T08:46:09Z</time>
      </trkpt>
      <trkpt lat="49.19329" lon="6.96681">
        <ele>309</ele>
        <time>2011-09-25T08:46:11Z</time>
      </trkpt>
      <trkpt lat="49.19327" lon="6.9668">
        <ele>309</ele>
        <time>2011-09-25T08:46:14Z</time>
      </trkpt>
      <trkpt lat="49.19325" lon="6.96678">
        <ele>309</ele>
        <time>2011-09-25T08:46:16Z</time>
      </trkpt>
      <trkpt lat="49.19323" lon="6.96677">
        <ele>309</ele>
        <time>2011-09-25T08:46:18Z</time>
      </trkpt>
      <trkpt lat="49.19322" lon="6.96676">
        <ele>309</ele>
        <time>2011-09-25T08:46:19Z</time>
      </trkpt>
      <trkpt lat="49.1932" lon="6.96676">
        <ele>309</ele>
        <time>2011-09-25T08:46:20Z</time>
      </trkpt>
      <trkpt lat="49.19319" lon="6.96675">
        <ele>309</ele>
        <time>2011-09-25T08:46:21Z</time>
      </trkpt>
      <trkpt lat="49.19317" lon="6.96674">
        <ele>309</ele>
        <time>2011-09-25T08:46:23Z</time>
      </trkpt>
      <trkpt lat="49.19316" lon="6.96673">
        <ele>309</ele>
        <time>2011-09-25T08:46:24Z</time>
      </trkpt>
      <trkpt lat="49.19315" lon="6.96673">
        <ele>309</ele>
        <time>2011-09-25T08:46:25Z</time>
      </trkpt>
      <trkpt lat="49.19313" lon="6.96672">
        <ele>309</ele>
        <time>2011-09-25T08:46:26Z</time>
      </trkpt>
      <trkpt lat="49.19312" lon="6.96671">
        <ele>309</ele>
        <time>2011-09-25T08:46:27Z</time>
      </trkpt>
      <trkpt lat="49.19311" lon="6.9667">
        <ele>309</ele>
        <time>2011-09-25T08:46:28Z</time>
      </trkpt>
      <trkpt lat="49.19309" lon="6.96668">
        <ele>309</ele>
        <time>2011-09-25T08:46:30Z</time>
      </trkpt>
      <trkpt lat="49.19307" lon="6.96666">
        <ele>309</ele>
        <time>2011-09-25T08:46:32Z</time>
      </trkpt>
      <trkpt lat="49.19305" lon="6.96665">
        <ele>309</ele>
        <time>2011-09-25T08:46:34Z</time>
      </trkpt>
      <trkpt lat="49.19304" lon="6.96664">
        <ele>308</ele>
        <time>2011-09-25T08:46:35Z</time>
      </trkpt>
      <trkpt lat="49.19302" lon="6.96663">
        <ele>308</ele>
        <time>2011-09-25T08:46:37Z</time>
      </trkpt>
      <trkpt lat="49.19301" lon="6.96662">
        <ele>308</ele>
        <time>2011-09-25T08:46:38Z</time>
      </trkpt>
      <trkpt lat="49.19299" lon="6.96662">
        <ele>308</ele>
        <time>2011-09-25T08:46:39Z</time>
      </trkpt>
      <trkpt lat="49.19298" lon="6.96661">
        <ele>308</ele>
        <time>2011-09-25T08:46:40Z</time>
      </trkpt>
      <trkpt lat="49.19297" lon="6.96661">
        <ele>308</ele>
        <time>2011-09-25T08:46:41Z</time>
      </trkpt>
      <trkpt lat="49.19296" lon="6.9666">
        <ele>308</ele>
        <time>2011-09-25T08:46:42Z</time>
      </trkpt>
      <trkpt lat="49.19294" lon="6.96659">
        <ele>308</ele>
        <time>2011-09-25T08:46:43Z</time>
      </trkpt>
      <trkpt lat="49.19293" lon="6.96658">
        <ele>308</ele>
        <time>2011-09-25T08:46:44Z</time>
      </trkpt>
      <trkpt lat="49.19292" lon="6.96658">
        <ele>308</ele>
        <time>2011-09-25T08:46:45Z</time>
      </trkpt>
      <trkpt lat="49.19291" lon="6.96657">
        <ele>308</ele>
        <time>2011-09-25T08:46:46Z</time>
      </trkpt>
      <trkpt lat="49.1929" lon="6.96657">
        <ele>308</ele>
        <time>2011-09-25T08:46:47Z</time>
      </trkpt>
      <trkpt lat="49.19289" lon="6.96657">
        <ele>308</ele>
        <time>2011-09-25T08:46:48Z</time>
      </trkpt>
      <trkpt lat="49.19287" lon="6.96656">
        <ele>308</ele>
        <time>2011-09-25T08:46:49Z</time>
      </trkpt>
      <trkpt lat="49.19286" lon="6.96656">
        <ele>308</ele>
        <time>2011-09-25T08:46:50Z</time>
      </trkpt>
      <trkpt lat="49.19285" lon="6.96655">
        <ele>308</ele>
        <time>2011-09-25T08:46:51Z</time>
      </trkpt>
      <trkpt lat="49.19284" lon="6.96655">
        <ele>308</ele>
        <time>2011-09-25T08:46:52Z</time>
      </trkpt>
      <trkpt lat="49.19282" lon="6.96654">
        <ele>308</ele>
        <time>2011-09-25T08:46:53Z</time>
      </trkpt>
      <trkpt lat="49.19281" lon="6.96654">
        <ele>308</ele>
        <time>2011-09-25T08:46:54Z</time>
      </trkpt>
      <trkpt lat="49.19279" lon="6.96652">
        <ele>308</ele>
        <time>2011-09-25T08:46:56Z</time>
      </trkpt>
      <trkpt lat="49.19278" lon="6.96651">
        <ele>308</ele>
        <time>2011-09-25T08:46:57Z</time>
      </trkpt>
      <trkpt lat="49.19276" lon="6.96649">
        <ele>308</ele>
        <time>2011-09-25T08:46:59Z</time>
      </trkpt>
      <trkpt lat="49.19274" lon="6.96647">
        <ele>308</ele>
        <time>2011-09-25T08:47:01Z</time>
      </trkpt>
      <trkpt lat="49.19272" lon="6.96646">
        <ele>308</ele>
        <time>2011-09-25T08:47:03Z</time>
      </trkpt>
      <trkpt lat="49.1927" lon="6.96645">
        <ele>308</ele>
        <time>2011-09-25T08:47:04Z</time>
      </trkpt>
      <trkpt lat="49.19269" lon="6.96644">
        <ele>308</ele>
        <time>2011-09-25T08:47:05Z</time>
      </trkpt>
      <trkpt lat="49.19267" lon="6.96643">
        <ele>308</ele>
        <time>2011-09-25T08:47:07Z</time>
      </trkpt>
      <trkpt lat="49.19266" lon="6.96642">
        <ele>308</ele>
        <time>2011-09-25T08:47:08Z</time>
      </trkpt>
      <trkpt lat="49.19265" lon="6.96642">
        <ele>308</ele>
        <time>2011-09-25T08:47:09Z</time>
      </trkpt>
      <trkpt lat="49.19263" lon="6.9664">
        <ele>308</ele>
        <time>2011-09-25T08:47:11Z</time>
      </trkpt>
      <trkpt lat="49.19262" lon="6.96639">
        <ele>308</ele>
        <time>2011-09-25T08:47:12Z</time>
      </trkpt>
      <trkpt lat="49.1926" lon="6.96636">
        <ele>308</ele>
        <time>2011-09-25T08:47:14Z</time>
      </trkpt>
      <trkpt lat="49.19258" lon="6.96634">
        <ele>308</ele>
        <time>2011-09-25T08:47:16Z</time>
      </trkpt>
      <trkpt lat="49.19256" lon="6.96633">
        <ele>308</ele>
        <time>2011-09-25T08:47:18Z</time>
      </trkpt>
      <trkpt lat="49.19254" lon="6.96632">
        <ele>308</ele>
        <time>2011-09-25T08:47:19Z</time>
      </trkpt>
      <trkpt lat="49.19253" lon="6.96631">
        <ele>308</ele>
        <time>2011-09-25T08:47:20Z</time>
      </trkpt>
      <trkpt lat="49.19252" lon="6.9663">
        <ele>308</ele>
        <time>2011-09-25T08:47:21Z</time>
      </trkpt>
      <trkpt lat="49.19249" lon="6.96629">
        <ele>308</ele>
        <time>2011-09-25T08:47:23Z</time>
      </trkpt>
      <trkpt lat="49.19247" lon="6.96627">
        <ele>308</ele>
        <time>2011-09-25T08:47:25Z</time>
      </trkpt>
      <trkpt lat="49.19246" lon="6.96626">
        <ele>308</ele>
        <time>2011-09-25T08:47:26Z</time>
      </trkpt>
      <trkpt lat="49.19245" lon="6.96626">
        <ele>308</ele>
        <time>2011-09-25T08:47:27Z</time>
      </trkpt>
      <trkpt lat="49.19243" lon="6.96624">
        <ele>308</ele>
        <time>2011-09-25T08:47:29Z</time>
      </trkpt>
      <trkpt lat="49.19242" lon="6.96624">
        <ele>308</ele>
        <time>2011-09-25T08:47:30Z</time>
      </trkpt>
      <trkpt lat="49.19239" lon="6.96623">
        <ele>307</ele>
        <time>2011-09-25T08:47:32Z</time>
      </trkpt>
      <trkpt lat="49.19238" lon="6.96622">
        <ele>307</ele>
        <time>2011-09-25T08:47:33Z</time>
      </trkpt>
      <trkpt lat="49.19237" lon="6.96621">
        <ele>307</ele>
        <time>2011-09-25T08:47:34Z</time>
      </trkpt>
      <trkpt lat="49.19236" lon="6.96621">
        <ele>307</ele>
        <time>2011-09-25T08:47:35Z</time>
      </trkpt>
      <trkpt lat="49.19234" lon="6.9662">
        <ele>307</ele>
        <time>2011-09-25T08:47:36Z</time>
      </trkpt>
      <trkpt lat="49.19232" lon="6.96619">
        <ele>307</ele>
        <time>2011-09-25T08:47:38Z</time>
      </trkpt>
      <trkpt lat="49.1923" lon="6.96617">
        <ele>307</ele>
        <time>2011-09-25T08:47:40Z</time>
      </trkpt>
      <trkpt lat="49.19229" lon="6.96617">
        <ele>307</ele>
        <time>2011-09-25T08:47:41Z</time>
      </trkpt>
      <trkpt lat="49.19228" lon="6.96616">
        <ele>307</ele>
        <time>2011-09-25T08:47:42Z</time>
      </trkpt>
      <trkpt lat="49.19227" lon="6.96615">
        <ele>307</ele>
        <time>2011-09-25T08:47:43Z</time>
      </trkpt>
      <trkpt lat="49.19225" lon="6.96615">
        <ele>307</ele>
        <time>2011-09-25T08:47:45Z</time>
      </trkpt>
      <trkpt lat="49.19223" lon="6.96615">
        <ele>307</ele>
        <time>2011-09-25T08:47:47Z</time>
      </trkpt>
      <trkpt lat="49.19221" lon="6.96615">
        <ele>307</ele>
        <time>2011-09-25T08:47:49Z</time>
      </trkpt>
      <trkpt lat="49.1922" lon="6.96614">
        <ele>307</ele>
        <time>2011-09-25T08:47:50Z</time>
      </trkpt>
      <trkpt lat="49.19218" lon="6.96613">
        <ele>307</ele>
        <time>2011-09-25T08:47:52Z</time>
      </trkpt>
      <trkpt lat="49.19217" lon="6.96614">
        <ele>307</ele>
        <time>2011-09-25T08:47:53Z</time>
      </trkpt>
      <trkpt lat="49.19215" lon="6.96614">
        <ele>307</ele>
        <time>2011-09-25T08:47:54Z</time>
      </trkpt>
      <trkpt lat="49.19214" lon="6.96613">
        <ele>307</ele>
        <time>2011-09-25T08:47:55Z</time>
      </trkpt>
      <trkpt lat="49.19213" lon="6.96613">
        <ele>307</ele>
        <time>2011-09-25T08:47:56Z</time>
      </trkpt>
      <trkpt lat="49.19212" lon="6.96613">
        <ele>307</ele>
        <time>2011-09-25T08:47:57Z</time>
      </trkpt>
      <trkpt lat="49.1921" lon="6.96613">
        <ele>307</ele>
        <time>2011-09-25T08:47:58Z</time>
      </trkpt>
      <trkpt lat="49.19208" lon="6.96612">
        <ele>307</ele>
        <time>2011-09-25T08:48:00Z</time>
      </trkpt>
      <trkpt lat="49.19207" lon="6.96613">
        <ele>307</ele>
        <time>2011-09-25T08:48:01Z</time>
      </trkpt>
      <trkpt lat="49.19205" lon="6.96613">
        <ele>307</ele>
        <time>2011-09-25T08:48:02Z</time>
      </trkpt>
      <trkpt lat="49.19204" lon="6.96613">
        <ele>307</ele>
        <time>2011-09-25T08:48:03Z</time>
      </trkpt>
      <trkpt lat="49.19203" lon="6.96613">
        <ele>307</ele>
        <time>2011-09-25T08:48:04Z</time>
      </trkpt>
      <trkpt lat="49.19202" lon="6.96612">
        <ele>307</ele>
        <time>2011-09-25T08:48:05Z</time>
      </trkpt>
      <trkpt lat="49.192" lon="6.96612">
        <ele>307</ele>
        <time>2011-09-25T08:48:06Z</time>
      </trkpt>
      <trkpt lat="49.19199" lon="6.96612">
        <ele>307</ele>
        <time>2011-09-25T08:48:07Z</time>
      </trkpt>
      <trkpt lat="49.19198" lon="6.96612">
        <ele>307</ele>
        <time>2011-09-25T08:48:08Z</time>
      </trkpt>
      <trkpt lat="49.19196" lon="6.96611">
        <ele>307</ele>
        <time>2011-09-25T08:48:10Z</time>
      </trkpt>
      <trkpt lat="49.19194" lon="6.96611">
        <ele>307</ele>
        <time>2011-09-25T08:48:11Z</time>
      </trkpt>
      <trkpt lat="49.19193" lon="6.96611">
        <ele>307</ele>
        <time>2011-09-25T08:48:12Z</time>
      </trkpt>
      <trkpt lat="49.19192" lon="6.96611">
        <ele>307</ele>
        <time>2011-09-25T08:48:13Z</time>
      </trkpt>
      <trkpt lat="49.1919" lon="6.96611">
        <ele>307</ele>
        <time>2011-09-25T08:48:14Z</time>
      </trkpt>
      <trkpt lat="49.19188" lon="6.96611">
        <ele>307</ele>
        <time>2011-09-25T08:48:16Z</time>
      </trkpt>
      <trkpt lat="49.19187" lon="6.96611">
        <ele>307</ele>
        <time>2011-09-25T08:48:17Z</time>
      </trkpt>
      <trkpt lat="49.19186" lon="6.9661">
        <ele>307</ele>
        <time>2011-09-25T08:48:18Z</time>
      </trkpt>
      <trkpt lat="49.19184" lon="6.9661">
        <ele>307</ele>
        <time>2011-09-25T08:48:20Z</time>
      </trkpt>
      <trkpt lat="49.19182" lon="6.9661">
        <ele>307</ele>
        <time>2011-09-25T08:48:22Z</time>
      </trkpt>
      <trkpt lat="49.1918" lon="6.9661">
        <ele>307</ele>
        <time>2011-09-25T08:48:23Z</time>
      </trkpt>
      <trkpt lat="49.19179" lon="6.9661">
        <ele>307</ele>
        <time>2011-09-25T08:48:24Z</time>
      </trkpt>
      <trkpt lat="49.19178" lon="6.96609">
        <ele>307</ele>
        <time>2011-09-25T08:48:25Z</time>
      </trkpt>
      <trkpt lat="49.19176" lon="6.96609">
        <ele>307</ele>
        <time>2011-09-25T08:48:26Z</time>
      </trkpt>
      <trkpt lat="49.19175" lon="6.96609">
        <ele>307</ele>
        <time>2011-09-25T08:48:27Z</time>
      </trkpt>
      <trkpt lat="49.19174" lon="6.96609">
        <ele>307</ele>
        <time>2011-09-25T08:48:28Z</time>
      </trkpt>
      <trkpt lat="49.19173" lon="6.96609">
        <ele>307</ele>
        <time>2011-09-25T08:48:29Z</time>
      </trkpt>
      <trkpt lat="49.19172" lon="6.96609">
        <ele>307</ele>
        <time>2011-09-25T08:48:30Z</time>
      </trkpt>
      <trkpt lat="49.1917" lon="6.96609">
        <ele>307</ele>
        <time>2011-09-25T08:48:31Z</time>
      </trkpt>
      <trkpt lat="49.19169" lon="6.96609">
        <ele>307</ele>
        <time>2011-09-25T08:48:32Z</time>
      </trkpt>
      <trkpt lat="49.19166" lon="6.96609">
        <ele>306</ele>
        <time>2011-09-25T08:48:34Z</time>
      </trkpt>
      <trkpt lat="49.19165" lon="6.9661">
        <ele>306</ele>
        <time>2011-09-25T08:48:35Z</time>
      </trkpt>
      <trkpt lat="49.19163" lon="6.9661">
        <ele>306</ele>
        <time>2011-09-25T08:48:36Z</time>
      </trkpt>
      <trkpt lat="49.19161" lon="6.9661">
        <ele>306</ele>
        <time>2011-09-25T08:48:37Z</time>
      </trkpt>
      <trkpt lat="49.19159" lon="6.96611">
        <ele>306</ele>
        <time>2011-09-25T08:48:39Z</time>
      </trkpt>
      <trkpt lat="49.19158" lon="6.96612">
        <ele>306</ele>
        <time>2011-09-25T08:48:40Z</time>
      </trkpt>
      <trkpt lat="49.19156" lon="6.96613">
        <ele>306</ele>
        <time>2011-09-25T08:48:41Z</time>
      </trkpt>
      <trkpt lat="49.19154" lon="6.96611">
        <ele>307</ele>
        <time>2011-09-25T08:48:43Z</time>
      </trkpt>
      <trkpt lat="49.19152" lon="6.96611">
        <ele>307</ele>
        <time>2011-09-25T08:48:45Z</time>
      </trkpt>
      <trkpt lat="49.19151" lon="6.9661">
        <ele>307</ele>
        <time>2011-09-25T08:48:46Z</time>
      </trkpt>
      <trkpt lat="49.19149" lon="6.96606">
        <ele>308</ele>
        <time>2011-09-25T08:48:48Z</time>
      </trkpt>
      <trkpt lat="49.19149" lon="6.96604">
        <ele>308</ele>
        <time>2011-09-25T08:48:49Z</time>
      </trkpt>
      <trkpt lat="49.19149" lon="6.96603">
        <ele>308</ele>
        <time>2011-09-25T08:48:50Z</time>
      </trkpt>
      <trkpt lat="49.1915" lon="6.966">
        <ele>308</ele>
        <time>2011-09-25T08:48:52Z</time>
      </trkpt>
      <trkpt lat="49.1915" lon="6.96597">
        <ele>308</ele>
        <time>2011-09-25T08:48:53Z</time>
      </trkpt>
      <trkpt lat="49.1915" lon="6.96595">
        <ele>308</ele>
        <time>2011-09-25T08:48:54Z</time>
      </trkpt>
      <trkpt lat="49.1915" lon="6.96594">
        <ele>308</ele>
        <time>2011-09-25T08:48:55Z</time>
      </trkpt>
      <trkpt lat="49.19151" lon="6.9659">
        <ele>308</ele>
        <time>2011-09-25T08:48:57Z</time>
      </trkpt>
      <trkpt lat="49.19151" lon="6.96588">
        <ele>308</ele>
        <time>2011-09-25T08:48:58Z</time>
      </trkpt>
      <trkpt lat="49.1915" lon="6.96586">
        <ele>308</ele>
        <time>2011-09-25T08:48:59Z</time>
      </trkpt>
      <trkpt lat="49.1915" lon="6.96585">
        <ele>308</ele>
        <time>2011-09-25T08:49:00Z</time>
      </trkpt>
      <trkpt lat="49.19147" lon="6.96582">
        <ele>308</ele>
        <time>2011-09-25T08:49:02Z</time>
      </trkpt>
      <trkpt lat="49.19146" lon="6.96582">
        <ele>308</ele>
        <time>2011-09-25T08:49:03Z</time>
      </trkpt>
      <trkpt lat="49.19145" lon="6.9658">
        <ele>308</ele>
        <time>2011-09-25T08:49:04Z</time>
      </trkpt>
      <trkpt lat="49.19144" lon="6.96578">
        <ele>308</ele>
        <time>2011-09-25T08:49:06Z</time>
      </trkpt>
      <trkpt lat="49.19144" lon="6.96575">
        <ele>308</ele>
        <time>2011-09-25T08:49:08Z</time>
      </trkpt>
      <trkpt lat="49.19145" lon="6.96572">
        <ele>308</ele>
        <time>2011-09-25T08:49:10Z</time>
      </trkpt>
      <trkpt lat="49.19146" lon="6.96571">
        <ele>308</ele>
        <time>2011-09-25T08:49:11Z</time>
      </trkpt>
      <trkpt lat="49.19146" lon="6.96568">
        <ele>308</ele>
        <time>2011-09-25T08:49:13Z</time>
      </trkpt>
      <trkpt lat="49.19146" lon="6.96566">
        <ele>308</ele>
        <time>2011-09-25T08:49:15Z</time>
      </trkpt>
      <trkpt lat="49.19147" lon="6.96564">
        <ele>308</ele>
        <time>2011-09-25T08:49:16Z</time>
      </trkpt>
      <trkpt lat="49.19148" lon="6.96562">
        <ele>308</ele>
        <time>2011-09-25T08:49:17Z</time>
      </trkpt>
      <trkpt lat="49.19148" lon="6.96561">
        <ele>308</ele>
        <time>2011-09-25T08:49:18Z</time>
      </trkpt>
      <trkpt lat="49.19148" lon="6.96559">
        <ele>308</ele>
        <time>2011-09-25T08:49:19Z</time>
      </trkpt>
      <trkpt lat="49.19149" lon="6.96558">
        <ele>308</ele>
        <time>2011-09-25T08:49:20Z</time>
      </trkpt>
      <trkpt lat="49.19149" lon="6.96555">
        <ele>308</ele>
        <time>2011-09-25T08:49:22Z</time>
      </trkpt>
      <trkpt lat="49.19149" lon="6.96553">
        <ele>308</ele>
        <time>2011-09-25T08:49:23Z</time>
      </trkpt>
      <trkpt lat="49.19149" lon="6.96551">
        <ele>308</ele>
        <time>2011-09-25T08:49:24Z</time>
      </trkpt>
      <trkpt lat="49.19149" lon="6.96549">
        <ele>308</ele>
        <time>2011-09-25T08:49:25Z</time>
      </trkpt>
      <trkpt lat="49.19149" lon="6.96547">
        <ele>308</ele>
        <time>2011-09-25T08:49:26Z</time>
      </trkpt>
      <trkpt lat="49.19149" lon="6.96546">
        <ele>308</ele>
        <time>2011-09-25T08:49:27Z</time>
      </trkpt>
      <trkpt lat="49.19149" lon="6.96544">
        <ele>308</ele>
        <time>2011-09-25T08:49:28Z</time>
      </trkpt>
      <trkpt lat="49.19149" lon="6.96542">
        <ele>308</ele>
        <time>2011-09-25T08:49:29Z</time>
      </trkpt>
      <trkpt lat="49.19149" lon="6.9654">
        <ele>308</ele>
        <time>2011-09-25T08:49:30Z</time>
      </trkpt>
      <trkpt lat="49.19149" lon="6.96538">
        <ele>308</ele>
        <time>2011-09-25T08:49:31Z</time>
      </trkpt>
      <trkpt lat="49.19149" lon="6.96536">
        <ele>308</ele>
        <time>2011-09-25T08:49:32Z</time>
      </trkpt>
      <trkpt lat="49.19149" lon="6.96534">
        <ele>308</ele>
        <time>2011-09-25T08:49:33Z</time>
      </trkpt>
      <trkpt lat="49.19149" lon="6.96532">
        <ele>308</ele>
        <time>2011-09-25T08:49:34Z</time>
      </trkpt>
      <trkpt lat="49.19149" lon="6.9653">
        <ele>308</ele>
        <time>2011-09-25T08:49:35Z</time>
      </trkpt>
      <trkpt lat="49.19149" lon="6.96529">
        <ele>308</ele>
        <time>2011-09-25T08:49:36Z</time>
      </trkpt>
      <trkpt lat="49.19149" lon="6.96525">
        <ele>308</ele>
        <time>2011-09-25T08:49:38Z</time>
      </trkpt>
      <trkpt lat="49.19149" lon="6.96524">
        <ele>308</ele>
        <time>2011-09-25T08:49:39Z</time>
      </trkpt>
      <trkpt lat="49.19149" lon="6.96521">
        <ele>308</ele>
        <time>2011-09-25T08:49:40Z</time>
      </trkpt>
      <trkpt lat="49.19149" lon="6.9652">
        <ele>308</ele>
        <time>2011-09-25T08:49:41Z</time>
      </trkpt>
      <trkpt lat="49.19149" lon="6.96518">
        <ele>308</ele>
        <time>2011-09-25T08:49:42Z</time>
      </trkpt>
      <trkpt lat="49.1915" lon="6.96515">
        <ele>308</ele>
        <time>2011-09-25T08:49:44Z</time>
      </trkpt>
      <trkpt lat="49.1915" lon="6.96513">
        <ele>308</ele>
        <time>2011-09-25T08:49:45Z</time>
      </trkpt>
      <trkpt lat="49.1915" lon="6.96512">
        <ele>308</ele>
        <time>2011-09-25T08:49:46Z</time>
      </trkpt>
      <trkpt lat="49.1915" lon="6.9651">
        <ele>308</ele>
        <time>2011-09-25T08:49:47Z</time>
      </trkpt>
      <trkpt lat="49.1915" lon="6.96507">
        <ele>308</ele>
        <time>2011-09-25T08:49:49Z</time>
      </trkpt>
      <trkpt lat="49.1915" lon="6.96504">
        <ele>308</ele>
        <time>2011-09-25T08:49:52Z</time>
      </trkpt>
      <trkpt lat="49.19151" lon="6.96501">
        <ele>308</ele>
        <time>2011-09-25T08:49:54Z</time>
      </trkpt>
      <trkpt lat="49.19151" lon="6.96499">
        <ele>308</ele>
        <time>2011-09-25T08:49:55Z</time>
      </trkpt>
      <trkpt lat="49.19151" lon="6.96497">
        <ele>308</ele>
        <time>2011-09-25T08:49:56Z</time>
      </trkpt>
      <trkpt lat="49.19151" lon="6.96496">
        <ele>308</ele>
        <time>2011-09-25T08:49:57Z</time>
      </trkpt>
      <trkpt lat="49.19151" lon="6.96494">
        <ele>308</ele>
        <time>2011-09-25T08:49:58Z</time>
      </trkpt>
      <trkpt lat="49.19151" lon="6.96492">
        <ele>308</ele>
        <time>2011-09-25T08:49:59Z</time>
      </trkpt>
      <trkpt lat="49.19151" lon="6.96491">
        <ele>308</ele>
        <time>2011-09-25T08:50:00Z</time>
      </trkpt>
      <trkpt lat="49.19151" lon="6.96489">
        <ele>308</ele>
        <time>2011-09-25T08:50:01Z</time>
      </trkpt>
      <trkpt lat="49.19151" lon="6.96487">
        <ele>308</ele>
        <time>2011-09-25T08:50:02Z</time>
      </trkpt>
      <trkpt lat="49.19151" lon="6.96485">
        <ele>308</ele>
        <time>2011-09-25T08:50:03Z</time>
      </trkpt>
      <trkpt lat="49.19151" lon="6.96484">
        <ele>308</ele>
        <time>2011-09-25T08:50:04Z</time>
      </trkpt>
      <trkpt lat="49.19151" lon="6.96482">
        <ele>308</ele>
        <time>2011-09-25T08:50:05Z</time>
      </trkpt>
      <trkpt lat="49.19151" lon="6.9648">
        <ele>308</ele>
        <time>2011-09-25T08:50:06Z</time>
      </trkpt>
      <trkpt lat="49.19151" lon="6.96477">
        <ele>308</ele>
        <time>2011-09-25T08:50:08Z</time>
      </trkpt>
      <trkpt lat="49.19151" lon="6.96474">
        <ele>308</ele>
        <time>2011-09-25T08:50:09Z</time>
      </trkpt>
      <trkpt lat="49.19151" lon="6.96473">
        <ele>308</ele>
        <time>2011-09-25T08:50:10Z</time>
      </trkpt>
      <trkpt lat="49.19152" lon="6.96471">
        <ele>308</ele>
        <time>2011-09-25T08:50:11Z</time>
      </trkpt>
      <trkpt lat="49.19152" lon="6.96468">
        <ele>308</ele>
        <time>2011-09-25T08:50:13Z</time>
      </trkpt>
      <trkpt lat="49.19152" lon="6.96466">
        <ele>308</ele>
        <time>2011-09-25T08:50:14Z</time>
      </trkpt>
      <trkpt lat="49.19152" lon="6.96464">
        <ele>308</ele>
        <time>2011-09-25T08:50:15Z</time>
      </trkpt>
      <trkpt lat="49.19152" lon="6.96462">
        <ele>308</ele>
        <time>2011-09-25T08:50:16Z</time>
      </trkpt>
      <trkpt lat="49.19152" lon="6.9646">
        <ele>308</ele>
        <time>2011-09-25T08:50:17Z</time>
      </trkpt>
      <trkpt lat="49.19153" lon="6.96458">
        <ele>308</ele>
        <time>2011-09-25T08:50:18Z</time>
      </trkpt>
      <trkpt lat="49.19153" lon="6.96456">
        <ele>308</ele>
        <time>2011-09-25T08:50:19Z</time>
      </trkpt>
      <trkpt lat="49.19153" lon="6.96454">
        <ele>308</ele>
        <time>2011-09-25T08:50:20Z</time>
      </trkpt>
      <trkpt lat="49.19154" lon="6.96452">
        <ele>308</ele>
        <time>2011-09-25T08:50:21Z</time>
      </trkpt>
      <trkpt lat="49.19154" lon="6.9645">
        <ele>308</ele>
        <time>2011-09-25T08:50:22Z</time>
      </trkpt>
      <trkpt lat="49.19154" lon="6.96448">
        <ele>308</ele>
        <time>2011-09-25T08:50:23Z</time>
      </trkpt>
      <trkpt lat="49.19154" lon="6.96446">
        <ele>308</ele>
        <time>2011-09-25T08:50:24Z</time>
      </trkpt>
      <trkpt lat="49.19154" lon="6.96444">
        <ele>308</ele>
        <time>2011-09-25T08:50:25Z</time>
      </trkpt>
      <trkpt lat="49.19154" lon="6.96442">
        <ele>308</ele>
        <time>2011-09-25T08:50:26Z</time>
      </trkpt>
      <trkpt lat="49.19154" lon="6.9644">
        <ele>308</ele>
        <time>2011-09-25T08:50:27Z</time>
      </trkpt>
      <trkpt lat="49.19154" lon="6.96438">
        <ele>308</ele>
        <time>2011-09-25T08:50:28Z</time>
      </trkpt>
      <trkpt lat="49.19154" lon="6.96436">
        <ele>308</ele>
        <time>2011-09-25T08:50:29Z</time>
      </trkpt>
      <trkpt lat="49.19154" lon="6.96434">
        <ele>308</ele>
        <time>2011-09-25T08:50:30Z</time>
      </trkpt>
      <trkpt lat="49.19154" lon="6.96432">
        <ele>308</ele>
        <time>2011-09-25T08:50:31Z</time>
      </trkpt>
      <trkpt lat="49.19154" lon="6.9643">
        <ele>308</ele>
        <time>2011-09-25T08:50:32Z</time>
      </trkpt>
      <trkpt lat="49.19154" lon="6.96429">
        <ele>308</ele>
        <time>2011-09-25T08:50:33Z</time>
      </trkpt>
      <trkpt lat="49.19155" lon="6.96427">
        <ele>308</ele>
        <time>2011-09-25T08:50:34Z</time>
      </trkpt>
      <trkpt lat="49.19155" lon="6.96425">
        <ele>308</ele>
        <time>2011-09-25T08:50:35Z</time>
      </trkpt>
      <trkpt lat="49.19155" lon="6.96424">
        <ele>308</ele>
        <time>2011-09-25T08:50:36Z</time>
      </trkpt>
      <trkpt lat="49.19155" lon="6.96422">
        <ele>308</ele>
        <time>2011-09-25T08:50:37Z</time>
      </trkpt>
      <trkpt lat="49.19155" lon="6.9642">
        <ele>308</ele>
        <time>2011-09-25T08:50:38Z</time>
      </trkpt>
      <trkpt lat="49.19156" lon="6.96419">
        <ele>308</ele>
        <time>2011-09-25T08:50:39Z</time>
      </trkpt>
      <trkpt lat="49.19156" lon="6.96417">
        <ele>308</ele>
        <time>2011-09-25T08:50:40Z</time>
      </trkpt>
      <trkpt lat="49.19156" lon="6.96415">
        <ele>308</ele>
        <time>2011-09-25T08:50:41Z</time>
      </trkpt>
      <trkpt lat="49.19156" lon="6.96413">
        <ele>308</ele>
        <time>2011-09-25T08:50:42Z</time>
      </trkpt>
      <trkpt lat="49.19156" lon="6.9641">
        <ele>308</ele>
        <time>2011-09-25T08:50:44Z</time>
      </trkpt>
      <trkpt lat="49.19156" lon="6.96409">
        <ele>308</ele>
        <time>2011-09-25T08:50:45Z</time>
      </trkpt>
      <trkpt lat="49.19156" lon="6.96407">
        <ele>308</ele>
        <time>2011-09-25T08:50:46Z</time>
      </trkpt>
      <trkpt lat="49.19156" lon="6.96405">
        <ele>308</ele>
        <time>2011-09-25T08:50:47Z</time>
      </trkpt>
      <trkpt lat="49.19157" lon="6.96403">
        <ele>308</ele>
        <time>2011-09-25T08:50:48Z</time>
      </trkpt>
      <trkpt lat="49.19157" lon="6.96401">
        <ele>308</ele>
        <time>2011-09-25T08:50:49Z</time>
      </trkpt>
      <trkpt lat="49.19157" lon="6.96399">
        <ele>308</ele>
        <time>2011-09-25T08:50:50Z</time>
      </trkpt>
      <trkpt lat="49.19157" lon="6.96396">
        <ele>308</ele>
        <time>2011-09-25T08:50:52Z</time>
      </trkpt>
      <trkpt lat="49.19157" lon="6.96392">
        <ele>308</ele>
        <time>2011-09-25T08:50:54Z</time>
      </trkpt>
      <trkpt lat="49.19157" lon="6.96391">
        <ele>308</ele>
        <time>2011-09-25T08:50:55Z</time>
      </trkpt>
      <trkpt lat="49.19157" lon="6.96389">
        <ele>308</ele>
        <time>2011-09-25T08:50:56Z</time>
      </trkpt>
      <trkpt lat="49.19157" lon="6.96386">
        <ele>308</ele>
        <time>2011-09-25T08:50:58Z</time>
      </trkpt>
      <trkpt lat="49.19157" lon="6.96384">
        <ele>308</ele>
        <time>2011-09-25T08:50:59Z</time>
      </trkpt>
      <trkpt lat="49.19157" lon="6.96383">
        <ele>308</ele>
        <time>2011-09-25T08:51:00Z</time>
      </trkpt>
      <trkpt lat="49.19157" lon="6.96381">
        <ele>308</ele>
        <time>2011-09-25T08:51:01Z</time>
      </trkpt>
      <trkpt lat="49.19157" lon="6.96379">
        <ele>308</ele>
        <time>2011-09-25T08:51:02Z</time>
      </trkpt>
      <trkpt lat="49.19157" lon="6.96376">
        <ele>308</ele>
        <time>2011-09-25T08:51:04Z</time>
      </trkpt>
      <trkpt lat="49.19158" lon="6.96374">
        <ele>308</ele>
        <time>2011-09-25T08:51:05Z</time>
      </trkpt>
      <trkpt lat="49.19158" lon="6.96371">
        <ele>308</ele>
        <time>2011-09-25T08:51:06Z</time>
      </trkpt>
      <trkpt lat="49.19158" lon="6.96369">
        <ele>308</ele>
        <time>2011-09-25T08:51:07Z</time>
      </trkpt>
      <trkpt lat="49.19158" lon="6.96367">
        <ele>308</ele>
        <time>2011-09-25T08:51:08Z</time>
      </trkpt>
      <trkpt lat="49.19158" lon="6.96365">
        <ele>308</ele>
        <time>2011-09-25T08:51:09Z</time>
      </trkpt>
      <trkpt lat="49.19158" lon="6.96363">
        <ele>308</ele>
        <time>2011-09-25T08:51:10Z</time>
      </trkpt>
      <trkpt lat="49.19158" lon="6.96362">
        <ele>308</ele>
        <time>2011-09-25T08:51:11Z</time>
      </trkpt>
      <trkpt lat="49.19158" lon="6.9636">
        <ele>308</ele>
        <time>2011-09-25T08:51:12Z</time>
      </trkpt>
      <trkpt lat="49.19158" lon="6.96358">
        <ele>308</ele>
        <time>2011-09-25T08:51:13Z</time>
      </trkpt>
      <trkpt lat="49.19158" lon="6.96355">
        <ele>308</ele>
        <time>2011-09-25T08:51:14Z</time>
      </trkpt>
      <trkpt lat="49.19158" lon="6.96353">
        <ele>308</ele>
        <time>2011-09-25T08:51:15Z</time>
      </trkpt>
      <trkpt lat="49.19159" lon="6.96351">
        <ele>308</ele>
        <time>2011-09-25T08:51:16Z</time>
      </trkpt>
      <trkpt lat="49.19159" lon="6.96351">
        <ele>308</ele>
        <time>2011-09-25T08:51:17Z</time>
      </trkpt>
    </trkseg>
  </trk>
</gpx>